<?xml version='1.0' encoding='UTF-8'?><gpx version="1.1" creator="JPX - https://github.com/jenetics/jpx" xmlns="http://www.topografix.com/GPX/1/1"><trk><trkseg><trkpt lat="44.77397184856533" lon="10.263345685894643"><ele>85.0</ele><time>2026-03-28T13:46:15Z</time></trkpt><trkpt lat="44.77394502245345" lon="10.263440720099966"><ele>85.0</ele><time>2026-03-28T13:46:16Z</time></trkpt><trkpt lat="44.77389138237252" lon="10.26354861158267"><ele>85.0</ele><time>2026-03-28T13:46:18Z</time></trkpt><trkpt lat="44.773822854158254" lon="10.263558543876075"><ele>85.0</ele><time>2026-03-28T13:46:20Z</time></trkpt><trkpt lat="44.77375815433454" lon="10.263424373494587"><ele>85.0</ele><time>2026-03-28T13:46:22Z</time></trkpt><trkpt lat="44.77370280458154" lon="10.263294195944285"><ele>85.0</ele><time>2026-03-28T13:46:23Z</time></trkpt><trkpt lat="44.77363145833111" lon="10.263144688418715"><ele>85.0</ele><time>2026-03-28T13:46:24Z</time></trkpt><trkpt lat="44.77352134999987" lon="10.262920437623364"><ele>85.0</ele><time>2026-03-28T13:46:25Z</time></trkpt><trkpt lat="44.77340760691107" lon="10.262686043362068"><ele>86.0</ele><time>2026-03-28T13:46:26Z</time></trkpt><trkpt lat="44.77330053758607" lon="10.262463922581903"><ele>87.0</ele><time>2026-03-28T13:46:27Z</time></trkpt><trkpt lat="44.77318655555345" lon="10.262210680904866"><ele>88.0</ele><time>2026-03-28T13:46:28Z</time></trkpt><trkpt lat="44.773098793649964" lon="10.262013506504687"><ele>88.0</ele><time>2026-03-28T13:46:29Z</time></trkpt><trkpt lat="44.77302183766607" lon="10.26184923767258"><ele>88.0</ele><time>2026-03-28T13:46:30Z</time></trkpt><trkpt lat="44.77296775967608" lon="10.261730909184173"><ele>88.0</ele><time>2026-03-28T13:46:31Z</time></trkpt><trkpt lat="44.77291768580661" lon="10.261647631306891"><ele>88.0</ele><time>2026-03-28T13:46:32Z</time></trkpt><trkpt lat="44.77288291000671" lon="10.261573387319185"><ele>88.0</ele><time>2026-03-28T13:46:33Z</time></trkpt><trkpt lat="44.772682222191534" lon="10.261736583348936"><ele>88.4</ele><time>2026-03-28T13:46:35Z</time></trkpt><trkpt lat="44.772583111117086" lon="10.261813463219255"><ele>88.80000000000001</ele><time>2026-03-28T13:46:36Z</time></trkpt><trkpt lat="44.77250331154079" lon="10.261914064808966"><ele>89.2</ele><time>2026-03-28T13:46:37Z</time></trkpt><trkpt lat="44.77242694611696" lon="10.261997756361627"><ele>89.6</ele><time>2026-03-28T13:46:38Z</time></trkpt><trkpt lat="44.772356161322634" lon="10.262067124324046"><ele>90.0</ele><time>2026-03-28T13:46:39Z</time></trkpt><trkpt lat="44.772294757952224" lon="10.262124688980542"><ele>90.0</ele><time>2026-03-28T13:46:40Z</time></trkpt><trkpt lat="44.772198696088914" lon="10.262215143622306"><ele>90.0</ele><time>2026-03-28T13:46:42Z</time></trkpt><trkpt lat="44.77211808354959" lon="10.262289309995596"><ele>90.0</ele><time>2026-03-28T13:46:44Z</time></trkpt><trkpt lat="44.77201551526371" lon="10.262388442318462"><ele>90.0</ele><time>2026-03-28T13:46:46Z</time></trkpt><trkpt lat="44.77191095110688" lon="10.262478349022432"><ele>90.0</ele><time>2026-03-28T13:46:48Z</time></trkpt><trkpt lat="44.77180552128418" lon="10.262567948590476"><ele>90.0</ele><time>2026-03-28T13:46:50Z</time></trkpt><trkpt lat="44.77174408939917" lon="10.262629845610919"><ele>90.0</ele><time>2026-03-28T13:46:51Z</time></trkpt><trkpt lat="44.77167748851804" lon="10.26269586207882"><ele>90.0</ele><time>2026-03-28T13:46:52Z</time></trkpt><trkpt lat="44.77160622268282" lon="10.262759003691608"><ele>90.0</ele><time>2026-03-28T13:46:53Z</time></trkpt><trkpt lat="44.771538084185394" lon="10.26282380292739"><ele>90.0</ele><time>2026-03-28T13:46:54Z</time></trkpt><trkpt lat="44.77147896069091" lon="10.26288205991997"><ele>90.0</ele><time>2026-03-28T13:46:55Z</time></trkpt><trkpt lat="44.77140684202967" lon="10.26294635986687"><ele>90.0</ele><time>2026-03-28T13:46:56Z</time></trkpt><trkpt lat="44.77133117377437" lon="10.263019095170236"><ele>90.0</ele><time>2026-03-28T13:46:57Z</time></trkpt><trkpt lat="44.77126009551875" lon="10.26307890146178"><ele>90.0</ele><time>2026-03-28T13:46:58Z</time></trkpt><trkpt lat="44.77120437275377" lon="10.263137511982876"><ele>90.0</ele><time>2026-03-28T13:46:59Z</time></trkpt><trkpt lat="44.77113811131498" lon="10.2631852263315"><ele>90.0</ele><time>2026-03-28T13:47:00Z</time></trkpt><trkpt lat="44.771060562328934" lon="10.263237988254058"><ele>90.0</ele><time>2026-03-28T13:47:01Z</time></trkpt><trkpt lat="44.77098008093404" lon="10.263295871653513"><ele>90.0</ele><time>2026-03-28T13:47:02Z</time></trkpt><trkpt lat="44.770854802819215" lon="10.263175078979263"><ele>90.0</ele><time>2026-03-28T13:47:03Z</time></trkpt><trkpt lat="44.77076536027518" lon="10.263107039902783"><ele>90.0</ele><time>2026-03-28T13:47:04Z</time></trkpt><trkpt lat="44.770671205705874" lon="10.263035293671791"><ele>90.0</ele><time>2026-03-28T13:47:05Z</time></trkpt><trkpt lat="44.770592097617055" lon="10.262969709689312"><ele>90.0</ele><time>2026-03-28T13:47:06Z</time></trkpt><trkpt lat="44.770527231627675" lon="10.262916825030487"><ele>90.0</ele><time>2026-03-28T13:47:07Z</time></trkpt><trkpt lat="44.770457347376" lon="10.262858100750027"><ele>90.0</ele><time>2026-03-28T13:47:09Z</time></trkpt><trkpt lat="44.77034515608831" lon="10.26269980575849"><ele>90.0</ele><time>2026-03-28T13:47:18Z</time></trkpt><trkpt lat="44.77028563447473" lon="10.262567872579098"><ele>90.0</ele><time>2026-03-28T13:47:19Z</time></trkpt><trkpt lat="44.770217686887094" lon="10.262410653319293"><ele>90.0</ele><time>2026-03-28T13:47:20Z</time></trkpt><trkpt lat="44.77014237626871" lon="10.262269649207733"><ele>90.0</ele><time>2026-03-28T13:47:21Z</time></trkpt><trkpt lat="44.77007249396314" lon="10.262122915729567"><ele>90.0</ele><time>2026-03-28T13:47:22Z</time></trkpt><trkpt lat="44.769996490939604" lon="10.261969736189796"><ele>90.25</ele><time>2026-03-28T13:47:23Z</time></trkpt><trkpt lat="44.769916064350944" lon="10.26179914679572"><ele>90.5</ele><time>2026-03-28T13:47:24Z</time></trkpt><trkpt lat="44.76983595395875" lon="10.261632111289451"><ele>90.75</ele><time>2026-03-28T13:47:25Z</time></trkpt><trkpt lat="44.76975448010701" lon="10.261466512818512"><ele>91.0</ele><time>2026-03-28T13:47:26Z</time></trkpt><trkpt lat="44.76967566457228" lon="10.26130594668747"><ele>91.25</ele><time>2026-03-28T13:47:26.999Z</time></trkpt><trkpt lat="44.769596831584096" lon="10.261145575350676"><ele>91.5</ele><time>2026-03-28T13:47:27.999Z</time></trkpt><trkpt lat="44.769518594716" lon="10.260985378350261"><ele>91.75</ele><time>2026-03-28T13:47:28.999Z</time></trkpt><trkpt lat="44.76943452756278" lon="10.260808814448549"><ele>92.0</ele><time>2026-03-28T13:47:29.999Z</time></trkpt><trkpt lat="44.769345497074525" lon="10.260636226738432"><ele>92.33333333333334</ele><time>2026-03-28T13:47:30.999Z</time></trkpt><trkpt lat="44.76926489949222" lon="10.26046008861637"><ele>92.66666666666667</ele><time>2026-03-28T13:47:31.999Z</time></trkpt><trkpt lat="44.769173721426284" lon="10.26026986037148"><ele>93.0</ele><time>2026-03-28T13:47:32.999Z</time></trkpt><trkpt lat="44.76908256710253" lon="10.260072503988892"><ele>93.0</ele><time>2026-03-28T13:47:33.999Z</time></trkpt><trkpt lat="44.7689936910501" lon="10.259883925767038"><ele>93.0</ele><time>2026-03-28T13:47:34.999Z</time></trkpt><trkpt lat="44.76891779381786" lon="10.259710186827043"><ele>93.0</ele><time>2026-03-28T13:47:35.999Z</time></trkpt><trkpt lat="44.76883863917893" lon="10.25954567877102"><ele>93.0</ele><time>2026-03-28T13:47:36.999Z</time></trkpt><trkpt lat="44.76876611759186" lon="10.259400484369042"><ele>93.0</ele><time>2026-03-28T13:47:37.999Z</time></trkpt><trkpt lat="44.76870076038429" lon="10.25926491859299"><ele>93.0</ele><time>2026-03-28T13:47:38.999Z</time></trkpt><trkpt lat="44.768632634378605" lon="10.259119450106839"><ele>93.0</ele><time>2026-03-28T13:47:39.999Z</time></trkpt><trkpt lat="44.76855778410068" lon="10.258957361464367"><ele>93.0</ele><time>2026-03-28T13:47:40.999Z</time></trkpt><trkpt lat="44.768478972614595" lon="10.258777965009498"><ele>93.33333333333333</ele><time>2026-03-28T13:47:41.999Z</time></trkpt><trkpt lat="44.76839714294918" lon="10.258600338951535"><ele>93.66666666666666</ele><time>2026-03-28T13:47:42.999Z</time></trkpt><trkpt lat="44.76830879487902" lon="10.258411091466881"><ele>94.0</ele><time>2026-03-28T13:47:43.999Z</time></trkpt><trkpt lat="44.7682231767032" lon="10.258227729106299"><ele>93.66666666666666</ele><time>2026-03-28T13:47:44.999Z</time></trkpt><trkpt lat="44.768133065254425" lon="10.258034356988986"><ele>93.33333333333333</ele><time>2026-03-28T13:47:45.999Z</time></trkpt><trkpt lat="44.768047967066906" lon="10.257838609628415"><ele>93.0</ele><time>2026-03-28T13:47:46.999Z</time></trkpt><trkpt lat="44.767962336989164" lon="10.257646956464086"><ele>93.0</ele><time>2026-03-28T13:47:47.999Z</time></trkpt><trkpt lat="44.767875246868" lon="10.25745852580847"><ele>93.0</ele><time>2026-03-28T13:47:48.999Z</time></trkpt><trkpt lat="44.76778700197189" lon="10.25727077413464"><ele>93.0</ele><time>2026-03-28T13:47:49.999Z</time></trkpt><trkpt lat="44.76769963212925" lon="10.257088355012487"><ele>93.5</ele><time>2026-03-28T13:47:50.999Z</time></trkpt><trkpt lat="44.76760931279424" lon="10.2568889068969"><ele>94.0</ele><time>2026-03-28T13:47:51.999Z</time></trkpt><trkpt lat="44.767534012861205" lon="10.256735097788688"><ele>94.5</ele><time>2026-03-28T13:47:52.999Z</time></trkpt><trkpt lat="44.76746165338249" lon="10.256580795882961"><ele>95.0</ele><time>2026-03-28T13:47:53.999Z</time></trkpt><trkpt lat="44.76739416593608" lon="10.256432503994231"><ele>95.0</ele><time>2026-03-28T13:47:54.999Z</time></trkpt><trkpt lat="44.76732119069834" lon="10.256280939118955"><ele>95.0</ele><time>2026-03-28T13:47:55.999Z</time></trkpt><trkpt lat="44.767252607471185" lon="10.256129002456744"><ele>95.0</ele><time>2026-03-28T13:47:56.999Z</time></trkpt><trkpt lat="44.76718215519148" lon="10.255973106649174"><ele>95.0</ele><time>2026-03-28T13:47:57.999Z</time></trkpt><trkpt lat="44.76710733323068" lon="10.25581299190487"><ele>95.0</ele><time>2026-03-28T13:47:58.999Z</time></trkpt><trkpt lat="44.7670350045208" lon="10.25565177250439"><ele>95.0</ele><time>2026-03-28T13:47:59.999Z</time></trkpt><trkpt lat="44.766956928001925" lon="10.255485337661101"><ele>95.0</ele><time>2026-03-28T13:48:00.999Z</time></trkpt><trkpt lat="44.766875102029836" lon="10.255321378450823"><ele>95.0</ele><time>2026-03-28T13:48:01.999Z</time></trkpt><trkpt lat="44.7668024756227" lon="10.255147374337946"><ele>95.0</ele><time>2026-03-28T13:48:02.999Z</time></trkpt><trkpt lat="44.76672465589357" lon="10.254978118398094"><ele>95.0</ele><time>2026-03-28T13:48:03.999Z</time></trkpt><trkpt lat="44.766650415551666" lon="10.254823910047273"><ele>95.0</ele><time>2026-03-28T13:48:04.999Z</time></trkpt><trkpt lat="44.7665750173011" lon="10.254669767975074"><ele>95.0</ele><time>2026-03-28T13:48:05.999Z</time></trkpt><trkpt lat="44.76650201280738" lon="10.254518435377765"><ele>95.25</ele><time>2026-03-28T13:48:06.999Z</time></trkpt><trkpt lat="44.76643081896369" lon="10.254365778312815"><ele>95.5</ele><time>2026-03-28T13:48:07.999Z</time></trkpt><trkpt lat="44.766359049925896" lon="10.254217368704344"><ele>95.75</ele><time>2026-03-28T13:48:08.999Z</time></trkpt><trkpt lat="44.76628672299669" lon="10.2540644528654"><ele>96.0</ele><time>2026-03-28T13:48:09.999Z</time></trkpt><trkpt lat="44.76621870613713" lon="10.253907271247801"><ele>96.5</ele><time>2026-03-28T13:48:10.999Z</time></trkpt><trkpt lat="44.76615105362151" lon="10.253742696334893"><ele>97.0</ele><time>2026-03-28T13:48:11.999Z</time></trkpt><trkpt lat="44.766078661960506" lon="10.253585754600229"><ele>97.5</ele><time>2026-03-28T13:48:13Z</time></trkpt><trkpt lat="44.76600566248748" lon="10.253429025405962"><ele>98.0</ele><time>2026-03-28T13:48:14Z</time></trkpt><trkpt lat="44.765939712155074" lon="10.253286190585959"><ele>98.0</ele><time>2026-03-28T13:48:15Z</time></trkpt><trkpt lat="44.765886932312235" lon="10.253155065302076"><ele>98.0</ele><time>2026-03-28T13:48:16Z</time></trkpt><trkpt lat="44.76581799166115" lon="10.252998649996895"><ele>98.0</ele><time>2026-03-28T13:48:17Z</time></trkpt><trkpt lat="44.76574675568957" lon="10.252838025496802"><ele>98.0</ele><time>2026-03-28T13:48:18Z</time></trkpt><trkpt lat="44.76560880583689" lon="10.25314746756433"><ele>98.0</ele><time>2026-03-28T13:48:19Z</time></trkpt><trkpt lat="44.765481977364765" lon="10.25323600643335"><ele>98.0</ele><time>2026-03-28T13:48:20Z</time></trkpt><trkpt lat="44.765343172078516" lon="10.253380837572118"><ele>98.0</ele><time>2026-03-28T13:48:21Z</time></trkpt><trkpt lat="44.76520756475994" lon="10.253501085587288"><ele>98.0</ele><time>2026-03-28T13:48:22Z</time></trkpt><trkpt lat="44.76507786296555" lon="10.253549591813144"><ele>98.0</ele><time>2026-03-28T13:48:23Z</time></trkpt><trkpt lat="44.76494302168844" lon="10.25346504933253"><ele>98.0</ele><time>2026-03-28T13:48:24Z</time></trkpt><trkpt lat="44.76476050024483" lon="10.253413631185655"><ele>98.0</ele><time>2026-03-28T13:48:25Z</time></trkpt><trkpt lat="44.764568635363894" lon="10.253378842929985"><ele>98.0</ele><time>2026-03-28T13:48:26Z</time></trkpt><trkpt lat="44.764373907527634" lon="10.253319699116222"><ele>98.0</ele><time>2026-03-28T13:48:27Z</time></trkpt><trkpt lat="44.76416990136252" lon="10.253261978468727"><ele>97.66666666666666</ele><time>2026-03-28T13:48:28Z</time></trkpt><trkpt lat="44.76396576189551" lon="10.25319927517841"><ele>97.33333333333334</ele><time>2026-03-28T13:48:29Z</time></trkpt><trkpt lat="44.76375820729852" lon="10.253137566066409"><ele>97.0</ele><time>2026-03-28T13:48:30Z</time></trkpt><trkpt lat="44.76355153732435" lon="10.253076195372067"><ele>97.0</ele><time>2026-03-28T13:48:31Z</time></trkpt><trkpt lat="44.76334235946089" lon="10.253018266859875"><ele>97.0</ele><time>2026-03-28T13:48:32Z</time></trkpt><trkpt lat="44.76313548899391" lon="10.252963561199243"><ele>97.0</ele><time>2026-03-28T13:48:33Z</time></trkpt><trkpt lat="44.762936415409" lon="10.252907431832329"><ele>97.0</ele><time>2026-03-28T13:48:34Z</time></trkpt><trkpt lat="44.76273406849131" lon="10.25285299797792"><ele>97.0</ele><time>2026-03-28T13:48:35Z</time></trkpt><trkpt lat="44.76253143861232" lon="10.252801154760588"><ele>97.0</ele><time>2026-03-28T13:48:36Z</time></trkpt><trkpt lat="44.76233077267066" lon="10.252749631013756"><ele>97.66666666666667</ele><time>2026-03-28T13:48:37Z</time></trkpt><trkpt lat="44.76212937669679" lon="10.252697206864239"><ele>98.33333333333334</ele><time>2026-03-28T13:48:38Z</time></trkpt><trkpt lat="44.76193084896109" lon="10.252647073595437"><ele>99.0</ele><time>2026-03-28T13:48:39Z</time></trkpt><trkpt lat="44.76173274425496" lon="10.252590387378945"><ele>99.33333333333334</ele><time>2026-03-28T13:48:40Z</time></trkpt><trkpt lat="44.761538014513846" lon="10.25253427054361"><ele>99.66666666666667</ele><time>2026-03-28T13:48:41Z</time></trkpt><trkpt lat="44.76134898708919" lon="10.252478821161889"><ele>100.0</ele><time>2026-03-28T13:48:42Z</time></trkpt><trkpt lat="44.76115987371835" lon="10.25242422724499"><ele>100.0</ele><time>2026-03-28T13:48:43Z</time></trkpt><trkpt lat="44.76096749789672" lon="10.252368627097606"><ele>100.0</ele><time>2026-03-28T13:48:44Z</time></trkpt><trkpt lat="44.760774387323146" lon="10.252316965744145"><ele>100.0</ele><time>2026-03-28T13:48:45Z</time></trkpt><trkpt lat="44.76058130411579" lon="10.252266883340424"><ele>100.0</ele><time>2026-03-28T13:48:46Z</time></trkpt><trkpt lat="44.76039224083155" lon="10.25221294439801"><ele>100.0</ele><time>2026-03-28T13:48:47Z</time></trkpt><trkpt lat="44.760194171636634" lon="10.252137735635534"><ele>100.0</ele><time>2026-03-28T13:48:48Z</time></trkpt><trkpt lat="44.75999513692621" lon="10.252102893372346"><ele>100.66666666666667</ele><time>2026-03-28T13:48:49Z</time></trkpt><trkpt lat="44.75979986392357" lon="10.252047969909372"><ele>101.33333333333334</ele><time>2026-03-28T13:48:50Z</time></trkpt><trkpt lat="44.75960384468901" lon="10.251996983503775"><ele>102.0</ele><time>2026-03-28T13:48:51Z</time></trkpt><trkpt lat="44.75941189982743" lon="10.251927156412036"><ele>103.33333333333334</ele><time>2026-03-28T13:48:52Z</time></trkpt><trkpt lat="44.759226021730704" lon="10.251875122354175"><ele>104.66666666666667</ele><time>2026-03-28T13:48:53Z</time></trkpt><trkpt lat="44.75906208104614" lon="10.251828426247737"><ele>106.0</ele><time>2026-03-28T13:48:54Z</time></trkpt><trkpt lat="44.75890429495717" lon="10.251783483260288"><ele>106.0</ele><time>2026-03-28T13:48:55Z</time></trkpt><trkpt lat="44.758746535558785" lon="10.251739139948615"><ele>106.0</ele><time>2026-03-28T13:48:56Z</time></trkpt><trkpt lat="44.758587645474776" lon="10.251694629949531"><ele>106.0</ele><time>2026-03-28T13:48:57Z</time></trkpt><trkpt lat="44.75842756757563" lon="10.251649787316888"><ele>106.0</ele><time>2026-03-28T13:48:58Z</time></trkpt><trkpt lat="44.75827230340434" lon="10.25162047702373"><ele>106.0</ele><time>2026-03-28T13:48:59Z</time></trkpt><trkpt lat="44.75812957433122" lon="10.251564678334862"><ele>106.0</ele><time>2026-03-28T13:49:00Z</time></trkpt><trkpt lat="44.757981310779414" lon="10.251541159687985"><ele>106.0</ele><time>2026-03-28T13:49:01Z</time></trkpt><trkpt lat="44.75782139005645" lon="10.251496402440976"><ele>106.0</ele><time>2026-03-28T13:49:02Z</time></trkpt><trkpt lat="44.757653597460404" lon="10.251445025439894"><ele>106.0</ele><time>2026-03-28T13:49:03Z</time></trkpt><trkpt lat="44.75748266842375" lon="10.251401885546793"><ele>105.33333333333334</ele><time>2026-03-28T13:49:04Z</time></trkpt><trkpt lat="44.75730806543955" lon="10.251351465467133"><ele>104.66666666666666</ele><time>2026-03-28T13:49:05Z</time></trkpt><trkpt lat="44.757129385939706" lon="10.25129890546821"><ele>104.0</ele><time>2026-03-28T13:49:06Z</time></trkpt><trkpt lat="44.75694528015923" lon="10.251250663074167"><ele>105.66666666666666</ele><time>2026-03-28T13:49:07Z</time></trkpt><trkpt lat="44.75676793449247" lon="10.251177974856452"><ele>107.33333333333334</ele><time>2026-03-28T13:49:08Z</time></trkpt><trkpt lat="44.75656449767091" lon="10.251145980254202"><ele>109.0</ele><time>2026-03-28T13:49:09Z</time></trkpt><trkpt lat="44.756364945853385" lon="10.25108676772866"><ele>109.0</ele><time>2026-03-28T13:49:10Z</time></trkpt><trkpt lat="44.75617532232224" lon="10.251036749376059"><ele>109.0</ele><time>2026-03-28T13:49:11Z</time></trkpt><trkpt lat="44.755988794010065" lon="10.250962550914332"><ele>109.0</ele><time>2026-03-28T13:49:12Z</time></trkpt><trkpt lat="44.75579391312105" lon="10.250906395627425"><ele>108.66666666666667</ele><time>2026-03-28T13:49:13Z</time></trkpt><trkpt lat="44.75559844313378" lon="10.250850070605265"><ele>108.33333333333334</ele><time>2026-03-28T13:49:14Z</time></trkpt><trkpt lat="44.75540421614469" lon="10.250794103759645"><ele>108.0</ele><time>2026-03-28T13:49:15Z</time></trkpt><trkpt lat="44.755210881827644" lon="10.250739780927997"><ele>107.66666666666666</ele><time>2026-03-28T13:49:16Z</time></trkpt><trkpt lat="44.75501986974521" lon="10.250686555247023"><ele>107.33333333333333</ele><time>2026-03-28T13:49:17Z</time></trkpt><trkpt lat="44.75482972169767" lon="10.250633568506371"><ele>107.0</ele><time>2026-03-28T13:49:18Z</time></trkpt><trkpt lat="44.75463271945945" lon="10.250578671778984"><ele>107.66666666666666</ele><time>2026-03-28T13:49:19Z</time></trkpt><trkpt lat="44.75443597530977" lon="10.25052423309153"><ele>108.33333333333334</ele><time>2026-03-28T13:49:20Z</time></trkpt><trkpt lat="44.7542402872963" lon="10.250471196200747"><ele>109.0</ele><time>2026-03-28T13:49:21Z</time></trkpt><trkpt lat="44.75404337473621" lon="10.250419630899163"><ele>109.33333333333334</ele><time>2026-03-28T13:49:22Z</time></trkpt><trkpt lat="44.753849794651266" lon="10.250372828252486"><ele>109.66666666666666</ele><time>2026-03-28T13:49:23Z</time></trkpt><trkpt lat="44.75364700580117" lon="10.250344857444608"><ele>110.0</ele><time>2026-03-28T13:49:24Z</time></trkpt><trkpt lat="44.75346342412479" lon="10.250267365660022"><ele>110.0</ele><time>2026-03-28T13:49:25Z</time></trkpt><trkpt lat="44.75328988504422" lon="10.250200770175987"><ele>110.0</ele><time>2026-03-28T13:49:26Z</time></trkpt><trkpt lat="44.75312026788233" lon="10.250132218364822"><ele>110.0</ele><time>2026-03-28T13:49:27Z</time></trkpt><trkpt lat="44.752960690953394" lon="10.250074325055301"><ele>110.0</ele><time>2026-03-28T13:49:28Z</time></trkpt><trkpt lat="44.75280662183435" lon="10.250022920583215"><ele>110.0</ele><time>2026-03-28T13:49:29Z</time></trkpt><trkpt lat="44.75266414774925" lon="10.249974377605344"><ele>110.0</ele><time>2026-03-28T13:49:29.999Z</time></trkpt><trkpt lat="44.75253027624794" lon="10.249927762725022"><ele>110.0</ele><time>2026-03-28T13:49:30.999Z</time></trkpt><trkpt lat="44.75240310427037" lon="10.249883480616981"><ele>110.5</ele><time>2026-03-28T13:49:31.999Z</time></trkpt><trkpt lat="44.75227499261215" lon="10.249836462773816"><ele>111.0</ele><time>2026-03-28T13:49:32.999Z</time></trkpt><trkpt lat="44.7521526091306" lon="10.249789079901785"><ele>111.5</ele><time>2026-03-28T13:49:33.999Z</time></trkpt><trkpt lat="44.75202718889766" lon="10.249735985675928"><ele>112.0</ele><time>2026-03-28T13:49:34.999Z</time></trkpt><trkpt lat="44.751904658285206" lon="10.249680462106888"><ele>112.0</ele><time>2026-03-28T13:49:35.999Z</time></trkpt><trkpt lat="44.75178334282036" lon="10.249619174497873"><ele>112.0</ele><time>2026-03-28T13:49:36.999Z</time></trkpt><trkpt lat="44.75165957721513" lon="10.249558085992142"><ele>112.0</ele><time>2026-03-28T13:49:37.999Z</time></trkpt><trkpt lat="44.75154021859789" lon="10.249498006753598"><ele>112.0</ele><time>2026-03-28T13:49:38.999Z</time></trkpt><trkpt lat="44.75142807482289" lon="10.24944511271902"><ele>112.0</ele><time>2026-03-28T13:49:39.999Z</time></trkpt><trkpt lat="44.75132241811415" lon="10.249394803183062"><ele>112.0</ele><time>2026-03-28T13:49:40.999Z</time></trkpt><trkpt lat="44.75120898635557" lon="10.249360043635988"><ele>112.0</ele><time>2026-03-28T13:49:41.999Z</time></trkpt><trkpt lat="44.75110282418327" lon="10.2493059151593"><ele>112.0</ele><time>2026-03-28T13:49:42.999Z</time></trkpt><trkpt lat="44.75099420434779" lon="10.249256447029081"><ele>111.8</ele><time>2026-03-28T13:49:43.999Z</time></trkpt><trkpt lat="44.75088933352642" lon="10.249206739893534"><ele>111.6</ele><time>2026-03-28T13:49:44.999Z</time></trkpt><trkpt lat="44.750784797162346" lon="10.249161084713169"><ele>111.39999999999999</ele><time>2026-03-28T13:49:45.999Z</time></trkpt><trkpt lat="44.75068144094698" lon="10.249087865806784"><ele>111.19999999999999</ele><time>2026-03-28T13:49:46.999Z</time></trkpt><trkpt lat="44.750582381650894" lon="10.249032479011428"><ele>111.0</ele><time>2026-03-28T13:49:47.999Z</time></trkpt><trkpt lat="44.750462028044346" lon="10.248955556744539"><ele>111.66666666666666</ele><time>2026-03-28T13:49:48.999Z</time></trkpt><trkpt lat="44.75031582332718" lon="10.248863592362186"><ele>112.33333333333333</ele><time>2026-03-28T13:49:49.999Z</time></trkpt><trkpt lat="44.75016518227587" lon="10.248782019895142"><ele>113.0</ele><time>2026-03-28T13:49:50.999Z</time></trkpt><trkpt lat="44.750006887821016" lon="10.248671210661012"><ele>114.33333333333333</ele><time>2026-03-28T13:49:51.999Z</time></trkpt><trkpt lat="44.74981804554626" lon="10.248583232724817"><ele>115.66666666666666</ele><time>2026-03-28T13:49:52.999Z</time></trkpt><trkpt lat="44.74962083005137" lon="10.248513595116544"><ele>117.0</ele><time>2026-03-28T13:49:53.999Z</time></trkpt><trkpt lat="44.749435481891" lon="10.24842836840044"><ele>116.66666666666666</ele><time>2026-03-28T13:49:54.999Z</time></trkpt><trkpt lat="44.749251844510326" lon="10.248377162968714"><ele>116.33333333333333</ele><time>2026-03-28T13:49:55.999Z</time></trkpt><trkpt lat="44.74907916892882" lon="10.248302175597559"><ele>116.0</ele><time>2026-03-28T13:49:56.999Z</time></trkpt><trkpt lat="44.748905626251634" lon="10.248237248975537"><ele>116.0</ele><time>2026-03-28T13:49:57.999Z</time></trkpt><trkpt lat="44.74875461806736" lon="10.248188985094563"><ele>116.0</ele><time>2026-03-28T13:49:58.999Z</time></trkpt><trkpt lat="44.74858364692253" lon="10.248121277213423"><ele>116.0</ele><time>2026-03-28T13:49:59.999Z</time></trkpt><trkpt lat="44.748404748699535" lon="10.248048787992685"><ele>117.0</ele><time>2026-03-28T13:50:00.999Z</time></trkpt><trkpt lat="44.74822134830255" lon="10.247978385874523"><ele>118.0</ele><time>2026-03-28T13:50:01.999Z</time></trkpt><trkpt lat="44.74803614548795" lon="10.247912585167416"><ele>119.0</ele><time>2026-03-28T13:50:02.999Z</time></trkpt><trkpt lat="44.74784331983868" lon="10.247843680180473"><ele>119.33333333333333</ele><time>2026-03-28T13:50:03.999Z</time></trkpt><trkpt lat="44.74764445211994" lon="10.247765914439594"><ele>119.66666666666666</ele><time>2026-03-28T13:50:04.999Z</time></trkpt><trkpt lat="44.7474417701707" lon="10.247688907738619"><ele>120.0</ele><time>2026-03-28T13:50:05.999Z</time></trkpt><trkpt lat="44.74724044465902" lon="10.247611254767643"><ele>120.0</ele><time>2026-03-28T13:50:06.999Z</time></trkpt><trkpt lat="44.747035736497864" lon="10.247531659376511"><ele>120.0</ele><time>2026-03-28T13:50:07.999Z</time></trkpt><trkpt lat="44.746832188293055" lon="10.2474529949197"><ele>120.0</ele><time>2026-03-28T13:50:08.999Z</time></trkpt><trkpt lat="44.7466302344791" lon="10.247379962640665"><ele>120.0</ele><time>2026-03-28T13:50:09.999Z</time></trkpt><trkpt lat="44.746428630331785" lon="10.247298859138615"><ele>120.0</ele><time>2026-03-28T13:50:10.999Z</time></trkpt><trkpt lat="44.746232211668406" lon="10.247222682551389"><ele>120.0</ele><time>2026-03-28T13:50:11.999Z</time></trkpt><trkpt lat="44.746034557529256" lon="10.247149586290954"><ele>120.0</ele><time>2026-03-28T13:50:12.999Z</time></trkpt><trkpt lat="44.745832718294714" lon="10.247078212642462"><ele>120.0</ele><time>2026-03-28T13:50:13.999Z</time></trkpt><trkpt lat="44.74564186809872" lon="10.247008732512274"><ele>120.0</ele><time>2026-03-28T13:50:14.999Z</time></trkpt><trkpt lat="44.74544982906631" lon="10.24693193007228"><ele>120.0</ele><time>2026-03-28T13:50:15.999Z</time></trkpt><trkpt lat="44.74526113495106" lon="10.246852353638523"><ele>120.0</ele><time>2026-03-28T13:50:16.999Z</time></trkpt><trkpt lat="44.745070795766885" lon="10.246777723364175"><ele>120.0</ele><time>2026-03-28T13:50:17.999Z</time></trkpt><trkpt lat="44.744896878659645" lon="10.246687020049816"><ele>121.0</ele><time>2026-03-28T13:50:19Z</time></trkpt><trkpt lat="44.74472785976686" lon="10.24661975059919"><ele>122.0</ele><time>2026-03-28T13:50:20Z</time></trkpt><trkpt lat="44.74456661469236" lon="10.246578286217144"><ele>123.0</ele><time>2026-03-28T13:50:21Z</time></trkpt><trkpt lat="44.7444217125227" lon="10.24651553440765"><ele>123.0</ele><time>2026-03-28T13:50:22Z</time></trkpt><trkpt lat="44.74428376759754" lon="10.246462651444617"><ele>123.0</ele><time>2026-03-28T13:50:23Z</time></trkpt><trkpt lat="44.74413885194023" lon="10.24640725193291"><ele>123.0</ele><time>2026-03-28T13:50:24Z</time></trkpt><trkpt lat="44.74400408536315" lon="10.246331310281874"><ele>123.0</ele><time>2026-03-28T13:50:25Z</time></trkpt><trkpt lat="44.74387914816741" lon="10.246281519977417"><ele>123.0</ele><time>2026-03-28T13:50:26Z</time></trkpt><trkpt lat="44.74376023390899" lon="10.246255877234033"><ele>123.0</ele><time>2026-03-28T13:50:27Z</time></trkpt><trkpt lat="44.743628194530395" lon="10.246194390053954"><ele>123.0</ele><time>2026-03-28T13:50:28Z</time></trkpt><trkpt lat="44.74348821056815" lon="10.246143754185603"><ele>123.0</ele><time>2026-03-28T13:50:29Z</time></trkpt><trkpt lat="44.743343621494645" lon="10.246068198720812"><ele>123.0</ele><time>2026-03-28T13:50:30Z</time></trkpt><trkpt lat="44.74319061302361" lon="10.24602992079031"><ele>123.0</ele><time>2026-03-28T13:50:31Z</time></trkpt><trkpt lat="44.74304298287406" lon="10.245948515034621"><ele>123.0</ele><time>2026-03-28T13:50:32Z</time></trkpt><trkpt lat="44.742882524481885" lon="10.245884636775159"><ele>123.0</ele><time>2026-03-28T13:50:33Z</time></trkpt><trkpt lat="44.74270707437032" lon="10.24581479046564"><ele>123.0</ele><time>2026-03-28T13:50:34Z</time></trkpt><trkpt lat="44.74252307448192" lon="10.245761435423459"><ele>123.0</ele><time>2026-03-28T13:50:35Z</time></trkpt><trkpt lat="44.74234716805293" lon="10.24568893527531"><ele>124.0</ele><time>2026-03-28T13:50:36Z</time></trkpt><trkpt lat="44.74217413967258" lon="10.245621964641025"><ele>125.0</ele><time>2026-03-28T13:50:37Z</time></trkpt><trkpt lat="44.74200753335289" lon="10.245558349142827"><ele>126.0</ele><time>2026-03-28T13:50:38Z</time></trkpt><trkpt lat="44.74185127055647" lon="10.245496935125113"><ele>126.0</ele><time>2026-03-28T13:50:39Z</time></trkpt><trkpt lat="44.74170917634037" lon="10.245437407650153"><ele>126.0</ele><time>2026-03-28T13:50:40Z</time></trkpt><trkpt lat="44.74155715570002" lon="10.245376057027148"><ele>126.0</ele><time>2026-03-28T13:50:41Z</time></trkpt><trkpt lat="44.741400321860006" lon="10.245317730633314"><ele>126.0</ele><time>2026-03-28T13:50:42Z</time></trkpt><trkpt lat="44.74125668700535" lon="10.245238590210366"><ele>126.0</ele><time>2026-03-28T13:50:43Z</time></trkpt><trkpt lat="44.74113178470234" lon="10.245182449731304"><ele>126.0</ele><time>2026-03-28T13:50:44Z</time></trkpt><trkpt lat="44.741049383169624" lon="10.245137435402636"><ele>126.0</ele><time>2026-03-28T13:50:45Z</time></trkpt><trkpt lat="44.74099112014708" lon="10.245046600898165"><ele>126.25</ele><time>2026-03-28T13:50:47Z</time></trkpt><trkpt lat="44.74101986306971" lon="10.244879136267077"><ele>126.5</ele><time>2026-03-28T13:50:49Z</time></trkpt><trkpt lat="44.74104836799751" lon="10.244730765474177"><ele>126.75</ele><time>2026-03-28T13:50:50Z</time></trkpt><trkpt lat="44.741093538912644" lon="10.244568809741065"><ele>127.0</ele><time>2026-03-28T13:50:51Z</time></trkpt><trkpt lat="44.74112790068947" lon="10.244396953591258"><ele>126.25</ele><time>2026-03-28T13:50:52Z</time></trkpt><trkpt lat="44.74115781958504" lon="10.244247318119875"><ele>125.5</ele><time>2026-03-28T13:50:53Z</time></trkpt><trkpt lat="44.74117729336893" lon="10.244093496561135"><ele>124.75</ele><time>2026-03-28T13:50:54Z</time></trkpt><trkpt lat="44.74120421662044" lon="10.24394034618085"><ele>124.0</ele><time>2026-03-28T13:50:55Z</time></trkpt><trkpt lat="44.741250845026016" lon="10.243782063168906"><ele>124.33333333333334</ele><time>2026-03-28T13:50:56Z</time></trkpt><trkpt lat="44.74129180526781" lon="10.243576470955926"><ele>124.66666666666666</ele><time>2026-03-28T13:50:57Z</time></trkpt><trkpt lat="44.74134197935434" lon="10.243323000825757"><ele>125.0</ele><time>2026-03-28T13:50:58Z</time></trkpt><trkpt lat="44.74140135381835" lon="10.243023052262515"><ele>125.0</ele><time>2026-03-28T13:50:59Z</time></trkpt><trkpt lat="44.74144743368576" lon="10.242731373528231"><ele>125.0</ele><time>2026-03-28T13:51:00Z</time></trkpt><trkpt lat="44.74151433974097" lon="10.24241906189944"><ele>125.0</ele><time>2026-03-28T13:51:01Z</time></trkpt><trkpt lat="44.741576567335905" lon="10.242087573365518"><ele>124.5</ele><time>2026-03-28T13:51:02Z</time></trkpt><trkpt lat="44.74163652625874" lon="10.241771976281127"><ele>124.0</ele><time>2026-03-28T13:51:03Z</time></trkpt><trkpt lat="44.74169194647233" lon="10.241472404570043"><ele>123.33333333333334</ele><time>2026-03-28T13:51:04Z</time></trkpt><trkpt lat="44.74174455167893" lon="10.241207555195821"><ele>122.66666666666666</ele><time>2026-03-28T13:51:05Z</time></trkpt><trkpt lat="44.741793253388344" lon="10.240964361108915"><ele>122.0</ele><time>2026-03-28T13:51:06Z</time></trkpt><trkpt lat="44.741834271877565" lon="10.240744875872576"><ele>121.5</ele><time>2026-03-28T13:51:07Z</time></trkpt><trkpt lat="44.74188673581701" lon="10.240566269367456"><ele>121.0</ele><time>2026-03-28T13:51:08Z</time></trkpt><trkpt lat="44.74192221921323" lon="10.240387018607281"><ele>120.5</ele><time>2026-03-28T13:51:09Z</time></trkpt><trkpt lat="44.74195389926116" lon="10.240226981074207"><ele>120.0</ele><time>2026-03-28T13:51:10Z</time></trkpt><trkpt lat="44.74198234521138" lon="10.240080408401347"><ele>120.0</ele><time>2026-03-28T13:51:11Z</time></trkpt><trkpt lat="44.742034438731196" lon="10.239959648509387"><ele>120.0</ele><time>2026-03-28T13:51:12Z</time></trkpt><trkpt lat="44.74209654553505" lon="10.239869459497953"><ele>120.0</ele><time>2026-03-28T13:51:13Z</time></trkpt><trkpt lat="44.74213680399485" lon="10.239786913686874"><ele>120.0</ele><time>2026-03-28T13:51:14Z</time></trkpt><trkpt lat="44.74213190425765" lon="10.239681282476191"><ele>120.0</ele><time>2026-03-28T13:51:15Z</time></trkpt><trkpt lat="44.74209598192228" lon="10.239573687677703"><ele>120.0</ele><time>2026-03-28T13:51:16Z</time></trkpt><trkpt lat="44.7419967054804" lon="10.239528255185919"><ele>120.75</ele><time>2026-03-28T13:51:17Z</time></trkpt><trkpt lat="44.74188312359489" lon="10.239587338585387"><ele>121.5</ele><time>2026-03-28T13:51:18Z</time></trkpt><trkpt lat="44.74175317930334" lon="10.239637425848127"><ele>122.25</ele><time>2026-03-28T13:51:19Z</time></trkpt><trkpt lat="44.74158074138694" lon="10.239627965055062"><ele>123.0</ele><time>2026-03-28T13:51:20Z</time></trkpt><trkpt lat="44.741384977551434" lon="10.239560251624981"><ele>124.5</ele><time>2026-03-28T13:51:21Z</time></trkpt><trkpt lat="44.74117340399662" lon="10.239466810600865"><ele>126.0</ele><time>2026-03-28T13:51:22Z</time></trkpt><trkpt lat="44.74090532524652" lon="10.239379492278978"><ele>126.0</ele><time>2026-03-28T13:51:23Z</time></trkpt><trkpt lat="44.74067182797296" lon="10.239311903287398"><ele>126.0</ele><time>2026-03-28T13:51:24Z</time></trkpt><trkpt lat="44.74046320929015" lon="10.239248844810989"><ele>126.0</ele><time>2026-03-28T13:51:25Z</time></trkpt><trkpt lat="44.74024809429544" lon="10.239182032003725"><ele>126.0</ele><time>2026-03-28T13:51:26Z</time></trkpt><trkpt lat="44.73998636642806" lon="10.2391003793653"><ele>126.0</ele><time>2026-03-28T13:51:27Z</time></trkpt><trkpt lat="44.739671250508444" lon="10.23900277614902"><ele>126.0</ele><time>2026-03-28T13:51:28Z</time></trkpt><trkpt lat="44.73948230067003" lon="10.23894849515114"><ele>127.5</ele><time>2026-03-28T13:51:29Z</time></trkpt><trkpt lat="44.739234864010285" lon="10.238882697980708"><ele>129.0</ele><time>2026-03-28T13:51:30Z</time></trkpt><trkpt lat="44.738977664785224" lon="10.238811094041953"><ele>129.0</ele><time>2026-03-28T13:51:31Z</time></trkpt><trkpt lat="44.73872429771838" lon="10.23871453536966"><ele>129.0</ele><time>2026-03-28T13:51:32Z</time></trkpt><trkpt lat="44.738469123589596" lon="10.238658437540362"><ele>127.5</ele><time>2026-03-28T13:51:33Z</time></trkpt><trkpt lat="44.738217106319276" lon="10.238578730824884"><ele>126.0</ele><time>2026-03-28T13:51:34Z</time></trkpt><trkpt lat="44.73796820702226" lon="10.238498003316806"><ele>129.0</ele><time>2026-03-28T13:51:35Z</time></trkpt><trkpt lat="44.73771854384405" lon="10.238421294325034"><ele>132.0</ele><time>2026-03-28T13:51:36Z</time></trkpt><trkpt lat="44.737467739479236" lon="10.238350949955137"><ele>132.0</ele><time>2026-03-28T13:51:37Z</time></trkpt><trkpt lat="44.73721951221184" lon="10.238276899610208"><ele>132.0</ele><time>2026-03-28T13:51:38Z</time></trkpt><trkpt lat="44.736972027192564" lon="10.238206045362638"><ele>132.0</ele><time>2026-03-28T13:51:38.999Z</time></trkpt><trkpt lat="44.73672450663471" lon="10.23813333488686"><ele>132.0</ele><time>2026-03-28T13:51:39.999Z</time></trkpt><trkpt lat="44.73648038472272" lon="10.238052363090864"><ele>132.0</ele><time>2026-03-28T13:51:40.999Z</time></trkpt><trkpt lat="44.73623284262686" lon="10.237970888446377"><ele>132.0</ele><time>2026-03-28T13:51:41.999Z</time></trkpt><trkpt lat="44.735983733216976" lon="10.237894034739794"><ele>133.5</ele><time>2026-03-28T13:51:42.999Z</time></trkpt><trkpt lat="44.7357366793505" lon="10.237822356655021"><ele>135.0</ele><time>2026-03-28T13:51:43.999Z</time></trkpt><trkpt lat="44.73549114727428" lon="10.237750715638029"><ele>135.0</ele><time>2026-03-28T13:51:44.999Z</time></trkpt><trkpt lat="44.73524585896403" lon="10.237677072215739"><ele>135.0</ele><time>2026-03-28T13:51:45.999Z</time></trkpt><trkpt lat="44.73500323488095" lon="10.237601336825188"><ele>135.5</ele><time>2026-03-28T13:51:46.999Z</time></trkpt><trkpt lat="44.734771797253394" lon="10.237529806882447"><ele>136.0</ele><time>2026-03-28T13:51:47.999Z</time></trkpt><trkpt lat="44.73454351197508" lon="10.237459576164248"><ele>135.5</ele><time>2026-03-28T13:51:48.999Z</time></trkpt><trkpt lat="44.73431543928892" lon="10.237390285843338"><ele>135.0</ele><time>2026-03-28T13:51:49.999Z</time></trkpt><trkpt lat="44.73408571003483" lon="10.237319829563367"><ele>134.5</ele><time>2026-03-28T13:51:50.999Z</time></trkpt><trkpt lat="44.73386222779787" lon="10.237249140536314"><ele>134.0</ele><time>2026-03-28T13:51:51.999Z</time></trkpt><trkpt lat="44.73363570080443" lon="10.23717921110681"><ele>133.5</ele><time>2026-03-28T13:51:52.999Z</time></trkpt><trkpt lat="44.73341281023599" lon="10.237110417066564"><ele>133.0</ele><time>2026-03-28T13:51:53.999Z</time></trkpt><trkpt lat="44.733188064190095" lon="10.237042335977133"><ele>133.0</ele><time>2026-03-28T13:51:54.999Z</time></trkpt><trkpt lat="44.73296164202471" lon="10.236975330618952"><ele>133.0</ele><time>2026-03-28T13:51:55.999Z</time></trkpt><trkpt lat="44.73273673217732" lon="10.236908404006794"><ele>135.5</ele><time>2026-03-28T13:51:56.999Z</time></trkpt><trkpt lat="44.73250616740234" lon="10.236836136790455"><ele>138.0</ele><time>2026-03-28T13:51:57.999Z</time></trkpt><trkpt lat="44.73227778093338" lon="10.236763123941984"><ele>138.0</ele><time>2026-03-28T13:51:58.999Z</time></trkpt><trkpt lat="44.732052353569934" lon="10.236691416182548"><ele>138.0</ele><time>2026-03-28T13:51:59.999Z</time></trkpt><trkpt lat="44.73182354542714" lon="10.236620972647707"><ele>138.5</ele><time>2026-03-28T13:52:00.999Z</time></trkpt><trkpt lat="44.73159288549572" lon="10.236554069021004"><ele>139.0</ele><time>2026-03-28T13:52:01.999Z</time></trkpt><trkpt lat="44.73136628981329" lon="10.236492309222248"><ele>139.0</ele><time>2026-03-28T13:52:02.999Z</time></trkpt><trkpt lat="44.73113928355604" lon="10.236422392105554"><ele>139.0</ele><time>2026-03-28T13:52:03.999Z</time></trkpt><trkpt lat="44.73092402242214" lon="10.236350563368296"><ele>139.33333333333334</ele><time>2026-03-28T13:52:04.999Z</time></trkpt><trkpt lat="44.73074430167524" lon="10.236287693192137"><ele>139.66666666666666</ele><time>2026-03-28T13:52:05.999Z</time></trkpt><trkpt lat="44.73054650041036" lon="10.236220779418531"><ele>140.0</ele><time>2026-03-28T13:52:06.999Z</time></trkpt><trkpt lat="44.730352131202444" lon="10.236164725226528"><ele>140.33333333333331</ele><time>2026-03-28T13:52:07.999Z</time></trkpt><trkpt lat="44.7301606988956" lon="10.236113309776009"><ele>140.66666666666666</ele><time>2026-03-28T13:52:08.999Z</time></trkpt><trkpt lat="44.72996235823273" lon="10.236058531570569"><ele>141.0</ele><time>2026-03-28T13:52:09.999Z</time></trkpt><trkpt lat="44.72976812453654" lon="10.235975228192885"><ele>141.0</ele><time>2026-03-28T13:52:10.999Z</time></trkpt><trkpt lat="44.72956172494761" lon="10.235930936891013"><ele>141.0</ele><time>2026-03-28T13:52:11.999Z</time></trkpt><trkpt lat="44.729359825151896" lon="10.235862969989963"><ele>141.0</ele><time>2026-03-28T13:52:12.999Z</time></trkpt><trkpt lat="44.72916128602078" lon="10.23580022600155"><ele>141.66666666666666</ele><time>2026-03-28T13:52:13.999Z</time></trkpt><trkpt lat="44.72896927604422" lon="10.235744645089516"><ele>142.33333333333331</ele><time>2026-03-28T13:52:14.999Z</time></trkpt><trkpt lat="44.72879186720109" lon="10.23569259791766"><ele>143.0</ele><time>2026-03-28T13:52:15.999Z</time></trkpt><trkpt lat="44.72862512601125" lon="10.23564358541696"><ele>143.66666666666666</ele><time>2026-03-28T13:52:16.999Z</time></trkpt><trkpt lat="44.728456118268554" lon="10.23559388013279"><ele>144.33333333333334</ele><time>2026-03-28T13:52:17.999Z</time></trkpt><trkpt lat="44.72829322909641" lon="10.235521013573171"><ele>145.0</ele><time>2026-03-28T13:52:18.999Z</time></trkpt><trkpt lat="44.72812500187861" lon="10.235469410031222"><ele>145.0</ele><time>2026-03-28T13:52:19.999Z</time></trkpt><trkpt lat="44.7279579829858" lon="10.235441595894057"><ele>145.0</ele><time>2026-03-28T13:52:20.999Z</time></trkpt><trkpt lat="44.727814026796956" lon="10.235373712268052"><ele>145.0</ele><time>2026-03-28T13:52:21.999Z</time></trkpt><trkpt lat="44.7276975360315" lon="10.235337844130052"><ele>145.0</ele><time>2026-03-28T13:52:22.999Z</time></trkpt><trkpt lat="44.7275889648562" lon="10.235304414436532"><ele>145.25</ele><time>2026-03-28T13:52:23.999Z</time></trkpt><trkpt lat="44.72748087185239" lon="10.235271131982628"><ele>145.5</ele><time>2026-03-28T13:52:25Z</time></trkpt><trkpt lat="44.727359308441756" lon="10.235257509460672"><ele>145.75</ele><time>2026-03-28T13:52:26Z</time></trkpt><trkpt lat="44.72722073216235" lon="10.235216057236816"><ele>146.0</ele><time>2026-03-28T13:52:27Z</time></trkpt><trkpt lat="44.72706200003608" lon="10.235176785779725"><ele>146.66666666666666</ele><time>2026-03-28T13:52:28Z</time></trkpt><trkpt lat="44.72688649690116" lon="10.235140763261159"><ele>147.33333333333334</ele><time>2026-03-28T13:52:29Z</time></trkpt><trkpt lat="44.72669854386613" lon="10.235085556049741"><ele>148.0</ele><time>2026-03-28T13:52:30Z</time></trkpt><trkpt lat="44.72648342308601" lon="10.235018687257597"><ele>148.0</ele><time>2026-03-28T13:52:31Z</time></trkpt><trkpt lat="44.72626510501138" lon="10.23494312436172"><ele>148.0</ele><time>2026-03-28T13:52:32Z</time></trkpt><trkpt lat="44.726074892896584" lon="10.234859814136097"><ele>148.0</ele><time>2026-03-28T13:52:33Z</time></trkpt><trkpt lat="44.72589702206842" lon="10.234778029706964"><ele>148.0</ele><time>2026-03-28T13:52:34Z</time></trkpt><trkpt lat="44.72571638057415" lon="10.234723276244228"><ele>148.0</ele><time>2026-03-28T13:52:35Z</time></trkpt><trkpt lat="44.725538740631315" lon="10.234673304976141"><ele>148.0</ele><time>2026-03-28T13:52:36Z</time></trkpt><trkpt lat="44.725368780781146" lon="10.234626813471017"><ele>148.0</ele><time>2026-03-28T13:52:37Z</time></trkpt><trkpt lat="44.72518963101875" lon="10.234576902597235"><ele>148.0</ele><time>2026-03-28T13:52:38Z</time></trkpt><trkpt lat="44.72501812432392" lon="10.23452975484833"><ele>148.0</ele><time>2026-03-28T13:52:39Z</time></trkpt><trkpt lat="44.72485593514898" lon="10.234481006500634"><ele>148.0</ele><time>2026-03-28T13:52:40Z</time></trkpt><trkpt lat="44.724698268889185" lon="10.234435442317276"><ele>148.0</ele><time>2026-03-28T13:52:41Z</time></trkpt><trkpt lat="44.72452909937905" lon="10.234380557826698"><ele>148.0</ele><time>2026-03-28T13:52:42Z</time></trkpt><trkpt lat="44.72436231427836" lon="10.234328632564006"><ele>148.33333333333334</ele><time>2026-03-28T13:52:43Z</time></trkpt><trkpt lat="44.72419068185606" lon="10.23428427380548"><ele>148.66666666666666</ele><time>2026-03-28T13:52:44Z</time></trkpt><trkpt lat="44.72401765403414" lon="10.234235567672199"><ele>149.0</ele><time>2026-03-28T13:52:45Z</time></trkpt><trkpt lat="44.72384059378825" lon="10.234186349308095"><ele>149.0</ele><time>2026-03-28T13:52:46Z</time></trkpt><trkpt lat="44.723661733615145" lon="10.234130753218587"><ele>149.0</ele><time>2026-03-28T13:52:47Z</time></trkpt><trkpt lat="44.72347799374128" lon="10.234073818734535"><ele>149.0</ele><time>2026-03-28T13:52:48Z</time></trkpt><trkpt lat="44.72329601762794" lon="10.234018497805511"><ele>150.0</ele><time>2026-03-28T13:52:49Z</time></trkpt><trkpt lat="44.723098596309335" lon="10.233958732906698"><ele>151.0</ele><time>2026-03-28T13:52:50Z</time></trkpt><trkpt lat="44.72290653012017" lon="10.233904017686525"><ele>152.0</ele><time>2026-03-28T13:52:51Z</time></trkpt><trkpt lat="44.72271706107324" lon="10.233843989669683"><ele>152.33333333333331</ele><time>2026-03-28T13:52:52Z</time></trkpt><trkpt lat="44.72254921095725" lon="10.233793412629481"><ele>152.66666666666666</ele><time>2026-03-28T13:52:53Z</time></trkpt><trkpt lat="44.72239963633484" lon="10.233748333672738"><ele>153.0</ele><time>2026-03-28T13:52:54Z</time></trkpt><trkpt lat="44.72225682284516" lon="10.233704192930706"><ele>153.0</ele><time>2026-03-28T13:52:55Z</time></trkpt><trkpt lat="44.72213430659961" lon="10.233649513248471"><ele>153.0</ele><time>2026-03-28T13:52:56Z</time></trkpt><trkpt lat="44.722036226145015" lon="10.233567278144914"><ele>153.0</ele><time>2026-03-28T13:52:57Z</time></trkpt><trkpt lat="44.72195685479277" lon="10.233459071639661"><ele>153.0</ele><time>2026-03-28T13:52:58Z</time></trkpt><trkpt lat="44.72190067539168" lon="10.233347292910814"><ele>153.0</ele><time>2026-03-28T13:52:59Z</time></trkpt><trkpt lat="44.721822808528685" lon="10.233291522991685"><ele>153.0</ele><time>2026-03-28T13:53:00Z</time></trkpt><trkpt lat="44.72173115927737" lon="10.23331796050544"><ele>153.0</ele><time>2026-03-28T13:53:01Z</time></trkpt><trkpt lat="44.72161888174756" lon="10.233393810490009"><ele>153.0</ele><time>2026-03-28T13:53:02Z</time></trkpt><trkpt lat="44.72149048091344" lon="10.23346722470132"><ele>153.0</ele><time>2026-03-28T13:53:03Z</time></trkpt><trkpt lat="44.721324470440564" lon="10.233446059496435"><ele>153.0</ele><time>2026-03-28T13:53:04Z</time></trkpt><trkpt lat="44.72114567132128" lon="10.233366672663276"><ele>153.0</ele><time>2026-03-28T13:53:05Z</time></trkpt><trkpt lat="44.72096371674253" lon="10.233299016037103"><ele>153.0</ele><time>2026-03-28T13:53:06Z</time></trkpt><trkpt lat="44.7207753172278" lon="10.233243846306452"><ele>154.0</ele><time>2026-03-28T13:53:07Z</time></trkpt><trkpt lat="44.720577162411665" lon="10.233186478227156"><ele>155.0</ele><time>2026-03-28T13:53:08Z</time></trkpt><trkpt lat="44.72038131706531" lon="10.233125613656346"><ele>156.0</ele><time>2026-03-28T13:53:09Z</time></trkpt><trkpt lat="44.72018392678753" lon="10.233068983344761"><ele>156.33333333333334</ele><time>2026-03-28T13:53:10Z</time></trkpt><trkpt lat="44.71998392345599" lon="10.233015817627956"><ele>156.66666666666669</ele><time>2026-03-28T13:53:11Z</time></trkpt><trkpt lat="44.71979372934576" lon="10.232955319952477"><ele>157.0</ele><time>2026-03-28T13:53:12Z</time></trkpt><trkpt lat="44.71960517715224" lon="10.23290236835272"><ele>157.0</ele><time>2026-03-28T13:53:13Z</time></trkpt><trkpt lat="44.71943618018534" lon="10.232853499012382"><ele>157.0</ele><time>2026-03-28T13:53:14Z</time></trkpt><trkpt lat="44.71927163651026" lon="10.232814929299614"><ele>157.0</ele><time>2026-03-28T13:53:15Z</time></trkpt><trkpt lat="44.71912626354462" lon="10.232764924153129"><ele>157.0</ele><time>2026-03-28T13:53:16Z</time></trkpt><trkpt lat="44.718996339572584" lon="10.232727790135153"><ele>157.0</ele><time>2026-03-28T13:53:17Z</time></trkpt><trkpt lat="44.71887062131581" lon="10.232686604468185"><ele>157.0</ele><time>2026-03-28T13:53:18Z</time></trkpt><trkpt lat="44.718753261784755" lon="10.232653188450906"><ele>157.0</ele><time>2026-03-28T13:53:19Z</time></trkpt><trkpt lat="44.71864599065522" lon="10.232620481040161"><ele>157.2</ele><time>2026-03-28T13:53:20Z</time></trkpt><trkpt lat="44.718545429433675" lon="10.23259041403808"><ele>157.39999999999998</ele><time>2026-03-28T13:53:21Z</time></trkpt><trkpt lat="44.71843856073013" lon="10.232557438775387"><ele>157.60000000000002</ele><time>2026-03-28T13:53:22Z</time></trkpt><trkpt lat="44.718338684448995" lon="10.232525727312929"><ele>157.8</ele><time>2026-03-28T13:53:23Z</time></trkpt><trkpt lat="44.718256451797956" lon="10.23249849027312"><ele>158.0</ele><time>2026-03-28T13:53:24Z</time></trkpt><trkpt lat="44.71819146981208" lon="10.232475309544627"><ele>158.0</ele><time>2026-03-28T13:53:25Z</time></trkpt><trkpt lat="44.71808216556694" lon="10.232441393464162"><ele>158.0</ele><time>2026-03-28T13:53:27Z</time></trkpt><trkpt lat="44.71802012579262" lon="10.232423641338366"><ele>158.0</ele><time>2026-03-28T13:53:28Z</time></trkpt><trkpt lat="44.71795426705443" lon="10.232406911456055"><ele>158.0</ele><time>2026-03-28T13:53:29Z</time></trkpt><trkpt lat="44.71788798077651" lon="10.232369607298642"><ele>158.0</ele><time>2026-03-28T13:53:30Z</time></trkpt><trkpt lat="44.71781859149468" lon="10.232347483627661"><ele>158.0</ele><time>2026-03-28T13:53:31Z</time></trkpt><trkpt lat="44.71770894159879" lon="10.232312523501019"><ele>158.33333333333331</ele><time>2026-03-28T13:53:32Z</time></trkpt><trkpt lat="44.717570081807864" lon="10.232268250370847"><ele>158.66666666666666</ele><time>2026-03-28T13:53:33Z</time></trkpt><trkpt lat="44.71740991417072" lon="10.232217631462271"><ele>159.0</ele><time>2026-03-28T13:53:34Z</time></trkpt><trkpt lat="44.71721053862159" lon="10.232154766346042"><ele>159.0</ele><time>2026-03-28T13:53:35Z</time></trkpt><trkpt lat="44.71700659622137" lon="10.232090716306756"><ele>159.0</ele><time>2026-03-28T13:53:36Z</time></trkpt><trkpt lat="44.7168130239311" lon="10.232073124444389"><ele>159.0</ele><time>2026-03-28T13:53:37Z</time></trkpt><trkpt lat="44.716639909324925" lon="10.231975611023138"><ele>160.0</ele><time>2026-03-28T13:53:38Z</time></trkpt><trkpt lat="44.716456150458114" lon="10.231910675148423"><ele>161.0</ele><time>2026-03-28T13:53:39Z</time></trkpt><trkpt lat="44.716272156079874" lon="10.231865981860203"><ele>162.0</ele><time>2026-03-28T13:53:40Z</time></trkpt><trkpt lat="44.71610281433941" lon="10.231816381956714"><ele>162.33333333333334</ele><time>2026-03-28T13:53:41Z</time></trkpt><trkpt lat="44.71594285061747" lon="10.231766738986273"><ele>162.66666666666669</ele><time>2026-03-28T13:53:41.999Z</time></trkpt><trkpt lat="44.71578819550068" lon="10.231719637643744"><ele>163.0</ele><time>2026-03-28T13:53:42.999Z</time></trkpt><trkpt lat="44.71559982993936" lon="10.23166550545315"><ele>163.0</ele><time>2026-03-28T13:53:43.999Z</time></trkpt><trkpt lat="44.71545948463564" lon="10.231651018559399"><ele>163.0</ele><time>2026-03-28T13:53:44.999Z</time></trkpt><trkpt lat="44.71529814206713" lon="10.23158168269714"><ele>163.0</ele><time>2026-03-28T13:53:45.999Z</time></trkpt><trkpt lat="44.715128814397275" lon="10.231495028548906"><ele>163.0</ele><time>2026-03-28T13:53:46.999Z</time></trkpt><trkpt lat="44.71491340547393" lon="10.23142229467446"><ele>163.0</ele><time>2026-03-28T13:53:47.999Z</time></trkpt><trkpt lat="44.7147409435439" lon="10.231372817215547"><ele>163.0</ele><time>2026-03-28T13:53:48.999Z</time></trkpt><trkpt lat="44.714579545332114" lon="10.231329308689821"><ele>163.0</ele><time>2026-03-28T13:53:49.999Z</time></trkpt><trkpt lat="44.714420685311275" lon="10.231276872971378"><ele>163.0</ele><time>2026-03-28T13:53:50.999Z</time></trkpt><trkpt lat="44.714261940440956" lon="10.231232346489602"><ele>163.0</ele><time>2026-03-28T13:53:51.999Z</time></trkpt><trkpt lat="44.71410652307657" lon="10.231189933489986"><ele>164.0</ele><time>2026-03-28T13:53:52.999Z</time></trkpt><trkpt lat="44.71396174847211" lon="10.231148738854905"><ele>165.0</ele><time>2026-03-28T13:53:53.999Z</time></trkpt><trkpt lat="44.713779529858925" lon="10.231223323339334"><ele>166.0</ele><time>2026-03-28T13:53:54.999Z</time></trkpt><trkpt lat="44.71359126985805" lon="10.231308328152663"><ele>166.66666666666669</ele><time>2026-03-28T13:53:55.999Z</time></trkpt><trkpt lat="44.7134116545747" lon="10.231388473216334"><ele>167.33333333333334</ele><time>2026-03-28T13:53:56.999Z</time></trkpt><trkpt lat="44.713247933345635" lon="10.231449754469638"><ele>168.0</ele><time>2026-03-28T13:53:57.999Z</time></trkpt><trkpt lat="44.71309412009514" lon="10.231508966189388"><ele>168.0</ele><time>2026-03-28T13:53:58.999Z</time></trkpt><trkpt lat="44.712951339095795" lon="10.231569256443828"><ele>168.0</ele><time>2026-03-28T13:53:59.999Z</time></trkpt><trkpt lat="44.71281338428376" lon="10.231614354444494"><ele>168.0</ele><time>2026-03-28T13:54:00.999Z</time></trkpt><trkpt lat="44.71267704821937" lon="10.231668542792194"><ele>168.0</ele><time>2026-03-28T13:54:01.999Z</time></trkpt><trkpt lat="44.71255595767872" lon="10.231740692619121"><ele>167.5</ele><time>2026-03-28T13:54:02.999Z</time></trkpt><trkpt lat="44.712444785944065" lon="10.231807661351107"><ele>167.0</ele><time>2026-03-28T13:54:03.999Z</time></trkpt><trkpt lat="44.712325439437166" lon="10.231852906547534"><ele>166.5</ele><time>2026-03-28T13:54:04.999Z</time></trkpt><trkpt lat="44.71217659454066" lon="10.231854768769193"><ele>166.0</ele><time>2026-03-28T13:54:05.999Z</time></trkpt><trkpt lat="44.71200734320475" lon="10.231809317475413"><ele>166.66666666666669</ele><time>2026-03-28T13:54:06.999Z</time></trkpt><trkpt lat="44.711834008913655" lon="10.231751465277751"><ele>167.33333333333334</ele><time>2026-03-28T13:54:07.999Z</time></trkpt><trkpt lat="44.711667240164225" lon="10.23169548170744"><ele>168.0</ele><time>2026-03-28T13:54:08.999Z</time></trkpt><trkpt lat="44.711514581484984" lon="10.23165058051969"><ele>168.0</ele><time>2026-03-28T13:54:09.999Z</time></trkpt><trkpt lat="44.711354277339446" lon="10.231601585840306"><ele>168.0</ele><time>2026-03-28T13:54:10.999Z</time></trkpt><trkpt lat="44.711202255683865" lon="10.23155631110439"><ele>168.0</ele><time>2026-03-28T13:54:11.999Z</time></trkpt><trkpt lat="44.711053274226835" lon="10.231507993703982"><ele>168.0</ele><time>2026-03-28T13:54:12.999Z</time></trkpt><trkpt lat="44.71090828242178" lon="10.23144201443219"><ele>168.0</ele><time>2026-03-28T13:54:13.999Z</time></trkpt><trkpt lat="44.71076063913552" lon="10.231400040778231"><ele>168.0</ele><time>2026-03-28T13:54:14.999Z</time></trkpt><trkpt lat="44.71061319155093" lon="10.231350294113495"><ele>168.0</ele><time>2026-03-28T13:54:15.999Z</time></trkpt><trkpt lat="44.710484483922535" lon="10.231312236404845"><ele>168.0</ele><time>2026-03-28T13:54:16.999Z</time></trkpt><trkpt lat="44.710361107226554" lon="10.231267768939588"><ele>168.0</ele><time>2026-03-28T13:54:17.999Z</time></trkpt><trkpt lat="44.710230857023284" lon="10.231227076507276"><ele>168.0</ele><time>2026-03-28T13:54:18.999Z</time></trkpt><trkpt lat="44.710115692146026" lon="10.231189973187533"><ele>168.0</ele><time>2026-03-28T13:54:19.999Z</time></trkpt><trkpt lat="44.71000839114946" lon="10.231155821091079"><ele>168.0</ele><time>2026-03-28T13:54:20.999Z</time></trkpt><trkpt lat="44.709906682587786" lon="10.23112036636272"><ele>168.0</ele><time>2026-03-28T13:54:21.999Z</time></trkpt><trkpt lat="44.70981217312242" lon="10.231090602929205"><ele>168.0</ele><time>2026-03-28T13:54:22.999Z</time></trkpt><trkpt lat="44.70972661646051" lon="10.23106516444168"><ele>168.0</ele><time>2026-03-28T13:54:23.999Z</time></trkpt><trkpt lat="44.709642979741766" lon="10.231039441948889"><ele>168.0</ele><time>2026-03-28T13:54:24.999Z</time></trkpt><trkpt lat="44.70955033528278" lon="10.231008813197542"><ele>168.0</ele><time>2026-03-28T13:54:25.999Z</time></trkpt><trkpt lat="44.7094603363508" lon="10.230979086988702"><ele>168.0</ele><time>2026-03-28T13:54:26.999Z</time></trkpt><trkpt lat="44.70936742636183" lon="10.230942675681494"><ele>168.0</ele><time>2026-03-28T13:54:27.999Z</time></trkpt><trkpt lat="44.70927334122546" lon="10.23091140299498"><ele>168.0</ele><time>2026-03-28T13:54:28.999Z</time></trkpt><trkpt lat="44.70918469318842" lon="10.23088705885848"><ele>168.25</ele><time>2026-03-28T13:54:29.999Z</time></trkpt><trkpt lat="44.70908691453234" lon="10.230855071277418"><ele>168.5</ele><time>2026-03-28T13:54:31Z</time></trkpt><trkpt lat="44.70898626373915" lon="10.230802910455614"><ele>168.75</ele><time>2026-03-28T13:54:32Z</time></trkpt><trkpt lat="44.70886835285374" lon="10.230762748480183"><ele>169.0</ele><time>2026-03-28T13:54:33Z</time></trkpt><trkpt lat="44.708735572068804" lon="10.230718000118227"><ele>169.0</ele><time>2026-03-28T13:54:34Z</time></trkpt><trkpt lat="44.708580488364824" lon="10.230665735403425"><ele>169.0</ele><time>2026-03-28T13:54:35Z</time></trkpt><trkpt lat="44.70841170292405" lon="10.230615980037234"><ele>169.0</ele><time>2026-03-28T13:54:36Z</time></trkpt><trkpt lat="44.708226672502164" lon="10.230555600111877"><ele>169.66666666666669</ele><time>2026-03-28T13:54:37Z</time></trkpt><trkpt lat="44.7080465292932" lon="10.230495832054247"><ele>170.33333333333334</ele><time>2026-03-28T13:54:38Z</time></trkpt><trkpt lat="44.70786076248519" lon="10.230431167467037"><ele>171.0</ele><time>2026-03-28T13:54:39Z</time></trkpt><trkpt lat="44.70765706719408" lon="10.230362720927799"><ele>171.0</ele><time>2026-03-28T13:54:40Z</time></trkpt><trkpt lat="44.707449078862474" lon="10.230293293592307"><ele>171.0</ele><time>2026-03-28T13:54:41Z</time></trkpt><trkpt lat="44.70724797956411" lon="10.230226212059147"><ele>171.0</ele><time>2026-03-28T13:54:42Z</time></trkpt><trkpt lat="44.70705546017866" lon="10.230169448424181"><ele>170.66666666666666</ele><time>2026-03-28T13:54:43Z</time></trkpt><trkpt lat="44.70685729937608" lon="10.230098603532374"><ele>170.33333333333331</ele><time>2026-03-28T13:54:44Z</time></trkpt><trkpt lat="44.70664364615789" lon="10.230024423733827"><ele>170.0</ele><time>2026-03-28T13:54:45Z</time></trkpt><trkpt lat="44.70642114582479" lon="10.229950616917915"><ele>170.0</ele><time>2026-03-28T13:54:46Z</time></trkpt><trkpt lat="44.70620083692419" lon="10.22987088419922"><ele>170.0</ele><time>2026-03-28T13:54:47Z</time></trkpt><trkpt lat="44.705987482340845" lon="10.229756584418407"><ele>171.5</ele><time>2026-03-28T13:54:48Z</time></trkpt><trkpt lat="44.70576900754452" lon="10.229591464564056"><ele>173.0</ele><time>2026-03-28T13:54:49Z</time></trkpt><trkpt lat="44.70554466862741" lon="10.229379353098501"><ele>173.0</ele><time>2026-03-28T13:54:50Z</time></trkpt><trkpt lat="44.70531614470174" lon="10.22915430123326"><ele>173.0</ele><time>2026-03-28T13:54:51Z</time></trkpt><trkpt lat="44.70507790177298" lon="10.228933151253383"><ele>174.0</ele><time>2026-03-28T13:54:52Z</time></trkpt><trkpt lat="44.70483734893666" lon="10.228714120551095"><ele>175.0</ele><time>2026-03-28T13:54:53Z</time></trkpt><trkpt lat="44.7046003545746" lon="10.228500084715854"><ele>175.5</ele><time>2026-03-28T13:54:54Z</time></trkpt><trkpt lat="44.70436186631494" lon="10.228283620908645"><ele>176.0</ele><time>2026-03-28T13:54:55Z</time></trkpt><trkpt lat="44.70412436427168" lon="10.22806757416605"><ele>176.0</ele><time>2026-03-28T13:54:56Z</time></trkpt><trkpt lat="44.703887542041876" lon="10.227861524580797"><ele>176.0</ele><time>2026-03-28T13:54:57Z</time></trkpt><trkpt lat="44.7036515875768" lon="10.227649945865105"><ele>176.0</ele><time>2026-03-28T13:54:58Z</time></trkpt><trkpt lat="44.70342439835482" lon="10.227436706747444"><ele>176.0</ele><time>2026-03-28T13:54:59Z</time></trkpt><trkpt lat="44.70319102403485" lon="10.227225852229624"><ele>175.5</ele><time>2026-03-28T13:55:00Z</time></trkpt><trkpt lat="44.70296338347" lon="10.227014514131755"><ele>175.0</ele><time>2026-03-28T13:55:01Z</time></trkpt><trkpt lat="44.70273558474583" lon="10.226802511816606"><ele>175.0</ele><time>2026-03-28T13:55:02Z</time></trkpt><trkpt lat="44.70250645446959" lon="10.226594373475574"><ele>175.0</ele><time>2026-03-28T13:55:03Z</time></trkpt><trkpt lat="44.70227487910338" lon="10.226381800152962"><ele>175.5</ele><time>2026-03-28T13:55:04Z</time></trkpt><trkpt lat="44.70204680362472" lon="10.226172755275444"><ele>176.0</ele><time>2026-03-28T13:55:05Z</time></trkpt><trkpt lat="44.70181986041791" lon="10.225962144767207"><ele>176.0</ele><time>2026-03-28T13:55:06Z</time></trkpt><trkpt lat="44.701592641381836" lon="10.225748168048682"><ele>176.0</ele><time>2026-03-28T13:55:07Z</time></trkpt><trkpt lat="44.701360413814335" lon="10.225535954841357"><ele>176.5</ele><time>2026-03-28T13:55:08Z</time></trkpt><trkpt lat="44.701128972734196" lon="10.225321835345365"><ele>177.0</ele><time>2026-03-28T13:55:09Z</time></trkpt><trkpt lat="44.7008938849326" lon="10.225116967975115"><ele>178.5</ele><time>2026-03-28T13:55:10Z</time></trkpt><trkpt lat="44.70065297259898" lon="10.224925847613504"><ele>180.0</ele><time>2026-03-28T13:55:11Z</time></trkpt><trkpt lat="44.700408403659544" lon="10.224748464423524"><ele>183.0</ele><time>2026-03-28T13:55:12Z</time></trkpt><trkpt lat="44.70016056584997" lon="10.224567594897117"><ele>186.0</ele><time>2026-03-28T13:55:13Z</time></trkpt><trkpt lat="44.69991388869932" lon="10.224387903415066"><ele>186.0</ele><time>2026-03-28T13:55:14Z</time></trkpt><trkpt lat="44.699667387023304" lon="10.224200310135595"><ele>186.0</ele><time>2026-03-28T13:55:15Z</time></trkpt><trkpt lat="44.69943098486621" lon="10.224026994936105"><ele>184.5</ele><time>2026-03-28T13:55:16Z</time></trkpt><trkpt lat="44.699185119022" lon="10.223849929999096"><ele>183.0</ele><time>2026-03-28T13:55:17Z</time></trkpt><trkpt lat="44.69894694112808" lon="10.2236712949353"><ele>183.0</ele><time>2026-03-28T13:55:18Z</time></trkpt><trkpt lat="44.698709798109654" lon="10.223492789341945"><ele>183.0</ele><time>2026-03-28T13:55:19Z</time></trkpt><trkpt lat="44.69847058925794" lon="10.223314691603624"><ele>183.5</ele><time>2026-03-28T13:55:20Z</time></trkpt><trkpt lat="44.69823413941291" lon="10.223138479339045"><ele>184.0</ele><time>2026-03-28T13:55:21Z</time></trkpt><trkpt lat="44.697998364642274" lon="10.222966196084371"><ele>184.0</ele><time>2026-03-28T13:55:22Z</time></trkpt><trkpt lat="44.69776095173425" lon="10.222793229520908"><ele>184.0</ele><time>2026-03-28T13:55:23Z</time></trkpt><trkpt lat="44.69752635314049" lon="10.222616617173292"><ele>185.5</ele><time>2026-03-28T13:55:24Z</time></trkpt><trkpt lat="44.697293165238065" lon="10.222438082408365"><ele>187.0</ele><time>2026-03-28T13:55:25Z</time></trkpt><trkpt lat="44.69706305501335" lon="10.22226195523855"><ele>188.0</ele><time>2026-03-28T13:55:26Z</time></trkpt><trkpt lat="44.696831778716984" lon="10.222088796787475"><ele>189.0</ele><time>2026-03-28T13:55:27Z</time></trkpt><trkpt lat="44.69659802587164" lon="10.221916655856171"><ele>189.0</ele><time>2026-03-28T13:55:28Z</time></trkpt><trkpt lat="44.69636567816897" lon="10.22174659457423"><ele>189.0</ele><time>2026-03-28T13:55:29Z</time></trkpt><trkpt lat="44.69613477907748" lon="10.22157308414177"><ele>189.5</ele><time>2026-03-28T13:55:30Z</time></trkpt><trkpt lat="44.695908184273875" lon="10.221396784646712"><ele>190.0</ele><time>2026-03-28T13:55:31Z</time></trkpt><trkpt lat="44.69567663490805" lon="10.221221153722201"><ele>190.0</ele><time>2026-03-28T13:55:32Z</time></trkpt><trkpt lat="44.695440429142224" lon="10.22104738875516"><ele>190.0</ele><time>2026-03-28T13:55:33Z</time></trkpt><trkpt lat="44.69520241990082" lon="10.220873931664372"><ele>190.0</ele><time>2026-03-28T13:55:34Z</time></trkpt><trkpt lat="44.694969304109605" lon="10.220703795323953"><ele>190.0</ele><time>2026-03-28T13:55:35Z</time></trkpt><trkpt lat="44.69473472457039" lon="10.22053410137241"><ele>190.0</ele><time>2026-03-28T13:55:36Z</time></trkpt><trkpt lat="44.69450139400357" lon="10.220364062192898"><ele>190.0</ele><time>2026-03-28T13:55:37Z</time></trkpt><trkpt lat="44.6942747380584" lon="10.22019499290752"><ele>192.0</ele><time>2026-03-28T13:55:38Z</time></trkpt><trkpt lat="44.694047967642504" lon="10.220020582931859"><ele>194.0</ele><time>2026-03-28T13:55:39Z</time></trkpt><trkpt lat="44.69382197016225" lon="10.219846697756925"><ele>193.5</ele><time>2026-03-28T13:55:40Z</time></trkpt><trkpt lat="44.69359687758884" lon="10.219681126030782"><ele>193.0</ele><time>2026-03-28T13:55:41Z</time></trkpt><trkpt lat="44.693364541003405" lon="10.219510297749911"><ele>194.0</ele><time>2026-03-28T13:55:42Z</time></trkpt><trkpt lat="44.69312800397523" lon="10.219333742745128"><ele>195.0</ele><time>2026-03-28T13:55:43Z</time></trkpt><trkpt lat="44.69290119031482" lon="10.2191679790409"><ele>195.5</ele><time>2026-03-28T13:55:44Z</time></trkpt><trkpt lat="44.692669167763576" lon="10.218998914065992"><ele>196.0</ele><time>2026-03-28T13:55:45Z</time></trkpt><trkpt lat="44.69244012509714" lon="10.218831320645707"><ele>196.0</ele><time>2026-03-28T13:55:45.999Z</time></trkpt><trkpt lat="44.69220844837058" lon="10.2186573181"><ele>196.0</ele><time>2026-03-28T13:55:46.999Z</time></trkpt><trkpt lat="44.69197620021473" lon="10.218483679683347"><ele>196.0</ele><time>2026-03-28T13:55:47.999Z</time></trkpt><trkpt lat="44.69174877161412" lon="10.218312906780715"><ele>196.0</ele><time>2026-03-28T13:55:48.999Z</time></trkpt><trkpt lat="44.69151657440661" lon="10.218137780384419"><ele>196.0</ele><time>2026-03-28T13:55:49.999Z</time></trkpt><trkpt lat="44.69127977536037" lon="10.217962111483178"><ele>196.0</ele><time>2026-03-28T13:55:50.999Z</time></trkpt><trkpt lat="44.691043897125724" lon="10.217791306826978"><ele>197.0</ele><time>2026-03-28T13:55:51.999Z</time></trkpt><trkpt lat="44.69080747118789" lon="10.217622905673002"><ele>198.0</ele><time>2026-03-28T13:55:52.999Z</time></trkpt><trkpt lat="44.69056797069375" lon="10.217449928251066"><ele>198.0</ele><time>2026-03-28T13:55:53.999Z</time></trkpt><trkpt lat="44.690327506591395" lon="10.217270551807754"><ele>198.0</ele><time>2026-03-28T13:55:54.999Z</time></trkpt><trkpt lat="44.69008719745661" lon="10.217089443505893"><ele>200.0</ele><time>2026-03-28T13:55:55.999Z</time></trkpt><trkpt lat="44.689853123494316" lon="10.216915554041908"><ele>202.0</ele><time>2026-03-28T13:55:56.999Z</time></trkpt><trkpt lat="44.68961745079423" lon="10.216748168251039"><ele>202.5</ele><time>2026-03-28T13:55:57.999Z</time></trkpt><trkpt lat="44.689381991791606" lon="10.21657051962477"><ele>203.0</ele><time>2026-03-28T13:55:58.999Z</time></trkpt><trkpt lat="44.68914654427903" lon="10.216398771408167"><ele>203.0</ele><time>2026-03-28T13:55:59.999Z</time></trkpt><trkpt lat="44.688916520606234" lon="10.216231376789082"><ele>203.0</ele><time>2026-03-28T13:56:00.999Z</time></trkpt><trkpt lat="44.68868633638154" lon="10.216052905485046"><ele>202.0</ele><time>2026-03-28T13:56:01.999Z</time></trkpt><trkpt lat="44.68846021499474" lon="10.215874442309033"><ele>201.0</ele><time>2026-03-28T13:56:02.999Z</time></trkpt><trkpt lat="44.68823836630688" lon="10.215675044795656"><ele>200.5</ele><time>2026-03-28T13:56:03.999Z</time></trkpt><trkpt lat="44.68802775065729" lon="10.215455777624308"><ele>200.0</ele><time>2026-03-28T13:56:04.999Z</time></trkpt><trkpt lat="44.68781850233435" lon="10.21522905756118"><ele>201.5</ele><time>2026-03-28T13:56:05.999Z</time></trkpt><trkpt lat="44.687611429798764" lon="10.215007358390203"><ele>203.0</ele><time>2026-03-28T13:56:06.999Z</time></trkpt><trkpt lat="44.68740300981351" lon="10.214788908918138"><ele>203.0</ele><time>2026-03-28T13:56:07.999Z</time></trkpt><trkpt lat="44.687195116803785" lon="10.214577148620888"><ele>203.0</ele><time>2026-03-28T13:56:08.999Z</time></trkpt><trkpt lat="44.68698977085904" lon="10.214372092927878"><ele>204.0</ele><time>2026-03-28T13:56:09.999Z</time></trkpt><trkpt lat="44.6867960515244" lon="10.214175387877852"><ele>205.0</ele><time>2026-03-28T13:56:10.999Z</time></trkpt><trkpt lat="44.68660877497098" lon="10.213985131994454"><ele>205.0</ele><time>2026-03-28T13:56:11.999Z</time></trkpt><trkpt lat="44.6864296019868" lon="10.213797188496532"><ele>205.0</ele><time>2026-03-28T13:56:12.999Z</time></trkpt><trkpt lat="44.68625248632368" lon="10.213604581311953"><ele>205.0</ele><time>2026-03-28T13:56:13.999Z</time></trkpt><trkpt lat="44.68608354725337" lon="10.213423652991972"><ele>206.0</ele><time>2026-03-28T13:56:14.999Z</time></trkpt><trkpt lat="44.685927533936805" lon="10.21326489117012"><ele>207.0</ele><time>2026-03-28T13:56:15.999Z</time></trkpt><trkpt lat="44.685776451993654" lon="10.213114035074183"><ele>208.0</ele><time>2026-03-28T13:56:16.999Z</time></trkpt><trkpt lat="44.68564134953551" lon="10.212978217837883"><ele>208.0</ele><time>2026-03-28T13:56:17.999Z</time></trkpt><trkpt lat="44.6855125460912" lon="10.212851260987364"><ele>208.0</ele><time>2026-03-28T13:56:18.999Z</time></trkpt><trkpt lat="44.68539570293032" lon="10.212724152385224"><ele>208.0</ele><time>2026-03-28T13:56:19.999Z</time></trkpt><trkpt lat="44.68527747199949" lon="10.212601687970903"><ele>209.0</ele><time>2026-03-28T13:56:20.999Z</time></trkpt><trkpt lat="44.68515391024236" lon="10.21247420431113"><ele>210.0</ele><time>2026-03-28T13:56:21.999Z</time></trkpt><trkpt lat="44.68502512845686" lon="10.21233858354041"><ele>211.0</ele><time>2026-03-28T13:56:22.999Z</time></trkpt><trkpt lat="44.684879648007424" lon="10.212194162526648"><ele>211.0</ele><time>2026-03-28T13:56:23.999Z</time></trkpt><trkpt lat="44.6847234159177" lon="10.212033841413373"><ele>211.0</ele><time>2026-03-28T13:56:24.999Z</time></trkpt><trkpt lat="44.68456068898666" lon="10.21184836754395"><ele>211.0</ele><time>2026-03-28T13:56:25.999Z</time></trkpt><trkpt lat="44.68439566710858" lon="10.21167951883365"><ele>210.5</ele><time>2026-03-28T13:56:26.999Z</time></trkpt><trkpt lat="44.68419004115644" lon="10.211469430583746"><ele>210.0</ele><time>2026-03-28T13:56:27.999Z</time></trkpt><trkpt lat="44.683971005373266" lon="10.211246005639795"><ele>210.0</ele><time>2026-03-28T13:56:28.999Z</time></trkpt><trkpt lat="44.68373555285183" lon="10.211017615760529"><ele>210.0</ele><time>2026-03-28T13:56:29.999Z</time></trkpt><trkpt lat="44.683506843061025" lon="10.210778276502781"><ele>210.5</ele><time>2026-03-28T13:56:30.999Z</time></trkpt><trkpt lat="44.683276506689175" lon="10.210546836121793"><ele>211.0</ele><time>2026-03-28T13:56:31.999Z</time></trkpt><trkpt lat="44.683042807320824" lon="10.21030914047493"><ele>211.0</ele><time>2026-03-28T13:56:32.999Z</time></trkpt><trkpt lat="44.68280772115459" lon="10.210074458330489"><ele>211.0</ele><time>2026-03-28T13:56:33.999Z</time></trkpt><trkpt lat="44.68257262507326" lon="10.209837006983056"><ele>213.5</ele><time>2026-03-28T13:56:34.999Z</time></trkpt><trkpt lat="44.68233708645967" lon="10.20959832518093"><ele>216.0</ele><time>2026-03-28T13:56:35.999Z</time></trkpt><trkpt lat="44.6821041096007" lon="10.209358734010825"><ele>215.0</ele><time>2026-03-28T13:56:37Z</time></trkpt><trkpt lat="44.68187894275439" lon="10.209126750070181"><ele>214.0</ele><time>2026-03-28T13:56:38Z</time></trkpt><trkpt lat="44.68167818438651" lon="10.208914071733702"><ele>214.0</ele><time>2026-03-28T13:56:39Z</time></trkpt><trkpt lat="44.68148104159018" lon="10.208709586330453"><ele>214.0</ele><time>2026-03-28T13:56:40Z</time></trkpt><trkpt lat="44.68127774012485" lon="10.208505495968987"><ele>214.0</ele><time>2026-03-28T13:56:41Z</time></trkpt><trkpt lat="44.68107625153908" lon="10.208295749444149"><ele>214.0</ele><time>2026-03-28T13:56:42Z</time></trkpt><trkpt lat="44.68087533936653" lon="10.208087177348505"><ele>215.5</ele><time>2026-03-28T13:56:43Z</time></trkpt><trkpt lat="44.68067778434137" lon="10.207877177312177"><ele>217.0</ele><time>2026-03-28T13:56:44Z</time></trkpt><trkpt lat="44.68048216982078" lon="10.207669462436355"><ele>217.0</ele><time>2026-03-28T13:56:45Z</time></trkpt><trkpt lat="44.6802830449604" lon="10.207470140493388"><ele>217.0</ele><time>2026-03-28T13:56:46Z</time></trkpt><trkpt lat="44.680086559298964" lon="10.20727552639363"><ele>218.0</ele><time>2026-03-28T13:56:47Z</time></trkpt><trkpt lat="44.67988946062272" lon="10.207074977956854"><ele>219.0</ele><time>2026-03-28T13:56:48Z</time></trkpt><trkpt lat="44.679687969875445" lon="10.206863334868654"><ele>219.0</ele><time>2026-03-28T13:56:49Z</time></trkpt><trkpt lat="44.679482808415564" lon="10.206655440284317"><ele>219.0</ele><time>2026-03-28T13:56:50Z</time></trkpt><trkpt lat="44.67927454440866" lon="10.206448730480119"><ele>220.0</ele><time>2026-03-28T13:56:51Z</time></trkpt><trkpt lat="44.67906895024781" lon="10.206244183852602"><ele>221.0</ele><time>2026-03-28T13:56:52Z</time></trkpt><trkpt lat="44.67886605611672" lon="10.206040391592945"><ele>221.0</ele><time>2026-03-28T13:56:53Z</time></trkpt><trkpt lat="44.67866234925494" lon="10.205839151910142"><ele>221.0</ele><time>2026-03-28T13:56:54Z</time></trkpt><trkpt lat="44.67846255021076" lon="10.205637120704441"><ele>223.5</ele><time>2026-03-28T13:56:55Z</time></trkpt><trkpt lat="44.67826343399843" lon="10.2054269077095"><ele>226.0</ele><time>2026-03-28T13:56:56Z</time></trkpt><trkpt lat="44.678072519173554" lon="10.205221871788254"><ele>226.0</ele><time>2026-03-28T13:56:57Z</time></trkpt><trkpt lat="44.67788209348806" lon="10.205016647710998"><ele>226.0</ele><time>2026-03-28T13:56:58Z</time></trkpt><trkpt lat="44.67768950950174" lon="10.204820744209217"><ele>226.0</ele><time>2026-03-28T13:56:59Z</time></trkpt><trkpt lat="44.677495723453426" lon="10.204627188023798"><ele>226.0</ele><time>2026-03-28T13:57:00Z</time></trkpt><trkpt lat="44.67730421298129" lon="10.20443519477752"><ele>226.0</ele><time>2026-03-28T13:57:01Z</time></trkpt><trkpt lat="44.67711357782194" lon="10.204245021385955"><ele>226.0</ele><time>2026-03-28T13:57:02Z</time></trkpt><trkpt lat="44.676926929751545" lon="10.204054411892358"><ele>227.5</ele><time>2026-03-28T13:57:03Z</time></trkpt><trkpt lat="44.67674075499786" lon="10.20385749920004"><ele>229.0</ele><time>2026-03-28T13:57:04Z</time></trkpt><trkpt lat="44.67655337224127" lon="10.203663786607807"><ele>229.0</ele><time>2026-03-28T13:57:05Z</time></trkpt><trkpt lat="44.67636690367915" lon="10.203473623105944"><ele>229.0</ele><time>2026-03-28T13:57:06Z</time></trkpt><trkpt lat="44.67617858691598" lon="10.203279044253057"><ele>227.5</ele><time>2026-03-28T13:57:07Z</time></trkpt><trkpt lat="44.67599242150682" lon="10.203082726354674"><ele>226.0</ele><time>2026-03-28T13:57:08Z</time></trkpt><trkpt lat="44.67580097797617" lon="10.202905317722692"><ele>226.0</ele><time>2026-03-28T13:57:09Z</time></trkpt><trkpt lat="44.67560009980531" lon="10.202742458384577"><ele>226.0</ele><time>2026-03-28T13:57:10Z</time></trkpt><trkpt lat="44.675391441233806" lon="10.20258544573439"><ele>226.0</ele><time>2026-03-28T13:57:11Z</time></trkpt><trkpt lat="44.67518008416735" lon="10.20242987913815"><ele>226.0</ele><time>2026-03-28T13:57:12Z</time></trkpt><trkpt lat="44.67497480190032" lon="10.202274716601439"><ele>226.0</ele><time>2026-03-28T13:57:13Z</time></trkpt><trkpt lat="44.674769856618774" lon="10.202114721198326"><ele>226.0</ele><time>2026-03-28T13:57:14Z</time></trkpt><trkpt lat="44.67456500713077" lon="10.201949880911036"><ele>227.0</ele><time>2026-03-28T13:57:15Z</time></trkpt><trkpt lat="44.67436411180912" lon="10.201795686078428"><ele>228.0</ele><time>2026-03-28T13:57:16Z</time></trkpt><trkpt lat="44.674164020045694" lon="10.201648768744102"><ele>228.0</ele><time>2026-03-28T13:57:17Z</time></trkpt><trkpt lat="44.673964726779836" lon="10.201502665565135"><ele>228.0</ele><time>2026-03-28T13:57:18Z</time></trkpt><trkpt lat="44.6737684920606" lon="10.201348169751043"><ele>229.0</ele><time>2026-03-28T13:57:19Z</time></trkpt><trkpt lat="44.67358619590797" lon="10.201195440122042"><ele>230.0</ele><time>2026-03-28T13:57:20Z</time></trkpt><trkpt lat="44.673417522220596" lon="10.201040803753731"><ele>231.0</ele><time>2026-03-28T13:57:21Z</time></trkpt><trkpt lat="44.67326634531962" lon="10.200864210078585"><ele>231.0</ele><time>2026-03-28T13:57:22Z</time></trkpt><trkpt lat="44.67311613482767" lon="10.200636164066246"><ele>231.0</ele><time>2026-03-28T13:57:23Z</time></trkpt><trkpt lat="44.672988538428626" lon="10.200377828640447"><ele>231.0</ele><time>2026-03-28T13:57:24Z</time></trkpt><trkpt lat="44.67285590945335" lon="10.200124940626079"><ele>230.5</ele><time>2026-03-28T13:57:25Z</time></trkpt><trkpt lat="44.67271939444219" lon="10.199868760965296"><ele>230.0</ele><time>2026-03-28T13:57:26Z</time></trkpt><trkpt lat="44.672579575017586" lon="10.199610686900707"><ele>230.0</ele><time>2026-03-28T13:57:27Z</time></trkpt><trkpt lat="44.67243896526492" lon="10.199355679933921"><ele>230.0</ele><time>2026-03-28T13:57:28Z</time></trkpt><trkpt lat="44.67229717935877" lon="10.199107532320166"><ele>231.0</ele><time>2026-03-28T13:57:29Z</time></trkpt><trkpt lat="44.67213910229536" lon="10.198835760754198"><ele>232.0</ele><time>2026-03-28T13:57:30Z</time></trkpt><trkpt lat="44.67196920893466" lon="10.198536476048485"><ele>233.0</ele><time>2026-03-28T13:57:31Z</time></trkpt><trkpt lat="44.67181300394002" lon="10.198220567808308"><ele>234.0</ele><time>2026-03-28T13:57:32Z</time></trkpt><trkpt lat="44.671668896448615" lon="10.197920645423086"><ele>235.5</ele><time>2026-03-28T13:57:33Z</time></trkpt><trkpt lat="44.671523653569636" lon="10.197645482238839"><ele>237.0</ele><time>2026-03-28T13:57:34Z</time></trkpt><trkpt lat="44.67137652318543" lon="10.197375972170269"><ele>237.5</ele><time>2026-03-28T13:57:35Z</time></trkpt><trkpt lat="44.671223436310406" lon="10.19711473267326"><ele>238.0</ele><time>2026-03-28T13:57:36Z</time></trkpt><trkpt lat="44.67106226738603" lon="10.196865086520805"><ele>238.0</ele><time>2026-03-28T13:57:37Z</time></trkpt><trkpt lat="44.67087011463719" lon="10.196636930155972"><ele>238.0</ele><time>2026-03-28T13:57:38Z</time></trkpt><trkpt lat="44.670657038621215" lon="10.19643312317529"><ele>239.0</ele><time>2026-03-28T13:57:39Z</time></trkpt><trkpt lat="44.670448700547475" lon="10.196213557154811"><ele>240.0</ele><time>2026-03-28T13:57:40Z</time></trkpt><trkpt lat="44.67024195797466" lon="10.195995429662766"><ele>240.5</ele><time>2026-03-28T13:57:41Z</time></trkpt><trkpt lat="44.670037335602764" lon="10.195782459632124"><ele>241.0</ele><time>2026-03-28T13:57:42Z</time></trkpt><trkpt lat="44.669825419213545" lon="10.195560420661197"><ele>241.5</ele><time>2026-03-28T13:57:43Z</time></trkpt><trkpt lat="44.66962130031419" lon="10.195346551645743"><ele>242.0</ele><time>2026-03-28T13:57:44Z</time></trkpt><trkpt lat="44.669402113866155" lon="10.195145495662837"><ele>242.0</ele><time>2026-03-28T13:57:45Z</time></trkpt><trkpt lat="44.669197113189604" lon="10.194929124959346"><ele>242.0</ele><time>2026-03-28T13:57:46Z</time></trkpt><trkpt lat="44.66899038961029" lon="10.194716946154864"><ele>242.5</ele><time>2026-03-28T13:57:47Z</time></trkpt><trkpt lat="44.66878739005373" lon="10.194503642325746"><ele>243.0</ele><time>2026-03-28T13:57:48Z</time></trkpt><trkpt lat="44.66858624276001" lon="10.19429195631356"><ele>243.0</ele><time>2026-03-28T13:57:49Z</time></trkpt><trkpt lat="44.66838402710533" lon="10.19408168085006"><ele>243.0</ele><time>2026-03-28T13:57:49.999Z</time></trkpt><trkpt lat="44.66819157022502" lon="10.1938797238237"><ele>243.0</ele><time>2026-03-28T13:57:50.999Z</time></trkpt><trkpt lat="44.668011700419136" lon="10.19368829274448"><ele>243.0</ele><time>2026-03-28T13:57:51.999Z</time></trkpt><trkpt lat="44.66784587132363" lon="10.193515615239406"><ele>243.0</ele><time>2026-03-28T13:57:52.999Z</time></trkpt><trkpt lat="44.6676936999421" lon="10.193355755890783"><ele>243.33333333333331</ele><time>2026-03-28T13:57:53.999Z</time></trkpt><trkpt lat="44.66752785509617" lon="10.193191590034818"><ele>243.66666666666666</ele><time>2026-03-28T13:57:54.999Z</time></trkpt><trkpt lat="44.66737455701027" lon="10.193027371010903"><ele>244.0</ele><time>2026-03-28T13:57:55.999Z</time></trkpt><trkpt lat="44.667232676611974" lon="10.19286861398189"><ele>245.0</ele><time>2026-03-28T13:57:56.999Z</time></trkpt><trkpt lat="44.667096699598254" lon="10.192717407904784"><ele>246.0</ele><time>2026-03-28T13:57:57.999Z</time></trkpt><trkpt lat="44.66697597945455" lon="10.19258330194293"><ele>247.0</ele><time>2026-03-28T13:57:58.999Z</time></trkpt><trkpt lat="44.666878270478165" lon="10.192470730649461"><ele>247.0</ele><time>2026-03-28T13:57:59.999Z</time></trkpt><trkpt lat="44.666790529810186" lon="10.192383310149298"><ele>247.0</ele><time>2026-03-28T13:58:00.999Z</time></trkpt><trkpt lat="44.66670817458749" lon="10.192288621946345"><ele>247.0</ele><time>2026-03-28T13:58:01.999Z</time></trkpt><trkpt lat="44.666630991076" lon="10.192174600099982"><ele>247.0</ele><time>2026-03-28T13:58:02.999Z</time></trkpt><trkpt lat="44.666539605230824" lon="10.192070554258143"><ele>247.0</ele><time>2026-03-28T13:58:03.999Z</time></trkpt><trkpt lat="44.66644191518935" lon="10.19195933086926"><ele>247.0</ele><time>2026-03-28T13:58:04.999Z</time></trkpt><trkpt lat="44.666338925114616" lon="10.191842073225352"><ele>247.0</ele><time>2026-03-28T13:58:05.999Z</time></trkpt><trkpt lat="44.666223616440796" lon="10.191739093156253"><ele>247.0</ele><time>2026-03-28T13:58:06.999Z</time></trkpt><trkpt lat="44.666126731283626" lon="10.191622726057654"><ele>247.0</ele><time>2026-03-28T13:58:07.999Z</time></trkpt><trkpt lat="44.66602759877988" lon="10.191508968164971"><ele>247.25</ele><time>2026-03-28T13:58:08.999Z</time></trkpt><trkpt lat="44.66592758164226" lon="10.191390226701552"><ele>247.5</ele><time>2026-03-28T13:58:09.999Z</time></trkpt><trkpt lat="44.66582265477773" lon="10.19127154951363"><ele>247.75</ele><time>2026-03-28T13:58:10.999Z</time></trkpt><trkpt lat="44.66572851050654" lon="10.191155945792113"><ele>248.0</ele><time>2026-03-28T13:58:11.999Z</time></trkpt><trkpt lat="44.6656440991603" lon="10.191043468432143"><ele>248.0</ele><time>2026-03-28T13:58:12.999Z</time></trkpt><trkpt lat="44.665548875798265" lon="10.190896241607975"><ele>248.0</ele><time>2026-03-28T13:58:13.999Z</time></trkpt><trkpt lat="44.66543671761781" lon="10.190742992474057"><ele>248.0</ele><time>2026-03-28T13:58:14.999Z</time></trkpt><trkpt lat="44.66531958033569" lon="10.190584253226092"><ele>248.0</ele><time>2026-03-28T13:58:15.999Z</time></trkpt><trkpt lat="44.66519178766989" lon="10.190418575256805"><ele>248.0</ele><time>2026-03-28T13:58:16.999Z</time></trkpt><trkpt lat="44.665068899980064" lon="10.190248954657955"><ele>248.0</ele><time>2026-03-28T13:58:17.999Z</time></trkpt><trkpt lat="44.664951062543956" lon="10.19009103549798"><ele>248.0</ele><time>2026-03-28T13:58:18.999Z</time></trkpt><trkpt lat="44.66482329647897" lon="10.189921329977894"><ele>248.0</ele><time>2026-03-28T13:58:19.999Z</time></trkpt><trkpt lat="44.664704118149466" lon="10.189748108979634"><ele>248.0</ele><time>2026-03-28T13:58:20.999Z</time></trkpt><trkpt lat="44.66457288858723" lon="10.189565038552821"><ele>249.0</ele><time>2026-03-28T13:58:21.999Z</time></trkpt><trkpt lat="44.66443220340597" lon="10.189375577131145"><ele>250.0</ele><time>2026-03-28T13:58:22.999Z</time></trkpt><trkpt lat="44.664284921366544" lon="10.189177950653896"><ele>251.0</ele><time>2026-03-28T13:58:23.999Z</time></trkpt><trkpt lat="44.66413612678977" lon="10.188981664828885"><ele>252.0</ele><time>2026-03-28T13:58:24.999Z</time></trkpt><trkpt lat="44.663989573675266" lon="10.188751693328596"><ele>253.0</ele><time>2026-03-28T13:58:25.999Z</time></trkpt><trkpt lat="44.66383953934863" lon="10.188515942899702"><ele>254.0</ele><time>2026-03-28T13:58:26.999Z</time></trkpt><trkpt lat="44.66370443474927" lon="10.188246296342369"><ele>254.0</ele><time>2026-03-28T13:58:27.999Z</time></trkpt><trkpt lat="44.66360749099558" lon="10.187978611015671"><ele>254.0</ele><time>2026-03-28T13:58:28.999Z</time></trkpt><trkpt lat="44.66351612211607" lon="10.187743008604109"><ele>254.0</ele><time>2026-03-28T13:58:29.999Z</time></trkpt><trkpt lat="44.66331807789978" lon="10.18728650853201"><ele>255.5</ele><time>2026-03-28T13:58:30.999Z</time></trkpt><trkpt lat="44.663187939937494" lon="10.187002888067134"><ele>257.0</ele><time>2026-03-28T13:58:31.999Z</time></trkpt><trkpt lat="44.66306717691068" lon="10.186724468164964"><ele>258.5</ele><time>2026-03-28T13:58:32.999Z</time></trkpt><trkpt lat="44.662921964765935" lon="10.186478493767927"><ele>260.0</ele><time>2026-03-28T13:58:33.999Z</time></trkpt><trkpt lat="44.66271579480333" lon="10.186284068881708"><ele>260.0</ele><time>2026-03-28T13:58:34.999Z</time></trkpt><trkpt lat="44.662500127839586" lon="10.186081193060119"><ele>260.0</ele><time>2026-03-28T13:58:35.999Z</time></trkpt><trkpt lat="44.66226360633634" lon="10.185892430951537"><ele>260.0</ele><time>2026-03-28T13:58:36.999Z</time></trkpt><trkpt lat="44.66203600036783" lon="10.185687921423673"><ele>260.0</ele><time>2026-03-28T13:58:37.999Z</time></trkpt><trkpt lat="44.66181331736483" lon="10.185490669304906"><ele>261.5</ele><time>2026-03-28T13:58:38.999Z</time></trkpt><trkpt lat="44.66159622738201" lon="10.185288416729795"><ele>263.0</ele><time>2026-03-28T13:58:39.999Z</time></trkpt><trkpt lat="44.66138822385423" lon="10.185092461809813"><ele>263.0</ele><time>2026-03-28T13:58:40.999Z</time></trkpt><trkpt lat="44.66117779429008" lon="10.184900856439072"><ele>263.0</ele><time>2026-03-28T13:58:41.999Z</time></trkpt><trkpt lat="44.660962795333866" lon="10.184724074736977"><ele>264.0</ele><time>2026-03-28T13:58:43Z</time></trkpt><trkpt lat="44.660740531524304" lon="10.184572777987693"><ele>265.0</ele><time>2026-03-28T13:58:44Z</time></trkpt><trkpt lat="44.66052093549259" lon="10.18442310003874"><ele>265.0</ele><time>2026-03-28T13:58:45Z</time></trkpt><trkpt lat="44.66030166541776" lon="10.184273000837978"><ele>265.0</ele><time>2026-03-28T13:58:46Z</time></trkpt><trkpt lat="44.66008381803272" lon="10.184127999998024"><ele>266.5</ele><time>2026-03-28T13:58:47Z</time></trkpt><trkpt lat="44.65987068340816" lon="10.18398152290534"><ele>268.0</ele><time>2026-03-28T13:58:48Z</time></trkpt><trkpt lat="44.65966102311248" lon="10.183825779936605"><ele>266.0</ele><time>2026-03-28T13:58:49Z</time></trkpt><trkpt lat="44.65944813314247" lon="10.183677458726825"><ele>264.0</ele><time>2026-03-28T13:58:50Z</time></trkpt><trkpt lat="44.65923663267899" lon="10.183530302077367"><ele>264.0</ele><time>2026-03-28T13:58:51Z</time></trkpt><trkpt lat="44.659029671622484" lon="10.183386303817532"><ele>264.0</ele><time>2026-03-28T13:58:52Z</time></trkpt><trkpt lat="44.65882548156232" lon="10.18324423354994"><ele>266.0</ele><time>2026-03-28T13:58:53Z</time></trkpt><trkpt lat="44.65861860384874" lon="10.18310129299358"><ele>268.0</ele><time>2026-03-28T13:58:54Z</time></trkpt><trkpt lat="44.65840933619187" lon="10.18297885313941"><ele>268.0</ele><time>2026-03-28T13:58:55Z</time></trkpt><trkpt lat="44.658207061548495" lon="10.182837826141846"><ele>268.0</ele><time>2026-03-28T13:58:56Z</time></trkpt><trkpt lat="44.65800585453462" lon="10.182702766040032"><ele>268.0</ele><time>2026-03-28T13:58:57Z</time></trkpt><trkpt lat="44.65780464816718" lon="10.182561975251097"><ele>266.66666666666663</ele><time>2026-03-28T13:58:58Z</time></trkpt><trkpt lat="44.65760514492173" lon="10.182425591182666"><ele>265.3333333333333</ele><time>2026-03-28T13:58:59Z</time></trkpt><trkpt lat="44.65740900194442" lon="10.182287008161325"><ele>264.0</ele><time>2026-03-28T13:59:00Z</time></trkpt><trkpt lat="44.657211390686655" lon="10.182143586220366"><ele>265.3333333333333</ele><time>2026-03-28T13:59:01Z</time></trkpt><trkpt lat="44.65700581966127" lon="10.182011224861016"><ele>266.66666666666663</ele><time>2026-03-28T13:59:02Z</time></trkpt><trkpt lat="44.656809192098756" lon="10.181875986511429"><ele>268.0</ele><time>2026-03-28T13:59:03Z</time></trkpt><trkpt lat="44.6566165424042" lon="10.181715402409186"><ele>268.0</ele><time>2026-03-28T13:59:04Z</time></trkpt><trkpt lat="44.65643106706231" lon="10.18160640252018"><ele>268.0</ele><time>2026-03-28T13:59:05Z</time></trkpt><trkpt lat="44.65624995238697" lon="10.181484338280745"><ele>268.0</ele><time>2026-03-28T13:59:06Z</time></trkpt><trkpt lat="44.65607928874341" lon="10.181345645457261"><ele>269.3333333333333</ele><time>2026-03-28T13:59:07Z</time></trkpt><trkpt lat="44.65590323956989" lon="10.181216766036911"><ele>270.6666666666667</ele><time>2026-03-28T13:59:08Z</time></trkpt><trkpt lat="44.65572834277527" lon="10.181107004991697"><ele>272.0</ele><time>2026-03-28T13:59:09Z</time></trkpt><trkpt lat="44.65554972445161" lon="10.180991063721919"><ele>272.0</ele><time>2026-03-28T13:59:10Z</time></trkpt><trkpt lat="44.65537942274874" lon="10.180863609985206"><ele>272.0</ele><time>2026-03-28T13:59:11Z</time></trkpt><trkpt lat="44.65520533426648" lon="10.180749575333495"><ele>272.0</ele><time>2026-03-28T13:59:12Z</time></trkpt><trkpt lat="44.65503847202263" lon="10.18063445168204"><ele>274.0</ele><time>2026-03-28T13:59:13Z</time></trkpt><trkpt lat="44.65488034173074" lon="10.180510352413906"><ele>276.0</ele><time>2026-03-28T13:59:14Z</time></trkpt><trkpt lat="44.654719527827375" lon="10.180395627454697"><ele>278.0</ele><time>2026-03-28T13:59:15Z</time></trkpt><trkpt lat="44.654543548515605" lon="10.180278161256275"><ele>276.0</ele><time>2026-03-28T13:59:16Z</time></trkpt><trkpt lat="44.65435330362013" lon="10.180156230796062"><ele>274.0</ele><time>2026-03-28T13:59:17Z</time></trkpt><trkpt lat="44.6541679414334" lon="10.180028294203016"><ele>272.0</ele><time>2026-03-28T13:59:18Z</time></trkpt><trkpt lat="44.653974629716565" lon="10.179892916022764"><ele>274.0</ele><time>2026-03-28T13:59:19Z</time></trkpt><trkpt lat="44.65378035587513" lon="10.17976039872776"><ele>276.0</ele><time>2026-03-28T13:59:20Z</time></trkpt><trkpt lat="44.65360112503974" lon="10.179629114131007"><ele>278.0</ele><time>2026-03-28T13:59:21Z</time></trkpt><trkpt lat="44.65341129748689" lon="10.179492546218471"><ele>278.0</ele><time>2026-03-28T13:59:22Z</time></trkpt><trkpt lat="44.65322422884206" lon="10.179364254495802"><ele>278.0</ele><time>2026-03-28T13:59:23Z</time></trkpt><trkpt lat="44.65303848479703" lon="10.179238850394055"><ele>278.0</ele><time>2026-03-28T13:59:24Z</time></trkpt><trkpt lat="44.65285805000515" lon="10.179107865637231"><ele>278.33333333333337</ele><time>2026-03-28T13:59:25Z</time></trkpt><trkpt lat="44.65267541426617" lon="10.178978904309433"><ele>278.6666666666667</ele><time>2026-03-28T13:59:26Z</time></trkpt><trkpt lat="44.6524974958016" lon="10.178857686848392"><ele>279.0</ele><time>2026-03-28T13:59:27Z</time></trkpt><trkpt lat="44.65231432979807" lon="10.178730225395856"><ele>279.0</ele><time>2026-03-28T13:59:28Z</time></trkpt><trkpt lat="44.652130934389675" lon="10.178602105548388"><ele>279.0</ele><time>2026-03-28T13:59:29Z</time></trkpt><trkpt lat="44.651948495079736" lon="10.178479300343826"><ele>279.0</ele><time>2026-03-28T13:59:30Z</time></trkpt><trkpt lat="44.65176199776961" lon="10.178351248242945"><ele>278.0</ele><time>2026-03-28T13:59:31Z</time></trkpt><trkpt lat="44.65158515345395" lon="10.178225158234826"><ele>277.0</ele><time>2026-03-28T13:59:32Z</time></trkpt><trkpt lat="44.65140513702609" lon="10.178102278523498"><ele>276.0</ele><time>2026-03-28T13:59:33Z</time></trkpt><trkpt lat="44.65123527881562" lon="10.177977191243823"><ele>278.6666666666667</ele><time>2026-03-28T13:59:34Z</time></trkpt><trkpt lat="44.65105713208818" lon="10.177849959010594"><ele>281.33333333333337</ele><time>2026-03-28T13:59:35Z</time></trkpt><trkpt lat="44.650891023482785" lon="10.17773997583106"><ele>284.0</ele><time>2026-03-28T13:59:36Z</time></trkpt><trkpt lat="44.650750245361614" lon="10.177646351522727"><ele>284.0</ele><time>2026-03-28T13:59:37Z</time></trkpt><trkpt lat="44.65061892473187" lon="10.177552027633128"><ele>284.0</ele><time>2026-03-28T13:59:38Z</time></trkpt><trkpt lat="44.65048658635554" lon="10.177458936731718"><ele>284.0</ele><time>2026-03-28T13:59:39Z</time></trkpt><trkpt lat="44.65034650984582" lon="10.177377635400388"><ele>284.0</ele><time>2026-03-28T13:59:40Z</time></trkpt><trkpt lat="44.65019657799489" lon="10.177303333976868"><ele>284.6666666666667</ele><time>2026-03-28T13:59:41Z</time></trkpt><trkpt lat="44.65002964842256" lon="10.177244876482439"><ele>285.3333333333333</ele><time>2026-03-28T13:59:42Z</time></trkpt><trkpt lat="44.6498570429619" lon="10.177175211871612"><ele>286.0</ele><time>2026-03-28T13:59:43Z</time></trkpt><trkpt lat="44.64967853814637" lon="10.177111830825542"><ele>286.0</ele><time>2026-03-28T13:59:44Z</time></trkpt><trkpt lat="44.649490927781336" lon="10.177038588272033"><ele>286.0</ele><time>2026-03-28T13:59:45Z</time></trkpt><trkpt lat="44.649289545192175" lon="10.176947089154776"><ele>286.0</ele><time>2026-03-28T13:59:46Z</time></trkpt><trkpt lat="44.649070056146904" lon="10.176853961436487"><ele>285.66666666666663</ele><time>2026-03-28T13:59:47Z</time></trkpt><trkpt lat="44.64884489994049" lon="10.176775171156807"><ele>285.3333333333333</ele><time>2026-03-28T13:59:48Z</time></trkpt><trkpt lat="44.64863628002479" lon="10.17670629248423"><ele>285.0</ele><time>2026-03-28T13:59:49Z</time></trkpt><trkpt lat="44.648427321958515" lon="10.176622747598552"><ele>284.3333333333333</ele><time>2026-03-28T13:59:50Z</time></trkpt><trkpt lat="44.64822137879947" lon="10.176539228197955"><ele>283.66666666666663</ele><time>2026-03-28T13:59:51Z</time></trkpt><trkpt lat="44.648022136545464" lon="10.176430545041026"><ele>283.0</ele><time>2026-03-28T13:59:52Z</time></trkpt><trkpt lat="44.6478379956038" lon="10.176336004665687"><ele>284.66666666666663</ele><time>2026-03-28T13:59:52.999Z</time></trkpt><trkpt lat="44.64764192266397" lon="10.176293881366488"><ele>286.3333333333333</ele><time>2026-03-28T13:59:53.999Z</time></trkpt><trkpt lat="44.64746446045484" lon="10.176226096930124"><ele>288.0</ele><time>2026-03-28T13:59:54.999Z</time></trkpt><trkpt lat="44.64728752557432" lon="10.176159213276152"><ele>288.5</ele><time>2026-03-28T13:59:55.999Z</time></trkpt><trkpt lat="44.64690374848512" lon="10.176102563802665"><ele>289.0</ele><time>2026-03-28T13:59:57.999Z</time></trkpt><trkpt lat="44.646680155973854" lon="10.176111252878949"><ele>289.0</ele><time>2026-03-28T13:59:58.999Z</time></trkpt><trkpt lat="44.64647233035444" lon="10.17611815567968"><ele>289.0</ele><time>2026-03-28T13:59:59.999Z</time></trkpt><trkpt lat="44.64627040734877" lon="10.176127421467704"><ele>289.0</ele><time>2026-03-28T14:00:00.999Z</time></trkpt><trkpt lat="44.646070806423374" lon="10.176122753827281"><ele>288.66666666666663</ele><time>2026-03-28T14:00:01.999Z</time></trkpt><trkpt lat="44.6458721728867" lon="10.17611988792215"><ele>288.3333333333333</ele><time>2026-03-28T14:00:02.999Z</time></trkpt><trkpt lat="44.645668648847625" lon="10.17611140918284"><ele>288.0</ele><time>2026-03-28T14:00:03.999Z</time></trkpt><trkpt lat="44.64546894714135" lon="10.17608235312757"><ele>288.6666666666667</ele><time>2026-03-28T14:00:04.999Z</time></trkpt><trkpt lat="44.645270197467305" lon="10.175999118148834"><ele>289.33333333333337</ele><time>2026-03-28T14:00:05.999Z</time></trkpt><trkpt lat="44.6450696908413" lon="10.175933726337018"><ele>290.0</ele><time>2026-03-28T14:00:06.999Z</time></trkpt><trkpt lat="44.64486212389103" lon="10.175814813370776"><ele>290.5</ele><time>2026-03-28T14:00:07.999Z</time></trkpt><trkpt lat="44.64465525608746" lon="10.175677434628307"><ele>291.0</ele><time>2026-03-28T14:00:08.999Z</time></trkpt><trkpt lat="44.64443982176428" lon="10.17552938592423"><ele>291.0</ele><time>2026-03-28T14:00:09.999Z</time></trkpt><trkpt lat="44.64422378287653" lon="10.175384394899812"><ele>291.0</ele><time>2026-03-28T14:00:10.999Z</time></trkpt><trkpt lat="44.64400604347045" lon="10.175246562211203"><ele>291.0</ele><time>2026-03-28T14:00:11.999Z</time></trkpt><trkpt lat="44.64378741067389" lon="10.175108252344598"><ele>291.0</ele><time>2026-03-28T14:00:12.999Z</time></trkpt><trkpt lat="44.64356604821387" lon="10.174977475264946"><ele>290.0</ele><time>2026-03-28T14:00:13.999Z</time></trkpt><trkpt lat="44.64334727004463" lon="10.17485444904618"><ele>289.0</ele><time>2026-03-28T14:00:14.999Z</time></trkpt><trkpt lat="44.6431414790962" lon="10.174734229426328"><ele>290.0</ele><time>2026-03-28T14:00:15.999Z</time></trkpt><trkpt lat="44.64295109575019" lon="10.174610172296896"><ele>291.0</ele><time>2026-03-28T14:00:16.999Z</time></trkpt><trkpt lat="44.6427758396533" lon="10.174446948556529"><ele>292.0</ele><time>2026-03-28T14:00:17.999Z</time></trkpt><trkpt lat="44.64259839272885" lon="10.174250728816304"><ele>292.0</ele><time>2026-03-28T14:00:18.999Z</time></trkpt><trkpt lat="44.64241369551529" lon="10.174055233819399"><ele>292.0</ele><time>2026-03-28T14:00:19.999Z</time></trkpt><trkpt lat="44.64223247831422" lon="10.173835018007498"><ele>292.5</ele><time>2026-03-28T14:00:20.999Z</time></trkpt><trkpt lat="44.64205124943437" lon="10.1736338536483"><ele>293.0</ele><time>2026-03-28T14:00:21.999Z</time></trkpt><trkpt lat="44.641868599513806" lon="10.1734305348981"><ele>293.0</ele><time>2026-03-28T14:00:22.999Z</time></trkpt><trkpt lat="44.6416904539464" lon="10.173204245326438"><ele>293.0</ele><time>2026-03-28T14:00:23.999Z</time></trkpt><trkpt lat="44.64151987149308" lon="10.173006542263083"><ele>296.5</ele><time>2026-03-28T14:00:24.999Z</time></trkpt><trkpt lat="44.64134210515258" lon="10.172800419580902"><ele>300.0</ele><time>2026-03-28T14:00:25.999Z</time></trkpt><trkpt lat="44.64116229470179" lon="10.17260910323743"><ele>299.0</ele><time>2026-03-28T14:00:26.999Z</time></trkpt><trkpt lat="44.64098618178386" lon="10.172403297935267"><ele>298.0</ele><time>2026-03-28T14:00:27.999Z</time></trkpt><trkpt lat="44.64081103174945" lon="10.172208346479188"><ele>300.0</ele><time>2026-03-28T14:00:28.999Z</time></trkpt><trkpt lat="44.640626913191504" lon="10.172039254152077"><ele>302.0</ele><time>2026-03-28T14:00:29.999Z</time></trkpt><trkpt lat="44.640420161620426" lon="10.171911573084637"><ele>304.0</ele><time>2026-03-28T14:00:30.999Z</time></trkpt><trkpt lat="44.64019682931343" lon="10.17183859898342"><ele>304.0</ele><time>2026-03-28T14:00:31.999Z</time></trkpt><trkpt lat="44.63997878317395" lon="10.171772536045514"><ele>304.0</ele><time>2026-03-28T14:00:32.999Z</time></trkpt><trkpt lat="44.6397651932254" lon="10.17169418298796"><ele>304.0</ele><time>2026-03-28T14:00:33.999Z</time></trkpt><trkpt lat="44.63955382933734" lon="10.171603623107545"><ele>306.3333333333333</ele><time>2026-03-28T14:00:34.999Z</time></trkpt><trkpt lat="44.639347211617675" lon="10.17149251611869"><ele>308.6666666666667</ele><time>2026-03-28T14:00:35.999Z</time></trkpt><trkpt lat="44.639143206138534" lon="10.171362785529535"><ele>311.0</ele><time>2026-03-28T14:00:36.999Z</time></trkpt><trkpt lat="44.63893762242774" lon="10.17124534216075"><ele>311.0</ele><time>2026-03-28T14:00:37.999Z</time></trkpt><trkpt lat="44.638728137906035" lon="10.171125533893997"><ele>311.0</ele><time>2026-03-28T14:00:38.999Z</time></trkpt><trkpt lat="44.638522984681344" lon="10.17100861410592"><ele>311.0</ele><time>2026-03-28T14:00:39.999Z</time></trkpt><trkpt lat="44.63830915616275" lon="10.170913528342172"><ele>309.0</ele><time>2026-03-28T14:00:40.999Z</time></trkpt><trkpt lat="44.6380952661362" lon="10.170859890008806"><ele>307.0</ele><time>2026-03-28T14:00:41.999Z</time></trkpt><trkpt lat="44.63786624463183" lon="10.170853517695416"><ele>305.0</ele><time>2026-03-28T14:00:42.999Z</time></trkpt><trkpt lat="44.637639696487824" lon="10.170853755386592"><ele>303.0</ele><time>2026-03-28T14:00:43.999Z</time></trkpt><trkpt lat="44.637413887528055" lon="10.170823891692773"><ele>301.0</ele><time>2026-03-28T14:00:44.999Z</time></trkpt><trkpt lat="44.63719095747733" lon="10.170759423705151"><ele>304.0</ele><time>2026-03-28T14:00:45.999Z</time></trkpt><trkpt lat="44.63697698010152" lon="10.17067910617098"><ele>307.0</ele><time>2026-03-28T14:00:46.999Z</time></trkpt><trkpt lat="44.6367824027612" lon="10.170620525309767"><ele>310.0</ele><time>2026-03-28T14:00:47.999Z</time></trkpt><trkpt lat="44.63660152706301" lon="10.170553383972033"><ele>310.0</ele><time>2026-03-28T14:00:49Z</time></trkpt><trkpt lat="44.63644145907243" lon="10.170466952818536"><ele>310.0</ele><time>2026-03-28T14:00:50Z</time></trkpt><trkpt lat="44.63629536635509" lon="10.170409076362798"><ele>310.0</ele><time>2026-03-28T14:00:51Z</time></trkpt><trkpt lat="44.63615761047219" lon="10.170369762123737"><ele>309.6</ele><time>2026-03-28T14:00:52Z</time></trkpt><trkpt lat="44.636038701287575" lon="10.170319046292219"><ele>309.2</ele><time>2026-03-28T14:00:53Z</time></trkpt><trkpt lat="44.63593214555858" lon="10.170276791454596"><ele>308.8</ele><time>2026-03-28T14:00:54Z</time></trkpt><trkpt lat="44.635832748330486" lon="10.170232242503767"><ele>308.4</ele><time>2026-03-28T14:00:55Z</time></trkpt><trkpt lat="44.635737892886524" lon="10.170187467919106"><ele>308.0</ele><time>2026-03-28T14:00:56Z</time></trkpt><trkpt lat="44.635650089384875" lon="10.170102724344316"><ele>308.0</ele><time>2026-03-28T14:00:57Z</time></trkpt><trkpt lat="44.63556501647844" lon="10.170023839440647"><ele>308.0</ele><time>2026-03-28T14:00:58Z</time></trkpt><trkpt lat="44.635470067278305" lon="10.169961729723116"><ele>308.0</ele><time>2026-03-28T14:00:59Z</time></trkpt><trkpt lat="44.635381421673294" lon="10.169901467490222"><ele>308.0</ele><time>2026-03-28T14:01:00Z</time></trkpt><trkpt lat="44.63528125358852" lon="10.169874755879253"><ele>308.0</ele><time>2026-03-28T14:01:01Z</time></trkpt><trkpt lat="44.63518166616491" lon="10.169889105424813"><ele>307.8</ele><time>2026-03-28T14:01:02Z</time></trkpt><trkpt lat="44.635091623454656" lon="10.169930057487361"><ele>307.6</ele><time>2026-03-28T14:01:03Z</time></trkpt><trkpt lat="44.63500779894524" lon="10.170002803289966"><ele>307.4</ele><time>2026-03-28T14:01:04Z</time></trkpt><trkpt lat="44.63494332055866" lon="10.17012546155697"><ele>307.2</ele><time>2026-03-28T14:01:05Z</time></trkpt><trkpt lat="44.6349109549308" lon="10.170272156794873"><ele>307.0</ele><time>2026-03-28T14:01:06Z</time></trkpt><trkpt lat="44.634898059841476" lon="10.170443465246041"><ele>307.0</ele><time>2026-03-28T14:01:07Z</time></trkpt><trkpt lat="44.63488678603822" lon="10.170620724581424"><ele>307.0</ele><time>2026-03-28T14:01:08Z</time></trkpt><trkpt lat="44.6348689324302" lon="10.17080454266025"><ele>307.0</ele><time>2026-03-28T14:01:09Z</time></trkpt><trkpt lat="44.634849140193815" lon="10.17099642017296"><ele>307.0</ele><time>2026-03-28T14:01:10Z</time></trkpt><trkpt lat="44.634831966544006" lon="10.171198971212181"><ele>306.5</ele><time>2026-03-28T14:01:11Z</time></trkpt><trkpt lat="44.634815174223064" lon="10.171402201679125"><ele>306.0</ele><time>2026-03-28T14:01:12Z</time></trkpt><trkpt lat="44.63479277126116" lon="10.171598973004977"><ele>305.5</ele><time>2026-03-28T14:01:13Z</time></trkpt><trkpt lat="44.634773754902966" lon="10.171783872566483"><ele>305.0</ele><time>2026-03-28T14:01:14Z</time></trkpt><trkpt lat="44.63476202455222" lon="10.171927843435203"><ele>304.75</ele><time>2026-03-28T14:01:15Z</time></trkpt><trkpt lat="44.634737580930704" lon="10.172029941896668"><ele>304.5</ele><time>2026-03-28T14:01:16Z</time></trkpt><trkpt lat="44.63472063351754" lon="10.172159665904944"><ele>304.25</ele><time>2026-03-28T14:01:18Z</time></trkpt><trkpt lat="44.6345736153386" lon="10.172138105766876"><ele>304.0</ele><time>2026-03-28T14:01:21Z</time></trkpt><trkpt lat="44.63444790968361" lon="10.172081607098097"><ele>304.66666666666663</ele><time>2026-03-28T14:01:22Z</time></trkpt><trkpt lat="44.634284815601966" lon="10.172046992282237"><ele>305.3333333333333</ele><time>2026-03-28T14:01:23Z</time></trkpt><trkpt lat="44.63410830193678" lon="10.171990614637268"><ele>306.0</ele><time>2026-03-28T14:01:24Z</time></trkpt><trkpt lat="44.6339258951699" lon="10.171912224000252"><ele>306.0</ele><time>2026-03-28T14:01:25Z</time></trkpt><trkpt lat="44.63374474683866" lon="10.171873138063246"><ele>306.0</ele><time>2026-03-28T14:01:26Z</time></trkpt><trkpt lat="44.63356007243166" lon="10.171758616125391"><ele>306.0</ele><time>2026-03-28T14:01:27Z</time></trkpt><trkpt lat="44.63338161313548" lon="10.171666787851613"><ele>308.3333333333333</ele><time>2026-03-28T14:01:28Z</time></trkpt><trkpt lat="44.633222518767276" lon="10.17157843981184"><ele>310.66666666666663</ele><time>2026-03-28T14:01:29Z</time></trkpt><trkpt lat="44.633059166672275" lon="10.171526994399194"><ele>313.0</ele><time>2026-03-28T14:01:30Z</time></trkpt><trkpt lat="44.63288113474126" lon="10.171536337428773"><ele>312.66666666666663</ele><time>2026-03-28T14:01:31Z</time></trkpt><trkpt lat="44.63269363874627" lon="10.171611166961476"><ele>312.3333333333333</ele><time>2026-03-28T14:01:32Z</time></trkpt><trkpt lat="44.63251606472785" lon="10.171748916172614"><ele>312.0</ele><time>2026-03-28T14:01:33Z</time></trkpt><trkpt lat="44.632332884058066" lon="10.171929792769497"><ele>312.0</ele><time>2026-03-28T14:01:34Z</time></trkpt><trkpt lat="44.63214798395351" lon="10.17209040352145"><ele>312.0</ele><time>2026-03-28T14:01:35Z</time></trkpt><trkpt lat="44.6319538132134" lon="10.172149511597908"><ele>312.0</ele><time>2026-03-28T14:01:36Z</time></trkpt><trkpt lat="44.63175870562591" lon="10.172165132687601"><ele>312.0</ele><time>2026-03-28T14:01:37Z</time></trkpt><trkpt lat="44.63155650919267" lon="10.172187177351889"><ele>312.0</ele><time>2026-03-28T14:01:38Z</time></trkpt><trkpt lat="44.63137183433774" lon="10.172225048811017"><ele>312.0</ele><time>2026-03-28T14:01:39Z</time></trkpt><trkpt lat="44.63119060926633" lon="10.172234845004372"><ele>314.0</ele><time>2026-03-28T14:01:40Z</time></trkpt><trkpt lat="44.63101668516233" lon="10.172214035577522"><ele>316.0</ele><time>2026-03-28T14:01:41Z</time></trkpt><trkpt lat="44.630876598673346" lon="10.17207597837416"><ele>318.0</ele><time>2026-03-28T14:01:42Z</time></trkpt><trkpt lat="44.63075737349678" lon="10.171890047564341"><ele>318.0</ele><time>2026-03-28T14:01:43Z</time></trkpt><trkpt lat="44.63061641266894" lon="10.171691809075796"><ele>318.0</ele><time>2026-03-28T14:01:44Z</time></trkpt><trkpt lat="44.63049751026545" lon="10.171505350853115"><ele>318.0</ele><time>2026-03-28T14:01:45Z</time></trkpt><trkpt lat="44.63035017400969" lon="10.171393681104238"><ele>318.0</ele><time>2026-03-28T14:01:46Z</time></trkpt><trkpt lat="44.630163552846454" lon="10.171327096874908"><ele>318.0</ele><time>2026-03-28T14:01:47Z</time></trkpt><trkpt lat="44.6299538373762" lon="10.171292133205869"><ele>318.0</ele><time>2026-03-28T14:01:48Z</time></trkpt><trkpt lat="44.629733328549975" lon="10.17126931398235"><ele>318.0</ele><time>2026-03-28T14:01:49Z</time></trkpt><trkpt lat="44.62952305455591" lon="10.171225858200064"><ele>318.0</ele><time>2026-03-28T14:01:50Z</time></trkpt><trkpt lat="44.629332652495016" lon="10.17117738482717"><ele>318.0</ele><time>2026-03-28T14:01:51Z</time></trkpt><trkpt lat="44.62914792113443" lon="10.171129139269572"><ele>319.3333333333333</ele><time>2026-03-28T14:01:52Z</time></trkpt><trkpt lat="44.628960359368115" lon="10.171080083933626"><ele>320.66666666666663</ele><time>2026-03-28T14:01:53Z</time></trkpt><trkpt lat="44.62878575155179" lon="10.170961736645483"><ele>322.0</ele><time>2026-03-28T14:01:54Z</time></trkpt><trkpt lat="44.62863938521233" lon="10.170810368186572"><ele>323.0</ele><time>2026-03-28T14:01:55Z</time></trkpt><trkpt lat="44.62850789885644" lon="10.170602219762422"><ele>324.0</ele><time>2026-03-28T14:01:56Z</time></trkpt><trkpt lat="44.628373710625425" lon="10.17038765668742"><ele>325.0</ele><time>2026-03-28T14:01:57Z</time></trkpt><trkpt lat="44.62826884850004" lon="10.17016549532477"><ele>325.0</ele><time>2026-03-28T14:01:58Z</time></trkpt><trkpt lat="44.62816905788055" lon="10.169966011299207"><ele>325.0</ele><time>2026-03-28T14:01:59Z</time></trkpt><trkpt lat="44.62806397457883" lon="10.169774767697186"><ele>325.0</ele><time>2026-03-28T14:01:59.999Z</time></trkpt><trkpt lat="44.62795422793442" lon="10.169591902559628"><ele>327.0</ele><time>2026-03-28T14:02:00.999Z</time></trkpt><trkpt lat="44.62782443213478" lon="10.169420582471014"><ele>329.0</ele><time>2026-03-28T14:02:01.999Z</time></trkpt><trkpt lat="44.62768169483704" lon="10.169260211963918"><ele>331.0</ele><time>2026-03-28T14:02:02.999Z</time></trkpt><trkpt lat="44.62754291914834" lon="10.169081415395912"><ele>329.3333333333333</ele><time>2026-03-28T14:02:03.999Z</time></trkpt><trkpt lat="44.62739248327181" lon="10.168936839504392"><ele>327.6666666666667</ele><time>2026-03-28T14:02:04.999Z</time></trkpt><trkpt lat="44.62725086467612" lon="10.168770804459243"><ele>326.0</ele><time>2026-03-28T14:02:05.999Z</time></trkpt><trkpt lat="44.627110850332365" lon="10.168636529413401"><ele>328.33333333333337</ele><time>2026-03-28T14:02:06.999Z</time></trkpt><trkpt lat="44.62694851007435" lon="10.168510039596207"><ele>330.6666666666667</ele><time>2026-03-28T14:02:07.999Z</time></trkpt><trkpt lat="44.626778837520014" lon="10.168398962840225"><ele>333.0</ele><time>2026-03-28T14:02:08.999Z</time></trkpt><trkpt lat="44.6266050965513" lon="10.168301965088395"><ele>333.0</ele><time>2026-03-28T14:02:09.999Z</time></trkpt><trkpt lat="44.62643185610243" lon="10.16821378066644"><ele>333.0</ele><time>2026-03-28T14:02:10.999Z</time></trkpt><trkpt lat="44.62626283836559" lon="10.168125853765266"><ele>333.0</ele><time>2026-03-28T14:02:11.999Z</time></trkpt><trkpt lat="44.626081338371954" lon="10.168024373951333"><ele>334.0</ele><time>2026-03-28T14:02:12.999Z</time></trkpt><trkpt lat="44.62589867012666" lon="10.167926885482425"><ele>335.0</ele><time>2026-03-28T14:02:13.999Z</time></trkpt><trkpt lat="44.62570797965119" lon="10.16781405332907"><ele>336.0</ele><time>2026-03-28T14:02:14.999Z</time></trkpt><trkpt lat="44.62551542034392" lon="10.16770368819087"><ele>336.0</ele><time>2026-03-28T14:02:15.999Z</time></trkpt><trkpt lat="44.62532656809665" lon="10.167601500565533"><ele>336.0</ele><time>2026-03-28T14:02:16.999Z</time></trkpt><trkpt lat="44.625131469827174" lon="10.167473646920055"><ele>336.0</ele><time>2026-03-28T14:02:17.999Z</time></trkpt><trkpt lat="44.62492725851021" lon="10.16738274800083"><ele>336.3333333333333</ele><time>2026-03-28T14:02:18.999Z</time></trkpt><trkpt lat="44.62473454014583" lon="10.16726812623294"><ele>336.66666666666663</ele><time>2026-03-28T14:02:19.999Z</time></trkpt><trkpt lat="44.624560520618026" lon="10.167155621043207"><ele>337.0</ele><time>2026-03-28T14:02:20.999Z</time></trkpt><trkpt lat="44.62440251129659" lon="10.167068777704301"><ele>337.0</ele><time>2026-03-28T14:02:21.999Z</time></trkpt><trkpt lat="44.6242429642945" lon="10.166997963060885"><ele>337.0</ele><time>2026-03-28T14:02:22.999Z</time></trkpt><trkpt lat="44.62408754076482" lon="10.166976428643993"><ele>337.0</ele><time>2026-03-28T14:02:23.999Z</time></trkpt><trkpt lat="44.62391945961559" lon="10.167026380590285"><ele>337.0</ele><time>2026-03-28T14:02:24.999Z</time></trkpt><trkpt lat="44.62374534503522" lon="10.167146722333074"><ele>337.0</ele><time>2026-03-28T14:02:25.999Z</time></trkpt><trkpt lat="44.62357649961124" lon="10.16724501364328"><ele>337.0</ele><time>2026-03-28T14:02:26.999Z</time></trkpt><trkpt lat="44.62339903022457" lon="10.167277566337168"><ele>337.0</ele><time>2026-03-28T14:02:27.999Z</time></trkpt><trkpt lat="44.62319102283952" lon="10.167251246089643"><ele>337.0</ele><time>2026-03-28T14:02:28.999Z</time></trkpt><trkpt lat="44.62297465657282" lon="10.167188179566141"><ele>337.0</ele><time>2026-03-28T14:02:29.999Z</time></trkpt><trkpt lat="44.622760455487075" lon="10.167135161376404"><ele>339.66666666666663</ele><time>2026-03-28T14:02:30.999Z</time></trkpt><trkpt lat="44.62254711443264" lon="10.167091955079915"><ele>342.3333333333333</ele><time>2026-03-28T14:02:31.999Z</time></trkpt><trkpt lat="44.62235417429419" lon="10.167052294386929"><ele>345.0</ele><time>2026-03-28T14:02:32.999Z</time></trkpt><trkpt lat="44.622154900353244" lon="10.167037074509837"><ele>347.0</ele><time>2026-03-28T14:02:33.999Z</time></trkpt><trkpt lat="44.621940856666974" lon="10.167050880759923"><ele>349.0</ele><time>2026-03-28T14:02:34.999Z</time></trkpt><trkpt lat="44.621723560775074" lon="10.167038638764147"><ele>351.0</ele><time>2026-03-28T14:02:35.999Z</time></trkpt><trkpt lat="44.62152434555635" lon="10.166977093739478"><ele>351.0</ele><time>2026-03-28T14:02:36.999Z</time></trkpt><trkpt lat="44.62135024542827" lon="10.166904622544623"><ele>351.0</ele><time>2026-03-28T14:02:37.999Z</time></trkpt><trkpt lat="44.62118033770066" lon="10.166781871451253"><ele>351.0</ele><time>2026-03-28T14:02:38.999Z</time></trkpt><trkpt lat="44.62099683138594" lon="10.166661709118404"><ele>352.0</ele><time>2026-03-28T14:02:39.999Z</time></trkpt><trkpt lat="44.62082292627432" lon="10.166505210031504"><ele>353.0</ele><time>2026-03-28T14:02:40.999Z</time></trkpt><trkpt lat="44.62063663668374" lon="10.166358433695596"><ele>354.0</ele><time>2026-03-28T14:02:41.999Z</time></trkpt><trkpt lat="44.62044929084928" lon="10.166211964640974"><ele>354.3333333333333</ele><time>2026-03-28T14:02:42.999Z</time></trkpt><trkpt lat="44.62025955322457" lon="10.16606751187565"><ele>354.66666666666663</ele><time>2026-03-28T14:02:43.999Z</time></trkpt><trkpt lat="44.62006589071306" lon="10.165922847279303"><ele>355.0</ele><time>2026-03-28T14:02:44.999Z</time></trkpt><trkpt lat="44.61987482158811" lon="10.165780862864672"><ele>356.0</ele><time>2026-03-28T14:02:45.999Z</time></trkpt><trkpt lat="44.61968075041717" lon="10.165628745753347"><ele>357.0</ele><time>2026-03-28T14:02:46.999Z</time></trkpt><trkpt lat="44.619488770960615" lon="10.165480159771894"><ele>358.0</ele><time>2026-03-28T14:02:47.999Z</time></trkpt><trkpt lat="44.61931573007232" lon="10.165348712097076"><ele>358.0</ele><time>2026-03-28T14:02:48.999Z</time></trkpt><trkpt lat="44.61916248336648" lon="10.165210384202384"><ele>358.0</ele><time>2026-03-28T14:02:49.999Z</time></trkpt><trkpt lat="44.61902526040517" lon="10.16509110603095"><ele>358.0</ele><time>2026-03-28T14:02:50.999Z</time></trkpt><trkpt lat="44.61891433284082" lon="10.164917372950637"><ele>356.0</ele><time>2026-03-28T14:02:51.999Z</time></trkpt><trkpt lat="44.618857848146114" lon="10.164727879064186"><ele>354.0</ele><time>2026-03-28T14:02:52.999Z</time></trkpt><trkpt lat="44.618833650997" lon="10.164503665659765"><ele>352.0</ele><time>2026-03-28T14:02:53.999Z</time></trkpt><trkpt lat="44.61883974940299" lon="10.16421349655117"><ele>351.66666666666663</ele><time>2026-03-28T14:02:55Z</time></trkpt><trkpt lat="44.6188496523561" lon="10.163906567174916"><ele>351.3333333333333</ele><time>2026-03-28T14:02:56Z</time></trkpt><trkpt lat="44.618865652900354" lon="10.163606070273168"><ele>351.0</ele><time>2026-03-28T14:02:57Z</time></trkpt><trkpt lat="44.6188973484898" lon="10.163320539498393"><ele>351.0</ele><time>2026-03-28T14:02:58Z</time></trkpt><trkpt lat="44.61894115620507" lon="10.163058776885988"><ele>351.0</ele><time>2026-03-28T14:02:59Z</time></trkpt><trkpt lat="44.61899566648831" lon="10.162822226087833"><ele>351.0</ele><time>2026-03-28T14:03:00Z</time></trkpt><trkpt lat="44.61903822308481" lon="10.162603180551065"><ele>349.3333333333333</ele><time>2026-03-28T14:03:01Z</time></trkpt><trkpt lat="44.61903110373198" lon="10.16236292374981"><ele>347.66666666666663</ele><time>2026-03-28T14:03:02Z</time></trkpt><trkpt lat="44.61897410031138" lon="10.16209583963539"><ele>346.0</ele><time>2026-03-28T14:03:03Z</time></trkpt><trkpt lat="44.618867998920855" lon="10.161821490321952"><ele>346.0</ele><time>2026-03-28T14:03:04Z</time></trkpt><trkpt lat="44.61879335018426" lon="10.161538297200826"><ele>346.0</ele><time>2026-03-28T14:03:05Z</time></trkpt><trkpt lat="44.61875220907132" lon="10.161239584741363"><ele>346.0</ele><time>2026-03-28T14:03:06Z</time></trkpt><trkpt lat="44.61871436582249" lon="10.160971407371816"><ele>348.0</ele><time>2026-03-28T14:03:07Z</time></trkpt><trkpt lat="44.61866145124243" lon="10.160736781652611"><ele>350.0</ele><time>2026-03-28T14:03:08Z</time></trkpt><trkpt lat="44.6185889577054" lon="10.160536389264553"><ele>352.0</ele><time>2026-03-28T14:03:09Z</time></trkpt><trkpt lat="44.618481921874334" lon="10.160378539522355"><ele>352.0</ele><time>2026-03-28T14:03:10Z</time></trkpt><trkpt lat="44.618353049722046" lon="10.160308443464126"><ele>352.0</ele><time>2026-03-28T14:03:11Z</time></trkpt><trkpt lat="44.61821630840516" lon="10.160287860839254"><ele>352.0</ele><time>2026-03-28T14:03:12Z</time></trkpt><trkpt lat="44.618086711568694" lon="10.160248567165992"><ele>352.0</ele><time>2026-03-28T14:03:13Z</time></trkpt><trkpt lat="44.618000365108145" lon="10.160136387657893"><ele>352.0</ele><time>2026-03-28T14:03:14Z</time></trkpt><trkpt lat="44.617929756404365" lon="10.160032689706922"><ele>352.0</ele><time>2026-03-28T14:03:15Z</time></trkpt><trkpt lat="44.61791192904508" lon="10.159874991766065"><ele>352.0</ele><time>2026-03-28T14:03:16Z</time></trkpt><trkpt lat="44.61787642819707" lon="10.159650979046857"><ele>352.0</ele><time>2026-03-28T14:03:17Z</time></trkpt><trkpt lat="44.61790704629123" lon="10.159477450867993"><ele>352.0</ele><time>2026-03-28T14:03:18Z</time></trkpt><trkpt lat="44.61794287527538" lon="10.159301625106808"><ele>352.0</ele><time>2026-03-28T14:03:19Z</time></trkpt><trkpt lat="44.61797475367108" lon="10.159085822889072"><ele>352.0</ele><time>2026-03-28T14:03:20Z</time></trkpt><trkpt lat="44.61803140080058" lon="10.158865649361182"><ele>352.0</ele><time>2026-03-28T14:03:21Z</time></trkpt><trkpt lat="44.61806434186738" lon="10.158671444030805"><ele>352.0</ele><time>2026-03-28T14:03:22Z</time></trkpt><trkpt lat="44.618089398434144" lon="10.158490750307264"><ele>352.0</ele><time>2026-03-28T14:03:23Z</time></trkpt><trkpt lat="44.61808942503352" lon="10.158270122375473"><ele>352.0</ele><time>2026-03-28T14:03:24Z</time></trkpt><trkpt lat="44.61805369691323" lon="10.15804195544084"><ele>349.3333333333333</ele><time>2026-03-28T14:03:25Z</time></trkpt><trkpt lat="44.61800295332042" lon="10.157833604642418"><ele>346.6666666666667</ele><time>2026-03-28T14:03:26Z</time></trkpt><trkpt lat="44.61793956719529" lon="10.157643676082875"><ele>344.0</ele><time>2026-03-28T14:03:27Z</time></trkpt><trkpt lat="44.61785018760502" lon="10.15747777581229"><ele>346.6666666666667</ele><time>2026-03-28T14:03:28Z</time></trkpt><trkpt lat="44.61771634875635" lon="10.157312177740737"><ele>349.3333333333333</ele><time>2026-03-28T14:03:29Z</time></trkpt><trkpt lat="44.61754966025681" lon="10.15707028558627"><ele>352.0</ele><time>2026-03-28T14:03:30Z</time></trkpt><trkpt lat="44.61736194929484" lon="10.1568279599204"><ele>352.0</ele><time>2026-03-28T14:03:31Z</time></trkpt><trkpt lat="44.6172146205115" lon="10.156627514083954"><ele>352.0</ele><time>2026-03-28T14:03:32Z</time></trkpt><trkpt lat="44.61707069217456" lon="10.156426337024122"><ele>352.0</ele><time>2026-03-28T14:03:33Z</time></trkpt><trkpt lat="44.61689086759743" lon="10.156269775665695"><ele>354.0</ele><time>2026-03-28T14:03:34Z</time></trkpt><trkpt lat="44.61668000010684" lon="10.15615714324345"><ele>356.0</ele><time>2026-03-28T14:03:35Z</time></trkpt><trkpt lat="44.616493377727565" lon="10.156021217876026"><ele>358.0</ele><time>2026-03-28T14:03:36Z</time></trkpt><trkpt lat="44.61631532251057" lon="10.155839447352259"><ele>358.3333333333333</ele><time>2026-03-28T14:03:37Z</time></trkpt><trkpt lat="44.61614974999366" lon="10.155655517643059"><ele>358.6666666666667</ele><time>2026-03-28T14:03:38Z</time></trkpt><trkpt lat="44.61599926501624" lon="10.15547625441611"><ele>359.0</ele><time>2026-03-28T14:03:39Z</time></trkpt><trkpt lat="44.61589100093362" lon="10.155231965402864"><ele>359.0</ele><time>2026-03-28T14:03:40Z</time></trkpt><trkpt lat="44.615788537105246" lon="10.154975053115715"><ele>359.0</ele><time>2026-03-28T14:03:41Z</time></trkpt><trkpt lat="44.61573285235896" lon="10.154705889412478"><ele>359.0</ele><time>2026-03-28T14:03:42Z</time></trkpt><trkpt lat="44.61572000564988" lon="10.154406019042032"><ele>361.5</ele><time>2026-03-28T14:03:43Z</time></trkpt><trkpt lat="44.61570039529689" lon="10.154087374120433"><ele>364.0</ele><time>2026-03-28T14:03:44Z</time></trkpt><trkpt lat="44.61569424078612" lon="10.153758374884822"><ele>364.0</ele><time>2026-03-28T14:03:45Z</time></trkpt><trkpt lat="44.61570431478509" lon="10.15346275874948"><ele>364.0</ele><time>2026-03-28T14:03:46Z</time></trkpt><trkpt lat="44.61565830734638" lon="10.153088429375478"><ele>364.0</ele><time>2026-03-28T14:03:47Z</time></trkpt><trkpt lat="44.61564304529114" lon="10.152758213246983"><ele>364.0</ele><time>2026-03-28T14:03:48Z</time></trkpt><trkpt lat="44.61567623921066" lon="10.152469651235366"><ele>364.0</ele><time>2026-03-28T14:03:49Z</time></trkpt><trkpt lat="44.615704515349925" lon="10.152190333260675"><ele>364.0</ele><time>2026-03-28T14:03:50Z</time></trkpt><trkpt lat="44.615756295658294" lon="10.151938840363972"><ele>364.0</ele><time>2026-03-28T14:03:51Z</time></trkpt><trkpt lat="44.6157666994268" lon="10.151659591666279"><ele>364.0</ele><time>2026-03-28T14:03:52Z</time></trkpt><trkpt lat="44.61574421055578" lon="10.151359505817695"><ele>362.5</ele><time>2026-03-28T14:03:53Z</time></trkpt><trkpt lat="44.615663202418254" lon="10.1510498011849"><ele>361.0</ele><time>2026-03-28T14:03:54Z</time></trkpt><trkpt lat="44.615551960578614" lon="10.150781280352797"><ele>362.3333333333333</ele><time>2026-03-28T14:03:55Z</time></trkpt><trkpt lat="44.615491513442386" lon="10.15054818034446"><ele>363.6666666666667</ele><time>2026-03-28T14:03:56Z</time></trkpt><trkpt lat="44.61549215332574" lon="10.150301996203282"><ele>365.0</ele><time>2026-03-28T14:03:57Z</time></trkpt><trkpt lat="44.6155000051044" lon="10.149966628030812"><ele>367.33333333333337</ele><time>2026-03-28T14:03:58Z</time></trkpt><trkpt lat="44.6155318381299" lon="10.14965582638057"><ele>369.6666666666667</ele><time>2026-03-28T14:03:59Z</time></trkpt><trkpt lat="44.61555554688905" lon="10.149372058694022"><ele>372.0</ele><time>2026-03-28T14:04:00Z</time></trkpt><trkpt lat="44.61560291574594" lon="10.149119424260578"><ele>376.0</ele><time>2026-03-28T14:04:01Z</time></trkpt><trkpt lat="44.615689623585816" lon="10.148877889848292"><ele>380.0</ele><time>2026-03-28T14:04:02Z</time></trkpt><trkpt lat="44.61580842391134" lon="10.14864952444984"><ele>384.0</ele><time>2026-03-28T14:04:03Z</time></trkpt><trkpt lat="44.615915134382426" lon="10.148436112607476"><ele>384.0</ele><time>2026-03-28T14:04:04Z</time></trkpt><trkpt lat="44.61601026340657" lon="10.148233562179609"><ele>384.0</ele><time>2026-03-28T14:04:05Z</time></trkpt><trkpt lat="44.616076927250276" lon="10.147997455513025"><ele>384.0</ele><time>2026-03-28T14:04:06Z</time></trkpt><trkpt lat="44.616085191197506" lon="10.147702102412959"><ele>387.5</ele><time>2026-03-28T14:04:07Z</time></trkpt><trkpt lat="44.61606163989474" lon="10.14738282937796"><ele>391.0</ele><time>2026-03-28T14:04:08Z</time></trkpt><trkpt lat="44.61600477004513" lon="10.147071618582098"><ele>392.5</ele><time>2026-03-28T14:04:08.999Z</time></trkpt><trkpt lat="44.61602724925679" lon="10.14674556492786"><ele>394.0</ele><time>2026-03-28T14:04:09.999Z</time></trkpt><trkpt lat="44.61603238976584" lon="10.146392607393603"><ele>397.0</ele><time>2026-03-28T14:04:10.999Z</time></trkpt><trkpt lat="44.61605991087457" lon="10.146056892070142"><ele>400.0</ele><time>2026-03-28T14:04:11.999Z</time></trkpt><trkpt lat="44.616089351586304" lon="10.145741804834646"><ele>400.5</ele><time>2026-03-28T14:04:12.999Z</time></trkpt><trkpt lat="44.616134351133965" lon="10.145428283878962"><ele>401.0</ele><time>2026-03-28T14:04:13.999Z</time></trkpt><trkpt lat="44.61617382896654" lon="10.145120397412436"><ele>388.3333333333333</ele><time>2026-03-28T14:04:14.999Z</time></trkpt><trkpt lat="44.61620485266711" lon="10.144823173089936"><ele>375.66666666666663</ele><time>2026-03-28T14:04:15.999Z</time></trkpt><trkpt lat="44.61622306837081" lon="10.144541331467185"><ele>363.0</ele><time>2026-03-28T14:04:16.999Z</time></trkpt><trkpt lat="44.61624423172851" lon="10.1442937626081"><ele>363.0</ele><time>2026-03-28T14:04:17.999Z</time></trkpt><trkpt lat="44.61625734704406" lon="10.144072766177711"><ele>363.0</ele><time>2026-03-28T14:04:18.999Z</time></trkpt><trkpt lat="44.61623909759444" lon="10.143859112564202"><ele>363.0</ele><time>2026-03-28T14:04:19.999Z</time></trkpt><trkpt lat="44.61619422010651" lon="10.143676929605732"><ele>363.0</ele><time>2026-03-28T14:04:20.999Z</time></trkpt><trkpt lat="44.616087370407826" lon="10.143504095192641"><ele>369.0</ele><time>2026-03-28T14:04:21.999Z</time></trkpt><trkpt lat="44.615960799093145" lon="10.14327542002217"><ele>375.0</ele><time>2026-03-28T14:04:22.999Z</time></trkpt><trkpt lat="44.615818176433315" lon="10.143036430953993"><ele>381.0</ele><time>2026-03-28T14:04:23.999Z</time></trkpt><trkpt lat="44.61571870660007" lon="10.142793124026008"><ele>381.0</ele><time>2026-03-28T14:04:24.999Z</time></trkpt><trkpt lat="44.61569364855081" lon="10.142532402446166"><ele>381.0</ele><time>2026-03-28T14:04:25.999Z</time></trkpt><trkpt lat="44.615702754454354" lon="10.142226481411182"><ele>381.0</ele><time>2026-03-28T14:04:26.999Z</time></trkpt><trkpt lat="44.615702038799824" lon="10.141883515769237"><ele>381.6666666666667</ele><time>2026-03-28T14:04:27.999Z</time></trkpt><trkpt lat="44.615721262192785" lon="10.141584531024927"><ele>382.33333333333337</ele><time>2026-03-28T14:04:28.999Z</time></trkpt><trkpt lat="44.615692664389016" lon="10.141320101044775"><ele>383.0</ele><time>2026-03-28T14:04:29.999Z</time></trkpt><trkpt lat="44.61560525127822" lon="10.141026283140661"><ele>374.0</ele><time>2026-03-28T14:04:30.999Z</time></trkpt><trkpt lat="44.61548377447332" lon="10.140691126131502"><ele>365.0</ele><time>2026-03-28T14:04:31.999Z</time></trkpt><trkpt lat="44.61538144105774" lon="10.14042916151563"><ele>371.6666666666667</ele><time>2026-03-28T14:04:32.999Z</time></trkpt><trkpt lat="44.61531752274456" lon="10.140190278880235"><ele>378.33333333333337</ele><time>2026-03-28T14:04:33.999Z</time></trkpt><trkpt lat="44.61522829777434" lon="10.139914054335176"><ele>385.0</ele><time>2026-03-28T14:04:34.999Z</time></trkpt><trkpt lat="44.61509142596285" lon="10.139550765301388"><ele>385.0</ele><time>2026-03-28T14:04:35.999Z</time></trkpt><trkpt lat="44.614930958561686" lon="10.139248302729387"><ele>385.0</ele><time>2026-03-28T14:04:36.999Z</time></trkpt><trkpt lat="44.614797067724666" lon="10.138927718610558"><ele>377.5</ele><time>2026-03-28T14:04:37.999Z</time></trkpt><trkpt lat="44.61464567963688" lon="10.138628955534323"><ele>370.0</ele><time>2026-03-28T14:04:38.999Z</time></trkpt><trkpt lat="44.614522453800426" lon="10.138340733567057"><ele>381.0</ele><time>2026-03-28T14:04:39.999Z</time></trkpt><trkpt lat="44.614411484559284" lon="10.13805638236166"><ele>392.0</ele><time>2026-03-28T14:04:40.999Z</time></trkpt><trkpt lat="44.61430176368112" lon="10.13777188512624"><ele>392.0</ele><time>2026-03-28T14:04:41.999Z</time></trkpt><trkpt lat="44.614200265361134" lon="10.13747914842815"><ele>392.0</ele><time>2026-03-28T14:04:42.999Z</time></trkpt><trkpt lat="44.61409325123456" lon="10.13719561887"><ele>382.0</ele><time>2026-03-28T14:04:43.999Z</time></trkpt><trkpt lat="44.61395211271927" lon="10.136939686498637"><ele>372.0</ele><time>2026-03-28T14:04:44.999Z</time></trkpt><trkpt lat="44.61378948198555" lon="10.136688146914233"><ele>382.5</ele><time>2026-03-28T14:04:45.999Z</time></trkpt><trkpt lat="44.61362902632965" lon="10.136426085369536"><ele>393.0</ele><time>2026-03-28T14:04:46.999Z</time></trkpt><trkpt lat="44.61349335534845" lon="10.136158031398303"><ele>393.0</ele><time>2026-03-28T14:04:47.999Z</time></trkpt><trkpt lat="44.613349252206696" lon="10.135911832161979"><ele>393.0</ele><time>2026-03-28T14:04:48.999Z</time></trkpt><trkpt lat="44.61324590739285" lon="10.135652537656659"><ele>393.0</ele><time>2026-03-28T14:04:49.999Z</time></trkpt><trkpt lat="44.61315712560848" lon="10.135412062148806"><ele>394.0</ele><time>2026-03-28T14:04:50.999Z</time></trkpt><trkpt lat="44.613050310107205" lon="10.135206652438251"><ele>395.0</ele><time>2026-03-28T14:04:51.999Z</time></trkpt><trkpt lat="44.61290121745751" lon="10.135058829536934"><ele>396.0</ele><time>2026-03-28T14:04:52.999Z</time></trkpt><trkpt lat="44.61269863176791" lon="10.134915761606214"><ele>386.5</ele><time>2026-03-28T14:04:53.999Z</time></trkpt><trkpt lat="44.61246603870841" lon="10.134771933416436"><ele>377.0</ele><time>2026-03-28T14:04:54.999Z</time></trkpt><trkpt lat="44.61225585207918" lon="10.134604836866403"><ele>377.0</ele><time>2026-03-28T14:04:55.999Z</time></trkpt><trkpt lat="44.61205197741532" lon="10.134458814157014"><ele>377.0</ele><time>2026-03-28T14:04:56.999Z</time></trkpt><trkpt lat="44.61187509528215" lon="10.134347009599429"><ele>377.0</ele><time>2026-03-28T14:04:57.999Z</time></trkpt><trkpt lat="44.611738239941076" lon="10.134180479723897"><ele>379.0</ele><time>2026-03-28T14:04:58.999Z</time></trkpt><trkpt lat="44.6116155120338" lon="10.133962121484458"><ele>381.0</ele><time>2026-03-28T14:04:59.999Z</time></trkpt><trkpt lat="44.61147682146653" lon="10.133712645135558"><ele>383.0</ele><time>2026-03-28T14:05:01Z</time></trkpt><trkpt lat="44.61134267741024" lon="10.133470028859476"><ele>380.0</ele><time>2026-03-28T14:05:02Z</time></trkpt><trkpt lat="44.61121985506688" lon="10.133217943597638"><ele>377.0</ele><time>2026-03-28T14:05:03Z</time></trkpt><trkpt lat="44.61110929580258" lon="10.132968489254857"><ele>374.0</ele><time>2026-03-28T14:05:04Z</time></trkpt><trkpt lat="44.61100204169279" lon="10.13272959171356"><ele>381.33333333333337</ele><time>2026-03-28T14:05:05Z</time></trkpt><trkpt lat="44.61089621667745" lon="10.13251310085104"><ele>388.6666666666667</ele><time>2026-03-28T14:05:06Z</time></trkpt><trkpt lat="44.61079569020776" lon="10.132303756219331"><ele>396.0</ele><time>2026-03-28T14:05:07Z</time></trkpt><trkpt lat="44.61076172021487" lon="10.132103143744667"><ele>396.0</ele><time>2026-03-28T14:05:08Z</time></trkpt><trkpt lat="44.61073216346629" lon="10.131892022212513"><ele>396.0</ele><time>2026-03-28T14:05:09Z</time></trkpt><trkpt lat="44.61075526712031" lon="10.131614536565785"><ele>396.0</ele><time>2026-03-28T14:05:10Z</time></trkpt><trkpt lat="44.61075583459091" lon="10.131352546600594"><ele>391.3333333333333</ele><time>2026-03-28T14:05:11Z</time></trkpt><trkpt lat="44.610686159402924" lon="10.131120317217523"><ele>386.66666666666663</ele><time>2026-03-28T14:05:12Z</time></trkpt><trkpt lat="44.6105532077824" lon="10.130867984274094"><ele>382.0</ele><time>2026-03-28T14:05:13Z</time></trkpt><trkpt lat="44.610395238644756" lon="10.130618088611667"><ele>388.66666666666663</ele><time>2026-03-28T14:05:14Z</time></trkpt><trkpt lat="44.6102376133012" lon="10.130393426240385"><ele>395.3333333333333</ele><time>2026-03-28T14:05:15Z</time></trkpt><trkpt lat="44.61010103721202" lon="10.130199768846078"><ele>402.0</ele><time>2026-03-28T14:05:16Z</time></trkpt><trkpt lat="44.60997664938991" lon="10.129993756704648"><ele>394.0</ele><time>2026-03-28T14:05:17Z</time></trkpt><trkpt lat="44.60982449602899" lon="10.12974465862258"><ele>386.0</ele><time>2026-03-28T14:05:18Z</time></trkpt><trkpt lat="44.60968873750192" lon="10.129534899537186"><ele>378.0</ele><time>2026-03-28T14:05:19Z</time></trkpt><trkpt lat="44.60956911816101" lon="10.129338797435288"><ele>383.33333333333337</ele><time>2026-03-28T14:05:20Z</time></trkpt><trkpt lat="44.60942274164016" lon="10.129181766108953"><ele>388.6666666666667</ele><time>2026-03-28T14:05:21Z</time></trkpt><trkpt lat="44.609247222079325" lon="10.129121435606496"><ele>394.0</ele><time>2026-03-28T14:05:22Z</time></trkpt><trkpt lat="44.609035998439886" lon="10.129156274757259"><ele>394.0</ele><time>2026-03-28T14:05:23Z</time></trkpt><trkpt lat="44.608818715144764" lon="10.129247307653298"><ele>394.0</ele><time>2026-03-28T14:05:24Z</time></trkpt><trkpt lat="44.608628737737526" lon="10.129284626769694"><ele>394.0</ele><time>2026-03-28T14:05:25Z</time></trkpt><trkpt lat="44.60842627678118" lon="10.129263746687817"><ele>393.33333333333337</ele><time>2026-03-28T14:05:26Z</time></trkpt><trkpt lat="44.608225978003055" lon="10.129234989826504"><ele>392.66666666666663</ele><time>2026-03-28T14:05:27Z</time></trkpt><trkpt lat="44.60803918884721" lon="10.129188577689018"><ele>392.0</ele><time>2026-03-28T14:05:28Z</time></trkpt><trkpt lat="44.6078958318256" lon="10.129061602191955"><ele>390.3333333333333</ele><time>2026-03-28T14:05:29Z</time></trkpt><trkpt lat="44.60777660937643" lon="10.128864004757071"><ele>388.66666666666663</ele><time>2026-03-28T14:05:30Z</time></trkpt><trkpt lat="44.607653316965695" lon="10.128640546998435"><ele>387.0</ele><time>2026-03-28T14:05:31Z</time></trkpt><trkpt lat="44.607557097014634" lon="10.128457947876631"><ele>387.0</ele><time>2026-03-28T14:05:32Z</time></trkpt><trkpt lat="44.60740937269933" lon="10.12834320481411"><ele>387.0</ele><time>2026-03-28T14:05:33Z</time></trkpt><trkpt lat="44.60720718794285" lon="10.128264675640795"><ele>387.0</ele><time>2026-03-28T14:05:34Z</time></trkpt><trkpt lat="44.60701850932533" lon="10.128181654556075"><ele>388.66666666666663</ele><time>2026-03-28T14:05:35Z</time></trkpt><trkpt lat="44.606881632805404" lon="10.128050162021903"><ele>390.3333333333333</ele><time>2026-03-28T14:05:36Z</time></trkpt><trkpt lat="44.60677002644855" lon="10.127865230190011"><ele>392.0</ele><time>2026-03-28T14:05:37Z</time></trkpt><trkpt lat="44.60668777656434" lon="10.127597262501618"><ele>390.3333333333333</ele><time>2026-03-28T14:05:38Z</time></trkpt><trkpt lat="44.60660587133637" lon="10.12733117512167"><ele>388.66666666666663</ele><time>2026-03-28T14:05:39Z</time></trkpt><trkpt lat="44.606543601544224" lon="10.127103059603554"><ele>387.0</ele><time>2026-03-28T14:05:40Z</time></trkpt><trkpt lat="44.60646823136128" lon="10.126891886080974"><ele>387.0</ele><time>2026-03-28T14:05:41Z</time></trkpt><trkpt lat="44.6063675730615" lon="10.126696751204607"><ele>387.0</ele><time>2026-03-28T14:05:42Z</time></trkpt><trkpt lat="44.606229333259066" lon="10.126520325115742"><ele>387.0</ele><time>2026-03-28T14:05:43Z</time></trkpt><trkpt lat="44.606056846608915" lon="10.1263678312561"><ele>386.66666666666663</ele><time>2026-03-28T14:05:44Z</time></trkpt><trkpt lat="44.60589425784309" lon="10.126232159989634"><ele>386.3333333333333</ele><time>2026-03-28T14:05:45Z</time></trkpt><trkpt lat="44.60573740421443" lon="10.126106210598252"><ele>386.0</ele><time>2026-03-28T14:05:46Z</time></trkpt><trkpt lat="44.60558985888994" lon="10.125984607603444"><ele>386.0</ele><time>2026-03-28T14:05:47Z</time></trkpt><trkpt lat="44.60544226152253" lon="10.125858039263274"><ele>386.0</ele><time>2026-03-28T14:05:48Z</time></trkpt><trkpt lat="44.605312470870416" lon="10.12572022317211"><ele>386.0</ele><time>2026-03-28T14:05:49Z</time></trkpt><trkpt lat="44.60516890252907" lon="10.125610822009625"><ele>386.66666666666663</ele><time>2026-03-28T14:05:50Z</time></trkpt><trkpt lat="44.60503373777582" lon="10.125487673172902"><ele>387.33333333333337</ele><time>2026-03-28T14:05:51Z</time></trkpt><trkpt lat="44.60485919260068" lon="10.125338613389331"><ele>388.0</ele><time>2026-03-28T14:05:52Z</time></trkpt><trkpt lat="44.60468698768318" lon="10.125180725262432"><ele>388.0</ele><time>2026-03-28T14:05:53Z</time></trkpt><trkpt lat="44.60457827716529" lon="10.125084170965966"><ele>388.0</ele><time>2026-03-28T14:05:54Z</time></trkpt><trkpt lat="44.604509252081236" lon="10.125027942835"><ele>388.0</ele><time>2026-03-28T14:05:55Z</time></trkpt><trkpt lat="44.60439857541606" lon="10.124929802321956"><ele>388.0</ele><time>2026-03-28T14:05:56Z</time></trkpt><trkpt lat="44.60427323423106" lon="10.124817972853698"><ele>389.25</ele><time>2026-03-28T14:05:57Z</time></trkpt><trkpt lat="44.604158900352694" lon="10.124716796328391"><ele>390.5</ele><time>2026-03-28T14:05:58Z</time></trkpt><trkpt lat="44.60403219466824" lon="10.124608595650267"><ele>391.75</ele><time>2026-03-28T14:05:59Z</time></trkpt><trkpt lat="44.603909034335054" lon="10.124501617394788"><ele>393.0</ele><time>2026-03-28T14:06:00Z</time></trkpt><trkpt lat="44.60378356840483" lon="10.124382170841848"><ele>393.66666666666663</ele><time>2026-03-28T14:06:01Z</time></trkpt><trkpt lat="44.603654693219376" lon="10.124270090685831"><ele>394.3333333333333</ele><time>2026-03-28T14:06:02Z</time></trkpt><trkpt lat="44.603537677491055" lon="10.124136372262944"><ele>395.0</ele><time>2026-03-28T14:06:03Z</time></trkpt><trkpt lat="44.6034042167027" lon="10.124040499075251"><ele>395.0</ele><time>2026-03-28T14:06:04Z</time></trkpt><trkpt lat="44.603277348193565" lon="10.123924719243925"><ele>395.0</ele><time>2026-03-28T14:06:05Z</time></trkpt><trkpt lat="44.603149741882774" lon="10.123812237586048"><ele>395.0</ele><time>2026-03-28T14:06:06Z</time></trkpt><trkpt lat="44.60302581330249" lon="10.123700679371767"><ele>395.0</ele><time>2026-03-28T14:06:07Z</time></trkpt><trkpt lat="44.602909838977936" lon="10.123591936437622"><ele>394.75</ele><time>2026-03-28T14:06:08Z</time></trkpt><trkpt lat="44.60279902827601" lon="10.123494815265227"><ele>394.5</ele><time>2026-03-28T14:06:09Z</time></trkpt><trkpt lat="44.60268887486618" lon="10.123400787195038"><ele>394.25</ele><time>2026-03-28T14:06:10Z</time></trkpt><trkpt lat="44.60258718094996" lon="10.123303968638293"><ele>394.0</ele><time>2026-03-28T14:06:11Z</time></trkpt><trkpt lat="44.60249001091403" lon="10.123222519343424"><ele>394.0</ele><time>2026-03-28T14:06:12Z</time></trkpt><trkpt lat="44.60238214815836" lon="10.123130333975494"><ele>394.0</ele><time>2026-03-28T14:06:13Z</time></trkpt><trkpt lat="44.60227306910017" lon="10.123034071058783"><ele>394.0</ele><time>2026-03-28T14:06:14Z</time></trkpt><trkpt lat="44.60216556669533" lon="10.122936632743142"><ele>394.0</ele><time>2026-03-28T14:06:15Z</time></trkpt><trkpt lat="44.60205676937929" lon="10.122829810456263"><ele>394.75</ele><time>2026-03-28T14:06:16Z</time></trkpt><trkpt lat="44.60194734311732" lon="10.122724493413067"><ele>395.5</ele><time>2026-03-28T14:06:17Z</time></trkpt><trkpt lat="44.60183297670641" lon="10.122630262976177"><ele>396.25</ele><time>2026-03-28T14:06:17.999Z</time></trkpt><trkpt lat="44.601724155428315" lon="10.122536120195278"><ele>397.0</ele><time>2026-03-28T14:06:18.999Z</time></trkpt><trkpt lat="44.60161283108077" lon="10.122437579367915"><ele>396.75</ele><time>2026-03-28T14:06:19.999Z</time></trkpt><trkpt lat="44.6015055685681" lon="10.122339125011445"><ele>396.5</ele><time>2026-03-28T14:06:20.999Z</time></trkpt><trkpt lat="44.60140562225049" lon="10.122235660433022"><ele>396.25</ele><time>2026-03-28T14:06:21.999Z</time></trkpt><trkpt lat="44.60130807981153" lon="10.122131204204905"><ele>396.0</ele><time>2026-03-28T14:06:22.999Z</time></trkpt><trkpt lat="44.60122027397003" lon="10.122023771472692"><ele>396.6666666666667</ele><time>2026-03-28T14:06:23.999Z</time></trkpt><trkpt lat="44.60114912602398" lon="10.121916651325737"><ele>397.33333333333337</ele><time>2026-03-28T14:06:24.999Z</time></trkpt><trkpt lat="44.601102608645384" lon="10.121811217934397"><ele>398.0</ele><time>2026-03-28T14:06:25.999Z</time></trkpt><trkpt lat="44.601081554030245" lon="10.121720618898035"><ele>398.6666666666667</ele><time>2026-03-28T14:06:26.999Z</time></trkpt><trkpt lat="44.60107650442823" lon="10.121581822844615"><ele>399.33333333333337</ele><time>2026-03-28T14:06:28.999Z</time></trkpt><trkpt lat="44.60110135020813" lon="10.12146140144717"><ele>400.0</ele><time>2026-03-28T14:06:30.999Z</time></trkpt><trkpt lat="44.60109819548238" lon="10.121345790032501"><ele>400.0</ele><time>2026-03-28T14:06:31.999Z</time></trkpt><trkpt lat="44.60111637766587" lon="10.121256487713763"><ele>400.0</ele><time>2026-03-28T14:06:32.999Z</time></trkpt><trkpt lat="44.60097313527953" lon="10.121225130789073"><ele>400.0</ele><time>2026-03-28T14:06:33.999Z</time></trkpt><trkpt lat="44.600896327874665" lon="10.121219850134686"><ele>400.0</ele><time>2026-03-28T14:06:34.999Z</time></trkpt><trkpt lat="44.60082389794686" lon="10.121055826638939"><ele>400.0</ele><time>2026-03-28T14:06:36.999Z</time></trkpt><trkpt lat="44.600783525104404" lon="10.120928054355593"><ele>400.0</ele><time>2026-03-28T14:06:37.999Z</time></trkpt><trkpt lat="44.60071907880476" lon="10.12078615765343"><ele>400.0</ele><time>2026-03-28T14:06:38.999Z</time></trkpt><trkpt lat="44.60063370672371" lon="10.120647240417217"><ele>400.0</ele><time>2026-03-28T14:06:39.999Z</time></trkpt><trkpt lat="44.600532363676386" lon="10.120537977126423"><ele>400.0</ele><time>2026-03-28T14:06:40.999Z</time></trkpt><trkpt lat="44.600410181084825" lon="10.12043848707672"><ele>400.0</ele><time>2026-03-28T14:06:41.999Z</time></trkpt><trkpt lat="44.60027622990652" lon="10.120367358796372"><ele>400.0</ele><time>2026-03-28T14:06:42.999Z</time></trkpt><trkpt lat="44.60011756498213" lon="10.120321725218188"><ele>400.0</ele><time>2026-03-28T14:06:43.999Z</time></trkpt><trkpt lat="44.59995451961188" lon="10.120273016730803"><ele>400.0</ele><time>2026-03-28T14:06:44.999Z</time></trkpt><trkpt lat="44.599808454834786" lon="10.120215848657095"><ele>400.0</ele><time>2026-03-28T14:06:45.999Z</time></trkpt><trkpt lat="44.599673642455755" lon="10.120168320037067"><ele>400.0</ele><time>2026-03-28T14:06:46.999Z</time></trkpt><trkpt lat="44.59953432051322" lon="10.120112764070683"><ele>400.0</ele><time>2026-03-28T14:06:47.999Z</time></trkpt><trkpt lat="44.599393193885426" lon="10.120065722083755"><ele>400.25</ele><time>2026-03-28T14:06:48.999Z</time></trkpt><trkpt lat="44.5992595987859" lon="10.120021266261467"><ele>400.5</ele><time>2026-03-28T14:06:49.999Z</time></trkpt><trkpt lat="44.599116820396084" lon="10.119972538902466"><ele>400.75</ele><time>2026-03-28T14:06:50.999Z</time></trkpt><trkpt lat="44.59896466039068" lon="10.119913042030893"><ele>401.0</ele><time>2026-03-28T14:06:51.999Z</time></trkpt><trkpt lat="44.59880972163547" lon="10.119849073462992"><ele>401.66666666666663</ele><time>2026-03-28T14:06:52.999Z</time></trkpt><trkpt lat="44.598636153830775" lon="10.119791282415276"><ele>402.33333333333337</ele><time>2026-03-28T14:06:53.999Z</time></trkpt><trkpt lat="44.5984672891116" lon="10.11972531196228"><ele>403.0</ele><time>2026-03-28T14:06:54.999Z</time></trkpt><trkpt lat="44.598300042460856" lon="10.119657586787987"><ele>403.0</ele><time>2026-03-28T14:06:55.999Z</time></trkpt><trkpt lat="44.59813571164354" lon="10.119595149480418"><ele>403.0</ele><time>2026-03-28T14:06:56.999Z</time></trkpt><trkpt lat="44.59796694276299" lon="10.1195380264607"><ele>403.0</ele><time>2026-03-28T14:06:57.999Z</time></trkpt><trkpt lat="44.597795560737126" lon="10.119480452676965"><ele>405.6666666666667</ele><time>2026-03-28T14:06:58.999Z</time></trkpt><trkpt lat="44.597626117279134" lon="10.119416173429704"><ele>408.33333333333337</ele><time>2026-03-28T14:06:59.999Z</time></trkpt><trkpt lat="44.59745245407599" lon="10.119352054276558"><ele>411.0</ele><time>2026-03-28T14:07:00.999Z</time></trkpt><trkpt lat="44.59728004903224" lon="10.119289458057704"><ele>411.0</ele><time>2026-03-28T14:07:01.999Z</time></trkpt><trkpt lat="44.597115553098774" lon="10.11922599212391"><ele>411.0</ele><time>2026-03-28T14:07:02.999Z</time></trkpt><trkpt lat="44.596949228550656" lon="10.119161499724337"><ele>411.0</ele><time>2026-03-28T14:07:03.999Z</time></trkpt><trkpt lat="44.59677994114818" lon="10.119100850372682"><ele>412.0</ele><time>2026-03-28T14:07:04.999Z</time></trkpt><trkpt lat="44.596622728587555" lon="10.119039245618767"><ele>413.0</ele><time>2026-03-28T14:07:05.999Z</time></trkpt><trkpt lat="44.59647498126577" lon="10.118978039677017"><ele>414.0</ele><time>2026-03-28T14:07:07Z</time></trkpt><trkpt lat="44.59631940663159" lon="10.118919954488568"><ele>414.0</ele><time>2026-03-28T14:07:08Z</time></trkpt><trkpt lat="44.59617239707975" lon="10.118861363511082"><ele>414.0</ele><time>2026-03-28T14:07:09Z</time></trkpt><trkpt lat="44.59601074956479" lon="10.118793473756192"><ele>414.0</ele><time>2026-03-28T14:07:10Z</time></trkpt><trkpt lat="44.595848485490095" lon="10.118735568199778"><ele>416.0</ele><time>2026-03-28T14:07:11Z</time></trkpt><trkpt lat="44.595676980996444" lon="10.118664178987899"><ele>418.0</ele><time>2026-03-28T14:07:12Z</time></trkpt><trkpt lat="44.59551298953711" lon="10.118605409293622"><ele>420.0</ele><time>2026-03-28T14:07:13Z</time></trkpt><trkpt lat="44.59540878362684" lon="10.118569137604979"><ele>422.33333333333337</ele><time>2026-03-28T14:07:14Z</time></trkpt><trkpt lat="44.5952583918426" lon="10.118516789562426"><ele>424.6666666666667</ele><time>2026-03-28T14:07:15Z</time></trkpt><trkpt lat="44.59509145439293" lon="10.118476114103814"><ele>427.0</ele><time>2026-03-28T14:07:16Z</time></trkpt><trkpt lat="44.594924935463574" lon="10.118408785831505"><ele>427.0</ele><time>2026-03-28T14:07:17Z</time></trkpt><trkpt lat="44.59475120698512" lon="10.11834507779408"><ele>427.0</ele><time>2026-03-28T14:07:18Z</time></trkpt><trkpt lat="44.59457473736802" lon="10.118277470293284"><ele>427.0</ele><time>2026-03-28T14:07:19Z</time></trkpt><trkpt lat="44.5944067929055" lon="10.118215528361766"><ele>424.6666666666667</ele><time>2026-03-28T14:07:20Z</time></trkpt><trkpt lat="44.59423760648454" lon="10.118157931073986"><ele>422.33333333333337</ele><time>2026-03-28T14:07:21Z</time></trkpt><trkpt lat="44.59406206238829" lon="10.118093240261938"><ele>420.0</ele><time>2026-03-28T14:07:22Z</time></trkpt><trkpt lat="44.59388978268346" lon="10.117969616861412"><ele>420.0</ele><time>2026-03-28T14:07:23Z</time></trkpt><trkpt lat="44.59371312761696" lon="10.117824788215126"><ele>420.0</ele><time>2026-03-28T14:07:24Z</time></trkpt><trkpt lat="44.593534291409455" lon="10.117696342670298"><ele>420.0</ele><time>2026-03-28T14:07:25Z</time></trkpt><trkpt lat="44.593348500038275" lon="10.117542087065363"><ele>420.0</ele><time>2026-03-28T14:07:26Z</time></trkpt><trkpt lat="44.59315538045836" lon="10.117382465874023"><ele>420.0</ele><time>2026-03-28T14:07:27Z</time></trkpt><trkpt lat="44.5929646507055" lon="10.11723484502641"><ele>420.0</ele><time>2026-03-28T14:07:28Z</time></trkpt><trkpt lat="44.59278250010888" lon="10.117060136791189"><ele>420.0</ele><time>2026-03-28T14:07:29Z</time></trkpt><trkpt lat="44.592588225748315" lon="10.116900228758624"><ele>420.0</ele><time>2026-03-28T14:07:30Z</time></trkpt><trkpt lat="44.5923864827282" lon="10.116756955764593"><ele>420.0</ele><time>2026-03-28T14:07:31Z</time></trkpt><trkpt lat="44.59219469961703" lon="10.116593653382681"><ele>420.0</ele><time>2026-03-28T14:07:32Z</time></trkpt><trkpt lat="44.592005763971045" lon="10.116442150674722"><ele>420.0</ele><time>2026-03-28T14:07:33Z</time></trkpt><trkpt lat="44.591813727022284" lon="10.116288289682792"><ele>422.66666666666663</ele><time>2026-03-28T14:07:34Z</time></trkpt><trkpt lat="44.59163121752848" lon="10.116136254253318"><ele>425.3333333333333</ele><time>2026-03-28T14:07:35Z</time></trkpt><trkpt lat="44.5914578284513" lon="10.11598662571911"><ele>428.0</ele><time>2026-03-28T14:07:36Z</time></trkpt><trkpt lat="44.59128213782756" lon="10.115850473775408"><ele>432.66666666666663</ele><time>2026-03-28T14:07:37Z</time></trkpt><trkpt lat="44.59112504227291" lon="10.115697890045885"><ele>437.33333333333337</ele><time>2026-03-28T14:07:38Z</time></trkpt><trkpt lat="44.59098080449341" lon="10.115593488433863"><ele>442.0</ele><time>2026-03-28T14:07:39Z</time></trkpt><trkpt lat="44.59089499640811" lon="10.11545014098962"><ele>442.0</ele><time>2026-03-28T14:07:40Z</time></trkpt><trkpt lat="44.590825854807136" lon="10.115292055290507"><ele>442.0</ele><time>2026-03-28T14:07:41Z</time></trkpt><trkpt lat="44.59080082006866" lon="10.115093289264518"><ele>442.0</ele><time>2026-03-28T14:07:42Z</time></trkpt><trkpt lat="44.59080055214526" lon="10.114883288234797"><ele>442.0</ele><time>2026-03-28T14:07:43Z</time></trkpt><trkpt lat="44.59082270624608" lon="10.114660714065362"><ele>444.33333333333337</ele><time>2026-03-28T14:07:44Z</time></trkpt><trkpt lat="44.59087524155894" lon="10.114419010623864"><ele>446.66666666666663</ele><time>2026-03-28T14:07:45Z</time></trkpt><trkpt lat="44.590920104327225" lon="10.114172222351247"><ele>449.0</ele><time>2026-03-28T14:07:46Z</time></trkpt><trkpt lat="44.590956526732505" lon="10.113965429658924"><ele>449.0</ele><time>2026-03-28T14:07:47Z</time></trkpt><trkpt lat="44.59098700840588" lon="10.113781758935852"><ele>449.0</ele><time>2026-03-28T14:07:48Z</time></trkpt><trkpt lat="44.59101332244963" lon="10.11360737198943"><ele>449.0</ele><time>2026-03-28T14:07:49Z</time></trkpt><trkpt lat="44.59102269012898" lon="10.113447877914144"><ele>449.0</ele><time>2026-03-28T14:07:50Z</time></trkpt><trkpt lat="44.59100178153591" lon="10.113301001462766"><ele>444.75</ele><time>2026-03-28T14:07:51Z</time></trkpt><trkpt lat="44.59094174987396" lon="10.113155008793692"><ele>440.5</ele><time>2026-03-28T14:07:52Z</time></trkpt><trkpt lat="44.5908799301064" lon="10.112999504154777"><ele>436.25</ele><time>2026-03-28T14:07:53Z</time></trkpt><trkpt lat="44.59082324928063" lon="10.11286545928367"><ele>432.0</ele><time>2026-03-28T14:07:54Z</time></trkpt><trkpt lat="44.590732299464555" lon="10.112714635846206"><ele>432.0</ele><time>2026-03-28T14:07:55Z</time></trkpt><trkpt lat="44.59058769309301" lon="10.112561676416352"><ele>432.0</ele><time>2026-03-28T14:07:56Z</time></trkpt><trkpt lat="44.59043965938603" lon="10.11236446883111"><ele>432.0</ele><time>2026-03-28T14:07:57Z</time></trkpt><trkpt lat="44.59028496426296" lon="10.112215320781074"><ele>440.33333333333337</ele><time>2026-03-28T14:07:58Z</time></trkpt><trkpt lat="44.59015812471165" lon="10.112025171367161"><ele>448.6666666666667</ele><time>2026-03-28T14:07:59Z</time></trkpt><trkpt lat="44.59002749602856" lon="10.111821032115078"><ele>457.0</ele><time>2026-03-28T14:08:00Z</time></trkpt><trkpt lat="44.58991652910942" lon="10.111582806811887"><ele>451.6666666666667</ele><time>2026-03-28T14:08:01Z</time></trkpt><trkpt lat="44.589810652289145" lon="10.111324934336198"><ele>446.33333333333337</ele><time>2026-03-28T14:08:02Z</time></trkpt><trkpt lat="44.58968702746081" lon="10.111081126604413"><ele>441.0</ele><time>2026-03-28T14:08:03Z</time></trkpt><trkpt lat="44.58954293846429" lon="10.110841372272464"><ele>452.66666666666663</ele><time>2026-03-28T14:08:04Z</time></trkpt><trkpt lat="44.589426405958605" lon="10.110619089834953"><ele>464.3333333333333</ele><time>2026-03-28T14:08:05Z</time></trkpt><trkpt lat="44.589358254984425" lon="10.110336856970175"><ele>476.0</ele><time>2026-03-28T14:08:06Z</time></trkpt><trkpt lat="44.58928558624522" lon="10.110082138227352"><ele>473.25</ele><time>2026-03-28T14:08:07Z</time></trkpt><trkpt lat="44.58921227093315" lon="10.109868371891558"><ele>470.5</ele><time>2026-03-28T14:08:08Z</time></trkpt><trkpt lat="44.589168589239456" lon="10.109697897558481"><ele>467.75</ele><time>2026-03-28T14:08:09Z</time></trkpt><trkpt lat="44.58912038539976" lon="10.109514649577468"><ele>465.0</ele><time>2026-03-28T14:08:10Z</time></trkpt><trkpt lat="44.58907040384075" lon="10.109322381591978"><ele>465.0</ele><time>2026-03-28T14:08:11Z</time></trkpt><trkpt lat="44.589019505736346" lon="10.109110761370662"><ele>465.0</ele><time>2026-03-28T14:08:12Z</time></trkpt><trkpt lat="44.58897188040039" lon="10.108905233179662"><ele>465.0</ele><time>2026-03-28T14:08:13Z</time></trkpt><trkpt lat="44.5889181655415" lon="10.108679741472907"><ele>467.25</ele><time>2026-03-28T14:08:14Z</time></trkpt><trkpt lat="44.58887275774428" lon="10.108479145300294"><ele>469.5</ele><time>2026-03-28T14:08:15Z</time></trkpt><trkpt lat="44.588804083296004" lon="10.108344865342369"><ele>471.75</ele><time>2026-03-28T14:08:16Z</time></trkpt><trkpt lat="44.58868854891769" lon="10.10825463272535"><ele>474.0</ele><time>2026-03-28T14:08:17Z</time></trkpt><trkpt lat="44.58853353023824" lon="10.10821897516334"><ele>474.0</ele><time>2026-03-28T14:08:18Z</time></trkpt><trkpt lat="44.58838703620771" lon="10.108210895691975"><ele>474.0</ele><time>2026-03-28T14:08:19Z</time></trkpt><trkpt lat="44.58828907076886" lon="10.108129438213954"><ele>474.0</ele><time>2026-03-28T14:08:20Z</time></trkpt><trkpt lat="44.58823361238083" lon="10.10801309173992"><ele>474.0</ele><time>2026-03-28T14:08:21Z</time></trkpt><trkpt lat="44.58821089819235" lon="10.107836304942056"><ele>474.0</ele><time>2026-03-28T14:08:21.999Z</time></trkpt><trkpt lat="44.58819985078771" lon="10.107619720220807"><ele>474.0</ele><time>2026-03-28T14:08:22.999Z</time></trkpt><trkpt lat="44.58824191260489" lon="10.107460457136787"><ele>474.0</ele><time>2026-03-28T14:08:23.999Z</time></trkpt><trkpt lat="44.58833722676054" lon="10.107317474377398"><ele>474.0</ele><time>2026-03-28T14:08:24.999Z</time></trkpt><trkpt lat="44.58838794592704" lon="10.1071880446529"><ele>470.25</ele><time>2026-03-28T14:08:25.999Z</time></trkpt><trkpt lat="44.5883708807081" lon="10.107059214877523"><ele>466.5</ele><time>2026-03-28T14:08:26.999Z</time></trkpt><trkpt lat="44.58828118928964" lon="10.106914687323192"><ele>462.75</ele><time>2026-03-28T14:08:27.999Z</time></trkpt><trkpt lat="44.588141984916334" lon="10.106804480486566"><ele>459.0</ele><time>2026-03-28T14:08:28.999Z</time></trkpt><trkpt lat="44.58797692376263" lon="10.106684282479154"><ele>453.66666666666663</ele><time>2026-03-28T14:08:29.999Z</time></trkpt><trkpt lat="44.58786456838868" lon="10.106487515486489"><ele>448.3333333333333</ele><time>2026-03-28T14:08:30.999Z</time></trkpt><trkpt lat="44.58774704022555" lon="10.106280413151525"><ele>443.0</ele><time>2026-03-28T14:08:31.999Z</time></trkpt><trkpt lat="44.58766084849907" lon="10.106060913181748"><ele>455.0</ele><time>2026-03-28T14:08:32.999Z</time></trkpt><trkpt lat="44.58761012616376" lon="10.105856904975097"><ele>467.0</ele><time>2026-03-28T14:08:33.999Z</time></trkpt><trkpt lat="44.58748622405821" lon="10.105557959667408"><ele>479.0</ele><time>2026-03-28T14:08:34.999Z</time></trkpt><trkpt lat="44.58739708491752" lon="10.105367366646705"><ele>479.0</ele><time>2026-03-28T14:08:35.999Z</time></trkpt><trkpt lat="44.58732753478883" lon="10.10515718236955"><ele>479.0</ele><time>2026-03-28T14:08:36.999Z</time></trkpt><trkpt lat="44.58732541752008" lon="10.104977651749206"><ele>479.0</ele><time>2026-03-28T14:08:37.999Z</time></trkpt><trkpt lat="44.587347288674984" lon="10.104803506433145"><ele>479.0</ele><time>2026-03-28T14:08:38.999Z</time></trkpt><trkpt lat="44.58735928663011" lon="10.104599573299119"><ele>473.25</ele><time>2026-03-28T14:08:39.999Z</time></trkpt><trkpt lat="44.587311846418906" lon="10.104448036209885"><ele>467.5</ele><time>2026-03-28T14:08:40.999Z</time></trkpt><trkpt lat="44.58722867301875" lon="10.104322794272885"><ele>461.75</ele><time>2026-03-28T14:08:41.999Z</time></trkpt><trkpt lat="44.58707057392196" lon="10.104218009048925"><ele>456.0</ele><time>2026-03-28T14:08:42.999Z</time></trkpt><trkpt lat="44.58688254902477" lon="10.104122599891081"><ele>464.0</ele><time>2026-03-28T14:08:43.999Z</time></trkpt><trkpt lat="44.586731052889085" lon="10.1040456172395"><ele>472.0</ele><time>2026-03-28T14:08:44.999Z</time></trkpt><trkpt lat="44.58663112260468" lon="10.103925981250006"><ele>480.0</ele><time>2026-03-28T14:08:45.999Z</time></trkpt><trkpt lat="44.586598059201634" lon="10.103779992196332"><ele>488.0</ele><time>2026-03-28T14:08:46.999Z</time></trkpt><trkpt lat="44.58659241612457" lon="10.10358966812961"><ele>488.0</ele><time>2026-03-28T14:08:47.999Z</time></trkpt><trkpt lat="44.586580256097236" lon="10.103316813996734"><ele>488.0</ele><time>2026-03-28T14:08:48.999Z</time></trkpt><trkpt lat="44.586567523789284" lon="10.103029383378434"><ele>488.0</ele><time>2026-03-28T14:08:49.999Z</time></trkpt><trkpt lat="44.58653024552294" lon="10.102786944282327"><ele>484.0</ele><time>2026-03-28T14:08:50.999Z</time></trkpt><trkpt lat="44.58649205424431" lon="10.10257018127473"><ele>480.0</ele><time>2026-03-28T14:08:51.999Z</time></trkpt><trkpt lat="44.58640600438336" lon="10.102333635800662"><ele>476.0</ele><time>2026-03-28T14:08:52.999Z</time></trkpt><trkpt lat="44.58635727675939" lon="10.102078537781669"><ele>473.3333333333333</ele><time>2026-03-28T14:08:53.999Z</time></trkpt><trkpt lat="44.58631260794837" lon="10.101820056939971"><ele>470.66666666666663</ele><time>2026-03-28T14:08:54.999Z</time></trkpt><trkpt lat="44.58627668086541" lon="10.101551029442799"><ele>468.0</ele><time>2026-03-28T14:08:55.999Z</time></trkpt><trkpt lat="44.58627596314757" lon="10.101314709346"><ele>468.0</ele><time>2026-03-28T14:08:56.999Z</time></trkpt><trkpt lat="44.58629428510437" lon="10.101025401086485"><ele>468.0</ele><time>2026-03-28T14:08:57.999Z</time></trkpt><trkpt lat="44.586316321584924" lon="10.100704377035902"><ele>468.0</ele><time>2026-03-28T14:08:58.999Z</time></trkpt><trkpt lat="44.5863337780926" lon="10.100392862286864"><ele>473.0</ele><time>2026-03-28T14:08:59.999Z</time></trkpt><trkpt lat="44.586345354871646" lon="10.100100456467063"><ele>478.0</ele><time>2026-03-28T14:09:00.999Z</time></trkpt><trkpt lat="44.58635355506711" lon="10.099824481445346"><ele>483.0</ele><time>2026-03-28T14:09:01.999Z</time></trkpt><trkpt lat="44.58635871481109" lon="10.099566332881482"><ele>488.0</ele><time>2026-03-28T14:09:02.999Z</time></trkpt><trkpt lat="44.58636449637628" lon="10.099305600256486"><ele>493.0</ele><time>2026-03-28T14:09:03.999Z</time></trkpt><trkpt lat="44.58638834576779" lon="10.099074177146797"><ele>498.0</ele><time>2026-03-28T14:09:04.999Z</time></trkpt><trkpt lat="44.58645361310349" lon="10.098845768639743"><ele>506.66666666666663</ele><time>2026-03-28T14:09:05.999Z</time></trkpt><trkpt lat="44.58658104488895" lon="10.098632100332345"><ele>515.3333333333333</ele><time>2026-03-28T14:09:06.999Z</time></trkpt><trkpt lat="44.586707767359165" lon="10.098357870004065"><ele>524.0</ele><time>2026-03-28T14:09:07.999Z</time></trkpt><trkpt lat="44.586820933755554" lon="10.098090121670195"><ele>517.6666666666666</ele><time>2026-03-28T14:09:08.999Z</time></trkpt><trkpt lat="44.586962664240176" lon="10.09785603200154"><ele>511.33333333333337</ele><time>2026-03-28T14:09:09.999Z</time></trkpt><trkpt lat="44.58709969842407" lon="10.097644547267608"><ele>505.0</ele><time>2026-03-28T14:09:10.999Z</time></trkpt><trkpt lat="44.5872172612948" lon="10.097446109213514"><ele>513.0</ele><time>2026-03-28T14:09:11.999Z</time></trkpt><trkpt lat="44.58733084138782" lon="10.097252872548335"><ele>521.0</ele><time>2026-03-28T14:09:13Z</time></trkpt><trkpt lat="44.58742318812481" lon="10.09702361177872"><ele>529.0</ele><time>2026-03-28T14:09:14Z</time></trkpt><trkpt lat="44.58751266193531" lon="10.096754783334946"><ele>526.3333333333334</ele><time>2026-03-28T14:09:15Z</time></trkpt><trkpt lat="44.58760774935525" lon="10.096512590024478"><ele>523.6666666666666</ele><time>2026-03-28T14:09:16Z</time></trkpt><trkpt lat="44.58774717354216" lon="10.09632579099421"><ele>521.0</ele><time>2026-03-28T14:09:17Z</time></trkpt><trkpt lat="44.58787313943707" lon="10.096147984754005"><ele>515.4</ele><time>2026-03-28T14:09:18Z</time></trkpt><trkpt lat="44.58798037518135" lon="10.096030019090575"><ele>509.8</ele><time>2026-03-28T14:09:19Z</time></trkpt><trkpt lat="44.588020522163596" lon="10.09591158278556"><ele>504.19999999999993</ele><time>2026-03-28T14:09:20Z</time></trkpt><trkpt lat="44.588020201294476" lon="10.095778726860003"><ele>498.59999999999997</ele><time>2026-03-28T14:09:21Z</time></trkpt><trkpt lat="44.587966607310506" lon="10.095637576135275"><ele>493.0</ele><time>2026-03-28T14:09:22Z</time></trkpt><trkpt lat="44.587865740496596" lon="10.09554470300007"><ele>490.5</ele><time>2026-03-28T14:09:23Z</time></trkpt><trkpt lat="44.58773788520611" lon="10.095528098568533"><ele>488.0</ele><time>2026-03-28T14:09:24Z</time></trkpt><trkpt lat="44.58760305400051" lon="10.095594804516482"><ele>485.5</ele><time>2026-03-28T14:09:25Z</time></trkpt><trkpt lat="44.587456403" lon="10.095695703587186"><ele>483.0</ele><time>2026-03-28T14:09:26Z</time></trkpt><trkpt lat="44.58732756250744" lon="10.095859322055746"><ele>493.33333333333337</ele><time>2026-03-28T14:09:27Z</time></trkpt><trkpt lat="44.5872088320804" lon="10.096038907177345"><ele>503.6666666666667</ele><time>2026-03-28T14:09:28Z</time></trkpt><trkpt lat="44.587078973829584" lon="10.09614513860597"><ele>514.0</ele><time>2026-03-28T14:09:29Z</time></trkpt><trkpt lat="44.586946895245404" lon="10.09620265222038"><ele>514.0</ele><time>2026-03-28T14:09:30Z</time></trkpt><trkpt lat="44.586783852254555" lon="10.096217455147105"><ele>514.0</ele><time>2026-03-28T14:09:31Z</time></trkpt><trkpt lat="44.586596886464065" lon="10.096252870481257"><ele>514.0</ele><time>2026-03-28T14:09:32Z</time></trkpt><trkpt lat="44.58642866447038" lon="10.096334675289793"><ele>514.0</ele><time>2026-03-28T14:09:33Z</time></trkpt><trkpt lat="44.586261261286836" lon="10.096471365385066"><ele>514.0</ele><time>2026-03-28T14:09:34Z</time></trkpt><trkpt lat="44.586081683886675" lon="10.096504152862886"><ele>514.0</ele><time>2026-03-28T14:09:35Z</time></trkpt><trkpt lat="44.58593545734815" lon="10.096584087970415"><ele>521.0</ele><time>2026-03-28T14:09:36Z</time></trkpt><trkpt lat="44.58581075437483" lon="10.096702058842851"><ele>528.0</ele><time>2026-03-28T14:09:37Z</time></trkpt><trkpt lat="44.58569706743677" lon="10.096869756304834"><ele>535.0</ele><time>2026-03-28T14:09:38Z</time></trkpt><trkpt lat="44.58553390477063" lon="10.096905156862839"><ele>535.0</ele><time>2026-03-28T14:09:39Z</time></trkpt><trkpt lat="44.58534763586551" lon="10.096934918081535"><ele>535.0</ele><time>2026-03-28T14:09:40Z</time></trkpt><trkpt lat="44.585176746267884" lon="10.096985140911464"><ele>535.0</ele><time>2026-03-28T14:09:41Z</time></trkpt><trkpt lat="44.58505364396042" lon="10.096983580429026"><ele>534.25</ele><time>2026-03-28T14:09:42Z</time></trkpt><trkpt lat="44.58496254280334" lon="10.096967683774826"><ele>533.5</ele><time>2026-03-28T14:09:43Z</time></trkpt><trkpt lat="44.58487548755213" lon="10.096868973711718"><ele>532.75</ele><time>2026-03-28T14:09:44Z</time></trkpt><trkpt lat="44.58479049494243" lon="10.096725895675265"><ele>532.0</ele><time>2026-03-28T14:09:45Z</time></trkpt><trkpt lat="44.58478074824614" lon="10.096474563400966"><ele>532.0</ele><time>2026-03-28T14:09:46Z</time></trkpt><trkpt lat="44.58475483307925" lon="10.096227578701777"><ele>532.0</ele><time>2026-03-28T14:09:47Z</time></trkpt><trkpt lat="44.58474083073462" lon="10.095986829981701"><ele>532.0</ele><time>2026-03-28T14:09:48Z</time></trkpt><trkpt lat="44.58470733314732" lon="10.095798400148432"><ele>535.6666666666667</ele><time>2026-03-28T14:09:49Z</time></trkpt><trkpt lat="44.58464613539826" lon="10.095646823156923"><ele>539.3333333333334</ele><time>2026-03-28T14:09:50Z</time></trkpt><trkpt lat="44.584538123110825" lon="10.095480903979372"><ele>543.0</ele><time>2026-03-28T14:09:51Z</time></trkpt><trkpt lat="44.58440592812877" lon="10.095290701264341"><ele>543.0</ele><time>2026-03-28T14:09:52Z</time></trkpt><trkpt lat="44.58428423779887" lon="10.095100507098428"><ele>543.0</ele><time>2026-03-28T14:09:53Z</time></trkpt><trkpt lat="44.584184447213985" lon="10.094936536099127"><ele>543.0</ele><time>2026-03-28T14:09:54Z</time></trkpt><trkpt lat="44.584137607519054" lon="10.094779933517644"><ele>550.25</ele><time>2026-03-28T14:09:55Z</time></trkpt><trkpt lat="44.58412052238997" lon="10.094631830785483"><ele>557.5</ele><time>2026-03-28T14:09:56Z</time></trkpt><trkpt lat="44.584158537150806" lon="10.094484771234653"><ele>564.75</ele><time>2026-03-28T14:09:57Z</time></trkpt><trkpt lat="44.584235783600064" lon="10.094338362379885"><ele>572.0</ele><time>2026-03-28T14:09:58Z</time></trkpt><trkpt lat="44.58436337902272" lon="10.094220499953956"><ele>572.0</ele><time>2026-03-28T14:09:59Z</time></trkpt><trkpt lat="44.584498965106555" lon="10.094093229416606"><ele>572.0</ele><time>2026-03-28T14:10:00Z</time></trkpt><trkpt lat="44.58465510160312" lon="10.094010975412482"><ele>572.0</ele><time>2026-03-28T14:10:01Z</time></trkpt><trkpt lat="44.58482610122525" lon="10.093962558568604"><ele>574.25</ele><time>2026-03-28T14:10:02Z</time></trkpt><trkpt lat="44.58499469827049" lon="10.093959189395692"><ele>576.5</ele><time>2026-03-28T14:10:03Z</time></trkpt><trkpt lat="44.58513649454687" lon="10.093938094304685"><ele>578.75</ele><time>2026-03-28T14:10:04Z</time></trkpt><trkpt lat="44.58524568244793" lon="10.093949113663681"><ele>581.0</ele><time>2026-03-28T14:10:05Z</time></trkpt><trkpt lat="44.58532831215939" lon="10.09389587681311"><ele>568.3333333333333</ele><time>2026-03-28T14:10:06Z</time></trkpt><trkpt lat="44.585389149739" lon="10.09375586579795"><ele>555.6666666666666</ele><time>2026-03-28T14:10:07Z</time></trkpt><trkpt lat="44.585441052683876" lon="10.093554214085806"><ele>543.0</ele><time>2026-03-28T14:10:08Z</time></trkpt><trkpt lat="44.58551545165666" lon="10.093301382611749"><ele>550.0</ele><time>2026-03-28T14:10:09Z</time></trkpt><trkpt lat="44.5856050536833" lon="10.093032440790925"><ele>557.0</ele><time>2026-03-28T14:10:10Z</time></trkpt><trkpt lat="44.585763555143764" lon="10.09269818676446"><ele>557.0</ele><time>2026-03-28T14:10:11Z</time></trkpt><trkpt lat="44.585833065510876" lon="10.092484928922831"><ele>557.0</ele><time>2026-03-28T14:10:13Z</time></trkpt><trkpt lat="44.58583979107871" lon="10.092246625333257"><ele>557.0</ele><time>2026-03-28T14:10:14Z</time></trkpt><trkpt lat="44.585827971342546" lon="10.091972798533604"><ele>554.5</ele><time>2026-03-28T14:10:15Z</time></trkpt><trkpt lat="44.585828038502925" lon="10.091744138839337"><ele>552.0</ele><time>2026-03-28T14:10:16Z</time></trkpt><trkpt lat="44.58581720273913" lon="10.091558154784584"><ele>549.5</ele><time>2026-03-28T14:10:17Z</time></trkpt><trkpt lat="44.58575969949864" lon="10.091391593768785"><ele>547.0</ele><time>2026-03-28T14:10:18Z</time></trkpt><trkpt lat="44.58564721974034" lon="10.091243402104649"><ele>539.6666666666667</ele><time>2026-03-28T14:10:19Z</time></trkpt><trkpt lat="44.58551844962756" lon="10.09108855761503"><ele>532.3333333333334</ele><time>2026-03-28T14:10:20Z</time></trkpt><trkpt lat="44.585404848275566" lon="10.090927924145703"><ele>525.0</ele><time>2026-03-28T14:10:21Z</time></trkpt><trkpt lat="44.58526380724135" lon="10.090805822723512"><ele>534.0</ele><time>2026-03-28T14:10:22Z</time></trkpt><trkpt lat="44.58510004923336" lon="10.090752547478516"><ele>543.0</ele><time>2026-03-28T14:10:23Z</time></trkpt><trkpt lat="44.584935678074814" lon="10.090724535204586"><ele>552.0</ele><time>2026-03-28T14:10:24Z</time></trkpt><trkpt lat="44.58484738276321" lon="10.090591083699321"><ele>552.0</ele><time>2026-03-28T14:10:25Z</time></trkpt><trkpt lat="44.58474578680808" lon="10.09041235084409"><ele>552.0</ele><time>2026-03-28T14:10:26Z</time></trkpt><trkpt lat="44.58467288644432" lon="10.090244094376011"><ele>552.0</ele><time>2026-03-28T14:10:27Z</time></trkpt><trkpt lat="44.58455830353234" lon="10.090161884526752"><ele>552.0</ele><time>2026-03-28T14:10:28Z</time></trkpt><trkpt lat="44.58441580432204" lon="10.090192963786244"><ele>557.3333333333334</ele><time>2026-03-28T14:10:29Z</time></trkpt><trkpt lat="44.584252069689214" lon="10.09029360598934"><ele>562.6666666666667</ele><time>2026-03-28T14:10:30Z</time></trkpt><trkpt lat="44.58407775618462" lon="10.090408630561868"><ele>568.0</ele><time>2026-03-28T14:10:30.999Z</time></trkpt><trkpt lat="44.58391140755148" lon="10.090535598194498"><ele>568.0</ele><time>2026-03-28T14:10:31.999Z</time></trkpt><trkpt lat="44.583774006726635" lon="10.090717106187723"><ele>568.0</ele><time>2026-03-28T14:10:32.999Z</time></trkpt><trkpt lat="44.5836620393025" lon="10.090921107763178"><ele>568.0</ele><time>2026-03-28T14:10:33.999Z</time></trkpt><trkpt lat="44.58352443908147" lon="10.09097415085015"><ele>574.3333333333334</ele><time>2026-03-28T14:10:34.999Z</time></trkpt><trkpt lat="44.58338540479816" lon="10.090961306081514"><ele>580.6666666666666</ele><time>2026-03-28T14:10:35.999Z</time></trkpt><trkpt lat="44.58322542244368" lon="10.090875621048975"><ele>587.0</ele><time>2026-03-28T14:10:36.999Z</time></trkpt><trkpt lat="44.58305255715465" lon="10.090847206748501"><ele>587.0</ele><time>2026-03-28T14:10:37.999Z</time></trkpt><trkpt lat="44.58289197841527" lon="10.090906251116124"><ele>587.0</ele><time>2026-03-28T14:10:38.999Z</time></trkpt><trkpt lat="44.58272378625388" lon="10.090998414383218"><ele>587.0</ele><time>2026-03-28T14:10:39.999Z</time></trkpt><trkpt lat="44.58256145428074" lon="10.091034497146445"><ele>588.2</ele><time>2026-03-28T14:10:40.999Z</time></trkpt><trkpt lat="44.5824307528331" lon="10.091028876995644"><ele>589.4000000000001</ele><time>2026-03-28T14:10:41.999Z</time></trkpt><trkpt lat="44.58234737248459" lon="10.090989925075855"><ele>590.5999999999999</ele><time>2026-03-28T14:10:42.999Z</time></trkpt><trkpt lat="44.58227257202839" lon="10.090923856976444"><ele>591.8</ele><time>2026-03-28T14:10:43.999Z</time></trkpt><trkpt lat="44.58220770269797" lon="10.09082124099324"><ele>593.0</ele><time>2026-03-28T14:10:44.999Z</time></trkpt><trkpt lat="44.58214418787927" lon="10.090700531969143"><ele>595.6666666666666</ele><time>2026-03-28T14:10:45.999Z</time></trkpt><trkpt lat="44.58209386289769" lon="10.090597254476632"><ele>598.3333333333333</ele><time>2026-03-28T14:10:46.999Z</time></trkpt><trkpt lat="44.58208361002187" lon="10.090507018516565"><ele>601.0</ele><time>2026-03-28T14:10:47.999Z</time></trkpt><trkpt lat="44.582076830316815" lon="10.09040853478987"><ele>603.6666666666666</ele><time>2026-03-28T14:11:07.999Z</time></trkpt><trkpt lat="44.582030378310094" lon="10.090334633044597"><ele>606.3333333333334</ele><time>2026-03-28T14:11:12.999Z</time></trkpt><trkpt lat="44.58194279363033" lon="10.090297713049377"><ele>609.0</ele><time>2026-03-28T14:11:15.999Z</time></trkpt><trkpt lat="44.581891451946284" lon="10.090145135916782"><ele>609.0</ele><time>2026-03-28T14:11:16.999Z</time></trkpt><trkpt lat="44.581804022517844" lon="10.089958558624314"><ele>609.0</ele><time>2026-03-28T14:11:17.999Z</time></trkpt><trkpt lat="44.58171151449095" lon="10.089717228340026"><ele>609.0</ele><time>2026-03-28T14:11:19Z</time></trkpt><trkpt lat="44.58163337477385" lon="10.089505757037939"><ele>604.3333333333334</ele><time>2026-03-28T14:11:20Z</time></trkpt><trkpt lat="44.58156603006886" lon="10.089290318609777"><ele>599.6666666666667</ele><time>2026-03-28T14:11:21Z</time></trkpt><trkpt lat="44.581503662016445" lon="10.08905536553971"><ele>595.0</ele><time>2026-03-28T14:11:22Z</time></trkpt><trkpt lat="44.58145041015993" lon="10.088816930979474"><ele>592.5</ele><time>2026-03-28T14:11:23Z</time></trkpt><trkpt lat="44.58140142676276" lon="10.088600729934031"><ele>590.0</ele><time>2026-03-28T14:11:24Z</time></trkpt><trkpt lat="44.58135881383923" lon="10.088426025534924"><ele>587.5</ele><time>2026-03-28T14:11:25Z</time></trkpt><trkpt lat="44.58131227989053" lon="10.088268047064979"><ele>585.0</ele><time>2026-03-28T14:11:26Z</time></trkpt><trkpt lat="44.581250545805794" lon="10.088118087051289"><ele>589.3333333333334</ele><time>2026-03-28T14:11:27Z</time></trkpt><trkpt lat="44.58114793792662" lon="10.08797163709687"><ele>593.6666666666667</ele><time>2026-03-28T14:11:28Z</time></trkpt><trkpt lat="44.58100695930886" lon="10.08782774308667"><ele>598.0</ele><time>2026-03-28T14:11:29Z</time></trkpt><trkpt lat="44.58087941883042" lon="10.08770164933849"><ele>598.0</ele><time>2026-03-28T14:11:30Z</time></trkpt><trkpt lat="44.580737921239106" lon="10.087608214850018"><ele>598.0</ele><time>2026-03-28T14:11:31Z</time></trkpt><trkpt lat="44.58058705168404" lon="10.087567497101347"><ele>598.0</ele><time>2026-03-28T14:11:32Z</time></trkpt><trkpt lat="44.58043330481535" lon="10.087620184399235"><ele>599.5</ele><time>2026-03-28T14:11:33Z</time></trkpt><trkpt lat="44.58027463089927" lon="10.087726157809241"><ele>601.0</ele><time>2026-03-28T14:11:34Z</time></trkpt><trkpt lat="44.580136986641975" lon="10.087790954152508"><ele>602.5</ele><time>2026-03-28T14:11:35Z</time></trkpt><trkpt lat="44.580017121364804" lon="10.08780535386163"><ele>604.0</ele><time>2026-03-28T14:11:36Z</time></trkpt><trkpt lat="44.5799148810698" lon="10.087770908426219"><ele>604.0</ele><time>2026-03-28T14:11:37Z</time></trkpt><trkpt lat="44.57979779746536" lon="10.087670384488607"><ele>604.0</ele><time>2026-03-28T14:11:38Z</time></trkpt><trkpt lat="44.57966222260433" lon="10.087525120307049"><ele>604.0</ele><time>2026-03-28T14:11:39Z</time></trkpt><trkpt lat="44.57956766456835" lon="10.087420999841418"><ele>604.0</ele><time>2026-03-28T14:11:41Z</time></trkpt><trkpt lat="44.579492407458" lon="10.087319272109312"><ele>610.2</ele><time>2026-03-28T14:11:42Z</time></trkpt><trkpt lat="44.57942508309551" lon="10.087187607814625"><ele>616.4</ele><time>2026-03-28T14:11:43Z</time></trkpt><trkpt lat="44.57937921142173" lon="10.087052366045455"><ele>622.6</ele><time>2026-03-28T14:11:44Z</time></trkpt><trkpt lat="44.57935572336937" lon="10.086915221568624"><ele>628.8</ele><time>2026-03-28T14:11:45Z</time></trkpt><trkpt lat="44.57936743276059" lon="10.086753108714808"><ele>635.0</ele><time>2026-03-28T14:11:46Z</time></trkpt><trkpt lat="44.57941393568912" lon="10.086575023747635"><ele>643.3333333333333</ele><time>2026-03-28T14:11:47Z</time></trkpt><trkpt lat="44.57947312305062" lon="10.08634457690227"><ele>651.6666666666666</ele><time>2026-03-28T14:11:48Z</time></trkpt><trkpt lat="44.579547769962396" lon="10.086110376707584"><ele>660.0</ele><time>2026-03-28T14:11:49Z</time></trkpt><trkpt lat="44.5796547961171" lon="10.08593901604541"><ele>654.5</ele><time>2026-03-28T14:11:50Z</time></trkpt><trkpt lat="44.579741291275475" lon="10.085777620421513"><ele>649.0</ele><time>2026-03-28T14:11:51Z</time></trkpt><trkpt lat="44.57982123956595" lon="10.085604499210705"><ele>643.5</ele><time>2026-03-28T14:11:52Z</time></trkpt><trkpt lat="44.57991696022104" lon="10.085442862475633"><ele>638.0</ele><time>2026-03-28T14:11:53Z</time></trkpt><trkpt lat="44.58000538426399" lon="10.085284777492573"><ele>638.0</ele><time>2026-03-28T14:11:54Z</time></trkpt><trkpt lat="44.58009342640688" lon="10.085122579362496"><ele>638.0</ele><time>2026-03-28T14:11:55Z</time></trkpt><trkpt lat="44.58018179142134" lon="10.084961145615479"><ele>638.0</ele><time>2026-03-28T14:11:56Z</time></trkpt><trkpt lat="44.58027341020129" lon="10.08480020765359"><ele>638.0</ele><time>2026-03-28T14:11:57Z</time></trkpt><trkpt lat="44.58037020291785" lon="10.084637187845182"><ele>631.0</ele><time>2026-03-28T14:11:58Z</time></trkpt><trkpt lat="44.58046504235009" lon="10.084476195086328"><ele>624.0</ele><time>2026-03-28T14:11:59Z</time></trkpt><trkpt lat="44.580563143028435" lon="10.084311593089334"><ele>617.0</ele><time>2026-03-28T14:12:00Z</time></trkpt><trkpt lat="44.58065668191754" lon="10.08414382058786"><ele>628.0</ele><time>2026-03-28T14:12:01Z</time></trkpt><trkpt lat="44.58075210776845" lon="10.08397143831002"><ele>639.0</ele><time>2026-03-28T14:12:02Z</time></trkpt><trkpt lat="44.58084591064651" lon="10.083797947518285"><ele>650.0</ele><time>2026-03-28T14:12:03Z</time></trkpt><trkpt lat="44.580942891032805" lon="10.083615209420199"><ele>650.0</ele><time>2026-03-28T14:12:04Z</time></trkpt><trkpt lat="44.58103796926382" lon="10.083425407189226"><ele>650.0</ele><time>2026-03-28T14:12:05Z</time></trkpt><trkpt lat="44.581116945578245" lon="10.083242546355946"><ele>650.0</ele><time>2026-03-28T14:12:06Z</time></trkpt><trkpt lat="44.58119795733894" lon="10.083050117125534"><ele>640.6666666666666</ele><time>2026-03-28T14:12:07Z</time></trkpt><trkpt lat="44.58128574212726" lon="10.082857066914345"><ele>631.3333333333334</ele><time>2026-03-28T14:12:08Z</time></trkpt><trkpt lat="44.5813658091966" lon="10.082654605684883"><ele>622.0</ele><time>2026-03-28T14:12:09Z</time></trkpt><trkpt lat="44.581454393493765" lon="10.082465353821133"><ele>631.3333333333334</ele><time>2026-03-28T14:12:10Z</time></trkpt><trkpt lat="44.58156272373587" lon="10.082286355666673"><ele>640.6666666666666</ele><time>2026-03-28T14:12:11Z</time></trkpt><trkpt lat="44.58166216750941" lon="10.082118852609256"><ele>650.0</ele><time>2026-03-28T14:12:12Z</time></trkpt><trkpt lat="44.581756619333504" lon="10.08193950762384"><ele>650.0</ele><time>2026-03-28T14:12:13Z</time></trkpt><trkpt lat="44.5818275554121" lon="10.081738407313058"><ele>650.0</ele><time>2026-03-28T14:12:14Z</time></trkpt><trkpt lat="44.581874546934145" lon="10.081514782731194"><ele>650.0</ele><time>2026-03-28T14:12:15Z</time></trkpt><trkpt lat="44.58191151298841" lon="10.08128612740245"><ele>654.6666666666666</ele><time>2026-03-28T14:12:16Z</time></trkpt><trkpt lat="44.58194964522127" lon="10.081061529409183"><ele>659.3333333333334</ele><time>2026-03-28T14:12:17Z</time></trkpt><trkpt lat="44.58201167215474" lon="10.080853916831586"><ele>664.0</ele><time>2026-03-28T14:12:18Z</time></trkpt><trkpt lat="44.582058536363945" lon="10.080637585739561"><ele>655.75</ele><time>2026-03-28T14:12:19Z</time></trkpt><trkpt lat="44.58210451309954" lon="10.080447155325077"><ele>647.5</ele><time>2026-03-28T14:12:20Z</time></trkpt><trkpt lat="44.58214929758593" lon="10.080289391545955"><ele>639.25</ele><time>2026-03-28T14:12:21Z</time></trkpt><trkpt lat="44.58221380698332" lon="10.080207351629076"><ele>631.0</ele><time>2026-03-28T14:12:22Z</time></trkpt><trkpt lat="44.582356602681074" lon="10.079985434029647"><ele>631.2</ele><time>2026-03-28T14:12:23Z</time></trkpt><trkpt lat="44.58240601809653" lon="10.079880388255452"><ele>631.4000000000001</ele><time>2026-03-28T14:12:24Z</time></trkpt><trkpt lat="44.58241917810932" lon="10.079749320759934"><ele>631.6</ele><time>2026-03-28T14:12:25Z</time></trkpt><trkpt lat="44.58240072216684" lon="10.079614634558096"><ele>631.8000000000001</ele><time>2026-03-28T14:12:26Z</time></trkpt><trkpt lat="44.582341242630875" lon="10.07948715488418"><ele>632.0</ele><time>2026-03-28T14:12:27Z</time></trkpt><trkpt lat="44.58233266640228" lon="10.079303596330028"><ele>632.0</ele><time>2026-03-28T14:12:28Z</time></trkpt><trkpt lat="44.58211198150682" lon="10.07936045252423"><ele>632.0</ele><time>2026-03-28T14:12:29Z</time></trkpt><trkpt lat="44.5819524726854" lon="10.079412981657475"><ele>632.0</ele><time>2026-03-28T14:12:30Z</time></trkpt><trkpt lat="44.58176688213566" lon="10.079517285135156"><ele>636.3333333333333</ele><time>2026-03-28T14:12:31Z</time></trkpt><trkpt lat="44.58157113132407" lon="10.079603129702448"><ele>640.6666666666666</ele><time>2026-03-28T14:12:32Z</time></trkpt><trkpt lat="44.58140886305679" lon="10.07965717583571"><ele>645.0</ele><time>2026-03-28T14:12:33Z</time></trkpt><trkpt lat="44.58129359134297" lon="10.079601534786123"><ele>645.0</ele><time>2026-03-28T14:12:34Z</time></trkpt><trkpt lat="44.58119322772039" lon="10.07947300978593"><ele>645.0</ele><time>2026-03-28T14:12:35Z</time></trkpt><trkpt lat="44.58105095344276" lon="10.079312881079671"><ele>645.0</ele><time>2026-03-28T14:12:35.999Z</time></trkpt><trkpt lat="44.580973661769676" lon="10.07914353768757"><ele>650.3333333333334</ele><time>2026-03-28T14:12:36.999Z</time></trkpt><trkpt lat="44.58089723787813" lon="10.078927616851287"><ele>655.6666666666667</ele><time>2026-03-28T14:12:37.999Z</time></trkpt><trkpt lat="44.58086191113231" lon="10.078716017942245"><ele>661.0</ele><time>2026-03-28T14:12:38.999Z</time></trkpt><trkpt lat="44.580845292535635" lon="10.07853152625491"><ele>661.0</ele><time>2026-03-28T14:12:39.999Z</time></trkpt><trkpt lat="44.58082690214482" lon="10.078355922481407"><ele>661.0</ele><time>2026-03-28T14:12:40.999Z</time></trkpt><trkpt lat="44.58079367809255" lon="10.078213891915638"><ele>661.0</ele><time>2026-03-28T14:12:41.999Z</time></trkpt><trkpt lat="44.58074735486167" lon="10.078094623122556"><ele>661.0</ele><time>2026-03-28T14:12:42.999Z</time></trkpt><trkpt lat="44.58067768542706" lon="10.078012492171645"><ele>661.0</ele><time>2026-03-28T14:12:43.999Z</time></trkpt><trkpt lat="44.580561000195864" lon="10.077980387326015"><ele>659.6666666666667</ele><time>2026-03-28T14:12:44.999Z</time></trkpt><trkpt lat="44.580396229486944" lon="10.078067865143897"><ele>658.3333333333334</ele><time>2026-03-28T14:12:45.999Z</time></trkpt><trkpt lat="44.58025101723649" lon="10.078135533752484"><ele>657.0</ele><time>2026-03-28T14:12:46.999Z</time></trkpt><trkpt lat="44.58013121602973" lon="10.0781777136694"><ele>657.0</ele><time>2026-03-28T14:12:47.999Z</time></trkpt><trkpt lat="44.58004452296654" lon="10.07818487531855"><ele>657.0</ele><time>2026-03-28T14:12:48.999Z</time></trkpt><trkpt lat="44.5799531863068" lon="10.078133266836886"><ele>657.0</ele><time>2026-03-28T14:12:49.999Z</time></trkpt><trkpt lat="44.579849975934415" lon="10.078048714239916"><ele>657.0</ele><time>2026-03-28T14:12:50.999Z</time></trkpt><trkpt lat="44.57972457548346" lon="10.077994494849426"><ele>657.0</ele><time>2026-03-28T14:12:51.999Z</time></trkpt><trkpt lat="44.57960188923292" lon="10.077917666319598"><ele>659.4000000000001</ele><time>2026-03-28T14:12:52.999Z</time></trkpt><trkpt lat="44.579490572709034" lon="10.077846136597737"><ele>661.8000000000001</ele><time>2026-03-28T14:12:53.999Z</time></trkpt><trkpt lat="44.579419127936106" lon="10.077801019566522"><ele>664.2</ele><time>2026-03-28T14:12:54.999Z</time></trkpt><trkpt lat="44.57932525304278" lon="10.077740054538417"><ele>666.6</ele><time>2026-03-28T14:12:55.999Z</time></trkpt><trkpt lat="44.579187334105455" lon="10.077700577561027"><ele>669.0</ele><time>2026-03-28T14:12:56.999Z</time></trkpt><trkpt lat="44.57908515904912" lon="10.077704234043265"><ele>669.0</ele><time>2026-03-28T14:12:57.999Z</time></trkpt><trkpt lat="44.579003190403526" lon="10.077796673347134"><ele>669.0</ele><time>2026-03-28T14:12:58.999Z</time></trkpt><trkpt lat="44.578919609209954" lon="10.077903566810363"><ele>669.0</ele><time>2026-03-28T14:12:59.999Z</time></trkpt><trkpt lat="44.57881092496913" lon="10.078002880980135"><ele>669.0</ele><time>2026-03-28T14:13:00.999Z</time></trkpt><trkpt lat="44.57871017755446" lon="10.078112248118023"><ele>668.25</ele><time>2026-03-28T14:13:01.999Z</time></trkpt><trkpt lat="44.57860568210991" lon="10.078224626024351"><ele>667.5</ele><time>2026-03-28T14:13:02.999Z</time></trkpt><trkpt lat="44.57849977324945" lon="10.078338524161321"><ele>666.75</ele><time>2026-03-28T14:13:03.999Z</time></trkpt><trkpt lat="44.5783989144445" lon="10.07844856000982"><ele>666.0</ele><time>2026-03-28T14:13:04.999Z</time></trkpt><trkpt lat="44.57830916108039" lon="10.078546766497789"><ele>667.5999999999999</ele><time>2026-03-28T14:13:05.999Z</time></trkpt><trkpt lat="44.578250904951766" lon="10.078610509366493"><ele>669.2</ele><time>2026-03-28T14:13:06.999Z</time></trkpt><trkpt lat="44.57816663260507" lon="10.078702718449149"><ele>670.8</ele><time>2026-03-28T14:13:07.999Z</time></trkpt><trkpt lat="44.57803638923435" lon="10.078819482286322"><ele>672.4000000000001</ele><time>2026-03-28T14:13:08.999Z</time></trkpt><trkpt lat="44.57794370107687" lon="10.078854654716544"><ele>674.0</ele><time>2026-03-28T14:13:09.999Z</time></trkpt><trkpt lat="44.57784312184762" lon="10.078845949078417"><ele>675.0</ele><time>2026-03-28T14:13:10.999Z</time></trkpt><trkpt lat="44.577736583747665" lon="10.078770589541358"><ele>676.0</ele><time>2026-03-28T14:13:11.999Z</time></trkpt><trkpt lat="44.57764367492479" lon="10.078642047764225"><ele>677.0</ele><time>2026-03-28T14:13:12.999Z</time></trkpt><trkpt lat="44.577594106485634" lon="10.078448839520743"><ele>678.0</ele><time>2026-03-28T14:13:13.999Z</time></trkpt><trkpt lat="44.57755672561031" lon="10.078246127207228"><ele>678.0</ele><time>2026-03-28T14:13:14.999Z</time></trkpt><trkpt lat="44.57750559202777" lon="10.078069866264837"><ele>678.0</ele><time>2026-03-28T14:13:15.999Z</time></trkpt><trkpt lat="44.57744822756867" lon="10.07789914407117"><ele>678.0</ele><time>2026-03-28T14:13:16.999Z</time></trkpt><trkpt lat="44.57738824302361" lon="10.077726077004318"><ele>678.0</ele><time>2026-03-28T14:13:17.999Z</time></trkpt><trkpt lat="44.57732549182805" lon="10.07754506862048"><ele>676.75</ele><time>2026-03-28T14:13:18.999Z</time></trkpt><trkpt lat="44.57726056990214" lon="10.077363924314579"><ele>675.5</ele><time>2026-03-28T14:13:19.999Z</time></trkpt><trkpt lat="44.577204798708514" lon="10.077190272700067"><ele>674.25</ele><time>2026-03-28T14:13:20.999Z</time></trkpt><trkpt lat="44.577152616418346" lon="10.077030664512964"><ele>673.0</ele><time>2026-03-28T14:13:21.999Z</time></trkpt><trkpt lat="44.5771070782709" lon="10.07688021751772"><ele>673.0</ele><time>2026-03-28T14:13:22.999Z</time></trkpt><trkpt lat="44.577060249989394" lon="10.076724752344019"><ele>673.0</ele><time>2026-03-28T14:13:23.999Z</time></trkpt><trkpt lat="44.57701576411379" lon="10.076580204129076"><ele>673.0</ele><time>2026-03-28T14:13:25Z</time></trkpt><trkpt lat="44.57697136083871" lon="10.076469412574227"><ele>673.0</ele><time>2026-03-28T14:13:26Z</time></trkpt><trkpt lat="44.576932541349706" lon="10.076374492084303"><ele>673.0</ele><time>2026-03-28T14:13:27Z</time></trkpt><trkpt lat="44.576897217255734" lon="10.07627111413338"><ele>674.0</ele><time>2026-03-28T14:13:28Z</time></trkpt><trkpt lat="44.57687243970301" lon="10.076178230263846"><ele>675.0</ele><time>2026-03-28T14:13:29Z</time></trkpt><trkpt lat="44.57684089109971" lon="10.076086274284624"><ele>676.0</ele><time>2026-03-28T14:13:30Z</time></trkpt><trkpt lat="44.57680510742078" lon="10.075997881294478"><ele>677.0</ele><time>2026-03-28T14:13:31Z</time></trkpt><trkpt lat="44.57675630842224" lon="10.07590007725133"><ele>678.0</ele><time>2026-03-28T14:13:32Z</time></trkpt><trkpt lat="44.57670054526541" lon="10.075810315516636"><ele>679.0</ele><time>2026-03-28T14:13:33Z</time></trkpt><trkpt lat="44.57663378888201" lon="10.075723680424472"><ele>679.0</ele><time>2026-03-28T14:13:34Z</time></trkpt><trkpt lat="44.576560214118786" lon="10.075643619774032"><ele>679.0</ele><time>2026-03-28T14:13:35Z</time></trkpt><trkpt lat="44.576475813480606" lon="10.075575058085976"><ele>679.0</ele><time>2026-03-28T14:13:36Z</time></trkpt><trkpt lat="44.57638873811563" lon="10.075511698526908"><ele>679.0</ele><time>2026-03-28T14:13:37Z</time></trkpt><trkpt lat="44.57630137401574" lon="10.07544892368768"><ele>679.0</ele><time>2026-03-28T14:13:38Z</time></trkpt><trkpt lat="44.57620374171098" lon="10.0753909376889"><ele>679.25</ele><time>2026-03-28T14:13:39Z</time></trkpt><trkpt lat="44.576094131455214" lon="10.075360128781822"><ele>679.5</ele><time>2026-03-28T14:13:40Z</time></trkpt><trkpt lat="44.57598021631017" lon="10.075350024192554"><ele>679.75</ele><time>2026-03-28T14:13:41Z</time></trkpt><trkpt lat="44.575863711755915" lon="10.075364826779705"><ele>680.0</ele><time>2026-03-28T14:13:42Z</time></trkpt><trkpt lat="44.57574547829214" lon="10.075379092152712"><ele>680.0</ele><time>2026-03-28T14:13:43Z</time></trkpt><trkpt lat="44.57562947658521" lon="10.075382228982228"><ele>680.0</ele><time>2026-03-28T14:13:44Z</time></trkpt><trkpt lat="44.57551037160886" lon="10.075384950109603"><ele>680.0</ele><time>2026-03-28T14:13:45Z</time></trkpt><trkpt lat="44.575388923594154" lon="10.075392141784683"><ele>680.0</ele><time>2026-03-28T14:13:46Z</time></trkpt><trkpt lat="44.57527159319509" lon="10.075393734786406"><ele>680.8333333333333</ele><time>2026-03-28T14:13:47Z</time></trkpt><trkpt lat="44.57517420563731" lon="10.075373530524303"><ele>681.6666666666666</ele><time>2026-03-28T14:13:48Z</time></trkpt><trkpt lat="44.575096050658985" lon="10.075334186405444"><ele>682.5</ele><time>2026-03-28T14:13:49Z</time></trkpt><trkpt lat="44.57502184463391" lon="10.075287366650137"><ele>683.3333333333334</ele><time>2026-03-28T14:13:50Z</time></trkpt><trkpt lat="44.57495716957005" lon="10.075243376673722"><ele>684.1666666666667</ele><time>2026-03-28T14:13:51Z</time></trkpt><trkpt lat="44.57488417767186" lon="10.075201962896132"><ele>685.0</ele><time>2026-03-28T14:13:52Z</time></trkpt><trkpt lat="44.57480288275623" lon="10.075155437352874"><ele>685.0</ele><time>2026-03-28T14:13:53Z</time></trkpt><trkpt lat="44.57471845533406" lon="10.07511268423699"><ele>685.0</ele><time>2026-03-28T14:13:54Z</time></trkpt><trkpt lat="44.57463182674224" lon="10.075059838308354"><ele>685.0</ele><time>2026-03-28T14:13:55Z</time></trkpt><trkpt lat="44.57454179500887" lon="10.07500752262323"><ele>685.0</ele><time>2026-03-28T14:13:56Z</time></trkpt><trkpt lat="44.574441254310166" lon="10.074959790773669"><ele>685.0</ele><time>2026-03-28T14:13:57Z</time></trkpt><trkpt lat="44.57433883015915" lon="10.074931578028846"><ele>685.6</ele><time>2026-03-28T14:13:58Z</time></trkpt><trkpt lat="44.57423300518483" lon="10.07492101883924"><ele>686.2</ele><time>2026-03-28T14:13:59Z</time></trkpt><trkpt lat="44.57413558997145" lon="10.074927538543328"><ele>686.8</ele><time>2026-03-28T14:14:00Z</time></trkpt><trkpt lat="44.57405772775123" lon="10.07495048762686"><ele>687.4</ele><time>2026-03-28T14:14:01Z</time></trkpt><trkpt lat="44.57399466752534" lon="10.074969189837201"><ele>688.0</ele><time>2026-03-28T14:14:02Z</time></trkpt><trkpt lat="44.57386054665322" lon="10.0749995378274"><ele>688.0</ele><time>2026-03-28T14:14:04Z</time></trkpt><trkpt lat="44.573776167241846" lon="10.0750065369876"><ele>688.0</ele><time>2026-03-28T14:14:05Z</time></trkpt><trkpt lat="44.57368737326758" lon="10.074985938357829"><ele>688.0</ele><time>2026-03-28T14:14:06Z</time></trkpt><trkpt lat="44.57359717638583" lon="10.074931869659219"><ele>688.0</ele><time>2026-03-28T14:14:07Z</time></trkpt><trkpt lat="44.573517365841056" lon="10.074865660841011"><ele>688.0</ele><time>2026-03-28T14:14:08Z</time></trkpt><trkpt lat="44.57343833997418" lon="10.074785620124462"><ele>688.5</ele><time>2026-03-28T14:14:09Z</time></trkpt><trkpt lat="44.57339154459437" lon="10.07468194685873"><ele>689.0</ele><time>2026-03-28T14:14:10Z</time></trkpt><trkpt lat="44.573389233277034" lon="10.07454138943347"><ele>689.5</ele><time>2026-03-28T14:14:11Z</time></trkpt><trkpt lat="44.573412038105715" lon="10.074420094157386"><ele>690.0</ele><time>2026-03-28T14:14:12Z</time></trkpt><trkpt lat="44.573422023163545" lon="10.074304781903558"><ele>690.5</ele><time>2026-03-28T14:14:13Z</time></trkpt><trkpt lat="44.57344529809926" lon="10.074214293704234"><ele>691.0</ele><time>2026-03-28T14:14:14Z</time></trkpt><trkpt lat="44.57347425901328" lon="10.07409990973625"><ele>696.0</ele><time>2026-03-28T14:14:16Z</time></trkpt><trkpt lat="44.573391804638895" lon="10.074036909179004"><ele>701.0</ele><time>2026-03-28T14:14:18Z</time></trkpt><trkpt lat="44.57327849606775" lon="10.073997535895652"><ele>706.0</ele><time>2026-03-28T14:14:20Z</time></trkpt><trkpt lat="44.57319864956928" lon="10.073980579998025"><ele>711.0</ele><time>2026-03-28T14:14:21Z</time></trkpt><trkpt lat="44.57311051717845" lon="10.073960724668556"><ele>716.0</ele><time>2026-03-28T14:14:22Z</time></trkpt><trkpt lat="44.57301589539085" lon="10.073946778921526"><ele>716.0</ele><time>2026-03-28T14:14:23Z</time></trkpt><trkpt lat="44.57290904888598" lon="10.073947422202487"><ele>716.0</ele><time>2026-03-28T14:14:24Z</time></trkpt><trkpt lat="44.57280165112985" lon="10.073951017659168"><ele>716.0</ele><time>2026-03-28T14:14:25Z</time></trkpt><trkpt lat="44.57269851337071" lon="10.0739653654271"><ele>716.0</ele><time>2026-03-28T14:14:26Z</time></trkpt><trkpt lat="44.572593189262854" lon="10.073967908284358"><ele>716.0</ele><time>2026-03-28T14:14:27Z</time></trkpt><trkpt lat="44.57251326027577" lon="10.073998060715265"><ele>716.1666666666666</ele><time>2026-03-28T14:14:28Z</time></trkpt><trkpt lat="44.57244876329066" lon="10.07404713180257"><ele>716.3333333333333</ele><time>2026-03-28T14:14:29Z</time></trkpt><trkpt lat="44.572382566201405" lon="10.074069872709046"><ele>716.5</ele><time>2026-03-28T14:14:30Z</time></trkpt><trkpt lat="44.5722924050129" lon="10.074114187087362"><ele>716.6666666666666</ele><time>2026-03-28T14:14:31Z</time></trkpt><trkpt lat="44.57220139801713" lon="10.074154416887007"><ele>716.8333333333334</ele><time>2026-03-28T14:14:32Z</time></trkpt><trkpt lat="44.57211393734533" lon="10.074174558641399"><ele>717.0</ele><time>2026-03-28T14:14:33Z</time></trkpt><trkpt lat="44.57201676442829" lon="10.074143142710655"><ele>717.0</ele><time>2026-03-28T14:14:34Z</time></trkpt><trkpt lat="44.571901575059705" lon="10.074131581907155"><ele>717.0</ele><time>2026-03-28T14:14:35Z</time></trkpt><trkpt lat="44.57179417477893" lon="10.074045799558721"><ele>717.0</ele><time>2026-03-28T14:14:36Z</time></trkpt><trkpt lat="44.57167737115334" lon="10.073996691372457"><ele>717.0</ele><time>2026-03-28T14:14:37Z</time></trkpt><trkpt lat="44.57156936828252" lon="10.073971375773848"><ele>719.6</ele><time>2026-03-28T14:14:38Z</time></trkpt><trkpt lat="44.571459948091075" lon="10.07396327906294"><ele>722.2</ele><time>2026-03-28T14:14:38.999Z</time></trkpt><trkpt lat="44.57135619259506" lon="10.073987779168439"><ele>724.8</ele><time>2026-03-28T14:14:39.999Z</time></trkpt><trkpt lat="44.571258148430125" lon="10.074006960204144"><ele>727.4</ele><time>2026-03-28T14:14:40.999Z</time></trkpt><trkpt lat="44.571168864861576" lon="10.074059642979911"><ele>730.0</ele><time>2026-03-28T14:14:41.999Z</time></trkpt><trkpt lat="44.57107910139319" lon="10.07411826569112"><ele>730.0</ele><time>2026-03-28T14:14:42.999Z</time></trkpt><trkpt lat="44.57097694170383" lon="10.074169602556038"><ele>730.0</ele><time>2026-03-28T14:14:43.999Z</time></trkpt><trkpt lat="44.57087386668687" lon="10.074218212896888"><ele>730.0</ele><time>2026-03-28T14:14:44.999Z</time></trkpt><trkpt lat="44.57076754333861" lon="10.074265887512171"><ele>730.0</ele><time>2026-03-28T14:14:45.999Z</time></trkpt><trkpt lat="44.57067692860083" lon="10.074283793783298"><ele>730.0</ele><time>2026-03-28T14:14:46.999Z</time></trkpt><trkpt lat="44.57060526528331" lon="10.074266918848465"><ele>730.0</ele><time>2026-03-28T14:14:47.999Z</time></trkpt><trkpt lat="44.57052668214554" lon="10.074223247694068"><ele>730.0</ele><time>2026-03-28T14:14:48.999Z</time></trkpt><trkpt lat="44.5704504203503" lon="10.074166981054034"><ele>730.0</ele><time>2026-03-28T14:14:49.999Z</time></trkpt><trkpt lat="44.570391135955184" lon="10.074102433214184"><ele>730.0</ele><time>2026-03-28T14:14:50.999Z</time></trkpt><trkpt lat="44.570346914741855" lon="10.07403158051599"><ele>730.0</ele><time>2026-03-28T14:14:51.999Z</time></trkpt><trkpt lat="44.57028376428369" lon="10.073903170706027"><ele>730.0</ele><time>2026-03-28T14:14:52.999Z</time></trkpt><trkpt lat="44.570230072371864" lon="10.073794730993262"><ele>737.0</ele><time>2026-03-28T14:14:53.999Z</time></trkpt><trkpt lat="44.570184296387815" lon="10.07372174794219"><ele>744.0</ele><time>2026-03-28T14:14:54.999Z</time></trkpt><trkpt lat="44.57010351806927" lon="10.073627791126505"><ele>751.0</ele><time>2026-03-28T14:14:56.999Z</time></trkpt><trkpt lat="44.56999290195901" lon="10.073575929746118"><ele>758.0</ele><time>2026-03-28T14:14:57.999Z</time></trkpt><trkpt lat="44.56991429173201" lon="10.073581801351315"><ele>765.0</ele><time>2026-03-28T14:14:58.999Z</time></trkpt><trkpt lat="44.56979463328015" lon="10.073605373903142"><ele>765.0</ele><time>2026-03-28T14:15:01Z</time></trkpt><trkpt lat="44.56972649661646" lon="10.073627040290772"><ele>765.0</ele><time>2026-03-28T14:15:01.999Z</time></trkpt><trkpt lat="44.56965666053614" lon="10.073655493852135"><ele>765.0</ele><time>2026-03-28T14:15:02.999Z</time></trkpt><trkpt lat="44.56960057699359" lon="10.073721231025436"><ele>765.0</ele><time>2026-03-28T14:15:03.999Z</time></trkpt><trkpt lat="44.56952229085795" lon="10.073756619747304"><ele>765.0</ele><time>2026-03-28T14:15:04.999Z</time></trkpt><trkpt lat="44.569432187507516" lon="10.073765718421605"><ele>765.0</ele><time>2026-03-28T14:15:05.999Z</time></trkpt><trkpt lat="44.569356248922" lon="10.073771478219923"><ele>766.6666666666666</ele><time>2026-03-28T14:15:06.999Z</time></trkpt><trkpt lat="44.56926259359193" lon="10.0737650115043"><ele>768.3333333333333</ele><time>2026-03-28T14:15:07.999Z</time></trkpt><trkpt lat="44.56918224923414" lon="10.07378535814445"><ele>770.0</ele><time>2026-03-28T14:15:08.999Z</time></trkpt><trkpt lat="44.569104649603" lon="10.073809597293456"><ele>771.6666666666666</ele><time>2026-03-28T14:15:09.999Z</time></trkpt><trkpt lat="44.56902231553782" lon="10.073866684554833"><ele>773.3333333333333</ele><time>2026-03-28T14:15:10.999Z</time></trkpt><trkpt lat="44.56894125324699" lon="10.073884266638998"><ele>775.0</ele><time>2026-03-28T14:15:11.999Z</time></trkpt><trkpt lat="44.568874264165196" lon="10.073942690355318"><ele>775.0</ele><time>2026-03-28T14:15:12.999Z</time></trkpt><trkpt lat="44.568822047560914" lon="10.074062138186486"><ele>775.0</ele><time>2026-03-28T14:15:13.999Z</time></trkpt><trkpt lat="44.56874961942326" lon="10.074126197096628"><ele>775.0</ele><time>2026-03-28T14:15:14.999Z</time></trkpt><trkpt lat="44.56867683975735" lon="10.074173184614711"><ele>775.0</ele><time>2026-03-28T14:15:15.999Z</time></trkpt><trkpt lat="44.56853679170903" lon="10.074235467159895"><ele>775.0</ele><time>2026-03-28T14:15:17.999Z</time></trkpt><trkpt lat="44.56847360679023" lon="10.074253066365022"><ele>777.0</ele><time>2026-03-28T14:15:18.999Z</time></trkpt><trkpt lat="44.56839594395075" lon="10.074256718140822"><ele>779.0</ele><time>2026-03-28T14:15:19.999Z</time></trkpt><trkpt lat="44.568275588695364" lon="10.074237860122679"><ele>781.0</ele><time>2026-03-28T14:15:21.999Z</time></trkpt><trkpt lat="44.568169942573014" lon="10.074182755084488"><ele>783.0</ele><time>2026-03-28T14:15:23.999Z</time></trkpt><trkpt lat="44.568113101860845" lon="10.07410362307346"><ele>785.0</ele><time>2026-03-28T14:15:25.999Z</time></trkpt><trkpt lat="44.568093491813535" lon="10.073954345174885"><ele>785.0000000000001</ele><time>2026-03-28T14:15:27.999Z</time></trkpt><trkpt lat="44.568053592822636" lon="10.073871845414073"><ele>785.0</ele><time>2026-03-28T14:15:29.999Z</time></trkpt><trkpt lat="44.56792891576267" lon="10.073836104585057"><ele>785.0</ele><time>2026-03-28T14:15:32Z</time></trkpt><trkpt lat="44.56786766303066" lon="10.073867550134167"><ele>785.0</ele><time>2026-03-28T14:15:34Z</time></trkpt><trkpt lat="44.567790031839266" lon="10.073905656513615"><ele>785.0000000000001</ele><time>2026-03-28T14:15:37Z</time></trkpt><trkpt lat="44.56770500780626" lon="10.07389004137033"><ele>785.0</ele><time>2026-03-28T14:15:40Z</time></trkpt><trkpt lat="44.56763842457408" lon="10.07384095002719"><ele>787.3333333333334</ele><time>2026-03-28T14:15:42Z</time></trkpt><trkpt lat="44.567572292083064" lon="10.073800693654945"><ele>789.6666666666667</ele><time>2026-03-28T14:15:44Z</time></trkpt><trkpt lat="44.56747256732349" lon="10.073782412574083"><ele>792.0</ele><time>2026-03-28T14:15:46Z</time></trkpt><trkpt lat="44.56738686717097" lon="10.073796826924422"><ele>794.3333333333333</ele><time>2026-03-28T14:15:47Z</time></trkpt><trkpt lat="44.56732888810012" lon="10.073908952152198"><ele>796.6666666666666</ele><time>2026-03-28T14:15:48Z</time></trkpt><trkpt lat="44.567269447100294" lon="10.073964113487957"><ele>799.0</ele><time>2026-03-28T14:15:49Z</time></trkpt><trkpt lat="44.56719395250776" lon="10.074001520444451"><ele>798.9999999999999</ele><time>2026-03-28T14:15:50Z</time></trkpt><trkpt lat="44.56712582632845" lon="10.074046379136018"><ele>799.0</ele><time>2026-03-28T14:15:51Z</time></trkpt><trkpt lat="44.566991982358076" lon="10.074081110180352"><ele>799.0</ele><time>2026-03-28T14:15:53Z</time></trkpt><trkpt lat="44.566919947352595" lon="10.074087028790087"><ele>799.0</ele><time>2026-03-28T14:15:54Z</time></trkpt><trkpt lat="44.566857118882375" lon="10.074093236521877"><ele>798.9999999999999</ele><time>2026-03-28T14:15:55Z</time></trkpt><trkpt lat="44.5667800528169" lon="10.074097526404387"><ele>799.0</ele><time>2026-03-28T14:15:56Z</time></trkpt><trkpt lat="44.56671416690457" lon="10.074078107314303"><ele>802.9999999999999</ele><time>2026-03-28T14:15:57Z</time></trkpt><trkpt lat="44.56664244310809" lon="10.074063511379311"><ele>807.0</ele><time>2026-03-28T14:15:58Z</time></trkpt><trkpt lat="44.566579003711404" lon="10.074045957908211"><ele>811.0</ele><time>2026-03-28T14:15:59Z</time></trkpt><trkpt lat="44.56644664950317" lon="10.074014404536024"><ele>815.0</ele><time>2026-03-28T14:16:01Z</time></trkpt><trkpt lat="44.56637975713592" lon="10.074056378684062"><ele>818.9999999999999</ele><time>2026-03-28T14:16:02Z</time></trkpt><trkpt lat="44.56630566823686" lon="10.074076563437592"><ele>823.0</ele><time>2026-03-28T14:16:03Z</time></trkpt><trkpt lat="44.56624279465084" lon="10.074088468794569"><ele>822.9999999999999</ele><time>2026-03-28T14:16:04Z</time></trkpt><trkpt lat="44.56617162863434" lon="10.074102037159614"><ele>823.0</ele><time>2026-03-28T14:16:05Z</time></trkpt><trkpt lat="44.56609298341246" lon="10.074114335933254"><ele>823.0</ele><time>2026-03-28T14:16:06Z</time></trkpt><trkpt lat="44.56600662051733" lon="10.07411454259139"><ele>823.0</ele><time>2026-03-28T14:16:07Z</time></trkpt><trkpt lat="44.56590369268622" lon="10.07410710847552"><ele>822.9999999999999</ele><time>2026-03-28T14:16:09Z</time></trkpt><trkpt lat="44.565822647020276" lon="10.07403454277661"><ele>823.0</ele><time>2026-03-28T14:16:11Z</time></trkpt><trkpt lat="44.56576934229319" lon="10.073980527574426"><ele>822.9999999999999</ele><time>2026-03-28T14:16:12Z</time></trkpt><trkpt lat="44.56574063420826" lon="10.073879930991206"><ele>823.0</ele><time>2026-03-28T14:16:13Z</time></trkpt><trkpt lat="44.565714217661416" lon="10.073783205962428"><ele>823.0</ele><time>2026-03-28T14:16:14Z</time></trkpt><trkpt lat="44.56560529036525" lon="10.07370381965024"><ele>823.0</ele><time>2026-03-28T14:16:16Z</time></trkpt><trkpt lat="44.5655215622586" lon="10.073714303808266"><ele>822.9999999999999</ele><time>2026-03-28T14:16:17Z</time></trkpt><trkpt lat="44.565441095696066" lon="10.073754949648025"><ele>823.0</ele><time>2026-03-28T14:16:18Z</time></trkpt><trkpt lat="44.565356264330106" lon="10.07377873249255"><ele>821.1666666666666</ele><time>2026-03-28T14:16:19Z</time></trkpt><trkpt lat="44.56528781963257" lon="10.073806487755093"><ele>819.3333333333333</ele><time>2026-03-28T14:16:20Z</time></trkpt><trkpt lat="44.565225301068715" lon="10.073829783240768"><ele>817.5</ele><time>2026-03-28T14:16:21Z</time></trkpt><trkpt lat="44.56510692054481" lon="10.073840345185738"><ele>815.6666666666667</ele><time>2026-03-28T14:16:23Z</time></trkpt><trkpt lat="44.565014810631276" lon="10.073782999765832"><ele>813.8333333333334</ele><time>2026-03-28T14:16:25Z</time></trkpt><trkpt lat="44.56499979795329" lon="10.073672108087077"><ele>812.0</ele><time>2026-03-28T14:16:26Z</time></trkpt><trkpt lat="44.56496968718908" lon="10.073551569906517"><ele>812.0000000000001</ele><time>2026-03-28T14:16:27Z</time></trkpt><trkpt lat="44.56496038128682" lon="10.073435786310199"><ele>812.0</ele><time>2026-03-28T14:16:28Z</time></trkpt><trkpt lat="44.564939813768" lon="10.073334307543067"><ele>812.0</ele><time>2026-03-28T14:16:29Z</time></trkpt><trkpt lat="44.564910121251714" lon="10.073246544321734"><ele>812.0</ele><time>2026-03-28T14:16:30Z</time></trkpt><trkpt lat="44.56485972373703" lon="10.073164846771963"><ele>812.0000000000001</ele><time>2026-03-28T14:16:31Z</time></trkpt><trkpt lat="44.56483295559321" lon="10.073070200194257"><ele>812.0</ele><time>2026-03-28T14:16:32Z</time></trkpt><trkpt lat="44.56477395791112" lon="10.073006680280159"><ele>812.3333333333334</ele><time>2026-03-28T14:16:33Z</time></trkpt><trkpt lat="44.564675519992896" lon="10.073009527258254"><ele>812.6666666666667</ele><time>2026-03-28T14:16:34Z</time></trkpt><trkpt lat="44.56459111631338" lon="10.073049324725554"><ele>813.0</ele><time>2026-03-28T14:16:35Z</time></trkpt><trkpt lat="44.56451761151652" lon="10.073102939607308"><ele>813.3333333333333</ele><time>2026-03-28T14:16:36Z</time></trkpt><trkpt lat="44.56445260573307" lon="10.073158037145005"><ele>813.6666666666666</ele><time>2026-03-28T14:16:37Z</time></trkpt><trkpt lat="44.5643933416974" lon="10.073202526369164"><ele>814.0</ele><time>2026-03-28T14:16:38Z</time></trkpt><trkpt lat="44.564287137378415" lon="10.073286120436874"><ele>814.0</ele><time>2026-03-28T14:16:40Z</time></trkpt><trkpt lat="44.56417041040171" lon="10.07336058368364"><ele>814.0</ele><time>2026-03-28T14:16:42Z</time></trkpt><trkpt lat="44.564057364910525" lon="10.07343363950749"><ele>814.0</ele><time>2026-03-28T14:16:44Z</time></trkpt><trkpt lat="44.56399884374772" lon="10.073496991587056"><ele>814.0</ele><time>2026-03-28T14:16:45Z</time></trkpt><trkpt lat="44.56395247904393" lon="10.073588031207535"><ele>814.0</ele><time>2026-03-28T14:16:46Z</time></trkpt><trkpt lat="44.56393131547303" lon="10.073685133343234"><ele>813.9999999999999</ele><time>2026-03-28T14:16:47Z</time></trkpt><trkpt lat="44.56392253251818" lon="10.07378202309261"><ele>814.0</ele><time>2026-03-28T14:16:47.999Z</time></trkpt><trkpt lat="44.56392751683034" lon="10.073916417463643"><ele>814.0</ele><time>2026-03-28T14:16:49.999Z</time></trkpt><trkpt lat="44.56389503723157" lon="10.074011864621598"><ele>814.0</ele><time>2026-03-28T14:16:51.999Z</time></trkpt><trkpt lat="44.56386933126553" lon="10.074128115208051"><ele>813.9999999999999</ele><time>2026-03-28T14:16:53.999Z</time></trkpt><trkpt lat="44.56383217406404" lon="10.07424384363565"><ele>814.0</ele><time>2026-03-28T14:16:55.999Z</time></trkpt><trkpt lat="44.56371825704358" lon="10.074318718516576"><ele>814.8000000000001</ele><time>2026-03-28T14:16:57.999Z</time></trkpt><trkpt lat="44.56363734487911" lon="10.074415772325878"><ele>815.6</ele><time>2026-03-28T14:16:59.999Z</time></trkpt><trkpt lat="44.56355891613813" lon="10.074456219663864"><ele>816.4</ele><time>2026-03-28T14:17:01.999Z</time></trkpt><trkpt lat="44.56349144534793" lon="10.074512887901976"><ele>817.2</ele><time>2026-03-28T14:17:03.999Z</time></trkpt><trkpt lat="44.56339766472404" lon="10.074610196536074"><ele>818.0</ele><time>2026-03-28T14:17:05.999Z</time></trkpt><trkpt lat="44.56328707497266" lon="10.074666668366511"><ele>818.0</ele><time>2026-03-28T14:17:07.999Z</time></trkpt><trkpt lat="44.56317305242112" lon="10.074729745336247"><ele>818.0</ele><time>2026-03-28T14:17:09.999Z</time></trkpt><trkpt lat="44.56311362695293" lon="10.074764257215623"><ele>818.0</ele><time>2026-03-28T14:17:10.999Z</time></trkpt><trkpt lat="44.56298860832494" lon="10.074759019328424"><ele>818.0</ele><time>2026-03-28T14:17:12.999Z</time></trkpt><trkpt lat="44.5628698037778" lon="10.074743035656253"><ele>818.0</ele><time>2026-03-28T14:17:14.999Z</time></trkpt><trkpt lat="44.56275332540638" lon="10.074722517177554"><ele>820.4</ele><time>2026-03-28T14:17:16.999Z</time></trkpt><trkpt lat="44.56268454873901" lon="10.07473631417193"><ele>822.8</ele><time>2026-03-28T14:17:17.999Z</time></trkpt><trkpt lat="44.56258050106195" lon="10.074799435020923"><ele>825.2</ele><time>2026-03-28T14:17:19.999Z</time></trkpt><trkpt lat="44.562484605776" lon="10.074852459844386"><ele>827.6</ele><time>2026-03-28T14:17:21.999Z</time></trkpt><trkpt lat="44.562388243323014" lon="10.074838777076792"><ele>830.0</ele><time>2026-03-28T14:17:23.999Z</time></trkpt><trkpt lat="44.56228932055038" lon="10.07486512367364"><ele>830.0000000000001</ele><time>2026-03-28T14:17:25.999Z</time></trkpt><trkpt lat="44.56220314223778" lon="10.074857123734763"><ele>830.0</ele><time>2026-03-28T14:17:27.999Z</time></trkpt><trkpt lat="44.562105485579" lon="10.074844860626355"><ele>830.0</ele><time>2026-03-28T14:17:29.999Z</time></trkpt><trkpt lat="44.562027086650716" lon="10.07480967760929"><ele>830.0</ele><time>2026-03-28T14:17:31.999Z</time></trkpt><trkpt lat="44.561945776959604" lon="10.074778982465517"><ele>830.0000000000001</ele><time>2026-03-28T14:17:33.999Z</time></trkpt><trkpt lat="44.56185865592839" lon="10.074796832863274"><ele>830.0</ele><time>2026-03-28T14:17:35.999Z</time></trkpt><trkpt lat="44.561764496422725" lon="10.07482582123776"><ele>831.75</ele><time>2026-03-28T14:17:38Z</time></trkpt><trkpt lat="44.56167893708454" lon="10.074856476194629"><ele>833.5</ele><time>2026-03-28T14:17:40Z</time></trkpt><trkpt lat="44.561619781845344" lon="10.07489918607957"><ele>835.25</ele><time>2026-03-28T14:17:42Z</time></trkpt><trkpt lat="44.561632763740995" lon="10.075228001148634"><ele>837.0</ele><time>2026-03-28T14:17:44Z</time></trkpt><trkpt lat="44.56160490342449" lon="10.075352945404479"><ele>837.0</ele><time>2026-03-28T14:17:46Z</time></trkpt><trkpt lat="44.561540142803196" lon="10.075451683668444"><ele>837.0</ele><time>2026-03-28T14:17:48Z</time></trkpt><trkpt lat="44.56144052403961" lon="10.075509218221521"><ele>837.0</ele><time>2026-03-28T14:17:50Z</time></trkpt><trkpt lat="44.561332367195966" lon="10.075582830244455"><ele>837.0</ele><time>2026-03-28T14:17:52Z</time></trkpt><trkpt lat="44.561292774384405" lon="10.07565578334444"><ele>837.0</ele><time>2026-03-28T14:17:53Z</time></trkpt><trkpt lat="44.56125313804817" lon="10.07572740193384"><ele>837.0</ele><time>2026-03-28T14:17:54Z</time></trkpt><trkpt lat="44.56115653996128" lon="10.075846217291415"><ele>837.0</ele><time>2026-03-28T14:17:56Z</time></trkpt><trkpt lat="44.56110123210248" lon="10.075901036835441"><ele>837.0</ele><time>2026-03-28T14:17:57Z</time></trkpt><trkpt lat="44.56103934978326" lon="10.075952599258788"><ele>837.0</ele><time>2026-03-28T14:17:58Z</time></trkpt><trkpt lat="44.56097211570561" lon="10.075994128304067"><ele>837.0</ele><time>2026-03-28T14:17:59Z</time></trkpt><trkpt lat="44.56090920424073" lon="10.076026965067452"><ele>837.0</ele><time>2026-03-28T14:18:00Z</time></trkpt><trkpt lat="44.56079803383828" lon="10.076082780091452"><ele>837.0</ele><time>2026-03-28T14:18:02Z</time></trkpt><trkpt lat="44.56066723510169" lon="10.076074842116414"><ele>837.0</ele><time>2026-03-28T14:18:04Z</time></trkpt><trkpt lat="44.560585306234536" lon="10.07605392402784"><ele>837.0</ele><time>2026-03-28T14:18:05Z</time></trkpt><trkpt lat="44.560500740196304" lon="10.076031881448163"><ele>837.0</ele><time>2026-03-28T14:18:06Z</time></trkpt><trkpt lat="44.5604233430265" lon="10.076016142514625"><ele>837.0</ele><time>2026-03-28T14:18:07Z</time></trkpt><trkpt lat="44.560337679403524" lon="10.07600054624661"><ele>838.2857142857143</ele><time>2026-03-28T14:18:08Z</time></trkpt><trkpt lat="44.56025556025112" lon="10.075986455312767"><ele>839.5714285714287</ele><time>2026-03-28T14:18:09Z</time></trkpt><trkpt lat="44.560176080430885" lon="10.075970182015192"><ele>840.8571428571429</ele><time>2026-03-28T14:18:10Z</time></trkpt><trkpt lat="44.56010574842447" lon="10.075958214151779"><ele>842.1428571428571</ele><time>2026-03-28T14:18:11Z</time></trkpt><trkpt lat="44.56003527171028" lon="10.07595758214364"><ele>843.4285714285714</ele><time>2026-03-28T14:18:12Z</time></trkpt><trkpt lat="44.559963642560035" lon="10.075967480621635"><ele>844.7142857142857</ele><time>2026-03-28T14:18:13Z</time></trkpt><trkpt lat="44.559899058650316" lon="10.075996228202198"><ele>846.0</ele><time>2026-03-28T14:18:14Z</time></trkpt><trkpt lat="44.55978014966988" lon="10.07605268758083"><ele>846.0</ele><time>2026-03-28T14:18:16Z</time></trkpt><trkpt lat="44.55971161242094" lon="10.076071163125917"><ele>846.0</ele><time>2026-03-28T14:18:17Z</time></trkpt><trkpt lat="44.55964837436662" lon="10.076093618512402"><ele>846.0</ele><time>2026-03-28T14:18:18Z</time></trkpt><trkpt lat="44.559580108357935" lon="10.076104398233875"><ele>846.0</ele><time>2026-03-28T14:18:19Z</time></trkpt><trkpt lat="44.559517149790736" lon="10.076114354133937"><ele>846.0</ele><time>2026-03-28T14:18:20Z</time></trkpt><trkpt lat="44.55945110815553" lon="10.076126892504634"><ele>846.0</ele><time>2026-03-28T14:18:21Z</time></trkpt><trkpt lat="44.55938184411841" lon="10.076247694545955"><ele>846.0</ele><time>2026-03-28T14:18:23Z</time></trkpt><trkpt lat="44.55939673750479" lon="10.07634755238314"><ele>849.0</ele><time>2026-03-28T14:18:24Z</time></trkpt><trkpt lat="44.559393757140285" lon="10.076446099845748"><ele>852.0</ele><time>2026-03-28T14:18:25Z</time></trkpt><trkpt lat="44.5593763088288" lon="10.076568813738374"><ele>855.0</ele><time>2026-03-28T14:18:27Z</time></trkpt><trkpt lat="44.55929818323124" lon="10.076590614141342"><ele>858.0</ele><time>2026-03-28T14:18:29Z</time></trkpt><trkpt lat="44.5592398165556" lon="10.076496379683551"><ele>861.0</ele><time>2026-03-28T14:18:31Z</time></trkpt><trkpt lat="44.55923537690096" lon="10.076355786927058"><ele>864.0</ele><time>2026-03-28T14:18:33Z</time></trkpt><trkpt lat="44.55919855573626" lon="10.076213818247021"><ele>864.0</ele><time>2026-03-28T14:18:35Z</time></trkpt><trkpt lat="44.559099826496315" lon="10.076133090471139"><ele>864.0000000000001</ele><time>2026-03-28T14:18:37Z</time></trkpt><trkpt lat="44.5589808176077" lon="10.076141798146343"><ele>864.0000000000001</ele><time>2026-03-28T14:18:39Z</time></trkpt><trkpt lat="44.55887721502444" lon="10.076145134082253"><ele>864.0</ele><time>2026-03-28T14:18:41Z</time></trkpt><trkpt lat="44.55880581627544" lon="10.07615090459478"><ele>864.0</ele><time>2026-03-28T14:18:42Z</time></trkpt><trkpt lat="44.558716247545604" lon="10.076154407611979"><ele>863.6666666666666</ele><time>2026-03-28T14:18:44Z</time></trkpt><trkpt lat="44.55862068516347" lon="10.07613266390355"><ele>863.3333333333333</ele><time>2026-03-28T14:18:47Z</time></trkpt><trkpt lat="44.5585464620806" lon="10.076067770831193"><ele>863.0</ele><time>2026-03-28T14:18:49Z</time></trkpt><trkpt lat="44.55849212265639" lon="10.075980495148183"><ele>862.6666666666666</ele><time>2026-03-28T14:18:51Z</time></trkpt><trkpt lat="44.5584730801594" lon="10.07585312243351"><ele>862.3333333333333</ele><time>2026-03-28T14:18:53.999Z</time></trkpt><trkpt lat="44.55848327852117" lon="10.075743337077764"><ele>862.0</ele><time>2026-03-28T14:18:55.999Z</time></trkpt><trkpt lat="44.558524088579674" lon="10.075628115494426"><ele>865.9999999999999</ele><time>2026-03-28T14:18:58.999Z</time></trkpt><trkpt lat="44.5585357776527" lon="10.075522816729416"><ele>870.0</ele><time>2026-03-28T14:19:00.999Z</time></trkpt><trkpt lat="44.55856015107301" lon="10.075383067668453"><ele>874.0</ele><time>2026-03-28T14:19:02.999Z</time></trkpt><trkpt lat="44.558553631767026" lon="10.075284218194572"><ele>878.0</ele><time>2026-03-28T14:19:03.999Z</time></trkpt><trkpt lat="44.55850499584871" lon="10.075223212322506"><ele>881.9999999999999</ele><time>2026-03-28T14:19:06.999Z</time></trkpt><trkpt lat="44.55843628873515" lon="10.07516552488503"><ele>886.0</ele><time>2026-03-28T14:19:08.999Z</time></trkpt><trkpt lat="44.558390507274936" lon="10.075073756574833"><ele>886.0</ele><time>2026-03-28T14:19:10.999Z</time></trkpt><trkpt lat="44.558308606660546" lon="10.075029640566125"><ele>885.9999999999999</ele><time>2026-03-28T14:19:12.999Z</time></trkpt><trkpt lat="44.558243550863686" lon="10.074950822982732"><ele>885.9999999999999</ele><time>2026-03-28T14:19:14.999Z</time></trkpt><trkpt lat="44.558188674871296" lon="10.074860094873642"><ele>886.0</ele><time>2026-03-28T14:19:16.999Z</time></trkpt><trkpt lat="44.55811795790481" lon="10.074735825552942"><ele>886.0</ele><time>2026-03-28T14:19:18.999Z</time></trkpt><trkpt lat="44.55804262147933" lon="10.07462665173094"><ele>886.5999999999999</ele><time>2026-03-28T14:19:20.999Z</time></trkpt><trkpt lat="44.55797062572432" lon="10.074532952366491"><ele>887.1999999999999</ele><time>2026-03-28T14:19:22.999Z</time></trkpt><trkpt lat="44.55791239832562" lon="10.074418812436225"><ele>887.8000000000001</ele><time>2026-03-28T14:19:24.999Z</time></trkpt><trkpt lat="44.55784011176332" lon="10.074291785550479"><ele>888.4000000000001</ele><time>2026-03-28T14:19:26.999Z</time></trkpt><trkpt lat="44.557744983183845" lon="10.074202278521371"><ele>889.0</ele><time>2026-03-28T14:19:28.999Z</time></trkpt><trkpt lat="44.55770287490117" lon="10.074134509396123"><ele>894.4999999999999</ele><time>2026-03-28T14:19:30.999Z</time></trkpt><trkpt lat="44.55763461001636" lon="10.074029818199769"><ele>900.0</ele><time>2026-03-28T14:19:33.999Z</time></trkpt><trkpt lat="44.557574492237656" lon="10.073954424419147"><ele>905.5</ele><time>2026-03-28T14:19:35.999Z</time></trkpt><trkpt lat="44.55751661493679" lon="10.073905402358696"><ele>911.0</ele><time>2026-03-28T14:19:37.999Z</time></trkpt><trkpt lat="44.55747370293" lon="10.073803803893778"><ele>916.4999999999999</ele><time>2026-03-28T14:19:39.999Z</time></trkpt><trkpt lat="44.557427378574694" lon="10.073694281350008"><ele>922.0</ele><time>2026-03-28T14:19:41.999Z</time></trkpt><trkpt lat="44.557368080403684" lon="10.073572815276156"><ele>922.0</ele><time>2026-03-28T14:19:44Z</time></trkpt><trkpt lat="44.55729087940512" lon="10.073439050872427"><ele>922.0</ele><time>2026-03-28T14:19:46Z</time></trkpt><trkpt lat="44.55723104620584" lon="10.073292640854236"><ele>922.0</ele><time>2026-03-28T14:19:48Z</time></trkpt><trkpt lat="44.55716876963711" lon="10.073165200355698"><ele>922.0</ele><time>2026-03-28T14:19:50Z</time></trkpt><trkpt lat="44.55714739702897" lon="10.073031755942024"><ele>920.2</ele><time>2026-03-28T14:19:52Z</time></trkpt><trkpt lat="44.557114263260495" lon="10.072890089900914"><ele>918.4000000000001</ele><time>2026-03-28T14:19:54Z</time></trkpt><trkpt lat="44.55704645472849" lon="10.07275661552039"><ele>916.5999999999999</ele><time>2026-03-28T14:19:56Z</time></trkpt><trkpt lat="44.55699828036616" lon="10.072627905855382"><ele>914.8</ele><time>2026-03-28T14:19:58Z</time></trkpt><trkpt lat="44.55698820605286" lon="10.072517795746531"><ele>913.0</ele><time>2026-03-28T14:20:00Z</time></trkpt><trkpt lat="44.556989070088875" lon="10.072360754786285"><ele>915.9999999999999</ele><time>2026-03-28T14:20:02Z</time></trkpt><trkpt lat="44.556991722064055" lon="10.07226671921689"><ele>919.0</ele><time>2026-03-28T14:20:04Z</time></trkpt><trkpt lat="44.55698188367313" lon="10.072155316320233"><ele>922.0</ele><time>2026-03-28T14:20:06Z</time></trkpt><trkpt lat="44.55698102682406" lon="10.072015714601722"><ele>925.0</ele><time>2026-03-28T14:20:08Z</time></trkpt><trkpt lat="44.55697150904135" lon="10.071899325312863"><ele>927.9999999999999</ele><time>2026-03-28T14:20:10Z</time></trkpt><trkpt lat="44.55695112728704" lon="10.071792727343034"><ele>931.0</ele><time>2026-03-28T14:20:12Z</time></trkpt><trkpt lat="44.556922917168876" lon="10.071679738974485"><ele>930.9999999999999</ele><time>2026-03-28T14:20:14Z</time></trkpt><trkpt lat="44.556864214317535" lon="10.071593604496517"><ele>931.0</ele><time>2026-03-28T14:20:16Z</time></trkpt><trkpt lat="44.556802009119245" lon="10.071521628610398"><ele>931.0</ele><time>2026-03-28T14:20:18Z</time></trkpt><trkpt lat="44.55671576470184" lon="10.071471879137299"><ele>931.0</ele><time>2026-03-28T14:20:21Z</time></trkpt><trkpt lat="44.55663779579853" lon="10.07149070175921"><ele>930.9999999999999</ele><time>2026-03-28T14:20:24Z</time></trkpt><trkpt lat="44.556612056778874" lon="10.07160696450738"><ele>931.0</ele><time>2026-03-28T14:20:26Z</time></trkpt><trkpt lat="44.556622632631026" lon="10.0717317661258"><ele>930.9999999999999</ele><time>2026-03-28T14:20:28Z</time></trkpt><trkpt lat="44.556624183283965" lon="10.071827722058218"><ele>931.0</ele><time>2026-03-28T14:20:30Z</time></trkpt><trkpt lat="44.556609075656226" lon="10.071924995328578"><ele>931.0</ele><time>2026-03-28T14:20:32Z</time></trkpt><trkpt lat="44.55657262503857" lon="10.072051158520088"><ele>931.0</ele><time>2026-03-28T14:20:35Z</time></trkpt><trkpt lat="44.556510742449724" lon="10.072120142963424"><ele>930.9999999999999</ele><time>2026-03-28T14:20:37Z</time></trkpt><trkpt lat="44.55643542011456" lon="10.072177984376715"><ele>931.0</ele><time>2026-03-28T14:20:39Z</time></trkpt><trkpt lat="44.55635949134365" lon="10.072161832420287"><ele>931.0</ele><time>2026-03-28T14:20:41Z</time></trkpt><trkpt lat="44.55628539015449" lon="10.072104095636293"><ele>930.9999999999999</ele><time>2026-03-28T14:20:43Z</time></trkpt><trkpt lat="44.55624468835561" lon="10.071981263300406"><ele>930.9999999999999</ele><time>2026-03-28T14:20:46Z</time></trkpt><trkpt lat="44.55621111958747" lon="10.071889065049236"><ele>931.0</ele><time>2026-03-28T14:20:48Z</time></trkpt><trkpt lat="44.55616058833387" lon="10.071766472222956"><ele>931.0</ele><time>2026-03-28T14:20:50Z</time></trkpt><trkpt lat="44.55610798498982" lon="10.071650908819036"><ele>933.8333333333333</ele><time>2026-03-28T14:20:52Z</time></trkpt><trkpt lat="44.556017666079555" lon="10.071570858280866"><ele>936.6666666666666</ele><time>2026-03-28T14:20:54Z</time></trkpt><trkpt lat="44.55594867765884" lon="10.071544678137645"><ele>939.5</ele><time>2026-03-28T14:20:57Z</time></trkpt><trkpt lat="44.5558694324993" lon="10.071471927026678"><ele>942.3333333333333</ele><time>2026-03-28T14:21:20.999Z</time></trkpt><trkpt lat="44.55581593514056" lon="10.071398424091617"><ele>945.1666666666666</ele><time>2026-03-28T14:21:22.999Z</time></trkpt><trkpt lat="44.55576554039071" lon="10.071336407387742"><ele>948.0</ele><time>2026-03-28T14:21:24.999Z</time></trkpt><trkpt lat="44.55567607171168" lon="10.07124193046579"><ele>948.0</ele><time>2026-03-28T14:21:27.999Z</time></trkpt><trkpt lat="44.55559681543679" lon="10.071205193404023"><ele>948.0</ele><time>2026-03-28T14:21:29.999Z</time></trkpt><trkpt lat="44.555498197799835" lon="10.071172653325286"><ele>948.0</ele><time>2026-03-28T14:21:31.999Z</time></trkpt><trkpt lat="44.5554146255502" lon="10.071126331424328"><ele>948.0</ele><time>2026-03-28T14:21:33.999Z</time></trkpt><trkpt lat="44.55534362672833" lon="10.071074720746408"><ele>948.0</ele><time>2026-03-28T14:21:35.999Z</time></trkpt><trkpt lat="44.555262524475545" lon="10.071021024951856"><ele>948.0</ele><time>2026-03-28T14:21:37.999Z</time></trkpt><trkpt lat="44.55517033803974" lon="10.071016914315468"><ele>949.3333333333334</ele><time>2026-03-28T14:21:39.999Z</time></trkpt><trkpt lat="44.555094410453066" lon="10.071046598408909"><ele>950.6666666666667</ele><time>2026-03-28T14:21:41.999Z</time></trkpt><trkpt lat="44.555010068395816" lon="10.071055019306796"><ele>952.0</ele><time>2026-03-28T14:21:43.999Z</time></trkpt><trkpt lat="44.55494366787126" lon="10.071055238738854"><ele>953.3333333333334</ele><time>2026-03-28T14:21:45.999Z</time></trkpt><trkpt lat="44.554876089426465" lon="10.07106636112802"><ele>954.6666666666667</ele><time>2026-03-28T14:21:47.999Z</time></trkpt><trkpt lat="44.55480946122743" lon="10.071043913510533"><ele>956.0</ele><time>2026-03-28T14:21:50Z</time></trkpt><trkpt lat="44.5547243169984" lon="10.071025537871549"><ele>956.0000000000001</ele><time>2026-03-28T14:21:52Z</time></trkpt><trkpt lat="44.55464018914737" lon="10.07102618311968"><ele>956.0</ele><time>2026-03-28T14:21:55Z</time></trkpt><trkpt lat="44.5545420556286" lon="10.071006501373793"><ele>956.0</ele><time>2026-03-28T14:21:58Z</time></trkpt><trkpt lat="44.55447512697396" lon="10.070996263941097"><ele>956.0</ele><time>2026-03-28T14:22:00Z</time></trkpt><trkpt lat="44.5544029073498" lon="10.070951879407346"><ele>956.0000000000001</ele><time>2026-03-28T14:22:02Z</time></trkpt><trkpt lat="44.55431202224241" lon="10.070947018555092"><ele>956.0</ele><time>2026-03-28T14:22:04Z</time></trkpt><trkpt lat="44.55423043660246" lon="10.070878314689308"><ele>956.5000000000001</ele><time>2026-03-28T14:22:06Z</time></trkpt><trkpt lat="44.55417090959768" lon="10.070829749860465"><ele>957.0</ele><time>2026-03-28T14:22:08Z</time></trkpt><trkpt lat="44.55409917620029" lon="10.070763397760894"><ele>957.5</ele><time>2026-03-28T14:22:10Z</time></trkpt><trkpt lat="44.554021290211" lon="10.070695625793777"><ele>958.0</ele><time>2026-03-28T14:22:12Z</time></trkpt><trkpt lat="44.55395127163845" lon="10.070612752290675"><ele>958.5000000000001</ele><time>2026-03-28T14:22:14Z</time></trkpt><trkpt lat="44.55386076150613" lon="10.070535393604006"><ele>959.0</ele><time>2026-03-28T14:22:16Z</time></trkpt><trkpt lat="44.55377238737344" lon="10.070445591588259"><ele>961.3333333333334</ele><time>2026-03-28T14:22:18Z</time></trkpt><trkpt lat="44.55370083321943" lon="10.070376503693891"><ele>963.6666666666667</ele><time>2026-03-28T14:22:20Z</time></trkpt><trkpt lat="44.55362281003717" lon="10.070326738914929"><ele>966.0</ele><time>2026-03-28T14:22:22Z</time></trkpt><trkpt lat="44.553554407224304" lon="10.070271936001532"><ele>968.3333333333333</ele><time>2026-03-28T14:22:24Z</time></trkpt><trkpt lat="44.55348054147225" lon="10.070210950370804"><ele>970.6666666666666</ele><time>2026-03-28T14:22:26Z</time></trkpt><trkpt lat="44.55343366217954" lon="10.070150562708818"><ele>973.0</ele><time>2026-03-28T14:22:28Z</time></trkpt><trkpt lat="44.55336160674371" lon="10.070093016111123"><ele>972.9999999999999</ele><time>2026-03-28T14:22:31Z</time></trkpt><trkpt lat="44.55328804024395" lon="10.070035061234126"><ele>973.0</ele><time>2026-03-28T14:22:34Z</time></trkpt><trkpt lat="44.55321823628746" lon="10.070002329417507"><ele>973.0</ele><time>2026-03-28T14:22:36Z</time></trkpt><trkpt lat="44.55315529195573" lon="10.06996603209352"><ele>973.0</ele><time>2026-03-28T14:22:38Z</time></trkpt><trkpt lat="44.553075523593066" lon="10.069920433819949"><ele>972.9999999999999</ele><time>2026-03-28T14:22:41Z</time></trkpt><trkpt lat="44.55301659305697" lon="10.069873605244709"><ele>973.0</ele><time>2026-03-28T14:22:43Z</time></trkpt><trkpt lat="44.55293957257786" lon="10.069801674983108"><ele>973.0</ele><time>2026-03-28T14:22:46Z</time></trkpt><trkpt lat="44.5528846267998" lon="10.069745267683265"><ele>973.0</ele><time>2026-03-28T14:22:48Z</time></trkpt><trkpt lat="44.552819764606106" lon="10.069739489819014"><ele>973.0</ele><time>2026-03-28T14:22:51Z</time></trkpt><trkpt lat="44.5527805706489" lon="10.06982464491136"><ele>973.0</ele><time>2026-03-28T14:22:54Z</time></trkpt><trkpt lat="44.55282433969151" lon="10.069936577273191"><ele>973.0</ele><time>2026-03-28T14:22:57Z</time></trkpt><trkpt lat="44.55287874011142" lon="10.070016333202208"><ele>973.0</ele><time>2026-03-28T14:23:00Z</time></trkpt><trkpt lat="44.55293308222879" lon="10.070070502984382"><ele>973.0</ele><time>2026-03-28T14:23:02Z</time></trkpt><trkpt lat="44.552981668612034" lon="10.070130498518965"><ele>972.9999999999999</ele><time>2026-03-28T14:23:04Z</time></trkpt><trkpt lat="44.55303404669993" lon="10.070214774623656"><ele>973.0</ele><time>2026-03-28T14:23:06.999Z</time></trkpt><trkpt lat="44.552999361089974" lon="10.070319563251696"><ele>973.0</ele><time>2026-03-28T14:23:10.999Z</time></trkpt><trkpt lat="44.552913093205106" lon="10.070327816814459"><ele>973.0</ele><time>2026-03-28T14:23:13.999Z</time></trkpt><trkpt lat="44.55283122987078" lon="10.070362037645896"><ele>972.9999999999999</ele><time>2026-03-28T14:23:16.999Z</time></trkpt><trkpt lat="44.55276739641808" lon="10.070409953739148"><ele>973.0</ele><time>2026-03-28T14:23:19.999Z</time></trkpt><trkpt lat="44.55271098574711" lon="10.070451322556185"><ele>973.5714285714286</ele><time>2026-03-28T14:23:21.999Z</time></trkpt><trkpt lat="44.55265858123254" lon="10.070513050530462"><ele>974.1428571428571</ele><time>2026-03-28T14:23:24.999Z</time></trkpt><trkpt lat="44.55262033970813" lon="10.0706252470393"><ele>974.7142857142858</ele><time>2026-03-28T14:23:27.999Z</time></trkpt><trkpt lat="44.55256946553412" lon="10.070709842095525"><ele>975.2857142857143</ele><time>2026-03-28T14:23:30.999Z</time></trkpt><trkpt lat="44.55253119385826" lon="10.070785464098229"><ele>975.8571428571429</ele><time>2026-03-28T14:23:32.999Z</time></trkpt><trkpt lat="44.552473891915106" lon="10.070828484977906"><ele>976.4285714285716</ele><time>2026-03-28T14:23:35.999Z</time></trkpt><trkpt lat="44.5524023719677" lon="10.070878075926466"><ele>977.0000000000001</ele><time>2026-03-28T14:23:38.999Z</time></trkpt><trkpt lat="44.55233865122011" lon="10.070921535463123"><ele>977.0000000000001</ele><time>2026-03-28T14:23:40.999Z</time></trkpt><trkpt lat="44.55224050173071" lon="10.070952977352682"><ele>977.0</ele><time>2026-03-28T14:23:43.999Z</time></trkpt><trkpt lat="44.55218804290014" lon="10.071026700982777"><ele>977.0</ele><time>2026-03-28T14:23:44.999Z</time></trkpt><trkpt lat="44.552155829503484" lon="10.0711177359893"><ele>977.0</ele><time>2026-03-28T14:23:46.999Z</time></trkpt><trkpt lat="44.55212305476601" lon="10.071208805777909"><ele>977.0000000000001</ele><time>2026-03-28T14:23:48.999Z</time></trkpt><trkpt lat="44.55209173708549" lon="10.071295617846399"><ele>977.0</ele><time>2026-03-28T14:23:50.999Z</time></trkpt><trkpt lat="44.55205032047237" lon="10.071428456602861"><ele>979.857142857143</ele><time>2026-03-28T14:23:53.999Z</time></trkpt><trkpt lat="44.55200672147559" lon="10.071503300714477"><ele>982.7142857142858</ele><time>2026-03-28T14:25:18Z</time></trkpt><trkpt lat="44.55194634879523" lon="10.071469698850898"><ele>985.5714285714286</ele><time>2026-03-28T14:25:21.999Z</time></trkpt><trkpt lat="44.5518702095891" lon="10.071482186177748"><ele>988.4285714285714</ele><time>2026-03-28T14:25:24.999Z</time></trkpt><trkpt lat="44.55179780001065" lon="10.07142101318616"><ele>991.2857142857142</ele><time>2026-03-28T14:25:26.999Z</time></trkpt><trkpt lat="44.551752652698866" lon="10.07133543518899"><ele>994.142857142857</ele><time>2026-03-28T14:25:28.999Z</time></trkpt><trkpt lat="44.5517309352109" lon="10.071239804317809"><ele>996.9999999999999</ele><time>2026-03-28T14:25:30.999Z</time></trkpt><trkpt lat="44.55170982803956" lon="10.071136255377773"><ele>996.9999999999999</ele><time>2026-03-28T14:25:32.999Z</time></trkpt><trkpt lat="44.55168289778836" lon="10.071018682329688"><ele>997.0</ele><time>2026-03-28T14:25:35.999Z</time></trkpt><trkpt lat="44.55166305142743" lon="10.070889540454965"><ele>997.0</ele><time>2026-03-28T14:25:37.999Z</time></trkpt><trkpt lat="44.55164050391116" lon="10.070772570583518"><ele>997.0</ele><time>2026-03-28T14:25:39.999Z</time></trkpt><trkpt lat="44.55158196783167" lon="10.070678615856563"><ele>996.9999999999999</ele><time>2026-03-28T14:25:41.999Z</time></trkpt><trkpt lat="44.55150347582388" lon="10.070639780192263"><ele>997.0</ele><time>2026-03-28T14:25:43.999Z</time></trkpt><trkpt lat="44.55143476905021" lon="10.070636394626936"><ele>997.3333333333333</ele><time>2026-03-28T14:25:45.999Z</time></trkpt><trkpt lat="44.55136228135586" lon="10.070652819692018"><ele>997.6666666666666</ele><time>2026-03-28T14:25:47.999Z</time></trkpt><trkpt lat="44.55129047486031" lon="10.070681080818275"><ele>998.0</ele><time>2026-03-28T14:25:49.999Z</time></trkpt><trkpt lat="44.551217163505875" lon="10.070695222429338"><ele>998.3333333333333</ele><time>2026-03-28T14:25:51.999Z</time></trkpt><trkpt lat="44.55114016532711" lon="10.070674436645747"><ele>998.6666666666666</ele><time>2026-03-28T14:25:53.999Z</time></trkpt><trkpt lat="44.55104496983144" lon="10.070664024536278"><ele>999.0</ele><time>2026-03-28T14:25:55.999Z</time></trkpt><trkpt lat="44.55095357508441" lon="10.070676317627571"><ele>1002.1666666666666</ele><time>2026-03-28T14:25:57.999Z</time></trkpt><trkpt lat="44.55086794396933" lon="10.070629810710379"><ele>1005.3333333333333</ele><time>2026-03-28T14:25:59.999Z</time></trkpt><trkpt lat="44.55079821602211" lon="10.070574837134789"><ele>1008.5</ele><time>2026-03-28T14:26:03Z</time></trkpt><trkpt lat="44.55072078853047" lon="10.070577456170692"><ele>1011.6666666666666</ele><time>2026-03-28T14:26:05Z</time></trkpt><trkpt lat="44.550626929679225" lon="10.070571872559526"><ele>1014.8333333333333</ele><time>2026-03-28T14:26:08Z</time></trkpt><trkpt lat="44.55054823343242" lon="10.070570568100715"><ele>1018.0</ele><time>2026-03-28T14:26:10Z</time></trkpt><trkpt lat="44.55045557673672" lon="10.070535845952023"><ele>1021.4999999999999</ele><time>2026-03-28T14:26:13Z</time></trkpt><trkpt lat="44.5503614379005" lon="10.070551549818049"><ele>1025.0</ele><time>2026-03-28T14:26:15Z</time></trkpt><trkpt lat="44.55029673903678" lon="10.070626547876564"><ele>1028.5</ele><time>2026-03-28T14:26:17Z</time></trkpt><trkpt lat="44.55022496996847" lon="10.070695009542858"><ele>1032.0</ele><time>2026-03-28T14:26:19Z</time></trkpt><trkpt lat="44.550147289150175" lon="10.070738773092174"><ele>1035.5</ele><time>2026-03-28T14:26:21Z</time></trkpt><trkpt lat="44.550055923116325" lon="10.070769246743186"><ele>1039.0</ele><time>2026-03-28T14:26:23Z</time></trkpt><trkpt lat="44.54997348157112" lon="10.070740631779364"><ele>1039.0</ele><time>2026-03-28T14:26:25Z</time></trkpt><trkpt lat="44.549904991862874" lon="10.07076825762236"><ele>1039.0</ele><time>2026-03-28T14:26:27Z</time></trkpt><trkpt lat="44.549819601614985" lon="10.07082769229859"><ele>1039.0</ele><time>2026-03-28T14:26:29Z</time></trkpt><trkpt lat="44.54975301361781" lon="10.070871507194072"><ele>1039.0</ele><time>2026-03-28T14:26:31Z</time></trkpt><trkpt lat="44.549678782575086" lon="10.070896330483007"><ele>1039.0</ele><time>2026-03-28T14:26:33Z</time></trkpt><trkpt lat="44.54958487039099" lon="10.07089762998517"><ele>1039.0</ele><time>2026-03-28T14:26:35Z</time></trkpt><trkpt lat="44.54951327127187" lon="10.070942845572812"><ele>1042.2</ele><time>2026-03-28T14:26:37Z</time></trkpt><trkpt lat="44.549409872442965" lon="10.071013523159134"><ele>1045.4</ele><time>2026-03-28T14:26:41Z</time></trkpt><trkpt lat="44.54932514923199" lon="10.071081817189688"><ele>1048.6</ele><time>2026-03-28T14:26:43Z</time></trkpt><trkpt lat="44.549247050942206" lon="10.071165242258067"><ele>1051.8</ele><time>2026-03-28T14:26:45Z</time></trkpt><trkpt lat="44.54919218980771" lon="10.071221428487197"><ele>1055.0</ele><time>2026-03-28T14:26:47Z</time></trkpt><trkpt lat="44.54911327156996" lon="10.07129223407841"><ele>1055.0</ele><time>2026-03-28T14:26:50Z</time></trkpt><trkpt lat="44.54905424900748" lon="10.071347541230065"><ele>1055.0</ele><time>2026-03-28T14:26:52Z</time></trkpt><trkpt lat="44.54899932445009" lon="10.071409119608303"><ele>1055.0</ele><time>2026-03-28T14:26:54Z</time></trkpt><trkpt lat="44.54893566849145" lon="10.071439920729357"><ele>1055.0</ele><time>2026-03-28T14:26:56Z</time></trkpt><trkpt lat="44.54886517414484" lon="10.071499038018692"><ele>1055.0</ele><time>2026-03-28T14:26:58Z</time></trkpt><trkpt lat="44.54878611138836" lon="10.07151231104881"><ele>1055.0</ele><time>2026-03-28T14:27:18Z</time></trkpt><trkpt lat="44.54871312669208" lon="10.071427750112878"><ele>1058.5</ele><time>2026-03-28T14:27:21Z</time></trkpt><trkpt lat="44.548627568922676" lon="10.071409320081543"><ele>1062.0</ele><time>2026-03-28T14:27:22.999Z</time></trkpt><trkpt lat="44.54856014871799" lon="10.071365704437431"><ele>1065.5</ele><time>2026-03-28T14:27:24.999Z</time></trkpt><trkpt lat="44.54847287558489" lon="10.071319126091845"><ele>1069.0</ele><time>2026-03-28T14:27:26.999Z</time></trkpt><trkpt lat="44.548392403135416" lon="10.07127147778045"><ele>1072.5</ele><time>2026-03-28T14:27:28.999Z</time></trkpt><trkpt lat="44.548331465640516" lon="10.071321542647523"><ele>1076.0</ele><time>2026-03-28T14:27:30.999Z</time></trkpt><trkpt lat="44.54828325600054" lon="10.07144340899494"><ele>1076.0</ele><time>2026-03-28T14:27:33.999Z</time></trkpt><trkpt lat="44.548240098560186" lon="10.071519145099273"><ele>1076.0</ele><time>2026-03-28T14:27:35.999Z</time></trkpt><trkpt lat="44.5482050932774" lon="10.071607266645588"><ele>1076.0</ele><time>2026-03-28T14:27:37.999Z</time></trkpt><trkpt lat="44.54817981787102" lon="10.071693224698445"><ele>1076.0</ele><time>2026-03-28T14:27:39.999Z</time></trkpt><trkpt lat="44.54811594709591" lon="10.07180978932934"><ele>1076.0</ele><time>2026-03-28T14:27:42.999Z</time></trkpt><trkpt lat="44.54808197765458" lon="10.071885878720451"><ele>1076.0</ele><time>2026-03-28T14:27:44.999Z</time></trkpt><trkpt lat="44.54801713572218" lon="10.071869059059624"><ele>1076.0</ele><time>2026-03-28T14:27:48.999Z</time></trkpt><trkpt lat="44.54796200237119" lon="10.071786889878236"><ele>1076.0</ele><time>2026-03-28T14:27:50.999Z</time></trkpt><trkpt lat="44.547936846481505" lon="10.071700860296875"><ele>1076.0</ele><time>2026-03-28T14:27:52.999Z</time></trkpt><trkpt lat="44.54790842982056" lon="10.071596713909885"><ele>1076.0</ele><time>2026-03-28T14:27:54.999Z</time></trkpt><trkpt lat="44.547885487969005" lon="10.071462969787975"><ele>1076.0</ele><time>2026-03-28T14:27:56.999Z</time></trkpt><trkpt lat="44.54785730184069" lon="10.071349083146954"><ele>1076.0</ele><time>2026-03-28T14:27:58.999Z</time></trkpt><trkpt lat="44.54783441576166" lon="10.071235603011532"><ele>1076.0</ele><time>2026-03-28T14:28:00.999Z</time></trkpt><trkpt lat="44.54776720519675" lon="10.071214552833828"><ele>1080.142857142857</ele><time>2026-03-28T14:28:24Z</time></trkpt><trkpt lat="44.54770998860316" lon="10.071306575453708"><ele>1084.2857142857144</ele><time>2026-03-28T14:28:27Z</time></trkpt><trkpt lat="44.547686087903244" lon="10.071397483388001"><ele>1088.4285714285716</ele><time>2026-03-28T14:28:29Z</time></trkpt><trkpt lat="44.54764708403495" lon="10.071480144968298"><ele>1092.5714285714287</ele><time>2026-03-28T14:28:33Z</time></trkpt><trkpt lat="44.54757964678198" lon="10.071455748175476"><ele>1096.7142857142858</ele><time>2026-03-28T14:28:37Z</time></trkpt><trkpt lat="44.54764487177773" lon="10.071432922407247"><ele>1100.857142857143</ele><time>2026-03-28T14:29:12Z</time></trkpt><trkpt lat="44.54769671806609" lon="10.071364266653903"><ele>1105.0</ele><time>2026-03-28T14:29:15Z</time></trkpt><trkpt lat="44.547699558643245" lon="10.071250005753212"><ele>1105.0</ele><time>2026-03-28T14:29:19.999Z</time></trkpt><trkpt lat="44.54775932367164" lon="10.071192052399859"><ele>1105.0</ele><time>2026-03-28T14:29:23.999Z</time></trkpt><trkpt lat="44.54783586361708" lon="10.071205953382021"><ele>1105.0</ele><time>2026-03-28T14:31:02Z</time></trkpt><trkpt lat="44.54785639324879" lon="10.071319729316622"><ele>1105.0</ele><time>2026-03-28T14:31:21Z</time></trkpt><trkpt lat="44.54789273959387" lon="10.071413351858384"><ele>1105.0</ele><time>2026-03-28T14:31:31Z</time></trkpt><trkpt lat="44.54788860704135" lon="10.071522678620738"><ele>1105.0</ele><time>2026-03-28T14:31:33.999Z</time></trkpt><trkpt lat="44.547922853568274" lon="10.071609423224036"><ele>1100.857142857143</ele><time>2026-03-28T14:31:37.999Z</time></trkpt><trkpt lat="44.547949190204804" lon="10.071690074890109"><ele>1096.7142857142858</ele><time>2026-03-28T14:31:45.999Z</time></trkpt><trkpt lat="44.547987879899225" lon="10.071782888636434"><ele>1092.5714285714287</ele><time>2026-03-28T14:31:51.999Z</time></trkpt><trkpt lat="44.54802179895771" lon="10.071858696891255"><ele>1088.4285714285716</ele><time>2026-03-28T14:31:56.999Z</time></trkpt><trkpt lat="44.548095110476496" lon="10.071831521186372"><ele>1084.2857142857144</ele><time>2026-03-28T14:32:01.999Z</time></trkpt><trkpt lat="44.548140648696624" lon="10.071736142316885"><ele>1080.142857142857</ele><time>2026-03-28T14:32:04.999Z</time></trkpt><trkpt lat="44.5481595935242" lon="10.07161946282266"><ele>1076.0</ele><time>2026-03-28T14:32:07.999Z</time></trkpt><trkpt lat="44.548189885121694" lon="10.071524271672963"><ele>1076.0</ele><time>2026-03-28T14:32:11.999Z</time></trkpt><trkpt lat="44.54823766559224" lon="10.071438866260392"><ele>1076.0</ele><time>2026-03-28T14:32:15.999Z</time></trkpt><trkpt lat="44.548280389637135" lon="10.071359841232637"><ele>1076.0</ele><time>2026-03-28T14:32:19Z</time></trkpt><trkpt lat="44.54833080143453" lon="10.071306604156751"><ele>1076.0</ele><time>2026-03-28T14:32:22Z</time></trkpt><trkpt lat="44.5484060617477" lon="10.071280761733554"><ele>1076.0</ele><time>2026-03-28T14:32:25Z</time></trkpt><trkpt lat="44.5484704829391" lon="10.071297079016405"><ele>1076.0</ele><time>2026-03-28T14:32:27Z</time></trkpt><trkpt lat="44.54853924372749" lon="10.071351990829152"><ele>1076.0</ele><time>2026-03-28T14:32:30Z</time></trkpt><trkpt lat="44.54860255569219" lon="10.071374811649783"><ele>1076.0</ele><time>2026-03-28T14:32:32Z</time></trkpt><trkpt lat="44.548654477689844" lon="10.071428354997655"><ele>1076.0</ele><time>2026-03-28T14:32:34Z</time></trkpt><trkpt lat="44.54872276927162" lon="10.0714487596036"><ele>1076.0</ele><time>2026-03-28T14:32:36Z</time></trkpt><trkpt lat="44.54880733970824" lon="10.07146638820826"><ele>1076.0</ele><time>2026-03-28T14:32:39Z</time></trkpt><trkpt lat="44.548879341678074" lon="10.071452479773464"><ele>1076.0</ele><time>2026-03-28T14:32:41Z</time></trkpt><trkpt lat="44.548954062113744" lon="10.071406364759728"><ele>1076.0</ele><time>2026-03-28T14:32:44Z</time></trkpt><trkpt lat="44.549014008297" lon="10.07136787477907"><ele>1076.0</ele><time>2026-03-28T14:32:47Z</time></trkpt><trkpt lat="44.5490826408909" lon="10.071319136680529"><ele>1072.5</ele><time>2026-03-28T14:32:50Z</time></trkpt><trkpt lat="44.54915119218626" lon="10.071276419897737"><ele>1069.0</ele><time>2026-03-28T14:32:53Z</time></trkpt><trkpt lat="44.5492283119547" lon="10.071242262281453"><ele>1065.5</ele><time>2026-03-28T14:32:56Z</time></trkpt><trkpt lat="44.54930163608007" lon="10.071175834727175"><ele>1062.0</ele><time>2026-03-28T14:33:05Z</time></trkpt><trkpt lat="44.54935311053447" lon="10.071088541139002"><ele>1058.5</ele><time>2026-03-28T14:33:08Z</time></trkpt><trkpt lat="44.549425126666826" lon="10.071019699856434"><ele>1055.0</ele><time>2026-03-28T14:33:11Z</time></trkpt><trkpt lat="44.549493931325195" lon="10.070971295693655"><ele>1052.7142857142858</ele><time>2026-03-28T14:33:13Z</time></trkpt><trkpt lat="44.54956399091563" lon="10.070940760247947"><ele>1050.4285714285716</ele><time>2026-03-28T14:33:15Z</time></trkpt><trkpt lat="44.54962854731086" lon="10.07093884992518"><ele>1048.142857142857</ele><time>2026-03-28T14:33:17Z</time></trkpt><trkpt lat="44.54969238751701" lon="10.070909673532787"><ele>1045.857142857143</ele><time>2026-03-28T14:33:20Z</time></trkpt><trkpt lat="44.54975714445826" lon="10.070860841034223"><ele>1043.5714285714284</ele><time>2026-03-28T14:33:24Z</time></trkpt><trkpt lat="44.549822335274165" lon="10.070796829074322"><ele>1041.2857142857142</ele><time>2026-03-28T14:33:27Z</time></trkpt><trkpt lat="44.54990220760593" lon="10.070759893141108"><ele>1039.0</ele><time>2026-03-28T14:33:30Z</time></trkpt><trkpt lat="44.549970181158635" lon="10.07076138906022"><ele>1038.9999999999998</ele><time>2026-03-28T14:33:32.999Z</time></trkpt><trkpt lat="44.55004118343078" lon="10.070765605845986"><ele>1039.0</ele><time>2026-03-28T14:33:34.999Z</time></trkpt><trkpt lat="44.55010796555705" lon="10.070734229359028"><ele>1039.0</ele><time>2026-03-28T14:33:36.999Z</time></trkpt><trkpt lat="44.550164640942334" lon="10.070688425317504"><ele>1039.0</ele><time>2026-03-28T14:33:38.999Z</time></trkpt><trkpt lat="44.55022967933033" lon="10.07064242557759"><ele>1039.0</ele><time>2026-03-28T14:33:40.999Z</time></trkpt><trkpt lat="44.550292663272444" lon="10.070574689991274"><ele>1038.9999999999998</ele><time>2026-03-28T14:33:42.999Z</time></trkpt><trkpt lat="44.55037634602956" lon="10.070555674212532"><ele>1039.0</ele><time>2026-03-28T14:33:44.999Z</time></trkpt><trkpt lat="44.55045634293825" lon="10.070588038956185"><ele>1035.5</ele><time>2026-03-28T14:33:47.999Z</time></trkpt><trkpt lat="44.55053664687342" lon="10.070602526057785"><ele>1032.0</ele><time>2026-03-28T14:33:50.999Z</time></trkpt><trkpt lat="44.5506195281351" lon="10.070595937057702"><ele>1028.5</ele><time>2026-03-28T14:33:53.999Z</time></trkpt><trkpt lat="44.55069511973138" lon="10.070585998266695"><ele>1025.0</ele><time>2026-03-28T14:33:56.999Z</time></trkpt><trkpt lat="44.550786226246345" lon="10.070611182251989"><ele>1021.4999999999999</ele><time>2026-03-28T14:33:59.999Z</time></trkpt><trkpt lat="44.550859987777955" lon="10.07065993566362"><ele>1018.0</ele><time>2026-03-28T14:34:02.999Z</time></trkpt><trkpt lat="44.55094177736352" lon="10.07067421991463"><ele>1017.9999999999999</ele><time>2026-03-28T14:34:05.999Z</time></trkpt><trkpt lat="44.551021174748044" lon="10.070676582257532"><ele>1018.0</ele><time>2026-03-28T14:34:07.999Z</time></trkpt><trkpt lat="44.5511059743364" lon="10.07067336319157"><ele>1018.0</ele><time>2026-03-28T14:34:10.999Z</time></trkpt><trkpt lat="44.551185234572635" lon="10.070698052775564"><ele>1018.0</ele><time>2026-03-28T14:34:13.999Z</time></trkpt><trkpt lat="44.551256135899294" lon="10.070688691691702"><ele>1017.9999999999999</ele><time>2026-03-28T14:34:15.999Z</time></trkpt><trkpt lat="44.551321649067205" lon="10.07067242844209"><ele>1018.0</ele><time>2026-03-28T14:34:17.999Z</time></trkpt><trkpt lat="44.55139809679673" lon="10.07065501094878"><ele>1014.8333333333333</ele><time>2026-03-28T14:34:20.999Z</time></trkpt><trkpt lat="44.55149066966041" lon="10.07066751103352"><ele>1011.6666666666666</ele><time>2026-03-28T14:34:23.999Z</time></trkpt><trkpt lat="44.55155882851714" lon="10.070695968751465"><ele>1008.5</ele><time>2026-03-28T14:34:26Z</time></trkpt><trkpt lat="44.55161894684588" lon="10.070806208927456"><ele>1005.3333333333333</ele><time>2026-03-28T14:34:29Z</time></trkpt><trkpt lat="44.55165487698632" lon="10.070911796825824"><ele>1002.1666666666666</ele><time>2026-03-28T14:34:32Z</time></trkpt><trkpt lat="44.55167116269633" lon="10.071007750166705"><ele>999.0</ele><time>2026-03-28T14:34:34Z</time></trkpt><trkpt lat="44.5516962732991" lon="10.071101460015738"><ele>998.6666666666666</ele><time>2026-03-28T14:34:36Z</time></trkpt><trkpt lat="44.551711654170624" lon="10.07123274178076"><ele>998.3333333333333</ele><time>2026-03-28T14:34:39Z</time></trkpt><trkpt lat="44.55175449590486" lon="10.071334315577753"><ele>998.0</ele><time>2026-03-28T14:34:42Z</time></trkpt><trkpt lat="44.55181842935339" lon="10.071432791383451"><ele>997.6666666666666</ele><time>2026-03-28T14:34:45Z</time></trkpt><trkpt lat="44.55188568312426" lon="10.071432857929839"><ele>997.3333333333333</ele><time>2026-03-28T14:34:48Z</time></trkpt><trkpt lat="44.55195125107315" lon="10.071445648030185"><ele>997.0</ele><time>2026-03-28T14:34:51Z</time></trkpt><trkpt lat="44.55202402947781" lon="10.071440790635823"><ele>993.6666666666666</ele><time>2026-03-28T14:35:05Z</time></trkpt><trkpt lat="44.552058793382216" lon="10.07133067143508"><ele>990.3333333333333</ele><time>2026-03-28T14:35:08Z</time></trkpt><trkpt lat="44.55209369691807" lon="10.071229078781661"><ele>987.0</ele><time>2026-03-28T14:35:11Z</time></trkpt><trkpt lat="44.552124406403614" lon="10.071131329208098"><ele>983.6666666666667</ele><time>2026-03-28T14:35:13Z</time></trkpt><trkpt lat="44.55219053148356" lon="10.071029320297725"><ele>980.3333333333334</ele><time>2026-03-28T14:35:16Z</time></trkpt><trkpt lat="44.55225995725632" lon="10.070967544040581"><ele>977.0</ele><time>2026-03-28T14:35:19Z</time></trkpt><trkpt lat="44.552351881383" lon="10.070924883348894"><ele>977.0000000000001</ele><time>2026-03-28T14:35:22Z</time></trkpt><trkpt lat="44.55243064699806" lon="10.070880097427217"><ele>977.0</ele><time>2026-03-28T14:35:25Z</time></trkpt><trkpt lat="44.55247977016693" lon="10.070820322298818"><ele>977.0</ele><time>2026-03-28T14:35:27Z</time></trkpt><trkpt lat="44.552522591665024" lon="10.070749787380585"><ele>977.0</ele><time>2026-03-28T14:35:29Z</time></trkpt><trkpt lat="44.552564483834885" lon="10.070657178194045"><ele>977.0000000000001</ele><time>2026-03-28T14:35:32Z</time></trkpt><trkpt lat="44.55261386445785" lon="10.070590018876942"><ele>977.0</ele><time>2026-03-28T14:35:34Z</time></trkpt><trkpt lat="44.55268313257337" lon="10.070508959674472"><ele>977.3333333333334</ele><time>2026-03-28T14:35:37Z</time></trkpt><trkpt lat="44.55275012100493" lon="10.070480483424603"><ele>977.6666666666667</ele><time>2026-03-28T14:35:39.999Z</time></trkpt><trkpt lat="44.552819030677085" lon="10.070443488635178"><ele>978.0</ele><time>2026-03-28T14:35:41.999Z</time></trkpt><trkpt lat="44.55287922615262" lon="10.070413814659904"><ele>978.3333333333333</ele><time>2026-03-28T14:35:44.999Z</time></trkpt><trkpt lat="44.55294877154988" lon="10.070401521018079"><ele>978.6666666666666</ele><time>2026-03-28T14:35:46.999Z</time></trkpt><trkpt lat="44.55302663757653" lon="10.070330161302449"><ele>979.0</ele><time>2026-03-28T14:35:50.999Z</time></trkpt><trkpt lat="44.55299191333277" lon="10.070214811166927"><ele>978.9999999999999</ele><time>2026-03-28T14:35:53.999Z</time></trkpt><trkpt lat="44.55294080762023" lon="10.070129569552348"><ele>979.0</ele><time>2026-03-28T14:35:56.999Z</time></trkpt><trkpt lat="44.552886177656305" lon="10.07005021001934"><ele>979.0</ele><time>2026-03-28T14:35:59.999Z</time></trkpt><trkpt lat="44.55282043443464" lon="10.069964367623198"><ele>979.0</ele><time>2026-03-28T14:36:02.999Z</time></trkpt><trkpt lat="44.55278014692098" lon="10.069873111599316"><ele>978.9999999999999</ele><time>2026-03-28T14:36:05.999Z</time></trkpt><trkpt lat="44.552813070591064" lon="10.069779494202216"><ele>979.0</ele><time>2026-03-28T14:36:08.999Z</time></trkpt><trkpt lat="44.55287203916229" lon="10.069738005523487"><ele>977.9999999999999</ele><time>2026-03-28T14:36:10.999Z</time></trkpt><trkpt lat="44.55292504659556" lon="10.069786097571583"><ele>977.0</ele><time>2026-03-28T14:36:12.999Z</time></trkpt><trkpt lat="44.55300133398415" lon="10.069871653425626"><ele>976.0</ele><time>2026-03-28T14:36:15.999Z</time></trkpt><trkpt lat="44.553079065176846" lon="10.06993626983387"><ele>975.0</ele><time>2026-03-28T14:36:18.999Z</time></trkpt><trkpt lat="44.55314670176418" lon="10.06997092759908"><ele>973.9999999999999</ele><time>2026-03-28T14:36:20.999Z</time></trkpt><trkpt lat="44.55321072320245" lon="10.07001092160847"><ele>973.0</ele><time>2026-03-28T14:36:22.999Z</time></trkpt><trkpt lat="44.55327239032812" lon="10.070051212200447"><ele>972.9999999999999</ele><time>2026-03-28T14:36:24.999Z</time></trkpt><trkpt lat="44.553357335842044" lon="10.07011432038469"><ele>973.0</ele><time>2026-03-28T14:36:27.999Z</time></trkpt><trkpt lat="44.55340734389095" lon="10.07017803022421"><ele>973.0</ele><time>2026-03-28T14:36:29.999Z</time></trkpt><trkpt lat="44.55346871257699" lon="10.070260086539257"><ele>973.0</ele><time>2026-03-28T14:36:32Z</time></trkpt><trkpt lat="44.553547807407085" lon="10.070323784921895"><ele>972.9999999999999</ele><time>2026-03-28T14:36:34Z</time></trkpt><trkpt lat="44.55362121073368" lon="10.070361447911521"><ele>973.0</ele><time>2026-03-28T14:36:36Z</time></trkpt><trkpt lat="44.55368129953017" lon="10.070415597300885"><ele>974.8333333333333</ele><time>2026-03-28T14:36:38Z</time></trkpt><trkpt lat="44.55374563514203" lon="10.070478402880758"><ele>976.6666666666666</ele><time>2026-03-28T14:36:40Z</time></trkpt><trkpt lat="44.55380519369185" lon="10.070546630718859"><ele>978.5</ele><time>2026-03-28T14:36:42Z</time></trkpt><trkpt lat="44.55388087602928" lon="10.070620919573003"><ele>980.3333333333333</ele><time>2026-03-28T14:36:44Z</time></trkpt><trkpt lat="44.55395265656116" lon="10.070700887347895"><ele>982.1666666666666</ele><time>2026-03-28T14:36:46Z</time></trkpt><trkpt lat="44.55401660099573" lon="10.070748084353538"><ele>984.0</ele><time>2026-03-28T14:36:48Z</time></trkpt><trkpt lat="44.554080321023996" lon="10.070841059423888"><ele>979.8333333333334</ele><time>2026-03-28T14:36:50Z</time></trkpt><trkpt lat="44.5541514110318" lon="10.070881798900075"><ele>975.6666666666667</ele><time>2026-03-28T14:36:52Z</time></trkpt><trkpt lat="44.5542111685066" lon="10.07092311939637"><ele>971.5</ele><time>2026-03-28T14:36:54Z</time></trkpt><trkpt lat="44.55429319088387" lon="10.070970058203379"><ele>967.3333333333334</ele><time>2026-03-28T14:36:56Z</time></trkpt><trkpt lat="44.554356502300415" lon="10.070979877641324"><ele>963.1666666666667</ele><time>2026-03-28T14:36:58Z</time></trkpt><trkpt lat="44.55442145954781" lon="10.070996999334099"><ele>959.0</ele><time>2026-03-28T14:37:00Z</time></trkpt><trkpt lat="44.55451139494211" lon="10.071006403900874"><ele>958.5714285714286</ele><time>2026-03-28T14:37:03Z</time></trkpt><trkpt lat="44.554573623600575" lon="10.07102345285006"><ele>958.1428571428571</ele><time>2026-03-28T14:37:05Z</time></trkpt><trkpt lat="44.55464314754582" lon="10.071035417395393"><ele>957.7142857142858</ele><time>2026-03-28T14:37:08Z</time></trkpt><trkpt lat="44.55471164542569" lon="10.071032195180171"><ele>957.2857142857143</ele><time>2026-03-28T14:37:11Z</time></trkpt><trkpt lat="44.554796705790594" lon="10.071044256641054"><ele>956.8571428571429</ele><time>2026-03-28T14:37:14Z</time></trkpt><trkpt lat="44.554859543943046" lon="10.071054897561256"><ele>956.4285714285716</ele><time>2026-03-28T14:37:16Z</time></trkpt><trkpt lat="44.554938541068566" lon="10.071047485636353"><ele>956.0000000000001</ele><time>2026-03-28T14:37:18Z</time></trkpt><trkpt lat="44.55500633426193" lon="10.071037216842255"><ele>956.0000000000001</ele><time>2026-03-28T14:37:20Z</time></trkpt><trkpt lat="44.55509122743109" lon="10.071021298222554"><ele>956.0</ele><time>2026-03-28T14:37:22Z</time></trkpt><trkpt lat="44.55517129153044" lon="10.071020224035006"><ele>956.0</ele><time>2026-03-28T14:37:24Z</time></trkpt><trkpt lat="44.5552588373925" lon="10.071014962565753"><ele>956.0</ele><time>2026-03-28T14:37:26Z</time></trkpt><trkpt lat="44.555323541348365" lon="10.071062466827499"><ele>956.0000000000001</ele><time>2026-03-28T14:37:28Z</time></trkpt><trkpt lat="44.55540863010227" lon="10.071108804227269"><ele>956.0</ele><time>2026-03-28T14:37:30Z</time></trkpt><trkpt lat="44.5554968139947" lon="10.071160581763607"><ele>954.4</ele><time>2026-03-28T14:37:32Z</time></trkpt><trkpt lat="44.55558159435022" lon="10.071182037179845"><ele>952.8</ele><time>2026-03-28T14:37:34Z</time></trkpt><trkpt lat="44.55568358012085" lon="10.071238597168719"><ele>951.1999999999999</ele><time>2026-03-28T14:37:36Z</time></trkpt><trkpt lat="44.55574780101323" lon="10.071327183901602"><ele>949.5999999999999</ele><time>2026-03-28T14:37:38Z</time></trkpt><trkpt lat="44.55580672952301" lon="10.071374827775497"><ele>948.0</ele><time>2026-03-28T14:37:40Z</time></trkpt><trkpt lat="44.55587810097712" lon="10.071476871657403"><ele>947.9999999999999</ele><time>2026-03-28T14:37:42Z</time></trkpt><trkpt lat="44.555832541677354" lon="10.071552772647328"><ele>948.0</ele><time>2026-03-28T14:37:54.999Z</time></trkpt><trkpt lat="44.55576195374993" lon="10.071533198486256"><ele>947.9999999999999</ele><time>2026-03-28T14:38:02.999Z</time></trkpt><trkpt lat="44.55567996042818" lon="10.071511485217792"><ele>947.9999999999999</ele><time>2026-03-28T14:38:04.999Z</time></trkpt><trkpt lat="44.55560255336615" lon="10.071490211733133"><ele>948.0</ele><time>2026-03-28T14:38:06.999Z</time></trkpt><trkpt lat="44.555538155799354" lon="10.071491149915184"><ele>947.9999999999999</ele><time>2026-03-28T14:38:07.999Z</time></trkpt><trkpt lat="44.555475235381515" lon="10.071485595815691"><ele>947.9999999999999</ele><time>2026-03-28T14:38:08.999Z</time></trkpt><trkpt lat="44.555385543511164" lon="10.071466874224704"><ele>949.3333333333334</ele><time>2026-03-28T14:38:10.999Z</time></trkpt><trkpt lat="44.555288009997135" lon="10.071472345389385"><ele>950.6666666666667</ele><time>2026-03-28T14:38:12.999Z</time></trkpt><trkpt lat="44.55521356067938" lon="10.071500382181638"><ele>952.0</ele><time>2026-03-28T14:38:14.999Z</time></trkpt><trkpt lat="44.55511544845183" lon="10.07154830502963"><ele>953.3333333333334</ele><time>2026-03-28T14:38:16.999Z</time></trkpt><trkpt lat="44.55505246718782" lon="10.071606709122216"><ele>954.6666666666667</ele><time>2026-03-28T14:38:18.999Z</time></trkpt><trkpt lat="44.554994471326985" lon="10.071654941601055"><ele>956.0</ele><time>2026-03-28T14:38:20.999Z</time></trkpt><trkpt lat="44.55490081920807" lon="10.071655508831753"><ele>954.8333333333334</ele><time>2026-03-28T14:38:22.999Z</time></trkpt><trkpt lat="44.55482751416525" lon="10.071680367502267"><ele>953.6666666666667</ele><time>2026-03-28T14:38:25.999Z</time></trkpt><trkpt lat="44.55476048665139" lon="10.071757956992426"><ele>952.5</ele><time>2026-03-28T14:38:27.999Z</time></trkpt><trkpt lat="44.55467480506308" lon="10.071862868471147"><ele>951.3333333333333</ele><time>2026-03-28T14:38:30.999Z</time></trkpt><trkpt lat="44.55461247958936" lon="10.07188670561751"><ele>950.1666666666666</ele><time>2026-03-28T14:38:32.999Z</time></trkpt><trkpt lat="44.55450790349558" lon="10.071899279439245"><ele>949.0</ele><time>2026-03-28T14:38:35.999Z</time></trkpt><trkpt lat="44.554418670835474" lon="10.071904564630984"><ele>948.9999999999999</ele><time>2026-03-28T14:38:38Z</time></trkpt><trkpt lat="44.55433510910685" lon="10.071946942871776"><ele>949.0</ele><time>2026-03-28T14:38:40Z</time></trkpt><trkpt lat="44.55426137087773" lon="10.07198954005525"><ele>949.0</ele><time>2026-03-28T14:38:42Z</time></trkpt><trkpt lat="44.55417374834978" lon="10.071931420453286"><ele>949.0</ele><time>2026-03-28T14:38:45Z</time></trkpt><trkpt lat="44.55410657546318" lon="10.071895835343794"><ele>948.9999999999999</ele><time>2026-03-28T14:38:48Z</time></trkpt><trkpt lat="44.55403870195467" lon="10.071969211661923"><ele>949.0</ele><time>2026-03-28T14:38:51Z</time></trkpt><trkpt lat="44.55400014000745" lon="10.072094334955592"><ele>948.9999999999999</ele><time>2026-03-28T14:38:54Z</time></trkpt><trkpt lat="44.553945967008076" lon="10.07218611615348"><ele>949.0</ele><time>2026-03-28T14:38:56Z</time></trkpt><trkpt lat="44.55386877240989" lon="10.072236940483197"><ele>949.0</ele><time>2026-03-28T14:38:58Z</time></trkpt><trkpt lat="44.553802953003114" lon="10.072284587307955"><ele>949.0</ele><time>2026-03-28T14:39:00Z</time></trkpt><trkpt lat="44.55377329644247" lon="10.072375752834015"><ele>948.9999999999999</ele><time>2026-03-28T14:39:02Z</time></trkpt><trkpt lat="44.55380408119906" lon="10.072495383740682"><ele>949.0</ele><time>2026-03-28T14:39:04Z</time></trkpt><trkpt lat="44.553807075051125" lon="10.072595897317399"><ele>946.6</ele><time>2026-03-28T14:39:06Z</time></trkpt><trkpt lat="44.55382205219987" lon="10.072715407478562"><ele>944.2</ele><time>2026-03-28T14:39:08Z</time></trkpt><trkpt lat="44.553840690047956" lon="10.072834905635977"><ele>941.8000000000001</ele><time>2026-03-28T14:39:10Z</time></trkpt><trkpt lat="44.55384142641438" lon="10.072970858908754"><ele>939.4000000000001</ele><time>2026-03-28T14:39:12Z</time></trkpt><trkpt lat="44.55381386727807" lon="10.07309341934766"><ele>937.0</ele><time>2026-03-28T14:39:14Z</time></trkpt><trkpt lat="44.55376772139174" lon="10.073245031920019"><ele>937.3333333333333</ele><time>2026-03-28T14:39:16Z</time></trkpt><trkpt lat="44.55374369290491" lon="10.073359821729396"><ele>937.6666666666666</ele><time>2026-03-28T14:39:18Z</time></trkpt><trkpt lat="44.55369534821456" lon="10.073444733741335"><ele>938.0</ele><time>2026-03-28T14:39:20Z</time></trkpt><trkpt lat="44.553635364890276" lon="10.073521618300223"><ele>938.3333333333333</ele><time>2026-03-28T14:39:22Z</time></trkpt><trkpt lat="44.55357148155998" lon="10.073591984310948"><ele>938.6666666666666</ele><time>2026-03-28T14:39:24Z</time></trkpt><trkpt lat="44.55351801699826" lon="10.07366512086644"><ele>939.0</ele><time>2026-03-28T14:39:26Z</time></trkpt><trkpt lat="44.55345818738632" lon="10.073727916990743"><ele>941.3333333333334</ele><time>2026-03-28T14:39:28Z</time></trkpt><trkpt lat="44.55338541338237" lon="10.073804098888228"><ele>943.6666666666667</ele><time>2026-03-28T14:39:31Z</time></trkpt><trkpt lat="44.553435922223464" lon="10.073747930020932"><ele>946.0</ele><time>2026-03-28T14:40:03.999Z</time></trkpt><trkpt lat="44.55348562917506" lon="10.073686468603505"><ele>948.3333333333334</ele><time>2026-03-28T14:40:05.999Z</time></trkpt><trkpt lat="44.55355188006565" lon="10.073614409420017"><ele>950.6666666666667</ele><time>2026-03-28T14:40:07.999Z</time></trkpt><trkpt lat="44.55361520416354" lon="10.07353861147685"><ele>953.0</ele><time>2026-03-28T14:40:09.999Z</time></trkpt><trkpt lat="44.55366277453046" lon="10.07347973750173"><ele>950.2</ele><time>2026-03-28T14:40:10.999Z</time></trkpt><trkpt lat="44.55374349077399" lon="10.07338148301968"><ele>947.4</ele><time>2026-03-28T14:40:12.999Z</time></trkpt><trkpt lat="44.55377770601634" lon="10.073247293376477"><ele>944.6000000000001</ele><time>2026-03-28T14:40:14.999Z</time></trkpt><trkpt lat="44.553797830695466" lon="10.07311436214695"><ele>941.8000000000001</ele><time>2026-03-28T14:40:16.999Z</time></trkpt><trkpt lat="44.553844398665014" lon="10.072995099896769"><ele>939.0</ele><time>2026-03-28T14:40:18.999Z</time></trkpt><trkpt lat="44.55383169281193" lon="10.072877714764061"><ele>938.6666666666666</ele><time>2026-03-28T14:40:20.999Z</time></trkpt><trkpt lat="44.55382322730644" lon="10.072750926596338"><ele>938.3333333333333</ele><time>2026-03-28T14:40:22.999Z</time></trkpt><trkpt lat="44.553803031684375" lon="10.072651473405557"><ele>938.0</ele><time>2026-03-28T14:40:24.999Z</time></trkpt><trkpt lat="44.55379330275039" lon="10.072551521982318"><ele>937.6666666666666</ele><time>2026-03-28T14:40:26.999Z</time></trkpt><trkpt lat="44.55376754628619" lon="10.07244923805389"><ele>937.3333333333333</ele><time>2026-03-28T14:40:28.999Z</time></trkpt><trkpt lat="44.55377632701067" lon="10.072329219295835"><ele>937.0</ele><time>2026-03-28T14:40:30.999Z</time></trkpt><trkpt lat="44.55383432953855" lon="10.072254028888072"><ele>938.7142857142857</ele><time>2026-03-28T14:40:32.999Z</time></trkpt><trkpt lat="44.55390324717628" lon="10.072218078116013"><ele>940.4285714285716</ele><time>2026-03-28T14:40:34.999Z</time></trkpt><trkpt lat="44.55396853661387" lon="10.072143271115117"><ele>942.1428571428572</ele><time>2026-03-28T14:40:36.999Z</time></trkpt><trkpt lat="44.5539884256483" lon="10.07205154473138"><ele>943.8571428571429</ele><time>2026-03-28T14:40:39.999Z</time></trkpt><trkpt lat="44.55402126423652" lon="10.071971923824302"><ele>945.5714285714287</ele><time>2026-03-28T14:40:43Z</time></trkpt><trkpt lat="44.554081758206415" lon="10.071916668378163"><ele>947.2857142857144</ele><time>2026-03-28T14:40:45Z</time></trkpt><trkpt lat="44.55415918987047" lon="10.071963883938253"><ele>949.0000000000001</ele><time>2026-03-28T14:40:48Z</time></trkpt><trkpt lat="44.55423302470133" lon="10.072031799825686"><ele>948.9999999999999</ele><time>2026-03-28T14:40:50Z</time></trkpt><trkpt lat="44.55431236155037" lon="10.071984553651358"><ele>949.0</ele><time>2026-03-28T14:40:52Z</time></trkpt><trkpt lat="44.55439494275411" lon="10.071943488028568"><ele>949.0</ele><time>2026-03-28T14:40:54Z</time></trkpt><trkpt lat="44.55446882508775" lon="10.0719422849763"><ele>949.0</ele><time>2026-03-28T14:40:56Z</time></trkpt><trkpt lat="44.55454065430822" lon="10.071940037888599"><ele>948.9999999999999</ele><time>2026-03-28T14:40:58Z</time></trkpt><trkpt lat="44.55462939855156" lon="10.071904927113506"><ele>949.0</ele><time>2026-03-28T14:41:00Z</time></trkpt><trkpt lat="44.554692105417544" lon="10.071847288906646"><ele>950.4000000000001</ele><time>2026-03-28T14:41:02Z</time></trkpt><trkpt lat="44.55474963931093" lon="10.071734574519239"><ele>951.8000000000001</ele><time>2026-03-28T14:41:04Z</time></trkpt><trkpt lat="44.55483640235339" lon="10.071680744901197"><ele>953.1999999999999</ele><time>2026-03-28T14:41:06Z</time></trkpt><trkpt lat="44.55493935635665" lon="10.071664827310641"><ele>954.5999999999999</ele><time>2026-03-28T14:41:08Z</time></trkpt><trkpt lat="44.55503463303448" lon="10.071606654038412"><ele>956.0</ele><time>2026-03-28T14:41:10Z</time></trkpt><trkpt lat="44.555134787413834" lon="10.071545210840377"><ele>956.0000000000001</ele><time>2026-03-28T14:41:12Z</time></trkpt><trkpt lat="44.55523027641698" lon="10.07151280916241"><ele>956.0</ele><time>2026-03-28T14:41:14Z</time></trkpt><trkpt lat="44.55530545499166" lon="10.071493956961627"><ele>956.0</ele><time>2026-03-28T14:41:16Z</time></trkpt><trkpt lat="44.55539298277839" lon="10.07148333437752"><ele>956.0</ele><time>2026-03-28T14:41:18Z</time></trkpt><trkpt lat="44.555481799639374" lon="10.071498727266766"><ele>956.0000000000001</ele><time>2026-03-28T14:41:20Z</time></trkpt><trkpt lat="44.555576711105076" lon="10.071496016305591"><ele>956.0</ele><time>2026-03-28T14:41:22Z</time></trkpt><trkpt lat="44.55565777094227" lon="10.071519105171497"><ele>954.4</ele><time>2026-03-28T14:41:23Z</time></trkpt><trkpt lat="44.55578081704458" lon="10.071544414078438"><ele>952.8</ele><time>2026-03-28T14:41:25Z</time></trkpt><trkpt lat="44.55587112994716" lon="10.071561049398639"><ele>951.1999999999999</ele><time>2026-03-28T14:41:27Z</time></trkpt><trkpt lat="44.555964680946616" lon="10.071593527872853"><ele>949.5999999999999</ele><time>2026-03-28T14:41:29Z</time></trkpt><trkpt lat="44.556052152510865" lon="10.071669696883689"><ele>948.0</ele><time>2026-03-28T14:41:31Z</time></trkpt><trkpt lat="44.55612413503943" lon="10.071790942162318"><ele>945.1666666666666</ele><time>2026-03-28T14:41:33Z</time></trkpt><trkpt lat="44.556152131784366" lon="10.071890851591183"><ele>942.3333333333333</ele><time>2026-03-28T14:41:35Z</time></trkpt><trkpt lat="44.55617878822819" lon="10.071987545440663"><ele>939.5</ele><time>2026-03-28T14:41:37Z</time></trkpt><trkpt lat="44.55621462248491" lon="10.072072726185679"><ele>936.6666666666666</ele><time>2026-03-28T14:41:39Z</time></trkpt><trkpt lat="44.55627803720243" lon="10.072157366341354"><ele>933.8333333333333</ele><time>2026-03-28T14:41:42Z</time></trkpt><trkpt lat="44.556337615151875" lon="10.072207005563266"><ele>931.0</ele><time>2026-03-28T14:41:44Z</time></trkpt><trkpt lat="44.55642438034609" lon="10.072200531186557"><ele>930.9999999999999</ele><time>2026-03-28T14:41:46Z</time></trkpt><trkpt lat="44.55648187549863" lon="10.072147029472923"><ele>931.0</ele><time>2026-03-28T14:41:48Z</time></trkpt><trkpt lat="44.55654431457446" lon="10.072079052484485"><ele>931.0</ele><time>2026-03-28T14:41:50Z</time></trkpt><trkpt lat="44.55658075899856" lon="10.07195838657253"><ele>931.0</ele><time>2026-03-28T14:41:52Z</time></trkpt><trkpt lat="44.55659170447509" lon="10.071830344978084"><ele>930.9999999999999</ele><time>2026-03-28T14:41:54Z</time></trkpt><trkpt lat="44.556590530652784" lon="10.071682342038294"><ele>931.0</ele><time>2026-03-28T14:41:56Z</time></trkpt><trkpt lat="44.55659046030153" lon="10.071576216139064"><ele>930.9999999999999</ele><time>2026-03-28T14:41:58Z</time></trkpt><trkpt lat="44.5566232874635" lon="10.071482567052072"><ele>931.0</ele><time>2026-03-28T14:42:00Z</time></trkpt><trkpt lat="44.55672200833285" lon="10.07148293597964"><ele>931.0</ele><time>2026-03-28T14:42:01.999Z</time></trkpt><trkpt lat="44.55677074264086" lon="10.071551594769435"><ele>931.0</ele><time>2026-03-28T14:42:03.999Z</time></trkpt><trkpt lat="44.556844959213024" lon="10.07159907506189"><ele>930.9999999999999</ele><time>2026-03-28T14:42:06.999Z</time></trkpt><trkpt lat="44.55690987768012" lon="10.071655455472223"><ele>931.0</ele><time>2026-03-28T14:42:08.999Z</time></trkpt><trkpt lat="44.55693721041921" lon="10.071748132886263"><ele>930.9999999999999</ele><time>2026-03-28T14:42:10.999Z</time></trkpt><trkpt lat="44.5569552520169" lon="10.071857017575148"><ele>931.0</ele><time>2026-03-28T14:42:12.999Z</time></trkpt><trkpt lat="44.556970871754835" lon="10.071990182922937"><ele>931.0</ele><time>2026-03-28T14:42:15.999Z</time></trkpt><trkpt lat="44.55697153429718" lon="10.072079683609518"><ele>931.0</ele><time>2026-03-28T14:42:17.999Z</time></trkpt><trkpt lat="44.55697707507418" lon="10.072193376622714"><ele>930.9999999999999</ele><time>2026-03-28T14:42:19.999Z</time></trkpt><trkpt lat="44.55697981003769" lon="10.072358481666585"><ele>931.0</ele><time>2026-03-28T14:42:21.999Z</time></trkpt><trkpt lat="44.556967077634575" lon="10.072514316351196"><ele>933.0</ele><time>2026-03-28T14:42:23.999Z</time></trkpt><trkpt lat="44.556998859497924" lon="10.072668927224402"><ele>934.9999999999999</ele><time>2026-03-28T14:42:25.999Z</time></trkpt><trkpt lat="44.55705252139679" lon="10.072800850103992"><ele>936.9999999999999</ele><time>2026-03-28T14:42:27.999Z</time></trkpt><trkpt lat="44.55711518063403" lon="10.072917339149093"><ele>939.0</ele><time>2026-03-28T14:42:29.999Z</time></trkpt><trkpt lat="44.55714028946107" lon="10.073040830479341"><ele>941.0</ele><time>2026-03-28T14:42:31.999Z</time></trkpt><trkpt lat="44.55717113462972" lon="10.073195715578711"><ele>937.1999999999999</ele><time>2026-03-28T14:42:33.999Z</time></trkpt><trkpt lat="44.55723300019145" lon="10.073331415047596"><ele>933.3999999999999</ele><time>2026-03-28T14:42:35.999Z</time></trkpt><trkpt lat="44.55730124888973" lon="10.073457232323685"><ele>929.6</ele><time>2026-03-28T14:42:37.999Z</time></trkpt><trkpt lat="44.557362597495754" lon="10.073574967707458"><ele>925.8</ele><time>2026-03-28T14:42:39.999Z</time></trkpt><trkpt lat="44.557418514178366" lon="10.073707052309333"><ele>922.0</ele><time>2026-03-28T14:42:41.999Z</time></trkpt><trkpt lat="44.55745864575376" lon="10.073785220616147"><ele>922.0</ele><time>2026-03-28T14:42:42.999Z</time></trkpt><trkpt lat="44.557494570427565" lon="10.073868044298276"><ele>922.0</ele><time>2026-03-28T14:42:43.999Z</time></trkpt><trkpt lat="44.55757905115218" lon="10.073985709087708"><ele>922.0</ele><time>2026-03-28T14:42:45.999Z</time></trkpt><trkpt lat="44.55766570372392" lon="10.074091601978312"><ele>922.0</ele><time>2026-03-28T14:42:47.999Z</time></trkpt><trkpt lat="44.55773498071282" lon="10.074236647164494"><ele>922.0</ele><time>2026-03-28T14:42:50Z</time></trkpt><trkpt lat="44.55782763284193" lon="10.07434077571628"><ele>921.9999999999999</ele><time>2026-03-28T14:42:52Z</time></trkpt><trkpt lat="44.55786977813925" lon="10.074410691414615"><ele>922.0</ele><time>2026-03-28T14:42:53Z</time></trkpt><trkpt lat="44.557903343468254" lon="10.07449257871191"><ele>922.0</ele><time>2026-03-28T14:42:54Z</time></trkpt><trkpt lat="44.55799042944917" lon="10.074610493792898"><ele>922.0</ele><time>2026-03-28T14:42:56Z</time></trkpt><trkpt lat="44.55804055771874" lon="10.07466659071313"><ele>921.9999999999999</ele><time>2026-03-28T14:42:57Z</time></trkpt><trkpt lat="44.558106511445224" lon="10.074797548348181"><ele>922.0</ele><time>2026-03-28T14:42:59Z</time></trkpt><trkpt lat="44.55816569646971" lon="10.074915904147954"><ele>914.8</ele><time>2026-03-28T14:43:01Z</time></trkpt><trkpt lat="44.558231069017054" lon="10.07501014544912"><ele>907.6</ele><time>2026-03-28T14:43:03Z</time></trkpt><trkpt lat="44.55832170478449" lon="10.07508138457938"><ele>900.3999999999999</ele><time>2026-03-28T14:43:05Z</time></trkpt><trkpt lat="44.55838274402759" lon="10.075130035512352"><ele>893.1999999999999</ele><time>2026-03-28T14:43:06Z</time></trkpt><trkpt lat="44.55847354634666" lon="10.075205761184467"><ele>886.0</ele><time>2026-03-28T14:43:08Z</time></trkpt><trkpt lat="44.55852934549344" lon="10.075324171882562"><ele>886.0</ele><time>2026-03-28T14:43:10Z</time></trkpt><trkpt lat="44.55852704519576" lon="10.075469232863846"><ele>885.9999999999999</ele><time>2026-03-28T14:43:12Z</time></trkpt><trkpt lat="44.558501641861554" lon="10.07558129760355"><ele>885.9999999999999</ele><time>2026-03-28T14:43:14Z</time></trkpt><trkpt lat="44.55847194862389" lon="10.075686315587681"><ele>886.0</ele><time>2026-03-28T14:43:16Z</time></trkpt><trkpt lat="44.55844423353706" lon="10.075824409331837"><ele>886.0</ele><time>2026-03-28T14:43:18Z</time></trkpt><trkpt lat="44.55845324013473" lon="10.075955494869657"><ele>881.5999999999999</ele><time>2026-03-28T14:43:20Z</time></trkpt><trkpt lat="44.55851852040887" lon="10.07607656414858"><ele>877.1999999999999</ele><time>2026-03-28T14:43:22Z</time></trkpt><trkpt lat="44.55860512389754" lon="10.076139377556823"><ele>872.8000000000001</ele><time>2026-03-28T14:43:24Z</time></trkpt><trkpt lat="44.55872322057959" lon="10.076164085581581"><ele>868.4000000000001</ele><time>2026-03-28T14:43:26Z</time></trkpt><trkpt lat="44.55883097279858" lon="10.076149658269248"><ele>864.0</ele><time>2026-03-28T14:43:28Z</time></trkpt><trkpt lat="44.558936483371966" lon="10.076147858555649"><ele>864.0</ele><time>2026-03-28T14:43:30Z</time></trkpt><trkpt lat="44.559021060538996" lon="10.076150241068751"><ele>864.0000000000001</ele><time>2026-03-28T14:43:32Z</time></trkpt><trkpt lat="44.559111600504714" lon="10.076168980441308"><ele>864.0000000000001</ele><time>2026-03-28T14:43:34Z</time></trkpt><trkpt lat="44.55917682091689" lon="10.0762461098396"><ele>864.0</ele><time>2026-03-28T14:43:36Z</time></trkpt><trkpt lat="44.55920059224523" lon="10.076391170311826"><ele>864.0</ele><time>2026-03-28T14:43:38Z</time></trkpt><trkpt lat="44.55920982168574" lon="10.07652625655715"><ele>864.0</ele><time>2026-03-28T14:43:40Z</time></trkpt><trkpt lat="44.559266756679435" lon="10.076589706825715"><ele>864.0000000000001</ele><time>2026-03-28T14:43:42Z</time></trkpt><trkpt lat="44.55934205235169" lon="10.076555261162117"><ele>864.0000000000001</ele><time>2026-03-28T14:43:44Z</time></trkpt><trkpt lat="44.55936741137253" lon="10.076411476679208"><ele>864.0</ele><time>2026-03-28T14:43:46Z</time></trkpt><trkpt lat="44.559354674481924" lon="10.076229740447795"><ele>864.0</ele><time>2026-03-28T14:43:48Z</time></trkpt><trkpt lat="44.559418875157384" lon="10.07611232170736"><ele>864.0</ele><time>2026-03-28T14:43:50Z</time></trkpt><trkpt lat="44.55948555456322" lon="10.076097034466873"><ele>864.0</ele><time>2026-03-28T14:43:51Z</time></trkpt><trkpt lat="44.559561209826256" lon="10.076108325246697"><ele>864.0</ele><time>2026-03-28T14:43:52Z</time></trkpt><trkpt lat="44.5596450212988" lon="10.076095421824547"><ele>864.0</ele><time>2026-03-28T14:43:53Z</time></trkpt><trkpt lat="44.55971671711075" lon="10.07607702403576"><ele>864.0</ele><time>2026-03-28T14:43:54Z</time></trkpt><trkpt lat="44.5597922891992" lon="10.076050571791198"><ele>864.0</ele><time>2026-03-28T14:43:55Z</time></trkpt><trkpt lat="44.559859251854704" lon="10.076021709577738"><ele>864.0</ele><time>2026-03-28T14:43:56Z</time></trkpt><trkpt lat="44.55997469542376" lon="10.075979810175399"><ele>861.0</ele><time>2026-03-28T14:43:58Z</time></trkpt><trkpt lat="44.56003801943002" lon="10.0759708555146"><ele>858.0</ele><time>2026-03-28T14:43:59Z</time></trkpt><trkpt lat="44.56012361075872" lon="10.075961938266936"><ele>855.0</ele><time>2026-03-28T14:44:00Z</time></trkpt><trkpt lat="44.56020553664051" lon="10.07597514698625"><ele>852.0</ele><time>2026-03-28T14:44:01Z</time></trkpt><trkpt lat="44.56028232218739" lon="10.076003817186711"><ele>849.0</ele><time>2026-03-28T14:44:02Z</time></trkpt><trkpt lat="44.56036463439619" lon="10.076030184414766"><ele>846.0</ele><time>2026-03-28T14:44:03Z</time></trkpt><trkpt lat="44.5604388530558" lon="10.076046399357157"><ele>844.7142857142857</ele><time>2026-03-28T14:44:04Z</time></trkpt><trkpt lat="44.56051510000138" lon="10.076056292744028"><ele>843.4285714285714</ele><time>2026-03-28T14:44:04.999Z</time></trkpt><trkpt lat="44.560587549609906" lon="10.076067284311002"><ele>842.1428571428571</ele><time>2026-03-28T14:44:05.999Z</time></trkpt><trkpt lat="44.56065749165858" lon="10.07608415076245"><ele>840.8571428571429</ele><time>2026-03-28T14:44:06.999Z</time></trkpt><trkpt lat="44.56072608719848" lon="10.076094202997028"><ele>839.5714285714287</ele><time>2026-03-28T14:44:07.999Z</time></trkpt><trkpt lat="44.56080028842008" lon="10.076093858298087"><ele>838.2857142857143</ele><time>2026-03-28T14:44:08.999Z</time></trkpt><trkpt lat="44.56086009578687" lon="10.076055458774483"><ele>837.0</ele><time>2026-03-28T14:44:09.999Z</time></trkpt><trkpt lat="44.56093424045493" lon="10.076015738300159"><ele>837.0</ele><time>2026-03-28T14:44:10.999Z</time></trkpt><trkpt lat="44.56105158685688" lon="10.075941559133042"><ele>837.0</ele><time>2026-03-28T14:44:12.999Z</time></trkpt><trkpt lat="44.56111320372854" lon="10.075885457466494"><ele>837.0</ele><time>2026-03-28T14:44:13.999Z</time></trkpt><trkpt lat="44.56116818426834" lon="10.075816494669258"><ele>837.0</ele><time>2026-03-28T14:44:14.999Z</time></trkpt><trkpt lat="44.56122356645734" lon="10.075753315948225"><ele>837.0</ele><time>2026-03-28T14:44:15.999Z</time></trkpt><trkpt lat="44.561270022823585" lon="10.075684498277445"><ele>837.0</ele><time>2026-03-28T14:44:16.999Z</time></trkpt><trkpt lat="44.5613576191646" lon="10.075561856342606"><ele>837.0</ele><time>2026-03-28T14:44:18.999Z</time></trkpt><trkpt lat="44.56141386374257" lon="10.075513142226528"><ele>837.0</ele><time>2026-03-28T14:44:19.999Z</time></trkpt><trkpt lat="44.56147439318616" lon="10.07548200262682"><ele>837.0</ele><time>2026-03-28T14:44:20.999Z</time></trkpt><trkpt lat="44.56156679810735" lon="10.07543147917642"><ele>837.0</ele><time>2026-03-28T14:44:22.999Z</time></trkpt><trkpt lat="44.5616258309071" lon="10.075302854877641"><ele>837.0</ele><time>2026-03-28T14:44:24.999Z</time></trkpt><trkpt lat="44.56164942427428" lon="10.075148123884299"><ele>837.0</ele><time>2026-03-28T14:44:26.999Z</time></trkpt><trkpt lat="44.561667953017206" lon="10.0750028151816"><ele>837.0</ele><time>2026-03-28T14:44:28.999Z</time></trkpt><trkpt lat="44.5617160673176" lon="10.074905583406135"><ele>837.0</ele><time>2026-03-28T14:44:30.999Z</time></trkpt><trkpt lat="44.56178003787091" lon="10.074860765372152"><ele>837.0</ele><time>2026-03-28T14:44:32.999Z</time></trkpt><trkpt lat="44.561842207940906" lon="10.074827043409524"><ele>837.0</ele><time>2026-03-28T14:44:34.999Z</time></trkpt><trkpt lat="44.561922237933715" lon="10.074820199291688"><ele>837.0</ele><time>2026-03-28T14:44:36.999Z</time></trkpt><trkpt lat="44.56199107447798" lon="10.074849087605148"><ele>835.8333333333334</ele><time>2026-03-28T14:44:38.999Z</time></trkpt><trkpt lat="44.562068531723185" lon="10.074884639194948"><ele>834.6666666666667</ele><time>2026-03-28T14:44:40.999Z</time></trkpt><trkpt lat="44.56214794344687" lon="10.074888853013338"><ele>833.5</ele><time>2026-03-28T14:44:42.999Z</time></trkpt><trkpt lat="44.56221846466368" lon="10.074881809333547"><ele>832.3333333333334</ele><time>2026-03-28T14:44:44.999Z</time></trkpt><trkpt lat="44.56229682104777" lon="10.074889114440284"><ele>831.1666666666667</ele><time>2026-03-28T14:44:46.999Z</time></trkpt><trkpt lat="44.56238636706155" lon="10.074875334355713"><ele>830.0</ele><time>2026-03-28T14:44:48.999Z</time></trkpt><trkpt lat="44.56248471065975" lon="10.074863635854477"><ele>830.0000000000001</ele><time>2026-03-28T14:44:50.999Z</time></trkpt><trkpt lat="44.562571432001825" lon="10.07482562193839"><ele>830.0</ele><time>2026-03-28T14:44:52.999Z</time></trkpt><trkpt lat="44.56265034656408" lon="10.074786483596109"><ele>830.0</ele><time>2026-03-28T14:44:55Z</time></trkpt><trkpt lat="44.5627239212646" lon="10.074749772383003"><ele>830.0</ele><time>2026-03-28T14:44:57Z</time></trkpt><trkpt lat="44.56280208222348" lon="10.074740578145796"><ele>830.0000000000001</ele><time>2026-03-28T14:44:59Z</time></trkpt><trkpt lat="44.56288251118842" lon="10.074763809860727"><ele>830.0</ele><time>2026-03-28T14:45:01Z</time></trkpt><trkpt lat="44.562964727835364" lon="10.074798406828592"><ele>828.0000000000001</ele><time>2026-03-28T14:45:03Z</time></trkpt><trkpt lat="44.563044141512535" lon="10.074799056638668"><ele>826.0</ele><time>2026-03-28T14:45:05Z</time></trkpt><trkpt lat="44.56313570635808" lon="10.074785309404973"><ele>824.0</ele><time>2026-03-28T14:45:07Z</time></trkpt><trkpt lat="44.56322380758918" lon="10.074746909200192"><ele>822.0</ele><time>2026-03-28T14:45:09Z</time></trkpt><trkpt lat="44.56330114396528" lon="10.074694992261499"><ele>820.0000000000001</ele><time>2026-03-28T14:45:11Z</time></trkpt><trkpt lat="44.563384451140685" lon="10.074643164878491"><ele>818.0</ele><time>2026-03-28T14:45:13Z</time></trkpt><trkpt lat="44.563476058780815" lon="10.07458200864661"><ele>818.0</ele><time>2026-03-28T14:45:15Z</time></trkpt><trkpt lat="44.563564197544636" lon="10.074505812104892"><ele>818.0</ele><time>2026-03-28T14:45:17Z</time></trkpt><trkpt lat="44.5636365716848" lon="10.074419240935123"><ele>818.0</ele><time>2026-03-28T14:45:19Z</time></trkpt><trkpt lat="44.56372422557563" lon="10.074349264310055"><ele>818.0</ele><time>2026-03-28T14:45:21Z</time></trkpt><trkpt lat="44.56382737093808" lon="10.074304619061918"><ele>818.0</ele><time>2026-03-28T14:45:23Z</time></trkpt><trkpt lat="44.563900732149214" lon="10.074188834720003"><ele>817.3333333333334</ele><time>2026-03-28T14:45:25Z</time></trkpt><trkpt lat="44.56396368345179" lon="10.074081713537245"><ele>816.6666666666667</ele><time>2026-03-28T14:45:27Z</time></trkpt><trkpt lat="44.56393828039599" lon="10.073963732273024"><ele>816.0</ele><time>2026-03-28T14:45:28Z</time></trkpt><trkpt lat="44.56395417406201" lon="10.073859381987507"><ele>815.3333333333333</ele><time>2026-03-28T14:45:30Z</time></trkpt><trkpt lat="44.56393530083478" lon="10.073774900057627"><ele>814.6666666666666</ele><time>2026-03-28T14:45:32Z</time></trkpt><trkpt lat="44.56397515997473" lon="10.073663589655276"><ele>814.0</ele><time>2026-03-28T14:45:35Z</time></trkpt><trkpt lat="44.563993161837516" lon="10.073563427291814"><ele>813.9999999999999</ele><time>2026-03-28T14:45:38Z</time></trkpt><trkpt lat="44.56404599463714" lon="10.07349404565429"><ele>814.0</ele><time>2026-03-28T14:45:40Z</time></trkpt><trkpt lat="44.56412164169655" lon="10.073413066659"><ele>814.0</ele><time>2026-03-28T14:45:42Z</time></trkpt><trkpt lat="44.5642057385012" lon="10.073349542277992"><ele>814.0</ele><time>2026-03-28T14:45:44Z</time></trkpt><trkpt lat="44.564281648201046" lon="10.07330396692503"><ele>813.9999999999999</ele><time>2026-03-28T14:45:46Z</time></trkpt><trkpt lat="44.564348307034344" lon="10.073267749716068"><ele>814.0</ele><time>2026-03-28T14:45:48Z</time></trkpt><trkpt lat="44.564432462138114" lon="10.073228172206418"><ele>817.6</ele><time>2026-03-28T14:50:35.999Z</time></trkpt><trkpt lat="44.564508577028114" lon="10.073166514445715"><ele>821.2</ele><time>2026-03-28T14:50:36.999Z</time></trkpt><trkpt lat="44.564572225589515" lon="10.07311354777962"><ele>824.8000000000001</ele><time>2026-03-28T14:50:37.999Z</time></trkpt><trkpt lat="44.56463014758766" lon="10.073077808413107"><ele>828.4000000000001</ele><time>2026-03-28T14:50:38.999Z</time></trkpt><trkpt lat="44.56474026459544" lon="10.073054602205884"><ele>832.0</ele><time>2026-03-28T14:50:40.999Z</time></trkpt><trkpt lat="44.56484213379376" lon="10.07314345483769"><ele>832.0</ele><time>2026-03-28T14:50:42.999Z</time></trkpt><trkpt lat="44.56486570884943" lon="10.073229058462205"><ele>832.0</ele><time>2026-03-28T14:50:43.999Z</time></trkpt><trkpt lat="44.56490246798419" lon="10.073389002774194"><ele>832.0</ele><time>2026-03-28T14:50:45.999Z</time></trkpt><trkpt lat="44.5649334194077" lon="10.07355011559114"><ele>832.0</ele><time>2026-03-28T14:50:47.999Z</time></trkpt><trkpt lat="44.56495896552807" lon="10.073686287745993"><ele>832.0</ele><time>2026-03-28T14:50:49.999Z</time></trkpt><trkpt lat="44.56499779696309" lon="10.073773589549548"><ele>830.2</ele><time>2026-03-28T14:50:51.999Z</time></trkpt><trkpt lat="44.5650718450152" lon="10.073865366538655"><ele>828.4000000000001</ele><time>2026-03-28T14:50:53.999Z</time></trkpt><trkpt lat="44.56518052325844" lon="10.073882688393745"><ele>826.5999999999999</ele><time>2026-03-28T14:50:55.999Z</time></trkpt><trkpt lat="44.5652694927344" lon="10.073858699909417"><ele>824.8</ele><time>2026-03-28T14:50:57.999Z</time></trkpt><trkpt lat="44.56538256095393" lon="10.073815177591257"><ele>823.0</ele><time>2026-03-28T14:50:59.999Z</time></trkpt><trkpt lat="44.56548756464675" lon="10.073760384178632"><ele>823.0</ele><time>2026-03-28T14:51:01.999Z</time></trkpt><trkpt lat="44.565582230050005" lon="10.073738503295298"><ele>823.0</ele><time>2026-03-28T14:51:03.999Z</time></trkpt><trkpt lat="44.56568049336707" lon="10.073782026358224"><ele>823.0</ele><time>2026-03-28T14:51:05.999Z</time></trkpt><trkpt lat="44.56571872513372" lon="10.073947729561567"><ele>823.0</ele><time>2026-03-28T14:51:07.999Z</time></trkpt><trkpt lat="44.56579456882139" lon="10.074078125375612"><ele>823.0</ele><time>2026-03-28T14:51:09.999Z</time></trkpt><trkpt lat="44.565906680749805" lon="10.074157226549485"><ele>823.0</ele><time>2026-03-28T14:51:11.999Z</time></trkpt><trkpt lat="44.566034638992164" lon="10.074167407389988"><ele>823.0</ele><time>2026-03-28T14:51:14Z</time></trkpt><trkpt lat="44.56614356700105" lon="10.074161287189506"><ele>823.0</ele><time>2026-03-28T14:51:16Z</time></trkpt><trkpt lat="44.56624162757132" lon="10.074123614441481"><ele>823.0</ele><time>2026-03-28T14:51:18Z</time></trkpt><trkpt lat="44.566372110622154" lon="10.074099263421102"><ele>822.9999999999999</ele><time>2026-03-28T14:51:20Z</time></trkpt><trkpt lat="44.56648497412987" lon="10.074055434877582"><ele>823.0</ele><time>2026-03-28T14:51:22Z</time></trkpt><trkpt lat="44.56654815239849" lon="10.074061880831634"><ele>823.0</ele><time>2026-03-28T14:51:23Z</time></trkpt><trkpt lat="44.56661620005593" lon="10.074081789659742"><ele>823.0</ele><time>2026-03-28T14:51:24Z</time></trkpt><trkpt lat="44.56667880421004" lon="10.074103829999098"><ele>822.9999999999999</ele><time>2026-03-28T14:51:25Z</time></trkpt><trkpt lat="44.56680559816344" lon="10.074113535095671"><ele>823.0</ele><time>2026-03-28T14:51:27Z</time></trkpt><trkpt lat="44.566930669178106" lon="10.074119327144192"><ele>818.2</ele><time>2026-03-28T14:51:29Z</time></trkpt><trkpt lat="44.56704863280494" lon="10.074109581832284"><ele>813.4</ele><time>2026-03-28T14:51:31Z</time></trkpt><trkpt lat="44.56715671750768" lon="10.07407654938308"><ele>808.6</ele><time>2026-03-28T14:51:33Z</time></trkpt><trkpt lat="44.56721654003215" lon="10.074037880304806"><ele>803.8000000000001</ele><time>2026-03-28T14:51:34Z</time></trkpt><trkpt lat="44.567323305027884" lon="10.073958691108968"><ele>799.0</ele><time>2026-03-28T14:51:36Z</time></trkpt><trkpt lat="44.56738848625389" lon="10.073850597132054"><ele>798.9999999999999</ele><time>2026-03-28T14:51:38Z</time></trkpt><trkpt lat="44.56750304577662" lon="10.073831227393772"><ele>799.0</ele><time>2026-03-28T14:51:40Z</time></trkpt><trkpt lat="44.56756705338742" lon="10.073843319542243"><ele>799.0</ele><time>2026-03-28T14:51:41Z</time></trkpt><trkpt lat="44.567625398280526" lon="10.073878367682065"><ele>799.0</ele><time>2026-03-28T14:51:42Z</time></trkpt><trkpt lat="44.567732546553955" lon="10.073931731908155"><ele>798.9999999999999</ele><time>2026-03-28T14:51:44Z</time></trkpt><trkpt lat="44.56780306376569" lon="10.073966218103145"><ele>799.0</ele><time>2026-03-28T14:51:46Z</time></trkpt><trkpt lat="44.56786073667091" lon="10.073920306604698"><ele>796.2</ele><time>2026-03-28T14:51:48Z</time></trkpt><trkpt lat="44.56794503788979" lon="10.07389668109936"><ele>793.4000000000001</ele><time>2026-03-28T14:51:50Z</time></trkpt><trkpt lat="44.56804062192131" lon="10.07387094895688"><ele>790.6</ele><time>2026-03-28T14:51:52Z</time></trkpt><trkpt lat="44.56809627531375" lon="10.074038360504836"><ele>787.8</ele><time>2026-03-28T14:51:54Z</time></trkpt><trkpt lat="44.56808733323828" lon="10.074129186122036"><ele>785.0</ele><time>2026-03-28T14:51:55Z</time></trkpt><trkpt lat="44.56814313786077" lon="10.074227977232221"><ele>779.6</ele><time>2026-03-28T14:51:57Z</time></trkpt><trkpt lat="44.5682263449828" lon="10.074263029179457"><ele>774.2</ele><time>2026-03-28T14:51:59Z</time></trkpt><trkpt lat="44.568339618088096" lon="10.074296535086434"><ele>768.8</ele><time>2026-03-28T14:52:01Z</time></trkpt><trkpt lat="44.56845702255158" lon="10.074310955110798"><ele>763.4</ele><time>2026-03-28T14:52:03Z</time></trkpt><trkpt lat="44.568561923314185" lon="10.07427601017008"><ele>758.0</ele><time>2026-03-28T14:52:05Z</time></trkpt><trkpt lat="44.56866055224531" lon="10.074217415709192"><ele>755.6666666666666</ele><time>2026-03-28T14:52:07Z</time></trkpt><trkpt lat="44.56871594123973" lon="10.074174538442328"><ele>753.3333333333333</ele><time>2026-03-28T14:52:08Z</time></trkpt><trkpt lat="44.56877806723005" lon="10.074155761631557"><ele>751.0</ele><time>2026-03-28T14:52:09Z</time></trkpt><trkpt lat="44.568863379910304" lon="10.074059446398593"><ele>748.6666666666666</ele><time>2026-03-28T14:52:11Z</time></trkpt><trkpt lat="44.56890528106411" lon="10.073976009639777"><ele>746.3333333333334</ele><time>2026-03-28T14:52:12Z</time></trkpt><trkpt lat="44.568997448935775" lon="10.073898253356418"><ele>744.0</ele><time>2026-03-28T14:52:14Z</time></trkpt><trkpt lat="44.5690676110199" lon="10.073874003963718"><ele>748.2</ele><time>2026-03-28T14:52:15Z</time></trkpt><trkpt lat="44.56913276628016" lon="10.073842101856584"><ele>752.4000000000001</ele><time>2026-03-28T14:52:16Z</time></trkpt><trkpt lat="44.56921040092822" lon="10.073842615720634"><ele>756.6</ele><time>2026-03-28T14:52:17Z</time></trkpt><trkpt lat="44.56932671716291" lon="10.073799575291254"><ele>760.8</ele><time>2026-03-28T14:52:19Z</time></trkpt><trkpt lat="44.569401733754994" lon="10.07379486373544"><ele>765.0</ele><time>2026-03-28T14:52:20Z</time></trkpt><trkpt lat="44.56953357849217" lon="10.073782505779748"><ele>765.0</ele><time>2026-03-28T14:52:22Z</time></trkpt><trkpt lat="44.569595119537475" lon="10.073752736991848"><ele>765.0</ele><time>2026-03-28T14:52:23Z</time></trkpt><trkpt lat="44.56965713794716" lon="10.073704539410066"><ele>765.0</ele><time>2026-03-28T14:52:24Z</time></trkpt><trkpt lat="44.56972715734151" lon="10.073677120285561"><ele>765.0</ele><time>2026-03-28T14:52:25Z</time></trkpt><trkpt lat="44.56979451459344" lon="10.073652599904783"><ele>765.0</ele><time>2026-03-28T14:52:26Z</time></trkpt><trkpt lat="44.56988266237578" lon="10.073616345566512"><ele>765.0</ele><time>2026-03-28T14:52:27Z</time></trkpt><trkpt lat="44.56998750690175" lon="10.073623003681494"><ele>765.0</ele><time>2026-03-28T14:52:28.999Z</time></trkpt><trkpt lat="44.57010318844237" lon="10.07364178862642"><ele>765.0</ele><time>2026-03-28T14:52:30.999Z</time></trkpt><trkpt lat="44.57015032675957" lon="10.073718339747511"><ele>765.0</ele><time>2026-03-28T14:52:31.999Z</time></trkpt><trkpt lat="44.570202447266055" lon="10.073789599091175"><ele>765.0</ele><time>2026-03-28T14:52:32.999Z</time></trkpt><trkpt lat="44.57023294774326" lon="10.073868700301691"><ele>765.0</ele><time>2026-03-28T14:52:33.999Z</time></trkpt><trkpt lat="44.57025616061578" lon="10.073953324882847"><ele>765.0</ele><time>2026-03-28T14:52:34.999Z</time></trkpt><trkpt lat="44.570326156451095" lon="10.074084307943707"><ele>759.1666666666666</ele><time>2026-03-28T14:52:36.999Z</time></trkpt><trkpt lat="44.57037272755115" lon="10.07415281298445"><ele>753.3333333333334</ele><time>2026-03-28T14:52:37.999Z</time></trkpt><trkpt lat="44.570488505880924" lon="10.074253694178212"><ele>747.5</ele><time>2026-03-28T14:52:39.999Z</time></trkpt><trkpt lat="44.570560484770134" lon="10.074286498583099"><ele>741.6666666666667</ele><time>2026-03-28T14:52:40.999Z</time></trkpt><trkpt lat="44.57062535890221" lon="10.074298077601222"><ele>735.8333333333334</ele><time>2026-03-28T14:52:41.999Z</time></trkpt><trkpt lat="44.57069504898316" lon="10.0743194415733"><ele>730.0</ele><time>2026-03-28T14:52:42.999Z</time></trkpt><trkpt lat="44.57076629565851" lon="10.074310067748879"><ele>730.0</ele><time>2026-03-28T14:52:43.999Z</time></trkpt><trkpt lat="44.570828910612626" lon="10.074287435748564"><ele>730.0</ele><time>2026-03-28T14:52:44.999Z</time></trkpt><trkpt lat="44.570900878145565" lon="10.07425473852981"><ele>730.0</ele><time>2026-03-28T14:52:45.999Z</time></trkpt><trkpt lat="44.57097667909483" lon="10.074219523925194"><ele>730.0</ele><time>2026-03-28T14:52:46.999Z</time></trkpt><trkpt lat="44.571051382349246" lon="10.074176662089805"><ele>730.0</ele><time>2026-03-28T14:52:47.999Z</time></trkpt><trkpt lat="44.57112425279669" lon="10.074132452028506"><ele>730.0</ele><time>2026-03-28T14:52:48.999Z</time></trkpt><trkpt lat="44.571195249347014" lon="10.07409549528064"><ele>733.6666666666667</ele><time>2026-03-28T14:52:49.999Z</time></trkpt><trkpt lat="44.57126593138267" lon="10.074065347418127"><ele>737.3333333333334</ele><time>2026-03-28T14:52:50.999Z</time></trkpt><trkpt lat="44.57134174616281" lon="10.074035484851365"><ele>741.0</ele><time>2026-03-28T14:52:51.999Z</time></trkpt><trkpt lat="44.57140655610541" lon="10.074017498627923"><ele>744.6666666666666</ele><time>2026-03-28T14:52:52.999Z</time></trkpt><trkpt lat="44.571470069154664" lon="10.073992532549426"><ele>748.3333333333333</ele><time>2026-03-28T14:52:53.999Z</time></trkpt><trkpt lat="44.571538749553035" lon="10.074014895201403"><ele>752.0</ele><time>2026-03-28T14:52:54.999Z</time></trkpt><trkpt lat="44.571693145172524" lon="10.07403618123549"><ele>752.0</ele><time>2026-03-28T14:52:56.999Z</time></trkpt><trkpt lat="44.5717666502019" lon="10.07405613942959"><ele>752.0</ele><time>2026-03-28T14:52:57.999Z</time></trkpt><trkpt lat="44.571833122852695" lon="10.07411798377842"><ele>752.0</ele><time>2026-03-28T14:52:58.999Z</time></trkpt><trkpt lat="44.57190814766218" lon="10.074157126176399"><ele>752.0</ele><time>2026-03-28T14:52:59.999Z</time></trkpt><trkpt lat="44.57198218635702" lon="10.07418240312375"><ele>752.0</ele><time>2026-03-28T14:53:00.999Z</time></trkpt><trkpt lat="44.572050396036595" lon="10.074194711405687"><ele>752.0</ele><time>2026-03-28T14:53:01.999Z</time></trkpt><trkpt lat="44.572123680029456" lon="10.074197999992084"><ele>749.6666666666666</ele><time>2026-03-28T14:53:02.999Z</time></trkpt><trkpt lat="44.57219004946571" lon="10.074169039451489"><ele>747.3333333333333</ele><time>2026-03-28T14:53:03.999Z</time></trkpt><trkpt lat="44.572261511632774" lon="10.074168609208657"><ele>745.0</ele><time>2026-03-28T14:53:04.999Z</time></trkpt><trkpt lat="44.572347006039024" lon="10.074137741698369"><ele>742.6666666666666</ele><time>2026-03-28T14:53:05.999Z</time></trkpt><trkpt lat="44.57242691393816" lon="10.07409672041523"><ele>740.3333333333334</ele><time>2026-03-28T14:53:06.999Z</time></trkpt><trkpt lat="44.57249524042839" lon="10.074064614868076"><ele>738.0</ele><time>2026-03-28T14:53:07.999Z</time></trkpt><trkpt lat="44.57256334325085" lon="10.074040837628344"><ele>738.0</ele><time>2026-03-28T14:53:08.999Z</time></trkpt><trkpt lat="44.572632303663156" lon="10.074023056339003"><ele>738.0</ele><time>2026-03-28T14:53:09.999Z</time></trkpt><trkpt lat="44.57270249729408" lon="10.07400399707957"><ele>738.0</ele><time>2026-03-28T14:53:10.999Z</time></trkpt><trkpt lat="44.57278033818781" lon="10.07399212065419"><ele>738.0</ele><time>2026-03-28T14:53:11.999Z</time></trkpt><trkpt lat="44.57284586772408" lon="10.073986566459228"><ele>738.0</ele><time>2026-03-28T14:53:12.999Z</time></trkpt><trkpt lat="44.57292013986686" lon="10.073976684838083"><ele>738.0</ele><time>2026-03-28T14:53:13.999Z</time></trkpt><trkpt lat="44.572998455792366" lon="10.073975687527701"><ele>738.0</ele><time>2026-03-28T14:53:14.999Z</time></trkpt><trkpt lat="44.573074648182256" lon="10.073979710182495"><ele>734.3333333333334</ele><time>2026-03-28T14:53:15.999Z</time></trkpt><trkpt lat="44.573143009444465" lon="10.073997043219213"><ele>730.6666666666666</ele><time>2026-03-28T14:53:16.999Z</time></trkpt><trkpt lat="44.573246460447436" lon="10.073998885265247"><ele>727.0</ele><time>2026-03-28T14:53:19Z</time></trkpt><trkpt lat="44.57331647932386" lon="10.074029198766839"><ele>723.3333333333333</ele><time>2026-03-28T14:53:21Z</time></trkpt><trkpt lat="44.57338162646477" lon="10.074054297391717"><ele>719.6666666666666</ele><time>2026-03-28T14:53:24Z</time></trkpt><trkpt lat="44.57346316454887" lon="10.074112753630148"><ele>716.0</ele><time>2026-03-28T14:53:28Z</time></trkpt><trkpt lat="44.573550190898956" lon="10.073953132237216"><ele>716.0</ele><time>2026-03-28T14:53:30Z</time></trkpt><trkpt lat="44.573604622951564" lon="10.073897445414772"><ele>716.0</ele><time>2026-03-28T14:53:33Z</time></trkpt><trkpt lat="44.57365580762096" lon="10.073797167366122"><ele>716.0</ele><time>2026-03-28T14:53:41Z</time></trkpt><trkpt lat="44.57371366298303" lon="10.073733214046763"><ele>716.0</ele><time>2026-03-28T14:53:42Z</time></trkpt><trkpt lat="44.57376792123091" lon="10.07368553621763"><ele>716.0</ele><time>2026-03-28T14:53:43Z</time></trkpt><trkpt lat="44.573822231548995" lon="10.073631066711506"><ele>716.0</ele><time>2026-03-28T14:53:44Z</time></trkpt><trkpt lat="44.57390328687633" lon="10.073534477412496"><ele>714.75</ele><time>2026-03-28T14:53:46Z</time></trkpt><trkpt lat="44.574048993333214" lon="10.07338519341501"><ele>713.5</ele><time>2026-03-28T14:53:48Z</time></trkpt><trkpt lat="44.57411904224654" lon="10.073315868488262"><ele>712.25</ele><time>2026-03-28T14:53:49Z</time></trkpt><trkpt lat="44.57418506326524" lon="10.073193135812547"><ele>711.0</ele><time>2026-03-28T14:53:50Z</time></trkpt><trkpt lat="44.57424292908615" lon="10.073067420885993"><ele>711.0</ele><time>2026-03-28T14:53:51Z</time></trkpt><trkpt lat="44.57429157211545" lon="10.072961659037446"><ele>711.0</ele><time>2026-03-28T14:53:52Z</time></trkpt><trkpt lat="44.574330407575495" lon="10.072880669144325"><ele>711.0</ele><time>2026-03-28T14:53:53Z</time></trkpt><trkpt lat="44.57437729109952" lon="10.072785210955898"><ele>711.0</ele><time>2026-03-28T14:56:10Z</time></trkpt><trkpt lat="44.574346309167154" lon="10.072657832623682"><ele>711.0</ele><time>2026-03-28T14:56:12Z</time></trkpt><trkpt lat="44.574379837882844" lon="10.072528286450892"><ele>711.0</ele><time>2026-03-28T14:56:13Z</time></trkpt><trkpt lat="44.57442281525202" lon="10.072375752929357"><ele>712.5999999999999</ele><time>2026-03-28T14:56:14Z</time></trkpt><trkpt lat="44.57446109833156" lon="10.07223471922788"><ele>714.2</ele><time>2026-03-28T14:56:15Z</time></trkpt><trkpt lat="44.574504353919124" lon="10.07208406380404"><ele>715.8</ele><time>2026-03-28T14:56:16Z</time></trkpt><trkpt lat="44.574550752088214" lon="10.071945199578034"><ele>717.4000000000001</ele><time>2026-03-28T14:56:17Z</time></trkpt><trkpt lat="44.57460702347315" lon="10.07180641986904"><ele>719.0</ele><time>2026-03-28T14:56:18Z</time></trkpt><trkpt lat="44.57466029759147" lon="10.071658952936522"><ele>716.4000000000001</ele><time>2026-03-28T14:56:19Z</time></trkpt><trkpt lat="44.57472883530007" lon="10.071540024582514"><ele>713.8</ele><time>2026-03-28T14:56:20Z</time></trkpt><trkpt lat="44.574798766989254" lon="10.071425189192404"><ele>711.2</ele><time>2026-03-28T14:56:21Z</time></trkpt><trkpt lat="44.57488309433057" lon="10.071325075994855"><ele>708.5999999999999</ele><time>2026-03-28T14:56:22Z</time></trkpt><trkpt lat="44.57494251743148" lon="10.071195716477297"><ele>706.0</ele><time>2026-03-28T14:56:23Z</time></trkpt><trkpt lat="44.5750157874231" lon="10.071091022495908"><ele>706.0</ele><time>2026-03-28T14:56:24Z</time></trkpt><trkpt lat="44.57507508210283" lon="10.071001672401646"><ele>706.0</ele><time>2026-03-28T14:56:25Z</time></trkpt><trkpt lat="44.57512908419568" lon="10.07091644889727"><ele>706.0</ele><time>2026-03-28T14:56:26Z</time></trkpt><trkpt lat="44.57518898066484" lon="10.07082266122161"><ele>706.0</ele><time>2026-03-28T14:56:27Z</time></trkpt><trkpt lat="44.57525073387684" lon="10.07072450655475"><ele>706.0</ele><time>2026-03-28T14:56:28Z</time></trkpt><trkpt lat="44.57531922139689" lon="10.070625412158519"><ele>707.4</ele><time>2026-03-28T14:56:29Z</time></trkpt><trkpt lat="44.57539258099149" lon="10.070532697990423"><ele>708.8</ele><time>2026-03-28T14:56:30Z</time></trkpt><trkpt lat="44.575487741473765" lon="10.07046906038344"><ele>710.1999999999999</ele><time>2026-03-28T14:56:31Z</time></trkpt><trkpt lat="44.575583179969406" lon="10.070401725777723"><ele>711.5999999999999</ele><time>2026-03-28T14:56:32Z</time></trkpt><trkpt lat="44.575686381102415" lon="10.07033262898132"><ele>713.0</ele><time>2026-03-28T14:56:33Z</time></trkpt><trkpt lat="44.57577792148412" lon="10.070258859400317"><ele>713.0</ele><time>2026-03-28T14:56:34Z</time></trkpt><trkpt lat="44.57587162219926" lon="10.070181628189978"><ele>713.0</ele><time>2026-03-28T14:56:35Z</time></trkpt><trkpt lat="44.57596705839143" lon="10.070104969022898"><ele>713.0</ele><time>2026-03-28T14:56:36Z</time></trkpt><trkpt lat="44.576061051206985" lon="10.07005939904176"><ele>713.0</ele><time>2026-03-28T14:56:37Z</time></trkpt><trkpt lat="44.57615972508344" lon="10.070053708056253"><ele>713.0</ele><time>2026-03-28T14:56:38Z</time></trkpt><trkpt lat="44.57624567457332" lon="10.070111927098466"><ele>711.2</ele><time>2026-03-28T14:56:39Z</time></trkpt><trkpt lat="44.57633090307327" lon="10.070129887745647"><ele>709.4</ele><time>2026-03-28T14:56:40Z</time></trkpt><trkpt lat="44.57640993587797" lon="10.070155828323129"><ele>707.6</ele><time>2026-03-28T14:56:41Z</time></trkpt><trkpt lat="44.57650539748418" lon="10.07014690124713"><ele>705.8000000000001</ele><time>2026-03-28T14:56:42Z</time></trkpt><trkpt lat="44.576595239841616" lon="10.070109822112057"><ele>704.0</ele><time>2026-03-28T14:56:43Z</time></trkpt><trkpt lat="44.576670525735416" lon="10.070033200612858"><ele>707.4000000000001</ele><time>2026-03-28T14:56:44Z</time></trkpt><trkpt lat="44.57674370220123" lon="10.069937443414736"><ele>710.8</ele><time>2026-03-28T14:56:45Z</time></trkpt><trkpt lat="44.57681195789061" lon="10.069833177593525"><ele>714.2</ele><time>2026-03-28T14:56:46Z</time></trkpt><trkpt lat="44.57687008707744" lon="10.069720707512532"><ele>717.5999999999999</ele><time>2026-03-28T14:56:47Z</time></trkpt><trkpt lat="44.57692768444515" lon="10.069584085270494"><ele>721.0</ele><time>2026-03-28T14:56:48Z</time></trkpt><trkpt lat="44.576980998623235" lon="10.069438399566415"><ele>716.75</ele><time>2026-03-28T14:56:49Z</time></trkpt><trkpt lat="44.577041264249466" lon="10.069291290867541"><ele>712.5</ele><time>2026-03-28T14:56:50Z</time></trkpt><trkpt lat="44.577100449557804" lon="10.069151167169627"><ele>708.25</ele><time>2026-03-28T14:56:50.999Z</time></trkpt><trkpt lat="44.577175908860276" lon="10.068994953957496"><ele>704.0</ele><time>2026-03-28T14:56:51.999Z</time></trkpt><trkpt lat="44.57725210380101" lon="10.068835625080347"><ele>704.0</ele><time>2026-03-28T14:56:52.999Z</time></trkpt><trkpt lat="44.57733759711055" lon="10.068669386271436"><ele>704.0</ele><time>2026-03-28T14:56:53.999Z</time></trkpt><trkpt lat="44.577342569325566" lon="10.06856938504035"><ele>704.0</ele><time>2026-03-28T14:56:54.999Z</time></trkpt><trkpt lat="44.57735361662022" lon="10.068398531771443"><ele>704.0</ele><time>2026-03-28T14:56:55.999Z</time></trkpt><trkpt lat="44.577357048369066" lon="10.06820086024254"><ele>706.25</ele><time>2026-03-28T14:56:56.999Z</time></trkpt><trkpt lat="44.57739588580614" lon="10.068000774186244"><ele>708.5</ele><time>2026-03-28T14:56:57.999Z</time></trkpt><trkpt lat="44.57745800845531" lon="10.067804887530627"><ele>710.75</ele><time>2026-03-28T14:56:58.999Z</time></trkpt><trkpt lat="44.577504234920035" lon="10.067620915394004"><ele>713.0</ele><time>2026-03-28T14:56:59.999Z</time></trkpt><trkpt lat="44.57755091443879" lon="10.067441268971221"><ele>715.5</ele><time>2026-03-28T14:57:00.999Z</time></trkpt><trkpt lat="44.57759585848915" lon="10.067280847418393"><ele>718.0</ele><time>2026-03-28T14:57:01.999Z</time></trkpt><trkpt lat="44.577641657717464" lon="10.06715227690147"><ele>720.5</ele><time>2026-03-28T14:57:02.999Z</time></trkpt><trkpt lat="44.57771521896535" lon="10.067046659725953"><ele>723.0</ele><time>2026-03-28T14:57:03.999Z</time></trkpt><trkpt lat="44.577836023831814" lon="10.066958995872508"><ele>723.0</ele><time>2026-03-28T14:57:04.999Z</time></trkpt><trkpt lat="44.57799962459893" lon="10.066941490275477"><ele>723.0</ele><time>2026-03-28T14:57:05.999Z</time></trkpt><trkpt lat="44.57818149413055" lon="10.066889955499642"><ele>723.0</ele><time>2026-03-28T14:57:06.999Z</time></trkpt><trkpt lat="44.57833921462045" lon="10.066893072211691"><ele>723.0</ele><time>2026-03-28T14:57:07.999Z</time></trkpt><trkpt lat="44.57846658672093" lon="10.06694700797371"><ele>723.0</ele><time>2026-03-28T14:57:08.999Z</time></trkpt><trkpt lat="44.57858304937369" lon="10.066998356408014"><ele>723.0</ele><time>2026-03-28T14:57:09.999Z</time></trkpt><trkpt lat="44.578682863687725" lon="10.0670057822218"><ele>723.0</ele><time>2026-03-28T14:57:10.999Z</time></trkpt><trkpt lat="44.578763478320475" lon="10.066962372264383"><ele>723.0</ele><time>2026-03-28T14:57:11.999Z</time></trkpt><trkpt lat="44.5788281498385" lon="10.066843428131222"><ele>723.0</ele><time>2026-03-28T14:57:12.999Z</time></trkpt><trkpt lat="44.57888286671745" lon="10.066661699547412"><ele>723.0</ele><time>2026-03-28T14:57:13.999Z</time></trkpt><trkpt lat="44.57894459261965" lon="10.066440973514457"><ele>723.0</ele><time>2026-03-28T14:57:14.999Z</time></trkpt><trkpt lat="44.579037526829964" lon="10.066232320564476"><ele>723.0</ele><time>2026-03-28T14:57:15.999Z</time></trkpt><trkpt lat="44.579152646613544" lon="10.066022224298324"><ele>723.0</ele><time>2026-03-28T14:57:16.999Z</time></trkpt><trkpt lat="44.579257079329516" lon="10.065818095328144"><ele>723.0</ele><time>2026-03-28T14:57:17.999Z</time></trkpt><trkpt lat="44.579346124098194" lon="10.065616188336904"><ele>729.0</ele><time>2026-03-28T14:57:18.999Z</time></trkpt><trkpt lat="44.579424310790785" lon="10.06541458774712"><ele>735.0</ele><time>2026-03-28T14:57:19.999Z</time></trkpt><trkpt lat="44.579502178128514" lon="10.065220385339213"><ele>741.0</ele><time>2026-03-28T14:57:20.999Z</time></trkpt><trkpt lat="44.57957950749521" lon="10.065047786748469"><ele>740.8</ele><time>2026-03-28T14:57:21.999Z</time></trkpt><trkpt lat="44.57962382137079" lon="10.064912597986716"><ele>740.5999999999999</ele><time>2026-03-28T14:57:22.999Z</time></trkpt><trkpt lat="44.57963335273697" lon="10.064794606301216"><ele>740.4</ele><time>2026-03-28T14:57:23.999Z</time></trkpt><trkpt lat="44.57959810727156" lon="10.064663039941788"><ele>740.2</ele><time>2026-03-28T14:57:24.999Z</time></trkpt><trkpt lat="44.579508681462336" lon="10.064488225086123"><ele>740.0</ele><time>2026-03-28T14:57:25.999Z</time></trkpt><trkpt lat="44.579415271384285" lon="10.064291580505385"><ele>735.0</ele><time>2026-03-28T14:57:26.999Z</time></trkpt><trkpt lat="44.57938586787777" lon="10.06408834792034"><ele>730.0</ele><time>2026-03-28T14:57:27.999Z</time></trkpt><trkpt lat="44.57938172040322" lon="10.063887239719318"><ele>725.0</ele><time>2026-03-28T14:57:28.999Z</time></trkpt><trkpt lat="44.5793716194901" lon="10.063712422939021"><ele>720.0</ele><time>2026-03-28T14:57:29.999Z</time></trkpt><trkpt lat="44.57935728425054" lon="10.063559270075817"><ele>720.0</ele><time>2026-03-28T14:57:31Z</time></trkpt><trkpt lat="44.579288931550835" lon="10.063441212020878"><ele>720.0</ele><time>2026-03-28T14:57:32Z</time></trkpt><trkpt lat="44.57915387646235" lon="10.063322927839407"><ele>720.0</ele><time>2026-03-28T14:57:33Z</time></trkpt><trkpt lat="44.579006076024726" lon="10.063193060774545"><ele>720.0</ele><time>2026-03-28T14:57:34Z</time></trkpt><trkpt lat="44.578876412852225" lon="10.063029592342048"><ele>714.6666666666666</ele><time>2026-03-28T14:57:35Z</time></trkpt><trkpt lat="44.57878311340258" lon="10.062849024172635"><ele>709.3333333333333</ele><time>2026-03-28T14:57:36Z</time></trkpt><trkpt lat="44.57869352583248" lon="10.062689479111697"><ele>704.0</ele><time>2026-03-28T14:57:37Z</time></trkpt><trkpt lat="44.57868469156336" lon="10.06247184839799"><ele>701.6666666666666</ele><time>2026-03-28T14:57:38Z</time></trkpt><trkpt lat="44.57868145431568" lon="10.062253725542131"><ele>699.3333333333334</ele><time>2026-03-28T14:57:39Z</time></trkpt><trkpt lat="44.57869539505708" lon="10.062037644152367"><ele>697.0</ele><time>2026-03-28T14:57:40Z</time></trkpt><trkpt lat="44.578675381847994" lon="10.061806011650733"><ele>706.6666666666667</ele><time>2026-03-28T14:57:41Z</time></trkpt><trkpt lat="44.57862884082416" lon="10.061569968414497"><ele>716.3333333333334</ele><time>2026-03-28T14:57:42Z</time></trkpt><trkpt lat="44.57855998415927" lon="10.06132582760911"><ele>726.0</ele><time>2026-03-28T14:57:43Z</time></trkpt><trkpt lat="44.578461519683735" lon="10.061079430191416"><ele>726.0</ele><time>2026-03-28T14:57:44Z</time></trkpt><trkpt lat="44.5783458189652" lon="10.060837945569316"><ele>726.0</ele><time>2026-03-28T14:57:45Z</time></trkpt><trkpt lat="44.57823396054223" lon="10.060610295310594"><ele>726.0</ele><time>2026-03-28T14:57:46Z</time></trkpt><trkpt lat="44.57813866503961" lon="10.060396956671905"><ele>721.0</ele><time>2026-03-28T14:57:47Z</time></trkpt><trkpt lat="44.57806439356213" lon="10.060212900947576"><ele>716.0</ele><time>2026-03-28T14:57:48Z</time></trkpt><trkpt lat="44.577991894882835" lon="10.060070720066607"><ele>711.0</ele><time>2026-03-28T14:57:49Z</time></trkpt><trkpt lat="44.577910993517314" lon="10.059989714718933"><ele>706.0</ele><time>2026-03-28T14:57:50Z</time></trkpt><trkpt lat="44.57778785622419" lon="10.059936295593529"><ele>710.0</ele><time>2026-03-28T14:57:51Z</time></trkpt><trkpt lat="44.5776334610935" lon="10.059973686918033"><ele>714.0</ele><time>2026-03-28T14:57:52Z</time></trkpt><trkpt lat="44.57746994211462" lon="10.06006754354855"><ele>718.0</ele><time>2026-03-28T14:57:53Z</time></trkpt><trkpt lat="44.57729902540435" lon="10.06018394400391"><ele>718.0</ele><time>2026-03-28T14:57:54Z</time></trkpt><trkpt lat="44.57713659371388" lon="10.060289762942226"><ele>718.0</ele><time>2026-03-28T14:57:55Z</time></trkpt><trkpt lat="44.57697105568647" lon="10.060369202683034"><ele>718.0</ele><time>2026-03-28T14:57:56Z</time></trkpt><trkpt lat="44.57680049795862" lon="10.06041817071472"><ele>718.75</ele><time>2026-03-28T14:57:57Z</time></trkpt><trkpt lat="44.57662676757733" lon="10.060437967037334"><ele>719.5</ele><time>2026-03-28T14:57:58Z</time></trkpt><trkpt lat="44.57648630858327" lon="10.060376903733191"><ele>720.25</ele><time>2026-03-28T14:57:59Z</time></trkpt><trkpt lat="44.57636664973325" lon="10.060320980622468"><ele>721.0</ele><time>2026-03-28T14:58:00Z</time></trkpt><trkpt lat="44.57628477960414" lon="10.060160785345245"><ele>717.5</ele><time>2026-03-28T14:58:01Z</time></trkpt><trkpt lat="44.576175616782336" lon="10.059992370616998"><ele>714.0</ele><time>2026-03-28T14:58:02Z</time></trkpt><trkpt lat="44.57609963092235" lon="10.059818093072325"><ele>710.5</ele><time>2026-03-28T14:58:03Z</time></trkpt><trkpt lat="44.576013567592085" lon="10.059684843626943"><ele>707.0</ele><time>2026-03-28T14:58:04Z</time></trkpt><trkpt lat="44.57588402890677" lon="10.059610027671624"><ele>707.0</ele><time>2026-03-28T14:58:05Z</time></trkpt><trkpt lat="44.575718715426895" lon="10.059587934039842"><ele>707.0</ele><time>2026-03-28T14:58:06Z</time></trkpt><trkpt lat="44.575536865079854" lon="10.05961384708674"><ele>707.0</ele><time>2026-03-28T14:58:07Z</time></trkpt><trkpt lat="44.575360716451094" lon="10.059640799815043"><ele>714.0</ele><time>2026-03-28T14:58:08Z</time></trkpt><trkpt lat="44.57521395460745" lon="10.05964118366594"><ele>721.0</ele><time>2026-03-28T14:58:09Z</time></trkpt><trkpt lat="44.57507840573777" lon="10.059551930139799"><ele>728.0</ele><time>2026-03-28T14:58:10Z</time></trkpt><trkpt lat="44.57492951227617" lon="10.059464090191193"><ele>728.0</ele><time>2026-03-28T14:58:11Z</time></trkpt><trkpt lat="44.57478761147891" lon="10.05934401579846"><ele>728.0</ele><time>2026-03-28T14:58:12Z</time></trkpt><trkpt lat="44.57464590654823" lon="10.059219621063491"><ele>728.0</ele><time>2026-03-28T14:58:13Z</time></trkpt><trkpt lat="44.57449862956362" lon="10.059092507115661"><ele>729.6666666666666</ele><time>2026-03-28T14:58:14Z</time></trkpt><trkpt lat="44.57435902313682" lon="10.058963235798785"><ele>731.3333333333334</ele><time>2026-03-28T14:58:15Z</time></trkpt><trkpt lat="44.57425459240764" lon="10.058768872907466"><ele>733.0</ele><time>2026-03-28T14:58:16Z</time></trkpt><trkpt lat="44.57414825852153" lon="10.058545581928838"><ele>733.0</ele><time>2026-03-28T14:58:17Z</time></trkpt><trkpt lat="44.5740432207907" lon="10.058340902239806"><ele>733.0</ele><time>2026-03-28T14:58:18Z</time></trkpt><trkpt lat="44.57397082252639" lon="10.058169245227724"><ele>733.0</ele><time>2026-03-28T14:58:19Z</time></trkpt><trkpt lat="44.5739248487571" lon="10.05803186852444"><ele>733.0</ele><time>2026-03-28T14:58:20Z</time></trkpt><trkpt lat="44.57393278409513" lon="10.0578745346693"><ele>733.3333333333334</ele><time>2026-03-28T14:58:21Z</time></trkpt><trkpt lat="44.573981504531815" lon="10.057672873525632"><ele>733.6666666666666</ele><time>2026-03-28T14:58:22Z</time></trkpt><trkpt lat="44.574048615563456" lon="10.057440992771559"><ele>734.0</ele><time>2026-03-28T14:58:23Z</time></trkpt><trkpt lat="44.57413353588456" lon="10.05723822281256"><ele>734.25</ele><time>2026-03-28T14:58:24Z</time></trkpt><trkpt lat="44.57419266063448" lon="10.057054252214293"><ele>734.5</ele><time>2026-03-28T14:58:25Z</time></trkpt><trkpt lat="44.5742073151605" lon="10.056892340315677"><ele>734.75</ele><time>2026-03-28T14:58:26Z</time></trkpt><trkpt lat="44.574165651188935" lon="10.056702705573958"><ele>735.0</ele><time>2026-03-28T14:58:27Z</time></trkpt><trkpt lat="44.57407168803097" lon="10.056492058825105"><ele>732.0</ele><time>2026-03-28T14:58:28Z</time></trkpt><trkpt lat="44.5739851217634" lon="10.056257881211327"><ele>729.0</ele><time>2026-03-28T14:58:29Z</time></trkpt><trkpt lat="44.57394536243283" lon="10.056028777958675"><ele>726.0</ele><time>2026-03-28T14:58:30Z</time></trkpt><trkpt lat="44.57389495258265" lon="10.055819655036345"><ele>724.5</ele><time>2026-03-28T14:58:31Z</time></trkpt><trkpt lat="44.573802719135976" lon="10.055622118208637"><ele>723.0</ele><time>2026-03-28T14:58:32Z</time></trkpt><trkpt lat="44.57370159550508" lon="10.055475596669826"><ele>721.5</ele><time>2026-03-28T14:58:33Z</time></trkpt><trkpt lat="44.57359022933698" lon="10.055383472549284"><ele>720.0</ele><time>2026-03-28T14:58:34Z</time></trkpt><trkpt lat="44.57344081408129" lon="10.055352876915908"><ele>720.0</ele><time>2026-03-28T14:58:35Z</time></trkpt><trkpt lat="44.57325016674727" lon="10.055369110121617"><ele>720.0</ele><time>2026-03-28T14:58:36Z</time></trkpt><trkpt lat="44.573043787218346" lon="10.055375113405464"><ele>720.0</ele><time>2026-03-28T14:58:37Z</time></trkpt><trkpt lat="44.57284037367822" lon="10.055359767000475"><ele>718.0</ele><time>2026-03-28T14:58:38Z</time></trkpt><trkpt lat="44.57264175600338" lon="10.055363654301507"><ele>716.0</ele><time>2026-03-28T14:58:39Z</time></trkpt><trkpt lat="44.572435366272096" lon="10.055418559060339"><ele>714.0</ele><time>2026-03-28T14:58:40Z</time></trkpt><trkpt lat="44.572225117100544" lon="10.055511418314188"><ele>712.3333333333334</ele><time>2026-03-28T14:58:41Z</time></trkpt><trkpt lat="44.57200643957039" lon="10.055590668432368"><ele>710.6666666666667</ele><time>2026-03-28T14:58:42Z</time></trkpt><trkpt lat="44.57178768520702" lon="10.055614665688779"><ele>709.0</ele><time>2026-03-28T14:58:43Z</time></trkpt><trkpt lat="44.57158292259607" lon="10.055631935278093"><ele>709.0</ele><time>2026-03-28T14:58:44Z</time></trkpt><trkpt lat="44.571379512581544" lon="10.055671105597872"><ele>709.0</ele><time>2026-03-28T14:58:45Z</time></trkpt><trkpt lat="44.57119521968411" lon="10.055695927383848"><ele>709.0</ele><time>2026-03-28T14:58:46Z</time></trkpt><trkpt lat="44.57103258759831" lon="10.055749942744622"><ele>709.3333333333334</ele><time>2026-03-28T14:58:47Z</time></trkpt><trkpt lat="44.57086297394703" lon="10.05574123500852"><ele>709.6666666666666</ele><time>2026-03-28T14:58:48Z</time></trkpt><trkpt lat="44.570683844571704" lon="10.055728410643198"><ele>710.0</ele><time>2026-03-28T14:58:49Z</time></trkpt><trkpt lat="44.57050877544927" lon="10.055706991559392"><ele>710.0</ele><time>2026-03-28T14:58:50Z</time></trkpt><trkpt lat="44.57035838168487" lon="10.055652486755188"><ele>710.0</ele><time>2026-03-28T14:58:51Z</time></trkpt><trkpt lat="44.57020526115195" lon="10.055580533728447"><ele>710.0</ele><time>2026-03-28T14:58:51.999Z</time></trkpt><trkpt lat="44.570071543276875" lon="10.055518913088967"><ele>714.25</ele><time>2026-03-28T14:58:52.999Z</time></trkpt><trkpt lat="44.569958665121526" lon="10.055401803847118"><ele>718.5</ele><time>2026-03-28T14:58:53.999Z</time></trkpt><trkpt lat="44.56985924785928" lon="10.055270113479352"><ele>722.75</ele><time>2026-03-28T14:58:54.999Z</time></trkpt><trkpt lat="44.56975771995568" lon="10.055176093593404"><ele>727.0</ele><time>2026-03-28T14:58:55.999Z</time></trkpt><trkpt lat="44.56962778378509" lon="10.055117284313175"><ele>731.0</ele><time>2026-03-28T14:58:56.999Z</time></trkpt><trkpt lat="44.56946717737928" lon="10.055122971425371"><ele>735.0</ele><time>2026-03-28T14:58:57.999Z</time></trkpt><trkpt lat="44.56929579050366" lon="10.055192023787644"><ele>739.0</ele><time>2026-03-28T14:58:58.999Z</time></trkpt><trkpt lat="44.569127607513906" lon="10.055254263925528"><ele>739.0</ele><time>2026-03-28T14:58:59.999Z</time></trkpt><trkpt lat="44.56897364254632" lon="10.055285837878497"><ele>739.0</ele><time>2026-03-28T14:59:00.999Z</time></trkpt><trkpt lat="44.568822768163486" lon="10.055294267016384"><ele>739.0</ele><time>2026-03-28T14:59:01.999Z</time></trkpt><trkpt lat="44.56867830872998" lon="10.05528757354175"><ele>739.5</ele><time>2026-03-28T14:59:02.999Z</time></trkpt><trkpt lat="44.568527056098596" lon="10.055270923413921"><ele>740.0</ele><time>2026-03-28T14:59:03.999Z</time></trkpt><trkpt lat="44.568378107156605" lon="10.055248291773061"><ele>740.5</ele><time>2026-03-28T14:59:04.999Z</time></trkpt><trkpt lat="44.568234114702435" lon="10.055206542356608"><ele>741.0</ele><time>2026-03-28T14:59:05.999Z</time></trkpt><trkpt lat="44.56810590551921" lon="10.055092961595307"><ele>740.25</ele><time>2026-03-28T14:59:06.999Z</time></trkpt><trkpt lat="44.567997946384004" lon="10.054946701839832"><ele>739.5</ele><time>2026-03-28T14:59:07.999Z</time></trkpt><trkpt lat="44.567897216184726" lon="10.054794408502591"><ele>738.75</ele><time>2026-03-28T14:59:08.999Z</time></trkpt><trkpt lat="44.56783410118399" lon="10.054628347756298"><ele>738.0</ele><time>2026-03-28T14:59:09.999Z</time></trkpt><trkpt lat="44.56775654026449" lon="10.054477992773037"><ele>738.0</ele><time>2026-03-28T14:59:10.999Z</time></trkpt><trkpt lat="44.56765782286081" lon="10.054351831501233"><ele>738.0</ele><time>2026-03-28T14:59:11.999Z</time></trkpt><trkpt lat="44.56752564239518" lon="10.054255716467493"><ele>738.0</ele><time>2026-03-28T14:59:12.999Z</time></trkpt><trkpt lat="44.56738161420907" lon="10.054178973413592"><ele>738.0</ele><time>2026-03-28T14:59:13.999Z</time></trkpt><trkpt lat="44.5672528418815" lon="10.054100495871433"><ele>737.0</ele><time>2026-03-28T14:59:14.999Z</time></trkpt><trkpt lat="44.56713442735579" lon="10.05402286704917"><ele>736.0</ele><time>2026-03-28T14:59:15.999Z</time></trkpt><trkpt lat="44.567008246651525" lon="10.053932342421755"><ele>735.0</ele><time>2026-03-28T14:59:16.999Z</time></trkpt><trkpt lat="44.5668894766944" lon="10.05383041855495"><ele>734.0</ele><time>2026-03-28T14:59:17.999Z</time></trkpt><trkpt lat="44.56681406559782" lon="10.05367427920785"><ele>737.25</ele><time>2026-03-28T14:59:18.999Z</time></trkpt><trkpt lat="44.56675553203892" lon="10.053505808405731"><ele>740.5</ele><time>2026-03-28T14:59:19.999Z</time></trkpt><trkpt lat="44.56672788722916" lon="10.053320129961824"><ele>743.75</ele><time>2026-03-28T14:59:20.999Z</time></trkpt><trkpt lat="44.56673281239728" lon="10.053126773748483"><ele>747.0</ele><time>2026-03-28T14:59:21.999Z</time></trkpt><trkpt lat="44.566752837467874" lon="10.052931188443308"><ele>748.3333333333334</ele><time>2026-03-28T14:59:22.999Z</time></trkpt><trkpt lat="44.56684788762467" lon="10.052761470584974"><ele>749.6666666666667</ele><time>2026-03-28T14:59:23.999Z</time></trkpt><trkpt lat="44.56694673110136" lon="10.05257683005795"><ele>751.0</ele><time>2026-03-28T14:59:24.999Z</time></trkpt><trkpt lat="44.56704168522075" lon="10.05237594290652"><ele>751.0</ele><time>2026-03-28T14:59:25.999Z</time></trkpt><trkpt lat="44.56714013502319" lon="10.05219060723345"><ele>751.0</ele><time>2026-03-28T14:59:26.999Z</time></trkpt><trkpt lat="44.56723927209152" lon="10.052013278140564"><ele>751.0</ele><time>2026-03-28T14:59:27.999Z</time></trkpt><trkpt lat="44.567325466387345" lon="10.051863861098566"><ele>751.0</ele><time>2026-03-28T14:59:28.999Z</time></trkpt><trkpt lat="44.56740157456862" lon="10.051731021678306"><ele>751.0</ele><time>2026-03-28T14:59:29.999Z</time></trkpt><trkpt lat="44.56745453840998" lon="10.051581899809554"><ele>751.0</ele><time>2026-03-28T14:59:30.999Z</time></trkpt><trkpt lat="44.567466071058874" lon="10.051416558972491"><ele>751.0</ele><time>2026-03-28T14:59:31.999Z</time></trkpt><trkpt lat="44.56744288788476" lon="10.051218553241482"><ele>751.5</ele><time>2026-03-28T14:59:32.999Z</time></trkpt><trkpt lat="44.56738514671694" lon="10.05103993222391"><ele>752.0</ele><time>2026-03-28T14:59:33.999Z</time></trkpt><trkpt lat="44.56729192678571" lon="10.050899080939512"><ele>752.5</ele><time>2026-03-28T14:59:34.999Z</time></trkpt><trkpt lat="44.56717254960615" lon="10.050808827037343"><ele>753.0</ele><time>2026-03-28T14:59:35.999Z</time></trkpt><trkpt lat="44.56703473375939" lon="10.050766652105482"><ele>751.5</ele><time>2026-03-28T14:59:37Z</time></trkpt><trkpt lat="44.566891266109145" lon="10.050780224195671"><ele>750.0</ele><time>2026-03-28T14:59:38Z</time></trkpt><trkpt lat="44.56674914066551" lon="10.050836230104881"><ele>748.5</ele><time>2026-03-28T14:59:39Z</time></trkpt><trkpt lat="44.56661912246706" lon="10.050887066226927"><ele>747.0</ele><time>2026-03-28T14:59:40Z</time></trkpt><trkpt lat="44.56648764762009" lon="10.05094024070799"><ele>750.0</ele><time>2026-03-28T14:59:41Z</time></trkpt><trkpt lat="44.56637144377627" lon="10.051052944692541"><ele>753.0</ele><time>2026-03-28T14:59:42Z</time></trkpt><trkpt lat="44.56626828354377" lon="10.051164539707631"><ele>756.0</ele><time>2026-03-28T14:59:43Z</time></trkpt><trkpt lat="44.56614509696603" lon="10.051250367720456"><ele>759.0</ele><time>2026-03-28T14:59:44Z</time></trkpt><trkpt lat="44.5660437822183" lon="10.051364287990497"><ele>759.0</ele><time>2026-03-28T14:59:45Z</time></trkpt><trkpt lat="44.56593664059746" lon="10.051438259693946"><ele>759.0</ele><time>2026-03-28T14:59:46Z</time></trkpt><trkpt lat="44.56583346566913" lon="10.051477577945375"><ele>759.0</ele><time>2026-03-28T14:59:47Z</time></trkpt><trkpt lat="44.56571809927001" lon="10.051453010478811"><ele>759.0</ele><time>2026-03-28T14:59:48Z</time></trkpt><trkpt lat="44.56560158784697" lon="10.051386011990726"><ele>759.0</ele><time>2026-03-28T14:59:49Z</time></trkpt><trkpt lat="44.5655088650194" lon="10.051278857457635"><ele>759.0</ele><time>2026-03-28T14:59:50Z</time></trkpt><trkpt lat="44.565455727150315" lon="10.051111721052134"><ele>759.0</ele><time>2026-03-28T14:59:51Z</time></trkpt><trkpt lat="44.56543977690135" lon="10.050923690472366"><ele>759.0</ele><time>2026-03-28T14:59:52Z</time></trkpt><trkpt lat="44.565435045043294" lon="10.0507223721708"><ele>758.0</ele><time>2026-03-28T14:59:53Z</time></trkpt><trkpt lat="44.5654584748933" lon="10.050519299783499"><ele>757.0</ele><time>2026-03-28T14:59:54Z</time></trkpt><trkpt lat="44.565464649034816" lon="10.05032267831036"><ele>756.0</ele><time>2026-03-28T14:59:55Z</time></trkpt><trkpt lat="44.56543880628912" lon="10.050154308218833"><ele>755.0</ele><time>2026-03-28T14:59:56Z</time></trkpt><trkpt lat="44.56536737872238" lon="10.050019225550155"><ele>757.5</ele><time>2026-03-28T14:59:57Z</time></trkpt><trkpt lat="44.565256714219245" lon="10.04991667039726"><ele>760.0</ele><time>2026-03-28T14:59:58Z</time></trkpt><trkpt lat="44.56512370857661" lon="10.049840093157394"><ele>762.5</ele><time>2026-03-28T14:59:59Z</time></trkpt><trkpt lat="44.564979588934314" lon="10.049827761739136"><ele>765.0</ele><time>2026-03-28T15:00:00Z</time></trkpt><trkpt lat="44.56484208134363" lon="10.04989197871765"><ele>766.25</ele><time>2026-03-28T15:00:01Z</time></trkpt><trkpt lat="44.56472222008799" lon="10.05002492870088"><ele>767.5</ele><time>2026-03-28T15:00:02Z</time></trkpt><trkpt lat="44.56461904168677" lon="10.050165899803112"><ele>768.75</ele><time>2026-03-28T15:00:03Z</time></trkpt><trkpt lat="44.5645081059938" lon="10.050282517042966"><ele>770.0</ele><time>2026-03-28T15:00:04Z</time></trkpt><trkpt lat="44.56437748584376" lon="10.050359857727669"><ele>770.25</ele><time>2026-03-28T15:00:05Z</time></trkpt><trkpt lat="44.5642511609763" lon="10.050428991117574"><ele>770.5</ele><time>2026-03-28T15:00:06Z</time></trkpt><trkpt lat="44.56410551676542" lon="10.050457764133622"><ele>770.75</ele><time>2026-03-28T15:00:07Z</time></trkpt><trkpt lat="44.56395315626162" lon="10.050432049065652"><ele>771.0</ele><time>2026-03-28T15:00:08Z</time></trkpt><trkpt lat="44.563801934532144" lon="10.050343387665547"><ele>772.0</ele><time>2026-03-28T15:00:09Z</time></trkpt><trkpt lat="44.563631975164014" lon="10.050200744274479"><ele>773.0</ele><time>2026-03-28T15:00:10Z</time></trkpt><trkpt lat="44.563417386521266" lon="10.050027353280884"><ele>774.0</ele><time>2026-03-28T15:00:11Z</time></trkpt><trkpt lat="44.563205403192825" lon="10.049856067398517"><ele>774.0</ele><time>2026-03-28T15:00:12Z</time></trkpt><trkpt lat="44.563017595181186" lon="10.049726880454083"><ele>774.0</ele><time>2026-03-28T15:00:13Z</time></trkpt><trkpt lat="44.562847398866076" lon="10.049569660620685"><ele>774.0</ele><time>2026-03-28T15:00:14Z</time></trkpt><trkpt lat="44.562686507636634" lon="10.049434430404826"><ele>776.0</ele><time>2026-03-28T15:00:15Z</time></trkpt><trkpt lat="44.5625379262303" lon="10.049320416500118"><ele>778.0</ele><time>2026-03-28T15:00:16Z</time></trkpt><trkpt lat="44.562406622538994" lon="10.04920000061321"><ele>780.0</ele><time>2026-03-28T15:00:17Z</time></trkpt><trkpt lat="44.56231652883358" lon="10.049056800220601"><ele>780.0</ele><time>2026-03-28T15:00:18Z</time></trkpt><trkpt lat="44.562277905712705" lon="10.048869178145353"><ele>780.0</ele><time>2026-03-28T15:00:19Z</time></trkpt><trkpt lat="44.56222161961174" lon="10.048557477531155"><ele>780.0</ele><time>2026-03-28T15:00:20Z</time></trkpt><trkpt lat="44.562158100927135" lon="10.048293346282936"><ele>779.6666666666667</ele><time>2026-03-28T15:00:21Z</time></trkpt><trkpt lat="44.56209920011744" lon="10.048021586348774"><ele>779.3333333333334</ele><time>2026-03-28T15:00:22Z</time></trkpt><trkpt lat="44.56204785064503" lon="10.047765685298113"><ele>779.0</ele><time>2026-03-28T15:00:23Z</time></trkpt><trkpt lat="44.56199613139987" lon="10.04754513238266"><ele>784.3333333333334</ele><time>2026-03-28T15:00:24Z</time></trkpt><trkpt lat="44.5619422884308" lon="10.047350642555758"><ele>789.6666666666667</ele><time>2026-03-28T15:00:25Z</time></trkpt><trkpt lat="44.56185811152045" lon="10.04714917954101"><ele>795.0</ele><time>2026-03-28T15:00:26Z</time></trkpt><trkpt lat="44.56172928848327" lon="10.046941528552413"><ele>795.0</ele><time>2026-03-28T15:00:27Z</time></trkpt><trkpt lat="44.5615894412291" lon="10.046730497045196"><ele>795.0</ele><time>2026-03-28T15:00:28Z</time></trkpt><trkpt lat="44.561501352070984" lon="10.046485865245284"><ele>795.0</ele><time>2026-03-28T15:00:29Z</time></trkpt><trkpt lat="44.56143200659409" lon="10.04624665744794"><ele>794.6666666666667</ele><time>2026-03-28T15:00:30Z</time></trkpt><trkpt lat="44.561378201636956" lon="10.046017232864402"><ele>794.3333333333334</ele><time>2026-03-28T15:00:31Z</time></trkpt><trkpt lat="44.56131762535513" lon="10.045796677063413"><ele>794.0</ele><time>2026-03-28T15:00:32Z</time></trkpt><trkpt lat="44.56128201167622" lon="10.045572925328138"><ele>794.0</ele><time>2026-03-28T15:00:33Z</time></trkpt><trkpt lat="44.56126741615718" lon="10.045348936153916"><ele>794.0</ele><time>2026-03-28T15:00:34Z</time></trkpt><trkpt lat="44.561278170654575" lon="10.045108997685928"><ele>794.0</ele><time>2026-03-28T15:00:35Z</time></trkpt><trkpt lat="44.56132942594462" lon="10.044880738921965"><ele>795.6666666666667</ele><time>2026-03-28T15:00:36Z</time></trkpt><trkpt lat="44.56137014342207" lon="10.044639504224026"><ele>797.3333333333333</ele><time>2026-03-28T15:00:37Z</time></trkpt><trkpt lat="44.56143095850042" lon="10.044404684569312"><ele>799.0</ele><time>2026-03-28T15:00:38Z</time></trkpt><trkpt lat="44.56148374219632" lon="10.044165501208223"><ele>800.6666666666666</ele><time>2026-03-28T15:00:39Z</time></trkpt><trkpt lat="44.56153606419399" lon="10.043923408148649"><ele>802.3333333333333</ele><time>2026-03-28T15:00:40Z</time></trkpt><trkpt lat="44.56158843744056" lon="10.043686287150166"><ele>804.0</ele><time>2026-03-28T15:00:41Z</time></trkpt><trkpt lat="44.561637493439385" lon="10.043441924752328"><ele>806.6666666666667</ele><time>2026-03-28T15:00:42Z</time></trkpt><trkpt lat="44.56168482588889" lon="10.04321083514702"><ele>809.3333333333334</ele><time>2026-03-28T15:00:43Z</time></trkpt><trkpt lat="44.561731678001465" lon="10.042983343972157"><ele>812.0</ele><time>2026-03-28T15:00:44Z</time></trkpt><trkpt lat="44.56177974984652" lon="10.042755915274999"><ele>812.0</ele><time>2026-03-28T15:00:45Z</time></trkpt><trkpt lat="44.561831184646856" lon="10.042535295487133"><ele>812.0</ele><time>2026-03-28T15:00:46Z</time></trkpt><trkpt lat="44.56187082821522" lon="10.042346994782225"><ele>812.0</ele><time>2026-03-28T15:00:47Z</time></trkpt><trkpt lat="44.561887610149086" lon="10.04219961886652"><ele>812.0</ele><time>2026-03-28T15:00:48Z</time></trkpt><trkpt lat="44.56193546417329" lon="10.041991277741907"><ele>812.75</ele><time>2026-03-28T15:00:49Z</time></trkpt><trkpt lat="44.56193495308376" lon="10.04184144088774"><ele>813.5</ele><time>2026-03-28T15:00:50Z</time></trkpt><trkpt lat="44.56188849547183" lon="10.041711896057278"><ele>814.25</ele><time>2026-03-28T15:00:51Z</time></trkpt><trkpt lat="44.56178818556609" lon="10.041608840995437"><ele>815.0</ele><time>2026-03-28T15:00:52Z</time></trkpt><trkpt lat="44.56165617817336" lon="10.04153342420026"><ele>813.0</ele><time>2026-03-28T15:00:53Z</time></trkpt><trkpt lat="44.561531002184225" lon="10.041438544077465"><ele>811.0</ele><time>2026-03-28T15:00:54Z</time></trkpt><trkpt lat="44.561426715544755" lon="10.041312479459092"><ele>809.0</ele><time>2026-03-28T15:00:55Z</time></trkpt><trkpt lat="44.5613430765517" lon="10.041148952596847"><ele>807.0</ele><time>2026-03-28T15:00:56Z</time></trkpt><trkpt lat="44.561260436000055" lon="10.040977424492505"><ele>807.0</ele><time>2026-03-28T15:00:56.999Z</time></trkpt><trkpt lat="44.56118139941645" lon="10.040822758536864"><ele>807.0</ele><time>2026-03-28T15:00:57.999Z</time></trkpt><trkpt lat="44.56113358315341" lon="10.040650909826018"><ele>807.0</ele><time>2026-03-28T15:00:58.999Z</time></trkpt><trkpt lat="44.5611506460387" lon="10.040451231727324"><ele>807.0</ele><time>2026-03-28T15:00:59.999Z</time></trkpt><trkpt lat="44.561209626008825" lon="10.04025508670989"><ele>807.0</ele><time>2026-03-28T15:01:00.999Z</time></trkpt><trkpt lat="44.56126461380705" lon="10.040036010310386"><ele>807.0</ele><time>2026-03-28T15:01:01.999Z</time></trkpt><trkpt lat="44.561320882182414" lon="10.039850862169532"><ele>807.0</ele><time>2026-03-28T15:01:02.999Z</time></trkpt><trkpt lat="44.561345724353714" lon="10.039709351597093"><ele>807.0</ele><time>2026-03-28T15:01:03.999Z</time></trkpt><trkpt lat="44.561325480585644" lon="10.039565379647087"><ele>807.3333333333333</ele><time>2026-03-28T15:01:04.999Z</time></trkpt><trkpt lat="44.56124502421075" lon="10.039397594779148"><ele>807.6666666666666</ele><time>2026-03-28T15:01:05.999Z</time></trkpt><trkpt lat="44.5611248426868" lon="10.039213439239626"><ele>808.0</ele><time>2026-03-28T15:01:06.999Z</time></trkpt><trkpt lat="44.561007860654705" lon="10.039014385697204"><ele>812.3333333333333</ele><time>2026-03-28T15:01:07.999Z</time></trkpt><trkpt lat="44.56091366799077" lon="10.038801052016408"><ele>816.6666666666667</ele><time>2026-03-28T15:01:08.999Z</time></trkpt><trkpt lat="44.56083177917676" lon="10.038606550035196"><ele>821.0</ele><time>2026-03-28T15:01:09.999Z</time></trkpt><trkpt lat="44.56075585549923" lon="10.038447418189413"><ele>821.25</ele><time>2026-03-28T15:01:10.999Z</time></trkpt><trkpt lat="44.56067068085529" lon="10.038289909258372"><ele>821.5</ele><time>2026-03-28T15:01:11.999Z</time></trkpt><trkpt lat="44.56055982589651" lon="10.038152721469965"><ele>821.75</ele><time>2026-03-28T15:01:12.999Z</time></trkpt><trkpt lat="44.56042864513431" lon="10.038048511655195"><ele>822.0</ele><time>2026-03-28T15:01:13.999Z</time></trkpt><trkpt lat="44.560288088626876" lon="10.037960970516448"><ele>822.0</ele><time>2026-03-28T15:01:14.999Z</time></trkpt><trkpt lat="44.56015660741" lon="10.037868819600583"><ele>822.0</ele><time>2026-03-28T15:01:15.999Z</time></trkpt><trkpt lat="44.560073965556235" lon="10.037709177358417"><ele>822.0</ele><time>2026-03-28T15:01:16.999Z</time></trkpt><trkpt lat="44.55998537901175" lon="10.037529204284692"><ele>822.0</ele><time>2026-03-28T15:01:17.999Z</time></trkpt><trkpt lat="44.55989251764623" lon="10.037359142759135"><ele>820.0</ele><time>2026-03-28T15:01:18.999Z</time></trkpt><trkpt lat="44.5598175736146" lon="10.037197845014878"><ele>818.0</ele><time>2026-03-28T15:01:19.999Z</time></trkpt><trkpt lat="44.559740503978574" lon="10.03706729459199"><ele>816.0</ele><time>2026-03-28T15:01:20.999Z</time></trkpt><trkpt lat="44.559655769684404" lon="10.036960733195603"><ele>814.0</ele><time>2026-03-28T15:01:21.999Z</time></trkpt><trkpt lat="44.559567783579894" lon="10.036887156638619"><ele>815.2</ele><time>2026-03-28T15:01:22.999Z</time></trkpt><trkpt lat="44.559464127703585" lon="10.036863355832514"><ele>816.4000000000001</ele><time>2026-03-28T15:01:23.999Z</time></trkpt><trkpt lat="44.5593524534423" lon="10.036880903589427"><ele>817.6</ele><time>2026-03-28T15:01:24.999Z</time></trkpt><trkpt lat="44.55924853442392" lon="10.03691197829898"><ele>818.8</ele><time>2026-03-28T15:01:25.999Z</time></trkpt><trkpt lat="44.55916021690518" lon="10.036926230234418"><ele>820.0</ele><time>2026-03-28T15:01:26.999Z</time></trkpt><trkpt lat="44.55906454792047" lon="10.036916785289792"><ele>820.0</ele><time>2026-03-28T15:01:27.999Z</time></trkpt><trkpt lat="44.55896239212028" lon="10.03685901005172"><ele>820.0</ele><time>2026-03-28T15:01:28.999Z</time></trkpt><trkpt lat="44.558881707092794" lon="10.036705234460173"><ele>820.0</ele><time>2026-03-28T15:01:29.999Z</time></trkpt><trkpt lat="44.558769551617374" lon="10.036545752879531"><ele>820.0</ele><time>2026-03-28T15:01:30.999Z</time></trkpt><trkpt lat="44.55866286650535" lon="10.036368394542448"><ele>820.3333333333333</ele><time>2026-03-28T15:01:31.999Z</time></trkpt><trkpt lat="44.558540408644866" lon="10.036218183753721"><ele>820.6666666666667</ele><time>2026-03-28T15:01:32.999Z</time></trkpt><trkpt lat="44.55839509427563" lon="10.03611725242546"><ele>821.0</ele><time>2026-03-28T15:01:33.999Z</time></trkpt><trkpt lat="44.558231739724" lon="10.036031729008005"><ele>821.0</ele><time>2026-03-28T15:01:34.999Z</time></trkpt><trkpt lat="44.55808493895517" lon="10.035924895299194"><ele>821.0</ele><time>2026-03-28T15:01:35.999Z</time></trkpt><trkpt lat="44.557971056933624" lon="10.035758200413865"><ele>821.0</ele><time>2026-03-28T15:01:36.999Z</time></trkpt><trkpt lat="44.55785860118157" lon="10.035585358413963"><ele>820.25</ele><time>2026-03-28T15:01:37.999Z</time></trkpt><trkpt lat="44.55776723786353" lon="10.035390973434682"><ele>819.5</ele><time>2026-03-28T15:01:38.999Z</time></trkpt><trkpt lat="44.55767653367133" lon="10.035243558523458"><ele>818.75</ele><time>2026-03-28T15:01:39.999Z</time></trkpt><trkpt lat="44.557576524168255" lon="10.035123730417453"><ele>818.0</ele><time>2026-03-28T15:01:40.999Z</time></trkpt><trkpt lat="44.55745783782507" lon="10.035047187419806"><ele>818.0</ele><time>2026-03-28T15:01:41.999Z</time></trkpt><trkpt lat="44.557338026357186" lon="10.035043426392601"><ele>818.0</ele><time>2026-03-28T15:01:43Z</time></trkpt><trkpt lat="44.557237569446805" lon="10.035106411473732"><ele>818.0</ele><time>2026-03-28T15:01:44Z</time></trkpt><trkpt lat="44.5571492852664" lon="10.035207402645053"><ele>818.0</ele><time>2026-03-28T15:01:45Z</time></trkpt><trkpt lat="44.55708963301109" lon="10.035353580998219"><ele>818.0</ele><time>2026-03-28T15:01:46Z</time></trkpt><trkpt lat="44.557052862990794" lon="10.035521743840064"><ele>818.0</ele><time>2026-03-28T15:01:47Z</time></trkpt><trkpt lat="44.55703522021697" lon="10.035699778851743"><ele>818.0</ele><time>2026-03-28T15:01:48Z</time></trkpt><trkpt lat="44.55700763685961" lon="10.03588634093966"><ele>818.0</ele><time>2026-03-28T15:01:49Z</time></trkpt><trkpt lat="44.556936196371915" lon="10.036044265443378"><ele>817.0</ele><time>2026-03-28T15:01:50Z</time></trkpt><trkpt lat="44.55685930494406" lon="10.036192688860117"><ele>816.0</ele><time>2026-03-28T15:01:51Z</time></trkpt><trkpt lat="44.55676866443182" lon="10.036328048639568"><ele>815.0</ele><time>2026-03-28T15:01:52Z</time></trkpt><trkpt lat="44.55667138688026" lon="10.036452847607242"><ele>814.0</ele><time>2026-03-28T15:01:53Z</time></trkpt><trkpt lat="44.55655060237967" lon="10.036521871415571"><ele>814.0</ele><time>2026-03-28T15:01:54Z</time></trkpt><trkpt lat="44.556426845543555" lon="10.03656238131533"><ele>814.0</ele><time>2026-03-28T15:01:55Z</time></trkpt><trkpt lat="44.5563101023488" lon="10.03658864106819"><ele>814.0</ele><time>2026-03-28T15:01:56Z</time></trkpt><trkpt lat="44.55620221614303" lon="10.036628971960196"><ele>814.0</ele><time>2026-03-28T15:01:57Z</time></trkpt><trkpt lat="44.55610520946081" lon="10.036667070473294"><ele>815.2</ele><time>2026-03-28T15:01:58Z</time></trkpt><trkpt lat="44.55601391785315" lon="10.036708366132835"><ele>816.4000000000001</ele><time>2026-03-28T15:01:59Z</time></trkpt><trkpt lat="44.55591051725468" lon="10.03674610601141"><ele>817.6</ele><time>2026-03-28T15:02:00Z</time></trkpt><trkpt lat="44.55580571467862" lon="10.036755390331528"><ele>818.8</ele><time>2026-03-28T15:02:01Z</time></trkpt><trkpt lat="44.55569871384566" lon="10.036729545521986"><ele>820.0</ele><time>2026-03-28T15:02:02Z</time></trkpt><trkpt lat="44.55557001697988" lon="10.036676027703239"><ele>819.3333333333333</ele><time>2026-03-28T15:02:03Z</time></trkpt><trkpt lat="44.555423485510424" lon="10.036604930802719"><ele>818.6666666666667</ele><time>2026-03-28T15:02:04Z</time></trkpt><trkpt lat="44.55527650171632" lon="10.036499660868737"><ele>818.0</ele><time>2026-03-28T15:02:05Z</time></trkpt><trkpt lat="44.55516796519152" lon="10.036313592575702"><ele>818.0</ele><time>2026-03-28T15:02:06Z</time></trkpt><trkpt lat="44.555077320946246" lon="10.036136333103581"><ele>818.0</ele><time>2026-03-28T15:02:07Z</time></trkpt><trkpt lat="44.55499973427922" lon="10.035986350962"><ele>818.0</ele><time>2026-03-28T15:02:08Z</time></trkpt><trkpt lat="44.554920242536944" lon="10.035850944870536"><ele>818.0</ele><time>2026-03-28T15:02:09Z</time></trkpt><trkpt lat="44.554803783699924" lon="10.035761737262542"><ele>815.3333333333334</ele><time>2026-03-28T15:02:10Z</time></trkpt><trkpt lat="44.55466152093961" lon="10.035707201815459"><ele>812.6666666666667</ele><time>2026-03-28T15:02:11Z</time></trkpt><trkpt lat="44.5545083255739" lon="10.035651694722052"><ele>810.0</ele><time>2026-03-28T15:02:12Z</time></trkpt><trkpt lat="44.554358331705515" lon="10.03558820215828"><ele>810.0</ele><time>2026-03-28T15:02:13Z</time></trkpt><trkpt lat="44.55422811170748" lon="10.035530939598456"><ele>810.0</ele><time>2026-03-28T15:02:14Z</time></trkpt><trkpt lat="44.554112272765686" lon="10.035487202665008"><ele>810.0</ele><time>2026-03-28T15:02:15Z</time></trkpt><trkpt lat="44.554008066647995" lon="10.035491494396785"><ele>810.0</ele><time>2026-03-28T15:02:16Z</time></trkpt><trkpt lat="44.55390816108781" lon="10.035557463783642"><ele>810.0</ele><time>2026-03-28T15:02:17Z</time></trkpt><trkpt lat="44.55381258672042" lon="10.035697596305882"><ele>810.0</ele><time>2026-03-28T15:02:18Z</time></trkpt><trkpt lat="44.553706972515165" lon="10.035869043060234"><ele>810.0</ele><time>2026-03-28T15:02:19Z</time></trkpt><trkpt lat="44.55359261964978" lon="10.036041245307095"><ele>813.5</ele><time>2026-03-28T15:02:20Z</time></trkpt><trkpt lat="44.55348184504742" lon="10.036206603179224"><ele>817.0</ele><time>2026-03-28T15:02:21Z</time></trkpt><trkpt lat="44.5533930111287" lon="10.036354234061989"><ele>820.5</ele><time>2026-03-28T15:02:22Z</time></trkpt><trkpt lat="44.55333703876485" lon="10.03653130523668"><ele>824.0</ele><time>2026-03-28T15:02:23Z</time></trkpt><trkpt lat="44.55330467531779" lon="10.036724424062337"><ele>828.0</ele><time>2026-03-28T15:02:24Z</time></trkpt><trkpt lat="44.55326592275976" lon="10.03687849700887"><ele>832.0</ele><time>2026-03-28T15:02:25Z</time></trkpt><trkpt lat="44.55318810068097" lon="10.036986458944634"><ele>836.0</ele><time>2026-03-28T15:02:26Z</time></trkpt><trkpt lat="44.553076986870174" lon="10.037034123376266"><ele>840.0</ele><time>2026-03-28T15:02:27Z</time></trkpt><trkpt lat="44.55293915342829" lon="10.036940202065653"><ele>835.3333333333333</ele><time>2026-03-28T15:02:28Z</time></trkpt><trkpt lat="44.55278612416117" lon="10.036897553110384"><ele>830.6666666666666</ele><time>2026-03-28T15:02:29Z</time></trkpt><trkpt lat="44.552634750269675" lon="10.036864528016267"><ele>826.0</ele><time>2026-03-28T15:02:30Z</time></trkpt><trkpt lat="44.55248166348486" lon="10.036899299082002"><ele>826.0</ele><time>2026-03-28T15:02:31Z</time></trkpt><trkpt lat="44.55233486688153" lon="10.037005402986946"><ele>826.0</ele><time>2026-03-28T15:02:32Z</time></trkpt><trkpt lat="44.55221343277956" lon="10.037185932457199"><ele>826.0</ele><time>2026-03-28T15:02:33Z</time></trkpt><trkpt lat="44.552125117011364" lon="10.037406703297219"><ele>827.3333333333333</ele><time>2026-03-28T15:02:34Z</time></trkpt><trkpt lat="44.55205050356292" lon="10.037620897660162"><ele>828.6666666666667</ele><time>2026-03-28T15:02:35Z</time></trkpt><trkpt lat="44.55198023611683" lon="10.037800359634026"><ele>830.0</ele><time>2026-03-28T15:02:36Z</time></trkpt><trkpt lat="44.551879499543965" lon="10.037939101621705"><ele>830.0</ele><time>2026-03-28T15:02:37Z</time></trkpt><trkpt lat="44.55176666241783" lon="10.038081902174524"><ele>830.0</ele><time>2026-03-28T15:02:38Z</time></trkpt><trkpt lat="44.55164744570013" lon="10.038214523477118"><ele>830.0</ele><time>2026-03-28T15:02:39Z</time></trkpt><trkpt lat="44.551523650623544" lon="10.038327157856573"><ele>830.5</ele><time>2026-03-28T15:02:40Z</time></trkpt><trkpt lat="44.55141234036242" lon="10.038398278330309"><ele>831.0</ele><time>2026-03-28T15:02:41Z</time></trkpt><trkpt lat="44.55129634765347" lon="10.038429107531657"><ele>831.5</ele><time>2026-03-28T15:02:42Z</time></trkpt><trkpt lat="44.551171532457474" lon="10.038408786584958"><ele>832.0</ele><time>2026-03-28T15:02:43Z</time></trkpt><trkpt lat="44.55104886249844" lon="10.038257867626246"><ele>832.0</ele><time>2026-03-28T15:02:44Z</time></trkpt><trkpt lat="44.55092531384902" lon="10.038095827134743"><ele>832.0</ele><time>2026-03-28T15:02:45Z</time></trkpt><trkpt lat="44.550810739087325" lon="10.0379879673951"><ele>832.0</ele><time>2026-03-28T15:02:46Z</time></trkpt><trkpt lat="44.55068369579048" lon="10.037909457380538"><ele>832.0</ele><time>2026-03-28T15:02:47Z</time></trkpt><trkpt lat="44.55051682287711" lon="10.03785126922125"><ele>833.6666666666666</ele><time>2026-03-28T15:02:48Z</time></trkpt><trkpt lat="44.55033917076639" lon="10.037783359041828"><ele>835.3333333333333</ele><time>2026-03-28T15:02:49Z</time></trkpt><trkpt lat="44.550167437163466" lon="10.03771137810098"><ele>837.0</ele><time>2026-03-28T15:02:50Z</time></trkpt><trkpt lat="44.549996135162395" lon="10.037640852960173"><ele>837.0</ele><time>2026-03-28T15:02:51Z</time></trkpt><trkpt lat="44.549837613471446" lon="10.037587974551633"><ele>837.0</ele><time>2026-03-28T15:02:52Z</time></trkpt><trkpt lat="44.549673564517114" lon="10.03754861121231"><ele>837.0</ele><time>2026-03-28T15:02:53Z</time></trkpt><trkpt lat="44.54953115512247" lon="10.037519589135243"><ele>837.25</ele><time>2026-03-28T15:02:54Z</time></trkpt><trkpt lat="44.549402214052485" lon="10.037497568170638"><ele>837.5</ele><time>2026-03-28T15:02:55Z</time></trkpt><trkpt lat="44.54927387630247" lon="10.037509478110643"><ele>837.75</ele><time>2026-03-28T15:02:55.999Z</time></trkpt><trkpt lat="44.549135165697244" lon="10.0374929150319"><ele>838.0</ele><time>2026-03-28T15:02:56.999Z</time></trkpt><trkpt lat="44.54899298875584" lon="10.037508196218104"><ele>838.0</ele><time>2026-03-28T15:02:57.999Z</time></trkpt><trkpt lat="44.548843285148" lon="10.037512838838175"><ele>838.0</ele><time>2026-03-28T15:02:58.999Z</time></trkpt><trkpt lat="44.5487058256194" lon="10.037524586906633"><ele>838.0</ele><time>2026-03-28T15:02:59.999Z</time></trkpt><trkpt lat="44.548577256263265" lon="10.037529482374282"><ele>838.0</ele><time>2026-03-28T15:03:00.999Z</time></trkpt><trkpt lat="44.548461618513144" lon="10.037522826409045"><ele>838.4</ele><time>2026-03-28T15:03:01.999Z</time></trkpt><trkpt lat="44.54835901626423" lon="10.03750421745764"><ele>838.8</ele><time>2026-03-28T15:03:02.999Z</time></trkpt><trkpt lat="44.54825119632922" lon="10.037482853319233"><ele>839.2</ele><time>2026-03-28T15:03:03.999Z</time></trkpt><trkpt lat="44.548147209836294" lon="10.037433789704831"><ele>839.6</ele><time>2026-03-28T15:03:04.999Z</time></trkpt><trkpt lat="44.548059826070634" lon="10.03737332095663"><ele>840.0</ele><time>2026-03-28T15:03:05.999Z</time></trkpt><trkpt lat="44.54797007197876" lon="10.037300047882542"><ele>840.5</ele><time>2026-03-28T15:03:06.999Z</time></trkpt><trkpt lat="44.54788241003573" lon="10.037210820162583"><ele>841.0</ele><time>2026-03-28T15:03:07.999Z</time></trkpt><trkpt lat="44.54779901744254" lon="10.037099878784419"><ele>841.5</ele><time>2026-03-28T15:03:08.999Z</time></trkpt><trkpt lat="44.54772572469433" lon="10.03696957201683"><ele>842.0</ele><time>2026-03-28T15:03:09.999Z</time></trkpt><trkpt lat="44.547648731486184" lon="10.036832533604858"><ele>842.0</ele><time>2026-03-28T15:03:10.999Z</time></trkpt><trkpt lat="44.54756816309101" lon="10.036693506156626"><ele>842.0</ele><time>2026-03-28T15:03:11.999Z</time></trkpt><trkpt lat="44.5474916529611" lon="10.036552939486496"><ele>842.0</ele><time>2026-03-28T15:03:12.999Z</time></trkpt><trkpt lat="44.54744977997723" lon="10.036428746242372"><ele>842.0</ele><time>2026-03-28T15:03:13.999Z</time></trkpt><trkpt lat="44.547434493689195" lon="10.036313498680597"><ele>842.0</ele><time>2026-03-28T15:03:14.999Z</time></trkpt><trkpt lat="44.547289045215386" lon="10.036094142594768"><ele>841.5</ele><time>2026-03-28T15:03:15.999Z</time></trkpt><trkpt lat="44.547238215415426" lon="10.035939008259069"><ele>841.0</ele><time>2026-03-28T15:03:16.999Z</time></trkpt><trkpt lat="44.54717902988242" lon="10.035782750476969"><ele>840.5</ele><time>2026-03-28T15:03:17.999Z</time></trkpt><trkpt lat="44.54708914240694" lon="10.03562830608553"><ele>840.0</ele><time>2026-03-28T15:03:18.999Z</time></trkpt><trkpt lat="44.546977927204864" lon="10.035468896703101"><ele>840.0</ele><time>2026-03-28T15:03:19.999Z</time></trkpt><trkpt lat="44.546859670545246" lon="10.035312617001418"><ele>840.0</ele><time>2026-03-28T15:03:20.999Z</time></trkpt><trkpt lat="44.54674763370686" lon="10.035147992677114"><ele>840.0</ele><time>2026-03-28T15:03:21.999Z</time></trkpt><trkpt lat="44.54664809629706" lon="10.034973168143397"><ele>839.3333333333333</ele><time>2026-03-28T15:03:22.999Z</time></trkpt><trkpt lat="44.54656183752161" lon="10.034767143637547"><ele>838.6666666666666</ele><time>2026-03-28T15:03:23.999Z</time></trkpt><trkpt lat="44.54648559737403" lon="10.034538807317722"><ele>838.0</ele><time>2026-03-28T15:03:24.999Z</time></trkpt><trkpt lat="44.54639979273374" lon="10.034311339420103"><ele>837.25</ele><time>2026-03-28T15:03:25.999Z</time></trkpt><trkpt lat="44.54634483238862" lon="10.034103766622135"><ele>836.5</ele><time>2026-03-28T15:03:26.999Z</time></trkpt><trkpt lat="44.54628874819642" lon="10.03391970498239"><ele>835.75</ele><time>2026-03-28T15:03:27.999Z</time></trkpt><trkpt lat="44.54622743052942" lon="10.033770417482424"><ele>835.0</ele><time>2026-03-28T15:03:28.999Z</time></trkpt><trkpt lat="44.54614411883145" lon="10.033662967800327"><ele>834.5</ele><time>2026-03-28T15:03:29.999Z</time></trkpt><trkpt lat="44.54604762432954" lon="10.033610806056489"><ele>834.0</ele><time>2026-03-28T15:03:30.999Z</time></trkpt><trkpt lat="44.545942199056576" lon="10.033624359750117"><ele>833.5</ele><time>2026-03-28T15:03:31.999Z</time></trkpt><trkpt lat="44.545802676201845" lon="10.033630550209963"><ele>833.0</ele><time>2026-03-28T15:03:32.999Z</time></trkpt><trkpt lat="44.54564240062196" lon="10.033618614460709"><ele>833.0</ele><time>2026-03-28T15:03:33.999Z</time></trkpt><trkpt lat="44.54549440672648" lon="10.033594829545269"><ele>833.0</ele><time>2026-03-28T15:03:34.999Z</time></trkpt><trkpt lat="44.54536641238584" lon="10.033583305659171"><ele>833.0</ele><time>2026-03-28T15:03:35.999Z</time></trkpt><trkpt lat="44.54524401125415" lon="10.033626079577184"><ele>833.0</ele><time>2026-03-28T15:03:36.999Z</time></trkpt><trkpt lat="44.5451196898385" lon="10.03374756617332"><ele>833.6666666666667</ele><time>2026-03-28T15:03:37.999Z</time></trkpt><trkpt lat="44.54504758505625" lon="10.03399921435548"><ele>834.3333333333333</ele><time>2026-03-28T15:03:38.999Z</time></trkpt><trkpt lat="44.54496166118931" lon="10.034212320485011"><ele>835.0</ele><time>2026-03-28T15:03:39.999Z</time></trkpt><trkpt lat="44.54485205310469" lon="10.034379082398692"><ele>835.0</ele><time>2026-03-28T15:03:40.999Z</time></trkpt><trkpt lat="44.54475105383102" lon="10.034534236019235"><ele>835.0</ele><time>2026-03-28T15:03:41.999Z</time></trkpt><trkpt lat="44.54462554002798" lon="10.034672078189137"><ele>835.0</ele><time>2026-03-28T15:03:42.999Z</time></trkpt><trkpt lat="44.54446985988423" lon="10.034773069034737"><ele>834.3333333333333</ele><time>2026-03-28T15:03:43.999Z</time></trkpt><trkpt lat="44.544299520749036" lon="10.034891133059276"><ele>833.6666666666667</ele><time>2026-03-28T15:03:44.999Z</time></trkpt><trkpt lat="44.54412890657584" lon="10.03497565931688"><ele>833.0</ele><time>2026-03-28T15:03:45.999Z</time></trkpt><trkpt lat="44.54397068047922" lon="10.035025724181107"><ele>833.0</ele><time>2026-03-28T15:03:46.999Z</time></trkpt><trkpt lat="44.54383797573589" lon="10.035063559457573"><ele>833.0</ele><time>2026-03-28T15:03:47.999Z</time></trkpt><trkpt lat="44.543712930407615" lon="10.035036905454307"><ele>833.0</ele><time>2026-03-28T15:03:49Z</time></trkpt><trkpt lat="44.54355007409982" lon="10.034950617825103"><ele>833.0</ele><time>2026-03-28T15:03:50Z</time></trkpt><trkpt lat="44.54341907739936" lon="10.034861169532043"><ele>830.6666666666667</ele><time>2026-03-28T15:03:51Z</time></trkpt><trkpt lat="44.54330464145855" lon="10.034731781312521"><ele>828.3333333333333</ele><time>2026-03-28T15:03:52Z</time></trkpt><trkpt lat="44.54323376065042" lon="10.034505350361124"><ele>826.0</ele><time>2026-03-28T15:03:53Z</time></trkpt><trkpt lat="44.54314444612381" lon="10.034273590747992"><ele>826.3333333333333</ele><time>2026-03-28T15:03:54Z</time></trkpt><trkpt lat="44.5430677290266" lon="10.03407625342566"><ele>826.6666666666667</ele><time>2026-03-28T15:03:55Z</time></trkpt><trkpt lat="44.542964152639904" lon="10.033918651276549"><ele>827.0</ele><time>2026-03-28T15:03:56Z</time></trkpt><trkpt lat="44.542813051379184" lon="10.033785911205978"><ele>827.0</ele><time>2026-03-28T15:03:57Z</time></trkpt><trkpt lat="44.54263394570368" lon="10.033667624744487"><ele>827.0</ele><time>2026-03-28T15:03:58Z</time></trkpt><trkpt lat="44.54246549570722" lon="10.033540706527106"><ele>827.0</ele><time>2026-03-28T15:03:59Z</time></trkpt><trkpt lat="44.542338396019396" lon="10.033383568984116"><ele>822.0</ele><time>2026-03-28T15:04:00Z</time></trkpt><trkpt lat="44.54221260524457" lon="10.033184938313244"><ele>817.0</ele><time>2026-03-28T15:04:01Z</time></trkpt><trkpt lat="44.54206648493049" lon="10.032873498794876"><ele>819.0</ele><time>2026-03-28T15:04:02Z</time></trkpt><trkpt lat="44.541913673121876" lon="10.032537352359139"><ele>821.0</ele><time>2026-03-28T15:04:03Z</time></trkpt><trkpt lat="44.54180814428291" lon="10.03232545269351"><ele>821.0</ele><time>2026-03-28T15:04:05Z</time></trkpt><trkpt lat="44.54172714556203" lon="10.032165957219263"><ele>821.0</ele><time>2026-03-28T15:04:06Z</time></trkpt><trkpt lat="44.54163683216807" lon="10.032037283459537"><ele>821.0</ele><time>2026-03-28T15:04:07Z</time></trkpt><trkpt lat="44.541537436407936" lon="10.031949146492718"><ele>821.0</ele><time>2026-03-28T15:04:08Z</time></trkpt><trkpt lat="44.541415176848275" lon="10.031916010293418"><ele>821.0</ele><time>2026-03-28T15:04:09Z</time></trkpt><trkpt lat="44.54127000826552" lon="10.031954437638586"><ele>821.0</ele><time>2026-03-28T15:04:10Z</time></trkpt><trkpt lat="44.54111778446833" lon="10.03206314988074"><ele>821.0</ele><time>2026-03-28T15:04:11Z</time></trkpt><trkpt lat="44.5409540205155" lon="10.032239409698795"><ele>820.0</ele><time>2026-03-28T15:04:12Z</time></trkpt><trkpt lat="44.5407837927851" lon="10.032413678284035"><ele>819.0</ele><time>2026-03-28T15:04:13Z</time></trkpt><trkpt lat="44.54062140454109" lon="10.032544239182057"><ele>818.0</ele><time>2026-03-28T15:04:14Z</time></trkpt><trkpt lat="44.540447855350955" lon="10.032609015484878"><ele>820.6666666666667</ele><time>2026-03-28T15:04:15Z</time></trkpt><trkpt lat="44.54026765181867" lon="10.0325929935962"><ele>823.3333333333333</ele><time>2026-03-28T15:04:16Z</time></trkpt><trkpt lat="44.54007538396004" lon="10.032558720695507"><ele>826.0</ele><time>2026-03-28T15:04:17Z</time></trkpt><trkpt lat="44.53987289750773" lon="10.032521427349486"><ele>826.0</ele><time>2026-03-28T15:04:18Z</time></trkpt><trkpt lat="44.539688781575684" lon="10.032488434854432"><ele>826.0</ele><time>2026-03-28T15:04:19Z</time></trkpt><trkpt lat="44.5395025353157" lon="10.032471946245268"><ele>826.0</ele><time>2026-03-28T15:04:20Z</time></trkpt><trkpt lat="44.5393230729145" lon="10.032440444009772"><ele>825.0</ele><time>2026-03-28T15:04:21Z</time></trkpt><trkpt lat="44.5391581285" lon="10.032390482970875"><ele>824.0</ele><time>2026-03-28T15:04:22Z</time></trkpt><trkpt lat="44.53900524589946" lon="10.032308602391172"><ele>823.0</ele><time>2026-03-28T15:04:23Z</time></trkpt><trkpt lat="44.538850816472284" lon="10.032175110169117"><ele>825.6666666666666</ele><time>2026-03-28T15:04:24Z</time></trkpt><trkpt lat="44.53868827964661" lon="10.032032361419141"><ele>828.3333333333333</ele><time>2026-03-28T15:04:25Z</time></trkpt><trkpt lat="44.538529853914504" lon="10.03191316288621"><ele>831.0</ele><time>2026-03-28T15:04:26Z</time></trkpt><trkpt lat="44.53837299917127" lon="10.031789261512946"><ele>831.0</ele><time>2026-03-28T15:04:27Z</time></trkpt><trkpt lat="44.53818813103634" lon="10.031687717290222"><ele>831.0</ele><time>2026-03-28T15:04:28Z</time></trkpt><trkpt lat="44.53797266415139" lon="10.031592743336551"><ele>831.0</ele><time>2026-03-28T15:04:29Z</time></trkpt><trkpt lat="44.53775687976333" lon="10.031492510297012"><ele>829.6666666666667</ele><time>2026-03-28T15:04:30Z</time></trkpt><trkpt lat="44.53755886181649" lon="10.031388583032067"><ele>828.3333333333334</ele><time>2026-03-28T15:04:31Z</time></trkpt><trkpt lat="44.53737696513936" lon="10.031293335600594"><ele>827.0</ele><time>2026-03-28T15:04:32Z</time></trkpt><trkpt lat="44.53721496878388" lon="10.031212376803536"><ele>827.0</ele><time>2026-03-28T15:04:33Z</time></trkpt><trkpt lat="44.537089417123646" lon="10.03116681312454"><ele>827.0</ele><time>2026-03-28T15:04:34Z</time></trkpt><trkpt lat="44.53698042679567" lon="10.031182091237607"><ele>827.0</ele><time>2026-03-28T15:04:35Z</time></trkpt><trkpt lat="44.53686206165431" lon="10.031283179215833"><ele>827.0</ele><time>2026-03-28T15:04:36Z</time></trkpt><trkpt lat="44.53676554124584" lon="10.031471040312855"><ele>825.3333333333334</ele><time>2026-03-28T15:04:37Z</time></trkpt><trkpt lat="44.53671627452758" lon="10.03170801488009"><ele>823.6666666666667</ele><time>2026-03-28T15:04:38Z</time></trkpt><trkpt lat="44.536718897296694" lon="10.031937695623938"><ele>822.0</ele><time>2026-03-28T15:04:39Z</time></trkpt><trkpt lat="44.536724252720184" lon="10.03216001901618"><ele>822.0</ele><time>2026-03-28T15:04:40Z</time></trkpt><trkpt lat="44.53666228849572" lon="10.032341301764431"><ele>822.0</ele><time>2026-03-28T15:04:41Z</time></trkpt><trkpt lat="44.536546118605436" lon="10.03249593777738"><ele>822.0</ele><time>2026-03-28T15:04:42Z</time></trkpt><trkpt lat="44.5363862150949" lon="10.032654519638173"><ele>821.3333333333333</ele><time>2026-03-28T15:04:43Z</time></trkpt><trkpt lat="44.53620726071743" lon="10.032816643765395"><ele>820.6666666666666</ele><time>2026-03-28T15:04:44Z</time></trkpt><trkpt lat="44.536044252439694" lon="10.032962475616484"><ele>820.0</ele><time>2026-03-28T15:04:45Z</time></trkpt><trkpt lat="44.5359075871265" lon="10.033103636036333"><ele>820.0</ele><time>2026-03-28T15:04:46Z</time></trkpt><trkpt lat="44.53577278528155" lon="10.033228457578524"><ele>820.0</ele><time>2026-03-28T15:04:47Z</time></trkpt><trkpt lat="44.535667760632585" lon="10.033378308499874"><ele>820.0</ele><time>2026-03-28T15:04:48Z</time></trkpt><trkpt lat="44.5356011386792" lon="10.033592308991913"><ele>820.0</ele><time>2026-03-28T15:04:49Z</time></trkpt><trkpt lat="44.5355556827583" lon="10.033791580548273"><ele>820.0</ele><time>2026-03-28T15:04:50Z</time></trkpt><trkpt lat="44.535436958450546" lon="10.033850144885367"><ele>820.0</ele><time>2026-03-28T15:04:51Z</time></trkpt><trkpt lat="44.53528633505513" lon="10.033971382445463"><ele>820.0</ele><time>2026-03-28T15:04:52Z</time></trkpt><trkpt lat="44.53514251047055" lon="10.034130264317419"><ele>822.5</ele><time>2026-03-28T15:04:53Z</time></trkpt><trkpt lat="44.535014699134344" lon="10.034326070044337"><ele>825.0</ele><time>2026-03-28T15:04:54Z</time></trkpt><trkpt lat="44.53491788635817" lon="10.034486760229411"><ele>827.5</ele><time>2026-03-28T15:04:55Z</time></trkpt><trkpt lat="44.53482285806927" lon="10.03454159882731"><ele>830.0</ele><time>2026-03-28T15:04:56Z</time></trkpt><trkpt lat="44.53473584694045" lon="10.034513635355374"><ele>830.0</ele><time>2026-03-28T15:04:57Z</time></trkpt><trkpt lat="44.53462900353677" lon="10.034477411136022"><ele>830.0</ele><time>2026-03-28T15:04:58Z</time></trkpt><trkpt lat="44.53455240649861" lon="10.034369797398872"><ele>830.0</ele><time>2026-03-28T15:04:59Z</time></trkpt><trkpt lat="44.534493950916215" lon="10.034219828072588"><ele>830.0</ele><time>2026-03-28T15:04:59.999Z</time></trkpt><trkpt lat="44.534460614667935" lon="10.034000089205918"><ele>831.0</ele><time>2026-03-28T15:05:00.999Z</time></trkpt><trkpt lat="44.53441157819908" lon="10.03372848468646"><ele>832.0</ele><time>2026-03-28T15:05:01.999Z</time></trkpt><trkpt lat="44.53436442666891" lon="10.033461477933727"><ele>833.0</ele><time>2026-03-28T15:05:02.999Z</time></trkpt><trkpt lat="44.534305988748194" lon="10.033209238363794"><ele>833.0</ele><time>2026-03-28T15:05:03.999Z</time></trkpt><trkpt lat="44.53426605747809" lon="10.032954879355142"><ele>833.0</ele><time>2026-03-28T15:05:04.999Z</time></trkpt><trkpt lat="44.534231132496856" lon="10.032727367685906"><ele>833.0</ele><time>2026-03-28T15:05:05.999Z</time></trkpt><trkpt lat="44.53419436200087" lon="10.032523341825993"><ele>831.0</ele><time>2026-03-28T15:05:06.999Z</time></trkpt><trkpt lat="44.53414440230143" lon="10.03236247889078"><ele>829.0</ele><time>2026-03-28T15:05:07.999Z</time></trkpt><trkpt lat="44.53407093110273" lon="10.032218282066315"><ele>827.0</ele><time>2026-03-28T15:05:08.999Z</time></trkpt><trkpt lat="44.53395726573149" lon="10.032116325076926"><ele>825.0</ele><time>2026-03-28T15:05:09.999Z</time></trkpt><trkpt lat="44.53381557091107" lon="10.032070681984688"><ele>825.6666666666667</ele><time>2026-03-28T15:05:10.999Z</time></trkpt><trkpt lat="44.533660909507375" lon="10.032096763071404"><ele>826.3333333333334</ele><time>2026-03-28T15:05:11.999Z</time></trkpt><trkpt lat="44.533488877169624" lon="10.032169497728677"><ele>827.0</ele><time>2026-03-28T15:05:12.999Z</time></trkpt><trkpt lat="44.533306920696965" lon="10.032238257255932"><ele>827.0</ele><time>2026-03-28T15:05:13.999Z</time></trkpt><trkpt lat="44.53314182950133" lon="10.03228250532425"><ele>827.0</ele><time>2026-03-28T15:05:14.999Z</time></trkpt><trkpt lat="44.53297968590143" lon="10.032318332612903"><ele>827.0</ele><time>2026-03-28T15:05:15.999Z</time></trkpt><trkpt lat="44.532817127032565" lon="10.032317292511756"><ele>823.6666666666667</ele><time>2026-03-28T15:05:16.999Z</time></trkpt><trkpt lat="44.53265408319394" lon="10.032357310497439"><ele>820.3333333333333</ele><time>2026-03-28T15:05:17.999Z</time></trkpt><trkpt lat="44.5324935427016" lon="10.03236918901213"><ele>817.0</ele><time>2026-03-28T15:05:18.999Z</time></trkpt><trkpt lat="44.53232222347948" lon="10.03237874726938"><ele>817.0</ele><time>2026-03-28T15:05:19.999Z</time></trkpt><trkpt lat="44.532139416799126" lon="10.0323818928335"><ele>817.0</ele><time>2026-03-28T15:05:20.999Z</time></trkpt><trkpt lat="44.53195129011136" lon="10.032383328591145"><ele>817.0</ele><time>2026-03-28T15:05:21.999Z</time></trkpt><trkpt lat="44.53175449669645" lon="10.032391455779972"><ele>819.0</ele><time>2026-03-28T15:05:22.999Z</time></trkpt><trkpt lat="44.53158275721126" lon="10.032405127124594"><ele>821.0</ele><time>2026-03-28T15:05:23.999Z</time></trkpt><trkpt lat="44.53143439633033" lon="10.032429382099302"><ele>823.0</ele><time>2026-03-28T15:05:24.999Z</time></trkpt><trkpt lat="44.5312968273328" lon="10.032474164778115"><ele>827.0</ele><time>2026-03-28T15:05:25.999Z</time></trkpt><trkpt lat="44.531176185900335" lon="10.032521919111828"><ele>831.0</ele><time>2026-03-28T15:05:26.999Z</time></trkpt><trkpt lat="44.53106485141974" lon="10.032560310977095"><ele>835.0</ele><time>2026-03-28T15:05:27.999Z</time></trkpt><trkpt lat="44.530955300726546" lon="10.032598583996396"><ele>839.0</ele><time>2026-03-28T15:05:28.999Z</time></trkpt><trkpt lat="44.53084951007044" lon="10.032629481712357"><ele>839.0000000000001</ele><time>2026-03-28T15:05:29.999Z</time></trkpt><trkpt lat="44.53075559325764" lon="10.032631639758101"><ele>839.0</ele><time>2026-03-28T15:05:30.999Z</time></trkpt><trkpt lat="44.530677750809154" lon="10.03259435751208"><ele>839.0</ele><time>2026-03-28T15:05:31.999Z</time></trkpt><trkpt lat="44.530615960059606" lon="10.032533076885498"><ele>839.0</ele><time>2026-03-28T15:05:32.999Z</time></trkpt><trkpt lat="44.53057510566517" lon="10.032410822205575"><ele>839.0000000000001</ele><time>2026-03-28T15:05:34.999Z</time></trkpt><trkpt lat="44.530558786684715" lon="10.032315268725966"><ele>839.0</ele><time>2026-03-28T15:05:37.999Z</time></trkpt><trkpt lat="44.53050776184602" lon="10.03226002667633"><ele>839.0</ele><time>2026-03-28T15:06:04Z</time></trkpt><trkpt lat="44.53043923447288" lon="10.032340703044406"><ele>839.0</ele><time>2026-03-28T15:06:07Z</time></trkpt><trkpt lat="44.53050451510559" lon="10.0323888767936"><ele>839.0</ele><time>2026-03-28T15:06:11Z</time></trkpt><trkpt lat="44.53048744020901" lon="10.03267366922512"><ele>839.0</ele><time>2026-03-28T15:06:13Z</time></trkpt><trkpt lat="44.53050254510857" lon="10.032802979976216"><ele>839.0000000000001</ele><time>2026-03-28T15:06:15Z</time></trkpt><trkpt lat="44.53050588550356" lon="10.032893010329653"><ele>839.0</ele><time>2026-03-28T15:06:16Z</time></trkpt><trkpt lat="44.530506811844944" lon="10.03298979067972"><ele>839.0</ele><time>2026-03-28T15:06:17Z</time></trkpt><trkpt lat="44.53050500664222" lon="10.033148423568042"><ele>839.0</ele><time>2026-03-28T15:06:19Z</time></trkpt><trkpt lat="44.530502787454" lon="10.033308784078454"><ele>839.0000000000001</ele><time>2026-03-28T15:06:21Z</time></trkpt><trkpt lat="44.53049013510205" lon="10.033429093364314"><ele>839.0</ele><time>2026-03-28T15:06:23Z</time></trkpt><trkpt lat="44.5304631424572" lon="10.033546036301171"><ele>840.3333333333334</ele><time>2026-03-28T15:06:25Z</time></trkpt><trkpt lat="44.5304251386221" lon="10.033642309126547"><ele>841.6666666666667</ele><time>2026-03-28T15:06:27Z</time></trkpt><trkpt lat="44.53036228598576" lon="10.033701350518326"><ele>843.0</ele><time>2026-03-28T15:06:29Z</time></trkpt><trkpt lat="44.530293780308426" lon="10.033752784860894"><ele>844.3333333333333</ele><time>2026-03-28T15:06:31Z</time></trkpt><trkpt lat="44.530231839681726" lon="10.033808625730485"><ele>845.6666666666666</ele><time>2026-03-28T15:06:33Z</time></trkpt><trkpt lat="44.53016419496593" lon="10.03386625657871"><ele>847.0</ele><time>2026-03-28T15:06:35Z</time></trkpt><trkpt lat="44.530078053815615" lon="10.033883138526017"><ele>850.8</ele><time>2026-03-28T15:06:37Z</time></trkpt><trkpt lat="44.52999001814343" lon="10.03387397156944"><ele>854.6</ele><time>2026-03-28T15:06:39Z</time></trkpt><trkpt lat="44.52993450732154" lon="10.033828173944542"><ele>858.3999999999999</ele><time>2026-03-28T15:06:41Z</time></trkpt><trkpt lat="44.5298534297527" lon="10.033784658176604"><ele>862.1999999999999</ele><time>2026-03-28T15:06:44Z</time></trkpt><trkpt lat="44.52975707984298" lon="10.033850047776903"><ele>866.0</ele><time>2026-03-28T15:06:46Z</time></trkpt><trkpt lat="44.529716528914264" lon="10.034002057250907"><ele>866.0000000000001</ele><time>2026-03-28T15:06:48Z</time></trkpt><trkpt lat="44.52974153384109" lon="10.034111894991465"><ele>866.0</ele><time>2026-03-28T15:06:50Z</time></trkpt><trkpt lat="44.52974550765706" lon="10.034238487239387"><ele>866.0</ele><time>2026-03-28T15:06:52Z</time></trkpt><trkpt lat="44.52979247278342" lon="10.03437006373777"><ele>866.0</ele><time>2026-03-28T15:06:54Z</time></trkpt><trkpt lat="44.529816340569" lon="10.034497723523952"><ele>866.0000000000001</ele><time>2026-03-28T15:06:56Z</time></trkpt><trkpt lat="44.529863869691624" lon="10.034584393765652"><ele>866.0</ele><time>2026-03-28T15:06:58Z</time></trkpt><trkpt lat="44.529869420097846" lon="10.034701392871677"><ele>867.1999999999999</ele><time>2026-03-28T15:07:00Z</time></trkpt><trkpt lat="44.52983958456425" lon="10.034828536941879"><ele>868.3999999999999</ele><time>2026-03-28T15:07:02Z</time></trkpt><trkpt lat="44.5298243540875" lon="10.034914981225098"><ele>869.6</ele><time>2026-03-28T15:07:03Z</time></trkpt><trkpt lat="44.52977336226958" lon="10.035011068794237"><ele>870.8</ele><time>2026-03-28T15:07:05Z</time></trkpt><trkpt lat="44.529673549364084" lon="10.035051004047313"><ele>872.0</ele><time>2026-03-28T15:07:07Z</time></trkpt><trkpt lat="44.52955843262696" lon="10.035053219890523"><ele>878.8333333333334</ele><time>2026-03-28T15:07:09Z</time></trkpt><trkpt lat="44.52947324929367" lon="10.035085299278022"><ele>885.6666666666667</ele><time>2026-03-28T15:07:11Z</time></trkpt><trkpt lat="44.5293902733581" lon="10.035143696596556"><ele>892.5</ele><time>2026-03-28T15:07:13Z</time></trkpt><trkpt lat="44.52929338789368" lon="10.035180666969122"><ele>899.3333333333333</ele><time>2026-03-28T15:07:16Z</time></trkpt><trkpt lat="44.52922429562259" lon="10.035227128156471"><ele>906.1666666666666</ele><time>2026-03-28T15:07:18Z</time></trkpt><trkpt lat="44.52914428712934" lon="10.035281525689697"><ele>913.0</ele><time>2026-03-28T15:07:19.999Z</time></trkpt><trkpt lat="44.52906467254287" lon="10.035301494039537"><ele>913.0</ele><time>2026-03-28T15:07:21.999Z</time></trkpt><trkpt lat="44.52897304016832" lon="10.035272325986366"><ele>913.0</ele><time>2026-03-28T15:07:23.999Z</time></trkpt><trkpt lat="44.52888784510964" lon="10.035231189689702"><ele>913.0</ele><time>2026-03-28T15:07:25.999Z</time></trkpt><trkpt lat="44.52880980990307" lon="10.035233269791604"><ele>913.0</ele><time>2026-03-28T15:07:27.999Z</time></trkpt><trkpt lat="44.52871633061312" lon="10.035276262134584"><ele>913.0</ele><time>2026-03-28T15:07:29.999Z</time></trkpt><trkpt lat="44.52860284712707" lon="10.035278774981975"><ele>916.3333333333333</ele><time>2026-03-28T15:07:31.999Z</time></trkpt><trkpt lat="44.52849096062841" lon="10.035290767361523"><ele>919.6666666666666</ele><time>2026-03-28T15:07:33.999Z</time></trkpt><trkpt lat="44.52841258366873" lon="10.035297712136446"><ele>923.0</ele><time>2026-03-28T15:07:35.999Z</time></trkpt><trkpt lat="44.528328160654475" lon="10.035316806267707"><ele>926.3333333333333</ele><time>2026-03-28T15:08:15Z</time></trkpt><trkpt lat="44.528246600075214" lon="10.035317630842613"><ele>929.6666666666666</ele><time>2026-03-28T15:08:17Z</time></trkpt><trkpt lat="44.52817690719896" lon="10.035272443146496"><ele>933.0</ele><time>2026-03-28T15:08:19Z</time></trkpt><trkpt lat="44.528087517554354" lon="10.035198931993826"><ele>933.0</ele><time>2026-03-28T15:08:21Z</time></trkpt><trkpt lat="44.528006584497966" lon="10.035117665640541"><ele>933.0</ele><time>2026-03-28T15:08:23Z</time></trkpt><trkpt lat="44.52790195960484" lon="10.035074665364018"><ele>933.0</ele><time>2026-03-28T15:08:25Z</time></trkpt><trkpt lat="44.52781222105822" lon="10.035100996692433"><ele>933.0</ele><time>2026-03-28T15:08:27Z</time></trkpt><trkpt lat="44.527733063423995" lon="10.035163903697628"><ele>933.0</ele><time>2026-03-28T15:08:29Z</time></trkpt><trkpt lat="44.52764409249372" lon="10.035233698786726"><ele>934.2</ele><time>2026-03-28T15:08:31Z</time></trkpt><trkpt lat="44.52755697045372" lon="10.035269998796286"><ele>935.4</ele><time>2026-03-28T15:08:33Z</time></trkpt><trkpt lat="44.52746435615043" lon="10.035309952522681"><ele>936.6000000000001</ele><time>2026-03-28T15:08:35Z</time></trkpt><trkpt lat="44.52736948030261" lon="10.035352609443084"><ele>937.8000000000001</ele><time>2026-03-28T15:08:37Z</time></trkpt><trkpt lat="44.52729355755041" lon="10.03538556075114"><ele>939.0</ele><time>2026-03-28T15:08:39Z</time></trkpt><trkpt lat="44.5272047273179" lon="10.035396975400197"><ele>939.0</ele><time>2026-03-28T15:08:41Z</time></trkpt><trkpt lat="44.52713351461456" lon="10.035376033335636"><ele>939.0</ele><time>2026-03-28T15:08:43Z</time></trkpt><trkpt lat="44.527046513064256" lon="10.035410730475782"><ele>939.0</ele><time>2026-03-28T15:08:45Z</time></trkpt><trkpt lat="44.526972580222676" lon="10.03545646446944"><ele>939.0</ele><time>2026-03-28T15:08:48Z</time></trkpt><trkpt lat="44.526909060725814" lon="10.03542568221009"><ele>939.0</ele><time>2026-03-28T15:09:01Z</time></trkpt><trkpt lat="44.526991971190974" lon="10.0354417823502"><ele>939.0</ele><time>2026-03-28T15:09:09Z</time></trkpt><trkpt lat="44.527072355252514" lon="10.0353896153578"><ele>939.0</ele><time>2026-03-28T15:09:11Z</time></trkpt><trkpt lat="44.527142841887795" lon="10.035386669878093"><ele>939.0</ele><time>2026-03-28T15:09:13Z</time></trkpt><trkpt lat="44.52721674711329" lon="10.035400644046334"><ele>939.0</ele><time>2026-03-28T15:09:15Z</time></trkpt><trkpt lat="44.52729655876613" lon="10.03539639939157"><ele>939.0</ele><time>2026-03-28T15:09:17Z</time></trkpt><trkpt lat="44.527371631761895" lon="10.035363074807078"><ele>939.0</ele><time>2026-03-28T15:09:19Z</time></trkpt><trkpt lat="44.52743314183048" lon="10.035327530492724"><ele>939.0</ele><time>2026-03-28T15:09:21Z</time></trkpt><trkpt lat="44.52749986936577" lon="10.035298168917018"><ele>939.0</ele><time>2026-03-28T15:09:23Z</time></trkpt><trkpt lat="44.52757047962825" lon="10.035269724284715"><ele>939.0</ele><time>2026-03-28T15:09:32.999Z</time></trkpt><trkpt lat="44.52765435756212" lon="10.035223470090948"><ele>939.0</ele><time>2026-03-28T15:09:34.999Z</time></trkpt><trkpt lat="44.52772301500809" lon="10.03517520764547"><ele>939.0</ele><time>2026-03-28T15:09:36.999Z</time></trkpt><trkpt lat="44.52778257438329" lon="10.035122716144155"><ele>939.0</ele><time>2026-03-28T15:09:38.999Z</time></trkpt><trkpt lat="44.52784628113943" lon="10.035095598547294"><ele>939.0</ele><time>2026-03-28T15:09:40.999Z</time></trkpt><trkpt lat="44.527930235583064" lon="10.035094422782036"><ele>939.0</ele><time>2026-03-28T15:09:43.999Z</time></trkpt><trkpt lat="44.52799874917227" lon="10.035118460662508"><ele>938.0</ele><time>2026-03-28T15:09:45.999Z</time></trkpt><trkpt lat="44.52807540536095" lon="10.035171036550455"><ele>937.0</ele><time>2026-03-28T15:09:47.999Z</time></trkpt><trkpt lat="44.52811850236954" lon="10.035246723282016"><ele>936.0</ele><time>2026-03-28T15:09:49.999Z</time></trkpt><trkpt lat="44.52818548815504" lon="10.035292685569663"><ele>935.0</ele><time>2026-03-28T15:09:51.999Z</time></trkpt><trkpt lat="44.52825940911097" lon="10.035315240054098"><ele>934.0</ele><time>2026-03-28T15:09:53.999Z</time></trkpt><trkpt lat="44.528352693060974" lon="10.035323029502667"><ele>933.0</ele><time>2026-03-28T15:09:55.999Z</time></trkpt><trkpt lat="44.52845451926453" lon="10.035290504830348"><ele>933.0</ele><time>2026-03-28T15:09:58.999Z</time></trkpt><trkpt lat="44.52853921505529" lon="10.035281701812329"><ele>933.0</ele><time>2026-03-28T15:10:00.999Z</time></trkpt><trkpt lat="44.528618612552066" lon="10.035267788226196"><ele>933.0</ele><time>2026-03-28T15:10:02.999Z</time></trkpt><trkpt lat="44.52871256635237" lon="10.035278024063471"><ele>933.0</ele><time>2026-03-28T15:10:04.999Z</time></trkpt><trkpt lat="44.528791471842126" lon="10.035236848908697"><ele>933.0</ele><time>2026-03-28T15:10:08Z</time></trkpt><trkpt lat="44.52886085860616" lon="10.035254202616345"><ele>933.0</ele><time>2026-03-28T15:10:10Z</time></trkpt><trkpt lat="44.528942527192875" lon="10.035283294604389"><ele>929.6666666666666</ele><time>2026-03-28T15:10:12Z</time></trkpt><trkpt lat="44.529030302339756" lon="10.035304165886448"><ele>926.3333333333333</ele><time>2026-03-28T15:10:14Z</time></trkpt><trkpt lat="44.52912013549548" lon="10.035280775642885"><ele>923.0</ele><time>2026-03-28T15:10:16Z</time></trkpt><trkpt lat="44.52919570171298" lon="10.035224906641576"><ele>919.6666666666666</ele><time>2026-03-28T15:10:18Z</time></trkpt><trkpt lat="44.529253591593125" lon="10.035178606272327"><ele>916.3333333333333</ele><time>2026-03-28T15:10:20Z</time></trkpt><trkpt lat="44.529321383173006" lon="10.035164736882221"><ele>913.0</ele><time>2026-03-28T15:10:22Z</time></trkpt><trkpt lat="44.529406571695006" lon="10.035109938855888"><ele>912.9999999999999</ele><time>2026-03-28T15:10:25Z</time></trkpt><trkpt lat="44.52947610503005" lon="10.035070777198985"><ele>913.0</ele><time>2026-03-28T15:10:27Z</time></trkpt><trkpt lat="44.52957213428967" lon="10.035050826660854"><ele>913.0</ele><time>2026-03-28T15:10:30Z</time></trkpt><trkpt lat="44.529654658172966" lon="10.035036434618771"><ele>913.0</ele><time>2026-03-28T15:10:32Z</time></trkpt><trkpt lat="44.52973559501826" lon="10.035024500732218"><ele>912.9999999999999</ele><time>2026-03-28T15:10:34Z</time></trkpt><trkpt lat="44.529794849200414" lon="10.034918698477343"><ele>913.0</ele><time>2026-03-28T15:10:37Z</time></trkpt><trkpt lat="44.52982389690587" lon="10.034811787787698"><ele>906.1666666666666</ele><time>2026-03-28T15:10:39Z</time></trkpt><trkpt lat="44.52984424720156" lon="10.034708223435295"><ele>899.3333333333333</ele><time>2026-03-28T15:10:41Z</time></trkpt><trkpt lat="44.529846093638824" lon="10.034604334674464"><ele>892.5</ele><time>2026-03-28T15:10:43Z</time></trkpt><trkpt lat="44.529813353849825" lon="10.034491734772818"><ele>885.6666666666667</ele><time>2026-03-28T15:10:45Z</time></trkpt><trkpt lat="44.5297649200309" lon="10.034366112991073"><ele>878.8333333333334</ele><time>2026-03-28T15:10:47Z</time></trkpt><trkpt lat="44.529741994122524" lon="10.034245366733128"><ele>872.0</ele><time>2026-03-28T15:10:49Z</time></trkpt><trkpt lat="44.52971432377504" lon="10.034140235319242"><ele>871.0000000000001</ele><time>2026-03-28T15:10:51Z</time></trkpt><trkpt lat="44.52970956425839" lon="10.034048939493763"><ele>870.0</ele><time>2026-03-28T15:10:53Z</time></trkpt><trkpt lat="44.5297191864537" lon="10.033927966951035"><ele>869.0</ele><time>2026-03-28T15:10:55Z</time></trkpt><trkpt lat="44.52976680718817" lon="10.033833417306871"><ele>868.0</ele><time>2026-03-28T15:10:57Z</time></trkpt><trkpt lat="44.5298347043757" lon="10.033807344216346"><ele>867.0000000000001</ele><time>2026-03-28T15:10:59Z</time></trkpt><trkpt lat="44.52992993307537" lon="10.033846363735636"><ele>866.0</ele><time>2026-03-28T15:11:02Z</time></trkpt><trkpt lat="44.53000831826919" lon="10.033886370172107"><ele>866.0</ele><time>2026-03-28T15:11:04Z</time></trkpt><trkpt lat="44.530082512204444" lon="10.033870404355614"><ele>865.9999999999999</ele><time>2026-03-28T15:11:06Z</time></trkpt><trkpt lat="44.5301853678562" lon="10.033842241764289"><ele>865.9999999999999</ele><time>2026-03-28T15:11:08Z</time></trkpt><trkpt lat="44.530260716841" lon="10.033763816671092"><ele>866.0</ele><time>2026-03-28T15:11:10Z</time></trkpt><trkpt lat="44.53034071564739" lon="10.03369346618049"><ele>866.0</ele><time>2026-03-28T15:11:12Z</time></trkpt><trkpt lat="44.53041619503236" lon="10.033627919959102"><ele>862.1999999999999</ele><time>2026-03-28T15:11:14Z</time></trkpt><trkpt lat="44.53046525787224" lon="10.033485581336624"><ele>858.3999999999999</ele><time>2026-03-28T15:11:16Z</time></trkpt><trkpt lat="44.53048148197522" lon="10.033363258189752"><ele>854.6</ele><time>2026-03-28T15:11:18Z</time></trkpt><trkpt lat="44.530508940930275" lon="10.033242545445443"><ele>850.8</ele><time>2026-03-28T15:11:28Z</time></trkpt><trkpt lat="44.53051133794674" lon="10.033097498360624"><ele>847.0</ele><time>2026-03-28T15:11:30Z</time></trkpt><trkpt lat="44.53049878173406" lon="10.032945885120983"><ele>845.0</ele><time>2026-03-28T15:11:31.999Z</time></trkpt><trkpt lat="44.530490035454044" lon="10.032802583014572"><ele>843.0</ele><time>2026-03-28T15:11:33.999Z</time></trkpt><trkpt lat="44.53047780657024" lon="10.032650396600923"><ele>841.0</ele><time>2026-03-28T15:11:35.999Z</time></trkpt><trkpt lat="44.530573601358654" lon="10.032412978938003"><ele>839.0</ele><time>2026-03-28T15:11:37.999Z</time></trkpt><trkpt lat="44.53054006289199" lon="10.032335798991058"><ele>840.4000000000001</ele><time>2026-03-28T15:11:40.999Z</time></trkpt><trkpt lat="44.53049256636385" lon="10.032182794099104"><ele>841.8</ele><time>2026-03-28T15:11:44.999Z</time></trkpt><trkpt lat="44.53044211594769" lon="10.032088447422218"><ele>843.2</ele><time>2026-03-28T15:11:45.999Z</time></trkpt><trkpt lat="44.53038551447913" lon="10.031973257084601"><ele>844.5999999999999</ele><time>2026-03-28T15:11:46.999Z</time></trkpt><trkpt lat="44.53033699795014" lon="10.031852209386463"><ele>846.0</ele><time>2026-03-28T15:11:47.999Z</time></trkpt><trkpt lat="44.530285299815866" lon="10.031740165613835"><ele>844.5999999999999</ele><time>2026-03-28T15:11:48.999Z</time></trkpt><trkpt lat="44.530225678806794" lon="10.031634787847421"><ele>843.2</ele><time>2026-03-28T15:11:49.999Z</time></trkpt><trkpt lat="44.5301693333507" lon="10.031522902503708"><ele>841.8</ele><time>2026-03-28T15:11:50.999Z</time></trkpt><trkpt lat="44.53012347840613" lon="10.03140960983408"><ele>840.4000000000001</ele><time>2026-03-28T15:11:51.999Z</time></trkpt><trkpt lat="44.53007856807153" lon="10.031309018266198"><ele>839.0</ele><time>2026-03-28T15:11:52.999Z</time></trkpt><trkpt lat="44.53001684897265" lon="10.031194454042012"><ele>839.0</ele><time>2026-03-28T15:11:53.999Z</time></trkpt><trkpt lat="44.52993187715167" lon="10.03107840196871"><ele>839.0</ele><time>2026-03-28T15:11:54.999Z</time></trkpt><trkpt lat="44.529820163233516" lon="10.03101229936226"><ele>839.0</ele><time>2026-03-28T15:11:55.999Z</time></trkpt><trkpt lat="44.529706843543934" lon="10.030944715626543"><ele>839.0</ele><time>2026-03-28T15:11:56.999Z</time></trkpt><trkpt lat="44.529593038138515" lon="10.030884227543801"><ele>838.5</ele><time>2026-03-28T15:11:57.999Z</time></trkpt><trkpt lat="44.529486896799405" lon="10.030829583563333"><ele>838.0</ele><time>2026-03-28T15:11:58.999Z</time></trkpt><trkpt lat="44.52938532139055" lon="10.030774359328849"><ele>837.5</ele><time>2026-03-28T15:11:59.999Z</time></trkpt><trkpt lat="44.529284775771494" lon="10.030701422862538"><ele>837.0</ele><time>2026-03-28T15:12:00.999Z</time></trkpt><trkpt lat="44.529192258135936" lon="10.030591531292457"><ele>837.0</ele><time>2026-03-28T15:12:01.999Z</time></trkpt><trkpt lat="44.52910702549734" lon="10.030465269300983"><ele>837.0</ele><time>2026-03-28T15:12:02.999Z</time></trkpt><trkpt lat="44.529022364712006" lon="10.030335373659"><ele>837.0</ele><time>2026-03-28T15:12:03.999Z</time></trkpt><trkpt lat="44.52895095707463" lon="10.030213309037627"><ele>837.0</ele><time>2026-03-28T15:12:04.999Z</time></trkpt><trkpt lat="44.52887758839932" lon="10.030082535324327"><ele>837.75</ele><time>2026-03-28T15:12:05.999Z</time></trkpt><trkpt lat="44.52880304208734" lon="10.029950014973235"><ele>838.5</ele><time>2026-03-28T15:12:06.999Z</time></trkpt><trkpt lat="44.528726285452805" lon="10.02981004388265"><ele>839.25</ele><time>2026-03-28T15:12:07.999Z</time></trkpt><trkpt lat="44.528654530629275" lon="10.029680820318116"><ele>840.0</ele><time>2026-03-28T15:12:08.999Z</time></trkpt><trkpt lat="44.528586010976404" lon="10.029558736339489"><ele>840.0</ele><time>2026-03-28T15:12:09.999Z</time></trkpt><trkpt lat="44.52852003555484" lon="10.029445660245813"><ele>840.0</ele><time>2026-03-28T15:12:10.999Z</time></trkpt><trkpt lat="44.52845983043452" lon="10.02933061418287"><ele>840.0</ele><time>2026-03-28T15:12:11.999Z</time></trkpt><trkpt lat="44.528399393610954" lon="10.029216331629357"><ele>840.0</ele><time>2026-03-28T15:12:13Z</time></trkpt><trkpt lat="44.528343872156846" lon="10.029103423616805"><ele>840.0</ele><time>2026-03-28T15:12:14Z</time></trkpt><trkpt lat="44.52829368146541" lon="10.028987348061383"><ele>839.0</ele><time>2026-03-28T15:12:15Z</time></trkpt><trkpt lat="44.528249236440175" lon="10.028858360756905"><ele>838.0</ele><time>2026-03-28T15:12:16Z</time></trkpt><trkpt lat="44.52820841881061" lon="10.028692324501813"><ele>837.0</ele><time>2026-03-28T15:12:17Z</time></trkpt><trkpt lat="44.52817798171045" lon="10.028541694550025"><ele>836.0</ele><time>2026-03-28T15:12:18Z</time></trkpt><trkpt lat="44.528185777813086" lon="10.028376339201214"><ele>838.75</ele><time>2026-03-28T15:12:19Z</time></trkpt><trkpt lat="44.52821630891621" lon="10.028203825666086"><ele>841.5</ele><time>2026-03-28T15:12:20Z</time></trkpt><trkpt lat="44.52826659795297" lon="10.028051821787162"><ele>844.25</ele><time>2026-03-28T15:12:21Z</time></trkpt><trkpt lat="44.52833168458195" lon="10.02791134292486"><ele>847.0</ele><time>2026-03-28T15:12:22Z</time></trkpt><trkpt lat="44.52841595671463" lon="10.027788980154448"><ele>847.0</ele><time>2026-03-28T15:12:23Z</time></trkpt><trkpt lat="44.5285179694808" lon="10.027682704272719"><ele>847.0</ele><time>2026-03-28T15:12:24Z</time></trkpt><trkpt lat="44.52861483895542" lon="10.027554802639704"><ele>847.0</ele><time>2026-03-28T15:12:25Z</time></trkpt><trkpt lat="44.52870765784962" lon="10.027399681141524"><ele>847.0</ele><time>2026-03-28T15:12:26Z</time></trkpt><trkpt lat="44.528780130609064" lon="10.027217489288653"><ele>844.5</ele><time>2026-03-28T15:12:27Z</time></trkpt><trkpt lat="44.528835241282465" lon="10.027013153126358"><ele>842.0</ele><time>2026-03-28T15:12:28Z</time></trkpt><trkpt lat="44.52887342764518" lon="10.026794297227218"><ele>839.5</ele><time>2026-03-28T15:12:29Z</time></trkpt><trkpt lat="44.52889438772891" lon="10.026648095442614"><ele>837.0</ele><time>2026-03-28T15:12:30Z</time></trkpt><trkpt lat="44.528889517198245" lon="10.02654380734589"><ele>837.0</ele><time>2026-03-28T15:12:32Z</time></trkpt><trkpt lat="44.528988491707665" lon="10.026019376652048"><ele>837.0</ele><time>2026-03-28T15:12:33Z</time></trkpt><trkpt lat="44.52903213679349" lon="10.0258482465111"><ele>841.25</ele><time>2026-03-28T15:12:34Z</time></trkpt><trkpt lat="44.529089301512386" lon="10.025693316693776"><ele>845.5</ele><time>2026-03-28T15:12:35Z</time></trkpt><trkpt lat="44.52918108097128" lon="10.02555370624938"><ele>849.75</ele><time>2026-03-28T15:12:36Z</time></trkpt><trkpt lat="44.52927530212254" lon="10.025409033861907"><ele>854.0</ele><time>2026-03-28T15:12:37Z</time></trkpt><trkpt lat="44.52936978106872" lon="10.025250123582618"><ele>854.0</ele><time>2026-03-28T15:12:38Z</time></trkpt><trkpt lat="44.52947973795379" lon="10.025108615718487"><ele>854.0</ele><time>2026-03-28T15:12:39Z</time></trkpt><trkpt lat="44.529594254783795" lon="10.024968397188129"><ele>854.0</ele><time>2026-03-28T15:12:40Z</time></trkpt><trkpt lat="44.529726266693274" lon="10.02485574423891"><ele>851.3333333333334</ele><time>2026-03-28T15:12:41Z</time></trkpt><trkpt lat="44.529866565594624" lon="10.02475731652111"><ele>848.6666666666667</ele><time>2026-03-28T15:12:42Z</time></trkpt><trkpt lat="44.530011852177395" lon="10.024690999328362"><ele>846.0</ele><time>2026-03-28T15:12:43Z</time></trkpt><trkpt lat="44.53016212040548" lon="10.024631914887333"><ele>846.0</ele><time>2026-03-28T15:12:44Z</time></trkpt><trkpt lat="44.530310871020895" lon="10.024565524893298"><ele>846.0</ele><time>2026-03-28T15:12:45Z</time></trkpt><trkpt lat="44.53045929603571" lon="10.024514229895352"><ele>846.0</ele><time>2026-03-28T15:12:46Z</time></trkpt><trkpt lat="44.53059861042931" lon="10.024449925358034"><ele>843.25</ele><time>2026-03-28T15:12:47Z</time></trkpt><trkpt lat="44.53073277763933" lon="10.024371308880424"><ele>840.5</ele><time>2026-03-28T15:12:48Z</time></trkpt><trkpt lat="44.530863006539896" lon="10.024270807620226"><ele>837.75</ele><time>2026-03-28T15:12:49Z</time></trkpt><trkpt lat="44.53097268588008" lon="10.024125932599132"><ele>835.0</ele><time>2026-03-28T15:12:50Z</time></trkpt><trkpt lat="44.53107884492707" lon="10.023953941468474"><ele>835.0</ele><time>2026-03-28T15:12:51Z</time></trkpt><trkpt lat="44.53117720439145" lon="10.0237771276136"><ele>835.0</ele><time>2026-03-28T15:12:52Z</time></trkpt><trkpt lat="44.53126869460424" lon="10.023621084573104"><ele>835.0</ele><time>2026-03-28T15:12:53Z</time></trkpt><trkpt lat="44.53135598599586" lon="10.023481333003982"><ele>835.0</ele><time>2026-03-28T15:12:54Z</time></trkpt><trkpt lat="44.53142128615963" lon="10.02334670613154"><ele>828.0</ele><time>2026-03-28T15:12:55Z</time></trkpt><trkpt lat="44.531473214009125" lon="10.02317362360887"><ele>821.0</ele><time>2026-03-28T15:12:56Z</time></trkpt><trkpt lat="44.5314896322219" lon="10.022960319915988"><ele>814.0</ele><time>2026-03-28T15:12:57Z</time></trkpt><trkpt lat="44.53148911915249" lon="10.022735987060763"><ele>807.0</ele><time>2026-03-28T15:12:58Z</time></trkpt><trkpt lat="44.53149515299058" lon="10.022530188045621"><ele>806.0</ele><time>2026-03-28T15:12:59Z</time></trkpt><trkpt lat="44.531504829243445" lon="10.022347320313582"><ele>805.0</ele><time>2026-03-28T15:13:00Z</time></trkpt><trkpt lat="44.53150242766865" lon="10.022181609517277"><ele>804.0</ele><time>2026-03-28T15:13:01Z</time></trkpt><trkpt lat="44.5314714499953" lon="10.022027983345238"><ele>803.0</ele><time>2026-03-28T15:13:02Z</time></trkpt><trkpt lat="44.531392281249296" lon="10.021882667454612"><ele>803.0</ele><time>2026-03-28T15:13:03Z</time></trkpt><trkpt lat="44.53127700495692" lon="10.021759672053413"><ele>803.0</ele><time>2026-03-28T15:13:04Z</time></trkpt><trkpt lat="44.53112900738169" lon="10.021665389659569"><ele>803.0</ele><time>2026-03-28T15:13:05Z</time></trkpt><trkpt lat="44.53096746444479" lon="10.021576649995529"><ele>803.25</ele><time>2026-03-28T15:13:06Z</time></trkpt><trkpt lat="44.530825241425134" lon="10.021481540513303"><ele>803.5</ele><time>2026-03-28T15:13:07Z</time></trkpt><trkpt lat="44.53070842706159" lon="10.02137999349161"><ele>803.75</ele><time>2026-03-28T15:13:08Z</time></trkpt><trkpt lat="44.53058438602702" lon="10.021255551497847"><ele>804.0</ele><time>2026-03-28T15:13:09Z</time></trkpt><trkpt lat="44.53045794125521" lon="10.021131380015438"><ele>804.5</ele><time>2026-03-28T15:13:10Z</time></trkpt><trkpt lat="44.53033284686344" lon="10.021017572135905"><ele>805.0</ele><time>2026-03-28T15:13:11Z</time></trkpt><trkpt lat="44.53020682598461" lon="10.020901337588263"><ele>805.5</ele><time>2026-03-28T15:13:12Z</time></trkpt><trkpt lat="44.53008828050639" lon="10.02078849884683"><ele>806.0</ele><time>2026-03-28T15:13:13Z</time></trkpt><trkpt lat="44.52997005356189" lon="10.020679967218099"><ele>806.0</ele><time>2026-03-28T15:13:14Z</time></trkpt><trkpt lat="44.529850166503174" lon="10.020577156409125"><ele>806.0</ele><time>2026-03-28T15:13:15Z</time></trkpt><trkpt lat="44.52972788926268" lon="10.020466972408379"><ele>806.0</ele><time>2026-03-28T15:13:16Z</time></trkpt><trkpt lat="44.52960916703023" lon="10.020354044636989"><ele>806.0</ele><time>2026-03-28T15:13:17Z</time></trkpt><trkpt lat="44.529493747190315" lon="10.020226426847472"><ele>806.5</ele><time>2026-03-28T15:13:18Z</time></trkpt><trkpt lat="44.5293969792391" lon="10.020089185701652"><ele>807.0</ele><time>2026-03-28T15:13:19Z</time></trkpt><trkpt lat="44.529325120966405" lon="10.019914413490087"><ele>807.5</ele><time>2026-03-28T15:13:20Z</time></trkpt><trkpt lat="44.52928740106187" lon="10.019708931306534"><ele>808.0</ele><time>2026-03-28T15:13:21Z</time></trkpt><trkpt lat="44.52923793853406" lon="10.0195343544256"><ele>808.0</ele><time>2026-03-28T15:13:22Z</time></trkpt><trkpt lat="44.529207007344276" lon="10.01935997356599"><ele>808.0</ele><time>2026-03-28T15:13:23Z</time></trkpt><trkpt lat="44.529172999210395" lon="10.019197189926418"><ele>808.0</ele><time>2026-03-28T15:13:24Z</time></trkpt><trkpt lat="44.52913231209343" lon="10.01903693054984"><ele>808.0</ele><time>2026-03-28T15:13:25Z</time></trkpt><trkpt lat="44.529084473147165" lon="10.018884041761366"><ele>807.0</ele><time>2026-03-28T15:13:26Z</time></trkpt><trkpt lat="44.52900734701444" lon="10.018756246795784"><ele>806.0</ele><time>2026-03-28T15:13:27Z</time></trkpt><trkpt lat="44.5289013379863" lon="10.018648569653232"><ele>805.0</ele><time>2026-03-28T15:13:28Z</time></trkpt><trkpt lat="44.52876465720932" lon="10.018594563851869"><ele>804.0</ele><time>2026-03-28T15:13:29Z</time></trkpt><trkpt lat="44.52862364939774" lon="10.018595227471565"><ele>804.0</ele><time>2026-03-28T15:13:30Z</time></trkpt><trkpt lat="44.52848349681582" lon="10.018671975748473"><ele>804.0</ele><time>2026-03-28T15:13:31Z</time></trkpt><trkpt lat="44.52834603512011" lon="10.018764547632404"><ele>804.0</ele><time>2026-03-28T15:13:32Z</time></trkpt><trkpt lat="44.52820774557244" lon="10.018833790642745"><ele>804.0</ele><time>2026-03-28T15:13:33Z</time></trkpt><trkpt lat="44.528066870546695" lon="10.018882137745281"><ele>804.0</ele><time>2026-03-28T15:13:34Z</time></trkpt><trkpt lat="44.52792615940386" lon="10.018889415127259"><ele>804.0</ele><time>2026-03-28T15:13:35Z</time></trkpt><trkpt lat="44.5277888261138" lon="10.018913169024499"><ele>804.0</ele><time>2026-03-28T15:13:36Z</time></trkpt><trkpt lat="44.52765600199496" lon="10.01881673649855"><ele>804.25</ele><time>2026-03-28T15:13:37Z</time></trkpt><trkpt lat="44.5275066397307" lon="10.01875902777056"><ele>804.5</ele><time>2026-03-28T15:13:38Z</time></trkpt><trkpt lat="44.52736983958351" lon="10.018682358341715"><ele>804.75</ele><time>2026-03-28T15:13:38.999Z</time></trkpt><trkpt lat="44.52724822287268" lon="10.018613233785835"><ele>805.0</ele><time>2026-03-28T15:13:39.999Z</time></trkpt><trkpt lat="44.52714030295434" lon="10.018514255939165"><ele>808.0</ele><time>2026-03-28T15:13:40.999Z</time></trkpt><trkpt lat="44.527048108075434" lon="10.018359885498077"><ele>811.0</ele><time>2026-03-28T15:13:41.999Z</time></trkpt><trkpt lat="44.527000788485466" lon="10.018159168234623"><ele>814.0</ele><time>2026-03-28T15:13:42.999Z</time></trkpt><trkpt lat="44.52694537761463" lon="10.017953823837564"><ele>814.0</ele><time>2026-03-28T15:13:43.999Z</time></trkpt><trkpt lat="44.52690611904821" lon="10.01773663143238"><ele>814.0</ele><time>2026-03-28T15:13:44.999Z</time></trkpt><trkpt lat="44.52687486244856" lon="10.01753326324141"><ele>814.0</ele><time>2026-03-28T15:13:45.999Z</time></trkpt><trkpt lat="44.52684795945027" lon="10.017348978560381"><ele>814.0</ele><time>2026-03-28T15:13:46.999Z</time></trkpt><trkpt lat="44.52681554413778" lon="10.01717676977123"><ele>813.0</ele><time>2026-03-28T15:13:47.999Z</time></trkpt><trkpt lat="44.52678141204816" lon="10.017018489801902"><ele>812.0</ele><time>2026-03-28T15:13:48.999Z</time></trkpt><trkpt lat="44.52675187629178" lon="10.016873622041102"><ele>811.0</ele><time>2026-03-28T15:13:49.999Z</time></trkpt><trkpt lat="44.526720737275916" lon="10.016732557701753"><ele>810.0</ele><time>2026-03-28T15:13:50.999Z</time></trkpt><trkpt lat="44.52667558374528" lon="10.016586427621347"><ele>809.0</ele><time>2026-03-28T15:13:51.999Z</time></trkpt><trkpt lat="44.52662234452345" lon="10.01643465902004"><ele>807.75</ele><time>2026-03-28T15:13:52.999Z</time></trkpt><trkpt lat="44.52656051406089" lon="10.016276896039727"><ele>806.5</ele><time>2026-03-28T15:13:53.999Z</time></trkpt><trkpt lat="44.52650010391427" lon="10.016120453955608"><ele>805.25</ele><time>2026-03-28T15:13:54.999Z</time></trkpt><trkpt lat="44.52644654444817" lon="10.015967800409262"><ele>804.0</ele><time>2026-03-28T15:13:55.999Z</time></trkpt><trkpt lat="44.52640253889364" lon="10.01582670816696"><ele>803.2</ele><time>2026-03-28T15:13:56.999Z</time></trkpt><trkpt lat="44.52635803998107" lon="10.015701379717443"><ele>802.4000000000001</ele><time>2026-03-28T15:13:57.999Z</time></trkpt><trkpt lat="44.52630887981818" lon="10.015588611581657"><ele>801.6</ele><time>2026-03-28T15:13:58.999Z</time></trkpt><trkpt lat="44.5262535158299" lon="10.015486838267174"><ele>800.8</ele><time>2026-03-28T15:13:59.999Z</time></trkpt><trkpt lat="44.52618571542486" lon="10.015408579278544"><ele>800.0</ele><time>2026-03-28T15:14:00.999Z</time></trkpt><trkpt lat="44.52608016471776" lon="10.01534675758448"><ele>800.0</ele><time>2026-03-28T15:14:01.999Z</time></trkpt><trkpt lat="44.52596114221528" lon="10.015302236335105"><ele>800.0</ele><time>2026-03-28T15:14:02.999Z</time></trkpt><trkpt lat="44.525844708661964" lon="10.0152743188797"><ele>800.0</ele><time>2026-03-28T15:14:03.999Z</time></trkpt><trkpt lat="44.52572293714883" lon="10.015287206553637"><ele>800.0</ele><time>2026-03-28T15:14:04.999Z</time></trkpt><trkpt lat="44.52559603308549" lon="10.01531977987007"><ele>800.0</ele><time>2026-03-28T15:14:05.999Z</time></trkpt><trkpt lat="44.525478738522885" lon="10.015310269179933"><ele>800.0</ele><time>2026-03-28T15:14:06.999Z</time></trkpt><trkpt lat="44.52538100154741" lon="10.01520368606646"><ele>800.0</ele><time>2026-03-28T15:14:07.999Z</time></trkpt><trkpt lat="44.52528660541598" lon="10.01506911534763"><ele>800.0</ele><time>2026-03-28T15:14:08.999Z</time></trkpt><trkpt lat="44.52518973986558" lon="10.014927077389872"><ele>799.75</ele><time>2026-03-28T15:14:09.999Z</time></trkpt><trkpt lat="44.52511402860183" lon="10.014761729255317"><ele>799.5</ele><time>2026-03-28T15:14:10.999Z</time></trkpt><trkpt lat="44.525034069062876" lon="10.014594210144587"><ele>799.25</ele><time>2026-03-28T15:14:11.999Z</time></trkpt><trkpt lat="44.524953983689656" lon="10.014424571727673"><ele>799.0</ele><time>2026-03-28T15:14:12.999Z</time></trkpt><trkpt lat="44.52487322065696" lon="10.014259176490748"><ele>797.75</ele><time>2026-03-28T15:14:13.999Z</time></trkpt><trkpt lat="44.524784701619424" lon="10.014127489380053"><ele>796.5</ele><time>2026-03-28T15:14:14.999Z</time></trkpt><trkpt lat="44.52467151819232" lon="10.014038745520933"><ele>795.25</ele><time>2026-03-28T15:14:15.999Z</time></trkpt><trkpt lat="44.52454441585226" lon="10.013985480072904"><ele>794.0</ele><time>2026-03-28T15:14:16.999Z</time></trkpt><trkpt lat="44.52441015779064" lon="10.01392482926195"><ele>794.0</ele><time>2026-03-28T15:14:17.999Z</time></trkpt><trkpt lat="44.52427975860392" lon="10.013860594177494"><ele>794.0</ele><time>2026-03-28T15:14:19Z</time></trkpt><trkpt lat="44.52414507571343" lon="10.013798629953412"><ele>794.0</ele><time>2026-03-28T15:14:20Z</time></trkpt><trkpt lat="44.52401385657291" lon="10.0137398704435"><ele>794.0</ele><time>2026-03-28T15:14:21Z</time></trkpt><trkpt lat="44.523883933220574" lon="10.013674913720465"><ele>794.0</ele><time>2026-03-28T15:14:22Z</time></trkpt><trkpt lat="44.52375977367609" lon="10.013606137052758"><ele>794.0</ele><time>2026-03-28T15:14:23Z</time></trkpt><trkpt lat="44.52362989747118" lon="10.013557681463375"><ele>794.0</ele><time>2026-03-28T15:14:24Z</time></trkpt><trkpt lat="44.52349359812311" lon="10.013545038899892"><ele>794.0</ele><time>2026-03-28T15:14:25Z</time></trkpt><trkpt lat="44.523342956594554" lon="10.01361205681295"><ele>792.0</ele><time>2026-03-28T15:14:26Z</time></trkpt><trkpt lat="44.52319932479437" lon="10.013723584424907"><ele>790.0</ele><time>2026-03-28T15:14:27Z</time></trkpt><trkpt lat="44.52305683585881" lon="10.013875717419136"><ele>788.0</ele><time>2026-03-28T15:14:28Z</time></trkpt><trkpt lat="44.52292845132003" lon="10.014027214966328"><ele>787.75</ele><time>2026-03-28T15:14:29Z</time></trkpt><trkpt lat="44.52280805710672" lon="10.014172147327608"><ele>787.5</ele><time>2026-03-28T15:14:30Z</time></trkpt><trkpt lat="44.52268167966114" lon="10.014272703815495"><ele>787.25</ele><time>2026-03-28T15:14:31Z</time></trkpt><trkpt lat="44.52256790471388" lon="10.01437183202749"><ele>787.0</ele><time>2026-03-28T15:14:32Z</time></trkpt><trkpt lat="44.52245482412754" lon="10.014425484867967"><ele>787.0</ele><time>2026-03-28T15:14:33Z</time></trkpt><trkpt lat="44.522342189717996" lon="10.014429876963266"><ele>787.0</ele><time>2026-03-28T15:14:34Z</time></trkpt><trkpt lat="44.522240719131254" lon="10.014347454189464"><ele>787.0</ele><time>2026-03-28T15:14:35Z</time></trkpt><trkpt lat="44.52215390181511" lon="10.014204322822824"><ele>787.0</ele><time>2026-03-28T15:14:36Z</time></trkpt><trkpt lat="44.52205680615224" lon="10.01404104001165"><ele>792.0</ele><time>2026-03-28T15:14:37Z</time></trkpt><trkpt lat="44.52197210389958" lon="10.013902363963844"><ele>797.0</ele><time>2026-03-28T15:14:38Z</time></trkpt><trkpt lat="44.52191452425759" lon="10.01375739704271"><ele>802.0</ele><time>2026-03-28T15:14:39Z</time></trkpt><trkpt lat="44.521883905158916" lon="10.013568996635664"><ele>807.0</ele><time>2026-03-28T15:14:40Z</time></trkpt><trkpt lat="44.52187036974933" lon="10.013340882018117"><ele>805.3333333333333</ele><time>2026-03-28T15:14:41Z</time></trkpt><trkpt lat="44.52186693408356" lon="10.01311047697294"><ele>803.6666666666666</ele><time>2026-03-28T15:14:42Z</time></trkpt><trkpt lat="44.52185918207675" lon="10.0128760981463"><ele>802.0</ele><time>2026-03-28T15:14:43Z</time></trkpt><trkpt lat="44.521855941322094" lon="10.012680924551404"><ele>798.0</ele><time>2026-03-28T15:14:44Z</time></trkpt><trkpt lat="44.52185043989379" lon="10.01245589208794"><ele>794.0</ele><time>2026-03-28T15:14:45Z</time></trkpt><trkpt lat="44.52181414098422" lon="10.012222361535242"><ele>790.0</ele><time>2026-03-28T15:14:46Z</time></trkpt><trkpt lat="44.52173761009358" lon="10.011998326189136"><ele>790.0</ele><time>2026-03-28T15:14:47Z</time></trkpt><trkpt lat="44.52164431243411" lon="10.011782230084393"><ele>790.0</ele><time>2026-03-28T15:14:48Z</time></trkpt><trkpt lat="44.52156465389683" lon="10.011569955517864"><ele>790.0</ele><time>2026-03-28T15:14:49Z</time></trkpt><trkpt lat="44.52154141887369" lon="10.011328319329744"><ele>789.0</ele><time>2026-03-28T15:14:50Z</time></trkpt><trkpt lat="44.52152228916844" lon="10.011056385838545"><ele>788.0</ele><time>2026-03-28T15:14:51Z</time></trkpt><trkpt lat="44.5215305145474" lon="10.010781412063666"><ele>787.0</ele><time>2026-03-28T15:14:52Z</time></trkpt><trkpt lat="44.52153446315194" lon="10.010541821413053"><ele>787.0</ele><time>2026-03-28T15:14:53Z</time></trkpt><trkpt lat="44.52153131446621" lon="10.010334111173433"><ele>787.0</ele><time>2026-03-28T15:14:54Z</time></trkpt><trkpt lat="44.52151255677379" lon="10.0101401954784"><ele>787.0</ele><time>2026-03-28T15:14:55Z</time></trkpt><trkpt lat="44.521459024581226" lon="10.009944860565914"><ele>787.0</ele><time>2026-03-28T15:14:56Z</time></trkpt><trkpt lat="44.52136369637774" lon="10.009790768307147"><ele>788.6666666666666</ele><time>2026-03-28T15:14:57Z</time></trkpt><trkpt lat="44.52123521940114" lon="10.009670787036296"><ele>790.3333333333333</ele><time>2026-03-28T15:14:58Z</time></trkpt><trkpt lat="44.521078719855126" lon="10.009594898405947"><ele>792.0</ele><time>2026-03-28T15:14:59Z</time></trkpt><trkpt lat="44.52091147199371" lon="10.009539218681367"><ele>792.0</ele><time>2026-03-28T15:15:00Z</time></trkpt><trkpt lat="44.52075295859107" lon="10.009446985379535"><ele>792.0</ele><time>2026-03-28T15:15:01Z</time></trkpt><trkpt lat="44.52062450879719" lon="10.009268052188032"><ele>792.0</ele><time>2026-03-28T15:15:02Z</time></trkpt><trkpt lat="44.52051840397084" lon="10.009047136863943"><ele>797.6666666666667</ele><time>2026-03-28T15:15:03Z</time></trkpt><trkpt lat="44.52039749156798" lon="10.008831198325991"><ele>803.3333333333334</ele><time>2026-03-28T15:15:04Z</time></trkpt><trkpt lat="44.520306241755" lon="10.008619413717328"><ele>809.0</ele><time>2026-03-28T15:15:05Z</time></trkpt><trkpt lat="44.52022433827368" lon="10.0084069812536"><ele>808.0</ele><time>2026-03-28T15:15:06Z</time></trkpt><trkpt lat="44.52016698520318" lon="10.008166563348354"><ele>807.0</ele><time>2026-03-28T15:15:07Z</time></trkpt><trkpt lat="44.520135925725754" lon="10.007913046464624"><ele>806.0</ele><time>2026-03-28T15:15:08Z</time></trkpt><trkpt lat="44.52011924532052" lon="10.00769070423901"><ele>801.75</ele><time>2026-03-28T15:15:09Z</time></trkpt><trkpt lat="44.52010387667302" lon="10.007493204146224"><ele>797.5</ele><time>2026-03-28T15:15:10Z</time></trkpt><trkpt lat="44.520090336868186" lon="10.007315965083874"><ele>793.25</ele><time>2026-03-28T15:15:11Z</time></trkpt><trkpt lat="44.52005767797174" lon="10.007169934326544"><ele>789.0</ele><time>2026-03-28T15:15:12Z</time></trkpt><trkpt lat="44.519999928844875" lon="10.007059166882295"><ele>789.0</ele><time>2026-03-28T15:15:13Z</time></trkpt><trkpt lat="44.51990067143498" lon="10.006973056230578"><ele>789.0</ele><time>2026-03-28T15:15:14Z</time></trkpt><trkpt lat="44.51976802586287" lon="10.006937534667818"><ele>789.0</ele><time>2026-03-28T15:15:15Z</time></trkpt><trkpt lat="44.51962416943268" lon="10.006969605540029"><ele>789.0</ele><time>2026-03-28T15:15:16Z</time></trkpt><trkpt lat="44.519474715663016" lon="10.007059036312823"><ele>787.0</ele><time>2026-03-28T15:15:17Z</time></trkpt><trkpt lat="44.51933142763391" lon="10.007193615772596"><ele>785.0</ele><time>2026-03-28T15:15:18Z</time></trkpt><trkpt lat="44.51920740465502" lon="10.00736390823829"><ele>783.0</ele><time>2026-03-28T15:15:19Z</time></trkpt><trkpt lat="44.51908483010275" lon="10.007477507103804"><ele>791.3333333333333</ele><time>2026-03-28T15:15:20Z</time></trkpt><trkpt lat="44.51894860420895" lon="10.007511935931626"><ele>799.6666666666666</ele><time>2026-03-28T15:15:21Z</time></trkpt><trkpt lat="44.51878209346558" lon="10.007515732963"><ele>808.0</ele><time>2026-03-28T15:15:22Z</time></trkpt><trkpt lat="44.518595951277824" lon="10.007525562172676"><ele>808.3333333333333</ele><time>2026-03-28T15:15:23Z</time></trkpt><trkpt lat="44.51841414523933" lon="10.007510039971272"><ele>808.6666666666667</ele><time>2026-03-28T15:15:24Z</time></trkpt><trkpt lat="44.518249891839346" lon="10.007498526243973"><ele>809.0</ele><time>2026-03-28T15:15:25Z</time></trkpt><trkpt lat="44.51809785241981" lon="10.007483184877568"><ele>807.0</ele><time>2026-03-28T15:15:26Z</time></trkpt><trkpt lat="44.51796005304147" lon="10.00741961420202"><ele>805.0</ele><time>2026-03-28T15:15:27Z</time></trkpt><trkpt lat="44.51781290060309" lon="10.00733641593478"><ele>803.0</ele><time>2026-03-28T15:15:28Z</time></trkpt><trkpt lat="44.5176496055082" lon="10.007249575082636"><ele>803.0</ele><time>2026-03-28T15:15:29Z</time></trkpt><trkpt lat="44.51752242744604" lon="10.007054046097027"><ele>803.0</ele><time>2026-03-28T15:15:30Z</time></trkpt><trkpt lat="44.51735542692011" lon="10.006890033490755"><ele>803.0</ele><time>2026-03-28T15:15:31Z</time></trkpt><trkpt lat="44.51719447549933" lon="10.006722101218712"><ele>801.6666666666667</ele><time>2026-03-28T15:15:32Z</time></trkpt><trkpt lat="44.51702450248079" lon="10.006577411663551"><ele>800.3333333333333</ele><time>2026-03-28T15:15:33Z</time></trkpt><trkpt lat="44.516847844314945" lon="10.006437170994138"><ele>799.0</ele><time>2026-03-28T15:15:34Z</time></trkpt><trkpt lat="44.51668157756204" lon="10.006291037057672"><ele>799.0</ele><time>2026-03-28T15:15:35Z</time></trkpt><trkpt lat="44.51653167835808" lon="10.006145140619445"><ele>799.0</ele><time>2026-03-28T15:15:36Z</time></trkpt><trkpt lat="44.516394835901245" lon="10.006011589533196"><ele>799.0</ele><time>2026-03-28T15:15:37Z</time></trkpt><trkpt lat="44.516278552448064" lon="10.005904006833704"><ele>798.5</ele><time>2026-03-28T15:15:38Z</time></trkpt><trkpt lat="44.51616253478744" lon="10.005833204890175"><ele>798.0</ele><time>2026-03-28T15:15:39Z</time></trkpt><trkpt lat="44.516032356196796" lon="10.005828043871235"><ele>797.5</ele><time>2026-03-28T15:15:40Z</time></trkpt><trkpt lat="44.51589290431448" lon="10.005905794350216"><ele>797.0</ele><time>2026-03-28T15:15:41Z</time></trkpt><trkpt lat="44.51575137136415" lon="10.006047131657576"><ele>800.0</ele><time>2026-03-28T15:15:41.999Z</time></trkpt><trkpt lat="44.51561224405281" lon="10.006174612566907"><ele>803.0</ele><time>2026-03-28T15:15:42.999Z</time></trkpt><trkpt lat="44.51545957327391" lon="10.006208711917543"><ele>806.0</ele><time>2026-03-28T15:15:43.999Z</time></trkpt><trkpt lat="44.5153021512173" lon="10.006191630046798"><ele>806.0</ele><time>2026-03-28T15:15:44.999Z</time></trkpt><trkpt lat="44.51513565734132" lon="10.00611799077224"><ele>806.0</ele><time>2026-03-28T15:15:45.999Z</time></trkpt><trkpt lat="44.51494194951284" lon="10.006035319788786"><ele>806.0</ele><time>2026-03-28T15:15:46.999Z</time></trkpt><trkpt lat="44.51477857696456" lon="10.00592949418439"><ele>806.0</ele><time>2026-03-28T15:15:47.999Z</time></trkpt><trkpt lat="44.514628554989976" lon="10.005850384702143"><ele>806.0</ele><time>2026-03-28T15:15:48.999Z</time></trkpt><trkpt lat="44.51447976130285" lon="10.005772944016407"><ele>806.0</ele><time>2026-03-28T15:15:49.999Z</time></trkpt><trkpt lat="44.51431882149344" lon="10.005682470055948"><ele>803.6666666666667</ele><time>2026-03-28T15:15:50.999Z</time></trkpt><trkpt lat="44.51416148531953" lon="10.005592247330389"><ele>801.3333333333333</ele><time>2026-03-28T15:15:51.999Z</time></trkpt><trkpt lat="44.514006968524015" lon="10.005504066204772"><ele>799.0</ele><time>2026-03-28T15:15:52.999Z</time></trkpt><trkpt lat="44.513859659565306" lon="10.005420780540792"><ele>799.6666666666666</ele><time>2026-03-28T15:15:53.999Z</time></trkpt><trkpt lat="44.513721380709" lon="10.00536099600404"><ele>800.3333333333333</ele><time>2026-03-28T15:15:54.999Z</time></trkpt><trkpt lat="44.51358217023842" lon="10.005359811455778"><ele>801.0</ele><time>2026-03-28T15:15:55.999Z</time></trkpt><trkpt lat="44.51341704387498" lon="10.00542242230177"><ele>801.0</ele><time>2026-03-28T15:15:56.999Z</time></trkpt><trkpt lat="44.51327354409036" lon="10.005456937359764"><ele>801.0</ele><time>2026-03-28T15:15:57.999Z</time></trkpt><trkpt lat="44.513142311324216" lon="10.005484487075304"><ele>801.0</ele><time>2026-03-28T15:15:58.999Z</time></trkpt><trkpt lat="44.513016510652896" lon="10.005367098816466"><ele>801.0</ele><time>2026-03-28T15:15:59.999Z</time></trkpt><trkpt lat="44.512900810901236" lon="10.005260237219826"><ele>801.25</ele><time>2026-03-28T15:16:00.999Z</time></trkpt><trkpt lat="44.51278630712472" lon="10.005166565983469"><ele>801.5</ele><time>2026-03-28T15:16:01.999Z</time></trkpt><trkpt lat="44.51269103638766" lon="10.005055284642587"><ele>801.75</ele><time>2026-03-28T15:16:02.999Z</time></trkpt><trkpt lat="44.512595255147886" lon="10.004917332112836"><ele>802.0</ele><time>2026-03-28T15:16:03.999Z</time></trkpt><trkpt lat="44.5125007064313" lon="10.004769028801139"><ele>802.0</ele><time>2026-03-28T15:16:04.999Z</time></trkpt><trkpt lat="44.51242518665995" lon="10.004612432480956"><ele>802.0</ele><time>2026-03-28T15:16:05.999Z</time></trkpt><trkpt lat="44.51234623723956" lon="10.004460506345602"><ele>802.0</ele><time>2026-03-28T15:16:06.999Z</time></trkpt><trkpt lat="44.51226322650368" lon="10.00432017549031"><ele>802.0</ele><time>2026-03-28T15:16:07.999Z</time></trkpt><trkpt lat="44.512184527198286" lon="10.004178083100467"><ele>796.0</ele><time>2026-03-28T15:16:08.999Z</time></trkpt><trkpt lat="44.512085471719885" lon="10.00404185579432"><ele>790.0</ele><time>2026-03-28T15:16:09.999Z</time></trkpt><trkpt lat="44.511933602627316" lon="10.003942139238506"><ele>784.0</ele><time>2026-03-28T15:16:10.999Z</time></trkpt><trkpt lat="44.51176425233032" lon="10.003863547437888"><ele>784.0</ele><time>2026-03-28T15:16:11.999Z</time></trkpt><trkpt lat="44.51161069554538" lon="10.003792822636942"><ele>784.0</ele><time>2026-03-28T15:16:12.999Z</time></trkpt><trkpt lat="44.51148193901859" lon="10.00376963736138"><ele>784.0</ele><time>2026-03-28T15:16:13.999Z</time></trkpt><trkpt lat="44.51136532453173" lon="10.003802538609282"><ele>784.0</ele><time>2026-03-28T15:16:14.999Z</time></trkpt><trkpt lat="44.51126543975829" lon="10.003920021901905"><ele>784.3333333333333</ele><time>2026-03-28T15:16:15.999Z</time></trkpt><trkpt lat="44.5111707433273" lon="10.004109116522784"><ele>784.6666666666667</ele><time>2026-03-28T15:16:16.999Z</time></trkpt><trkpt lat="44.51106961780814" lon="10.004289089247347"><ele>785.0</ele><time>2026-03-28T15:16:17.999Z</time></trkpt><trkpt lat="44.51095900494146" lon="10.004443878213907"><ele>788.75</ele><time>2026-03-28T15:16:18.999Z</time></trkpt><trkpt lat="44.51082715773996" lon="10.00452553073553"><ele>792.5</ele><time>2026-03-28T15:16:19.999Z</time></trkpt><trkpt lat="44.51069724001384" lon="10.004554971964877"><ele>796.25</ele><time>2026-03-28T15:16:20.999Z</time></trkpt><trkpt lat="44.51057912610539" lon="10.004497671041277"><ele>800.0</ele><time>2026-03-28T15:16:21.999Z</time></trkpt><trkpt lat="44.51044654692573" lon="10.004393986443956"><ele>799.75</ele><time>2026-03-28T15:16:22.999Z</time></trkpt><trkpt lat="44.51031129106184" lon="10.004278058111451"><ele>799.5</ele><time>2026-03-28T15:16:23.999Z</time></trkpt><trkpt lat="44.510202401620994" lon="10.004153917121736"><ele>799.25</ele><time>2026-03-28T15:16:25Z</time></trkpt><trkpt lat="44.510093797160515" lon="10.00404863430657"><ele>799.0</ele><time>2026-03-28T15:16:26Z</time></trkpt><trkpt lat="44.50998042386627" lon="10.00396802243696"><ele>797.0</ele><time>2026-03-28T15:16:27Z</time></trkpt><trkpt lat="44.50985193036176" lon="10.003940276565395"><ele>795.0</ele><time>2026-03-28T15:16:28Z</time></trkpt><trkpt lat="44.50972387145129" lon="10.004016244358338"><ele>793.0</ele><time>2026-03-28T15:16:29Z</time></trkpt><trkpt lat="44.50960412482387" lon="10.004157270677524"><ele>791.0</ele><time>2026-03-28T15:16:30Z</time></trkpt><trkpt lat="44.50946750994775" lon="10.004258873855509"><ele>791.0</ele><time>2026-03-28T15:16:31Z</time></trkpt><trkpt lat="44.509342935972825" lon="10.004333488304285"><ele>791.0</ele><time>2026-03-28T15:16:32Z</time></trkpt><trkpt lat="44.50922597591016" lon="10.004319948839184"><ele>791.0</ele><time>2026-03-28T15:16:33Z</time></trkpt><trkpt lat="44.50910074986476" lon="10.004231332649187"><ele>791.0</ele><time>2026-03-28T15:16:34Z</time></trkpt><trkpt lat="44.50896274685126" lon="10.0041828748104"><ele>791.8</ele><time>2026-03-28T15:16:35Z</time></trkpt><trkpt lat="44.508869486408116" lon="10.004118086446743"><ele>792.5999999999999</ele><time>2026-03-28T15:16:36Z</time></trkpt><trkpt lat="44.50881529741976" lon="10.004022023561111"><ele>793.4</ele><time>2026-03-28T15:16:37Z</time></trkpt><trkpt lat="44.50881492543962" lon="10.003873941733529"><ele>794.2</ele><time>2026-03-28T15:16:38Z</time></trkpt><trkpt lat="44.50888291843859" lon="10.003707724027256"><ele>795.0</ele><time>2026-03-28T15:16:39Z</time></trkpt><trkpt lat="44.508947220893056" lon="10.003493058490454"><ele>796.6666666666667</ele><time>2026-03-28T15:16:40Z</time></trkpt><trkpt lat="44.50903219671617" lon="10.003272481960442"><ele>798.3333333333334</ele><time>2026-03-28T15:16:41Z</time></trkpt><trkpt lat="44.509121748642826" lon="10.003074067986189"><ele>800.0</ele><time>2026-03-28T15:16:42Z</time></trkpt><trkpt lat="44.50922681938557" lon="10.002869415428302"><ele>800.0</ele><time>2026-03-28T15:16:43Z</time></trkpt><trkpt lat="44.50930637565482" lon="10.002702503972369"><ele>800.0</ele><time>2026-03-28T15:16:44Z</time></trkpt><trkpt lat="44.50934649410908" lon="10.002563512382668"><ele>800.0</ele><time>2026-03-28T15:16:45Z</time></trkpt><trkpt lat="44.5093238694474" lon="10.002430046865303"><ele>800.0</ele><time>2026-03-28T15:16:46Z</time></trkpt><trkpt lat="44.5092427469891" lon="10.002287003239504"><ele>801.3333333333334</ele><time>2026-03-28T15:16:47Z</time></trkpt><trkpt lat="44.50910328488351" lon="10.002194051106441"><ele>802.6666666666667</ele><time>2026-03-28T15:16:48Z</time></trkpt><trkpt lat="44.508918021148844" lon="10.00212718566653"><ele>804.0</ele><time>2026-03-28T15:16:49Z</time></trkpt><trkpt lat="44.50873156418347" lon="10.002046359747776"><ele>804.0</ele><time>2026-03-28T15:16:50Z</time></trkpt><trkpt lat="44.50856257577378" lon="10.001939693182573"><ele>804.0</ele><time>2026-03-28T15:16:51Z</time></trkpt><trkpt lat="44.50840231646844" lon="10.001825425509837"><ele>804.0</ele><time>2026-03-28T15:16:52Z</time></trkpt><trkpt lat="44.508249244588185" lon="10.001743437148079"><ele>804.0</ele><time>2026-03-28T15:16:53Z</time></trkpt><trkpt lat="44.50809957183966" lon="10.001714402297244"><ele>804.0</ele><time>2026-03-28T15:16:54Z</time></trkpt><trkpt lat="44.507987925822825" lon="10.001665933076234"><ele>804.0</ele><time>2026-03-28T15:16:55Z</time></trkpt><trkpt lat="44.50788501246899" lon="10.00159989593588"><ele>804.0</ele><time>2026-03-28T15:16:56Z</time></trkpt><trkpt lat="44.50779070765253" lon="10.00149236107457"><ele>807.0</ele><time>2026-03-28T15:16:57Z</time></trkpt><trkpt lat="44.50770329688653" lon="10.001316175160929"><ele>810.0</ele><time>2026-03-28T15:16:58Z</time></trkpt><trkpt lat="44.507619151430774" lon="10.001096005659983"><ele>813.0</ele><time>2026-03-28T15:16:59Z</time></trkpt><trkpt lat="44.50752808682009" lon="10.000876912476837"><ele>809.0</ele><time>2026-03-28T15:17:00Z</time></trkpt><trkpt lat="44.507436806162644" lon="10.00066779187717"><ele>805.0</ele><time>2026-03-28T15:17:01Z</time></trkpt><trkpt lat="44.50735015933036" lon="10.000486218311293"><ele>801.0</ele><time>2026-03-28T15:17:02Z</time></trkpt><trkpt lat="44.5072295740994" lon="10.000299419569659"><ele>801.0</ele><time>2026-03-28T15:17:03Z</time></trkpt><trkpt lat="44.50708633871753" lon="10.00012253292235"><ele>801.0</ele><time>2026-03-28T15:17:04Z</time></trkpt><trkpt lat="44.506938185402824" lon="9.999949193271801"><ele>801.0</ele><time>2026-03-28T15:17:05Z</time></trkpt><trkpt lat="44.506788558352866" lon="9.999770150944567"><ele>803.6666666666667</ele><time>2026-03-28T15:17:06Z</time></trkpt><trkpt lat="44.50664173985773" lon="9.999601170338977"><ele>806.3333333333334</ele><time>2026-03-28T15:17:07Z</time></trkpt><trkpt lat="44.506515500792304" lon="9.999448851194133"><ele>809.0</ele><time>2026-03-28T15:17:08Z</time></trkpt><trkpt lat="44.506393873167696" lon="9.999297694033833"><ele>810.6666666666667</ele><time>2026-03-28T15:17:09Z</time></trkpt><trkpt lat="44.506258868036305" lon="9.999131514278806"><ele>812.3333333333333</ele><time>2026-03-28T15:17:10Z</time></trkpt><trkpt lat="44.50611773097055" lon="9.998963423975603"><ele>814.0</ele><time>2026-03-28T15:17:11Z</time></trkpt><trkpt lat="44.50597421566226" lon="9.998789172531328"><ele>814.0</ele><time>2026-03-28T15:17:12Z</time></trkpt><trkpt lat="44.505827837182565" lon="9.998601617090554"><ele>814.0</ele><time>2026-03-28T15:17:13Z</time></trkpt><trkpt lat="44.505709890806344" lon="9.998373032682416"><ele>814.0</ele><time>2026-03-28T15:17:14Z</time></trkpt><trkpt lat="44.50558399848617" lon="9.998153213246983"><ele>814.0</ele><time>2026-03-28T15:17:15Z</time></trkpt><trkpt lat="44.505483812281554" lon="9.997909588838162"><ele>814.0</ele><time>2026-03-28T15:17:16Z</time></trkpt><trkpt lat="44.50538872400756" lon="9.997669451118885"><ele>814.0</ele><time>2026-03-28T15:17:17Z</time></trkpt><trkpt lat="44.50529619309265" lon="9.997437788846913"><ele>814.0</ele><time>2026-03-28T15:17:18Z</time></trkpt><trkpt lat="44.50519926805456" lon="9.997200227647676"><ele>814.0</ele><time>2026-03-28T15:17:19Z</time></trkpt><trkpt lat="44.50510086783902" lon="9.996982700605043"><ele>814.0</ele><time>2026-03-28T15:17:20Z</time></trkpt><trkpt lat="44.50501377514735" lon="9.996739092197615"><ele>811.0</ele><time>2026-03-28T15:17:21Z</time></trkpt><trkpt lat="44.50490524218398" lon="9.996515777951203"><ele>808.0</ele><time>2026-03-28T15:17:22Z</time></trkpt><trkpt lat="44.50481550338035" lon="9.996279262134495"><ele>805.0</ele><time>2026-03-28T15:17:23Z</time></trkpt><trkpt lat="44.50469766235866" lon="9.996068214270403"><ele>806.6666666666666</ele><time>2026-03-28T15:17:24Z</time></trkpt><trkpt lat="44.504561392676116" lon="9.995867655127809"><ele>808.3333333333333</ele><time>2026-03-28T15:17:25Z</time></trkpt><trkpt lat="44.50442179945844" lon="9.9956708086167"><ele>810.0</ele><time>2026-03-28T15:17:26Z</time></trkpt><trkpt lat="44.50428452090637" lon="9.995493595368846"><ele>810.0</ele><time>2026-03-28T15:17:27Z</time></trkpt><trkpt lat="44.504142266354876" lon="9.995328172151224"><ele>810.0</ele><time>2026-03-28T15:17:28Z</time></trkpt><trkpt lat="44.50402930983614" lon="9.99512762579097"><ele>810.0</ele><time>2026-03-28T15:17:29Z</time></trkpt><trkpt lat="44.503936938089716" lon="9.994911444141493"><ele>812.6666666666667</ele><time>2026-03-28T15:17:30Z</time></trkpt><trkpt lat="44.50385374091985" lon="9.994666449432879"><ele>815.3333333333334</ele><time>2026-03-28T15:17:31Z</time></trkpt><trkpt lat="44.503758474354036" lon="9.99444016759549"><ele>818.0</ele><time>2026-03-28T15:17:32Z</time></trkpt><trkpt lat="44.50368682078284" lon="9.994205184138844"><ele>816.5</ele><time>2026-03-28T15:17:33Z</time></trkpt><trkpt lat="44.50360847312166" lon="9.994012739415219"><ele>815.0</ele><time>2026-03-28T15:17:34Z</time></trkpt><trkpt lat="44.50353793487779" lon="9.9938418126264"><ele>813.5</ele><time>2026-03-28T15:17:35Z</time></trkpt><trkpt lat="44.503489572817315" lon="9.993672597763736"><ele>812.0</ele><time>2026-03-28T15:17:36Z</time></trkpt><trkpt lat="44.50348765343507" lon="9.9934930192048"><ele>812.0</ele><time>2026-03-28T15:17:37Z</time></trkpt><trkpt lat="44.50351912497246" lon="9.993342285269147"><ele>812.0</ele><time>2026-03-28T15:17:38Z</time></trkpt><trkpt lat="44.503564567580895" lon="9.993209000262388"><ele>812.0</ele><time>2026-03-28T15:17:39Z</time></trkpt><trkpt lat="44.50362789956162" lon="9.993037935504292"><ele>812.0</ele><time>2026-03-28T15:17:40Z</time></trkpt><trkpt lat="44.503698975375414" lon="9.992856350308966"><ele>807.5</ele><time>2026-03-28T15:17:41Z</time></trkpt><trkpt lat="44.50376238601107" lon="9.992702132528857"><ele>803.0</ele><time>2026-03-28T15:17:42Z</time></trkpt><trkpt lat="44.50384910728556" lon="9.992617362780788"><ele>798.5</ele><time>2026-03-28T15:17:43Z</time></trkpt><trkpt lat="44.503956591872196" lon="9.992575014831045"><ele>794.0</ele><time>2026-03-28T15:17:44Z</time></trkpt><trkpt lat="44.504084469038304" lon="9.992593323286968"><ele>794.0</ele><time>2026-03-28T15:17:45Z</time></trkpt><trkpt lat="44.504234561440384" lon="9.99265914459751"><ele>794.0</ele><time>2026-03-28T15:17:46Z</time></trkpt><trkpt lat="44.50439989231622" lon="9.992719393805183"><ele>794.0</ele><time>2026-03-28T15:17:46.999Z</time></trkpt><trkpt lat="44.50456818436465" lon="9.992752975986432"><ele>794.0</ele><time>2026-03-28T15:17:47.999Z</time></trkpt><trkpt lat="44.504736593177775" lon="9.992778468613757"><ele>794.0</ele><time>2026-03-28T15:17:48.999Z</time></trkpt><trkpt lat="44.50488218569333" lon="9.99272656447567"><ele>794.0</ele><time>2026-03-28T15:17:49.999Z</time></trkpt><trkpt lat="44.505025557068166" lon="9.992590123825465"><ele>800.0</ele><time>2026-03-28T15:17:50.999Z</time></trkpt><trkpt lat="44.50518100847527" lon="9.99237964212461"><ele>806.0</ele><time>2026-03-28T15:17:51.999Z</time></trkpt><trkpt lat="44.505336366855964" lon="9.99223207354673"><ele>812.0</ele><time>2026-03-28T15:17:52.999Z</time></trkpt><trkpt lat="44.50547831254038" lon="9.992106227827767"><ele>813.25</ele><time>2026-03-28T15:17:53.999Z</time></trkpt><trkpt lat="44.50560937482651" lon="9.992007595342995"><ele>814.5</ele><time>2026-03-28T15:17:54.999Z</time></trkpt><trkpt lat="44.50574211739152" lon="9.991975754500281"><ele>815.75</ele><time>2026-03-28T15:17:55.999Z</time></trkpt><trkpt lat="44.505876119268" lon="9.9920585097387"><ele>817.0</ele><time>2026-03-28T15:17:56.999Z</time></trkpt><trkpt lat="44.50601783056314" lon="9.992197680392094"><ele>817.0</ele><time>2026-03-28T15:17:57.999Z</time></trkpt><trkpt lat="44.50617964103459" lon="9.99233023500408"><ele>817.0</ele><time>2026-03-28T15:17:58.999Z</time></trkpt><trkpt lat="44.506331792471684" lon="9.992491387743565"><ele>817.0</ele><time>2026-03-28T15:17:59.999Z</time></trkpt><trkpt lat="44.50648846019704" lon="9.992639301925204"><ele>819.0</ele><time>2026-03-28T15:18:00.999Z</time></trkpt><trkpt lat="44.50660985082715" lon="9.992832560710854"><ele>821.0</ele><time>2026-03-28T15:18:01.999Z</time></trkpt><trkpt lat="44.50672182217724" lon="9.993011036850744"><ele>823.0</ele><time>2026-03-28T15:18:02.999Z</time></trkpt><trkpt lat="44.50681916479607" lon="9.99317305479047"><ele>823.0</ele><time>2026-03-28T15:18:03.999Z</time></trkpt><trkpt lat="44.50690064453322" lon="9.99332373939353"><ele>823.0</ele><time>2026-03-28T15:18:04.999Z</time></trkpt><trkpt lat="44.50697622982353" lon="9.993369922756585"><ele>823.0</ele><time>2026-03-28T15:18:05.999Z</time></trkpt><trkpt lat="44.50706421680895" lon="9.993391949284852"><ele>823.0</ele><time>2026-03-28T15:18:06.999Z</time></trkpt><trkpt lat="44.507156545656095" lon="9.993351750028332"><ele>823.0</ele><time>2026-03-28T15:18:07.999Z</time></trkpt><trkpt lat="44.507226808852685" lon="9.993237078651921"><ele>823.0</ele><time>2026-03-28T15:18:08.999Z</time></trkpt><trkpt lat="44.50724588361922" lon="9.993090000680404"><ele>823.0</ele><time>2026-03-28T15:18:09.999Z</time></trkpt><trkpt lat="44.50721035096196" lon="9.992941705779872"><ele>823.0</ele><time>2026-03-28T15:18:10.999Z</time></trkpt><trkpt lat="44.50712166413036" lon="9.992768487125327"><ele>823.0</ele><time>2026-03-28T15:18:11.999Z</time></trkpt><trkpt lat="44.50701062158845" lon="9.992574558291244"><ele>825.3333333333333</ele><time>2026-03-28T15:18:12.999Z</time></trkpt><trkpt lat="44.506898089010654" lon="9.992355090485102"><ele>827.6666666666667</ele><time>2026-03-28T15:18:13.999Z</time></trkpt><trkpt lat="44.506801130789846" lon="9.992134260592602"><ele>830.0</ele><time>2026-03-28T15:18:14.999Z</time></trkpt><trkpt lat="44.50668367520018" lon="9.99190629134658"><ele>830.0</ele><time>2026-03-28T15:18:15.999Z</time></trkpt><trkpt lat="44.50656487035209" lon="9.991738914678855"><ele>830.0</ele><time>2026-03-28T15:18:16.999Z</time></trkpt><trkpt lat="44.50646647995712" lon="9.991620183421766"><ele>830.0</ele><time>2026-03-28T15:18:17.999Z</time></trkpt><trkpt lat="44.50639820953351" lon="9.991499746289746"><ele>830.0</ele><time>2026-03-28T15:18:18.999Z</time></trkpt><trkpt lat="44.50636935480794" lon="9.991392020377091"><ele>832.6</ele><time>2026-03-28T15:18:19.999Z</time></trkpt><trkpt lat="44.5064216007597" lon="9.991252208678535"><ele>835.2</ele><time>2026-03-28T15:18:21.999Z</time></trkpt><trkpt lat="44.50649417132546" lon="9.991170866529593"><ele>837.8</ele><time>2026-03-28T15:18:23.999Z</time></trkpt><trkpt lat="44.50656117075019" lon="9.991115698444856"><ele>840.4</ele><time>2026-03-28T15:18:47Z</time></trkpt><trkpt lat="44.50665642062966" lon="9.991176693878135"><ele>843.0</ele><time>2026-03-28T15:18:50Z</time></trkpt><trkpt lat="44.50672162138982" lon="9.991238823609427"><ele>843.0</ele><time>2026-03-28T15:18:51Z</time></trkpt><trkpt lat="44.506780582829904" lon="9.991312992403062"><ele>843.0</ele><time>2026-03-28T15:18:52Z</time></trkpt><trkpt lat="44.506840321009875" lon="9.991388549674852"><ele>843.0</ele><time>2026-03-28T15:18:53Z</time></trkpt><trkpt lat="44.50690701973292" lon="9.991475373217437"><ele>843.0</ele><time>2026-03-28T15:18:54Z</time></trkpt><trkpt lat="44.50697863157625" lon="9.991569254077126"><ele>843.0</ele><time>2026-03-28T15:18:55Z</time></trkpt><trkpt lat="44.50704866032897" lon="9.991667524442072"><ele>843.0</ele><time>2026-03-28T15:18:56Z</time></trkpt><trkpt lat="44.507111847422124" lon="9.991756769512325"><ele>843.0</ele><time>2026-03-28T15:18:57Z</time></trkpt><trkpt lat="44.50718185440713" lon="9.99183769018092"><ele>843.0</ele><time>2026-03-28T15:18:58Z</time></trkpt><trkpt lat="44.507252138131115" lon="9.99192206512837"><ele>843.0</ele><time>2026-03-28T15:18:59Z</time></trkpt><trkpt lat="44.5073227318834" lon="9.992004906495007"><ele>843.0</ele><time>2026-03-28T15:19:00Z</time></trkpt><trkpt lat="44.50739268592073" lon="9.992086010753443"><ele>843.0</ele><time>2026-03-28T15:19:01Z</time></trkpt><trkpt lat="44.50746440140818" lon="9.992163459122649"><ele>843.0</ele><time>2026-03-28T15:19:02Z</time></trkpt><trkpt lat="44.507535225377104" lon="9.992231022857984"><ele>843.0</ele><time>2026-03-28T15:19:03Z</time></trkpt><trkpt lat="44.50760920378862" lon="9.992302200544367"><ele>843.0</ele><time>2026-03-28T15:19:04Z</time></trkpt><trkpt lat="44.50768677373513" lon="9.992369564185532"><ele>843.0</ele><time>2026-03-28T15:19:05Z</time></trkpt><trkpt lat="44.50776185255775" lon="9.992442018004914"><ele>843.0</ele><time>2026-03-28T15:19:06Z</time></trkpt><trkpt lat="44.50783688030943" lon="9.992514160639649"><ele>843.0</ele><time>2026-03-28T15:19:07Z</time></trkpt><trkpt lat="44.50791419231751" lon="9.992587392451735"><ele>843.5</ele><time>2026-03-28T15:19:08Z</time></trkpt><trkpt lat="44.50799667196566" lon="9.992696620598535"><ele>844.0</ele><time>2026-03-28T15:19:09Z</time></trkpt><trkpt lat="44.50809209618292" lon="9.992837243447202"><ele>844.5</ele><time>2026-03-28T15:19:10Z</time></trkpt><trkpt lat="44.50816099289941" lon="9.993011558728531"><ele>845.0</ele><time>2026-03-28T15:19:11Z</time></trkpt><trkpt lat="44.50822299895147" lon="9.993269001484792"><ele>839.5</ele><time>2026-03-28T15:19:12Z</time></trkpt><trkpt lat="44.50830056461122" lon="9.99355026598356"><ele>834.0</ele><time>2026-03-28T15:19:13Z</time></trkpt><trkpt lat="44.50840331950657" lon="9.993886272378095"><ele>834.0</ele><time>2026-03-28T15:19:14Z</time></trkpt><trkpt lat="44.508449582602786" lon="9.994028299004585"><ele>834.0</ele><time>2026-03-28T15:19:15Z</time></trkpt><trkpt lat="44.5085398571142" lon="9.994302070025485"><ele>834.0</ele><time>2026-03-28T15:19:16Z</time></trkpt><trkpt lat="44.50866752168154" lon="9.994528377324803"><ele>835.6666666666667</ele><time>2026-03-28T15:19:17Z</time></trkpt><trkpt lat="44.50880944086759" lon="9.994686423850318"><ele>837.3333333333334</ele><time>2026-03-28T15:19:18Z</time></trkpt><trkpt lat="44.50896733052721" lon="9.994775567965194"><ele>839.0</ele><time>2026-03-28T15:19:19Z</time></trkpt><trkpt lat="44.50916128340445" lon="9.99479791074988"><ele>839.0</ele><time>2026-03-28T15:19:20Z</time></trkpt><trkpt lat="44.509372159435344" lon="9.99478402967521"><ele>839.0</ele><time>2026-03-28T15:19:21Z</time></trkpt><trkpt lat="44.50955020904382" lon="9.994799218559596"><ele>839.0</ele><time>2026-03-28T15:19:22Z</time></trkpt><trkpt lat="44.50968012196103" lon="9.99490967085557"><ele>843.0</ele><time>2026-03-28T15:19:23Z</time></trkpt><trkpt lat="44.5097260779058" lon="9.995102216822122"><ele>847.0</ele><time>2026-03-28T15:19:24Z</time></trkpt><trkpt lat="44.509791108526905" lon="9.995327981861871"><ele>851.0</ele><time>2026-03-28T15:19:25Z</time></trkpt><trkpt lat="44.50986290115188" lon="9.995571104531534"><ele>851.0</ele><time>2026-03-28T15:19:26Z</time></trkpt><trkpt lat="44.5099486443398" lon="9.995775886163731"><ele>851.0</ele><time>2026-03-28T15:19:27Z</time></trkpt><trkpt lat="44.51004158753651" lon="9.995924777008181"><ele>851.0</ele><time>2026-03-28T15:19:28Z</time></trkpt><trkpt lat="44.51018097592241" lon="9.996010178410794"><ele>846.6666666666667</ele><time>2026-03-28T15:19:29Z</time></trkpt><trkpt lat="44.51034907592907" lon="9.996097932847743"><ele>842.3333333333333</ele><time>2026-03-28T15:19:30Z</time></trkpt><trkpt lat="44.51047059824574" lon="9.99631286876631"><ele>838.0</ele><time>2026-03-28T15:19:31Z</time></trkpt><trkpt lat="44.510616038279814" lon="9.996564410863746"><ele>848.5</ele><time>2026-03-28T15:19:32Z</time></trkpt><trkpt lat="44.510751599535745" lon="9.996820583066773"><ele>859.0</ele><time>2026-03-28T15:19:33Z</time></trkpt><trkpt lat="44.5108266422191" lon="9.997119916412677"><ele>859.0</ele><time>2026-03-28T15:19:34Z</time></trkpt><trkpt lat="44.51089897069391" lon="9.997425503153877"><ele>859.0</ele><time>2026-03-28T15:19:35Z</time></trkpt><trkpt lat="44.51097453013773" lon="9.997628561088922"><ele>859.0</ele><time>2026-03-28T15:19:36Z</time></trkpt><trkpt lat="44.51109456578124" lon="9.99782127939151"><ele>859.6666666666666</ele><time>2026-03-28T15:19:37Z</time></trkpt><trkpt lat="44.51127062456474" lon="9.998020103470811"><ele>860.3333333333333</ele><time>2026-03-28T15:19:38Z</time></trkpt><trkpt lat="44.511435052886405" lon="9.998165190335326"><ele>861.0</ele><time>2026-03-28T15:19:39Z</time></trkpt><trkpt lat="44.51158984828964" lon="9.998214663124724"><ele>861.0</ele><time>2026-03-28T15:19:40Z</time></trkpt><trkpt lat="44.511779126700596" lon="9.998196248899713"><ele>861.0</ele><time>2026-03-28T15:19:41Z</time></trkpt><trkpt lat="44.511966495017965" lon="9.998122532707939"><ele>861.0</ele><time>2026-03-28T15:19:42Z</time></trkpt><trkpt lat="44.51214672966439" lon="9.997991640479992"><ele>860.6666666666667</ele><time>2026-03-28T15:19:43Z</time></trkpt><trkpt lat="44.51231775853631" lon="9.997811298598252"><ele>860.3333333333334</ele><time>2026-03-28T15:19:44Z</time></trkpt><trkpt lat="44.51244457909551" lon="9.997616979163796"><ele>860.0</ele><time>2026-03-28T15:19:45Z</time></trkpt><trkpt lat="44.51253074778464" lon="9.997334641459702"><ele>866.0</ele><time>2026-03-28T15:19:46Z</time></trkpt><trkpt lat="44.5126234132432" lon="9.997009160550691"><ele>872.0</ele><time>2026-03-28T15:19:47Z</time></trkpt><trkpt lat="44.512734884257235" lon="9.996706433769758"><ele>870.3333333333334</ele><time>2026-03-28T15:19:48Z</time></trkpt><trkpt lat="44.512840109104204" lon="9.996448624373434"><ele>868.6666666666667</ele><time>2026-03-28T15:19:49Z</time></trkpt><trkpt lat="44.51298027322403" lon="9.996297210131853"><ele>867.0</ele><time>2026-03-28T15:19:50Z</time></trkpt><trkpt lat="44.51314263620992" lon="9.996218499363337"><ele>867.0</ele><time>2026-03-28T15:19:51Z</time></trkpt><trkpt lat="44.5133612371476" lon="9.996125898448605"><ele>867.0</ele><time>2026-03-28T15:19:51.999Z</time></trkpt><trkpt lat="44.51359630322656" lon="9.996027698336288"><ele>865.5</ele><time>2026-03-28T15:19:52.999Z</time></trkpt><trkpt lat="44.51383557650924" lon="9.995928701124036"><ele>864.0</ele><time>2026-03-28T15:19:53.999Z</time></trkpt><trkpt lat="44.514057878164046" lon="9.995855819156716"><ele>864.0</ele><time>2026-03-28T15:19:54.999Z</time></trkpt><trkpt lat="44.51429053768542" lon="9.995863813194589"><ele>864.0</ele><time>2026-03-28T15:19:55.999Z</time></trkpt><trkpt lat="44.51455377129215" lon="9.995899719548811"><ele>865.0</ele><time>2026-03-28T15:19:56.999Z</time></trkpt><trkpt lat="44.51482157704418" lon="9.99593620172378"><ele>866.0</ele><time>2026-03-28T15:19:57.999Z</time></trkpt><trkpt lat="44.515092129658015" lon="9.995963627172216"><ele>866.0</ele><time>2026-03-28T15:19:58.999Z</time></trkpt><trkpt lat="44.515366347062816" lon="9.996000054762005"><ele>866.0</ele><time>2026-03-28T15:19:59.999Z</time></trkpt><trkpt lat="44.515623838167386" lon="9.996038212086694"><ele>869.0</ele><time>2026-03-28T15:20:00.999Z</time></trkpt><trkpt lat="44.51589543960431" lon="9.996072278101899"><ele>872.0</ele><time>2026-03-28T15:20:01.999Z</time></trkpt><trkpt lat="44.51615323274665" lon="9.996101931908216"><ele>874.0</ele><time>2026-03-28T15:20:02.999Z</time></trkpt><trkpt lat="44.516416486354835" lon="9.996124639951338"><ele>876.0</ele><time>2026-03-28T15:20:03.999Z</time></trkpt><trkpt lat="44.516647850652504" lon="9.996143963750855"><ele>876.0</ele><time>2026-03-28T15:20:04.999Z</time></trkpt><trkpt lat="44.51682486747965" lon="9.996164577488393"><ele>876.0</ele><time>2026-03-28T15:20:05.999Z</time></trkpt><trkpt lat="44.51696104759683" lon="9.996169695908124"><ele>876.0</ele><time>2026-03-28T15:20:06.999Z</time></trkpt><trkpt lat="44.517086781127304" lon="9.996115775861735"><ele>876.0</ele><time>2026-03-28T15:20:07.999Z</time></trkpt><trkpt lat="44.51717519849793" lon="9.995963460506198"><ele>876.3333333333333</ele><time>2026-03-28T15:20:08.999Z</time></trkpt><trkpt lat="44.517271034195964" lon="9.995741711945076"><ele>876.6666666666666</ele><time>2026-03-28T15:20:09.999Z</time></trkpt><trkpt lat="44.51734584742962" lon="9.995447105850454"><ele>877.0</ele><time>2026-03-28T15:20:10.999Z</time></trkpt><trkpt lat="44.51746555614128" lon="9.995173478608862"><ele>883.0</ele><time>2026-03-28T15:20:11.999Z</time></trkpt><trkpt lat="44.517646869772136" lon="9.994914108216047"><ele>889.0</ele><time>2026-03-28T15:20:12.999Z</time></trkpt><trkpt lat="44.51787342285158" lon="9.994679913531186"><ele>884.5</ele><time>2026-03-28T15:20:13.999Z</time></trkpt><trkpt lat="44.51808873697903" lon="9.994436727423702"><ele>880.0</ele><time>2026-03-28T15:20:14.999Z</time></trkpt><trkpt lat="44.51829412280532" lon="9.994204754808147"><ele>882.3333333333333</ele><time>2026-03-28T15:20:15.999Z</time></trkpt><trkpt lat="44.51847711514915" lon="9.994014245578244"><ele>884.6666666666667</ele><time>2026-03-28T15:20:16.999Z</time></trkpt><trkpt lat="44.5186492670544" lon="9.993911721639172"><ele>887.0</ele><time>2026-03-28T15:20:17.999Z</time></trkpt><trkpt lat="44.518828880428146" lon="9.993908919440809"><ele>887.6666666666667</ele><time>2026-03-28T15:20:18.999Z</time></trkpt><trkpt lat="44.519035956092516" lon="9.99391870108164"><ele>888.3333333333333</ele><time>2026-03-28T15:20:19.999Z</time></trkpt><trkpt lat="44.519223287070375" lon="9.993951591598128"><ele>889.0</ele><time>2026-03-28T15:20:20.999Z</time></trkpt><trkpt lat="44.51935808507504" lon="9.99398004459515"><ele>889.0</ele><time>2026-03-28T15:20:21.999Z</time></trkpt><trkpt lat="44.51956350685779" lon="9.994028160173102"><ele>889.0</ele><time>2026-03-28T15:20:22.999Z</time></trkpt><trkpt lat="44.519739654889" lon="9.99407106146164"><ele>889.0</ele><time>2026-03-28T15:20:23.999Z</time></trkpt><trkpt lat="44.519915573616466" lon="9.994081177330141"><ele>889.3333333333333</ele><time>2026-03-28T15:20:24.999Z</time></trkpt><trkpt lat="44.520093680480635" lon="9.994071807195525"><ele>889.6666666666667</ele><time>2026-03-28T15:20:25.999Z</time></trkpt><trkpt lat="44.52026859903947" lon="9.994073413959397"><ele>890.0</ele><time>2026-03-28T15:20:26.999Z</time></trkpt><trkpt lat="44.52043543299774" lon="9.99407871637028"><ele>891.6666666666667</ele><time>2026-03-28T15:20:27.999Z</time></trkpt><trkpt lat="44.520593676292975" lon="9.994085552096978"><ele>893.3333333333333</ele><time>2026-03-28T15:20:28.999Z</time></trkpt><trkpt lat="44.52074104276323" lon="9.994104711927578"><ele>895.0</ele><time>2026-03-28T15:20:29.999Z</time></trkpt><trkpt lat="44.52088044717079" lon="9.994162904843252"><ele>893.6666666666666</ele><time>2026-03-28T15:20:30.999Z</time></trkpt><trkpt lat="44.521007595264756" lon="9.99429171763249"><ele>892.3333333333333</ele><time>2026-03-28T15:20:31.999Z</time></trkpt><trkpt lat="44.52114682187039" lon="9.994404988201204"><ele>891.0</ele><time>2026-03-28T15:20:32.999Z</time></trkpt><trkpt lat="44.521280912606784" lon="9.994537141238728"><ele>895.3333333333333</ele><time>2026-03-28T15:20:33.999Z</time></trkpt><trkpt lat="44.52142138835608" lon="9.994660900406702"><ele>899.6666666666666</ele><time>2026-03-28T15:20:34.999Z</time></trkpt><trkpt lat="44.521560893485564" lon="9.994786660416594"><ele>904.0</ele><time>2026-03-28T15:20:35.999Z</time></trkpt><trkpt lat="44.521700069087146" lon="9.994919859628816"><ele>903.3333333333333</ele><time>2026-03-28T15:20:37Z</time></trkpt><trkpt lat="44.521835700103594" lon="9.995063419787071"><ele>902.6666666666667</ele><time>2026-03-28T15:20:38Z</time></trkpt><trkpt lat="44.5219591034153" lon="9.995225204352304"><ele>902.0</ele><time>2026-03-28T15:20:39Z</time></trkpt><trkpt lat="44.522059367973235" lon="9.995407303420528"><ele>906.0</ele><time>2026-03-28T15:20:40Z</time></trkpt><trkpt lat="44.52215665626931" lon="9.99557511159465"><ele>910.0</ele><time>2026-03-28T15:20:41Z</time></trkpt><trkpt lat="44.52228114605131" lon="9.995698792787556"><ele>914.0</ele><time>2026-03-28T15:20:42Z</time></trkpt><trkpt lat="44.5224325407269" lon="9.995773076370517"><ele>914.0</ele><time>2026-03-28T15:20:43Z</time></trkpt><trkpt lat="44.52260068841704" lon="9.995794742303797"><ele>914.0</ele><time>2026-03-28T15:20:44Z</time></trkpt><trkpt lat="44.522790891263426" lon="9.995771806480793"><ele>914.0</ele><time>2026-03-28T15:20:45Z</time></trkpt><trkpt lat="44.52300275480139" lon="9.995747054493764"><ele>915.6666666666667</ele><time>2026-03-28T15:20:46Z</time></trkpt><trkpt lat="44.52322458932567" lon="9.99574244834892"><ele>917.3333333333333</ele><time>2026-03-28T15:20:47Z</time></trkpt><trkpt lat="44.523444020890764" lon="9.99574309449942"><ele>919.0</ele><time>2026-03-28T15:20:48Z</time></trkpt><trkpt lat="44.523660161636585" lon="9.9957377123528"><ele>918.3333333333333</ele><time>2026-03-28T15:20:49Z</time></trkpt><trkpt lat="44.52386830430294" lon="9.995727136542376"><ele>917.6666666666667</ele><time>2026-03-28T15:20:50Z</time></trkpt><trkpt lat="44.52405405770403" lon="9.995724623188812"><ele>917.0</ele><time>2026-03-28T15:20:51Z</time></trkpt><trkpt lat="44.52421193420485" lon="9.995725611081605"><ele>917.0</ele><time>2026-03-28T15:20:52Z</time></trkpt><trkpt lat="44.52433709026368" lon="9.995692301081093"><ele>917.0</ele><time>2026-03-28T15:20:53Z</time></trkpt><trkpt lat="44.5244417971913" lon="9.99558737102148"><ele>917.0</ele><time>2026-03-28T15:20:54Z</time></trkpt><trkpt lat="44.52453408505289" lon="9.995421098180069"><ele>917.0</ele><time>2026-03-28T15:20:55Z</time></trkpt><trkpt lat="44.52460911426231" lon="9.995216290405283"><ele>919.3333333333334</ele><time>2026-03-28T15:20:56Z</time></trkpt><trkpt lat="44.52469125559381" lon="9.995025077803746"><ele>921.6666666666667</ele><time>2026-03-28T15:20:57Z</time></trkpt><trkpt lat="44.524823514630036" lon="9.994916753978439"><ele>924.0</ele><time>2026-03-28T15:20:58Z</time></trkpt><trkpt lat="44.524988578595064" lon="9.994879925740687"><ele>924.0</ele><time>2026-03-28T15:20:59Z</time></trkpt><trkpt lat="44.52518088275904" lon="9.994870862889105"><ele>924.0</ele><time>2026-03-28T15:21:00Z</time></trkpt><trkpt lat="44.52538901566449" lon="9.994854489455538"><ele>924.0</ele><time>2026-03-28T15:21:01Z</time></trkpt><trkpt lat="44.52561456531237" lon="9.994856588926423"><ele>922.6666666666667</ele><time>2026-03-28T15:21:02Z</time></trkpt><trkpt lat="44.52581060111465" lon="9.99482244928066"><ele>921.3333333333334</ele><time>2026-03-28T15:21:03Z</time></trkpt><trkpt lat="44.525996462919025" lon="9.994732209348514"><ele>920.0</ele><time>2026-03-28T15:21:04Z</time></trkpt><trkpt lat="44.52618037058968" lon="9.99457643933898"><ele>919.3333333333334</ele><time>2026-03-28T15:21:05Z</time></trkpt><trkpt lat="44.52634420471431" lon="9.994423221848015"><ele>918.6666666666667</ele><time>2026-03-28T15:21:06Z</time></trkpt><trkpt lat="44.52649762721382" lon="9.994336106770385"><ele>918.0</ele><time>2026-03-28T15:21:07Z</time></trkpt><trkpt lat="44.52662525666941" lon="9.994278442456794"><ele>918.0</ele><time>2026-03-28T15:21:08Z</time></trkpt><trkpt lat="44.52676133905211" lon="9.9943069606968"><ele>918.0</ele><time>2026-03-28T15:21:09Z</time></trkpt><trkpt lat="44.52687394495314" lon="9.994414194362523"><ele>918.0</ele><time>2026-03-28T15:21:10Z</time></trkpt><trkpt lat="44.52696863686672" lon="9.994573090479854"><ele>918.0</ele><time>2026-03-28T15:21:11Z</time></trkpt><trkpt lat="44.527083008557604" lon="9.994768258286918"><ele>916.3333333333333</ele><time>2026-03-28T15:21:12Z</time></trkpt><trkpt lat="44.52718359344303" lon="9.994965244695283"><ele>914.6666666666666</ele><time>2026-03-28T15:21:13Z</time></trkpt><trkpt lat="44.52731335030582" lon="9.995107356945688"><ele>913.0</ele><time>2026-03-28T15:21:14Z</time></trkpt><trkpt lat="44.52748532499805" lon="9.995187369169837"><ele>913.0</ele><time>2026-03-28T15:21:15Z</time></trkpt><trkpt lat="44.52768542700556" lon="9.995227326641565"><ele>913.0</ele><time>2026-03-28T15:21:16Z</time></trkpt><trkpt lat="44.527892576968576" lon="9.995256561642739"><ele>913.0</ele><time>2026-03-28T15:21:17Z</time></trkpt><trkpt lat="44.52806934988927" lon="9.995347137441458"><ele>917.6666666666666</ele><time>2026-03-28T15:21:18Z</time></trkpt><trkpt lat="44.528233288402134" lon="9.995461286346954"><ele>922.3333333333333</ele><time>2026-03-28T15:21:19Z</time></trkpt><trkpt lat="44.528377595612284" lon="9.995643933644157"><ele>927.0</ele><time>2026-03-28T15:21:20Z</time></trkpt><trkpt lat="44.52849791708683" lon="9.995812528200327"><ele>926.0</ele><time>2026-03-28T15:21:21Z</time></trkpt><trkpt lat="44.52858223108298" lon="9.995932480707635"><ele>925.0</ele><time>2026-03-28T15:21:22Z</time></trkpt><trkpt lat="44.528667893174365" lon="9.995999861894807"><ele>924.0</ele><time>2026-03-28T15:21:23Z</time></trkpt><trkpt lat="44.52879056934139" lon="9.99601923795485"><ele>923.0</ele><time>2026-03-28T15:21:24Z</time></trkpt><trkpt lat="44.528927973437405" lon="9.995975524940034"><ele>923.0</ele><time>2026-03-28T15:21:25Z</time></trkpt><trkpt lat="44.52906614936106" lon="9.995887772340083"><ele>923.0</ele><time>2026-03-28T15:21:26Z</time></trkpt><trkpt lat="44.52917971962462" lon="9.995780294363984"><ele>923.0</ele><time>2026-03-28T15:21:27Z</time></trkpt><trkpt lat="44.529282519855364" lon="9.995704581920315"><ele>923.0</ele><time>2026-03-28T15:21:28Z</time></trkpt><trkpt lat="44.529394610686815" lon="9.99571056803165"><ele>925.0</ele><time>2026-03-28T15:21:29Z</time></trkpt><trkpt lat="44.52950952736324" lon="9.995780496548457"><ele>927.0</ele><time>2026-03-28T15:21:30Z</time></trkpt><trkpt lat="44.529620807737736" lon="9.995866977634444"><ele>929.0</ele><time>2026-03-28T15:21:31Z</time></trkpt><trkpt lat="44.529732681189785" lon="9.99594706675693"><ele>931.0</ele><time>2026-03-28T15:21:32Z</time></trkpt><trkpt lat="44.52983451090864" lon="9.996053664962018"><ele>931.0</ele><time>2026-03-28T15:21:33Z</time></trkpt><trkpt lat="44.529940525247646" lon="9.996152425428017"><ele>931.0</ele><time>2026-03-28T15:21:34Z</time></trkpt><trkpt lat="44.53005164871448" lon="9.99624567141376"><ele>931.0</ele><time>2026-03-28T15:21:35Z</time></trkpt><trkpt lat="44.53016404989765" lon="9.996340100944703"><ele>931.0</ele><time>2026-03-28T15:21:36Z</time></trkpt><trkpt lat="44.53027224955025" lon="9.996433154291587"><ele>931.0</ele><time>2026-03-28T15:21:37Z</time></trkpt><trkpt lat="44.530373140080904" lon="9.99652953444272"><ele>930.9999999999999</ele><time>2026-03-28T15:21:38Z</time></trkpt><trkpt lat="44.53046352447817" lon="9.996603532902087"><ele>930.9999999999999</ele><time>2026-03-28T15:21:39Z</time></trkpt><trkpt lat="44.53055164253242" lon="9.996675569544223"><ele>931.0</ele><time>2026-03-28T15:21:40Z</time></trkpt><trkpt lat="44.53063918944746" lon="9.996746617491857"><ele>931.0</ele><time>2026-03-28T15:21:41Z</time></trkpt><trkpt lat="44.53072695004391" lon="9.996799534650652"><ele>929.8</ele><time>2026-03-28T15:21:42Z</time></trkpt><trkpt lat="44.530816505365024" lon="9.99685797921864"><ele>928.5999999999999</ele><time>2026-03-28T15:21:43Z</time></trkpt><trkpt lat="44.530888878367755" lon="9.9968825308368"><ele>927.4</ele><time>2026-03-28T15:21:44Z</time></trkpt><trkpt lat="44.53098985534331" lon="9.996873768270175"><ele>926.2</ele><time>2026-03-28T15:21:45Z</time></trkpt><trkpt lat="44.53107107159869" lon="9.996969802567637"><ele>925.0</ele><time>2026-03-28T15:21:46Z</time></trkpt><trkpt lat="44.531146575117795" lon="9.996859269473504"><ele>924.9999999999999</ele><time>2026-03-28T15:21:47Z</time></trkpt><trkpt lat="44.53121419105305" lon="9.996845195561878"><ele>925.0</ele><time>2026-03-28T15:21:48Z</time></trkpt><trkpt lat="44.531339868506706" lon="9.996861668175931"><ele>925.0</ele><time>2026-03-28T15:21:50Z</time></trkpt><trkpt lat="44.5314050673933" lon="9.99690326653239"><ele>925.0</ele><time>2026-03-28T15:21:51Z</time></trkpt><trkpt lat="44.53147248999149" lon="9.99699013122454"><ele>924.9999999999999</ele><time>2026-03-28T15:21:52Z</time></trkpt><trkpt lat="44.531522646100136" lon="9.9970800404755"><ele>925.0</ele><time>2026-03-28T15:21:53Z</time></trkpt><trkpt lat="44.53154753825935" lon="9.997185263280407"><ele>926.6</ele><time>2026-03-28T15:21:54Z</time></trkpt><trkpt lat="44.531554665675195" lon="9.997298199736282"><ele>928.2</ele><time>2026-03-28T15:21:55Z</time></trkpt><trkpt lat="44.53156180869324" lon="9.997432234512374"><ele>929.8</ele><time>2026-03-28T15:21:56Z</time></trkpt><trkpt lat="44.53158244423656" lon="9.997603701801484"><ele>931.4</ele><time>2026-03-28T15:21:57Z</time></trkpt><trkpt lat="44.531622806071276" lon="9.997786965105039"><ele>933.0</ele><time>2026-03-28T15:21:58Z</time></trkpt><trkpt lat="44.531686153855155" lon="9.997960551482732"><ele>933.0</ele><time>2026-03-28T15:21:59Z</time></trkpt><trkpt lat="44.531782064604336" lon="9.99809248749674"><ele>933.0</ele><time>2026-03-28T15:22:00Z</time></trkpt><trkpt lat="44.531913018188746" lon="9.998200988496155"><ele>933.0</ele><time>2026-03-28T15:22:01Z</time></trkpt><trkpt lat="44.53205124672894" lon="9.998296340852702"><ele>933.0</ele><time>2026-03-28T15:22:02Z</time></trkpt><trkpt lat="44.53218063010361" lon="9.998373764154081"><ele>935.6666666666667</ele><time>2026-03-28T15:22:03Z</time></trkpt><trkpt lat="44.53231320574977" lon="9.99838718813135"><ele>938.3333333333334</ele><time>2026-03-28T15:22:03.999Z</time></trkpt><trkpt lat="44.53243722075598" lon="9.99831985434172"><ele>941.0</ele><time>2026-03-28T15:22:04.999Z</time></trkpt><trkpt lat="44.53259848489255" lon="9.998186676815664"><ele>941.0</ele><time>2026-03-28T15:22:05.999Z</time></trkpt><trkpt lat="44.532768477218276" lon="9.99806163582431"><ele>941.0</ele><time>2026-03-28T15:22:06.999Z</time></trkpt><trkpt lat="44.532977837901306" lon="9.998069070301"><ele>941.0</ele><time>2026-03-28T15:22:07.999Z</time></trkpt><trkpt lat="44.53322123095528" lon="9.998082830895774"><ele>940.6666666666667</ele><time>2026-03-28T15:22:08.999Z</time></trkpt><trkpt lat="44.53345962607761" lon="9.998081173072041"><ele>940.3333333333333</ele><time>2026-03-28T15:22:09.999Z</time></trkpt><trkpt lat="44.53361590865174" lon="9.998129133733388"><ele>940.0</ele><time>2026-03-28T15:22:10.999Z</time></trkpt><trkpt lat="44.533990205813495" lon="9.998131522216822"><ele>940.0</ele><time>2026-03-28T15:22:11.999Z</time></trkpt><trkpt lat="44.53423013284751" lon="9.998143063257965"><ele>940.0</ele><time>2026-03-28T15:22:12.999Z</time></trkpt><trkpt lat="44.534436429891265" lon="9.998149650081231"><ele>940.0</ele><time>2026-03-28T15:22:13.999Z</time></trkpt><trkpt lat="44.53460928797872" lon="9.998176584820436"><ele>939.3333333333333</ele><time>2026-03-28T15:22:14.999Z</time></trkpt><trkpt lat="44.53476276377307" lon="9.99822845578848"><ele>938.6666666666667</ele><time>2026-03-28T15:22:15.999Z</time></trkpt><trkpt lat="44.53487693368527" lon="9.998356607905478"><ele>938.0</ele><time>2026-03-28T15:22:16.999Z</time></trkpt><trkpt lat="44.535012844144354" lon="9.998504241075494"><ele>938.0</ele><time>2026-03-28T15:22:17.999Z</time></trkpt><trkpt lat="44.53517115402369" lon="9.998686447593983"><ele>938.0</ele><time>2026-03-28T15:22:18.999Z</time></trkpt><trkpt lat="44.53532905808197" lon="9.99883588539706"><ele>938.0</ele><time>2026-03-28T15:22:19.999Z</time></trkpt><trkpt lat="44.535443905566396" lon="9.998946591911368"><ele>939.5</ele><time>2026-03-28T15:22:20.999Z</time></trkpt><trkpt lat="44.53556258969584" lon="9.99898358369161"><ele>941.0</ele><time>2026-03-28T15:22:21.999Z</time></trkpt><trkpt lat="44.53569670149207" lon="9.998937142305149"><ele>942.5</ele><time>2026-03-28T15:22:22.999Z</time></trkpt><trkpt lat="44.53582146017787" lon="9.998808412115654"><ele>944.0</ele><time>2026-03-28T15:22:23.999Z</time></trkpt><trkpt lat="44.535945040379765" lon="9.998584200726961"><ele>944.0</ele><time>2026-03-28T15:22:24.999Z</time></trkpt><trkpt lat="44.53607697998517" lon="9.998342500711999"><ele>944.0</ele><time>2026-03-28T15:22:25.999Z</time></trkpt><trkpt lat="44.53622883884104" lon="9.998144066931706"><ele>944.0</ele><time>2026-03-28T15:22:26.999Z</time></trkpt><trkpt lat="44.536393281635675" lon="9.998070423103494"><ele>945.3333333333334</ele><time>2026-03-28T15:22:27.999Z</time></trkpt><trkpt lat="44.536583043545356" lon="9.99804567123604"><ele>946.6666666666667</ele><time>2026-03-28T15:22:28.999Z</time></trkpt><trkpt lat="44.53677728309229" lon="9.998080841153286"><ele>948.0</ele><time>2026-03-28T15:22:29.999Z</time></trkpt><trkpt lat="44.53696780352962" lon="9.99820447802871"><ele>948.5</ele><time>2026-03-28T15:22:30.999Z</time></trkpt><trkpt lat="44.53717592067295" lon="9.998373473386131"><ele>949.0</ele><time>2026-03-28T15:22:31.999Z</time></trkpt><trkpt lat="44.53740352758975" lon="9.998537612842906"><ele>949.0</ele><time>2026-03-28T15:22:32.999Z</time></trkpt><trkpt lat="44.53758244349298" lon="9.998719694342595"><ele>949.0</ele><time>2026-03-28T15:22:33.999Z</time></trkpt><trkpt lat="44.53769129595155" lon="9.998922400154045"><ele>949.0</ele><time>2026-03-28T15:22:34.999Z</time></trkpt><trkpt lat="44.53778308395511" lon="9.999187072097754"><ele>951.0</ele><time>2026-03-28T15:22:35.999Z</time></trkpt><trkpt lat="44.53788689786931" lon="9.999507410062446"><ele>953.0</ele><time>2026-03-28T15:22:36.999Z</time></trkpt><trkpt lat="44.53799427452282" lon="9.999838464591244"><ele>953.0</ele><time>2026-03-28T15:22:37.999Z</time></trkpt><trkpt lat="44.53809450232827" lon="10.000147360314317"><ele>953.0</ele><time>2026-03-28T15:22:38.999Z</time></trkpt><trkpt lat="44.538201271369296" lon="10.000437749329274"><ele>953.0</ele><time>2026-03-28T15:22:39.999Z</time></trkpt><trkpt lat="44.53829145175138" lon="10.000716722989146"><ele>953.0</ele><time>2026-03-28T15:22:40.999Z</time></trkpt><trkpt lat="44.53836605957655" lon="10.000971055149861"><ele>953.0</ele><time>2026-03-28T15:22:41.999Z</time></trkpt><trkpt lat="44.53844893948709" lon="10.001213911287442"><ele>953.0</ele><time>2026-03-28T15:22:43Z</time></trkpt><trkpt lat="44.538525066058234" lon="10.001448719082427"><ele>953.0</ele><time>2026-03-28T15:22:44Z</time></trkpt><trkpt lat="44.53858319817456" lon="10.001689553901663"><ele>953.0</ele><time>2026-03-28T15:22:45Z</time></trkpt><trkpt lat="44.53856820733644" lon="10.00191682641675"><ele>953.0</ele><time>2026-03-28T15:22:46Z</time></trkpt><trkpt lat="44.53851226060047" lon="10.002151754828954"><ele>953.0</ele><time>2026-03-28T15:22:47Z</time></trkpt><trkpt lat="44.53845557453847" lon="10.002387156982815"><ele>953.0</ele><time>2026-03-28T15:22:48Z</time></trkpt><trkpt lat="44.538417942214586" lon="10.002576985736516"><ele>953.75</ele><time>2026-03-28T15:22:49Z</time></trkpt><trkpt lat="44.53837368184518" lon="10.00275382931518"><ele>954.5</ele><time>2026-03-28T15:22:50Z</time></trkpt><trkpt lat="44.53833873027107" lon="10.00290940777637"><ele>955.25</ele><time>2026-03-28T15:22:51Z</time></trkpt><trkpt lat="44.5383119565151" lon="10.003058874231996"><ele>956.0</ele><time>2026-03-28T15:22:52Z</time></trkpt><trkpt lat="44.538302054071856" lon="10.00321626000886"><ele>957.25</ele><time>2026-03-28T15:22:53Z</time></trkpt><trkpt lat="44.538313541356096" lon="10.003380862113092"><ele>958.5</ele><time>2026-03-28T15:22:54Z</time></trkpt><trkpt lat="44.538344673546" lon="10.003547362908575"><ele>959.75</ele><time>2026-03-28T15:22:55Z</time></trkpt><trkpt lat="44.53839446515253" lon="10.00370083958755"><ele>961.0</ele><time>2026-03-28T15:22:56Z</time></trkpt><trkpt lat="44.5384422448281" lon="10.00385383604705"><ele>961.0</ele><time>2026-03-28T15:22:57Z</time></trkpt><trkpt lat="44.53849016679968" lon="10.003988634050158"><ele>960.9999999999999</ele><time>2026-03-28T15:22:58Z</time></trkpt><trkpt lat="44.53855388625018" lon="10.004102623662837"><ele>960.9999999999999</ele><time>2026-03-28T15:22:59Z</time></trkpt><trkpt lat="44.53863280323432" lon="10.004211396328778"><ele>961.0</ele><time>2026-03-28T15:23:00Z</time></trkpt><trkpt lat="44.53873054480573" lon="10.00430605561071"><ele>961.0</ele><time>2026-03-28T15:23:01Z</time></trkpt><trkpt lat="44.53884422624088" lon="10.004379485752104"><ele>963.0</ele><time>2026-03-28T15:23:02Z</time></trkpt><trkpt lat="44.538986040006826" lon="10.004415003245317"><ele>965.0</ele><time>2026-03-28T15:23:03Z</time></trkpt><trkpt lat="44.539195799188185" lon="10.00446199378751"><ele>967.0</ele><time>2026-03-28T15:23:04Z</time></trkpt><trkpt lat="44.53941233694868" lon="10.004493137067662"><ele>965.5</ele><time>2026-03-28T15:23:05Z</time></trkpt><trkpt lat="44.539653464113115" lon="10.004562331709375"><ele>964.0</ele><time>2026-03-28T15:23:06Z</time></trkpt><trkpt lat="44.539864140755704" lon="10.0046355849577"><ele>964.0</ele><time>2026-03-28T15:23:07Z</time></trkpt><trkpt lat="44.540056797965086" lon="10.004722781133477"><ele>964.0</ele><time>2026-03-28T15:23:08Z</time></trkpt><trkpt lat="44.54022189525465" lon="10.004810509439997"><ele>964.0</ele><time>2026-03-28T15:23:09Z</time></trkpt><trkpt lat="44.54036985920014" lon="10.004868935720626"><ele>959.6666666666666</ele><time>2026-03-28T15:23:10Z</time></trkpt><trkpt lat="44.54052722320372" lon="10.00488142250439"><ele>955.3333333333333</ele><time>2026-03-28T15:23:11Z</time></trkpt><trkpt lat="44.54070994711986" lon="10.004823858578622"><ele>951.0</ele><time>2026-03-28T15:23:12Z</time></trkpt><trkpt lat="44.54091195832046" lon="10.004691503610358"><ele>951.0</ele><time>2026-03-28T15:23:13Z</time></trkpt><trkpt lat="44.54110974117378" lon="10.004551582143316"><ele>951.0</ele><time>2026-03-28T15:23:14Z</time></trkpt><trkpt lat="44.54130879169923" lon="10.004471660717922"><ele>951.0</ele><time>2026-03-28T15:23:15Z</time></trkpt><trkpt lat="44.54151418819" lon="10.004525443979038"><ele>947.75</ele><time>2026-03-28T15:23:16Z</time></trkpt><trkpt lat="44.54170369412939" lon="10.004582698981212"><ele>944.5</ele><time>2026-03-28T15:23:17Z</time></trkpt><trkpt lat="44.541833456472034" lon="10.0046058161087"><ele>941.25</ele><time>2026-03-28T15:23:18Z</time></trkpt><trkpt lat="44.54193515340703" lon="10.004581027598169"><ele>938.0</ele><time>2026-03-28T15:23:19Z</time></trkpt><trkpt lat="44.54204439794913" lon="10.004469845752363"><ele>936.75</ele><time>2026-03-28T15:23:20Z</time></trkpt><trkpt lat="44.542117650609505" lon="10.004302730737768"><ele>935.5</ele><time>2026-03-28T15:23:21Z</time></trkpt><trkpt lat="44.54214233958289" lon="10.004105839169844"><ele>934.25</ele><time>2026-03-28T15:23:22Z</time></trkpt><trkpt lat="44.54210114844929" lon="10.003899396110821"><ele>933.0</ele><time>2026-03-28T15:23:23Z</time></trkpt><trkpt lat="44.542005924861606" lon="10.003729541013179"><ele>933.0</ele><time>2026-03-28T15:23:24Z</time></trkpt><trkpt lat="44.54184419119418" lon="10.003574452156863"><ele>933.0</ele><time>2026-03-28T15:23:25Z</time></trkpt><trkpt lat="44.5416622488002" lon="10.00339528360586"><ele>933.0</ele><time>2026-03-28T15:23:26Z</time></trkpt><trkpt lat="44.541524908803964" lon="10.00321376234135"><ele>931.0</ele><time>2026-03-28T15:23:27Z</time></trkpt><trkpt lat="44.54132406373511" lon="10.003005996385449"><ele>929.0</ele><time>2026-03-28T15:23:28Z</time></trkpt><trkpt lat="44.541151521933976" lon="10.002886078875811"><ele>927.0</ele><time>2026-03-28T15:23:29Z</time></trkpt><trkpt lat="44.540978891109134" lon="10.002730689830363"><ele>925.6</ele><time>2026-03-28T15:23:30Z</time></trkpt><trkpt lat="44.54093931900051" lon="10.002641853529187"><ele>924.2</ele><time>2026-03-28T15:23:32Z</time></trkpt><trkpt lat="44.5409516787268" lon="10.002500115315614"><ele>922.8</ele><time>2026-03-28T15:23:33Z</time></trkpt><trkpt lat="44.54103574025431" lon="10.002385381877987"><ele>921.4</ele><time>2026-03-28T15:23:34Z</time></trkpt><trkpt lat="44.54116743738151" lon="10.002360070079082"><ele>920.0</ele><time>2026-03-28T15:23:35Z</time></trkpt><trkpt lat="44.541329380186184" lon="10.00248493758428"><ele>923.5</ele><time>2026-03-28T15:23:36Z</time></trkpt><trkpt lat="44.54154363906334" lon="10.002544508444446"><ele>927.0</ele><time>2026-03-28T15:23:37Z</time></trkpt><trkpt lat="44.5417732019736" lon="10.002598680453767"><ele>927.0</ele><time>2026-03-28T15:23:38Z</time></trkpt><trkpt lat="44.54198463083198" lon="10.00265174566357"><ele>927.0</ele><time>2026-03-28T15:23:39Z</time></trkpt><trkpt lat="44.542162739634165" lon="10.002709346767553"><ele>927.0</ele><time>2026-03-28T15:23:40Z</time></trkpt><trkpt lat="44.54228009462307" lon="10.002816815889096"><ele>924.6666666666667</ele><time>2026-03-28T15:23:41Z</time></trkpt><trkpt lat="44.542329121618636" lon="10.002980428597263"><ele>922.3333333333334</ele><time>2026-03-28T15:23:42Z</time></trkpt><trkpt lat="44.54236678913519" lon="10.003231921152876"><ele>920.0</ele><time>2026-03-28T15:23:43Z</time></trkpt><trkpt lat="44.54244307336641" lon="10.003507812905017"><ele>920.0</ele><time>2026-03-28T15:23:44Z</time></trkpt><trkpt lat="44.542541613679575" lon="10.003754175912794"><ele>920.0</ele><time>2026-03-28T15:23:45Z</time></trkpt><trkpt lat="44.54266928869877" lon="10.00397340733148"><ele>920.0</ele><time>2026-03-28T15:23:46Z</time></trkpt><trkpt lat="44.542833931206346" lon="10.0041371029941"><ele>917.3333333333334</ele><time>2026-03-28T15:23:47Z</time></trkpt><trkpt lat="44.54302952604442" lon="10.004245674792822"><ele>914.6666666666667</ele><time>2026-03-28T15:23:48Z</time></trkpt><trkpt lat="44.543250131861335" lon="10.004285503961622"><ele>912.0</ele><time>2026-03-28T15:23:49Z</time></trkpt><trkpt lat="44.54348671203097" lon="10.004275451993568"><ele>912.0</ele><time>2026-03-28T15:23:50Z</time></trkpt><trkpt lat="44.54370747961913" lon="10.004246373840635"><ele>912.0</ele><time>2026-03-28T15:23:51Z</time></trkpt><trkpt lat="44.543906758775144" lon="10.004181741551042"><ele>912.0</ele><time>2026-03-28T15:23:52Z</time></trkpt><trkpt lat="44.54409818016407" lon="10.00412683602003"><ele>909.6666666666667</ele><time>2026-03-28T15:23:53Z</time></trkpt><trkpt lat="44.54430395395111" lon="10.004167627502184"><ele>907.3333333333334</ele><time>2026-03-28T15:23:54Z</time></trkpt><trkpt lat="44.54452386326046" lon="10.004250196099965"><ele>905.0</ele><time>2026-03-28T15:23:55Z</time></trkpt><trkpt lat="44.54475553861566" lon="10.004343428768472"><ele>902.6666666666667</ele><time>2026-03-28T15:23:56Z</time></trkpt><trkpt lat="44.54497531239691" lon="10.004438933404222"><ele>900.3333333333333</ele><time>2026-03-28T15:23:57Z</time></trkpt><trkpt lat="44.5451692723621" lon="10.004513570985162"><ele>898.0</ele><time>2026-03-28T15:23:58Z</time></trkpt><trkpt lat="44.54534290876572" lon="10.004566008805163"><ele>897.3333333333333</ele><time>2026-03-28T15:23:59Z</time></trkpt><trkpt lat="44.54552270754178" lon="10.004629830694109"><ele>896.6666666666667</ele><time>2026-03-28T15:24:00Z</time></trkpt><trkpt lat="44.545683640375195" lon="10.004618459784275"><ele>896.0</ele><time>2026-03-28T15:24:01Z</time></trkpt><trkpt lat="44.54583607077175" lon="10.004219181650425"><ele>892.3333333333334</ele><time>2026-03-28T15:24:02Z</time></trkpt><trkpt lat="44.54600011875522" lon="10.00399620992337"><ele>888.6666666666667</ele><time>2026-03-28T15:24:03Z</time></trkpt><trkpt lat="44.54617034927088" lon="10.00387272551456"><ele>885.0</ele><time>2026-03-28T15:24:04Z</time></trkpt><trkpt lat="44.54637172131897" lon="10.003817755451271"><ele>881.0</ele><time>2026-03-28T15:24:05Z</time></trkpt><trkpt lat="44.5465914369089" lon="10.00380325660229"><ele>877.0</ele><time>2026-03-28T15:24:06Z</time></trkpt><trkpt lat="44.5468205563435" lon="10.00384500066806"><ele>875.0</ele><time>2026-03-28T15:24:07Z</time></trkpt><trkpt lat="44.54707021492999" lon="10.003914412541155"><ele>873.0</ele><time>2026-03-28T15:24:08Z</time></trkpt><trkpt lat="44.5473179679692" lon="10.00396726231122"><ele>873.0</ele><time>2026-03-28T15:24:08.999Z</time></trkpt><trkpt lat="44.54754202453564" lon="10.00398728605359"><ele>873.0</ele><time>2026-03-28T15:24:09.999Z</time></trkpt><trkpt lat="44.54774301944924" lon="10.003936101585323"><ele>873.0</ele><time>2026-03-28T15:24:10.999Z</time></trkpt><trkpt lat="44.54792387964768" lon="10.003857663218056"><ele>871.3333333333333</ele><time>2026-03-28T15:24:11.999Z</time></trkpt><trkpt lat="44.548099768942535" lon="10.003922753982604"><ele>869.6666666666666</ele><time>2026-03-28T15:24:12.999Z</time></trkpt><trkpt lat="44.548280997767236" lon="10.004029910760384"><ele>868.0</ele><time>2026-03-28T15:24:13.999Z</time></trkpt><trkpt lat="44.54845330923701" lon="10.004088763769207"><ele>868.0</ele><time>2026-03-28T15:24:14.999Z</time></trkpt><trkpt lat="44.5485973515827" lon="10.004140724261378"><ele>868.0</ele><time>2026-03-28T15:24:15.999Z</time></trkpt><trkpt lat="44.54877435294498" lon="10.004087793478412"><ele>868.0</ele><time>2026-03-28T15:24:16.999Z</time></trkpt><trkpt lat="44.54896585159152" lon="10.00391631949343"><ele>865.5</ele><time>2026-03-28T15:24:17.999Z</time></trkpt><trkpt lat="44.54917660809948" lon="10.00372244857918"><ele>863.0</ele><time>2026-03-28T15:24:18.999Z</time></trkpt><trkpt lat="44.549370406051885" lon="10.003589245231424"><ele>862.6666666666667</ele><time>2026-03-28T15:24:19.999Z</time></trkpt><trkpt lat="44.549551186188694" lon="10.003581081650799"><ele>862.3333333333333</ele><time>2026-03-28T15:24:20.999Z</time></trkpt><trkpt lat="44.54971396516758" lon="10.003640242876827"><ele>862.0</ele><time>2026-03-28T15:24:21.999Z</time></trkpt><trkpt lat="44.54988791243896" lon="10.003678764059044"><ele>862.0</ele><time>2026-03-28T15:24:22.999Z</time></trkpt><trkpt lat="44.550032824376586" lon="10.003685143582189"><ele>862.0</ele><time>2026-03-28T15:24:23.999Z</time></trkpt><trkpt lat="44.550199792973395" lon="10.00363184346595"><ele>862.0</ele><time>2026-03-28T15:24:24.999Z</time></trkpt><trkpt lat="44.55037170118354" lon="10.003482988812323"><ele>858.0</ele><time>2026-03-28T15:24:25.999Z</time></trkpt><trkpt lat="44.550519980439596" lon="10.003256183801119"><ele>854.0</ele><time>2026-03-28T15:24:26.999Z</time></trkpt><trkpt lat="44.550650582198614" lon="10.002971606447524"><ele>854.0</ele><time>2026-03-28T15:24:27.999Z</time></trkpt><trkpt lat="44.55077085011196" lon="10.002720270569343"><ele>854.0</ele><time>2026-03-28T15:24:28.999Z</time></trkpt><trkpt lat="44.55089364984672" lon="10.002500815667679"><ele>854.0</ele><time>2026-03-28T15:24:29.999Z</time></trkpt><trkpt lat="44.55101008908475" lon="10.002299069344941"><ele>851.25</ele><time>2026-03-28T15:24:30.999Z</time></trkpt><trkpt lat="44.551114095005225" lon="10.002127889368426"><ele>848.5</ele><time>2026-03-28T15:24:31.999Z</time></trkpt><trkpt lat="44.5512185469526" lon="10.00202284833799"><ele>845.75</ele><time>2026-03-28T15:24:32.999Z</time></trkpt><trkpt lat="44.551327073911274" lon="10.002015857902116"><ele>843.0</ele><time>2026-03-28T15:24:33.999Z</time></trkpt><trkpt lat="44.551449408816396" lon="10.002075522047422"><ele>843.0</ele><time>2026-03-28T15:24:34.999Z</time></trkpt><trkpt lat="44.551632262708466" lon="10.002151358041674"><ele>843.0</ele><time>2026-03-28T15:24:35.999Z</time></trkpt><trkpt lat="44.55183250968548" lon="10.002210753345047"><ele>843.0</ele><time>2026-03-28T15:24:36.999Z</time></trkpt><trkpt lat="44.55202315455929" lon="10.002254053968176"><ele>842.3333333333333</ele><time>2026-03-28T15:24:37.999Z</time></trkpt><trkpt lat="44.552204427835676" lon="10.002234129737719"><ele>841.6666666666666</ele><time>2026-03-28T15:24:38.999Z</time></trkpt><trkpt lat="44.55237866673357" lon="10.002196312364678"><ele>841.0</ele><time>2026-03-28T15:24:39.999Z</time></trkpt><trkpt lat="44.552538570071754" lon="10.002183318463011"><ele>841.0</ele><time>2026-03-28T15:24:40.999Z</time></trkpt><trkpt lat="44.55268547182743" lon="10.002125399320812"><ele>841.0</ele><time>2026-03-28T15:24:41.999Z</time></trkpt><trkpt lat="44.55283354338191" lon="10.001972383545887"><ele>841.0</ele><time>2026-03-28T15:24:42.999Z</time></trkpt><trkpt lat="44.55295983093701" lon="10.001758314092791"><ele>835.6666666666666</ele><time>2026-03-28T15:24:43.999Z</time></trkpt><trkpt lat="44.55306615031577" lon="10.001549964093888"><ele>830.3333333333333</ele><time>2026-03-28T15:24:44.999Z</time></trkpt><trkpt lat="44.553177541503125" lon="10.001390261225062"><ele>825.0</ele><time>2026-03-28T15:24:45.999Z</time></trkpt><trkpt lat="44.55330370374406" lon="10.001330801162766"><ele>825.0</ele><time>2026-03-28T15:24:46.999Z</time></trkpt><trkpt lat="44.553409201701" lon="10.001318621794058"><ele>825.0</ele><time>2026-03-28T15:24:47.999Z</time></trkpt><trkpt lat="44.553510230224255" lon="10.001347466598046"><ele>825.0</ele><time>2026-03-28T15:24:49Z</time></trkpt><trkpt lat="44.553608107386424" lon="10.00144318625568"><ele>825.0</ele><time>2026-03-28T15:24:50Z</time></trkpt><trkpt lat="44.55369471868827" lon="10.001580687412073"><ele>823.3333333333333</ele><time>2026-03-28T15:24:51Z</time></trkpt><trkpt lat="44.55376062424101" lon="10.001731266781627"><ele>821.6666666666666</ele><time>2026-03-28T15:24:52Z</time></trkpt><trkpt lat="44.553809389778344" lon="10.00193358879993"><ele>820.0</ele><time>2026-03-28T15:24:53Z</time></trkpt><trkpt lat="44.55386269097943" lon="10.002190038663281"><ele>820.0</ele><time>2026-03-28T15:24:54Z</time></trkpt><trkpt lat="44.553927241335444" lon="10.002441601097148"><ele>820.0</ele><time>2026-03-28T15:24:55Z</time></trkpt><trkpt lat="44.553979699565616" lon="10.00269343855918"><ele>820.0</ele><time>2026-03-28T15:24:56Z</time></trkpt><trkpt lat="44.554041928360235" lon="10.00293799427033"><ele>821.6666666666666</ele><time>2026-03-28T15:24:57Z</time></trkpt><trkpt lat="44.55412411581406" lon="10.003168314933449"><ele>823.3333333333333</ele><time>2026-03-28T15:24:58Z</time></trkpt><trkpt lat="44.554236296224474" lon="10.003365530462315"><ele>825.0</ele><time>2026-03-28T15:24:59Z</time></trkpt><trkpt lat="44.5544086877552" lon="10.003502378110435"><ele>821.6666666666667</ele><time>2026-03-28T15:25:00Z</time></trkpt><trkpt lat="44.55459985345621" lon="10.003622535262645"><ele>818.3333333333334</ele><time>2026-03-28T15:25:01Z</time></trkpt><trkpt lat="44.554757938730674" lon="10.003774224417896"><ele>815.0</ele><time>2026-03-28T15:25:02Z</time></trkpt><trkpt lat="44.554910591423564" lon="10.003912549677832"><ele>815.0</ele><time>2026-03-28T15:25:03Z</time></trkpt><trkpt lat="44.5551085222335" lon="10.003961167916234"><ele>815.0</ele><time>2026-03-28T15:25:04Z</time></trkpt><trkpt lat="44.55529205628059" lon="10.003984740775829"><ele>815.0</ele><time>2026-03-28T15:25:05Z</time></trkpt><trkpt lat="44.555441706990074" lon="10.004006304059644"><ele>812.5</ele><time>2026-03-28T15:25:06Z</time></trkpt><trkpt lat="44.55553419869713" lon="10.004061765330416"><ele>810.0</ele><time>2026-03-28T15:25:07Z</time></trkpt><trkpt lat="44.555596064340236" lon="10.00418070492891"><ele>807.5</ele><time>2026-03-28T15:25:08Z</time></trkpt><trkpt lat="44.55560997488462" lon="10.004385192277336"><ele>805.0</ele><time>2026-03-28T15:25:09Z</time></trkpt><trkpt lat="44.555606585065576" lon="10.004572628782023"><ele>805.0</ele><time>2026-03-28T15:25:10Z</time></trkpt><trkpt lat="44.555587058523315" lon="10.004780450937242"><ele>805.0</ele><time>2026-03-28T15:25:11Z</time></trkpt><trkpt lat="44.55551400712138" lon="10.004962477572281"><ele>805.0</ele><time>2026-03-28T15:25:12Z</time></trkpt><trkpt lat="44.555470449642044" lon="10.00513773915363"><ele>805.0</ele><time>2026-03-28T15:25:13Z</time></trkpt><trkpt lat="44.5554215823175" lon="10.005301786744079"><ele>804.5</ele><time>2026-03-28T15:25:14Z</time></trkpt><trkpt lat="44.55541445959461" lon="10.00546290063036"><ele>804.0</ele><time>2026-03-28T15:25:15Z</time></trkpt><trkpt lat="44.555452365420535" lon="10.00563447341647"><ele>803.5</ele><time>2026-03-28T15:25:16Z</time></trkpt><trkpt lat="44.555510222016004" lon="10.00583211268044"><ele>803.0</ele><time>2026-03-28T15:25:17Z</time></trkpt><trkpt lat="44.555582204185576" lon="10.006071083973904"><ele>803.0</ele><time>2026-03-28T15:25:18Z</time></trkpt><trkpt lat="44.55568327661664" lon="10.006292087396389"><ele>803.0</ele><time>2026-03-28T15:25:19Z</time></trkpt><trkpt lat="44.55583423662319" lon="10.006461364532525"><ele>803.0</ele><time>2026-03-28T15:25:20Z</time></trkpt><trkpt lat="44.555984427158535" lon="10.00660363666184"><ele>806.3333333333334</ele><time>2026-03-28T15:25:21Z</time></trkpt><trkpt lat="44.55616011921435" lon="10.00677689416257"><ele>809.6666666666667</ele><time>2026-03-28T15:25:22Z</time></trkpt><trkpt lat="44.55630082936966" lon="10.0069459702009"><ele>813.0</ele><time>2026-03-28T15:25:23Z</time></trkpt><trkpt lat="44.55640249414831" lon="10.007070359176357"><ele>810.0</ele><time>2026-03-28T15:25:24Z</time></trkpt><trkpt lat="44.55646976293308" lon="10.007192716636528"><ele>807.0</ele><time>2026-03-28T15:25:25Z</time></trkpt><trkpt lat="44.556466512128154" lon="10.007345093157666"><ele>804.0</ele><time>2026-03-28T15:25:26Z</time></trkpt><trkpt lat="44.55650459190981" lon="10.007481736363347"><ele>801.0</ele><time>2026-03-28T15:25:27Z</time></trkpt><trkpt lat="44.55652244431927" lon="10.007614931646161"><ele>798.0</ele><time>2026-03-28T15:25:28Z</time></trkpt><trkpt lat="44.556580771292474" lon="10.007712247463607"><ele>798.0</ele><time>2026-03-28T15:25:29Z</time></trkpt><trkpt lat="44.55666934029185" lon="10.007767165095103"><ele>798.0</ele><time>2026-03-28T15:25:30Z</time></trkpt><trkpt lat="44.556776043057376" lon="10.00777757932868"><ele>798.0</ele><time>2026-03-28T15:25:31Z</time></trkpt><trkpt lat="44.55689547735145" lon="10.00773519691698"><ele>798.0</ele><time>2026-03-28T15:25:32Z</time></trkpt><trkpt lat="44.55703792133157" lon="10.0076545409687"><ele>794.5</ele><time>2026-03-28T15:25:33Z</time></trkpt><trkpt lat="44.55720225992752" lon="10.007639928439422"><ele>791.0</ele><time>2026-03-28T15:25:34Z</time></trkpt><trkpt lat="44.55734186718556" lon="10.007652342277595"><ele>787.5</ele><time>2026-03-28T15:25:35Z</time></trkpt><trkpt lat="44.557453144954756" lon="10.007725994204312"><ele>784.0</ele><time>2026-03-28T15:25:36Z</time></trkpt><trkpt lat="44.5575312588831" lon="10.007862965097635"><ele>784.0</ele><time>2026-03-28T15:25:37Z</time></trkpt><trkpt lat="44.557531197523254" lon="10.008062232206543"><ele>784.0</ele><time>2026-03-28T15:25:38Z</time></trkpt><trkpt lat="44.55757431605187" lon="10.008266063677395"><ele>784.0</ele><time>2026-03-28T15:25:39Z</time></trkpt><trkpt lat="44.55763158767194" lon="10.008473178345875"><ele>787.0</ele><time>2026-03-28T15:25:40Z</time></trkpt><trkpt lat="44.55776000336698" lon="10.00867355452534"><ele>790.0</ele><time>2026-03-28T15:25:41Z</time></trkpt><trkpt lat="44.55790537299234" lon="10.008820482743348"><ele>793.0</ele><time>2026-03-28T15:25:42Z</time></trkpt><trkpt lat="44.5580128897865" lon="10.008970182173911"><ele>789.0</ele><time>2026-03-28T15:25:43Z</time></trkpt><trkpt lat="44.55807537198975" lon="10.009183964938734"><ele>785.0</ele><time>2026-03-28T15:25:44Z</time></trkpt><trkpt lat="44.55811879323551" lon="10.0094274907473"><ele>781.0</ele><time>2026-03-28T15:25:45Z</time></trkpt><trkpt lat="44.55818391405658" lon="10.009678200773575"><ele>781.0</ele><time>2026-03-28T15:25:46Z</time></trkpt><trkpt lat="44.55828340432781" lon="10.009896907561078"><ele>781.0</ele><time>2026-03-28T15:25:47Z</time></trkpt><trkpt lat="44.55843910024885" lon="10.010078186375164"><ele>781.0</ele><time>2026-03-28T15:25:48Z</time></trkpt><trkpt lat="44.558629456721135" lon="10.010240451745354"><ele>775.0</ele><time>2026-03-28T15:25:49Z</time></trkpt><trkpt lat="44.55881446231339" lon="10.010390284544522"><ele>769.0</ele><time>2026-03-28T15:25:50Z</time></trkpt><trkpt lat="44.558995566212275" lon="10.010532096714492"><ele>763.0</ele><time>2026-03-28T15:25:51Z</time></trkpt><trkpt lat="44.55916586695234" lon="10.01062220847871"><ele>763.0</ele><time>2026-03-28T15:25:52Z</time></trkpt><trkpt lat="44.55928664024464" lon="10.010728931977093"><ele>763.0</ele><time>2026-03-28T15:25:53Z</time></trkpt><trkpt lat="44.55937229438649" lon="10.010845449774406"><ele>763.0</ele><time>2026-03-28T15:25:54Z</time></trkpt><trkpt lat="44.55944916248033" lon="10.011026025823261"><ele>763.0</ele><time>2026-03-28T15:25:55Z</time></trkpt><trkpt lat="44.55950628956426" lon="10.011282715445638"><ele>759.6666666666667</ele><time>2026-03-28T15:25:56Z</time></trkpt><trkpt lat="44.55955820828959" lon="10.011525864944774"><ele>756.3333333333334</ele><time>2026-03-28T15:25:57Z</time></trkpt><trkpt lat="44.55958030548812" lon="10.01173572264295"><ele>753.0</ele><time>2026-03-28T15:25:58Z</time></trkpt><trkpt lat="44.5595638679121" lon="10.011926653295372"><ele>753.0</ele><time>2026-03-28T15:25:59Z</time></trkpt><trkpt lat="44.55955690714407" lon="10.012115314559312"><ele>753.0</ele><time>2026-03-28T15:26:00Z</time></trkpt><trkpt lat="44.55957250581632" lon="10.012313293382157"><ele>753.0</ele><time>2026-03-28T15:26:01Z</time></trkpt><trkpt lat="44.559609968535455" lon="10.012489598852147"><ele>753.0</ele><time>2026-03-28T15:26:02Z</time></trkpt><trkpt lat="44.55965369252591" lon="10.012636850202247"><ele>752.4</ele><time>2026-03-28T15:26:03Z</time></trkpt><trkpt lat="44.55969273900372" lon="10.01277349582788"><ele>751.8</ele><time>2026-03-28T15:26:04Z</time></trkpt><trkpt lat="44.559723608365665" lon="10.012908211168387"><ele>751.2</ele><time>2026-03-28T15:26:05Z</time></trkpt><trkpt lat="44.55975287409574" lon="10.013038987240455"><ele>750.6</ele><time>2026-03-28T15:26:06Z</time></trkpt><trkpt lat="44.559788449491414" lon="10.013175080750045"><ele>750.0</ele><time>2026-03-28T15:26:07Z</time></trkpt><trkpt lat="44.5598296116759" lon="10.013318707396142"><ele>750.0</ele><time>2026-03-28T15:26:08Z</time></trkpt><trkpt lat="44.559871035792014" lon="10.013463641843025"><ele>750.0</ele><time>2026-03-28T15:26:09Z</time></trkpt><trkpt lat="44.55990706501627" lon="10.013601392794415"><ele>750.0</ele><time>2026-03-28T15:26:10Z</time></trkpt><trkpt lat="44.55994401684764" lon="10.013729208771434"><ele>750.0</ele><time>2026-03-28T15:26:11Z</time></trkpt><trkpt lat="44.55998228407156" lon="10.013848668173013"><ele>750.0</ele><time>2026-03-28T15:26:12Z</time></trkpt><trkpt lat="44.56003368228251" lon="10.013964396114462"><ele>750.0</ele><time>2026-03-28T15:26:13Z</time></trkpt><trkpt lat="44.56010309330993" lon="10.014079498430894"><ele>750.0</ele><time>2026-03-28T15:26:13.999Z</time></trkpt><trkpt lat="44.56020332937694" lon="10.014155846197951"><ele>750.0</ele><time>2026-03-28T15:26:14.999Z</time></trkpt><trkpt lat="44.560309113810035" lon="10.014202452348247"><ele>750.0</ele><time>2026-03-28T15:26:15.999Z</time></trkpt><trkpt lat="44.56042128291323" lon="10.014223767338674"><ele>750.0</ele><time>2026-03-28T15:26:16.999Z</time></trkpt><trkpt lat="44.56052885299576" lon="10.014233907134406"><ele>747.8</ele><time>2026-03-28T15:26:17.999Z</time></trkpt><trkpt lat="44.56063926815401" lon="10.014240151777576"><ele>745.6</ele><time>2026-03-28T15:26:18.999Z</time></trkpt><trkpt lat="44.56073768232873" lon="10.014248755780406"><ele>743.4000000000001</ele><time>2026-03-28T15:26:19.999Z</time></trkpt><trkpt lat="44.56083715667082" lon="10.014262685104777"><ele>741.2</ele><time>2026-03-28T15:26:20.999Z</time></trkpt><trkpt lat="44.56094502721742" lon="10.01428921146147"><ele>739.0</ele><time>2026-03-28T15:26:21.999Z</time></trkpt><trkpt lat="44.56106585417703" lon="10.014332527843946"><ele>739.0</ele><time>2026-03-28T15:26:22.999Z</time></trkpt><trkpt lat="44.561191180083576" lon="10.014410517442908"><ele>739.0</ele><time>2026-03-28T15:26:23.999Z</time></trkpt><trkpt lat="44.56130018055009" lon="10.014500578499916"><ele>739.0</ele><time>2026-03-28T15:26:24.999Z</time></trkpt><trkpt lat="44.56139983301391" lon="10.014586710642964"><ele>739.0</ele><time>2026-03-28T15:26:25.999Z</time></trkpt><trkpt lat="44.56149296575354" lon="10.014663707001619"><ele>737.8000000000001</ele><time>2026-03-28T15:26:26.999Z</time></trkpt><trkpt lat="44.56158242617982" lon="10.014735215985153"><ele>736.6</ele><time>2026-03-28T15:26:27.999Z</time></trkpt><trkpt lat="44.56167473047054" lon="10.014805904173764"><ele>735.4</ele><time>2026-03-28T15:26:28.999Z</time></trkpt><trkpt lat="44.56177219905635" lon="10.01487603623229"><ele>734.2</ele><time>2026-03-28T15:26:29.999Z</time></trkpt><trkpt lat="44.56187148601113" lon="10.014947478820886"><ele>733.0</ele><time>2026-03-28T15:26:30.999Z</time></trkpt><trkpt lat="44.56196398761373" lon="10.015007982689399"><ele>732.8</ele><time>2026-03-28T15:26:31.999Z</time></trkpt><trkpt lat="44.5620665338881" lon="10.015045867964169"><ele>732.5999999999999</ele><time>2026-03-28T15:26:32.999Z</time></trkpt><trkpt lat="44.56217564404492" lon="10.015048745750068"><ele>732.4000000000001</ele><time>2026-03-28T15:26:33.999Z</time></trkpt><trkpt lat="44.562276001192565" lon="10.015012050465055"><ele>732.2</ele><time>2026-03-28T15:26:34.999Z</time></trkpt><trkpt lat="44.56237421496051" lon="10.014960675999625"><ele>732.0</ele><time>2026-03-28T15:26:35.999Z</time></trkpt><trkpt lat="44.56247278413534" lon="10.014920808104895"><ele>730.0</ele><time>2026-03-28T15:26:36.999Z</time></trkpt><trkpt lat="44.56256702540801" lon="10.014890351796433"><ele>728.0</ele><time>2026-03-28T15:26:37.999Z</time></trkpt><trkpt lat="44.56265181254176" lon="10.014861479229141"><ele>726.0</ele><time>2026-03-28T15:26:38.999Z</time></trkpt><trkpt lat="44.56272623386602" lon="10.014843134966313"><ele>724.0</ele><time>2026-03-28T15:26:39.999Z</time></trkpt><trkpt lat="44.562799522516364" lon="10.0148417382126"><ele>722.0</ele><time>2026-03-28T15:26:40.999Z</time></trkpt><trkpt lat="44.56287822476884" lon="10.014888878400923"><ele>720.0</ele><time>2026-03-28T15:26:41.999Z</time></trkpt><trkpt lat="44.562945457062796" lon="10.01499634806504"><ele>718.5</ele><time>2026-03-28T15:26:42.999Z</time></trkpt><trkpt lat="44.562965567643175" lon="10.015161398530887"><ele>717.0</ele><time>2026-03-28T15:26:43.999Z</time></trkpt><trkpt lat="44.56302024646434" lon="10.015333938708263"><ele>715.5</ele><time>2026-03-28T15:26:44.999Z</time></trkpt><trkpt lat="44.56305482273731" lon="10.015491013491104"><ele>714.0</ele><time>2026-03-28T15:26:45.999Z</time></trkpt><trkpt lat="44.563090681861205" lon="10.0156362747307"><ele>714.0</ele><time>2026-03-28T15:26:46.999Z</time></trkpt><trkpt lat="44.56312836006726" lon="10.01578086427243"><ele>714.0</ele><time>2026-03-28T15:26:47.999Z</time></trkpt><trkpt lat="44.56316281973058" lon="10.015922498790202"><ele>714.0</ele><time>2026-03-28T15:26:48.999Z</time></trkpt><trkpt lat="44.563200119548526" lon="10.0160641151424"><ele>714.0</ele><time>2026-03-28T15:26:49.999Z</time></trkpt><trkpt lat="44.5632459709287" lon="10.016207143970759"><ele>714.0</ele><time>2026-03-28T15:26:50.999Z</time></trkpt><trkpt lat="44.56330664288113" lon="10.01634381902813"><ele>714.5</ele><time>2026-03-28T15:26:51.999Z</time></trkpt><trkpt lat="44.56339438455779" lon="10.016472578586384"><ele>715.0</ele><time>2026-03-28T15:26:52.999Z</time></trkpt><trkpt lat="44.56349642060873" lon="10.01657234063471"><ele>715.5</ele><time>2026-03-28T15:26:53.999Z</time></trkpt><trkpt lat="44.56359330984828" lon="10.016659747024638"><ele>716.0</ele><time>2026-03-28T15:26:55Z</time></trkpt><trkpt lat="44.563681201781336" lon="10.016739033818148"><ele>715.1999999999999</ele><time>2026-03-28T15:26:56Z</time></trkpt><trkpt lat="44.563773050276076" lon="10.016815906571308"><ele>714.4</ele><time>2026-03-28T15:26:57Z</time></trkpt><trkpt lat="44.563863879477076" lon="10.016894714229217"><ele>713.6</ele><time>2026-03-28T15:26:58Z</time></trkpt><trkpt lat="44.56395784951529" lon="10.016976463897349"><ele>712.8</ele><time>2026-03-28T15:26:59Z</time></trkpt><trkpt lat="44.5640535368844" lon="10.017054098333636"><ele>712.0</ele><time>2026-03-28T15:27:00Z</time></trkpt><trkpt lat="44.564157848922385" lon="10.01710405764621"><ele>712.0</ele><time>2026-03-28T15:27:01Z</time></trkpt><trkpt lat="44.56426898031899" lon="10.017119274746172"><ele>712.0</ele><time>2026-03-28T15:27:02Z</time></trkpt><trkpt lat="44.5643865788009" lon="10.01711854082372"><ele>712.0</ele><time>2026-03-28T15:27:03Z</time></trkpt><trkpt lat="44.564492808494585" lon="10.017107703817686"><ele>712.0</ele><time>2026-03-28T15:27:04Z</time></trkpt><trkpt lat="44.56459894903117" lon="10.01711068300626"><ele>712.0</ele><time>2026-03-28T15:27:05Z</time></trkpt><trkpt lat="44.56470925571022" lon="10.017150502494303"><ele>712.75</ele><time>2026-03-28T15:27:06Z</time></trkpt><trkpt lat="44.56484218881105" lon="10.017242731634276"><ele>713.5</ele><time>2026-03-28T15:27:07Z</time></trkpt><trkpt lat="44.56496012180644" lon="10.017367737379947"><ele>714.25</ele><time>2026-03-28T15:27:08Z</time></trkpt><trkpt lat="44.5650766956339" lon="10.017479358335176"><ele>715.0</ele><time>2026-03-28T15:27:09Z</time></trkpt><trkpt lat="44.56521129300218" lon="10.017569509344034"><ele>713.3333333333334</ele><time>2026-03-28T15:27:10Z</time></trkpt><trkpt lat="44.56538349444516" lon="10.017619014231077"><ele>711.6666666666666</ele><time>2026-03-28T15:27:11Z</time></trkpt><trkpt lat="44.565617048455174" lon="10.017674667424178"><ele>710.0</ele><time>2026-03-28T15:27:12Z</time></trkpt><trkpt lat="44.565880447230974" lon="10.017720405629573"><ele>710.0</ele><time>2026-03-28T15:27:13Z</time></trkpt><trkpt lat="44.56610121068341" lon="10.01775477528381"><ele>710.0</ele><time>2026-03-28T15:27:14Z</time></trkpt><trkpt lat="44.56627892285403" lon="10.017836259251649"><ele>710.0</ele><time>2026-03-28T15:27:15Z</time></trkpt><trkpt lat="44.566454181094265" lon="10.017956278692653"><ele>709.5</ele><time>2026-03-28T15:27:16Z</time></trkpt><trkpt lat="44.5666439829234" lon="10.0181292876077"><ele>709.0</ele><time>2026-03-28T15:27:17Z</time></trkpt><trkpt lat="44.56686806146323" lon="10.018351757500874"><ele>711.0</ele><time>2026-03-28T15:27:18Z</time></trkpt><trkpt lat="44.567124693787356" lon="10.018596044415435"><ele>713.0</ele><time>2026-03-28T15:27:19Z</time></trkpt><trkpt lat="44.56724929002991" lon="10.01868683283529"><ele>713.0</ele><time>2026-03-28T15:27:20Z</time></trkpt><trkpt lat="44.56744887720112" lon="10.018857632924227"><ele>713.0</ele><time>2026-03-28T15:27:21Z</time></trkpt><trkpt lat="44.56764356559525" lon="10.019025155918929"><ele>710.6666666666666</ele><time>2026-03-28T15:27:22Z</time></trkpt><trkpt lat="44.56783430079547" lon="10.019187282670378"><ele>708.3333333333334</ele><time>2026-03-28T15:27:23Z</time></trkpt><trkpt lat="44.56802394308554" lon="10.019351852632553"><ele>706.0</ele><time>2026-03-28T15:27:24Z</time></trkpt><trkpt lat="44.56821120973007" lon="10.019516639332364"><ele>706.0</ele><time>2026-03-28T15:27:25Z</time></trkpt><trkpt lat="44.5683985915075" lon="10.019678659385749"><ele>706.0</ele><time>2026-03-28T15:27:26Z</time></trkpt><trkpt lat="44.568586278340256" lon="10.019834328218575"><ele>706.0</ele><time>2026-03-28T15:27:27Z</time></trkpt><trkpt lat="44.56877178941404" lon="10.020011476515341"><ele>707.6666666666667</ele><time>2026-03-28T15:27:28Z</time></trkpt><trkpt lat="44.568963890441715" lon="10.02019014096768"><ele>709.3333333333334</ele><time>2026-03-28T15:27:29Z</time></trkpt><trkpt lat="44.56914195781227" lon="10.02036065685543"><ele>711.0</ele><time>2026-03-28T15:27:30Z</time></trkpt><trkpt lat="44.5693006204485" lon="10.02049817504132"><ele>711.0</ele><time>2026-03-28T15:27:31Z</time></trkpt><trkpt lat="44.56945461091171" lon="10.02057833958651"><ele>711.0</ele><time>2026-03-28T15:27:32Z</time></trkpt><trkpt lat="44.56964373538467" lon="10.020586800213124"><ele>711.0</ele><time>2026-03-28T15:27:33Z</time></trkpt><trkpt lat="44.56986934395232" lon="10.020532896221988"><ele>713.3333333333334</ele><time>2026-03-28T15:27:34Z</time></trkpt><trkpt lat="44.57009504625657" lon="10.020488322596021"><ele>715.6666666666667</ele><time>2026-03-28T15:27:35Z</time></trkpt><trkpt lat="44.570270980452655" lon="10.020485607897351"><ele>718.0</ele><time>2026-03-28T15:27:36Z</time></trkpt><trkpt lat="44.570407164347515" lon="10.020594653610534"><ele>718.3333333333334</ele><time>2026-03-28T15:27:37Z</time></trkpt><trkpt lat="44.57052374168929" lon="10.020763168716275"><ele>718.6666666666666</ele><time>2026-03-28T15:27:38Z</time></trkpt><trkpt lat="44.5706748901039" lon="10.02097479934851"><ele>719.0</ele><time>2026-03-28T15:27:39Z</time></trkpt><trkpt lat="44.570829975540285" lon="10.021194526014279"><ele>722.3333333333333</ele><time>2026-03-28T15:27:40Z</time></trkpt><trkpt lat="44.570979349837245" lon="10.021389032626422"><ele>725.6666666666666</ele><time>2026-03-28T15:27:41Z</time></trkpt><trkpt lat="44.57110819542786" lon="10.02156555335629"><ele>729.0</ele><time>2026-03-28T15:27:42Z</time></trkpt><trkpt lat="44.57127806359536" lon="10.021690795531763"><ele>733.0</ele><time>2026-03-28T15:27:43Z</time></trkpt><trkpt lat="44.57147802440276" lon="10.021784995410725"><ele>737.0</ele><time>2026-03-28T15:27:44Z</time></trkpt><trkpt lat="44.5716778808443" lon="10.021864418608088"><ele>741.0</ele><time>2026-03-28T15:27:45Z</time></trkpt><trkpt lat="44.571871005302185" lon="10.021950293311745"><ele>742.0</ele><time>2026-03-28T15:27:46Z</time></trkpt><trkpt lat="44.57206216115074" lon="10.022034941703986"><ele>743.0</ele><time>2026-03-28T15:27:47Z</time></trkpt><trkpt lat="44.57223959512364" lon="10.022121530964716"><ele>744.0</ele><time>2026-03-28T15:27:48Z</time></trkpt><trkpt lat="44.572398700357404" lon="10.022250512085416"><ele>744.0</ele><time>2026-03-28T15:27:49Z</time></trkpt><trkpt lat="44.57257068427088" lon="10.022397124151203"><ele>744.0</ele><time>2026-03-28T15:27:50Z</time></trkpt><trkpt lat="44.5727004599578" lon="10.022613637685529"><ele>744.0</ele><time>2026-03-28T15:27:51Z</time></trkpt><trkpt lat="44.572826459567054" lon="10.022870699536396"><ele>741.6666666666666</ele><time>2026-03-28T15:27:52Z</time></trkpt><trkpt lat="44.572950309174374" lon="10.023124720660505"><ele>739.3333333333333</ele><time>2026-03-28T15:27:53Z</time></trkpt><trkpt lat="44.57304987634855" lon="10.023373649824224"><ele>737.0</ele><time>2026-03-28T15:27:54Z</time></trkpt><trkpt lat="44.573145121634624" lon="10.023594399993623"><ele>737.0</ele><time>2026-03-28T15:27:55Z</time></trkpt><trkpt lat="44.57323885985726" lon="10.023790676791279"><ele>737.0</ele><time>2026-03-28T15:27:56Z</time></trkpt><trkpt lat="44.57334661230673" lon="10.0239596634047"><ele>737.0</ele><time>2026-03-28T15:27:57Z</time></trkpt><trkpt lat="44.57349800974403" lon="10.02408263260843"><ele>737.0</ele><time>2026-03-28T15:27:58Z</time></trkpt><trkpt lat="44.57368557686814" lon="10.024170409127349"><ele>737.0</ele><time>2026-03-28T15:27:59Z</time></trkpt><trkpt lat="44.57388656602578" lon="10.024243442314239"><ele>737.0</ele><time>2026-03-28T15:28:00Z</time></trkpt><trkpt lat="44.57408573692478" lon="10.024304815176427"><ele>737.0</ele><time>2026-03-28T15:28:01Z</time></trkpt><trkpt lat="44.57428655444033" lon="10.024381338016426"><ele>737.0</ele><time>2026-03-28T15:28:02Z</time></trkpt><trkpt lat="44.57448495520638" lon="10.02445755422011"><ele>737.0</ele><time>2026-03-28T15:28:03Z</time></trkpt><trkpt lat="44.574687610643885" lon="10.024534628371375"><ele>735.0</ele><time>2026-03-28T15:28:04Z</time></trkpt><trkpt lat="44.57488250341123" lon="10.024610181120169"><ele>733.0</ele><time>2026-03-28T15:28:05Z</time></trkpt><trkpt lat="44.575071278829995" lon="10.024682000850559"><ele>731.0</ele><time>2026-03-28T15:28:06Z</time></trkpt><trkpt lat="44.575265819580764" lon="10.02475378629148"><ele>732.0</ele><time>2026-03-28T15:28:07Z</time></trkpt><trkpt lat="44.575458427342255" lon="10.024842863790145"><ele>733.0</ele><time>2026-03-28T15:28:08Z</time></trkpt><trkpt lat="44.57564872465539" lon="10.025036245858582"><ele>734.0</ele><time>2026-03-28T15:28:09Z</time></trkpt><trkpt lat="44.575859062734565" lon="10.025257345444187"><ele>734.0</ele><time>2026-03-28T15:28:10Z</time></trkpt><trkpt lat="44.576035944670245" lon="10.025449505697958"><ele>734.0</ele><time>2026-03-28T15:28:11Z</time></trkpt><trkpt lat="44.5762149917363" lon="10.025632679290037"><ele>734.0</ele><time>2026-03-28T15:28:12Z</time></trkpt><trkpt lat="44.57638106406975" lon="10.025799397824127"><ele>736.0</ele><time>2026-03-28T15:28:13Z</time></trkpt><trkpt lat="44.576532632650974" lon="10.025953813158953"><ele>738.0</ele><time>2026-03-28T15:28:14Z</time></trkpt><trkpt lat="44.576674638330786" lon="10.026099509050114"><ele>740.0</ele><time>2026-03-28T15:28:15Z</time></trkpt><trkpt lat="44.57679290871607" lon="10.026281892571147"><ele>740.0</ele><time>2026-03-28T15:28:16Z</time></trkpt><trkpt lat="44.57688352127613" lon="10.026501554512345"><ele>740.0</ele><time>2026-03-28T15:28:17Z</time></trkpt><trkpt lat="44.57694419969483" lon="10.026771435116947"><ele>740.0</ele><time>2026-03-28T15:28:18Z</time></trkpt><trkpt lat="44.57701178827984" lon="10.027041427495215"><ele>741.3333333333333</ele><time>2026-03-28T15:28:19Z</time></trkpt><trkpt lat="44.57710461269398" lon="10.027300854293934"><ele>742.6666666666666</ele><time>2026-03-28T15:28:20Z</time></trkpt><trkpt lat="44.57722351487993" lon="10.02754196451388"><ele>744.0</ele><time>2026-03-28T15:28:21Z</time></trkpt><trkpt lat="44.57729246602902" lon="10.027746452634336"><ele>744.0</ele><time>2026-03-28T15:28:22Z</time></trkpt><trkpt lat="44.57734746494015" lon="10.027991959113661"><ele>744.0</ele><time>2026-03-28T15:28:23Z</time></trkpt><trkpt lat="44.57737758278927" lon="10.028209639292626"><ele>744.0</ele><time>2026-03-28T15:28:23.999Z</time></trkpt><trkpt lat="44.57744564953796" lon="10.028411389141615"><ele>746.3333333333334</ele><time>2026-03-28T15:28:24.999Z</time></trkpt><trkpt lat="44.57756916701199" lon="10.028606309495167"><ele>748.6666666666667</ele><time>2026-03-28T15:28:25.999Z</time></trkpt><trkpt lat="44.57773413363676" lon="10.028761995963087"><ele>751.0</ele><time>2026-03-28T15:28:26.999Z</time></trkpt><trkpt lat="44.57788396849728" lon="10.028876816143297"><ele>753.6666666666667</ele><time>2026-03-28T15:28:27.999Z</time></trkpt><trkpt lat="44.577966560108145" lon="10.029074243133179"><ele>756.3333333333334</ele><time>2026-03-28T15:28:28.999Z</time></trkpt><trkpt lat="44.57801199524565" lon="10.029311058219967"><ele>759.0</ele><time>2026-03-28T15:28:29.999Z</time></trkpt><trkpt lat="44.57803126355876" lon="10.029574857684828"><ele>759.6666666666666</ele><time>2026-03-28T15:28:30.999Z</time></trkpt><trkpt lat="44.578034781535614" lon="10.029804599303935"><ele>760.3333333333333</ele><time>2026-03-28T15:28:31.999Z</time></trkpt><trkpt lat="44.57808801487479" lon="10.03001361402078"><ele>761.0</ele><time>2026-03-28T15:28:32.999Z</time></trkpt><trkpt lat="44.578184807880504" lon="10.030179959650319"><ele>761.0</ele><time>2026-03-28T15:28:33.999Z</time></trkpt><trkpt lat="44.578298216046484" lon="10.030317984890589"><ele>761.0</ele><time>2026-03-28T15:28:34.999Z</time></trkpt><trkpt lat="44.57843607601466" lon="10.030456578579901"><ele>761.0</ele><time>2026-03-28T15:28:35.999Z</time></trkpt><trkpt lat="44.578614780836254" lon="10.030595702622431"><ele>764.0</ele><time>2026-03-28T15:28:36.999Z</time></trkpt><trkpt lat="44.578774156343705" lon="10.030679559049952"><ele>767.0</ele><time>2026-03-28T15:28:37.999Z</time></trkpt><trkpt lat="44.578939769146835" lon="10.030695650649749"><ele>770.0</ele><time>2026-03-28T15:28:38.999Z</time></trkpt><trkpt lat="44.57910643186094" lon="10.030637220217017"><ele>770.0</ele><time>2026-03-28T15:28:39.999Z</time></trkpt><trkpt lat="44.57927268326847" lon="10.030527401101605"><ele>770.0</ele><time>2026-03-28T15:28:40.999Z</time></trkpt><trkpt lat="44.57942377899493" lon="10.03038908824545"><ele>770.0</ele><time>2026-03-28T15:28:41.999Z</time></trkpt><trkpt lat="44.57959162159904" lon="10.030319641679023"><ele>770.0</ele><time>2026-03-28T15:28:42.999Z</time></trkpt><trkpt lat="44.57976825210209" lon="10.030240371949693"><ele>770.0</ele><time>2026-03-28T15:28:43.999Z</time></trkpt><trkpt lat="44.57995896082828" lon="10.030202684650916"><ele>770.0</ele><time>2026-03-28T15:28:44.999Z</time></trkpt><trkpt lat="44.58015360665872" lon="10.030185106345197"><ele>771.0</ele><time>2026-03-28T15:28:45.999Z</time></trkpt><trkpt lat="44.58035802908178" lon="10.03019815273532"><ele>772.0</ele><time>2026-03-28T15:28:46.999Z</time></trkpt><trkpt lat="44.580570452066944" lon="10.030286195332538"><ele>773.0</ele><time>2026-03-28T15:28:47.999Z</time></trkpt><trkpt lat="44.58078446020538" lon="10.030357408835131"><ele>773.0</ele><time>2026-03-28T15:28:48.999Z</time></trkpt><trkpt lat="44.58099355166894" lon="10.03044401521122"><ele>773.0</ele><time>2026-03-28T15:28:49.999Z</time></trkpt><trkpt lat="44.58120149266495" lon="10.030467278066999"><ele>773.0</ele><time>2026-03-28T15:28:50.999Z</time></trkpt><trkpt lat="44.58141159278022" lon="10.03049028028167"><ele>771.6666666666667</ele><time>2026-03-28T15:28:51.999Z</time></trkpt><trkpt lat="44.58158687900839" lon="10.030582618888545"><ele>770.3333333333333</ele><time>2026-03-28T15:28:52.999Z</time></trkpt><trkpt lat="44.5817432275166" lon="10.030723279999794"><ele>769.0</ele><time>2026-03-28T15:28:53.999Z</time></trkpt><trkpt lat="44.58189428794673" lon="10.030872793156485"><ele>768.6666666666666</ele><time>2026-03-28T15:28:54.999Z</time></trkpt><trkpt lat="44.582012483626734" lon="10.031048458991595"><ele>768.3333333333333</ele><time>2026-03-28T15:28:55.999Z</time></trkpt><trkpt lat="44.58213348282147" lon="10.031199193551823"><ele>768.0</ele><time>2026-03-28T15:28:56.999Z</time></trkpt><trkpt lat="44.58225150192292" lon="10.031337812153758"><ele>767.0</ele><time>2026-03-28T15:28:57.999Z</time></trkpt><trkpt lat="44.58236833217756" lon="10.031473799139926"><ele>766.0</ele><time>2026-03-28T15:28:58.999Z</time></trkpt><trkpt lat="44.58248722022093" lon="10.031605566082895"><ele>765.0</ele><time>2026-03-28T15:28:59.999Z</time></trkpt><trkpt lat="44.58260304531944" lon="10.031731094095498"><ele>767.0</ele><time>2026-03-28T15:29:01Z</time></trkpt><trkpt lat="44.58271744383266" lon="10.031857610519811"><ele>769.0</ele><time>2026-03-28T15:29:02Z</time></trkpt><trkpt lat="44.58283611906552" lon="10.031975805029688"><ele>771.0</ele><time>2026-03-28T15:29:03Z</time></trkpt><trkpt lat="44.58297039355737" lon="10.032061460688041"><ele>773.0</ele><time>2026-03-28T15:29:04Z</time></trkpt><trkpt lat="44.58311836182135" lon="10.032119591425325"><ele>773.6666666666667</ele><time>2026-03-28T15:29:05Z</time></trkpt><trkpt lat="44.58327018294109" lon="10.032171585163036"><ele>774.3333333333333</ele><time>2026-03-28T15:29:06Z</time></trkpt><trkpt lat="44.58342337755601" lon="10.032217045814116"><ele>775.0</ele><time>2026-03-28T15:29:07Z</time></trkpt><trkpt lat="44.58357766777238" lon="10.032256337794992"><ele>775.0</ele><time>2026-03-28T15:29:08Z</time></trkpt><trkpt lat="44.583751786306735" lon="10.03231544176578"><ele>775.0</ele><time>2026-03-28T15:29:09Z</time></trkpt><trkpt lat="44.58391075567445" lon="10.032431188304827"><ele>775.0</ele><time>2026-03-28T15:29:10Z</time></trkpt><trkpt lat="44.5840426206639" lon="10.032557419256834"><ele>780.0</ele><time>2026-03-28T15:29:11Z</time></trkpt><trkpt lat="44.58415951898615" lon="10.032683631363822"><ele>785.0</ele><time>2026-03-28T15:29:12Z</time></trkpt><trkpt lat="44.58428882872377" lon="10.032820241349844"><ele>790.0</ele><time>2026-03-28T15:29:13Z</time></trkpt><trkpt lat="44.58441355377198" lon="10.032965674559486"><ele>789.3333333333333</ele><time>2026-03-28T15:29:14Z</time></trkpt><trkpt lat="44.5845335693212" lon="10.033114466792929"><ele>788.6666666666667</ele><time>2026-03-28T15:29:15Z</time></trkpt><trkpt lat="44.584649448332954" lon="10.033262806987798"><ele>788.0</ele><time>2026-03-28T15:29:16Z</time></trkpt><trkpt lat="44.58475127499603" lon="10.033410579294065"><ele>790.25</ele><time>2026-03-28T15:29:17Z</time></trkpt><trkpt lat="44.584854240292266" lon="10.033558617977379"><ele>792.5</ele><time>2026-03-28T15:29:18Z</time></trkpt><trkpt lat="44.58494808681598" lon="10.033702546133096"><ele>794.75</ele><time>2026-03-28T15:29:19Z</time></trkpt><trkpt lat="44.585052796676436" lon="10.033848592056392"><ele>797.0</ele><time>2026-03-28T15:29:20Z</time></trkpt><trkpt lat="44.58516217963212" lon="10.033986148755577"><ele>797.0</ele><time>2026-03-28T15:29:21Z</time></trkpt><trkpt lat="44.585283760185646" lon="10.034107795634494"><ele>797.0</ele><time>2026-03-28T15:29:22Z</time></trkpt><trkpt lat="44.58541164803" lon="10.034199354946091"><ele>797.0</ele><time>2026-03-28T15:29:23Z</time></trkpt><trkpt lat="44.58554582669599" lon="10.034260261107608"><ele>797.0</ele><time>2026-03-28T15:29:24Z</time></trkpt><trkpt lat="44.585681020640145" lon="10.03429599582306"><ele>798.0</ele><time>2026-03-28T15:29:25Z</time></trkpt><trkpt lat="44.58580758652242" lon="10.034324416599027"><ele>799.0</ele><time>2026-03-28T15:29:26Z</time></trkpt><trkpt lat="44.5859080140596" lon="10.034377635994401"><ele>800.0</ele><time>2026-03-28T15:29:27Z</time></trkpt><trkpt lat="44.586019193838936" lon="10.034395886669895"><ele>801.0</ele><time>2026-03-28T15:29:28Z</time></trkpt><trkpt lat="44.58613634576359" lon="10.034433950005301"><ele>801.75</ele><time>2026-03-28T15:29:29Z</time></trkpt><trkpt lat="44.58626681266906" lon="10.034498981535712"><ele>802.5</ele><time>2026-03-28T15:29:30Z</time></trkpt><trkpt lat="44.58640630344126" lon="10.034544997317749"><ele>803.25</ele><time>2026-03-28T15:29:31Z</time></trkpt><trkpt lat="44.58654936640645" lon="10.034574779130821"><ele>804.0</ele><time>2026-03-28T15:29:32Z</time></trkpt><trkpt lat="44.58669335174321" lon="10.034625188766903"><ele>804.0</ele><time>2026-03-28T15:29:33Z</time></trkpt><trkpt lat="44.58684230243625" lon="10.03466750754143"><ele>804.0</ele><time>2026-03-28T15:29:34Z</time></trkpt><trkpt lat="44.586971662613664" lon="10.034731911034665"><ele>804.0</ele><time>2026-03-28T15:29:35Z</time></trkpt><trkpt lat="44.58709165825456" lon="10.034770350267433"><ele>804.0</ele><time>2026-03-28T15:29:36Z</time></trkpt><trkpt lat="44.58720734860555" lon="10.03480741036988"><ele>806.0</ele><time>2026-03-28T15:29:37Z</time></trkpt><trkpt lat="44.58733308601156" lon="10.034830955683168"><ele>808.0</ele><time>2026-03-28T15:29:38Z</time></trkpt><trkpt lat="44.58744386329431" lon="10.03490177388507"><ele>810.0</ele><time>2026-03-28T15:29:39Z</time></trkpt><trkpt lat="44.58753489293659" lon="10.035005534324585"><ele>812.0</ele><time>2026-03-28T15:29:40Z</time></trkpt><trkpt lat="44.58758984014904" lon="10.035159818774792"><ele>814.0</ele><time>2026-03-28T15:29:41Z</time></trkpt><trkpt lat="44.58760296742584" lon="10.035364116474842"><ele>816.0</ele><time>2026-03-28T15:29:42Z</time></trkpt><trkpt lat="44.58755701236544" lon="10.035582903684915"><ele>818.0</ele><time>2026-03-28T15:29:43Z</time></trkpt><trkpt lat="44.587504383557345" lon="10.035824504521454"><ele>819.6666666666667</ele><time>2026-03-28T15:29:44Z</time></trkpt><trkpt lat="44.587520109099536" lon="10.036062224788088"><ele>821.3333333333333</ele><time>2026-03-28T15:29:45Z</time></trkpt><trkpt lat="44.58761795219037" lon="10.036327245404049"><ele>823.0</ele><time>2026-03-28T15:29:46Z</time></trkpt><trkpt lat="44.58773607712707" lon="10.03659090492167"><ele>824.0</ele><time>2026-03-28T15:29:47Z</time></trkpt><trkpt lat="44.587786953894444" lon="10.036858301391888"><ele>825.0</ele><time>2026-03-28T15:29:48Z</time></trkpt><trkpt lat="44.58774324129906" lon="10.037156517056667"><ele>826.0</ele><time>2026-03-28T15:29:49Z</time></trkpt><trkpt lat="44.58768673087116" lon="10.03750264628338"><ele>827.5</ele><time>2026-03-28T15:29:50Z</time></trkpt><trkpt lat="44.58763439578999" lon="10.037845563931453"><ele>829.0</ele><time>2026-03-28T15:29:51Z</time></trkpt><trkpt lat="44.58759045457043" lon="10.038133569053235"><ele>832.0</ele><time>2026-03-28T15:29:52Z</time></trkpt><trkpt lat="44.587553490124655" lon="10.038385221748074"><ele>835.0</ele><time>2026-03-28T15:29:53Z</time></trkpt><trkpt lat="44.58751055688938" lon="10.038652541714086"><ele>838.0</ele><time>2026-03-28T15:29:54Z</time></trkpt><trkpt lat="44.58747232062714" lon="10.038903713345947"><ele>843.3333333333333</ele><time>2026-03-28T15:29:55Z</time></trkpt><trkpt lat="44.58741247165895" lon="10.0391484244157"><ele>848.6666666666667</ele><time>2026-03-28T15:29:56Z</time></trkpt><trkpt lat="44.58729473233467" lon="10.039345849465231"><ele>854.0</ele><time>2026-03-28T15:29:57Z</time></trkpt><trkpt lat="44.58718217922948" lon="10.039531372538566"><ele>854.0</ele><time>2026-03-28T15:29:58Z</time></trkpt><trkpt lat="44.587044030109325" lon="10.039700198979057"><ele>854.0</ele><time>2026-03-28T15:29:59Z</time></trkpt><trkpt lat="44.58691556838264" lon="10.03987760923579"><ele>854.0</ele><time>2026-03-28T15:30:00Z</time></trkpt><trkpt lat="44.58681311660233" lon="10.040024872050438"><ele>850.3333333333334</ele><time>2026-03-28T15:30:01Z</time></trkpt><trkpt lat="44.58672421998599" lon="10.040208067118161"><ele>846.6666666666667</ele><time>2026-03-28T15:30:02Z</time></trkpt><trkpt lat="44.586678639003686" lon="10.040463004212087"><ele>843.0</ele><time>2026-03-28T15:30:03Z</time></trkpt><trkpt lat="44.58665798884098" lon="10.040749357707135"><ele>848.0</ele><time>2026-03-28T15:30:04Z</time></trkpt><trkpt lat="44.586626687138356" lon="10.041024855854783"><ele>853.0</ele><time>2026-03-28T15:30:05Z</time></trkpt><trkpt lat="44.586592118182644" lon="10.041256904288858"><ele>858.0</ele><time>2026-03-28T15:30:06Z</time></trkpt><trkpt lat="44.586583119882484" lon="10.041490148581344"><ele>859.3333333333333</ele><time>2026-03-28T15:30:07Z</time></trkpt><trkpt lat="44.58663057735473" lon="10.041760111702503"><ele>860.6666666666666</ele><time>2026-03-28T15:30:08Z</time></trkpt><trkpt lat="44.58671580106061" lon="10.04203766921778"><ele>862.0</ele><time>2026-03-28T15:30:09Z</time></trkpt><trkpt lat="44.58682276640515" lon="10.042288561021206"><ele>859.3333333333333</ele><time>2026-03-28T15:30:10Z</time></trkpt><trkpt lat="44.586911579031835" lon="10.042512487855552"><ele>856.6666666666667</ele><time>2026-03-28T15:30:11Z</time></trkpt><trkpt lat="44.58698358707173" lon="10.042725586972988"><ele>854.0</ele><time>2026-03-28T15:30:12Z</time></trkpt><trkpt lat="44.5870051176729" lon="10.042937433034494"><ele>854.0</ele><time>2026-03-28T15:30:13Z</time></trkpt><trkpt lat="44.58695742295948" lon="10.043156801855153"><ele>854.0</ele><time>2026-03-28T15:30:14Z</time></trkpt><trkpt lat="44.58692227955909" lon="10.04342170395049"><ele>854.0</ele><time>2026-03-28T15:30:15Z</time></trkpt><trkpt lat="44.58689285107153" lon="10.043689583310586"><ele>854.6666666666667</ele><time>2026-03-28T15:30:16Z</time></trkpt><trkpt lat="44.5869110736062" lon="10.04398828187416"><ele>855.3333333333333</ele><time>2026-03-28T15:30:17Z</time></trkpt><trkpt lat="44.58689370224325" lon="10.04429003987115"><ele>856.0</ele><time>2026-03-28T15:30:18Z</time></trkpt><trkpt lat="44.58683761947925" lon="10.044584516498821"><ele>856.0</ele><time>2026-03-28T15:30:19Z</time></trkpt><trkpt lat="44.58679235282221" lon="10.044843272652624"><ele>856.0</ele><time>2026-03-28T15:30:20Z</time></trkpt><trkpt lat="44.586758323255715" lon="10.045081110418536"><ele>856.0</ele><time>2026-03-28T15:30:21Z</time></trkpt><trkpt lat="44.58666940662031" lon="10.045285244746806"><ele>860.6666666666666</ele><time>2026-03-28T15:30:22Z</time></trkpt><trkpt lat="44.586551048025356" lon="10.04549961234318"><ele>865.3333333333333</ele><time>2026-03-28T15:30:23Z</time></trkpt><trkpt lat="44.58643622270984" lon="10.04569067972678"><ele>870.0</ele><time>2026-03-28T15:30:24Z</time></trkpt><trkpt lat="44.58633546235171" lon="10.045902828459932"><ele>875.3333333333333</ele><time>2026-03-28T15:30:25Z</time></trkpt><trkpt lat="44.58626394719567" lon="10.046181052485862"><ele>880.6666666666666</ele><time>2026-03-28T15:30:26Z</time></trkpt><trkpt lat="44.58620826189699" lon="10.04647061065536"><ele>886.0</ele><time>2026-03-28T15:30:27Z</time></trkpt><trkpt lat="44.5861674222558" lon="10.046700750532631"><ele>887.5</ele><time>2026-03-28T15:30:28Z</time></trkpt><trkpt lat="44.586147372429124" lon="10.046887415283125"><ele>889.0</ele><time>2026-03-28T15:30:29Z</time></trkpt><trkpt lat="44.58614504606482" lon="10.047048211785377"><ele>890.5</ele><time>2026-03-28T15:30:30Z</time></trkpt><trkpt lat="44.586172389146064" lon="10.047183880278746"><ele>892.0</ele><time>2026-03-28T15:30:31Z</time></trkpt><trkpt lat="44.586265791549145" lon="10.047304105853105"><ele>892.0</ele><time>2026-03-28T15:30:32Z</time></trkpt><trkpt lat="44.58640978786516" lon="10.04734511868621"><ele>892.0</ele><time>2026-03-28T15:30:33Z</time></trkpt><trkpt lat="44.5865907807339" lon="10.047343439857778"><ele>892.0</ele><time>2026-03-28T15:30:34Z</time></trkpt><trkpt lat="44.58678223952463" lon="10.047343522752385"><ele>892.0</ele><time>2026-03-28T15:30:34.999Z</time></trkpt><trkpt lat="44.58699880146049" lon="10.047384070635239"><ele>892.0</ele><time>2026-03-28T15:30:35.999Z</time></trkpt><trkpt lat="44.58720928406903" lon="10.047408909889052"><ele>892.0</ele><time>2026-03-28T15:30:36.999Z</time></trkpt><trkpt lat="44.58737914260819" lon="10.047409560286539"><ele>893.0</ele><time>2026-03-28T15:30:37.999Z</time></trkpt><trkpt lat="44.58750586170142" lon="10.047429236299967"><ele>894.0</ele><time>2026-03-28T15:30:38.999Z</time></trkpt><trkpt lat="44.58761068672275" lon="10.04749399728413"><ele>895.0</ele><time>2026-03-28T15:30:39.999Z</time></trkpt><trkpt lat="44.58770638802196" lon="10.047581163749093"><ele>896.0</ele><time>2026-03-28T15:30:40.999Z</time></trkpt><trkpt lat="44.58775906217801" lon="10.047702082074506"><ele>896.0</ele><time>2026-03-28T15:30:41.999Z</time></trkpt><trkpt lat="44.58778994534631" lon="10.047872343778836"><ele>896.0</ele><time>2026-03-28T15:30:42.999Z</time></trkpt><trkpt lat="44.58771966312187" lon="10.048020482259872"><ele>896.0</ele><time>2026-03-28T15:30:43.999Z</time></trkpt><trkpt lat="44.58766564375628" lon="10.048180456596839"><ele>896.0</ele><time>2026-03-28T15:30:44.999Z</time></trkpt><trkpt lat="44.58759613798814" lon="10.048323539941288"><ele>894.5</ele><time>2026-03-28T15:30:45.999Z</time></trkpt><trkpt lat="44.587529971990286" lon="10.048495055526638"><ele>893.0</ele><time>2026-03-28T15:30:46.999Z</time></trkpt><trkpt lat="44.58746592289945" lon="10.048666687322628"><ele>891.5</ele><time>2026-03-28T15:30:47.999Z</time></trkpt><trkpt lat="44.587429055472235" lon="10.048817953173225"><ele>890.0</ele><time>2026-03-28T15:30:48.999Z</time></trkpt><trkpt lat="44.587451170742085" lon="10.04894617606828"><ele>890.0</ele><time>2026-03-28T15:30:49.999Z</time></trkpt><trkpt lat="44.58754201763343" lon="10.049055749114682"><ele>890.0</ele><time>2026-03-28T15:30:50.999Z</time></trkpt><trkpt lat="44.5876890895703" lon="10.049110440820979"><ele>890.0</ele><time>2026-03-28T15:30:51.999Z</time></trkpt><trkpt lat="44.58788188782215" lon="10.04911382260651"><ele>896.3333333333334</ele><time>2026-03-28T15:30:52.999Z</time></trkpt><trkpt lat="44.58809161685549" lon="10.04911071855621"><ele>902.6666666666667</ele><time>2026-03-28T15:30:53.999Z</time></trkpt><trkpt lat="44.58828135175723" lon="10.049165467520499"><ele>909.0</ele><time>2026-03-28T15:30:54.999Z</time></trkpt><trkpt lat="44.58848225048777" lon="10.049261526686253"><ele>909.0</ele><time>2026-03-28T15:30:55.999Z</time></trkpt><trkpt lat="44.58867520452662" lon="10.049426957108334"><ele>909.0</ele><time>2026-03-28T15:30:56.999Z</time></trkpt><trkpt lat="44.58886003186492" lon="10.049631560293914"><ele>910.6666666666667</ele><time>2026-03-28T15:30:57.999Z</time></trkpt><trkpt lat="44.58903094746796" lon="10.049850537840484"><ele>912.3333333333334</ele><time>2026-03-28T15:30:58.999Z</time></trkpt><trkpt lat="44.5891746564191" lon="10.050063473219613"><ele>914.0</ele><time>2026-03-28T15:30:59.999Z</time></trkpt><trkpt lat="44.58930345971923" lon="10.050290214019853"><ele>914.0</ele><time>2026-03-28T15:31:00.999Z</time></trkpt><trkpt lat="44.589391708847806" lon="10.050540931701477"><ele>914.0</ele><time>2026-03-28T15:31:01.999Z</time></trkpt><trkpt lat="44.58946286847735" lon="10.050855022740421"><ele>914.0</ele><time>2026-03-28T15:31:02.999Z</time></trkpt><trkpt lat="44.58950231470795" lon="10.051168394918308"><ele>923.5</ele><time>2026-03-28T15:31:03.999Z</time></trkpt><trkpt lat="44.58951661449817" lon="10.051472562339033"><ele>933.0</ele><time>2026-03-28T15:31:04.999Z</time></trkpt><trkpt lat="44.589522969824394" lon="10.051801107614525"><ele>921.0</ele><time>2026-03-28T15:31:05.999Z</time></trkpt><trkpt lat="44.58949946010807" lon="10.05211773954952"><ele>909.0</ele><time>2026-03-28T15:31:07Z</time></trkpt><trkpt lat="44.58947924275372" lon="10.052409293750225"><ele>897.0</ele><time>2026-03-28T15:31:08Z</time></trkpt><trkpt lat="44.589467821218534" lon="10.052665293531668"><ele>897.0</ele><time>2026-03-28T15:31:09Z</time></trkpt><trkpt lat="44.58946142812736" lon="10.052907543881142"><ele>897.0</ele><time>2026-03-28T15:31:10Z</time></trkpt><trkpt lat="44.589464219134776" lon="10.053124180987242"><ele>897.0</ele><time>2026-03-28T15:31:11Z</time></trkpt><trkpt lat="44.58949255762194" lon="10.053313290613573"><ele>905.6666666666667</ele><time>2026-03-28T15:31:12Z</time></trkpt><trkpt lat="44.58958533746081" lon="10.053505604096307"><ele>914.3333333333334</ele><time>2026-03-28T15:31:13Z</time></trkpt><trkpt lat="44.58973769860003" lon="10.05367477360016"><ele>923.0</ele><time>2026-03-28T15:31:14Z</time></trkpt><trkpt lat="44.5899267522506" lon="10.05379739328217"><ele>923.0</ele><time>2026-03-28T15:31:15Z</time></trkpt><trkpt lat="44.59000145087718" lon="10.053951185542838"><ele>923.0</ele><time>2026-03-28T15:31:16Z</time></trkpt><trkpt lat="44.59008178338443" lon="10.0540884912464"><ele>923.0</ele><time>2026-03-28T15:31:17Z</time></trkpt><trkpt lat="44.59030028689729" lon="10.05428276625377"><ele>921.0</ele><time>2026-03-28T15:31:18Z</time></trkpt><trkpt lat="44.59043125967585" lon="10.054380001253987"><ele>919.0</ele><time>2026-03-28T15:31:19Z</time></trkpt><trkpt lat="44.59061128993906" lon="10.05440761281501"><ele>917.0</ele><time>2026-03-28T15:31:20Z</time></trkpt><trkpt lat="44.59077875842214" lon="10.054390392277812"><ele>917.0</ele><time>2026-03-28T15:31:21Z</time></trkpt><trkpt lat="44.590885124288725" lon="10.05446970859157"><ele>917.0</ele><time>2026-03-28T15:31:22Z</time></trkpt><trkpt lat="44.59096627962649" lon="10.054609493864314"><ele>917.0</ele><time>2026-03-28T15:31:23Z</time></trkpt><trkpt lat="44.59099866657802" lon="10.054802027653976"><ele>917.0</ele><time>2026-03-28T15:31:24Z</time></trkpt><trkpt lat="44.59107184382457" lon="10.055009727764874"><ele>916.0</ele><time>2026-03-28T15:31:25Z</time></trkpt><trkpt lat="44.5911244179193" lon="10.055201452427749"><ele>915.0</ele><time>2026-03-28T15:31:26Z</time></trkpt><trkpt lat="44.591215419878" lon="10.055362952836102"><ele>914.0</ele><time>2026-03-28T15:31:27Z</time></trkpt><trkpt lat="44.59133132707684" lon="10.05546419096888"><ele>913.0</ele><time>2026-03-28T15:31:28Z</time></trkpt><trkpt lat="44.591483338312614" lon="10.055504813927545"><ele>913.0</ele><time>2026-03-28T15:31:29Z</time></trkpt><trkpt lat="44.59167561650072" lon="10.055451754244281"><ele>913.0</ele><time>2026-03-28T15:31:30Z</time></trkpt><trkpt lat="44.591859232129615" lon="10.055358230242973"><ele>913.0</ele><time>2026-03-28T15:31:31Z</time></trkpt><trkpt lat="44.59202029206255" lon="10.05529203718428"><ele>912.0</ele><time>2026-03-28T15:31:32Z</time></trkpt><trkpt lat="44.592173563706766" lon="10.05524936715961"><ele>911.0</ele><time>2026-03-28T15:31:33Z</time></trkpt><trkpt lat="44.592316051037564" lon="10.055280331113753"><ele>910.0</ele><time>2026-03-28T15:31:34Z</time></trkpt><trkpt lat="44.5924224873654" lon="10.055416255896596"><ele>909.0</ele><time>2026-03-28T15:31:35Z</time></trkpt><trkpt lat="44.59232949950836" lon="10.055008340692146"><ele>909.0</ele><time>2026-03-28T15:31:36.272Z</time></trkpt><trkpt lat="44.592709066712" lon="10.055732166175947"><ele>904.0</ele><time>2026-03-28T15:31:37Z</time></trkpt><trkpt lat="44.59284020480498" lon="10.05593374509042"><ele>899.0</ele><time>2026-03-28T15:31:38Z</time></trkpt><trkpt lat="44.59295029317568" lon="10.056150664775899"><ele>894.0</ele><time>2026-03-28T15:31:39Z</time></trkpt><trkpt lat="44.59301991908743" lon="10.0563878116358"><ele>892.6666666666667</ele><time>2026-03-28T15:31:40Z</time></trkpt><trkpt lat="44.593082280822095" lon="10.056682996214626"><ele>891.3333333333334</ele><time>2026-03-28T15:31:41Z</time></trkpt><trkpt lat="44.59314118170972" lon="10.056983942090632"><ele>890.0</ele><time>2026-03-28T15:31:42Z</time></trkpt><trkpt lat="44.593200444960274" lon="10.057269531657202"><ele>887.0</ele><time>2026-03-28T15:31:43Z</time></trkpt><trkpt lat="44.59326351879314" lon="10.057563081070768"><ele>884.0</ele><time>2026-03-28T15:31:44Z</time></trkpt><trkpt lat="44.593351320319925" lon="10.057829325557629"><ele>881.0</ele><time>2026-03-28T15:31:45Z</time></trkpt><trkpt lat="44.5934646696135" lon="10.058065030174312"><ele>881.0</ele><time>2026-03-28T15:31:46Z</time></trkpt><trkpt lat="44.593587914053394" lon="10.058272993467318"><ele>881.0</ele><time>2026-03-28T15:31:47Z</time></trkpt><trkpt lat="44.5937207273914" lon="10.058453456554222"><ele>881.0</ele><time>2026-03-28T15:31:48Z</time></trkpt><trkpt lat="44.59388772273809" lon="10.05857976971064"><ele>880.0</ele><time>2026-03-28T15:31:49Z</time></trkpt><trkpt lat="44.594060259782815" lon="10.058681859629084"><ele>879.0</ele><time>2026-03-28T15:31:50Z</time></trkpt><trkpt lat="44.59419336136022" lon="10.058850292495624"><ele>878.0</ele><time>2026-03-28T15:31:51Z</time></trkpt><trkpt lat="44.59429339434497" lon="10.059090459610063"><ele>877.6666666666667</ele><time>2026-03-28T15:31:52Z</time></trkpt><trkpt lat="44.594340859977244" lon="10.0593820435599"><ele>877.3333333333333</ele><time>2026-03-28T15:31:53Z</time></trkpt><trkpt lat="44.59439277858593" lon="10.05967872712281"><ele>877.0</ele><time>2026-03-28T15:31:54Z</time></trkpt><trkpt lat="44.59444691402246" lon="10.05993870192625"><ele>877.6666666666666</ele><time>2026-03-28T15:31:55Z</time></trkpt><trkpt lat="44.59448868915866" lon="10.060204019096746"><ele>878.3333333333333</ele><time>2026-03-28T15:31:56Z</time></trkpt><trkpt lat="44.59453441084224" lon="10.060460201660467"><ele>879.0</ele><time>2026-03-28T15:31:57Z</time></trkpt><trkpt lat="44.594573131100454" lon="10.060711094428585"><ele>883.0</ele><time>2026-03-28T15:31:58Z</time></trkpt><trkpt lat="44.59461895787732" lon="10.060956808878545"><ele>887.0</ele><time>2026-03-28T15:31:59Z</time></trkpt><trkpt lat="44.59468949304225" lon="10.061211164542112"><ele>891.0</ele><time>2026-03-28T15:32:00Z</time></trkpt><trkpt lat="44.594801952619484" lon="10.061462771601247"><ele>891.0</ele><time>2026-03-28T15:32:01Z</time></trkpt><trkpt lat="44.59492347481446" lon="10.061694074706546"><ele>891.0</ele><time>2026-03-28T15:32:02Z</time></trkpt><trkpt lat="44.59505202197458" lon="10.061895683578294"><ele>891.0</ele><time>2026-03-28T15:32:03Z</time></trkpt><trkpt lat="44.59520594980577" lon="10.062087714073488"><ele>893.0</ele><time>2026-03-28T15:32:04Z</time></trkpt><trkpt lat="44.59536460943132" lon="10.062276085137789"><ele>895.0</ele><time>2026-03-28T15:32:05Z</time></trkpt><trkpt lat="44.595508306817415" lon="10.062459491107282"><ele>897.0</ele><time>2026-03-28T15:32:06Z</time></trkpt><trkpt lat="44.595638939086506" lon="10.06263518612616"><ele>897.0</ele><time>2026-03-28T15:32:07Z</time></trkpt><trkpt lat="44.59572581316977" lon="10.062825801095308"><ele>897.0</ele><time>2026-03-28T15:32:08Z</time></trkpt><trkpt lat="44.59577280957595" lon="10.063027539624231"><ele>897.0</ele><time>2026-03-28T15:32:09Z</time></trkpt><trkpt lat="44.595781922172385" lon="10.063238502997846"><ele>893.3333333333333</ele><time>2026-03-28T15:32:10Z</time></trkpt><trkpt lat="44.595763292303545" lon="10.063448896788378"><ele>889.6666666666666</ele><time>2026-03-28T15:32:11Z</time></trkpt><trkpt lat="44.59570843454165" lon="10.06367678612548"><ele>886.0</ele><time>2026-03-28T15:32:12Z</time></trkpt><trkpt lat="44.59565961222232" lon="10.063935867542538"><ele>885.0</ele><time>2026-03-28T15:32:13Z</time></trkpt><trkpt lat="44.595636074674466" lon="10.064216024216606"><ele>884.0</ele><time>2026-03-28T15:32:14Z</time></trkpt><trkpt lat="44.595636755933995" lon="10.06451497788979"><ele>883.0</ele><time>2026-03-28T15:32:15Z</time></trkpt><trkpt lat="44.59563839679942" lon="10.06482530294214"><ele>880.5</ele><time>2026-03-28T15:32:16Z</time></trkpt><trkpt lat="44.595656291949794" lon="10.065160669894608"><ele>878.0</ele><time>2026-03-28T15:32:17Z</time></trkpt><trkpt lat="44.59570787272605" lon="10.065498996489492"><ele>873.0</ele><time>2026-03-28T15:32:18Z</time></trkpt><trkpt lat="44.59570018935025" lon="10.065829289699241"><ele>868.0</ele><time>2026-03-28T15:32:19Z</time></trkpt><trkpt lat="44.59569502115172" lon="10.066171751273247"><ele>868.0</ele><time>2026-03-28T15:32:20Z</time></trkpt><trkpt lat="44.59566862835712" lon="10.066522936931673"><ele>868.0</ele><time>2026-03-28T15:32:21Z</time></trkpt><trkpt lat="44.59568836339745" lon="10.066866798054967"><ele>865.6666666666666</ele><time>2026-03-28T15:32:22Z</time></trkpt><trkpt lat="44.59573169236551" lon="10.067184050971775"><ele>863.3333333333333</ele><time>2026-03-28T15:32:23Z</time></trkpt><trkpt lat="44.59578283591925" lon="10.06747116993573"><ele>861.0</ele><time>2026-03-28T15:32:24Z</time></trkpt><trkpt lat="44.59584025948823" lon="10.06773994901689"><ele>863.3333333333333</ele><time>2026-03-28T15:32:25Z</time></trkpt><trkpt lat="44.595929326124754" lon="10.068010646563268"><ele>865.6666666666666</ele><time>2026-03-28T15:32:26Z</time></trkpt><trkpt lat="44.59604583396424" lon="10.068268354933704"><ele>868.0</ele><time>2026-03-28T15:32:27Z</time></trkpt><trkpt lat="44.59617638186773" lon="10.068483356859153"><ele>868.0</ele><time>2026-03-28T15:32:28Z</time></trkpt><trkpt lat="44.59628151891813" lon="10.068695116099974"><ele>868.0</ele><time>2026-03-28T15:32:29Z</time></trkpt><trkpt lat="44.59632960194933" lon="10.068963595361527"><ele>868.0</ele><time>2026-03-28T15:32:30Z</time></trkpt><trkpt lat="44.596373670919945" lon="10.069229304780873"><ele>865.3333333333333</ele><time>2026-03-28T15:32:31Z</time></trkpt><trkpt lat="44.59642445364047" lon="10.069472465114563"><ele>862.6666666666667</ele><time>2026-03-28T15:32:32Z</time></trkpt><trkpt lat="44.596451672245784" lon="10.069674189329014"><ele>860.0</ele><time>2026-03-28T15:32:33Z</time></trkpt><trkpt lat="44.59650902706724" lon="10.069838956447784"><ele>854.3333333333334</ele><time>2026-03-28T15:32:34Z</time></trkpt><trkpt lat="44.596624903066264" lon="10.069996344614248"><ele>848.6666666666667</ele><time>2026-03-28T15:32:35Z</time></trkpt><trkpt lat="44.59679193192627" lon="10.070095031481062"><ele>843.0</ele><time>2026-03-28T15:32:36Z</time></trkpt><trkpt lat="44.59699541458924" lon="10.070130354748368"><ele>842.0</ele><time>2026-03-28T15:32:37Z</time></trkpt><trkpt lat="44.59721978131525" lon="10.07011502247122"><ele>841.0</ele><time>2026-03-28T15:32:38Z</time></trkpt><trkpt lat="44.59744495970046" lon="10.070078990765873"><ele>841.0</ele><time>2026-03-28T15:32:39Z</time></trkpt><trkpt lat="44.59766081466606" lon="10.070059999056719"><ele>841.0</ele><time>2026-03-28T15:32:40Z</time></trkpt><trkpt lat="44.597862843580415" lon="10.070047946650693"><ele>841.0</ele><time>2026-03-28T15:32:40.999Z</time></trkpt><trkpt lat="44.59805267435855" lon="10.070033777312855"><ele>836.3333333333333</ele><time>2026-03-28T15:32:41.999Z</time></trkpt><trkpt lat="44.5982269883341" lon="10.070050096878484"><ele>831.6666666666667</ele><time>2026-03-28T15:32:42.999Z</time></trkpt><trkpt lat="44.59840048842592" lon="10.070112136488596"><ele>827.0</ele><time>2026-03-28T15:32:43.999Z</time></trkpt><trkpt lat="44.59856817198546" lon="10.070217821953078"><ele>822.3333333333334</ele><time>2026-03-28T15:32:44.999Z</time></trkpt><trkpt lat="44.59872229903403" lon="10.070329800588373"><ele>817.6666666666667</ele><time>2026-03-28T15:32:45.999Z</time></trkpt><trkpt lat="44.598867182992954" lon="10.070428118468396"><ele>813.0</ele><time>2026-03-28T15:32:46.999Z</time></trkpt><trkpt lat="44.59903641537547" lon="10.070433556787988"><ele>813.0</ele><time>2026-03-28T15:32:47.999Z</time></trkpt><trkpt lat="44.599211918558034" lon="10.070340366799321"><ele>813.0</ele><time>2026-03-28T15:32:48.999Z</time></trkpt><trkpt lat="44.599374994009736" lon="10.070229418682166"><ele>813.0</ele><time>2026-03-28T15:32:49.999Z</time></trkpt><trkpt lat="44.59951644777819" lon="10.070233726772607"><ele>809.0</ele><time>2026-03-28T15:32:50.999Z</time></trkpt><trkpt lat="44.59962724810836" lon="10.070287579406214"><ele>805.0</ele><time>2026-03-28T15:32:51.999Z</time></trkpt><trkpt lat="44.59977184232607" lon="10.070408890878575"><ele>801.0</ele><time>2026-03-28T15:32:52.999Z</time></trkpt><trkpt lat="44.599962066156706" lon="10.070543491684456"><ele>801.0</ele><time>2026-03-28T15:32:53.999Z</time></trkpt><trkpt lat="44.60011857976655" lon="10.070672072732787"><ele>801.0</ele><time>2026-03-28T15:32:54.999Z</time></trkpt><trkpt lat="44.60025359754242" lon="10.070786237747026"><ele>801.0</ele><time>2026-03-28T15:32:55.999Z</time></trkpt><trkpt lat="44.60036878984538" lon="10.070905755233314"><ele>799.25</ele><time>2026-03-28T15:32:56.999Z</time></trkpt><trkpt lat="44.600443453046964" lon="10.071042134304085"><ele>797.5</ele><time>2026-03-28T15:32:57.999Z</time></trkpt><trkpt lat="44.60048971320049" lon="10.071218685083027"><ele>795.75</ele><time>2026-03-28T15:32:58.999Z</time></trkpt><trkpt lat="44.60052006778048" lon="10.071395237978383"><ele>794.0</ele><time>2026-03-28T15:32:59.999Z</time></trkpt><trkpt lat="44.60055194872568" lon="10.071556899064092"><ele>794.8333333333334</ele><time>2026-03-28T15:33:00.999Z</time></trkpt><trkpt lat="44.600586348585345" lon="10.071694672609194"><ele>795.6666666666667</ele><time>2026-03-28T15:33:01.999Z</time></trkpt><trkpt lat="44.600626174531826" lon="10.07181761337892"><ele>796.5</ele><time>2026-03-28T15:33:02.999Z</time></trkpt><trkpt lat="44.60068527632122" lon="10.07191722497801"><ele>797.3333333333333</ele><time>2026-03-28T15:33:03.999Z</time></trkpt><trkpt lat="44.60074133057304" lon="10.07196883174317"><ele>798.1666666666666</ele><time>2026-03-28T15:33:04.999Z</time></trkpt><trkpt lat="44.60078553962981" lon="10.072057225668292"><ele>799.0</ele><time>2026-03-28T15:33:08.999Z</time></trkpt><trkpt lat="44.60084680959799" lon="10.072087348175224"><ele>799.0</ele><time>2026-03-28T15:42:32Z</time></trkpt><trkpt lat="44.60097007545276" lon="10.071948463925281"><ele>799.0</ele><time>2026-03-28T15:42:34Z</time></trkpt><trkpt lat="44.60106983578603" lon="10.071854774831948"><ele>799.0</ele><time>2026-03-28T15:42:35Z</time></trkpt><trkpt lat="44.601192587235865" lon="10.07177111379266"><ele>799.0</ele><time>2026-03-28T15:42:36Z</time></trkpt><trkpt lat="44.601329332015304" lon="10.071647717034745"><ele>795.3333333333333</ele><time>2026-03-28T15:42:37Z</time></trkpt><trkpt lat="44.601477786303604" lon="10.07152622982255"><ele>791.6666666666667</ele><time>2026-03-28T15:42:38Z</time></trkpt><trkpt lat="44.60164925511127" lon="10.071384931586786"><ele>788.0</ele><time>2026-03-28T15:42:39Z</time></trkpt><trkpt lat="44.6017823827026" lon="10.07125613310337"><ele>788.0</ele><time>2026-03-28T15:42:40Z</time></trkpt><trkpt lat="44.601931823410894" lon="10.071125846108444"><ele>788.0</ele><time>2026-03-28T15:42:41Z</time></trkpt><trkpt lat="44.60207237028157" lon="10.071002504918063"><ele>788.0</ele><time>2026-03-28T15:42:42Z</time></trkpt><trkpt lat="44.60220088723089" lon="10.070893973724514"><ele>787.75</ele><time>2026-03-28T15:42:43Z</time></trkpt><trkpt lat="44.60232035388123" lon="10.070787644867343"><ele>787.5</ele><time>2026-03-28T15:42:44Z</time></trkpt><trkpt lat="44.60244075846304" lon="10.070718723839372"><ele>787.25</ele><time>2026-03-28T15:42:45Z</time></trkpt><trkpt lat="44.60255423853952" lon="10.070754084771394"><ele>787.0</ele><time>2026-03-28T15:42:46Z</time></trkpt><trkpt lat="44.60267351747234" lon="10.07083414764221"><ele>787.0</ele><time>2026-03-28T15:42:47Z</time></trkpt><trkpt lat="44.60272608364313" lon="10.071050276623783"><ele>787.0</ele><time>2026-03-28T15:42:48Z</time></trkpt><trkpt lat="44.60282624387175" lon="10.071295457864206"><ele>787.0</ele><time>2026-03-28T15:42:49Z</time></trkpt><trkpt lat="44.60291577160151" lon="10.071600369000215"><ele>783.0</ele><time>2026-03-28T15:42:50Z</time></trkpt><trkpt lat="44.603022664409714" lon="10.071897151001684"><ele>779.0</ele><time>2026-03-28T15:42:51Z</time></trkpt><trkpt lat="44.603077357887614" lon="10.072045985932506"><ele>775.0</ele><time>2026-03-28T15:42:52Z</time></trkpt><trkpt lat="44.603149340900266" lon="10.07220114381599"><ele>775.0</ele><time>2026-03-28T15:42:53Z</time></trkpt><trkpt lat="44.603266060591714" lon="10.072305771567176"><ele>775.0</ele><time>2026-03-28T15:42:54Z</time></trkpt><trkpt lat="44.603426159254674" lon="10.072339469484694"><ele>775.0</ele><time>2026-03-28T15:42:55Z</time></trkpt><trkpt lat="44.60361881827951" lon="10.072285666618223"><ele>772.5</ele><time>2026-03-28T15:42:56Z</time></trkpt><trkpt lat="44.60383955359598" lon="10.072250432055833"><ele>770.0</ele><time>2026-03-28T15:42:57Z</time></trkpt><trkpt lat="44.60406934681004" lon="10.07232147138486"><ele>770.0</ele><time>2026-03-28T15:42:58Z</time></trkpt><trkpt lat="44.60428820619095" lon="10.072394602883337"><ele>770.0</ele><time>2026-03-28T15:42:59Z</time></trkpt><trkpt lat="44.6044729712557" lon="10.07245561908023"><ele>770.0</ele><time>2026-03-28T15:43:00Z</time></trkpt><trkpt lat="44.60469139604855" lon="10.072430617132367"><ele>768.6666666666667</ele><time>2026-03-28T15:43:01Z</time></trkpt><trkpt lat="44.60491577486524" lon="10.072339210356114"><ele>767.3333333333334</ele><time>2026-03-28T15:43:02Z</time></trkpt><trkpt lat="44.60511240999286" lon="10.072257118129219"><ele>766.0</ele><time>2026-03-28T15:43:03Z</time></trkpt><trkpt lat="44.605290190661414" lon="10.072175281529503"><ele>767.0</ele><time>2026-03-28T15:43:04Z</time></trkpt><trkpt lat="44.60546342250433" lon="10.072100218058278"><ele>768.0</ele><time>2026-03-28T15:43:05Z</time></trkpt><trkpt lat="44.605647491129616" lon="10.072031208600423"><ele>769.0</ele><time>2026-03-28T15:43:06Z</time></trkpt><trkpt lat="44.60581937480871" lon="10.071962531180075"><ele>769.0</ele><time>2026-03-28T15:43:07Z</time></trkpt><trkpt lat="44.60597242685888" lon="10.07188303090958"><ele>769.0</ele><time>2026-03-28T15:43:08Z</time></trkpt><trkpt lat="44.60611104080407" lon="10.071811710315913"><ele>769.0</ele><time>2026-03-28T15:43:09Z</time></trkpt><trkpt lat="44.606243660379725" lon="10.071803009525327"><ele>769.0</ele><time>2026-03-28T15:43:10Z</time></trkpt><trkpt lat="44.60637449981042" lon="10.071882827314711"><ele>768.6666666666666</ele><time>2026-03-28T15:43:11Z</time></trkpt><trkpt lat="44.60653592449674" lon="10.071944407009157"><ele>768.3333333333333</ele><time>2026-03-28T15:43:12Z</time></trkpt><trkpt lat="44.606676143649956" lon="10.071980445349226"><ele>768.0</ele><time>2026-03-28T15:43:13Z</time></trkpt><trkpt lat="44.60683960649818" lon="10.071970396184197"><ele>771.6666666666667</ele><time>2026-03-28T15:43:14Z</time></trkpt><trkpt lat="44.607036992429904" lon="10.071957332691166"><ele>775.3333333333334</ele><time>2026-03-28T15:43:15Z</time></trkpt><trkpt lat="44.60722990380323" lon="10.071954428299719"><ele>779.0</ele><time>2026-03-28T15:43:16Z</time></trkpt><trkpt lat="44.607405344612495" lon="10.071955241039573"><ele>779.0</ele><time>2026-03-28T15:43:17Z</time></trkpt><trkpt lat="44.60755964845407" lon="10.071936393205174"><ele>779.0</ele><time>2026-03-28T15:43:18Z</time></trkpt><trkpt lat="44.60770361247061" lon="10.071847252984343"><ele>779.0</ele><time>2026-03-28T15:43:19Z</time></trkpt><trkpt lat="44.60782704350281" lon="10.071666444716952"><ele>777.0</ele><time>2026-03-28T15:43:20Z</time></trkpt><trkpt lat="44.60793280236694" lon="10.071458577327235"><ele>775.0</ele><time>2026-03-28T15:43:21Z</time></trkpt><trkpt lat="44.60807345681051" lon="10.071338844339278"><ele>773.0</ele><time>2026-03-28T15:43:22Z</time></trkpt><trkpt lat="44.60823447403881" lon="10.071278927939801"><ele>773.0</ele><time>2026-03-28T15:43:23Z</time></trkpt><trkpt lat="44.608411065150314" lon="10.07127638810864"><ele>773.0</ele><time>2026-03-28T15:43:23.999Z</time></trkpt><trkpt lat="44.60862368932482" lon="10.071334951416706"><ele>773.0</ele><time>2026-03-28T15:43:24.999Z</time></trkpt><trkpt lat="44.60880337982636" lon="10.071388817309657"><ele>773.0</ele><time>2026-03-28T15:43:25.999Z</time></trkpt><trkpt lat="44.60901996894664" lon="10.071441526871643"><ele>773.0</ele><time>2026-03-28T15:43:26.999Z</time></trkpt><trkpt lat="44.609227538644745" lon="10.071515727544574"><ele>773.0</ele><time>2026-03-28T15:43:27.999Z</time></trkpt><trkpt lat="44.609439993136895" lon="10.071581480317834"><ele>777.6666666666667</ele><time>2026-03-28T15:43:28.999Z</time></trkpt><trkpt lat="44.609655914364225" lon="10.071651166967824"><ele>782.3333333333333</ele><time>2026-03-28T15:43:29.999Z</time></trkpt><trkpt lat="44.60987183983377" lon="10.071719475923205"><ele>787.0</ele><time>2026-03-28T15:43:30.999Z</time></trkpt><trkpt lat="44.610065950795935" lon="10.071788717854956"><ele>787.0</ele><time>2026-03-28T15:43:31.999Z</time></trkpt><trkpt lat="44.61024344896236" lon="10.071847642574626"><ele>787.0</ele><time>2026-03-28T15:43:32.999Z</time></trkpt><trkpt lat="44.61041024080205" lon="10.071865971237308"><ele>787.0</ele><time>2026-03-28T15:43:33.999Z</time></trkpt><trkpt lat="44.61059080609212" lon="10.071824910606583"><ele>786.6666666666666</ele><time>2026-03-28T15:43:34.999Z</time></trkpt><trkpt lat="44.61076907816558" lon="10.071712384017438"><ele>786.3333333333333</ele><time>2026-03-28T15:43:35.999Z</time></trkpt><trkpt lat="44.610904779353426" lon="10.071559371635741"><ele>786.0</ele><time>2026-03-28T15:43:36.999Z</time></trkpt><trkpt lat="44.61100731485684" lon="10.071343844914871"><ele>786.0</ele><time>2026-03-28T15:43:37.999Z</time></trkpt><trkpt lat="44.611061470723" lon="10.071061262823829"><ele>786.0</ele><time>2026-03-28T15:43:38.999Z</time></trkpt><trkpt lat="44.611093098970144" lon="10.070735054593099"><ele>786.0</ele><time>2026-03-28T15:43:39.999Z</time></trkpt><trkpt lat="44.6111223086363" lon="10.070466227047445"><ele>786.75</ele><time>2026-03-28T15:43:40.999Z</time></trkpt><trkpt lat="44.61114954314852" lon="10.070230269101039"><ele>787.5</ele><time>2026-03-28T15:43:41.999Z</time></trkpt><trkpt lat="44.61121283630704" lon="10.070053747949238"><ele>788.25</ele><time>2026-03-28T15:43:43Z</time></trkpt><trkpt lat="44.611301286336776" lon="10.069938050087911"><ele>789.0</ele><time>2026-03-28T15:43:44Z</time></trkpt><trkpt lat="44.61142714293291" lon="10.069920747748194"><ele>789.0</ele><time>2026-03-28T15:43:45Z</time></trkpt><trkpt lat="44.611550214962314" lon="10.069968739952852"><ele>789.0</ele><time>2026-03-28T15:43:46Z</time></trkpt><trkpt lat="44.61173624720318" lon="10.070019721021668"><ele>789.0</ele><time>2026-03-28T15:43:47Z</time></trkpt><trkpt lat="44.61192620930048" lon="10.070057111964795"><ele>787.0</ele><time>2026-03-28T15:43:48Z</time></trkpt><trkpt lat="44.61214299839445" lon="10.070134468114652"><ele>785.0</ele><time>2026-03-28T15:43:49Z</time></trkpt><trkpt lat="44.61233025476316" lon="10.070178531126146"><ele>783.0</ele><time>2026-03-28T15:43:50Z</time></trkpt><trkpt lat="44.61251410917351" lon="10.070203816762067"><ele>783.0</ele><time>2026-03-28T15:43:51Z</time></trkpt><trkpt lat="44.612708078052634" lon="10.070170642781445"><ele>783.0</ele><time>2026-03-28T15:43:52Z</time></trkpt><trkpt lat="44.612911183247924" lon="10.07010271130502"><ele>783.0</ele><time>2026-03-28T15:43:53Z</time></trkpt><trkpt lat="44.61308782778477" lon="10.069959539278075"><ele>779.3333333333333</ele><time>2026-03-28T15:43:54Z</time></trkpt><trkpt lat="44.61325550192527" lon="10.069771205735583"><ele>775.6666666666666</ele><time>2026-03-28T15:43:55Z</time></trkpt><trkpt lat="44.61341941708252" lon="10.069582533815405"><ele>772.0</ele><time>2026-03-28T15:43:56Z</time></trkpt><trkpt lat="44.61357903845564" lon="10.069400387481963"><ele>772.0</ele><time>2026-03-28T15:43:57Z</time></trkpt><trkpt lat="44.61372105487568" lon="10.069227242680462"><ele>772.0</ele><time>2026-03-28T15:43:58Z</time></trkpt><trkpt lat="44.61386934075382" lon="10.069062110321967"><ele>772.0</ele><time>2026-03-28T15:43:59Z</time></trkpt><trkpt lat="44.61401970432342" lon="10.068886990013436"><ele>767.6666666666666</ele><time>2026-03-28T15:44:00Z</time></trkpt><trkpt lat="44.6141780369772" lon="10.068706294924414"><ele>763.3333333333333</ele><time>2026-03-28T15:44:01Z</time></trkpt><trkpt lat="44.614326860229454" lon="10.068530908565368"><ele>759.0</ele><time>2026-03-28T15:44:02Z</time></trkpt><trkpt lat="44.61446572683437" lon="10.068360263373604"><ele>759.0</ele><time>2026-03-28T15:44:03Z</time></trkpt><trkpt lat="44.614575210969754" lon="10.068197321495552"><ele>759.0</ele><time>2026-03-28T15:44:04Z</time></trkpt><trkpt lat="44.614647050121484" lon="10.068004038070315"><ele>759.0</ele><time>2026-03-28T15:44:05Z</time></trkpt><trkpt lat="44.61467649283626" lon="10.067694838973148"><ele>759.0</ele><time>2026-03-28T15:44:06Z</time></trkpt><trkpt lat="44.61461897631846" lon="10.067555022812885"><ele>759.0</ele><time>2026-03-28T15:44:07Z</time></trkpt><trkpt lat="44.61456164183188" lon="10.067364235992853"><ele>759.0</ele><time>2026-03-28T15:44:08Z</time></trkpt><trkpt lat="44.61458187011575" lon="10.067204139240763"><ele>759.0</ele><time>2026-03-28T15:44:09Z</time></trkpt><trkpt lat="44.61466195750411" lon="10.067039261382824"><ele>755.6666666666666</ele><time>2026-03-28T15:44:10Z</time></trkpt><trkpt lat="44.6147880600717" lon="10.066884744207334"><ele>752.3333333333333</ele><time>2026-03-28T15:44:11Z</time></trkpt><trkpt lat="44.61492794340798" lon="10.066685003046327"><ele>749.0</ele><time>2026-03-28T15:44:12Z</time></trkpt><trkpt lat="44.615067445286115" lon="10.066465511306907"><ele>746.0</ele><time>2026-03-28T15:44:13Z</time></trkpt><trkpt lat="44.61520525225589" lon="10.066266198863406"><ele>743.0</ele><time>2026-03-28T15:44:14Z</time></trkpt><trkpt lat="44.61533443859648" lon="10.06610335153052"><ele>740.0</ele><time>2026-03-28T15:44:15Z</time></trkpt><trkpt lat="44.61543895380139" lon="10.066003550885688"><ele>740.0</ele><time>2026-03-28T15:44:16Z</time></trkpt><trkpt lat="44.615562480599856" lon="10.065992150450171"><ele>740.0</ele><time>2026-03-28T15:44:17Z</time></trkpt><trkpt lat="44.61571901032572" lon="10.066054163428019"><ele>740.0</ele><time>2026-03-28T15:44:18Z</time></trkpt><trkpt lat="44.6159230464385" lon="10.06611823971334"><ele>740.0</ele><time>2026-03-28T15:44:19Z</time></trkpt><trkpt lat="44.61612900028348" lon="10.0661640180229"><ele>740.0</ele><time>2026-03-28T15:44:20Z</time></trkpt><trkpt lat="44.61633204467102" lon="10.066225839378346"><ele>740.0</ele><time>2026-03-28T15:44:21Z</time></trkpt><trkpt lat="44.616530916132405" lon="10.066286503654386"><ele>739.0</ele><time>2026-03-28T15:44:22Z</time></trkpt><trkpt lat="44.61670774504922" lon="10.06634990332809"><ele>738.0</ele><time>2026-03-28T15:44:23Z</time></trkpt><trkpt lat="44.61684966573152" lon="10.066459369461317"><ele>737.0</ele><time>2026-03-28T15:44:24Z</time></trkpt><trkpt lat="44.61694083826102" lon="10.066628471260774"><ele>732.0</ele><time>2026-03-28T15:44:25Z</time></trkpt><trkpt lat="44.617065144326745" lon="10.066838838565813"><ele>727.0</ele><time>2026-03-28T15:44:26Z</time></trkpt><trkpt lat="44.617238446605285" lon="10.067035597031898"><ele>722.0</ele><time>2026-03-28T15:44:27Z</time></trkpt><trkpt lat="44.617403497500554" lon="10.067177103011808"><ele>722.0</ele><time>2026-03-28T15:44:28Z</time></trkpt><trkpt lat="44.61752775177684" lon="10.06729305599126"><ele>722.0</ele><time>2026-03-28T15:44:29Z</time></trkpt><trkpt lat="44.617611741094706" lon="10.067420069811007"><ele>722.0</ele><time>2026-03-28T15:44:30Z</time></trkpt><trkpt lat="44.617621450073415" lon="10.067592345626661"><ele>722.0</ele><time>2026-03-28T15:44:31Z</time></trkpt><trkpt lat="44.6176525464288" lon="10.067778824222126"><ele>724.0</ele><time>2026-03-28T15:44:32Z</time></trkpt><trkpt lat="44.617702877221234" lon="10.067962159242573"><ele>726.0</ele><time>2026-03-28T15:44:33Z</time></trkpt><trkpt lat="44.617757451399925" lon="10.068170984326265"><ele>728.0</ele><time>2026-03-28T15:44:34Z</time></trkpt><trkpt lat="44.617861466984664" lon="10.068371590996689"><ele>722.6666666666666</ele><time>2026-03-28T15:44:35Z</time></trkpt><trkpt lat="44.6179746797384" lon="10.06855899553776"><ele>717.3333333333334</ele><time>2026-03-28T15:44:36Z</time></trkpt><trkpt lat="44.618087054530164" lon="10.068747672544527"><ele>712.0</ele><time>2026-03-28T15:44:37Z</time></trkpt><trkpt lat="44.618211075044826" lon="10.068938598025655"><ele>712.25</ele><time>2026-03-28T15:44:38Z</time></trkpt><trkpt lat="44.6183002039601" lon="10.06912120875527"><ele>712.5</ele><time>2026-03-28T15:44:39Z</time></trkpt><trkpt lat="44.61833315765312" lon="10.069285726968618"><ele>712.75</ele><time>2026-03-28T15:44:40Z</time></trkpt><trkpt lat="44.61830596306827" lon="10.069474978793734"><ele>713.0</ele><time>2026-03-28T15:44:41Z</time></trkpt><trkpt lat="44.61825512689412" lon="10.069727158675937"><ele>711.3333333333333</ele><time>2026-03-28T15:44:42Z</time></trkpt><trkpt lat="44.618218303491695" lon="10.069998818143771"><ele>709.6666666666666</ele><time>2026-03-28T15:44:43Z</time></trkpt><trkpt lat="44.61816474184114" lon="10.070281298114729"><ele>708.0</ele><time>2026-03-28T15:44:44Z</time></trkpt><trkpt lat="44.61814763502553" lon="10.070529561535562"><ele>708.0</ele><time>2026-03-28T15:44:45Z</time></trkpt><trkpt lat="44.61818636210237" lon="10.070687108735381"><ele>708.0</ele><time>2026-03-28T15:44:46Z</time></trkpt><trkpt lat="44.61820847142045" lon="10.07105595770636"><ele>708.0</ele><time>2026-03-28T15:44:47Z</time></trkpt><trkpt lat="44.618171877579776" lon="10.071289668565225"><ele>706.6666666666666</ele><time>2026-03-28T15:44:48Z</time></trkpt><trkpt lat="44.61811646668832" lon="10.071534287630303"><ele>705.3333333333333</ele><time>2026-03-28T15:44:49Z</time></trkpt><trkpt lat="44.61807774938176" lon="10.07174820452556"><ele>704.0</ele><time>2026-03-28T15:44:50Z</time></trkpt><trkpt lat="44.61806335484015" lon="10.071906704634044"><ele>703.0</ele><time>2026-03-28T15:44:51Z</time></trkpt><trkpt lat="44.61809427089183" lon="10.072061670506331"><ele>702.0</ele><time>2026-03-28T15:44:52Z</time></trkpt><trkpt lat="44.61818854211103" lon="10.072205202601666"><ele>701.0</ele><time>2026-03-28T15:44:53Z</time></trkpt><trkpt lat="44.61833892162192" lon="10.072297028537188"><ele>700.0</ele><time>2026-03-28T15:44:54Z</time></trkpt><trkpt lat="44.61855415570762" lon="10.072337761850042"><ele>691.5</ele><time>2026-03-28T15:44:55Z</time></trkpt><trkpt lat="44.61879149713067" lon="10.072328734710956"><ele>683.0</ele><time>2026-03-28T15:44:56Z</time></trkpt><trkpt lat="44.61901832179484" lon="10.072327818995248"><ele>683.0</ele><time>2026-03-28T15:44:57Z</time></trkpt><trkpt lat="44.61924378596644" lon="10.072349828371406"><ele>683.0</ele><time>2026-03-28T15:44:58Z</time></trkpt><trkpt lat="44.619448364976336" lon="10.072365624513179"><ele>683.0</ele><time>2026-03-28T15:44:59Z</time></trkpt><trkpt lat="44.619634136913966" lon="10.072378174872538"><ele>681.5999999999999</ele><time>2026-03-28T15:45:00Z</time></trkpt><trkpt lat="44.6197590177898" lon="10.07238789936537"><ele>680.1999999999999</ele><time>2026-03-28T15:45:01Z</time></trkpt><trkpt lat="44.61984821475141" lon="10.07243355142534"><ele>678.8</ele><time>2026-03-28T15:45:02Z</time></trkpt><trkpt lat="44.619873409492016" lon="10.072588988321998"><ele>677.4</ele><time>2026-03-28T15:45:03Z</time></trkpt><trkpt lat="44.61983285376821" lon="10.072739324331272"><ele>676.0</ele><time>2026-03-28T15:45:04Z</time></trkpt><trkpt lat="44.619800137327324" lon="10.072983661270543"><ele>676.3333333333334</ele><time>2026-03-28T15:45:05Z</time></trkpt><trkpt lat="44.619794978423805" lon="10.073277867151912"><ele>676.6666666666666</ele><time>2026-03-28T15:45:06Z</time></trkpt><trkpt lat="44.619786359171975" lon="10.073536438634596"><ele>677.0</ele><time>2026-03-28T15:45:07Z</time></trkpt><trkpt lat="44.61982952634135" lon="10.073780645087842"><ele>677.0</ele><time>2026-03-28T15:45:08Z</time></trkpt><trkpt lat="44.61993378200015" lon="10.074009914480914"><ele>677.0</ele><time>2026-03-28T15:45:09Z</time></trkpt><trkpt lat="44.62009642834622" lon="10.074163368505362"><ele>677.0</ele><time>2026-03-28T15:45:10Z</time></trkpt><trkpt lat="44.62029960089173" lon="10.074248165915252"><ele>672.3333333333333</ele><time>2026-03-28T15:45:11Z</time></trkpt><trkpt lat="44.62050642227587" lon="10.074303557658912"><ele>667.6666666666666</ele><time>2026-03-28T15:45:12Z</time></trkpt><trkpt lat="44.620683286140924" lon="10.074383615543043"><ele>663.0</ele><time>2026-03-28T15:45:13Z</time></trkpt><trkpt lat="44.62079045932164" lon="10.074571651312608"><ele>663.0</ele><time>2026-03-28T15:45:14Z</time></trkpt><trkpt lat="44.620886234029236" lon="10.074814987528466"><ele>663.0</ele><time>2026-03-28T15:45:15Z</time></trkpt><trkpt lat="44.6209956656903" lon="10.075066260650615"><ele>663.0</ele><time>2026-03-28T15:45:16Z</time></trkpt><trkpt lat="44.621119914398406" lon="10.075285992630123"><ele>660.0</ele><time>2026-03-28T15:45:17Z</time></trkpt><trkpt lat="44.6212813811283" lon="10.075507988287512"><ele>657.0</ele><time>2026-03-28T15:45:18Z</time></trkpt><trkpt lat="44.621455981493526" lon="10.07574093084507"><ele>658.0</ele><time>2026-03-28T15:45:19Z</time></trkpt><trkpt lat="44.62162789831808" lon="10.075973520073422"><ele>659.0</ele><time>2026-03-28T15:45:20Z</time></trkpt><trkpt lat="44.621777648142356" lon="10.076189409326718"><ele>659.0</ele><time>2026-03-28T15:45:21Z</time></trkpt><trkpt lat="44.62192000904661" lon="10.076383691947292"><ele>659.0</ele><time>2026-03-28T15:45:22Z</time></trkpt><trkpt lat="44.622033450907004" lon="10.076537463597242"><ele>659.0</ele><time>2026-03-28T15:45:23Z</time></trkpt><trkpt lat="44.62211938763083" lon="10.076623126792946"><ele>658.5</ele><time>2026-03-28T15:45:24Z</time></trkpt><trkpt lat="44.622212587367805" lon="10.076630472295124"><ele>658.0</ele><time>2026-03-28T15:45:25Z</time></trkpt><trkpt lat="44.622337385837135" lon="10.076534415439232"><ele>657.5</ele><time>2026-03-28T15:45:26Z</time></trkpt><trkpt lat="44.622443688278885" lon="10.076337344175665"><ele>657.0</ele><time>2026-03-28T15:45:26.999Z</time></trkpt><trkpt lat="44.62256211052115" lon="10.076100663484622"><ele>657.0</ele><time>2026-03-28T15:45:27.999Z</time></trkpt><trkpt lat="44.62273755541287" lon="10.076033150752862"><ele>657.0</ele><time>2026-03-28T15:45:28.999Z</time></trkpt><trkpt lat="44.622926771342776" lon="10.076059613860037"><ele>657.0</ele><time>2026-03-28T15:45:29.999Z</time></trkpt><trkpt lat="44.62312310700211" lon="10.076131171563002"><ele>655.6666666666666</ele><time>2026-03-28T15:45:30.999Z</time></trkpt><trkpt lat="44.62330164591685" lon="10.076247937250102"><ele>654.3333333333333</ele><time>2026-03-28T15:45:31.999Z</time></trkpt><trkpt lat="44.62346320145651" lon="10.076404246634905"><ele>653.0</ele><time>2026-03-28T15:45:32.999Z</time></trkpt><trkpt lat="44.6235890013575" lon="10.076574681671733"><ele>652.0</ele><time>2026-03-28T15:45:33.999Z</time></trkpt><trkpt lat="44.62364019734278" lon="10.076748642115623"><ele>651.0</ele><time>2026-03-28T15:45:34.999Z</time></trkpt><trkpt lat="44.62362336262074" lon="10.076937667332386"><ele>650.0</ele><time>2026-03-28T15:45:35.999Z</time></trkpt><trkpt lat="44.623608068463774" lon="10.077186713330917"><ele>649.0</ele><time>2026-03-28T15:45:36.999Z</time></trkpt><trkpt lat="44.62361423788554" lon="10.077410695188048"><ele>649.3333333333334</ele><time>2026-03-28T15:45:37.999Z</time></trkpt><trkpt lat="44.62363711969676" lon="10.077610462206911"><ele>649.6666666666666</ele><time>2026-03-28T15:45:38.999Z</time></trkpt><trkpt lat="44.62373419099977" lon="10.077775049409235"><ele>650.0</ele><time>2026-03-28T15:45:39.999Z</time></trkpt><trkpt lat="44.62390761234698" lon="10.07791254685114"><ele>650.0</ele><time>2026-03-28T15:45:40.999Z</time></trkpt><trkpt lat="44.62403448917982" lon="10.078055975752745"><ele>650.0</ele><time>2026-03-28T15:45:41.999Z</time></trkpt><trkpt lat="44.62404578095381" lon="10.078288593792491"><ele>650.0</ele><time>2026-03-28T15:45:42.999Z</time></trkpt><trkpt lat="44.624076537922825" lon="10.078579465402019"><ele>649.3333333333333</ele><time>2026-03-28T15:45:43.999Z</time></trkpt><trkpt lat="44.62408443507424" lon="10.078791693283453"><ele>648.6666666666666</ele><time>2026-03-28T15:45:44.999Z</time></trkpt><trkpt lat="44.624173539608805" lon="10.078945203403231"><ele>648.0</ele><time>2026-03-28T15:45:45.999Z</time></trkpt><trkpt lat="44.624346411954484" lon="10.079087433388455"><ele>644.3333333333334</ele><time>2026-03-28T15:45:46.999Z</time></trkpt><trkpt lat="44.6245128164242" lon="10.079182315094169"><ele>640.6666666666667</ele><time>2026-03-28T15:45:47.999Z</time></trkpt><trkpt lat="44.62464285858193" lon="10.079209475516892"><ele>637.0</ele><time>2026-03-28T15:45:49Z</time></trkpt><trkpt lat="44.62480858883247" lon="10.079147367691244"><ele>640.0</ele><time>2026-03-28T15:45:50Z</time></trkpt><trkpt lat="44.62499459053008" lon="10.078984337623995"><ele>643.0</ele><time>2026-03-28T15:45:51Z</time></trkpt><trkpt lat="44.62520992915067" lon="10.078792644152676"><ele>638.0</ele><time>2026-03-28T15:45:52Z</time></trkpt><trkpt lat="44.62543886935653" lon="10.078621681982545"><ele>633.0</ele><time>2026-03-28T15:45:53Z</time></trkpt><trkpt lat="44.62564300514965" lon="10.078472344139573"><ele>633.0</ele><time>2026-03-28T15:45:54Z</time></trkpt><trkpt lat="44.62582836675683" lon="10.078407841126092"><ele>633.0</ele><time>2026-03-28T15:45:55Z</time></trkpt><trkpt lat="44.62600855749586" lon="10.078382949240618"><ele>633.0</ele><time>2026-03-28T15:45:56Z</time></trkpt><trkpt lat="44.6261998514819" lon="10.078424281196503"><ele>634.0</ele><time>2026-03-28T15:45:57Z</time></trkpt><trkpt lat="44.626383331999634" lon="10.0785685660374"><ele>635.0</ele><time>2026-03-28T15:45:58Z</time></trkpt><trkpt lat="44.62654355143453" lon="10.078757031105043"><ele>636.0</ele><time>2026-03-28T15:45:59Z</time></trkpt><trkpt lat="44.62670720993791" lon="10.0789589354009"><ele>634.5</ele><time>2026-03-28T15:46:00Z</time></trkpt><trkpt lat="44.6268905420035" lon="10.079154662123198"><ele>633.0</ele><time>2026-03-28T15:46:01Z</time></trkpt><trkpt lat="44.62707078475611" lon="10.07934473161338"><ele>633.0</ele><time>2026-03-28T15:46:02Z</time></trkpt><trkpt lat="44.62722545989633" lon="10.079506196557702"><ele>633.0</ele><time>2026-03-28T15:46:03Z</time></trkpt><trkpt lat="44.62736349768588" lon="10.079625407610195"><ele>633.0</ele><time>2026-03-28T15:46:04Z</time></trkpt><trkpt lat="44.6275124565655" lon="10.079666470976004"><ele>633.0</ele><time>2026-03-28T15:46:05Z</time></trkpt><trkpt lat="44.62769666124283" lon="10.07964261725493"><ele>633.0</ele><time>2026-03-28T15:46:06Z</time></trkpt><trkpt lat="44.62786388121603" lon="10.079638251812145"><ele>633.0</ele><time>2026-03-28T15:46:07Z</time></trkpt><trkpt lat="44.62800849401533" lon="10.079663672562308"><ele>631.75</ele><time>2026-03-28T15:46:08Z</time></trkpt><trkpt lat="44.62811747775774" lon="10.079747831532181"><ele>630.5</ele><time>2026-03-28T15:46:09Z</time></trkpt><trkpt lat="44.62818708690178" lon="10.079883326767908"><ele>629.25</ele><time>2026-03-28T15:46:10Z</time></trkpt><trkpt lat="44.628274477822266" lon="10.08003498175326"><ele>628.0</ele><time>2026-03-28T15:46:11Z</time></trkpt><trkpt lat="44.62835794121351" lon="10.08013708062021"><ele>625.75</ele><time>2026-03-28T15:46:12Z</time></trkpt><trkpt lat="44.628457617725715" lon="10.080190916571588"><ele>623.5</ele><time>2026-03-28T15:46:13Z</time></trkpt><trkpt lat="44.62859409534727" lon="10.080162785616793"><ele>621.25</ele><time>2026-03-28T15:46:14Z</time></trkpt><trkpt lat="44.628699685964804" lon="10.080037351699769"><ele>619.0</ele><time>2026-03-28T15:46:15Z</time></trkpt><trkpt lat="44.628757353533445" lon="10.079860227514068"><ele>617.0</ele><time>2026-03-28T15:46:16Z</time></trkpt><trkpt lat="44.62876823134738" lon="10.079624162536174"><ele>615.0</ele><time>2026-03-28T15:46:17Z</time></trkpt><trkpt lat="44.62876611745615" lon="10.079389798893935"><ele>613.0</ele><time>2026-03-28T15:46:18Z</time></trkpt><trkpt lat="44.62883237599757" lon="10.079227343076372"><ele>613.0</ele><time>2026-03-28T15:46:19Z</time></trkpt><trkpt lat="44.628952612247886" lon="10.079119622007182"><ele>613.0</ele><time>2026-03-28T15:46:20Z</time></trkpt><trkpt lat="44.62910358491123" lon="10.079116301713507"><ele>613.0</ele><time>2026-03-28T15:46:21Z</time></trkpt><trkpt lat="44.62928183384908" lon="10.079130622595098"><ele>613.0</ele><time>2026-03-28T15:46:22Z</time></trkpt><trkpt lat="44.62945638790181" lon="10.07914537379508"><ele>613.0</ele><time>2026-03-28T15:46:23Z</time></trkpt><trkpt lat="44.629621770942734" lon="10.079162905084457"><ele>613.0</ele><time>2026-03-28T15:46:24Z</time></trkpt><trkpt lat="44.62977541687039" lon="10.079155033204836"><ele>614.3333333333334</ele><time>2026-03-28T15:46:25Z</time></trkpt><trkpt lat="44.629926945089665" lon="10.079100375708482"><ele>615.6666666666666</ele><time>2026-03-28T15:46:26Z</time></trkpt><trkpt lat="44.63007608484832" lon="10.078964933298359"><ele>617.0</ele><time>2026-03-28T15:46:27Z</time></trkpt><trkpt lat="44.630188981091926" lon="10.078759093585047"><ele>617.0</ele><time>2026-03-28T15:46:28Z</time></trkpt><trkpt lat="44.63027155424013" lon="10.07854112349101"><ele>617.0</ele><time>2026-03-28T15:46:29Z</time></trkpt><trkpt lat="44.63038926790079" lon="10.078426155315073"><ele>617.0</ele><time>2026-03-28T15:46:30Z</time></trkpt><trkpt lat="44.63051396129175" lon="10.078330345961854"><ele>616.0</ele><time>2026-03-28T15:46:31Z</time></trkpt><trkpt lat="44.63064666836215" lon="10.078226915504537"><ele>615.0</ele><time>2026-03-28T15:46:32Z</time></trkpt><trkpt lat="44.630784076003735" lon="10.07821873513911"><ele>614.0</ele><time>2026-03-28T15:46:33Z</time></trkpt><trkpt lat="44.63093527583822" lon="10.07826868985214"><ele>613.0</ele><time>2026-03-28T15:46:34Z</time></trkpt><trkpt lat="44.63106139375168" lon="10.078429654987447"><ele>609.0</ele><time>2026-03-28T15:46:35Z</time></trkpt><trkpt lat="44.63118911188313" lon="10.07861057228344"><ele>605.0</ele><time>2026-03-28T15:46:36Z</time></trkpt><trkpt lat="44.63130432442768" lon="10.07878685721413"><ele>601.0</ele><time>2026-03-28T15:46:37Z</time></trkpt><trkpt lat="44.63140895644934" lon="10.078947144244946"><ele>601.0</ele><time>2026-03-28T15:46:38Z</time></trkpt><trkpt lat="44.631519461813376" lon="10.079073593335107"><ele>601.0</ele><time>2026-03-28T15:46:39Z</time></trkpt><trkpt lat="44.6316537980697" lon="10.07915529164816"><ele>601.0</ele><time>2026-03-28T15:46:40Z</time></trkpt><trkpt lat="44.631826495871586" lon="10.07918613604871"><ele>598.6666666666667</ele><time>2026-03-28T15:46:41Z</time></trkpt><trkpt lat="44.63200922773362" lon="10.079157556795932"><ele>596.3333333333334</ele><time>2026-03-28T15:46:42Z</time></trkpt><trkpt lat="44.63219336556973" lon="10.079114818329582"><ele>594.0</ele><time>2026-03-28T15:46:43Z</time></trkpt><trkpt lat="44.63238956836091" lon="10.07907514711963"><ele>594.0</ele><time>2026-03-28T15:46:44Z</time></trkpt><trkpt lat="44.632595743719286" lon="10.079045329868093"><ele>594.0</ele><time>2026-03-28T15:46:45Z</time></trkpt><trkpt lat="44.632809513716516" lon="10.079012502606826"><ele>594.0</ele><time>2026-03-28T15:46:46Z</time></trkpt><trkpt lat="44.63300971412896" lon="10.078982243863631"><ele>592.0</ele><time>2026-03-28T15:46:47Z</time></trkpt><trkpt lat="44.633188750790474" lon="10.078956926023984"><ele>590.0</ele><time>2026-03-28T15:46:48Z</time></trkpt><trkpt lat="44.63334724390172" lon="10.078939736749136"><ele>588.0</ele><time>2026-03-28T15:46:49Z</time></trkpt><trkpt lat="44.63348593651862" lon="10.078922216774574"><ele>588.0</ele><time>2026-03-28T15:46:50Z</time></trkpt><trkpt lat="44.63363377295437" lon="10.078901763094416"><ele>588.0</ele><time>2026-03-28T15:46:51Z</time></trkpt><trkpt lat="44.633784250247" lon="10.078885881885276"><ele>588.0</ele><time>2026-03-28T15:46:52Z</time></trkpt><trkpt lat="44.633941311863204" lon="10.078864047169885"><ele>587.3333333333334</ele><time>2026-03-28T15:46:53Z</time></trkpt><trkpt lat="44.63409392315105" lon="10.078835158282569"><ele>586.6666666666667</ele><time>2026-03-28T15:46:54Z</time></trkpt><trkpt lat="44.63425614534279" lon="10.07880481820986"><ele>586.0</ele><time>2026-03-28T15:46:55Z</time></trkpt><trkpt lat="44.634440679705534" lon="10.078776046599037"><ele>585.0</ele><time>2026-03-28T15:46:56Z</time></trkpt><trkpt lat="44.63462836924638" lon="10.07875501148926"><ele>584.0</ele><time>2026-03-28T15:46:57Z</time></trkpt><trkpt lat="44.63480964921398" lon="10.07873239342351"><ele>583.0</ele><time>2026-03-28T15:46:58Z</time></trkpt><trkpt lat="44.63499207265171" lon="10.078742020068987"><ele>583.0</ele><time>2026-03-28T15:46:59Z</time></trkpt><trkpt lat="44.635170851910786" lon="10.078820299237734"><ele>583.0</ele><time>2026-03-28T15:47:00Z</time></trkpt><trkpt lat="44.63534768676745" lon="10.078960009302888"><ele>583.0</ele><time>2026-03-28T15:47:01Z</time></trkpt><trkpt lat="44.63551948682688" lon="10.079137291796874"><ele>584.0</ele><time>2026-03-28T15:47:02Z</time></trkpt><trkpt lat="44.63568481111594" lon="10.079264602405992"><ele>585.0</ele><time>2026-03-28T15:47:03Z</time></trkpt><trkpt lat="44.63586893795912" lon="10.079360098098872"><ele>586.0</ele><time>2026-03-28T15:47:04Z</time></trkpt><trkpt lat="44.63607870954957" lon="10.079434737494818"><ele>584.0</ele><time>2026-03-28T15:47:05Z</time></trkpt><trkpt lat="44.63630863167581" lon="10.079480920434962"><ele>582.0</ele><time>2026-03-28T15:47:06Z</time></trkpt><trkpt lat="44.63651977306827" lon="10.079520140641225"><ele>580.0</ele><time>2026-03-28T15:47:07Z</time></trkpt><trkpt lat="44.63670359593205" lon="10.07955769996791"><ele>580.0</ele><time>2026-03-28T15:47:08Z</time></trkpt><trkpt lat="44.63687623035947" lon="10.079596923229149"><ele>580.0</ele><time>2026-03-28T15:47:09Z</time></trkpt><trkpt lat="44.63704807424406" lon="10.079615825612409"><ele>580.0</ele><time>2026-03-28T15:47:10Z</time></trkpt><trkpt lat="44.63724115130927" lon="10.07958678881076"><ele>580.0</ele><time>2026-03-28T15:47:11Z</time></trkpt><trkpt lat="44.63744121034189" lon="10.079521929094772"><ele>580.0</ele><time>2026-03-28T15:47:12Z</time></trkpt><trkpt lat="44.63765033861762" lon="10.079464126850645"><ele>580.0</ele><time>2026-03-28T15:47:13Z</time></trkpt><trkpt lat="44.63785818700559" lon="10.07940870272949"><ele>580.0</ele><time>2026-03-28T15:47:14Z</time></trkpt><trkpt lat="44.63806948721036" lon="10.079356027849443"><ele>580.0</ele><time>2026-03-28T15:47:15Z</time></trkpt><trkpt lat="44.63829223504113" lon="10.07930426895275"><ele>580.0</ele><time>2026-03-28T15:47:16Z</time></trkpt><trkpt lat="44.63853192907944" lon="10.079257465839145"><ele>580.5</ele><time>2026-03-28T15:47:17Z</time></trkpt><trkpt lat="44.63878647428389" lon="10.079204889951372"><ele>581.0</ele><time>2026-03-28T15:47:18Z</time></trkpt><trkpt lat="44.63905230900566" lon="10.079205750304013"><ele>581.0</ele><time>2026-03-28T15:47:19Z</time></trkpt><trkpt lat="44.63932690875024" lon="10.079193249549839"><ele>581.0</ele><time>2026-03-28T15:47:20Z</time></trkpt><trkpt lat="44.63958183306163" lon="10.079226943997101"><ele>579.5</ele><time>2026-03-28T15:47:21Z</time></trkpt><trkpt lat="44.63982480665639" lon="10.0792396429406"><ele>578.0</ele><time>2026-03-28T15:47:22Z</time></trkpt><trkpt lat="44.64006015630614" lon="10.07924270900582"><ele>578.0</ele><time>2026-03-28T15:47:22.999Z</time></trkpt><trkpt lat="44.640285912712116" lon="10.079218631094513"><ele>578.0</ele><time>2026-03-28T15:47:23.999Z</time></trkpt><trkpt lat="44.64046293189274" lon="10.0791111320152"><ele>578.0</ele><time>2026-03-28T15:47:24.999Z</time></trkpt><trkpt lat="44.64064175303214" lon="10.078891979247667"><ele>573.0</ele><time>2026-03-28T15:47:25.999Z</time></trkpt><trkpt lat="44.64085870969251" lon="10.078688294917043"><ele>568.0</ele><time>2026-03-28T15:47:26.999Z</time></trkpt><trkpt lat="44.64106924227613" lon="10.07849693236467"><ele>567.3333333333334</ele><time>2026-03-28T15:47:27.999Z</time></trkpt><trkpt lat="44.64125262577256" lon="10.078303849303078"><ele>566.6666666666666</ele><time>2026-03-28T15:47:28.999Z</time></trkpt><trkpt lat="44.64140533409215" lon="10.078170285903841"><ele>566.0</ele><time>2026-03-28T15:47:29.999Z</time></trkpt><trkpt lat="44.64152665395304" lon="10.07808037305441"><ele>564.0</ele><time>2026-03-28T15:47:30.999Z</time></trkpt><trkpt lat="44.64167386289445" lon="10.078062094359117"><ele>562.0</ele><time>2026-03-28T15:47:31.999Z</time></trkpt><trkpt lat="44.64183438923125" lon="10.078202268173346"><ele>560.0</ele><time>2026-03-28T15:47:32.999Z</time></trkpt><trkpt lat="44.6420449298212" lon="10.078293805516218"><ele>560.0</ele><time>2026-03-28T15:47:33.999Z</time></trkpt><trkpt lat="44.642275933242765" lon="10.078380922244072"><ele>560.0</ele><time>2026-03-28T15:47:34.999Z</time></trkpt><trkpt lat="44.6424863156534" lon="10.078413776703217"><ele>560.0</ele><time>2026-03-28T15:47:35.999Z</time></trkpt><trkpt lat="44.64268295619654" lon="10.07835291920208"><ele>560.0</ele><time>2026-03-28T15:47:36.999Z</time></trkpt><trkpt lat="44.642870953682376" lon="10.078204350229077"><ele>560.0</ele><time>2026-03-28T15:47:37.999Z</time></trkpt><trkpt lat="44.64303056269045" lon="10.077973862111632"><ele>555.6666666666666</ele><time>2026-03-28T15:47:38.999Z</time></trkpt><trkpt lat="44.64314960726402" lon="10.077709364187923"><ele>551.3333333333334</ele><time>2026-03-28T15:47:39.999Z</time></trkpt><trkpt lat="44.643238681140275" lon="10.077490764388646"><ele>547.0</ele><time>2026-03-28T15:47:40.999Z</time></trkpt><trkpt lat="44.643332372706006" lon="10.077364316560296"><ele>545.0</ele><time>2026-03-28T15:47:41.999Z</time></trkpt><trkpt lat="44.643411803245975" lon="10.077280701624444"><ele>543.0</ele><time>2026-03-28T15:47:42.999Z</time></trkpt><trkpt lat="44.64351136253585" lon="10.077242765417967"><ele>541.0</ele><time>2026-03-28T15:47:43.999Z</time></trkpt><trkpt lat="44.64367758261365" lon="10.077357048433676"><ele>539.0</ele><time>2026-03-28T15:47:44.999Z</time></trkpt><trkpt lat="44.643901225475666" lon="10.077444321031646"><ele>539.0</ele><time>2026-03-28T15:47:45.999Z</time></trkpt><trkpt lat="44.644136102850005" lon="10.077607990883314"><ele>539.0</ele><time>2026-03-28T15:47:46.999Z</time></trkpt><trkpt lat="44.644239606558365" lon="10.077839194051958"><ele>539.0</ele><time>2026-03-28T15:47:48.999Z</time></trkpt><trkpt lat="44.64424561285178" lon="10.078054237707688"><ele>539.0</ele><time>2026-03-28T15:47:49.999Z</time></trkpt><trkpt lat="44.64424375446349" lon="10.078333871906167"><ele>539.0</ele><time>2026-03-28T15:47:50.999Z</time></trkpt><trkpt lat="44.644242422540216" lon="10.078578440145128"><ele>539.25</ele><time>2026-03-28T15:47:51.999Z</time></trkpt><trkpt lat="44.64425239732136" lon="10.07879186647574"><ele>539.5</ele><time>2026-03-28T15:47:52.999Z</time></trkpt><trkpt lat="44.64426409681128" lon="10.078970700437658"><ele>539.75</ele><time>2026-03-28T15:47:53.999Z</time></trkpt><trkpt lat="44.644306179249206" lon="10.079134356153837"><ele>540.0</ele><time>2026-03-28T15:47:55Z</time></trkpt><trkpt lat="44.644402257417816" lon="10.079306447736913"><ele>533.0</ele><time>2026-03-28T15:47:56Z</time></trkpt><trkpt lat="44.64455402109266" lon="10.079454159987481"><ele>526.0</ele><time>2026-03-28T15:47:57Z</time></trkpt><trkpt lat="44.64476426792694" lon="10.079545765839079"><ele>519.0</ele><time>2026-03-28T15:47:58Z</time></trkpt><trkpt lat="44.64500255552819" lon="10.07962305862126"><ele>519.0</ele><time>2026-03-28T15:47:59Z</time></trkpt><trkpt lat="44.64523976577068" lon="10.079719900337466"><ele>519.0</ele><time>2026-03-28T15:48:00Z</time></trkpt><trkpt lat="44.645483616580044" lon="10.079815626520112"><ele>520.5</ele><time>2026-03-28T15:48:01Z</time></trkpt><trkpt lat="44.645723825807636" lon="10.079923770640502"><ele>522.0</ele><time>2026-03-28T15:48:02Z</time></trkpt><trkpt lat="44.64598581358756" lon="10.080116194382603"><ele>508.0</ele><time>2026-03-28T15:48:03Z</time></trkpt><trkpt lat="44.64624983088407" lon="10.08029941014584"><ele>494.0</ele><time>2026-03-28T15:48:04Z</time></trkpt><trkpt lat="44.64649726539804" lon="10.080453868418829"><ele>494.0</ele><time>2026-03-28T15:48:05Z</time></trkpt><trkpt lat="44.6466982684249" lon="10.080592373905006"><ele>494.0</ele><time>2026-03-28T15:48:06Z</time></trkpt><trkpt lat="44.64682204272596" lon="10.080738936357747"><ele>494.0</ele><time>2026-03-28T15:48:07Z</time></trkpt><trkpt lat="44.64693125208341" lon="10.0809028296337"><ele>491.3333333333333</ele><time>2026-03-28T15:48:08Z</time></trkpt><trkpt lat="44.64706151337295" lon="10.081125929299276"><ele>488.66666666666663</ele><time>2026-03-28T15:48:09Z</time></trkpt><trkpt lat="44.64718412953816" lon="10.08133578002148"><ele>486.0</ele><time>2026-03-28T15:48:10Z</time></trkpt><trkpt lat="44.64727978342541" lon="10.081528235215893"><ele>490.75</ele><time>2026-03-28T15:48:11Z</time></trkpt><trkpt lat="44.64734986169883" lon="10.08171398817297"><ele>495.5</ele><time>2026-03-28T15:48:12Z</time></trkpt><trkpt lat="44.64743585611678" lon="10.08187989902069"><ele>500.25</ele><time>2026-03-28T15:48:13Z</time></trkpt><trkpt lat="44.647500314476495" lon="10.0820313777424"><ele>505.0</ele><time>2026-03-28T15:48:14Z</time></trkpt><trkpt lat="44.64758982576994" lon="10.082155105656726"><ele>505.0</ele><time>2026-03-28T15:48:15Z</time></trkpt><trkpt lat="44.64770263429502" lon="10.082249387388513"><ele>505.0</ele><time>2026-03-28T15:48:16Z</time></trkpt><trkpt lat="44.64783061949306" lon="10.082265958162033"><ele>505.0</ele><time>2026-03-28T15:48:17Z</time></trkpt><trkpt lat="44.64795912253818" lon="10.082191568509668"><ele>505.0</ele><time>2026-03-28T15:48:18Z</time></trkpt><trkpt lat="44.64806502854208" lon="10.082027692503143"><ele>499.5</ele><time>2026-03-28T15:48:19Z</time></trkpt><trkpt lat="44.64819122167528" lon="10.081792549677562"><ele>494.0</ele><time>2026-03-28T15:48:20Z</time></trkpt><trkpt lat="44.64837742886941" lon="10.081532018491535"><ele>489.0</ele><time>2026-03-28T15:48:21Z</time></trkpt><trkpt lat="44.648587366607444" lon="10.081270239648287"><ele>484.0</ele><time>2026-03-28T15:48:22Z</time></trkpt><trkpt lat="44.64875864161178" lon="10.081046374174836"><ele>484.0</ele><time>2026-03-28T15:48:23Z</time></trkpt><trkpt lat="44.64890984978498" lon="10.080903073591132"><ele>484.0</ele><time>2026-03-28T15:48:24Z</time></trkpt><trkpt lat="44.64904791494112" lon="10.080792156946659"><ele>484.0</ele><time>2026-03-28T15:48:25Z</time></trkpt><trkpt lat="44.64916687882392" lon="10.080776457628401"><ele>484.0</ele><time>2026-03-28T15:48:26Z</time></trkpt><trkpt lat="44.64929940314359" lon="10.080848945280936"><ele>484.0</ele><time>2026-03-28T15:48:27Z</time></trkpt><trkpt lat="44.64952725489324" lon="10.08095561191464"><ele>484.0</ele><time>2026-03-28T15:48:28Z</time></trkpt><trkpt lat="44.64978148995812" lon="10.081013664801334"><ele>478.5</ele><time>2026-03-28T15:48:29Z</time></trkpt><trkpt lat="44.650040991519965" lon="10.081083049815465"><ele>473.0</ele><time>2026-03-28T15:48:30Z</time></trkpt><trkpt lat="44.650229753563735" lon="10.08126445013468"><ele>466.0</ele><time>2026-03-28T15:48:31Z</time></trkpt><trkpt lat="44.65044122998505" lon="10.081458471839944"><ele>459.0</ele><time>2026-03-28T15:48:32Z</time></trkpt><trkpt lat="44.65062790669508" lon="10.08158975941353"><ele>460.5</ele><time>2026-03-28T15:48:33Z</time></trkpt><trkpt lat="44.65084012544467" lon="10.081667882293136"><ele>462.0</ele><time>2026-03-28T15:48:34Z</time></trkpt><trkpt lat="44.65112505254544" lon="10.08167240156409"><ele>462.0</ele><time>2026-03-28T15:48:35Z</time></trkpt><trkpt lat="44.6514161523737" lon="10.081692091722388"><ele>462.0</ele><time>2026-03-28T15:48:36Z</time></trkpt><trkpt lat="44.65166569914857" lon="10.081728190676808"><ele>462.0</ele><time>2026-03-28T15:48:37Z</time></trkpt><trkpt lat="44.65187737706461" lon="10.081827815077466"><ele>462.0</ele><time>2026-03-28T15:48:38Z</time></trkpt><trkpt lat="44.652070141793914" lon="10.0820012633353"><ele>460.33333333333337</ele><time>2026-03-28T15:48:39Z</time></trkpt><trkpt lat="44.652190295000395" lon="10.082208429762016"><ele>458.6666666666667</ele><time>2026-03-28T15:48:40Z</time></trkpt><trkpt lat="44.65227334059651" lon="10.082429865383249"><ele>457.0</ele><time>2026-03-28T15:48:41Z</time></trkpt><trkpt lat="44.652356635517364" lon="10.08272284424306"><ele>457.0</ele><time>2026-03-28T15:48:42Z</time></trkpt><trkpt lat="44.65244775119543" lon="10.082833997368358"><ele>457.0</ele><time>2026-03-28T15:48:43Z</time></trkpt><trkpt lat="44.65256862284529" lon="10.082845917373325"><ele>457.0</ele><time>2026-03-28T15:48:44Z</time></trkpt><trkpt lat="44.652786967883344" lon="10.08289566353966"><ele>453.33333333333337</ele><time>2026-03-28T15:48:45Z</time></trkpt><trkpt lat="44.65297817427132" lon="10.08290608501402"><ele>449.66666666666663</ele><time>2026-03-28T15:48:46Z</time></trkpt><trkpt lat="44.65321446084684" lon="10.08287334296099"><ele>446.0</ele><time>2026-03-28T15:48:47Z</time></trkpt><trkpt lat="44.6534006417864" lon="10.082900254170847"><ele>446.0</ele><time>2026-03-28T15:48:48Z</time></trkpt><trkpt lat="44.65357272200152" lon="10.083042392464476"><ele>446.0</ele><time>2026-03-28T15:48:49Z</time></trkpt><trkpt lat="44.653757815906054" lon="10.083213445052564"><ele>446.0</ele><time>2026-03-28T15:48:50Z</time></trkpt><trkpt lat="44.65398396978091" lon="10.083354091622587"><ele>447.0</ele><time>2026-03-28T15:48:51Z</time></trkpt><trkpt lat="44.65426224457395" lon="10.083462824410399"><ele>448.0</ele><time>2026-03-28T15:48:52Z</time></trkpt><trkpt lat="44.65447336005228" lon="10.083566324316992"><ele>448.6666666666667</ele><time>2026-03-28T15:48:53Z</time></trkpt><trkpt lat="44.6545918305905" lon="10.083721959217712"><ele>449.33333333333337</ele><time>2026-03-28T15:48:54Z</time></trkpt><trkpt lat="44.65476201535385" lon="10.083941935055615"><ele>450.0</ele><time>2026-03-28T15:48:55Z</time></trkpt><trkpt lat="44.65487511155565" lon="10.08410359581741"><ele>450.0</ele><time>2026-03-28T15:48:56Z</time></trkpt><trkpt lat="44.65504804891873" lon="10.084145722361608"><ele>450.0</ele><time>2026-03-28T15:48:57Z</time></trkpt><trkpt lat="44.655252506919695" lon="10.084059279968974"><ele>450.0</ele><time>2026-03-28T15:48:58Z</time></trkpt><trkpt lat="44.65542364170983" lon="10.084055092140513"><ele>446.4</ele><time>2026-03-28T15:48:59Z</time></trkpt><trkpt lat="44.65556661654672" lon="10.084063885063047"><ele>442.8</ele><time>2026-03-28T15:49:00Z</time></trkpt><trkpt lat="44.6556326056421" lon="10.084120871298667"><ele>439.20000000000005</ele><time>2026-03-28T15:49:01Z</time></trkpt><trkpt lat="44.65568994486246" lon="10.084239209985402"><ele>435.6</ele><time>2026-03-28T15:49:02Z</time></trkpt><trkpt lat="44.655726135796534" lon="10.084397913822176"><ele>432.0</ele><time>2026-03-28T15:49:03Z</time></trkpt><trkpt lat="44.655701868971676" lon="10.084620090926528"><ele>433.0</ele><time>2026-03-28T15:49:04Z</time></trkpt><trkpt lat="44.655708906969004" lon="10.084939985235362"><ele>434.0</ele><time>2026-03-28T15:49:05Z</time></trkpt><trkpt lat="44.65571473009471" lon="10.085235884189217"><ele>435.0</ele><time>2026-03-28T15:49:06Z</time></trkpt><trkpt lat="44.655730506782824" lon="10.085465041045856"><ele>435.0</ele><time>2026-03-28T15:49:07Z</time></trkpt><trkpt lat="44.655727523999595" lon="10.085654811739962"><ele>435.0</ele><time>2026-03-28T15:49:08Z</time></trkpt><trkpt lat="44.655741404723244" lon="10.085802356018144"><ele>435.0</ele><time>2026-03-28T15:49:09Z</time></trkpt><trkpt lat="44.65582069315289" lon="10.085915591881697"><ele>435.0</ele><time>2026-03-28T15:49:10Z</time></trkpt><trkpt lat="44.655959014332396" lon="10.085971792555114"><ele>429.66666666666663</ele><time>2026-03-28T15:49:11Z</time></trkpt><trkpt lat="44.65614451401271" lon="10.085969563660408"><ele>424.3333333333333</ele><time>2026-03-28T15:49:12Z</time></trkpt><trkpt lat="44.65633682872983" lon="10.085968911931516"><ele>419.0</ele><time>2026-03-28T15:49:13Z</time></trkpt><trkpt lat="44.65649334425931" lon="10.085985683721399"><ele>419.0</ele><time>2026-03-28T15:49:14Z</time></trkpt><trkpt lat="44.656626936874865" lon="10.08603706614502"><ele>419.0</ele><time>2026-03-28T15:49:15Z</time></trkpt><trkpt lat="44.65669592492909" lon="10.086155180037151"><ele>419.0</ele><time>2026-03-28T15:49:16Z</time></trkpt><trkpt lat="44.656701789619724" lon="10.086311327415663"><ele>419.0</ele><time>2026-03-28T15:49:17Z</time></trkpt><trkpt lat="44.65675268561088" lon="10.086549089298606"><ele>420.25</ele><time>2026-03-28T15:49:18Z</time></trkpt><trkpt lat="44.65681453227668" lon="10.086771352190262"><ele>421.5</ele><time>2026-03-28T15:49:19Z</time></trkpt><trkpt lat="44.65684632410468" lon="10.08696701259841"><ele>422.75</ele><time>2026-03-28T15:49:20Z</time></trkpt><trkpt lat="44.65688009189062" lon="10.087140912624008"><ele>424.0</ele><time>2026-03-28T15:49:20.999Z</time></trkpt><trkpt lat="44.65693074894851" lon="10.087288025525382"><ele>417.0</ele><time>2026-03-28T15:49:21.999Z</time></trkpt><trkpt lat="44.65703350823678" lon="10.08738233641198"><ele>410.0</ele><time>2026-03-28T15:49:22.999Z</time></trkpt><trkpt lat="44.65719789765204" lon="10.087413730660616"><ele>403.0</ele><time>2026-03-28T15:49:23.999Z</time></trkpt><trkpt lat="44.65736622472699" lon="10.087405834267786"><ele>403.0</ele><time>2026-03-28T15:49:24.999Z</time></trkpt><trkpt lat="44.6575039697338" lon="10.087425022196722"><ele>403.0</ele><time>2026-03-28T15:49:25.999Z</time></trkpt><trkpt lat="44.65760717145041" lon="10.08750893545656"><ele>403.0</ele><time>2026-03-28T15:49:26.999Z</time></trkpt><trkpt lat="44.657638125240595" lon="10.087680453733164"><ele>403.0</ele><time>2026-03-28T15:49:27.999Z</time></trkpt><trkpt lat="44.65761614527064" lon="10.087836887846226"><ele>405.0</ele><time>2026-03-28T15:49:28.999Z</time></trkpt><trkpt lat="44.65755116457062" lon="10.0879975911644"><ele>407.0</ele><time>2026-03-28T15:49:29.999Z</time></trkpt><trkpt lat="44.65749390611965" lon="10.088203808439644"><ele>409.0</ele><time>2026-03-28T15:49:30.999Z</time></trkpt><trkpt lat="44.6574508780032" lon="10.08837094986712"><ele>411.0</ele><time>2026-03-28T15:49:31.999Z</time></trkpt><trkpt lat="44.657420311006064" lon="10.08849150408845"><ele>411.0</ele><time>2026-03-28T15:49:32.999Z</time></trkpt><trkpt lat="44.65745372878211" lon="10.088600269906252"><ele>411.0</ele><time>2026-03-28T15:49:33.999Z</time></trkpt><trkpt lat="44.657535679965385" lon="10.088671915423504"><ele>411.0</ele><time>2026-03-28T15:49:34.999Z</time></trkpt><trkpt lat="44.657637510733686" lon="10.088670926066374"><ele>411.0</ele><time>2026-03-28T15:49:35.999Z</time></trkpt><trkpt lat="44.65772788251565" lon="10.088561928824978"><ele>411.0</ele><time>2026-03-28T15:49:36.999Z</time></trkpt><trkpt lat="44.65777704465322" lon="10.08837464552372"><ele>404.33333333333337</ele><time>2026-03-28T15:49:37.999Z</time></trkpt><trkpt lat="44.657788378734764" lon="10.088107986298775"><ele>397.6666666666667</ele><time>2026-03-28T15:49:38.999Z</time></trkpt><trkpt lat="44.65785169441016" lon="10.087832594339657"><ele>391.0</ele><time>2026-03-28T15:49:39.999Z</time></trkpt><trkpt lat="44.65790239818298" lon="10.08762263705504"><ele>391.00000000000006</ele><time>2026-03-28T15:49:40.999Z</time></trkpt><trkpt lat="44.65794494417861" lon="10.08749169189411"><ele>391.0</ele><time>2026-03-28T15:49:41.999Z</time></trkpt><trkpt lat="44.657966588164506" lon="10.087382628043637"><ele>391.0</ele><time>2026-03-28T15:49:42.999Z</time></trkpt><trkpt lat="44.658029403163106" lon="10.087282404689036"><ele>391.0</ele><time>2026-03-28T15:49:44.999Z</time></trkpt><trkpt lat="44.65809406467123" lon="10.087328010656078"><ele>391.00000000000006</ele><time>2026-03-28T15:49:45.999Z</time></trkpt><trkpt lat="44.65813503370834" lon="10.087436443502487"><ele>391.0</ele><time>2026-03-28T15:49:46.999Z</time></trkpt><trkpt lat="44.658098106519574" lon="10.087607645128319"><ele>391.0</ele><time>2026-03-28T15:49:47.999Z</time></trkpt><trkpt lat="44.65808469152211" lon="10.087875139693631"><ele>391.0</ele><time>2026-03-28T15:49:48.999Z</time></trkpt><trkpt lat="44.65805721244302" lon="10.088185203279865"><ele>391.0</ele><time>2026-03-28T15:49:49.999Z</time></trkpt><trkpt lat="44.65805689313248" lon="10.088448057676247"><ele>389.6666666666667</ele><time>2026-03-28T15:49:50.999Z</time></trkpt><trkpt lat="44.6580963711136" lon="10.088751722981142"><ele>388.33333333333337</ele><time>2026-03-28T15:49:51.999Z</time></trkpt><trkpt lat="44.65819062507641" lon="10.089022484593665"><ele>387.0</ele><time>2026-03-28T15:49:52.999Z</time></trkpt><trkpt lat="44.65825457392927" lon="10.08921897846008"><ele>386.75</ele><time>2026-03-28T15:49:53.999Z</time></trkpt><trkpt lat="44.65829923218227" lon="10.089303691219689"><ele>386.5</ele><time>2026-03-28T15:49:54.999Z</time></trkpt><trkpt lat="44.65834851494697" lon="10.089649784324253"><ele>386.25</ele><time>2026-03-28T15:49:55.999Z</time></trkpt><trkpt lat="44.65837842174222" lon="10.089807003513698"><ele>386.0</ele><time>2026-03-28T15:49:56.999Z</time></trkpt><trkpt lat="44.658404513221825" lon="10.089925500166776"><ele>384.8</ele><time>2026-03-28T15:49:57.999Z</time></trkpt><trkpt lat="44.65845894648153" lon="10.089993586771337"><ele>383.6</ele><time>2026-03-28T15:49:58.999Z</time></trkpt><trkpt lat="44.65853852634144" lon="10.090009820532353"><ele>382.4</ele><time>2026-03-28T15:49:59.999Z</time></trkpt><trkpt lat="44.6586328692502" lon="10.08996323741897"><ele>381.2</ele><time>2026-03-28T15:50:01Z</time></trkpt><trkpt lat="44.658702802934584" lon="10.08984151135889"><ele>380.0</ele><time>2026-03-28T15:50:02Z</time></trkpt><trkpt lat="44.65871772022052" lon="10.089685195699637"><ele>381.5</ele><time>2026-03-28T15:50:03Z</time></trkpt><trkpt lat="44.65868350393745" lon="10.08953430804338"><ele>383.0</ele><time>2026-03-28T15:50:04Z</time></trkpt><trkpt lat="44.65860836102597" lon="10.089364644781728"><ele>384.5</ele><time>2026-03-28T15:50:05Z</time></trkpt><trkpt lat="44.6585700132301" lon="10.089195849789458"><ele>386.0</ele><time>2026-03-28T15:50:06Z</time></trkpt><trkpt lat="44.658558060602914" lon="10.08900149898975"><ele>386.25</ele><time>2026-03-28T15:50:07Z</time></trkpt><trkpt lat="44.65857926435444" lon="10.088764817365202"><ele>386.5</ele><time>2026-03-28T15:50:08Z</time></trkpt><trkpt lat="44.658622361131584" lon="10.088584819405803"><ele>386.75</ele><time>2026-03-28T15:50:09Z</time></trkpt><trkpt lat="44.65866823592518" lon="10.08842186551971"><ele>387.0</ele><time>2026-03-28T15:50:10Z</time></trkpt><trkpt lat="44.65873320973502" lon="10.088239140954467"><ele>382.75</ele><time>2026-03-28T15:50:11Z</time></trkpt><trkpt lat="44.65879917943675" lon="10.088084374413594"><ele>378.5</ele><time>2026-03-28T15:50:12Z</time></trkpt><trkpt lat="44.658870393793656" lon="10.08794807931833"><ele>374.25</ele><time>2026-03-28T15:50:13Z</time></trkpt><trkpt lat="44.65894482377434" lon="10.08784454307773"><ele>370.0</ele><time>2026-03-28T15:50:14Z</time></trkpt><trkpt lat="44.65905121125369" lon="10.087715799858367"><ele>370.0</ele><time>2026-03-28T15:50:15Z</time></trkpt><trkpt lat="44.659201215653354" lon="10.08756093863043"><ele>370.0</ele><time>2026-03-28T15:50:16Z</time></trkpt><trkpt lat="44.65939726312681" lon="10.087362800235429"><ele>370.0</ele><time>2026-03-28T15:50:17Z</time></trkpt><trkpt lat="44.65954313232165" lon="10.08719117360889"><ele>365.5</ele><time>2026-03-28T15:50:18Z</time></trkpt><trkpt lat="44.65968412168409" lon="10.087070917947875"><ele>361.0</ele><time>2026-03-28T15:50:19Z</time></trkpt><trkpt lat="44.659793696967874" lon="10.086940083547038"><ele>356.5</ele><time>2026-03-28T15:50:20Z</time></trkpt><trkpt lat="44.65987223794461" lon="10.086846051156746"><ele>352.0</ele><time>2026-03-28T15:50:21Z</time></trkpt><trkpt lat="44.659925137491804" lon="10.086794777109132"><ele>352.0</ele><time>2026-03-28T15:50:22Z</time></trkpt><trkpt lat="44.66003295883198" lon="10.086879696843921"><ele>352.0</ele><time>2026-03-28T15:50:24Z</time></trkpt><trkpt lat="44.66003236388251" lon="10.08701588185444"><ele>352.0</ele><time>2026-03-28T15:50:25Z</time></trkpt><trkpt lat="44.65993898813952" lon="10.08712953156553"><ele>352.0</ele><time>2026-03-28T15:50:26Z</time></trkpt><trkpt lat="44.659837161024164" lon="10.087340885884123"><ele>351.66666666666663</ele><time>2026-03-28T15:50:27Z</time></trkpt><trkpt lat="44.659723193676" lon="10.087598176911174"><ele>351.3333333333333</ele><time>2026-03-28T15:50:28Z</time></trkpt><trkpt lat="44.659624547039726" lon="10.087848445199302"><ele>351.0</ele><time>2026-03-28T15:50:29Z</time></trkpt><trkpt lat="44.65954015580993" lon="10.08808989716819"><ele>349.3333333333333</ele><time>2026-03-28T15:50:30Z</time></trkpt><trkpt lat="44.65950233255784" lon="10.088345211422144"><ele>347.66666666666663</ele><time>2026-03-28T15:50:31Z</time></trkpt><trkpt lat="44.65954503234344" lon="10.088638098682711"><ele>346.0</ele><time>2026-03-28T15:50:32Z</time></trkpt><trkpt lat="44.65967707780393" lon="10.088926478522103"><ele>343.0</ele><time>2026-03-28T15:50:33Z</time></trkpt><trkpt lat="44.6598144105405" lon="10.08926671435855"><ele>340.0</ele><time>2026-03-28T15:50:34Z</time></trkpt><trkpt lat="44.65996942284064" lon="10.089613884832085"><ele>340.5</ele><time>2026-03-28T15:50:35Z</time></trkpt><trkpt lat="44.66014792167139" lon="10.08996686805839"><ele>341.0</ele><time>2026-03-28T15:50:36Z</time></trkpt><trkpt lat="44.66029824604053" lon="10.090302234529302"><ele>332.5</ele><time>2026-03-28T15:50:37Z</time></trkpt><trkpt lat="44.66044398732868" lon="10.090601212675887"><ele>324.0</ele><time>2026-03-28T15:50:38Z</time></trkpt><trkpt lat="44.660575737054046" lon="10.09090286561231"><ele>324.0</ele><time>2026-03-28T15:50:39Z</time></trkpt><trkpt lat="44.66064265936789" lon="10.091238592307453"><ele>324.0</ele><time>2026-03-28T15:50:40Z</time></trkpt><trkpt lat="44.660726945246" lon="10.091579279448824"><ele>324.0</ele><time>2026-03-28T15:50:41Z</time></trkpt><trkpt lat="44.66075217449004" lon="10.091846735474068"><ele>324.0</ele><time>2026-03-28T15:50:42Z</time></trkpt><trkpt lat="44.6607757843384" lon="10.092029758973846"><ele>324.0</ele><time>2026-03-28T15:50:43Z</time></trkpt><trkpt lat="44.66076257192577" lon="10.092174510821472"><ele>324.0</ele><time>2026-03-28T15:50:44Z</time></trkpt><trkpt lat="44.66078944011357" lon="10.09228038349709"><ele>324.0</ele><time>2026-03-28T15:50:45Z</time></trkpt><trkpt lat="44.660858891717616" lon="10.092355452014845"><ele>324.0</ele><time>2026-03-28T15:50:46Z</time></trkpt><trkpt lat="44.66096516361512" lon="10.092375498920804"><ele>324.0</ele><time>2026-03-28T15:50:47Z</time></trkpt><trkpt lat="44.66106363540375" lon="10.09226180258204"><ele>324.0</ele><time>2026-03-28T15:50:48Z</time></trkpt><trkpt lat="44.6611076423801" lon="10.09206733806433"><ele>324.0</ele><time>2026-03-28T15:50:49Z</time></trkpt><trkpt lat="44.66109375030404" lon="10.091788607943688"><ele>324.0</ele><time>2026-03-28T15:50:50Z</time></trkpt><trkpt lat="44.66107076278225" lon="10.091436942751356"><ele>324.0</ele><time>2026-03-28T15:50:51Z</time></trkpt><trkpt lat="44.66106881774388" lon="10.091068602082924"><ele>324.0</ele><time>2026-03-28T15:50:52Z</time></trkpt><trkpt lat="44.661086729947485" lon="10.090711447263049"><ele>317.3333333333333</ele><time>2026-03-28T15:50:53Z</time></trkpt><trkpt lat="44.66112814788627" lon="10.090416709481564"><ele>310.66666666666663</ele><time>2026-03-28T15:50:54Z</time></trkpt><trkpt lat="44.66118790262435" lon="10.090203300348174"><ele>304.0</ele><time>2026-03-28T15:50:55Z</time></trkpt><trkpt lat="44.6613105268772" lon="10.090023579169408"><ele>307.0</ele><time>2026-03-28T15:50:56Z</time></trkpt><trkpt lat="44.6615094821072" lon="10.089879218127084"><ele>310.0</ele><time>2026-03-28T15:50:57Z</time></trkpt><trkpt lat="44.66173583884272" lon="10.089683038502061"><ele>310.0</ele><time>2026-03-28T15:50:58Z</time></trkpt><trkpt lat="44.66193123085244" lon="10.089514018880896"><ele>310.0</ele><time>2026-03-28T15:50:59Z</time></trkpt><trkpt lat="44.662092828771996" lon="10.089397306355322"><ele>310.0</ele><time>2026-03-28T15:51:00Z</time></trkpt><trkpt lat="44.662251808903726" lon="10.089351236822209"><ele>307.66666666666663</ele><time>2026-03-28T15:51:01Z</time></trkpt><trkpt lat="44.66245320972956" lon="10.089367282296271"><ele>305.3333333333333</ele><time>2026-03-28T15:51:02Z</time></trkpt><trkpt lat="44.6626874373482" lon="10.089352910085172"><ele>303.0</ele><time>2026-03-28T15:51:03Z</time></trkpt><trkpt lat="44.66287721592623" lon="10.089379008461691"><ele>302.0</ele><time>2026-03-28T15:51:04Z</time></trkpt><trkpt lat="44.663015440912936" lon="10.089407819792273"><ele>301.0</ele><time>2026-03-28T15:51:05Z</time></trkpt><trkpt lat="44.663117529077375" lon="10.089455785125635"><ele>300.0</ele><time>2026-03-28T15:51:06Z</time></trkpt><trkpt lat="44.66317100998644" lon="10.089617159152713"><ele>299.0</ele><time>2026-03-28T15:51:07Z</time></trkpt><trkpt lat="44.66317365261494" lon="10.089794839472829"><ele>295.0</ele><time>2026-03-28T15:51:08Z</time></trkpt><trkpt lat="44.66313232980291" lon="10.089953542987303"><ele>291.0</ele><time>2026-03-28T15:51:09Z</time></trkpt><trkpt lat="44.66299611752302" lon="10.090138172483456"><ele>287.0</ele><time>2026-03-28T15:51:10Z</time></trkpt><trkpt lat="44.66284056526915" lon="10.090412031455669"><ele>288.5</ele><time>2026-03-28T15:51:11Z</time></trkpt><trkpt lat="44.66268642308464" lon="10.090711421913381"><ele>290.0</ele><time>2026-03-28T15:51:12Z</time></trkpt><trkpt lat="44.66256491124681" lon="10.090922956558119"><ele>287.6666666666667</ele><time>2026-03-28T15:51:13Z</time></trkpt><trkpt lat="44.66250401257594" lon="10.091117091652132"><ele>285.3333333333333</ele><time>2026-03-28T15:51:14Z</time></trkpt><trkpt lat="44.66253118548979" lon="10.09133546142404"><ele>283.0</ele><time>2026-03-28T15:51:15Z</time></trkpt><trkpt lat="44.66263698148094" lon="10.09162227281551"><ele>283.0</ele><time>2026-03-28T15:51:16Z</time></trkpt><trkpt lat="44.6627532088245" lon="10.09190538987234"><ele>283.0</ele><time>2026-03-28T15:51:17Z</time></trkpt><trkpt lat="44.66283486109998" lon="10.092147552420101"><ele>283.0</ele><time>2026-03-28T15:51:18Z</time></trkpt><trkpt lat="44.66290737414248" lon="10.092377705908843"><ele>277.66666666666663</ele><time>2026-03-28T15:51:18.999Z</time></trkpt><trkpt lat="44.66298335146096" lon="10.092591354301202"><ele>272.3333333333333</ele><time>2026-03-28T15:51:19.999Z</time></trkpt><trkpt lat="44.663067529506144" lon="10.092785568662775"><ele>267.0</ele><time>2026-03-28T15:51:20.999Z</time></trkpt><trkpt lat="44.66319240955917" lon="10.092942972859875"><ele>267.0</ele><time>2026-03-28T15:51:21.999Z</time></trkpt><trkpt lat="44.66335738023996" lon="10.093050544943134"><ele>267.0</ele><time>2026-03-28T15:51:22.999Z</time></trkpt><trkpt lat="44.66354396435462" lon="10.093093219273642"><ele>267.0</ele><time>2026-03-28T15:51:23.999Z</time></trkpt><trkpt lat="44.66371841922689" lon="10.093094534120565"><ele>264.6666666666667</ele><time>2026-03-28T15:51:24.999Z</time></trkpt><trkpt lat="44.66387952958859" lon="10.09310643584423"><ele>262.33333333333337</ele><time>2026-03-28T15:51:25.999Z</time></trkpt><trkpt lat="44.66404629622297" lon="10.093116870060594"><ele>260.0</ele><time>2026-03-28T15:51:26.999Z</time></trkpt><trkpt lat="44.66421417526858" lon="10.093130773844146"><ele>260.0</ele><time>2026-03-28T15:51:27.999Z</time></trkpt><trkpt lat="44.66437755182719" lon="10.093150088194202"><ele>260.0</ele><time>2026-03-28T15:51:28.999Z</time></trkpt><trkpt lat="44.664540740231665" lon="10.093178279323416"><ele>260.0</ele><time>2026-03-28T15:51:29.999Z</time></trkpt><trkpt lat="44.66470960315863" lon="10.093210410696102"><ele>257.33333333333337</ele><time>2026-03-28T15:51:30.999Z</time></trkpt><trkpt lat="44.66489859824119" lon="10.09323974258343"><ele>254.66666666666669</ele><time>2026-03-28T15:51:31.999Z</time></trkpt><trkpt lat="44.66509022762924" lon="10.093254049960873"><ele>252.0</ele><time>2026-03-28T15:51:32.999Z</time></trkpt><trkpt lat="44.66528870787094" lon="10.093227540215507"><ele>248.33333333333331</ele><time>2026-03-28T15:51:33.999Z</time></trkpt><trkpt lat="44.66549140712812" lon="10.093178437008843"><ele>244.66666666666666</ele><time>2026-03-28T15:51:34.999Z</time></trkpt><trkpt lat="44.66567896156835" lon="10.093112334225028"><ele>241.0</ele><time>2026-03-28T15:51:35.999Z</time></trkpt><trkpt lat="44.665834838613414" lon="10.093075384586035"><ele>241.0</ele><time>2026-03-28T15:51:36.999Z</time></trkpt><trkpt lat="44.66594673202658" lon="10.093172494288915"><ele>241.0</ele><time>2026-03-28T15:51:37.999Z</time></trkpt><trkpt lat="44.666057124018295" lon="10.09333447968417"><ele>241.0</ele><time>2026-03-28T15:51:38.999Z</time></trkpt><trkpt lat="44.66622047385" lon="10.093575084697196"><ele>237.5</ele><time>2026-03-28T15:51:39.999Z</time></trkpt><trkpt lat="44.6664240179807" lon="10.09380963082145"><ele>234.0</ele><time>2026-03-28T15:51:40.999Z</time></trkpt><trkpt lat="44.66667634740944" lon="10.09404573279308"><ele>229.5</ele><time>2026-03-28T15:51:41.999Z</time></trkpt><trkpt lat="44.66694460511763" lon="10.094256760157586"><ele>225.0</ele><time>2026-03-28T15:51:42.999Z</time></trkpt><trkpt lat="44.667203950462095" lon="10.094467037274384"><ele>225.0</ele><time>2026-03-28T15:51:43.999Z</time></trkpt><trkpt lat="44.667445235934224" lon="10.09466308020968"><ele>225.0</ele><time>2026-03-28T15:51:44.999Z</time></trkpt><trkpt lat="44.66770137194023" lon="10.09486642385727"><ele>222.0</ele><time>2026-03-28T15:51:45.999Z</time></trkpt><trkpt lat="44.66797985078833" lon="10.095080142804973"><ele>219.0</ele><time>2026-03-28T15:51:46.999Z</time></trkpt><trkpt lat="44.66826822836301" lon="10.095250067814016"><ele>219.0</ele><time>2026-03-28T15:51:47.999Z</time></trkpt><trkpt lat="44.66855098884665" lon="10.095374605091216"><ele>219.0</ele><time>2026-03-28T15:51:48.999Z</time></trkpt><trkpt lat="44.66876714726184" lon="10.095469392228805"><ele>216.33333333333331</ele><time>2026-03-28T15:51:49.999Z</time></trkpt><trkpt lat="44.66894421404298" lon="10.095608713448216"><ele>213.66666666666666</ele><time>2026-03-28T15:51:50.999Z</time></trkpt><trkpt lat="44.66910773776672" lon="10.09580768242617"><ele>211.0</ele><time>2026-03-28T15:51:51.999Z</time></trkpt><trkpt lat="44.66925108604977" lon="10.096027816318372"><ele>211.0</ele><time>2026-03-28T15:51:52.999Z</time></trkpt><trkpt lat="44.66936126640364" lon="10.096221223504571"><ele>211.0</ele><time>2026-03-28T15:51:53.999Z</time></trkpt><trkpt lat="44.669449323932774" lon="10.096407105241118"><ele>211.0</ele><time>2026-03-28T15:51:54.999Z</time></trkpt><trkpt lat="44.66948401642746" lon="10.096571143281055"><ele>210.33333333333331</ele><time>2026-03-28T15:51:55.999Z</time></trkpt><trkpt lat="44.66944777911475" lon="10.096716270191795"><ele>209.66666666666669</ele><time>2026-03-28T15:51:56.999Z</time></trkpt><trkpt lat="44.669412331172985" lon="10.096916988507925"><ele>209.0</ele><time>2026-03-28T15:51:57.999Z</time></trkpt><trkpt lat="44.66935602521872" lon="10.097236452741333"><ele>206.5</ele><time>2026-03-28T15:51:58.999Z</time></trkpt><trkpt lat="44.66928950066799" lon="10.09761006744074"><ele>204.0</ele><time>2026-03-28T15:51:59.999Z</time></trkpt><trkpt lat="44.669231978859294" lon="10.097926506517533"><ele>204.0</ele><time>2026-03-28T15:52:00.999Z</time></trkpt><trkpt lat="44.669175948604945" lon="10.09818132208656"><ele>204.0</ele><time>2026-03-28T15:52:01.999Z</time></trkpt><trkpt lat="44.66914086856838" lon="10.098344831268689"><ele>204.0</ele><time>2026-03-28T15:52:02.999Z</time></trkpt><trkpt lat="44.669147780826805" lon="10.098479607706292"><ele>204.0</ele><time>2026-03-28T15:52:03.999Z</time></trkpt><trkpt lat="44.669207652249526" lon="10.09863907816452"><ele>202.75</ele><time>2026-03-28T15:52:04.999Z</time></trkpt><trkpt lat="44.66931885516556" lon="10.098747637553002"><ele>201.5</ele><time>2026-03-28T15:52:05.999Z</time></trkpt><trkpt lat="44.669472159046634" lon="10.098785050684626"><ele>200.25</ele><time>2026-03-28T15:52:07Z</time></trkpt><trkpt lat="44.66961826077439" lon="10.098713795566692"><ele>199.0</ele><time>2026-03-28T15:52:08Z</time></trkpt><trkpt lat="44.66972902379759" lon="10.09855371381811"><ele>196.5</ele><time>2026-03-28T15:52:09Z</time></trkpt><trkpt lat="44.66983406269675" lon="10.098303094096673"><ele>194.0</ele><time>2026-03-28T15:52:10Z</time></trkpt><trkpt lat="44.66995619067607" lon="10.097998522829513"><ele>194.0</ele><time>2026-03-28T15:52:11Z</time></trkpt><trkpt lat="44.670159632252066" lon="10.097720999999146"><ele>194.0</ele><time>2026-03-28T15:52:12Z</time></trkpt><trkpt lat="44.67037619441132" lon="10.097423457560732"><ele>189.0</ele><time>2026-03-28T15:52:13Z</time></trkpt><trkpt lat="44.67056953949863" lon="10.097088853367966"><ele>184.0</ele><time>2026-03-28T15:52:14Z</time></trkpt><trkpt lat="44.67072242042227" lon="10.096758257737058"><ele>183.5</ele><time>2026-03-28T15:52:15Z</time></trkpt><trkpt lat="44.67083682124164" lon="10.096460924997995"><ele>183.0</ele><time>2026-03-28T15:52:16Z</time></trkpt><trkpt lat="44.670977087702816" lon="10.09619332715277"><ele>181.33333333333334</ele><time>2026-03-28T15:52:17Z</time></trkpt><trkpt lat="44.67115994577719" lon="10.095929767669558"><ele>179.66666666666669</ele><time>2026-03-28T15:52:18Z</time></trkpt><trkpt lat="44.671296827918006" lon="10.09589521880454"><ele>178.0</ele><time>2026-03-28T15:52:20Z</time></trkpt><trkpt lat="44.67140068476777" lon="10.095940360584528"><ele>178.0</ele><time>2026-03-28T15:52:21Z</time></trkpt><trkpt lat="44.67151696128327" lon="10.09606607811233"><ele>178.0</ele><time>2026-03-28T15:52:22Z</time></trkpt><trkpt lat="44.671693796749196" lon="10.096240589418565"><ele>178.0</ele><time>2026-03-28T15:52:23Z</time></trkpt><trkpt lat="44.671836958292054" lon="10.096390019376079"><ele>177.60000000000002</ele><time>2026-03-28T15:52:24Z</time></trkpt><trkpt lat="44.6719468017876" lon="10.096508654505454"><ele>177.20000000000002</ele><time>2026-03-28T15:52:25Z</time></trkpt><trkpt lat="44.672017350596605" lon="10.096608379174778"><ele>176.8</ele><time>2026-03-28T15:52:26Z</time></trkpt><trkpt lat="44.67206372436165" lon="10.096709560814586"><ele>176.4</ele><time>2026-03-28T15:52:27Z</time></trkpt><trkpt lat="44.672117120698665" lon="10.096824654461011"><ele>176.0</ele><time>2026-03-28T15:52:28Z</time></trkpt><trkpt lat="44.672140541051746" lon="10.096960557083374"><ele>174.8</ele><time>2026-03-28T15:52:29Z</time></trkpt><trkpt lat="44.67213949363055" lon="10.097125601829072"><ele>173.60000000000002</ele><time>2026-03-28T15:52:30Z</time></trkpt><trkpt lat="44.67216331526319" lon="10.097283508978537"><ele>172.4</ele><time>2026-03-28T15:52:31Z</time></trkpt><trkpt lat="44.67216334040582" lon="10.097438048739825"><ele>171.2</ele><time>2026-03-28T15:52:32Z</time></trkpt><trkpt lat="44.672168445586394" lon="10.09756415362815"><ele>170.0</ele><time>2026-03-28T15:52:33Z</time></trkpt><trkpt lat="44.672185899931634" lon="10.097676215856358"><ele>169.4</ele><time>2026-03-28T15:52:34Z</time></trkpt><trkpt lat="44.67222927853372" lon="10.097795302586476"><ele>168.8</ele><time>2026-03-28T15:52:35Z</time></trkpt><trkpt lat="44.67231189273267" lon="10.097892131999762"><ele>168.2</ele><time>2026-03-28T15:52:36Z</time></trkpt><trkpt lat="44.672426232947814" lon="10.09793631585778"><ele>167.6</ele><time>2026-03-28T15:52:37Z</time></trkpt><trkpt lat="44.672549271966055" lon="10.097904735115252"><ele>167.0</ele><time>2026-03-28T15:52:38Z</time></trkpt><trkpt lat="44.672659280517756" lon="10.097826490479394"><ele>164.66666666666666</ele><time>2026-03-28T15:52:39Z</time></trkpt><trkpt lat="44.67277967299661" lon="10.097734179869413"><ele>162.33333333333334</ele><time>2026-03-28T15:52:40Z</time></trkpt><trkpt lat="44.67291792730498" lon="10.097647109909426"><ele>160.0</ele><time>2026-03-28T15:52:41Z</time></trkpt><trkpt lat="44.673070614238114" lon="10.097556670467442"><ele>160.0</ele><time>2026-03-28T15:52:42Z</time></trkpt><trkpt lat="44.67324468265046" lon="10.09748825942201"><ele>160.0</ele><time>2026-03-28T15:52:43Z</time></trkpt><trkpt lat="44.6734052362535" lon="10.097406763379437"><ele>160.0</ele><time>2026-03-28T15:52:44Z</time></trkpt><trkpt lat="44.67356113968542" lon="10.097326093834292"><ele>160.0</ele><time>2026-03-28T15:52:45Z</time></trkpt><trkpt lat="44.67371008963755" lon="10.097237384896228"><ele>160.0</ele><time>2026-03-28T15:52:46Z</time></trkpt><trkpt lat="44.67384943337596" lon="10.097175396238942"><ele>160.0</ele><time>2026-03-28T15:52:47Z</time></trkpt><trkpt lat="44.673969519308464" lon="10.097106161141815"><ele>160.0</ele><time>2026-03-28T15:52:48Z</time></trkpt><trkpt lat="44.67408346130846" lon="10.097044201195002"><ele>160.0</ele><time>2026-03-28T15:52:49Z</time></trkpt><trkpt lat="44.674195893178556" lon="10.096985923186544"><ele>160.0</ele><time>2026-03-28T15:52:50Z</time></trkpt><trkpt lat="44.67431417552106" lon="10.096922634500078"><ele>160.0</ele><time>2026-03-28T15:52:51Z</time></trkpt><trkpt lat="44.674425150029435" lon="10.096862680322538"><ele>160.0</ele><time>2026-03-28T15:52:52Z</time></trkpt><trkpt lat="44.67452190906391" lon="10.096808219971507"><ele>159.2</ele><time>2026-03-28T15:52:53Z</time></trkpt><trkpt lat="44.674615938671515" lon="10.09677453372431"><ele>158.4</ele><time>2026-03-28T15:52:54Z</time></trkpt><trkpt lat="44.67467959483827" lon="10.096760444520243"><ele>157.6</ele><time>2026-03-28T15:52:55Z</time></trkpt><trkpt lat="44.67475008106788" lon="10.096745198173494"><ele>156.8</ele><time>2026-03-28T15:53:00Z</time></trkpt><trkpt lat="44.67481262058368" lon="10.096786305130337"><ele>156.0</ele><time>2026-03-28T15:55:18Z</time></trkpt><trkpt lat="44.674903623033615" lon="10.096611963013336"><ele>156.25</ele><time>2026-03-28T15:55:20Z</time></trkpt><trkpt lat="44.675006902690214" lon="10.096580986396104"><ele>156.5</ele><time>2026-03-28T15:55:21Z</time></trkpt><trkpt lat="44.67510222662035" lon="10.096535907153278"><ele>156.75</ele><time>2026-03-28T15:55:22Z</time></trkpt><trkpt lat="44.67521789207196" lon="10.096481115485433"><ele>157.0</ele><time>2026-03-28T15:55:23Z</time></trkpt><trkpt lat="44.67533682298012" lon="10.096417903987009"><ele>157.0</ele><time>2026-03-28T15:55:24Z</time></trkpt><trkpt lat="44.675461277619995" lon="10.096349938248187"><ele>157.0</ele><time>2026-03-28T15:55:25Z</time></trkpt><trkpt lat="44.67559400539918" lon="10.09628099151099"><ele>157.0</ele><time>2026-03-28T15:55:26Z</time></trkpt><trkpt lat="44.67571793122032" lon="10.096202628495767"><ele>157.0</ele><time>2026-03-28T15:55:26.999Z</time></trkpt><trkpt lat="44.67584676524019" lon="10.096140216871692"><ele>157.0</ele><time>2026-03-28T15:55:27.999Z</time></trkpt><trkpt lat="44.675976882062564" lon="10.096079873927714"><ele>157.0</ele><time>2026-03-28T15:55:28.999Z</time></trkpt><trkpt lat="44.676106211562285" lon="10.096015327407788"><ele>157.0</ele><time>2026-03-28T15:55:29.999Z</time></trkpt><trkpt lat="44.67623787447369" lon="10.095947945637432"><ele>157.0</ele><time>2026-03-28T15:55:30.999Z</time></trkpt><trkpt lat="44.676386190363836" lon="10.095873965288177"><ele>156.33333333333334</ele><time>2026-03-28T15:55:31.999Z</time></trkpt><trkpt lat="44.676529913550645" lon="10.095792011483615"><ele>155.66666666666666</ele><time>2026-03-28T15:55:32.999Z</time></trkpt><trkpt lat="44.6766855170546" lon="10.095713579671768"><ele>155.0</ele><time>2026-03-28T15:55:33.999Z</time></trkpt><trkpt lat="44.67683775434853" lon="10.095636183239517"><ele>154.33333333333331</ele><time>2026-03-28T15:55:34.999Z</time></trkpt><trkpt lat="44.676988315160095" lon="10.095556853504158"><ele>153.66666666666666</ele><time>2026-03-28T15:55:35.999Z</time></trkpt><trkpt lat="44.67714607851597" lon="10.095476225585276"><ele>153.0</ele><time>2026-03-28T15:55:36.999Z</time></trkpt><trkpt lat="44.67730993774674" lon="10.095390121226453"><ele>153.0</ele><time>2026-03-28T15:55:37.999Z</time></trkpt><trkpt lat="44.67748010777884" lon="10.095300434415229"><ele>153.0</ele><time>2026-03-28T15:55:38.999Z</time></trkpt><trkpt lat="44.67765819300902" lon="10.095206695361005"><ele>153.0</ele><time>2026-03-28T15:55:39.999Z</time></trkpt><trkpt lat="44.67783068963445" lon="10.09510853105996"><ele>152.0</ele><time>2026-03-28T15:55:40.999Z</time></trkpt><trkpt lat="44.67799385281413" lon="10.095024964674977"><ele>151.0</ele><time>2026-03-28T15:55:41.999Z</time></trkpt><trkpt lat="44.678153540780706" lon="10.09493645570423"><ele>150.0</ele><time>2026-03-28T15:55:42.999Z</time></trkpt><trkpt lat="44.678310470069626" lon="10.094854073515984"><ele>149.33333333333334</ele><time>2026-03-28T15:55:43.999Z</time></trkpt><trkpt lat="44.67846017694231" lon="10.09477895574416"><ele>148.66666666666669</ele><time>2026-03-28T15:55:44.999Z</time></trkpt><trkpt lat="44.67860486268838" lon="10.094701232811722"><ele>148.0</ele><time>2026-03-28T15:55:45.999Z</time></trkpt><trkpt lat="44.67874513578602" lon="10.094625698208361"><ele>148.0</ele><time>2026-03-28T15:55:46.999Z</time></trkpt><trkpt lat="44.67886891565171" lon="10.094551685646042"><ele>148.0</ele><time>2026-03-28T15:55:47.999Z</time></trkpt><trkpt lat="44.67899612136021" lon="10.09448691084307"><ele>148.0</ele><time>2026-03-28T15:55:48.999Z</time></trkpt><trkpt lat="44.67913514587618" lon="10.094463115829196"><ele>148.0</ele><time>2026-03-28T15:55:49.999Z</time></trkpt><trkpt lat="44.67927409306182" lon="10.094479466576345"><ele>148.0</ele><time>2026-03-28T15:55:50.999Z</time></trkpt><trkpt lat="44.67941254929664" lon="10.094518280407323"><ele>148.0</ele><time>2026-03-28T15:55:51.999Z</time></trkpt><trkpt lat="44.67955367660091" lon="10.094598392171196"><ele>148.0</ele><time>2026-03-28T15:55:52.999Z</time></trkpt><trkpt lat="44.679698872253795" lon="10.09472578139682"><ele>148.0</ele><time>2026-03-28T15:55:53.999Z</time></trkpt><trkpt lat="44.67987008254439" lon="10.09485480075132"><ele>148.0</ele><time>2026-03-28T15:55:54.999Z</time></trkpt><trkpt lat="44.680034282697314" lon="10.094954150679449"><ele>148.0</ele><time>2026-03-28T15:55:55.999Z</time></trkpt><trkpt lat="44.68019507687529" lon="10.095039663855895"><ele>147.0</ele><time>2026-03-28T15:55:56.999Z</time></trkpt><trkpt lat="44.68035961955593" lon="10.095128120035188"><ele>146.0</ele><time>2026-03-28T15:55:57.999Z</time></trkpt><trkpt lat="44.68052643667414" lon="10.095220789298525"><ele>145.0</ele><time>2026-03-28T15:55:58.999Z</time></trkpt><trkpt lat="44.680686954876144" lon="10.095308332777783"><ele>145.0</ele><time>2026-03-28T15:55:59.999Z</time></trkpt><trkpt lat="44.680847518717236" lon="10.095389787280805"><ele>145.0</ele><time>2026-03-28T15:56:00.999Z</time></trkpt><trkpt lat="44.68099849091724" lon="10.095466550469872"><ele>145.0</ele><time>2026-03-28T15:56:01.999Z</time></trkpt><trkpt lat="44.68115109118526" lon="10.095543558381493"><ele>145.33333333333334</ele><time>2026-03-28T15:56:02.999Z</time></trkpt><trkpt lat="44.681296011517496" lon="10.095606694094545"><ele>145.66666666666666</ele><time>2026-03-28T15:56:03.999Z</time></trkpt><trkpt lat="44.68144512898442" lon="10.095660550916362"><ele>146.0</ele><time>2026-03-28T15:56:04.999Z</time></trkpt><trkpt lat="44.68160286463468" lon="10.09571872040144"><ele>147.0</ele><time>2026-03-28T15:56:05.999Z</time></trkpt><trkpt lat="44.68174962211131" lon="10.095767898877934"><ele>148.0</ele><time>2026-03-28T15:56:06.999Z</time></trkpt><trkpt lat="44.68189589443926" lon="10.095815556345693"><ele>149.0</ele><time>2026-03-28T15:56:07.999Z</time></trkpt><trkpt lat="44.68204615514182" lon="10.095847561029437"><ele>149.0</ele><time>2026-03-28T15:56:08.999Z</time></trkpt><trkpt lat="44.68219252727198" lon="10.095882605618314"><ele>149.0</ele><time>2026-03-28T15:56:09.999Z</time></trkpt><trkpt lat="44.68233506336733" lon="10.09591283845328"><ele>149.0</ele><time>2026-03-28T15:56:10.999Z</time></trkpt><trkpt lat="44.68246977125227" lon="10.0959417171514"><ele>149.0</ele><time>2026-03-28T15:56:11.999Z</time></trkpt><trkpt lat="44.6825970918973" lon="10.095970005905341"><ele>149.0</ele><time>2026-03-28T15:56:12.999Z</time></trkpt><trkpt lat="44.68272764727202" lon="10.09600101791963"><ele>149.0</ele><time>2026-03-28T15:56:13.999Z</time></trkpt><trkpt lat="44.68285961291066" lon="10.096029875228965"><ele>149.0</ele><time>2026-03-28T15:56:14.999Z</time></trkpt><trkpt lat="44.683010494798005" lon="10.096063847889837"><ele>149.0</ele><time>2026-03-28T15:56:15.999Z</time></trkpt><trkpt lat="44.683165625584834" lon="10.096082815313087"><ele>148.0</ele><time>2026-03-28T15:56:16.999Z</time></trkpt><trkpt lat="44.683341074121266" lon="10.0961125526937"><ele>147.0</ele><time>2026-03-28T15:56:17.999Z</time></trkpt><trkpt lat="44.68352170774265" lon="10.096146697598222"><ele>146.0</ele><time>2026-03-28T15:56:19Z</time></trkpt><trkpt lat="44.68368887473266" lon="10.096194968871364"><ele>146.0</ele><time>2026-03-28T15:56:20Z</time></trkpt><trkpt lat="44.68385125551177" lon="10.096239376139636"><ele>146.0</ele><time>2026-03-28T15:56:21Z</time></trkpt><trkpt lat="44.684010131424714" lon="10.096282051881353"><ele>146.0</ele><time>2026-03-28T15:56:22Z</time></trkpt><trkpt lat="44.684149866961704" lon="10.096321253975587"><ele>146.0</ele><time>2026-03-28T15:56:23Z</time></trkpt><trkpt lat="44.684312830231136" lon="10.096364211481385"><ele>146.0</ele><time>2026-03-28T15:56:24Z</time></trkpt><trkpt lat="44.68445816045727" lon="10.096386268397996"><ele>146.0</ele><time>2026-03-28T15:56:25Z</time></trkpt><trkpt lat="44.68460607927522" lon="10.096415604329437"><ele>145.75</ele><time>2026-03-28T15:56:26Z</time></trkpt><trkpt lat="44.684749652473506" lon="10.096452731871755"><ele>145.5</ele><time>2026-03-28T15:56:27Z</time></trkpt><trkpt lat="44.684892237377" lon="10.096487670265583"><ele>145.25</ele><time>2026-03-28T15:56:28Z</time></trkpt><trkpt lat="44.68502841234176" lon="10.096520733091525"><ele>145.0</ele><time>2026-03-28T15:56:29Z</time></trkpt><trkpt lat="44.685163861796035" lon="10.096547767302612"><ele>144.75</ele><time>2026-03-28T15:56:30Z</time></trkpt><trkpt lat="44.6852895553185" lon="10.09657643114874"><ele>144.5</ele><time>2026-03-28T15:56:31Z</time></trkpt><trkpt lat="44.685416471149324" lon="10.096602464099085"><ele>144.25</ele><time>2026-03-28T15:56:32Z</time></trkpt><trkpt lat="44.68555021717673" lon="10.096628281372432"><ele>144.0</ele><time>2026-03-28T15:56:33Z</time></trkpt><trkpt lat="44.68568322663356" lon="10.096651232120658"><ele>144.25</ele><time>2026-03-28T15:56:34Z</time></trkpt><trkpt lat="44.68581530978533" lon="10.096682735637573"><ele>144.5</ele><time>2026-03-28T15:56:35Z</time></trkpt><trkpt lat="44.68594822571339" lon="10.096711861865863"><ele>144.75</ele><time>2026-03-28T15:56:36Z</time></trkpt><trkpt lat="44.68608884325316" lon="10.09674009594308"><ele>145.0</ele><time>2026-03-28T15:56:37Z</time></trkpt><trkpt lat="44.68622513590802" lon="10.096766868119047"><ele>145.0</ele><time>2026-03-28T15:56:38Z</time></trkpt><trkpt lat="44.68636314653764" lon="10.096793523576183"><ele>145.0</ele><time>2026-03-28T15:56:39Z</time></trkpt><trkpt lat="44.68650286964724" lon="10.096822866651415"><ele>145.0</ele><time>2026-03-28T15:56:40Z</time></trkpt><trkpt lat="44.686644999971364" lon="10.096858254229806"><ele>145.0</ele><time>2026-03-28T15:56:41Z</time></trkpt><trkpt lat="44.68679411215264" lon="10.096895168906999"><ele>144.25</ele><time>2026-03-28T15:56:42Z</time></trkpt><trkpt lat="44.686940305686" lon="10.096928169834777"><ele>143.5</ele><time>2026-03-28T15:56:43Z</time></trkpt><trkpt lat="44.68708735600774" lon="10.096961939965505"><ele>142.75</ele><time>2026-03-28T15:56:44Z</time></trkpt><trkpt lat="44.68723389940796" lon="10.09699288771824"><ele>142.0</ele><time>2026-03-28T15:56:45Z</time></trkpt><trkpt lat="44.68738686553822" lon="10.097026918102381"><ele>142.0</ele><time>2026-03-28T15:56:46Z</time></trkpt><trkpt lat="44.68753779913468" lon="10.097058947487161"><ele>142.0</ele><time>2026-03-28T15:56:47Z</time></trkpt><trkpt lat="44.68772595010628" lon="10.097085836524062"><ele>142.0</ele><time>2026-03-28T15:56:48Z</time></trkpt><trkpt lat="44.687947333541324" lon="10.097148568997774"><ele>141.5</ele><time>2026-03-28T15:56:49Z</time></trkpt><trkpt lat="44.68818683936381" lon="10.097181429717407"><ele>141.0</ele><time>2026-03-28T15:56:50Z</time></trkpt><trkpt lat="44.688413270939925" lon="10.09724956800794"><ele>141.0</ele><time>2026-03-28T15:56:51Z</time></trkpt><trkpt lat="44.688626180825494" lon="10.097306566887497"><ele>141.0</ele><time>2026-03-28T15:56:52Z</time></trkpt><trkpt lat="44.68883057362703" lon="10.097350394317173"><ele>141.0</ele><time>2026-03-28T15:56:53Z</time></trkpt><trkpt lat="44.68902637414136" lon="10.097396557916856"><ele>144.33333333333334</ele><time>2026-03-28T15:56:54Z</time></trkpt><trkpt lat="44.68919498483392" lon="10.097436998295924"><ele>147.66666666666669</ele><time>2026-03-28T15:56:55Z</time></trkpt><trkpt lat="44.68935170954894" lon="10.097483107269417"><ele>151.0</ele><time>2026-03-28T15:56:56Z</time></trkpt><trkpt lat="44.68948984664338" lon="10.09752772359292"><ele>152.0</ele><time>2026-03-28T15:56:57Z</time></trkpt><trkpt lat="44.689610556710356" lon="10.097588678666472"><ele>153.0</ele><time>2026-03-28T15:56:58Z</time></trkpt><trkpt lat="44.68971650137606" lon="10.097656442549725"><ele>154.0</ele><time>2026-03-28T15:56:59Z</time></trkpt><trkpt lat="44.6898261587948" lon="10.097750633969524"><ele>155.0</ele><time>2026-03-28T15:57:00Z</time></trkpt><trkpt lat="44.68992266785521" lon="10.097867309299543"><ele>155.0</ele><time>2026-03-28T15:57:01Z</time></trkpt><trkpt lat="44.6900006176617" lon="10.097996995255832"><ele>155.0</ele><time>2026-03-28T15:57:02Z</time></trkpt><trkpt lat="44.690068794652895" lon="10.098132856583513"><ele>155.0</ele><time>2026-03-28T15:57:03Z</time></trkpt><trkpt lat="44.69012846830725" lon="10.098272865792962"><ele>155.0</ele><time>2026-03-28T15:57:04Z</time></trkpt><trkpt lat="44.69016953581831" lon="10.098407999800864"><ele>155.0</ele><time>2026-03-28T15:57:05Z</time></trkpt><trkpt lat="44.6901918179452" lon="10.0985269278989"><ele>155.0</ele><time>2026-03-28T15:57:06Z</time></trkpt><trkpt lat="44.69022968820047" lon="10.09866529693708"><ele>155.0</ele><time>2026-03-28T15:57:08Z</time></trkpt><trkpt lat="44.69028140652105" lon="10.098820033117038"><ele>155.0</ele><time>2026-03-28T15:57:10Z</time></trkpt><trkpt lat="44.69028635860896" lon="10.09899189167583"><ele>155.0</ele><time>2026-03-28T15:57:12Z</time></trkpt><trkpt lat="44.69030808526823" lon="10.099095699838289"><ele>155.0</ele><time>2026-03-28T15:57:13Z</time></trkpt><trkpt lat="44.69036604308659" lon="10.099215048439902"><ele>155.0</ele><time>2026-03-28T15:57:15Z</time></trkpt><trkpt lat="44.69038729231877" lon="10.099341307610727"><ele>155.0</ele><time>2026-03-28T15:57:16Z</time></trkpt><trkpt lat="44.69042460004433" lon="10.099516911186257"><ele>155.0</ele><time>2026-03-28T15:57:17Z</time></trkpt><trkpt lat="44.6904722691675" lon="10.099693848754995"><ele>155.0</ele><time>2026-03-28T15:57:18Z</time></trkpt><trkpt lat="44.69052248687738" lon="10.09990096555991"><ele>155.0</ele><time>2026-03-28T15:57:19Z</time></trkpt><trkpt lat="44.69055962126875" lon="10.100099103939218"><ele>155.0</ele><time>2026-03-28T15:57:20Z</time></trkpt><trkpt lat="44.69060415104509" lon="10.100295326374637"><ele>155.0</ele><time>2026-03-28T15:57:21Z</time></trkpt><trkpt lat="44.69064602778148" lon="10.10049400528689"><ele>155.75</ele><time>2026-03-28T15:57:22Z</time></trkpt><trkpt lat="44.69069139975181" lon="10.10069187322627"><ele>156.5</ele><time>2026-03-28T15:57:23Z</time></trkpt><trkpt lat="44.69073232852096" lon="10.10087505041268"><ele>157.25</ele><time>2026-03-28T15:57:24Z</time></trkpt><trkpt lat="44.690778532910144" lon="10.101057240902659"><ele>158.0</ele><time>2026-03-28T15:57:25Z</time></trkpt><trkpt lat="44.690824949319214" lon="10.10123538752055"><ele>159.0</ele><time>2026-03-28T15:57:26Z</time></trkpt><trkpt lat="44.690893541136674" lon="10.10141134747655"><ele>160.0</ele><time>2026-03-28T15:57:27Z</time></trkpt><trkpt lat="44.69099902353714" lon="10.101580984980918"><ele>161.0</ele><time>2026-03-28T15:57:28Z</time></trkpt><trkpt lat="44.6911175167489" lon="10.101754406516752"><ele>158.33333333333331</ele><time>2026-03-28T15:57:29Z</time></trkpt><trkpt lat="44.69122341939522" lon="10.101927414284543"><ele>155.66666666666666</ele><time>2026-03-28T15:57:30Z</time></trkpt><trkpt lat="44.69133328530503" lon="10.102101674282924"><ele>153.0</ele><time>2026-03-28T15:57:31Z</time></trkpt><trkpt lat="44.691427945039635" lon="10.1022572831941"><ele>155.66666666666666</ele><time>2026-03-28T15:57:32Z</time></trkpt><trkpt lat="44.691530060880595" lon="10.102419532981523"><ele>158.33333333333331</ele><time>2026-03-28T15:57:33Z</time></trkpt><trkpt lat="44.691638293602495" lon="10.102591659162737"><ele>161.0</ele><time>2026-03-28T15:57:34Z</time></trkpt><trkpt lat="44.69172315649641" lon="10.102742357874382"><ele>161.0</ele><time>2026-03-28T15:57:35Z</time></trkpt><trkpt lat="44.69173776082833" lon="10.10289043117146"><ele>161.0</ele><time>2026-03-28T15:57:36Z</time></trkpt><trkpt lat="44.69193536730921" lon="10.103092383540057"><ele>161.0</ele><time>2026-03-28T15:57:37Z</time></trkpt><trkpt lat="44.69203645679072" lon="10.103259361038848"><ele>158.33333333333331</ele><time>2026-03-28T15:57:38Z</time></trkpt><trkpt lat="44.692137240916814" lon="10.103415088123175"><ele>155.66666666666666</ele><time>2026-03-28T15:57:38.999Z</time></trkpt><trkpt lat="44.69223650136477" lon="10.103569560427278"><ele>153.0</ele><time>2026-03-28T15:57:39.999Z</time></trkpt><trkpt lat="44.69233964236519" lon="10.103730050051611"><ele>153.0</ele><time>2026-03-28T15:57:40.999Z</time></trkpt><trkpt lat="44.69244282359602" lon="10.103901437538623"><ele>153.0</ele><time>2026-03-28T15:57:41.999Z</time></trkpt><trkpt lat="44.69255141653372" lon="10.104071100269037"><ele>153.0</ele><time>2026-03-28T15:57:42.999Z</time></trkpt><trkpt lat="44.69266197564218" lon="10.10424652339173"><ele>152.66666666666666</ele><time>2026-03-28T15:57:43.999Z</time></trkpt><trkpt lat="44.692776732429664" lon="10.104413027612582"><ele>152.33333333333331</ele><time>2026-03-28T15:57:44.999Z</time></trkpt><trkpt lat="44.692887038447196" lon="10.104581342466291"><ele>152.0</ele><time>2026-03-28T15:57:45.999Z</time></trkpt><trkpt lat="44.69298538119856" lon="10.104765018346756"><ele>153.33333333333331</ele><time>2026-03-28T15:57:46.999Z</time></trkpt><trkpt lat="44.69307795134474" lon="10.104957037453559"><ele>154.66666666666666</ele><time>2026-03-28T15:57:47.999Z</time></trkpt><trkpt lat="44.69316293587542" lon="10.10515506930302"><ele>156.0</ele><time>2026-03-28T15:57:48.999Z</time></trkpt><trkpt lat="44.69324823571571" lon="10.105358003415763"><ele>156.0</ele><time>2026-03-28T15:57:49.999Z</time></trkpt><trkpt lat="44.69333076255627" lon="10.105562410491258"><ele>156.0</ele><time>2026-03-28T15:57:50.999Z</time></trkpt><trkpt lat="44.69341110896666" lon="10.105759099102988"><ele>156.0</ele><time>2026-03-28T15:57:51.999Z</time></trkpt><trkpt lat="44.69348650855153" lon="10.105951769251394"><ele>156.0</ele><time>2026-03-28T15:57:52.999Z</time></trkpt><trkpt lat="44.69356569068141" lon="10.106145007928443"><ele>156.0</ele><time>2026-03-28T15:57:53.999Z</time></trkpt><trkpt lat="44.693645285128675" lon="10.106336335930228"><ele>156.0</ele><time>2026-03-28T15:57:54.999Z</time></trkpt><trkpt lat="44.69372324989785" lon="10.106530836940626"><ele>156.66666666666666</ele><time>2026-03-28T15:57:55.999Z</time></trkpt><trkpt lat="44.69379530687614" lon="10.106729230972858"><ele>157.33333333333331</ele><time>2026-03-28T15:57:56.999Z</time></trkpt><trkpt lat="44.69386750536172" lon="10.106933981459512"><ele>158.0</ele><time>2026-03-28T15:57:57.999Z</time></trkpt><trkpt lat="44.69392096892819" lon="10.107149716599912"><ele>158.0</ele><time>2026-03-28T15:57:58.999Z</time></trkpt><trkpt lat="44.69395142460394" lon="10.107370739373351"><ele>158.0</ele><time>2026-03-28T15:57:59.999Z</time></trkpt><trkpt lat="44.69400600176392" lon="10.107593129124199"><ele>158.0</ele><time>2026-03-28T15:58:00.999Z</time></trkpt><trkpt lat="44.69406666834055" lon="10.10781628193909"><ele>159.0</ele><time>2026-03-28T15:58:01.999Z</time></trkpt><trkpt lat="44.6941209215387" lon="10.108027842506605"><ele>160.0</ele><time>2026-03-28T15:58:02.999Z</time></trkpt><trkpt lat="44.69417345976474" lon="10.10822336046461"><ele>161.0</ele><time>2026-03-28T15:58:03.999Z</time></trkpt><trkpt lat="44.69423047397643" lon="10.10841199235615"><ele>161.8</ele><time>2026-03-28T15:58:04.999Z</time></trkpt><trkpt lat="44.6942830518832" lon="10.10857642608438"><ele>162.60000000000002</ele><time>2026-03-28T15:58:05.999Z</time></trkpt><trkpt lat="44.69434561624431" lon="10.108715595743625"><ele>163.4</ele><time>2026-03-28T15:58:06.999Z</time></trkpt><trkpt lat="44.694415805929566" lon="10.108809421817076"><ele>164.2</ele><time>2026-03-28T15:58:07.999Z</time></trkpt><trkpt lat="44.694481546487395" lon="10.108870170393285"><ele>165.0</ele><time>2026-03-28T15:58:08.999Z</time></trkpt><trkpt lat="44.69459813785391" lon="10.109012511579879"><ele>162.4</ele><time>2026-03-28T15:58:10.999Z</time></trkpt><trkpt lat="44.694701989764255" lon="10.10906370715358"><ele>159.8</ele><time>2026-03-28T15:58:11.999Z</time></trkpt><trkpt lat="44.69479958877725" lon="10.10912085794647"><ele>157.2</ele><time>2026-03-28T15:58:12.999Z</time></trkpt><trkpt lat="44.694886900102794" lon="10.109189735497544"><ele>154.6</ele><time>2026-03-28T15:58:13.999Z</time></trkpt><trkpt lat="44.69496053661974" lon="10.109315502556457"><ele>152.0</ele><time>2026-03-28T15:58:14.999Z</time></trkpt><trkpt lat="44.69502800172171" lon="10.109456767185504"><ele>152.0</ele><time>2026-03-28T15:58:15.999Z</time></trkpt><trkpt lat="44.69510004834492" lon="10.109590839095828"><ele>152.0</ele><time>2026-03-28T15:58:16.999Z</time></trkpt><trkpt lat="44.69517448154725" lon="10.109732120422514"><ele>152.0</ele><time>2026-03-28T15:58:17.999Z</time></trkpt><trkpt lat="44.695256497724614" lon="10.109891196249047"><ele>152.0</ele><time>2026-03-28T15:58:18.999Z</time></trkpt><trkpt lat="44.69532263514934" lon="10.110053407223203"><ele>150.6</ele><time>2026-03-28T15:58:19.999Z</time></trkpt><trkpt lat="44.69536453548731" lon="10.110187812159067"><ele>149.2</ele><time>2026-03-28T15:58:20.999Z</time></trkpt><trkpt lat="44.69541979457629" lon="10.110323131242534"><ele>147.8</ele><time>2026-03-28T15:58:21.999Z</time></trkpt><trkpt lat="44.695472729057606" lon="10.110448316933935"><ele>146.4</ele><time>2026-03-28T15:58:22.999Z</time></trkpt><trkpt lat="44.69552883900886" lon="10.110580592524268"><ele>145.0</ele><time>2026-03-28T15:58:23.999Z</time></trkpt><trkpt lat="44.695589974609106" lon="10.110739686755425"><ele>147.0</ele><time>2026-03-28T15:58:25Z</time></trkpt><trkpt lat="44.69570264495761" lon="10.11096045189633"><ele>149.0</ele><time>2026-03-28T15:58:26Z</time></trkpt><trkpt lat="44.695842995009116" lon="10.11122471305516"><ele>151.0</ele><time>2026-03-28T15:58:27Z</time></trkpt><trkpt lat="44.69599037800389" lon="10.111500240738582"><ele>144.5</ele><time>2026-03-28T15:58:28Z</time></trkpt><trkpt lat="44.69613775076948" lon="10.11178759826406"><ele>138.0</ele><time>2026-03-28T15:58:29Z</time></trkpt><trkpt lat="44.6962779973818" lon="10.112062883583127"><ele>138.0</ele><time>2026-03-28T15:58:30Z</time></trkpt><trkpt lat="44.6964179845108" lon="10.112316014387423"><ele>138.0</ele><time>2026-03-28T15:58:31Z</time></trkpt><trkpt lat="44.696579643901174" lon="10.112533445714446"><ele>141.0</ele><time>2026-03-28T15:58:32Z</time></trkpt><trkpt lat="44.696772724661045" lon="10.112716710157004"><ele>144.0</ele><time>2026-03-28T15:58:33Z</time></trkpt><trkpt lat="44.69699413698399" lon="10.112832433877841"><ele>144.0</ele><time>2026-03-28T15:58:34Z</time></trkpt><trkpt lat="44.69723395715892" lon="10.112872636367799"><ele>144.0</ele><time>2026-03-28T15:58:35Z</time></trkpt><trkpt lat="44.69746823924857" lon="10.112907402017239"><ele>144.0</ele><time>2026-03-28T15:58:36Z</time></trkpt><trkpt lat="44.69769170741574" lon="10.112936908642624"><ele>144.0</ele><time>2026-03-28T15:58:37Z</time></trkpt><trkpt lat="44.697909069081135" lon="10.112965647498116"><ele>144.0</ele><time>2026-03-28T15:58:38Z</time></trkpt><trkpt lat="44.69812933775564" lon="10.112998346706844"><ele>142.66666666666666</ele><time>2026-03-28T15:58:39Z</time></trkpt><trkpt lat="44.698351139959506" lon="10.113035299267978"><ele>141.33333333333331</ele><time>2026-03-28T15:58:40Z</time></trkpt><trkpt lat="44.69856368843893" lon="10.113069432964743"><ele>140.0</ele><time>2026-03-28T15:58:41Z</time></trkpt><trkpt lat="44.69876801533871" lon="10.11310329454909"><ele>139.0</ele><time>2026-03-28T15:58:42Z</time></trkpt><trkpt lat="44.69897280608077" lon="10.113135023433957"><ele>138.0</ele><time>2026-03-28T15:58:43Z</time></trkpt><trkpt lat="44.69917599260668" lon="10.113179520152352"><ele>137.0</ele><time>2026-03-28T15:58:44Z</time></trkpt><trkpt lat="44.699364504795106" lon="10.113225993816235"><ele>138.33333333333331</ele><time>2026-03-28T15:58:45Z</time></trkpt><trkpt lat="44.69954670624075" lon="10.113279199959877"><ele>139.66666666666666</ele><time>2026-03-28T15:58:46Z</time></trkpt><trkpt lat="44.699707925650294" lon="10.11338844127823"><ele>141.0</ele><time>2026-03-28T15:58:47Z</time></trkpt><trkpt lat="44.69984652736153" lon="10.11350600084997"><ele>141.0</ele><time>2026-03-28T15:58:48Z</time></trkpt><trkpt lat="44.699950601177406" lon="10.11362984709108"><ele>141.0</ele><time>2026-03-28T15:58:49Z</time></trkpt><trkpt lat="44.69999972121346" lon="10.113700777527473"><ele>141.0</ele><time>2026-03-28T15:58:50Z</time></trkpt><trkpt lat="44.700063440782465" lon="10.113781256756571"><ele>141.0</ele><time>2026-03-28T15:58:52Z</time></trkpt><trkpt lat="44.70014317180884" lon="10.113926404424634"><ele>141.0</ele><time>2026-03-28T15:58:54Z</time></trkpt><trkpt lat="44.700194142998484" lon="10.114058233961574"><ele>140.6</ele><time>2026-03-28T15:58:55Z</time></trkpt><trkpt lat="44.70024442538791" lon="10.114190042635334"><ele>140.2</ele><time>2026-03-28T15:58:56Z</time></trkpt><trkpt lat="44.70028387860854" lon="10.114319409863233"><ele>139.8</ele><time>2026-03-28T15:58:57Z</time></trkpt><trkpt lat="44.70032745696164" lon="10.11445527755957"><ele>139.4</ele><time>2026-03-28T15:58:58Z</time></trkpt><trkpt lat="44.700367330587916" lon="10.11462424096293"><ele>139.0</ele><time>2026-03-28T15:58:59Z</time></trkpt><trkpt lat="44.7003944320532" lon="10.114774022545571"><ele>139.0</ele><time>2026-03-28T15:59:00Z</time></trkpt><trkpt lat="44.70042596228895" lon="10.114894154083068"><ele>139.0</ele><time>2026-03-28T15:59:01Z</time></trkpt><trkpt lat="44.70046718158314" lon="10.115009378265697"><ele>139.0</ele><time>2026-03-28T15:59:02Z</time></trkpt><trkpt lat="44.700513482082464" lon="10.11516194367078"><ele>139.0</ele><time>2026-03-28T15:59:03Z</time></trkpt><trkpt lat="44.70055077331525" lon="10.115340707797303"><ele>139.0</ele><time>2026-03-28T15:59:04Z</time></trkpt><trkpt lat="44.70058117153653" lon="10.115539930081228"><ele>139.75</ele><time>2026-03-28T15:59:05Z</time></trkpt><trkpt lat="44.70060448914824" lon="10.115729132334991"><ele>140.5</ele><time>2026-03-28T15:59:06Z</time></trkpt><trkpt lat="44.70062118525043" lon="10.115900863814966"><ele>141.25</ele><time>2026-03-28T15:59:07Z</time></trkpt><trkpt lat="44.70063547621182" lon="10.11605552300991"><ele>142.0</ele><time>2026-03-28T15:59:08Z</time></trkpt><trkpt lat="44.7006535251703" lon="10.116232062339273"><ele>142.5</ele><time>2026-03-28T15:59:09Z</time></trkpt><trkpt lat="44.700671987301334" lon="10.116413645123666"><ele>143.0</ele><time>2026-03-28T15:59:10Z</time></trkpt><trkpt lat="44.700696730824646" lon="10.116597366693144"><ele>143.5</ele><time>2026-03-28T15:59:11Z</time></trkpt><trkpt lat="44.70072754495346" lon="10.11676948172987"><ele>144.0</ele><time>2026-03-28T15:59:12Z</time></trkpt><trkpt lat="44.70076743244638" lon="10.116905227074055"><ele>144.5</ele><time>2026-03-28T15:59:13Z</time></trkpt><trkpt lat="44.70080757937808" lon="10.117067769245615"><ele>145.0</ele><time>2026-03-28T15:59:14Z</time></trkpt><trkpt lat="44.700850176792244" lon="10.117250900695941"><ele>145.5</ele><time>2026-03-28T15:59:15Z</time></trkpt><trkpt lat="44.70088284852888" lon="10.1174167659529"><ele>146.0</ele><time>2026-03-28T15:59:16Z</time></trkpt><trkpt lat="44.70091781166293" lon="10.117591792956148"><ele>146.25</ele><time>2026-03-28T15:59:17Z</time></trkpt><trkpt lat="44.70094994194765" lon="10.117775285155757"><ele>146.5</ele><time>2026-03-28T15:59:18Z</time></trkpt><trkpt lat="44.70096747120363" lon="10.117936753406845"><ele>146.75</ele><time>2026-03-28T15:59:19Z</time></trkpt><trkpt lat="44.70097727680792" lon="10.118099474308773"><ele>147.0</ele><time>2026-03-28T15:59:20Z</time></trkpt><trkpt lat="44.70098239525155" lon="10.118255786297146"><ele>147.75</ele><time>2026-03-28T15:59:21Z</time></trkpt><trkpt lat="44.700990962011765" lon="10.118418999180387"><ele>148.5</ele><time>2026-03-28T15:59:22Z</time></trkpt><trkpt lat="44.70100295278487" lon="10.118579974799863"><ele>149.25</ele><time>2026-03-28T15:59:23Z</time></trkpt><trkpt lat="44.70101399384395" lon="10.118736729825285"><ele>150.0</ele><time>2026-03-28T15:59:24Z</time></trkpt><trkpt lat="44.70102818022192" lon="10.118893480282393"><ele>150.0</ele><time>2026-03-28T15:59:25Z</time></trkpt><trkpt lat="44.70103791091188" lon="10.119050738288658"><ele>150.0</ele><time>2026-03-28T15:59:26Z</time></trkpt><trkpt lat="44.70104292557183" lon="10.119206309152474"><ele>150.0</ele><time>2026-03-28T15:59:27Z</time></trkpt><trkpt lat="44.70104662490483" lon="10.119355000234588"><ele>150.0</ele><time>2026-03-28T15:59:28Z</time></trkpt><trkpt lat="44.70104927777581" lon="10.119528750547525"><ele>149.5</ele><time>2026-03-28T15:59:29Z</time></trkpt><trkpt lat="44.70104123260576" lon="10.119709235353131"><ele>149.0</ele><time>2026-03-28T15:59:30Z</time></trkpt><trkpt lat="44.70101364536388" lon="10.119907193373086"><ele>148.5</ele><time>2026-03-28T15:59:31Z</time></trkpt><trkpt lat="44.700969688484726" lon="10.120085741848463"><ele>148.0</ele><time>2026-03-28T15:59:32Z</time></trkpt><trkpt lat="44.70091911436414" lon="10.12026422732054"><ele>147.25</ele><time>2026-03-28T15:59:33Z</time></trkpt><trkpt lat="44.70087227715496" lon="10.120447740056065"><ele>146.5</ele><time>2026-03-28T15:59:34Z</time></trkpt><trkpt lat="44.70083825125544" lon="10.120635175391506"><ele>145.75</ele><time>2026-03-28T15:59:35Z</time></trkpt><trkpt lat="44.700816087188265" lon="10.120833687751473"><ele>145.0</ele><time>2026-03-28T15:59:36Z</time></trkpt><trkpt lat="44.700799461075064" lon="10.121054167610861"><ele>143.0</ele><time>2026-03-28T15:59:37Z</time></trkpt><trkpt lat="44.70079455141197" lon="10.121288820538958"><ele>141.0</ele><time>2026-03-28T15:59:38Z</time></trkpt><trkpt lat="44.70081317554582" lon="10.121505081164397"><ele>139.0</ele><time>2026-03-28T15:59:39Z</time></trkpt><trkpt lat="44.700839954164714" lon="10.12170248696473"><ele>139.25</ele><time>2026-03-28T15:59:40Z</time></trkpt><trkpt lat="44.700872254896076" lon="10.121896365233734"><ele>139.5</ele><time>2026-03-28T15:59:41Z</time></trkpt><trkpt lat="44.70091006211221" lon="10.122078119627309"><ele>139.75</ele><time>2026-03-28T15:59:42Z</time></trkpt><trkpt lat="44.70095063136458" lon="10.122250094416893"><ele>140.0</ele><time>2026-03-28T15:59:43Z</time></trkpt><trkpt lat="44.70099188893615" lon="10.122421240366451"><ele>140.0</ele><time>2026-03-28T15:59:44Z</time></trkpt><trkpt lat="44.701033914085386" lon="10.122576792995703"><ele>140.0</ele><time>2026-03-28T15:59:45Z</time></trkpt><trkpt lat="44.70107476064799" lon="10.122706309746789"><ele>140.0</ele><time>2026-03-28T15:59:46Z</time></trkpt><trkpt lat="44.70110694120343" lon="10.122807260010184"><ele>140.0</ele><time>2026-03-28T15:59:47Z</time></trkpt><trkpt lat="44.70114876334765" lon="10.122939804895328"><ele>140.0</ele><time>2026-03-28T15:59:49Z</time></trkpt><trkpt lat="44.70119389281236" lon="10.123071723706317"><ele>140.4</ele><time>2026-03-28T15:59:57.999Z</time></trkpt><trkpt lat="44.701233095848316" lon="10.123180186171687"><ele>140.8</ele><time>2026-03-28T15:59:59.999Z</time></trkpt><trkpt lat="44.70126359657713" lon="10.123266698319819"><ele>141.2</ele><time>2026-03-28T16:00:00.999Z</time></trkpt><trkpt lat="44.70130253534144" lon="10.123363070504709"><ele>141.6</ele><time>2026-03-28T16:00:01.999Z</time></trkpt><trkpt lat="44.70134363646635" lon="10.123509176117611"><ele>142.0</ele><time>2026-03-28T16:00:02.999Z</time></trkpt><trkpt lat="44.701404069181116" lon="10.123674679392627"><ele>143.0</ele><time>2026-03-28T16:00:03.999Z</time></trkpt><trkpt lat="44.701479592326955" lon="10.123822368709476"><ele>144.0</ele><time>2026-03-28T16:00:04.999Z</time></trkpt><trkpt lat="44.70153410536759" lon="10.123979655370304"><ele>145.0</ele><time>2026-03-28T16:00:05.999Z</time></trkpt><trkpt lat="44.70160808154641" lon="10.124137473300364"><ele>146.0</ele><time>2026-03-28T16:00:06.999Z</time></trkpt><trkpt lat="44.70167145232095" lon="10.124267154749381"><ele>146.0</ele><time>2026-03-28T16:00:07.999Z</time></trkpt><trkpt lat="44.70172991805814" lon="10.124394196771417"><ele>146.0</ele><time>2026-03-28T16:00:08.999Z</time></trkpt><trkpt lat="44.70180113736661" lon="10.124542042062153"><ele>146.0</ele><time>2026-03-28T16:00:09.999Z</time></trkpt><trkpt lat="44.701876468241956" lon="10.124702976142935"><ele>146.0</ele><time>2026-03-28T16:00:10.999Z</time></trkpt><trkpt lat="44.701954192544505" lon="10.124869744664975"><ele>145.0</ele><time>2026-03-28T16:00:11.999Z</time></trkpt><trkpt lat="44.702032453962126" lon="10.125056265147508"><ele>144.0</ele><time>2026-03-28T16:00:12.999Z</time></trkpt><trkpt lat="44.70210866235204" lon="10.125236993105416"><ele>143.0</ele><time>2026-03-28T16:00:13.999Z</time></trkpt><trkpt lat="44.70219807516128" lon="10.125425962603087"><ele>143.0</ele><time>2026-03-28T16:00:14.999Z</time></trkpt><trkpt lat="44.7022750577835" lon="10.125608903443817"><ele>143.0</ele><time>2026-03-28T16:00:15.999Z</time></trkpt><trkpt lat="44.70234962235964" lon="10.125772710383002"><ele>143.0</ele><time>2026-03-28T16:00:16.999Z</time></trkpt><trkpt lat="44.702423067397845" lon="10.125919205322756"><ele>143.0</ele><time>2026-03-28T16:00:17.999Z</time></trkpt><trkpt lat="44.70249233183426" lon="10.12605824403456"><ele>143.33333333333331</ele><time>2026-03-28T16:00:18.999Z</time></trkpt><trkpt lat="44.70255138126537" lon="10.126191493833131"><ele>143.66666666666666</ele><time>2026-03-28T16:00:19.999Z</time></trkpt><trkpt lat="44.70259759201417" lon="10.126288662311374"><ele>144.0</ele><time>2026-03-28T16:00:20.999Z</time></trkpt><trkpt lat="44.70262961017759" lon="10.126368949077914"><ele>144.33333333333334</ele><time>2026-03-28T16:00:21.999Z</time></trkpt><trkpt lat="44.70263752264517" lon="10.126466853212914"><ele>144.66666666666669</ele><time>2026-03-28T16:00:22.999Z</time></trkpt><trkpt lat="44.70262592699868" lon="10.12656147118882"><ele>145.0</ele><time>2026-03-28T16:00:23.999Z</time></trkpt><trkpt lat="44.70263005219577" lon="10.126655883441176"><ele>145.0</ele><time>2026-03-28T16:00:24.999Z</time></trkpt><trkpt lat="44.702665391029214" lon="10.126731961762626"><ele>145.0</ele><time>2026-03-28T16:00:25.999Z</time></trkpt><trkpt lat="44.70272312060263" lon="10.12679017877925"><ele>145.0</ele><time>2026-03-28T16:00:26.999Z</time></trkpt><trkpt lat="44.702809731821176" lon="10.12686405906007"><ele>145.0</ele><time>2026-03-28T16:00:27.999Z</time></trkpt><trkpt lat="44.70291373442963" lon="10.126995523800636"><ele>145.0</ele><time>2026-03-28T16:00:28.999Z</time></trkpt><trkpt lat="44.703008263374805" lon="10.127202140136236"><ele>144.33333333333334</ele><time>2026-03-28T16:00:29.999Z</time></trkpt><trkpt lat="44.703104256099934" lon="10.12744387791417"><ele>143.66666666666666</ele><time>2026-03-28T16:00:31Z</time></trkpt><trkpt lat="44.703216538284146" lon="10.127700741274944"><ele>143.0</ele><time>2026-03-28T16:00:32Z</time></trkpt><trkpt lat="44.7033369245109" lon="10.127963584238925"><ele>143.0</ele><time>2026-03-28T16:00:33Z</time></trkpt><trkpt lat="44.703446528122456" lon="10.128205741827166"><ele>143.0</ele><time>2026-03-28T16:00:34Z</time></trkpt><trkpt lat="44.703561240502985" lon="10.128458221256352"><ele>143.0</ele><time>2026-03-28T16:00:35Z</time></trkpt><trkpt lat="44.70368066582813" lon="10.128711488391973"><ele>142.0</ele><time>2026-03-28T16:00:36Z</time></trkpt><trkpt lat="44.703796727175714" lon="10.128964859679115"><ele>141.0</ele><time>2026-03-28T16:00:37Z</time></trkpt><trkpt lat="44.70391110468407" lon="10.129220976657345"><ele>140.0</ele><time>2026-03-28T16:00:38Z</time></trkpt><trkpt lat="44.704028098288305" lon="10.129478053664954"><ele>140.0</ele><time>2026-03-28T16:00:39Z</time></trkpt><trkpt lat="44.70414687349601" lon="10.129733088464958"><ele>140.0</ele><time>2026-03-28T16:00:40Z</time></trkpt><trkpt lat="44.70426674060379" lon="10.129987728328256"><ele>140.0</ele><time>2026-03-28T16:00:41Z</time></trkpt><trkpt lat="44.7043910275512" lon="10.130240963621018"><ele>139.33333333333331</ele><time>2026-03-28T16:00:42Z</time></trkpt><trkpt lat="44.70451595201371" lon="10.130490705083863"><ele>138.66666666666666</ele><time>2026-03-28T16:00:43Z</time></trkpt><trkpt lat="44.704641106974066" lon="10.13074300085686"><ele>138.0</ele><time>2026-03-28T16:00:44Z</time></trkpt><trkpt lat="44.704764306107286" lon="10.130996115839556"><ele>138.0</ele><time>2026-03-28T16:00:45Z</time></trkpt><trkpt lat="44.704891394769106" lon="10.131253098344407"><ele>138.0</ele><time>2026-03-28T16:00:46Z</time></trkpt><trkpt lat="44.70502915307695" lon="10.131530982703103"><ele>139.0</ele><time>2026-03-28T16:00:47Z</time></trkpt><trkpt lat="44.70516618721011" lon="10.131809619769626"><ele>140.0</ele><time>2026-03-28T16:00:48Z</time></trkpt><trkpt lat="44.70530670919571" lon="10.132097144911425"><ele>140.0</ele><time>2026-03-28T16:00:49Z</time></trkpt><trkpt lat="44.70543859683136" lon="10.132374960481014"><ele>140.0</ele><time>2026-03-28T16:00:50Z</time></trkpt><trkpt lat="44.70556854729719" lon="10.132646766579478"><ele>140.66666666666666</ele><time>2026-03-28T16:00:51Z</time></trkpt><trkpt lat="44.70569751958726" lon="10.132904929247331"><ele>141.33333333333334</ele><time>2026-03-28T16:00:52Z</time></trkpt><trkpt lat="44.705827074881014" lon="10.13315148753799"><ele>142.0</ele><time>2026-03-28T16:00:53Z</time></trkpt><trkpt lat="44.705949175146195" lon="10.133390429505921"><ele>142.0</ele><time>2026-03-28T16:00:54Z</time></trkpt><trkpt lat="44.70606494369782" lon="10.13362133461773"><ele>142.0</ele><time>2026-03-28T16:00:55Z</time></trkpt><trkpt lat="44.706179359334996" lon="10.13384368428074"><ele>142.0</ele><time>2026-03-28T16:00:56Z</time></trkpt><trkpt lat="44.70630248259901" lon="10.134064125687729"><ele>142.33333333333334</ele><time>2026-03-28T16:00:57Z</time></trkpt><trkpt lat="44.7064310386065" lon="10.134284018214855"><ele>142.66666666666666</ele><time>2026-03-28T16:00:58Z</time></trkpt><trkpt lat="44.70655660628856" lon="10.134510451729817"><ele>143.0</ele><time>2026-03-28T16:00:59Z</time></trkpt><trkpt lat="44.706678776185456" lon="10.134743294855244"><ele>142.0</ele><time>2026-03-28T16:01:00Z</time></trkpt><trkpt lat="44.70680329264057" lon="10.134976589145722"><ele>141.0</ele><time>2026-03-28T16:01:01Z</time></trkpt><trkpt lat="44.70692552247848" lon="10.1352060125249"><ele>140.0</ele><time>2026-03-28T16:01:02Z</time></trkpt><trkpt lat="44.70704775891458" lon="10.135435774733644"><ele>138.66666666666666</ele><time>2026-03-28T16:01:03Z</time></trkpt><trkpt lat="44.70716952131274" lon="10.135663529681453"><ele>137.33333333333334</ele><time>2026-03-28T16:01:04Z</time></trkpt><trkpt lat="44.7072945363194" lon="10.135896554233694"><ele>136.0</ele><time>2026-03-28T16:01:05Z</time></trkpt><trkpt lat="44.70741407626098" lon="10.136123146960466"><ele>136.0</ele><time>2026-03-28T16:01:06Z</time></trkpt><trkpt lat="44.707536302071375" lon="10.136351110459513"><ele>136.0</ele><time>2026-03-28T16:01:07Z</time></trkpt><trkpt lat="44.70765575402202" lon="10.136576605099886"><ele>136.0</ele><time>2026-03-28T16:01:08Z</time></trkpt><trkpt lat="44.70777550370906" lon="10.136798759490981"><ele>136.66666666666669</ele><time>2026-03-28T16:01:09Z</time></trkpt><trkpt lat="44.70789104730298" lon="10.13701377584893"><ele>137.33333333333334</ele><time>2026-03-28T16:01:10Z</time></trkpt><trkpt lat="44.708008877540664" lon="10.137232375911651"><ele>138.0</ele><time>2026-03-28T16:01:11Z</time></trkpt><trkpt lat="44.708121076987055" lon="10.137441231443209"><ele>138.33333333333334</ele><time>2026-03-28T16:01:12Z</time></trkpt><trkpt lat="44.708228318415955" lon="10.13764332162289"><ele>138.66666666666669</ele><time>2026-03-28T16:01:13Z</time></trkpt><trkpt lat="44.708336831009625" lon="10.13784429114472"><ele>139.0</ele><time>2026-03-28T16:01:14Z</time></trkpt><trkpt lat="44.708438074150756" lon="10.138039383828932"><ele>139.33333333333334</ele><time>2026-03-28T16:01:15Z</time></trkpt><trkpt lat="44.70853788700969" lon="10.138232471864852"><ele>139.66666666666666</ele><time>2026-03-28T16:01:16Z</time></trkpt><trkpt lat="44.70863980971904" lon="10.138425802754012"><ele>140.0</ele><time>2026-03-28T16:01:17Z</time></trkpt><trkpt lat="44.70874366226791" lon="10.1386203175435"><ele>139.66666666666666</ele><time>2026-03-28T16:01:18Z</time></trkpt><trkpt lat="44.70884760565989" lon="10.1388105831573"><ele>139.33333333333334</ele><time>2026-03-28T16:01:19Z</time></trkpt><trkpt lat="44.70894767595891" lon="10.138993293149435"><ele>139.0</ele><time>2026-03-28T16:01:20Z</time></trkpt><trkpt lat="44.709042444181044" lon="10.139170584748985"><ele>139.0</ele><time>2026-03-28T16:01:21Z</time></trkpt><trkpt lat="44.70913121186075" lon="10.139342106098391"><ele>139.0</ele><time>2026-03-28T16:01:22Z</time></trkpt><trkpt lat="44.709224778935685" lon="10.13951892355663"><ele>139.0</ele><time>2026-03-28T16:01:23Z</time></trkpt><trkpt lat="44.70932706769577" lon="10.139674421411211"><ele>138.0</ele><time>2026-03-28T16:01:24Z</time></trkpt><trkpt lat="44.709435013585065" lon="10.139817388200749"><ele>137.0</ele><time>2026-03-28T16:01:25Z</time></trkpt><trkpt lat="44.709542993392624" lon="10.1399464109065"><ele>136.0</ele><time>2026-03-28T16:01:26Z</time></trkpt><trkpt lat="44.70964805721241" lon="10.140063470597498"><ele>135.0</ele><time>2026-03-28T16:01:27Z</time></trkpt><trkpt lat="44.7097501082513" lon="10.140175875736025"><ele>135.0</ele><time>2026-03-28T16:01:28Z</time></trkpt><trkpt lat="44.709865171016354" lon="10.14029072954807"><ele>135.0</ele><time>2026-03-28T16:01:29Z</time></trkpt><trkpt lat="44.70996881886196" lon="10.14040874839204"><ele>135.0</ele><time>2026-03-28T16:01:30Z</time></trkpt><trkpt lat="44.71007103167172" lon="10.140518547850238"><ele>135.0</ele><time>2026-03-28T16:01:31Z</time></trkpt><trkpt lat="44.710173266657065" lon="10.14063607815298"><ele>134.25</ele><time>2026-03-28T16:01:32Z</time></trkpt><trkpt lat="44.71028124670727" lon="10.140756383512985"><ele>133.5</ele><time>2026-03-28T16:01:33Z</time></trkpt><trkpt lat="44.71038695425761" lon="10.140887592708467"><ele>132.75</ele><time>2026-03-28T16:01:34Z</time></trkpt><trkpt lat="44.710487534958155" lon="10.141028297498845"><ele>132.0</ele><time>2026-03-28T16:01:35Z</time></trkpt><trkpt lat="44.71058545266748" lon="10.141175639589333"><ele>132.0</ele><time>2026-03-28T16:01:36Z</time></trkpt><trkpt lat="44.71067808956551" lon="10.141320841098453"><ele>132.0</ele><time>2026-03-28T16:01:37Z</time></trkpt><trkpt lat="44.710765597268086" lon="10.141465100810901"><ele>132.0</ele><time>2026-03-28T16:01:38Z</time></trkpt><trkpt lat="44.71084927045714" lon="10.141608309244873"><ele>132.0</ele><time>2026-03-28T16:01:39Z</time></trkpt><trkpt lat="44.71093139008475" lon="10.141753134452546"><ele>132.25</ele><time>2026-03-28T16:01:40Z</time></trkpt><trkpt lat="44.711017052949785" lon="10.141882880398748"><ele>132.5</ele><time>2026-03-28T16:01:41Z</time></trkpt><trkpt lat="44.711112834871244" lon="10.142012565337597"><ele>132.75</ele><time>2026-03-28T16:01:42Z</time></trkpt><trkpt lat="44.71121162604037" lon="10.142156856466363"><ele>133.0</ele><time>2026-03-28T16:01:43Z</time></trkpt><trkpt lat="44.71132417129434" lon="10.142285579889137"><ele>133.5</ele><time>2026-03-28T16:01:44Z</time></trkpt><trkpt lat="44.71144310467313" lon="10.142412952817688"><ele>134.0</ele><time>2026-03-28T16:01:45Z</time></trkpt><trkpt lat="44.71149929746679" lon="10.142494818110048"><ele>134.5</ele><time>2026-03-28T16:01:46Z</time></trkpt><trkpt lat="44.7116047748406" lon="10.142601692085954"><ele>135.0</ele><time>2026-03-28T16:01:47Z</time></trkpt><trkpt lat="44.71171211959504" lon="10.1427235524031"><ele>135.0</ele><time>2026-03-28T16:01:48Z</time></trkpt><trkpt lat="44.71182398538266" lon="10.142844020173511"><ele>135.0</ele><time>2026-03-28T16:01:49Z</time></trkpt><trkpt lat="44.71194111371072" lon="10.142959025643542"><ele>135.0</ele><time>2026-03-28T16:01:50Z</time></trkpt><trkpt lat="44.71205384805834" lon="10.143076973249613"><ele>135.0</ele><time>2026-03-28T16:01:51Z</time></trkpt><trkpt lat="44.71215635165593" lon="10.143189018887453"><ele>134.75</ele><time>2026-03-28T16:01:52Z</time></trkpt><trkpt lat="44.712257092289484" lon="10.143292227968761"><ele>134.5</ele><time>2026-03-28T16:01:52.999Z</time></trkpt><trkpt lat="44.712347780260146" lon="10.143397639949058"><ele>134.25</ele><time>2026-03-28T16:01:53.999Z</time></trkpt><trkpt lat="44.71243474895261" lon="10.143497032395027"><ele>134.0</ele><time>2026-03-28T16:01:54.999Z</time></trkpt><trkpt lat="44.71251627616049" lon="10.143591570728594"><ele>134.0</ele><time>2026-03-28T16:01:55.999Z</time></trkpt><trkpt lat="44.712603168771274" lon="10.143692479659032"><ele>134.0</ele><time>2026-03-28T16:01:56.999Z</time></trkpt><trkpt lat="44.71267750909599" lon="10.143802425963392"><ele>134.0</ele><time>2026-03-28T16:01:57.999Z</time></trkpt><trkpt lat="44.71274400298888" lon="10.143934152173385"><ele>134.0</ele><time>2026-03-28T16:01:58.999Z</time></trkpt><trkpt lat="44.712803238813365" lon="10.144090090062646"><ele>133.0</ele><time>2026-03-28T16:01:59.999Z</time></trkpt><trkpt lat="44.71286397650187" lon="10.144262393922732"><ele>132.0</ele><time>2026-03-28T16:02:00.999Z</time></trkpt><trkpt lat="44.71293388473612" lon="10.14443024688256"><ele>131.0</ele><time>2026-03-28T16:02:01.999Z</time></trkpt><trkpt lat="44.71300905201171" lon="10.144599423173966"><ele>130.0</ele><time>2026-03-28T16:02:02.999Z</time></trkpt><trkpt lat="44.71308815538101" lon="10.144777908320915"><ele>130.33333333333334</ele><time>2026-03-28T16:02:03.999Z</time></trkpt><trkpt lat="44.713167566768334" lon="10.144961941693351"><ele>130.66666666666666</ele><time>2026-03-28T16:02:04.999Z</time></trkpt><trkpt lat="44.71326033630433" lon="10.145173291148671"><ele>131.0</ele><time>2026-03-28T16:02:05.999Z</time></trkpt><trkpt lat="44.71337009823009" lon="10.14542686184385"><ele>131.0</ele><time>2026-03-28T16:02:06.999Z</time></trkpt><trkpt lat="44.71349620787583" lon="10.145726939525398"><ele>131.0</ele><time>2026-03-28T16:02:07.999Z</time></trkpt><trkpt lat="44.713617461516456" lon="10.145992322085135"><ele>131.0</ele><time>2026-03-28T16:02:08.999Z</time></trkpt><trkpt lat="44.7137294753516" lon="10.146232065896157"><ele>131.0</ele><time>2026-03-28T16:02:09.999Z</time></trkpt><trkpt lat="44.713833233497105" lon="10.146449298515831"><ele>131.0</ele><time>2026-03-28T16:02:10.999Z</time></trkpt><trkpt lat="44.71393315262282" lon="10.146659826917112"><ele>131.0</ele><time>2026-03-28T16:02:11.999Z</time></trkpt><trkpt lat="44.71403135195597" lon="10.146865211098401"><ele>131.0</ele><time>2026-03-28T16:02:12.999Z</time></trkpt><trkpt lat="44.7141329287792" lon="10.14707642967264"><ele>131.0</ele><time>2026-03-28T16:02:13.999Z</time></trkpt><trkpt lat="44.71423646455463" lon="10.147293447402506"><ele>131.0</ele><time>2026-03-28T16:02:14.999Z</time></trkpt><trkpt lat="44.71434217713423" lon="10.147509771854542"><ele>131.0</ele><time>2026-03-28T16:02:15.999Z</time></trkpt><trkpt lat="44.714450676597814" lon="10.147724648918762"><ele>131.0</ele><time>2026-03-28T16:02:16.999Z</time></trkpt><trkpt lat="44.71456871565453" lon="10.147956223873122"><ele>129.66666666666666</ele><time>2026-03-28T16:02:17.999Z</time></trkpt><trkpt lat="44.71466301744649" lon="10.14815718065679"><ele>128.33333333333334</ele><time>2026-03-28T16:02:18.999Z</time></trkpt><trkpt lat="44.71474142482374" lon="10.148353473453694"><ele>127.0</ele><time>2026-03-28T16:02:19.999Z</time></trkpt><trkpt lat="44.71480838694125" lon="10.148570844155426"><ele>127.0</ele><time>2026-03-28T16:02:20.999Z</time></trkpt><trkpt lat="44.71487058485446" lon="10.148806011558294"><ele>127.0</ele><time>2026-03-28T16:02:21.999Z</time></trkpt><trkpt lat="44.71492801734568" lon="10.149049178050177"><ele>127.0</ele><time>2026-03-28T16:02:22.999Z</time></trkpt><trkpt lat="44.71498678834302" lon="10.149287612304862"><ele>127.33333333333334</ele><time>2026-03-28T16:02:23.999Z</time></trkpt><trkpt lat="44.715047957391484" lon="10.149519657393558"><ele>127.66666666666666</ele><time>2026-03-28T16:02:24.999Z</time></trkpt><trkpt lat="44.715104750704306" lon="10.149743565055893"><ele>128.0</ele><time>2026-03-28T16:02:25.999Z</time></trkpt><trkpt lat="44.71516491360407" lon="10.149966880002793"><ele>127.66666666666666</ele><time>2026-03-28T16:02:26.999Z</time></trkpt><trkpt lat="44.715230156073076" lon="10.150196813956907"><ele>127.33333333333334</ele><time>2026-03-28T16:02:27.999Z</time></trkpt><trkpt lat="44.71530121986642" lon="10.150437982428592"><ele>127.0</ele><time>2026-03-28T16:02:28.999Z</time></trkpt><trkpt lat="44.71538905192746" lon="10.150673436507534"><ele>127.66666666666667</ele><time>2026-03-28T16:02:29.999Z</time></trkpt><trkpt lat="44.71550267618387" lon="10.150902758800479"><ele>128.33333333333334</ele><time>2026-03-28T16:02:30.999Z</time></trkpt><trkpt lat="44.71562318499361" lon="10.151110391032017"><ele>129.0</ele><time>2026-03-28T16:02:31.999Z</time></trkpt><trkpt lat="44.715773153962694" lon="10.151352893805845"><ele>130.0</ele><time>2026-03-28T16:02:32.999Z</time></trkpt><trkpt lat="44.71591886322419" lon="10.151658343733205"><ele>131.0</ele><time>2026-03-28T16:02:33.999Z</time></trkpt><trkpt lat="44.71609763866018" lon="10.151977581964855"><ele>132.0</ele><time>2026-03-28T16:02:34.999Z</time></trkpt><trkpt lat="44.71627741176071" lon="10.15234835184258"><ele>133.0</ele><time>2026-03-28T16:02:35.999Z</time></trkpt><trkpt lat="44.71640147237515" lon="10.152633342862005"><ele>133.0</ele><time>2026-03-28T16:02:37Z</time></trkpt><trkpt lat="44.71645953929387" lon="10.15287194708691"><ele>133.0</ele><time>2026-03-28T16:02:38Z</time></trkpt><trkpt lat="44.71671383167139" lon="10.153199033223755"><ele>132.0</ele><time>2026-03-28T16:02:39Z</time></trkpt><trkpt lat="44.716840662314965" lon="10.153456808091297"><ele>131.0</ele><time>2026-03-28T16:02:40Z</time></trkpt><trkpt lat="44.71694177131614" lon="10.15369851190082"><ele>130.0</ele><time>2026-03-28T16:02:41Z</time></trkpt><trkpt lat="44.71704227084766" lon="10.153974169161703"><ele>129.5</ele><time>2026-03-28T16:02:42Z</time></trkpt><trkpt lat="44.71714747607821" lon="10.15427668177499"><ele>129.0</ele><time>2026-03-28T16:02:43Z</time></trkpt><trkpt lat="44.7172574540153" lon="10.15458820665011"><ele>128.0</ele><time>2026-03-28T16:02:44Z</time></trkpt><trkpt lat="44.717365867068665" lon="10.15489807550474"><ele>127.0</ele><time>2026-03-28T16:02:45Z</time></trkpt><trkpt lat="44.71747965405953" lon="10.155204592089758"><ele>127.0</ele><time>2026-03-28T16:02:46Z</time></trkpt><trkpt lat="44.71759897900402" lon="10.155512839363775"><ele>127.0</ele><time>2026-03-28T16:02:47Z</time></trkpt><trkpt lat="44.71770838242479" lon="10.15581278282359"><ele>127.0</ele><time>2026-03-28T16:02:48Z</time></trkpt><trkpt lat="44.71780987576722" lon="10.156100674500765"><ele>127.0</ele><time>2026-03-28T16:02:49Z</time></trkpt><trkpt lat="44.7179039143096" lon="10.15636372393491"><ele>127.0</ele><time>2026-03-28T16:02:50Z</time></trkpt><trkpt lat="44.71799291431146" lon="10.156612688147307"><ele>127.33333333333334</ele><time>2026-03-28T16:02:51Z</time></trkpt><trkpt lat="44.718084279405595" lon="10.156870110431212"><ele>127.66666666666666</ele><time>2026-03-28T16:02:52Z</time></trkpt><trkpt lat="44.7181923367758" lon="10.157141387345053"><ele>128.0</ele><time>2026-03-28T16:02:53Z</time></trkpt><trkpt lat="44.71831688002429" lon="10.1574523768907"><ele>127.0</ele><time>2026-03-28T16:02:54Z</time></trkpt><trkpt lat="44.71843272004779" lon="10.157805145041257"><ele>126.0</ele><time>2026-03-28T16:02:55Z</time></trkpt><trkpt lat="44.71855261386479" lon="10.158174505992468"><ele>124.0</ele><time>2026-03-28T16:02:56Z</time></trkpt><trkpt lat="44.71868873887239" lon="10.158542028419685"><ele>122.0</ele><time>2026-03-28T16:02:57Z</time></trkpt><trkpt lat="44.71883071361869" lon="10.158911621233422"><ele>121.5</ele><time>2026-03-28T16:02:58Z</time></trkpt><trkpt lat="44.71896893560809" lon="10.15928301958489"><ele>121.0</ele><time>2026-03-28T16:02:59Z</time></trkpt><trkpt lat="44.719101547282605" lon="10.159657548885678"><ele>122.5</ele><time>2026-03-28T16:03:00Z</time></trkpt><trkpt lat="44.719233234396896" lon="10.160034882825146"><ele>124.0</ele><time>2026-03-28T16:03:01Z</time></trkpt><trkpt lat="44.71936287370932" lon="10.16041289883992"><ele>122.5</ele><time>2026-03-28T16:03:02Z</time></trkpt><trkpt lat="44.719494173356026" lon="10.160792758465396"><ele>121.0</ele><time>2026-03-28T16:03:03Z</time></trkpt><trkpt lat="44.7196387957435" lon="10.16119054505909"><ele>122.0</ele><time>2026-03-28T16:03:04Z</time></trkpt><trkpt lat="44.719785236137696" lon="10.161627141069996"><ele>123.0</ele><time>2026-03-28T16:03:05Z</time></trkpt><trkpt lat="44.71991889431341" lon="10.162059086263879"><ele>123.5</ele><time>2026-03-28T16:03:06Z</time></trkpt><trkpt lat="44.72006425947259" lon="10.162521392461114"><ele>124.0</ele><time>2026-03-28T16:03:07Z</time></trkpt><trkpt lat="44.72021749157151" lon="10.16298995819255"><ele>122.5</ele><time>2026-03-28T16:03:08Z</time></trkpt><trkpt lat="44.720373765329406" lon="10.163465172677876"><ele>121.0</ele><time>2026-03-28T16:03:09Z</time></trkpt><trkpt lat="44.72052635928098" lon="10.163923670952023"><ele>120.5</ele><time>2026-03-28T16:03:10Z</time></trkpt><trkpt lat="44.72066963858733" lon="10.164368085466592"><ele>120.0</ele><time>2026-03-28T16:03:11Z</time></trkpt><trkpt lat="44.72080790807326" lon="10.164810247822478"><ele>119.5</ele><time>2026-03-28T16:03:12Z</time></trkpt><trkpt lat="44.72094598095476" lon="10.165258315148206"><ele>119.0</ele><time>2026-03-28T16:03:13Z</time></trkpt><trkpt lat="44.72107300129765" lon="10.16569993131661"><ele>118.5</ele><time>2026-03-28T16:03:14Z</time></trkpt><trkpt lat="44.72118486483628" lon="10.166096056907856"><ele>118.0</ele><time>2026-03-28T16:03:15Z</time></trkpt><trkpt lat="44.72128761699481" lon="10.166463290871146"><ele>117.5</ele><time>2026-03-28T16:03:16Z</time></trkpt><trkpt lat="44.7213878045102" lon="10.166813182790328"><ele>117.0</ele><time>2026-03-28T16:03:17Z</time></trkpt><trkpt lat="44.72149142890354" lon="10.167169447051075"><ele>117.5</ele><time>2026-03-28T16:03:18Z</time></trkpt><trkpt lat="44.72160883455409" lon="10.16752235418438"><ele>118.0</ele><time>2026-03-28T16:03:19Z</time></trkpt><trkpt lat="44.72174818687014" lon="10.167890946444544"><ele>119.5</ele><time>2026-03-28T16:03:20Z</time></trkpt><trkpt lat="44.7218940093575" lon="10.16824142765633"><ele>121.0</ele><time>2026-03-28T16:03:21Z</time></trkpt><trkpt lat="44.72202551047652" lon="10.168567814705712"><ele>121.0</ele><time>2026-03-28T16:03:22Z</time></trkpt><trkpt lat="44.72215347399732" lon="10.16889269467792"><ele>121.0</ele><time>2026-03-28T16:03:23Z</time></trkpt><trkpt lat="44.72227191000402" lon="10.169208823433411"><ele>120.0</ele><time>2026-03-28T16:03:24Z</time></trkpt><trkpt lat="44.722387469839724" lon="10.169502728018122"><ele>119.0</ele><time>2026-03-28T16:03:25Z</time></trkpt><trkpt lat="44.72250100603379" lon="10.169784697205621"><ele>119.0</ele><time>2026-03-28T16:03:26Z</time></trkpt><trkpt lat="44.72261044956657" lon="10.170066028228058"><ele>119.0</ele><time>2026-03-28T16:03:27Z</time></trkpt><trkpt lat="44.72271806751217" lon="10.170345890801949"><ele>118.0</ele><time>2026-03-28T16:03:28Z</time></trkpt><trkpt lat="44.722828482195304" lon="10.170628016376416"><ele>117.0</ele><time>2026-03-28T16:03:29Z</time></trkpt><trkpt lat="44.72293513865196" lon="10.170908187005821"><ele>117.0</ele><time>2026-03-28T16:03:30Z</time></trkpt><trkpt lat="44.723038607407496" lon="10.171176645299097"><ele>117.0</ele><time>2026-03-28T16:03:31Z</time></trkpt><trkpt lat="44.72313928371491" lon="10.171435333692479"><ele>117.0</ele><time>2026-03-28T16:03:32Z</time></trkpt><trkpt lat="44.72323730648272" lon="10.171682692155429"><ele>117.33333333333334</ele><time>2026-03-28T16:03:33Z</time></trkpt><trkpt lat="44.72333564018089" lon="10.171932839714934"><ele>117.66666666666667</ele><time>2026-03-28T16:03:34Z</time></trkpt><trkpt lat="44.723431272075224" lon="10.17216942991075"><ele>118.0</ele><time>2026-03-28T16:03:35Z</time></trkpt><trkpt lat="44.72352491664095" lon="10.172397859184727"><ele>118.0</ele><time>2026-03-28T16:03:36Z</time></trkpt><trkpt lat="44.72361341818084" lon="10.172626895887502"><ele>118.0</ele><time>2026-03-28T16:03:37Z</time></trkpt><trkpt lat="44.72369742516698" lon="10.17282379918759"><ele>118.0</ele><time>2026-03-28T16:03:38Z</time></trkpt><trkpt lat="44.723775280033664" lon="10.172990993030487"><ele>118.0</ele><time>2026-03-28T16:03:39Z</time></trkpt><trkpt lat="44.72384554450639" lon="10.173148527662242"><ele>118.0</ele><time>2026-03-28T16:03:40Z</time></trkpt><trkpt lat="44.723909646985334" lon="10.173306168887704"><ele>118.0</ele><time>2026-03-28T16:03:41Z</time></trkpt><trkpt lat="44.72397520690485" lon="10.173473284678813"><ele>118.0</ele><time>2026-03-28T16:03:42Z</time></trkpt><trkpt lat="44.72403521419691" lon="10.173642240144872"><ele>118.0</ele><time>2026-03-28T16:03:43Z</time></trkpt><trkpt lat="44.72409378566221" lon="10.173797887007549"><ele>118.0</ele><time>2026-03-28T16:03:44Z</time></trkpt><trkpt lat="44.72414754308761" lon="10.173951927015242"><ele>118.0</ele><time>2026-03-28T16:03:45Z</time></trkpt><trkpt lat="44.72421156444989" lon="10.174104936739553"><ele>118.0</ele><time>2026-03-28T16:03:46Z</time></trkpt><trkpt lat="44.724295326572" lon="10.174297893760134"><ele>118.0</ele><time>2026-03-28T16:03:47Z</time></trkpt><trkpt lat="44.72438024744824" lon="10.174533013941458"><ele>118.0</ele><time>2026-03-28T16:03:48Z</time></trkpt><trkpt lat="44.724450168384216" lon="10.174731952798712"><ele>118.0</ele><time>2026-03-28T16:03:49Z</time></trkpt><trkpt lat="44.72451636601595" lon="10.17488690082911"><ele>118.0</ele><time>2026-03-28T16:03:50Z</time></trkpt><trkpt lat="44.72458897346703" lon="10.175040487746605"><ele>118.0</ele><time>2026-03-28T16:03:51Z</time></trkpt><trkpt lat="44.72465213741445" lon="10.175179518726118"><ele>118.0</ele><time>2026-03-28T16:03:52Z</time></trkpt><trkpt lat="44.724714534600885" lon="10.175326879412985"><ele>118.0</ele><time>2026-03-28T16:03:53Z</time></trkpt><trkpt lat="44.724778834570934" lon="10.17548827131419"><ele>118.0</ele><time>2026-03-28T16:03:54Z</time></trkpt><trkpt lat="44.724849327746135" lon="10.17565671037595"><ele>118.0</ele><time>2026-03-28T16:03:55Z</time></trkpt><trkpt lat="44.72492426492121" lon="10.175831620631584"><ele>118.0</ele><time>2026-03-28T16:03:55.999Z</time></trkpt><trkpt lat="44.725005651935405" lon="10.176013036557096"><ele>118.0</ele><time>2026-03-28T16:03:56.999Z</time></trkpt><trkpt lat="44.72509247543015" lon="10.176199503677692"><ele>118.0</ele><time>2026-03-28T16:03:57.999Z</time></trkpt><trkpt lat="44.72517344628286" lon="10.17638139125486"><ele>118.0</ele><time>2026-03-28T16:03:58.999Z</time></trkpt><trkpt lat="44.72527355002007" lon="10.17657841766118"><ele>118.0</ele><time>2026-03-28T16:03:59.999Z</time></trkpt><trkpt lat="44.72537433823891" lon="10.176778197097054"><ele>117.0</ele><time>2026-03-28T16:04:00.999Z</time></trkpt><trkpt lat="44.72547795706377" lon="10.176987649819774"><ele>116.0</ele><time>2026-03-28T16:04:01.999Z</time></trkpt><trkpt lat="44.72558663832167" lon="10.177220666158894"><ele>115.0</ele><time>2026-03-28T16:04:02.999Z</time></trkpt><trkpt lat="44.725712111766725" lon="10.177485218672174"><ele>115.0</ele><time>2026-03-28T16:04:03.999Z</time></trkpt><trkpt lat="44.72583892437931" lon="10.177750633834489"><ele>115.0</ele><time>2026-03-28T16:04:04.999Z</time></trkpt><trkpt lat="44.72596570466731" lon="10.178021067821456"><ele>114.5</ele><time>2026-03-28T16:04:05.999Z</time></trkpt><trkpt lat="44.72609922917825" lon="10.178283527653212"><ele>114.0</ele><time>2026-03-28T16:04:06.999Z</time></trkpt><trkpt lat="44.72623776292683" lon="10.178527906603588"><ele>114.0</ele><time>2026-03-28T16:04:07.999Z</time></trkpt><trkpt lat="44.72638408153936" lon="10.178761113347706"><ele>114.0</ele><time>2026-03-28T16:04:08.999Z</time></trkpt><trkpt lat="44.72652836621976" lon="10.178973095412946"><ele>114.0</ele><time>2026-03-28T16:04:09.999Z</time></trkpt><trkpt lat="44.72666223926028" lon="10.179161800703715"><ele>114.66666666666666</ele><time>2026-03-28T16:04:10.999Z</time></trkpt><trkpt lat="44.72679623151178" lon="10.179329267182892"><ele>115.33333333333333</ele><time>2026-03-28T16:04:11.999Z</time></trkpt><trkpt lat="44.72692970775326" lon="10.179494304493026"><ele>116.0</ele><time>2026-03-28T16:04:12.999Z</time></trkpt><trkpt lat="44.727070938870085" lon="10.179659329121405"><ele>115.33333333333333</ele><time>2026-03-28T16:04:13.999Z</time></trkpt><trkpt lat="44.72721171080846" lon="10.179823952053216"><ele>114.66666666666666</ele><time>2026-03-28T16:04:14.999Z</time></trkpt><trkpt lat="44.727355310726686" lon="10.17999177373303"><ele>114.0</ele><time>2026-03-28T16:04:15.999Z</time></trkpt><trkpt lat="44.72749263861478" lon="10.180143027464776"><ele>114.0</ele><time>2026-03-28T16:04:16.999Z</time></trkpt><trkpt lat="44.727611785995386" lon="10.180270337046633"><ele>114.0</ele><time>2026-03-28T16:04:17.999Z</time></trkpt><trkpt lat="44.72770914318713" lon="10.180370657117091"><ele>114.0</ele><time>2026-03-28T16:04:18.999Z</time></trkpt><trkpt lat="44.72780358747896" lon="10.180474820320095"><ele>114.0</ele><time>2026-03-28T16:04:19.999Z</time></trkpt><trkpt lat="44.72789782284165" lon="10.180575672241847"><ele>114.25</ele><time>2026-03-28T16:04:20.999Z</time></trkpt><trkpt lat="44.72799102437187" lon="10.180680609588839"><ele>114.5</ele><time>2026-03-28T16:04:21.999Z</time></trkpt><trkpt lat="44.72808807347334" lon="10.180781514144641"><ele>114.75</ele><time>2026-03-28T16:04:22.999Z</time></trkpt><trkpt lat="44.72818934358341" lon="10.18089287990529"><ele>115.0</ele><time>2026-03-28T16:04:23.999Z</time></trkpt><trkpt lat="44.728294826395185" lon="10.181006301632884"><ele>115.0</ele><time>2026-03-28T16:04:24.999Z</time></trkpt><trkpt lat="44.72840381074401" lon="10.181122112383992"><ele>115.0</ele><time>2026-03-28T16:04:25.999Z</time></trkpt><trkpt lat="44.728502432702136" lon="10.18122014155009"><ele>115.0</ele><time>2026-03-28T16:04:26.999Z</time></trkpt><trkpt lat="44.728593323337805" lon="10.181332107680285"><ele>115.0</ele><time>2026-03-28T16:04:27.999Z</time></trkpt><trkpt lat="44.728691296505694" lon="10.181454558171497"><ele>114.75</ele><time>2026-03-28T16:04:28.999Z</time></trkpt><trkpt lat="44.72879935821568" lon="10.181576288626415"><ele>114.5</ele><time>2026-03-28T16:04:29.999Z</time></trkpt><trkpt lat="44.7289146963172" lon="10.181691227122977"><ele>114.25</ele><time>2026-03-28T16:04:30.999Z</time></trkpt><trkpt lat="44.72904200601481" lon="10.181822867160854"><ele>114.0</ele><time>2026-03-28T16:04:31.999Z</time></trkpt><trkpt lat="44.72917934251707" lon="10.181967224470121"><ele>114.0</ele><time>2026-03-28T16:04:32.999Z</time></trkpt><trkpt lat="44.72934983621199" lon="10.182143752616874"><ele>114.0</ele><time>2026-03-28T16:04:33.999Z</time></trkpt><trkpt lat="44.729526430773106" lon="10.18233649831731"><ele>114.0</ele><time>2026-03-28T16:04:34.999Z</time></trkpt><trkpt lat="44.72969027640663" lon="10.182514385432471"><ele>114.0</ele><time>2026-03-28T16:04:35.999Z</time></trkpt><trkpt lat="44.72982303447829" lon="10.182671256934398"><ele>114.0</ele><time>2026-03-28T16:04:36.999Z</time></trkpt><trkpt lat="44.72992877066954" lon="10.18280082053419"><ele>114.0</ele><time>2026-03-28T16:04:37.999Z</time></trkpt><trkpt lat="44.73003556987522" lon="10.182921330959104"><ele>114.0</ele><time>2026-03-28T16:04:38.999Z</time></trkpt><trkpt lat="44.73015193148411" lon="10.183046721335751"><ele>114.0</ele><time>2026-03-28T16:04:39.999Z</time></trkpt><trkpt lat="44.73028361431437" lon="10.183169025986203"><ele>114.0</ele><time>2026-03-28T16:04:40.999Z</time></trkpt><trkpt lat="44.73044311225766" lon="10.183305024368943"><ele>113.0</ele><time>2026-03-28T16:04:41.999Z</time></trkpt><trkpt lat="44.730604658120185" lon="10.18346104989829"><ele>112.0</ele><time>2026-03-28T16:04:43Z</time></trkpt><trkpt lat="44.73074818582232" lon="10.183598493886917"><ele>111.0</ele><time>2026-03-28T16:04:44Z</time></trkpt><trkpt lat="44.730872415806665" lon="10.183705971862015"><ele>111.0</ele><time>2026-03-28T16:04:45Z</time></trkpt><trkpt lat="44.73099224010424" lon="10.183798953703922"><ele>111.0</ele><time>2026-03-28T16:04:46Z</time></trkpt><trkpt lat="44.731111990448994" lon="10.183894164318252"><ele>111.0</ele><time>2026-03-28T16:04:47Z</time></trkpt><trkpt lat="44.73123084958321" lon="10.183983523135673"><ele>111.0</ele><time>2026-03-28T16:04:48Z</time></trkpt><trkpt lat="44.73137884011696" lon="10.184083870798549"><ele>112.33333333333334</ele><time>2026-03-28T16:04:49Z</time></trkpt><trkpt lat="44.73154147746626" lon="10.184207282813592"><ele>113.66666666666667</ele><time>2026-03-28T16:04:50Z</time></trkpt><trkpt lat="44.7316944835734" lon="10.184336024953893"><ele>115.0</ele><time>2026-03-28T16:04:51Z</time></trkpt><trkpt lat="44.73182759110139" lon="10.184442206319273"><ele>114.5</ele><time>2026-03-28T16:04:52Z</time></trkpt><trkpt lat="44.73194942954351" lon="10.184539128804342"><ele>114.0</ele><time>2026-03-28T16:04:53Z</time></trkpt><trkpt lat="44.732062328233376" lon="10.184645228942081"><ele>113.5</ele><time>2026-03-28T16:04:54Z</time></trkpt><trkpt lat="44.73217115119084" lon="10.184772493965733"><ele>113.0</ele><time>2026-03-28T16:04:55Z</time></trkpt><trkpt lat="44.732272899851345" lon="10.184924102584796"><ele>113.0</ele><time>2026-03-28T16:04:56Z</time></trkpt><trkpt lat="44.73236986737523" lon="10.185065140265015"><ele>113.0</ele><time>2026-03-28T16:04:57Z</time></trkpt><trkpt lat="44.73247399492831" lon="10.185208787867904"><ele>113.0</ele><time>2026-03-28T16:04:58Z</time></trkpt><trkpt lat="44.73258341808636" lon="10.185350293080125"><ele>113.0</ele><time>2026-03-28T16:04:59Z</time></trkpt><trkpt lat="44.73269728024372" lon="10.18549493228936"><ele>112.75</ele><time>2026-03-28T16:05:00Z</time></trkpt><trkpt lat="44.73280841143217" lon="10.185640917081152"><ele>112.5</ele><time>2026-03-28T16:05:01Z</time></trkpt><trkpt lat="44.73291541026238" lon="10.185781408490143"><ele>112.25</ele><time>2026-03-28T16:05:02Z</time></trkpt><trkpt lat="44.73301049149115" lon="10.185907033070835"><ele>112.0</ele><time>2026-03-28T16:05:03Z</time></trkpt><trkpt lat="44.733099999350095" lon="10.186013783313168"><ele>112.0</ele><time>2026-03-28T16:05:04Z</time></trkpt><trkpt lat="44.733191699926714" lon="10.186117076809662"><ele>112.0</ele><time>2026-03-28T16:05:05Z</time></trkpt><trkpt lat="44.73329320340356" lon="10.186223686975234"><ele>112.0</ele><time>2026-03-28T16:05:06Z</time></trkpt><trkpt lat="44.73340106539268" lon="10.186327701813019"><ele>112.0</ele><time>2026-03-28T16:05:07Z</time></trkpt><trkpt lat="44.73351463995809" lon="10.186429477886398"><ele>112.25</ele><time>2026-03-28T16:05:08Z</time></trkpt><trkpt lat="44.733630650921114" lon="10.186530952501839"><ele>112.5</ele><time>2026-03-28T16:05:09Z</time></trkpt><trkpt lat="44.73374448289474" lon="10.186638055982927"><ele>112.75</ele><time>2026-03-28T16:05:10Z</time></trkpt><trkpt lat="44.73384901382926" lon="10.186743794287384"><ele>113.0</ele><time>2026-03-28T16:05:11Z</time></trkpt><trkpt lat="44.73394503800073" lon="10.18684599053099"><ele>113.0</ele><time>2026-03-28T16:05:12Z</time></trkpt><trkpt lat="44.73404323872573" lon="10.18694012223856"><ele>113.0</ele><time>2026-03-28T16:05:13Z</time></trkpt><trkpt lat="44.734148439491904" lon="10.18703432863921"><ele>113.0</ele><time>2026-03-28T16:05:14Z</time></trkpt><trkpt lat="44.734255406726845" lon="10.187129551566882"><ele>113.0</ele><time>2026-03-28T16:05:15Z</time></trkpt><trkpt lat="44.7343629827815" lon="10.187228827478952"><ele>112.75</ele><time>2026-03-28T16:05:16Z</time></trkpt><trkpt lat="44.734473853361024" lon="10.187328531965946"><ele>112.5</ele><time>2026-03-28T16:05:17Z</time></trkpt><trkpt lat="44.734587804542386" lon="10.18742945676306"><ele>112.25</ele><time>2026-03-28T16:05:18Z</time></trkpt><trkpt lat="44.734702044441924" lon="10.18752795378618"><ele>112.0</ele><time>2026-03-28T16:05:19Z</time></trkpt><trkpt lat="44.734814920873504" lon="10.18762355467257"><ele>112.0</ele><time>2026-03-28T16:05:20Z</time></trkpt><trkpt lat="44.73492424928261" lon="10.18771734744532"><ele>112.0</ele><time>2026-03-28T16:05:21Z</time></trkpt><trkpt lat="44.73503146707871" lon="10.187807532417493"><ele>112.0</ele><time>2026-03-28T16:05:22Z</time></trkpt><trkpt lat="44.7351383397732" lon="10.187896184251887"><ele>112.0</ele><time>2026-03-28T16:05:23Z</time></trkpt><trkpt lat="44.73524773790408" lon="10.187987628357465"><ele>111.75</ele><time>2026-03-28T16:05:24Z</time></trkpt><trkpt lat="44.73535936834822" lon="10.188083205916508"><ele>111.5</ele><time>2026-03-28T16:05:25Z</time></trkpt><trkpt lat="44.73547169072701" lon="10.188183638978906"><ele>111.25</ele><time>2026-03-28T16:05:26Z</time></trkpt><trkpt lat="44.73557533974372" lon="10.188274119364674"><ele>111.0</ele><time>2026-03-28T16:05:27Z</time></trkpt><trkpt lat="44.73567114207517" lon="10.188358788820528"><ele>111.75</ele><time>2026-03-28T16:05:28Z</time></trkpt><trkpt lat="44.7357752720982" lon="10.188441804425109"><ele>112.5</ele><time>2026-03-28T16:05:29Z</time></trkpt><trkpt lat="44.735882294409656" lon="10.188528242034735"><ele>113.25</ele><time>2026-03-28T16:05:30Z</time></trkpt><trkpt lat="44.735987151130516" lon="10.188622912305114"><ele>114.0</ele><time>2026-03-28T16:05:31Z</time></trkpt><trkpt lat="44.73607967745319" lon="10.188719097616065"><ele>114.5</ele><time>2026-03-28T16:05:32Z</time></trkpt><trkpt lat="44.73618533619781" lon="10.188809982732302"><ele>115.0</ele><time>2026-03-28T16:05:33Z</time></trkpt><trkpt lat="44.736288365763684" lon="10.188901659377771"><ele>115.5</ele><time>2026-03-28T16:05:34Z</time></trkpt><trkpt lat="44.736388389773786" lon="10.188992787365539"><ele>116.0</ele><time>2026-03-28T16:05:35Z</time></trkpt><trkpt lat="44.736492116277894" lon="10.189087858926861"><ele>116.0</ele><time>2026-03-28T16:05:36Z</time></trkpt><trkpt lat="44.736589983088535" lon="10.189177933236968"><ele>116.0</ele><time>2026-03-28T16:05:37Z</time></trkpt><trkpt lat="44.73669796754531" lon="10.189258988015066"><ele>116.0</ele><time>2026-03-28T16:05:38Z</time></trkpt><trkpt lat="44.736806300241085" lon="10.189362196458783"><ele>116.0</ele><time>2026-03-28T16:05:39Z</time></trkpt><trkpt lat="44.736918955466145" lon="10.189454289196709"><ele>115.5</ele><time>2026-03-28T16:05:40Z</time></trkpt><trkpt lat="44.73702028881654" lon="10.18954237026457"><ele>115.0</ele><time>2026-03-28T16:05:41Z</time></trkpt><trkpt lat="44.73712957797475" lon="10.189638966564226"><ele>114.5</ele><time>2026-03-28T16:05:42Z</time></trkpt><trkpt lat="44.73724684338275" lon="10.189736715433417"><ele>114.0</ele><time>2026-03-28T16:05:43Z</time></trkpt><trkpt lat="44.73736592140731" lon="10.189837306193587"><ele>114.25</ele><time>2026-03-28T16:05:44Z</time></trkpt><trkpt lat="44.73747103738473" lon="10.189919895750094"><ele>114.5</ele><time>2026-03-28T16:05:45Z</time></trkpt><trkpt lat="44.737577514327356" lon="10.190009350264237"><ele>114.75</ele><time>2026-03-28T16:05:46Z</time></trkpt><trkpt lat="44.737685012172676" lon="10.190099138370268"><ele>115.0</ele><time>2026-03-28T16:05:47Z</time></trkpt><trkpt lat="44.73778258334578" lon="10.190190015244289"><ele>115.0</ele><time>2026-03-28T16:05:48Z</time></trkpt><trkpt lat="44.737885254341634" lon="10.190274219658685"><ele>115.0</ele><time>2026-03-28T16:05:49Z</time></trkpt><trkpt lat="44.73798486624699" lon="10.190354574863097"><ele>115.0</ele><time>2026-03-28T16:05:50Z</time></trkpt><trkpt lat="44.73806326424529" lon="10.19043549219334"><ele>115.0</ele><time>2026-03-28T16:05:51Z</time></trkpt><trkpt lat="44.73812445294867" lon="10.190518434820452"><ele>115.0</ele><time>2026-03-28T16:05:52Z</time></trkpt><trkpt lat="44.738182105034205" lon="10.190574299522497"><ele>115.0</ele><time>2026-03-28T16:05:53Z</time></trkpt><trkpt lat="44.73816093873383" lon="10.19072355717706"><ele>115.0</ele><time>2026-03-28T16:05:54Z</time></trkpt><trkpt lat="44.738114464075665" lon="10.190865417779117"><ele>115.0</ele><time>2026-03-28T16:05:55Z</time></trkpt><trkpt lat="44.738048306591686" lon="10.191024851606022"><ele>115.0</ele><time>2026-03-28T16:05:56Z</time></trkpt><trkpt lat="44.73798345978837" lon="10.191195901085848"><ele>115.0</ele><time>2026-03-28T16:05:56.999Z</time></trkpt><trkpt lat="44.737928569409114" lon="10.19137260346321"><ele>115.0</ele><time>2026-03-28T16:05:57.999Z</time></trkpt><trkpt lat="44.73788692102174" lon="10.19149752394478"><ele>115.0</ele><time>2026-03-28T16:05:58.999Z</time></trkpt><trkpt lat="44.73785117578445" lon="10.191599780224763"><ele>115.0</ele><time>2026-03-28T16:06:00.999Z</time></trkpt><trkpt lat="44.737858510548186" lon="10.19169369457516"><ele>115.0</ele><time>2026-03-28T16:06:59Z</time></trkpt><trkpt lat="44.737821929662736" lon="10.191837309506658"><ele>115.0</ele><time>2026-03-28T16:07:00Z</time></trkpt><trkpt lat="44.737782109045185" lon="10.19197447231582"><ele>115.0</ele><time>2026-03-28T16:07:01Z</time></trkpt><trkpt lat="44.73772090539684" lon="10.192134142010977"><ele>115.0</ele><time>2026-03-28T16:07:02Z</time></trkpt><trkpt lat="44.7376516924821" lon="10.192271267632805"><ele>115.0</ele><time>2026-03-28T16:07:03Z</time></trkpt><trkpt lat="44.737562943382436" lon="10.192375322986406"><ele>115.0</ele><time>2026-03-28T16:07:04Z</time></trkpt><trkpt lat="44.73743718379319" lon="10.192401505829286"><ele>115.0</ele><time>2026-03-28T16:07:05Z</time></trkpt><trkpt lat="44.73730164968948" lon="10.192394352768815"><ele>115.0</ele><time>2026-03-28T16:07:06Z</time></trkpt><trkpt lat="44.73712363672143" lon="10.192375143100852"><ele>115.0</ele><time>2026-03-28T16:07:07Z</time></trkpt><trkpt lat="44.73692395576729" lon="10.192373033760722"><ele>115.66666666666667</ele><time>2026-03-28T16:07:08Z</time></trkpt><trkpt lat="44.736729569088794" lon="10.192350440149166"><ele>116.33333333333334</ele><time>2026-03-28T16:07:09Z</time></trkpt><trkpt lat="44.7365431769994" lon="10.192328147962476"><ele>117.0</ele><time>2026-03-28T16:07:10Z</time></trkpt><trkpt lat="44.736351550165786" lon="10.192314448579287"><ele>117.0</ele><time>2026-03-28T16:07:11Z</time></trkpt><trkpt lat="44.73615349284055" lon="10.192296639483269"><ele>117.0</ele><time>2026-03-28T16:07:12Z</time></trkpt><trkpt lat="44.735958442134645" lon="10.192276719583523"><ele>117.0</ele><time>2026-03-28T16:07:13Z</time></trkpt><trkpt lat="44.735757519605386" lon="10.192260465451248"><ele>118.66666666666666</ele><time>2026-03-28T16:07:14Z</time></trkpt><trkpt lat="44.73556704415799" lon="10.192233792234227"><ele>120.33333333333333</ele><time>2026-03-28T16:07:15Z</time></trkpt><trkpt lat="44.73537481548321" lon="10.192210335066491"><ele>122.0</ele><time>2026-03-28T16:07:16Z</time></trkpt><trkpt lat="44.73519654081688" lon="10.192182198463344"><ele>124.0</ele><time>2026-03-28T16:07:17Z</time></trkpt><trkpt lat="44.735038241783805" lon="10.192170805600805"><ele>126.0</ele><time>2026-03-28T16:07:18Z</time></trkpt><trkpt lat="44.73489441697378" lon="10.192170155039785"><ele>128.0</ele><time>2026-03-28T16:07:19Z</time></trkpt><trkpt lat="44.73474445085141" lon="10.192202931712915"><ele>128.0</ele><time>2026-03-28T16:07:20Z</time></trkpt><trkpt lat="44.734562213798164" lon="10.192260416001076"><ele>128.0</ele><time>2026-03-28T16:07:21Z</time></trkpt><trkpt lat="44.734404673733934" lon="10.192340932283706"><ele>128.0</ele><time>2026-03-28T16:07:22Z</time></trkpt><trkpt lat="44.73425856433721" lon="10.192429436377239"><ele>127.0</ele><time>2026-03-28T16:07:23Z</time></trkpt><trkpt lat="44.73410451628241" lon="10.19250633311246"><ele>126.0</ele><time>2026-03-28T16:07:24Z</time></trkpt><trkpt lat="44.733938537206264" lon="10.192575330908015"><ele>125.0</ele><time>2026-03-28T16:07:25Z</time></trkpt><trkpt lat="44.73375331221532" lon="10.192635413570395"><ele>125.0</ele><time>2026-03-28T16:07:26Z</time></trkpt><trkpt lat="44.73356280264291" lon="10.192687804991863"><ele>125.0</ele><time>2026-03-28T16:07:27Z</time></trkpt><trkpt lat="44.73334533634632" lon="10.192747257253652"><ele>125.0</ele><time>2026-03-28T16:07:28Z</time></trkpt><trkpt lat="44.733134042029896" lon="10.192800383494088"><ele>126.66666666666666</ele><time>2026-03-28T16:07:29Z</time></trkpt><trkpt lat="44.73293224718831" lon="10.19285329136365"><ele>128.33333333333334</ele><time>2026-03-28T16:07:30Z</time></trkpt><trkpt lat="44.732751008200246" lon="10.192912908287793"><ele>130.0</ele><time>2026-03-28T16:07:31Z</time></trkpt><trkpt lat="44.732563717511994" lon="10.193002044572953"><ele>131.33333333333334</ele><time>2026-03-28T16:07:32Z</time></trkpt><trkpt lat="44.73238685728235" lon="10.193119837771043"><ele>132.66666666666666</ele><time>2026-03-28T16:07:33Z</time></trkpt><trkpt lat="44.73220011704015" lon="10.193254225935174"><ele>134.0</ele><time>2026-03-28T16:07:34Z</time></trkpt><trkpt lat="44.73201283984053" lon="10.193367721835614"><ele>131.33333333333331</ele><time>2026-03-28T16:07:35Z</time></trkpt><trkpt lat="44.731816546606545" lon="10.193478550345622"><ele>128.66666666666666</ele><time>2026-03-28T16:07:36Z</time></trkpt><trkpt lat="44.731624633670165" lon="10.19359009262134"><ele>126.0</ele><time>2026-03-28T16:07:37Z</time></trkpt><trkpt lat="44.73142307188216" lon="10.193709406816236"><ele>126.0</ele><time>2026-03-28T16:07:38Z</time></trkpt><trkpt lat="44.73122663618995" lon="10.193830333469561"><ele>126.0</ele><time>2026-03-28T16:07:39Z</time></trkpt><trkpt lat="44.73102601548345" lon="10.19395106995277"><ele>126.0</ele><time>2026-03-28T16:07:40Z</time></trkpt><trkpt lat="44.73082488118133" lon="10.194061868138592"><ele>125.66666666666666</ele><time>2026-03-28T16:07:41Z</time></trkpt><trkpt lat="44.7306324105837" lon="10.194166095406107"><ele>125.33333333333333</ele><time>2026-03-28T16:07:42Z</time></trkpt><trkpt lat="44.73044414403732" lon="10.194259461588608"><ele>125.0</ele><time>2026-03-28T16:07:43Z</time></trkpt><trkpt lat="44.73026376573417" lon="10.194347067111009"><ele>126.66666666666666</ele><time>2026-03-28T16:07:44Z</time></trkpt><trkpt lat="44.7301044068239" lon="10.194430385705429"><ele>128.33333333333334</ele><time>2026-03-28T16:07:45Z</time></trkpt><trkpt lat="44.729933642188406" lon="10.194503673993157"><ele>130.0</ele><time>2026-03-28T16:07:46Z</time></trkpt><trkpt lat="44.72976543609396" lon="10.1945437314301"><ele>130.0</ele><time>2026-03-28T16:07:47Z</time></trkpt><trkpt lat="44.72959747294133" lon="10.194651530236001"><ele>130.0</ele><time>2026-03-28T16:07:48Z</time></trkpt><trkpt lat="44.72937725730148" lon="10.194461203919746"><ele>130.0</ele><time>2026-03-28T16:07:49Z</time></trkpt><trkpt lat="44.729149466570185" lon="10.194421682541059"><ele>130.33333333333334</ele><time>2026-03-28T16:07:50Z</time></trkpt><trkpt lat="44.72893369170974" lon="10.194372984321689"><ele>130.66666666666666</ele><time>2026-03-28T16:07:51Z</time></trkpt><trkpt lat="44.728729205343456" lon="10.194328819636624"><ele>131.0</ele><time>2026-03-28T16:07:52Z</time></trkpt><trkpt lat="44.72851972927392" lon="10.194276435426525"><ele>131.0</ele><time>2026-03-28T16:07:53Z</time></trkpt><trkpt lat="44.72831540521914" lon="10.194222888970929"><ele>131.0</ele><time>2026-03-28T16:07:54Z</time></trkpt><trkpt lat="44.72811115831253" lon="10.194173314162661"><ele>131.0</ele><time>2026-03-28T16:07:55Z</time></trkpt><trkpt lat="44.72790313734539" lon="10.19412520173927"><ele>131.0</ele><time>2026-03-28T16:07:56Z</time></trkpt><trkpt lat="44.727701415683306" lon="10.194086806783064"><ele>131.0</ele><time>2026-03-28T16:07:57Z</time></trkpt><trkpt lat="44.72749304587986" lon="10.194044913982516"><ele>131.0</ele><time>2026-03-28T16:07:58Z</time></trkpt><trkpt lat="44.72728405480131" lon="10.194010922715362"><ele>133.0</ele><time>2026-03-28T16:07:59Z</time></trkpt><trkpt lat="44.72708271762281" lon="10.193970557005064"><ele>135.0</ele><time>2026-03-28T16:08:00Z</time></trkpt><trkpt lat="44.72688245774135" lon="10.193933125636331"><ele>137.0</ele><time>2026-03-28T16:08:01Z</time></trkpt><trkpt lat="44.726688888342565" lon="10.193896058440277"><ele>137.0</ele><time>2026-03-28T16:08:02Z</time></trkpt><trkpt lat="44.72649399392429" lon="10.193863819508751"><ele>137.0</ele><time>2026-03-28T16:08:02.999Z</time></trkpt><trkpt lat="44.72630401519007" lon="10.193832214203045"><ele>137.0</ele><time>2026-03-28T16:08:03.999Z</time></trkpt><trkpt lat="44.72611721952181" lon="10.193797186821822"><ele>137.0</ele><time>2026-03-28T16:08:04.999Z</time></trkpt><trkpt lat="44.72597740080517" lon="10.193762272761056"><ele>137.0</ele><time>2026-03-28T16:08:05.999Z</time></trkpt><trkpt lat="44.72586298704803" lon="10.1937533394824"><ele>137.0</ele><time>2026-03-28T16:08:06.999Z</time></trkpt><trkpt lat="44.72575868229605" lon="10.193782795131177"><ele>137.0</ele><time>2026-03-28T16:08:07.999Z</time></trkpt><trkpt lat="44.72564419820534" lon="10.193916972996412"><ele>136.0</ele><time>2026-03-28T16:08:08.999Z</time></trkpt><trkpt lat="44.72551354093258" lon="10.194025823177231"><ele>135.0</ele><time>2026-03-28T16:08:09.999Z</time></trkpt><trkpt lat="44.72537733432918" lon="10.194085791467117"><ele>134.0</ele><time>2026-03-28T16:08:10.999Z</time></trkpt><trkpt lat="44.72522463053157" lon="10.19405933664974"><ele>133.0</ele><time>2026-03-28T16:08:11.999Z</time></trkpt><trkpt lat="44.72503896918758" lon="10.194032347628365"><ele>133.0</ele><time>2026-03-28T16:08:12.999Z</time></trkpt><trkpt lat="44.7248327796963" lon="10.194064686164431"><ele>133.0</ele><time>2026-03-28T16:08:13.999Z</time></trkpt><trkpt lat="44.724623023370256" lon="10.194154447284149"><ele>133.0</ele><time>2026-03-28T16:08:14.999Z</time></trkpt><trkpt lat="44.72440736212517" lon="10.194265898862717"><ele>132.66666666666669</ele><time>2026-03-28T16:08:15.999Z</time></trkpt><trkpt lat="44.724184170814894" lon="10.194332778880268"><ele>132.33333333333334</ele><time>2026-03-28T16:08:16.999Z</time></trkpt><trkpt lat="44.723970962786076" lon="10.194321582118505"><ele>132.0</ele><time>2026-03-28T16:08:17.999Z</time></trkpt><trkpt lat="44.723785552339855" lon="10.194292374271935"><ele>132.0</ele><time>2026-03-28T16:08:18.999Z</time></trkpt><trkpt lat="44.72361847095359" lon="10.194250323663633"><ele>132.0</ele><time>2026-03-28T16:08:19.999Z</time></trkpt><trkpt lat="44.72346005155627" lon="10.194185995062027"><ele>132.0</ele><time>2026-03-28T16:08:20.999Z</time></trkpt><trkpt lat="44.723306991371814" lon="10.194120283773358"><ele>132.33333333333334</ele><time>2026-03-28T16:08:21.999Z</time></trkpt><trkpt lat="44.723156530512306" lon="10.194074165873088"><ele>132.66666666666669</ele><time>2026-03-28T16:08:22.999Z</time></trkpt><trkpt lat="44.723020131283974" lon="10.193978603728075"><ele>133.0</ele><time>2026-03-28T16:08:23.999Z</time></trkpt><trkpt lat="44.72288414146335" lon="10.193888282920357"><ele>133.66666666666669</ele><time>2026-03-28T16:08:24.999Z</time></trkpt><trkpt lat="44.72276725293143" lon="10.19374332052566"><ele>134.33333333333334</ele><time>2026-03-28T16:08:25.999Z</time></trkpt><trkpt lat="44.72262749279059" lon="10.193614615267194"><ele>135.0</ele><time>2026-03-28T16:08:26.999Z</time></trkpt><trkpt lat="44.72250425565718" lon="10.193472342308258"><ele>135.0</ele><time>2026-03-28T16:08:27.999Z</time></trkpt><trkpt lat="44.7223673688523" lon="10.193342223411642"><ele>135.0</ele><time>2026-03-28T16:08:28.999Z</time></trkpt><trkpt lat="44.72226058992256" lon="10.19325582384148"><ele>135.0</ele><time>2026-03-28T16:08:29.999Z</time></trkpt><trkpt lat="44.72210378705798" lon="10.19317525232178"><ele>136.33333333333334</ele><time>2026-03-28T16:08:30.999Z</time></trkpt><trkpt lat="44.72194030317836" lon="10.19309125790374"><ele>137.66666666666669</ele><time>2026-03-28T16:08:31.999Z</time></trkpt><trkpt lat="44.721777225228564" lon="10.192990085641627"><ele>139.0</ele><time>2026-03-28T16:08:32.999Z</time></trkpt><trkpt lat="44.7216298269858" lon="10.1928470669039"><ele>139.0</ele><time>2026-03-28T16:08:33.999Z</time></trkpt><trkpt lat="44.721481057571175" lon="10.19274454678055"><ele>139.0</ele><time>2026-03-28T16:08:34.999Z</time></trkpt><trkpt lat="44.721356807138896" lon="10.192631237099311"><ele>139.0</ele><time>2026-03-28T16:08:35.999Z</time></trkpt><trkpt lat="44.72123981862848" lon="10.192532373193295"><ele>139.0</ele><time>2026-03-28T16:08:36.999Z</time></trkpt><trkpt lat="44.721122285176456" lon="10.192433715236227"><ele>139.0</ele><time>2026-03-28T16:08:37.999Z</time></trkpt><trkpt lat="44.72100460857934" lon="10.192342618040978"><ele>139.0</ele><time>2026-03-28T16:08:38.999Z</time></trkpt><trkpt lat="44.720883809803645" lon="10.192244134242335"><ele>139.0</ele><time>2026-03-28T16:08:39.999Z</time></trkpt><trkpt lat="44.7207610496415" lon="10.1921435615949"><ele>139.75</ele><time>2026-03-28T16:08:40.999Z</time></trkpt><trkpt lat="44.72063729153406" lon="10.192046746239306"><ele>140.5</ele><time>2026-03-28T16:08:41.999Z</time></trkpt><trkpt lat="44.720497498063395" lon="10.191970947692896"><ele>141.25</ele><time>2026-03-28T16:08:42.999Z</time></trkpt><trkpt lat="44.72036760647427" lon="10.191915280482311"><ele>142.0</ele><time>2026-03-28T16:08:43.999Z</time></trkpt><trkpt lat="44.72024339839313" lon="10.191806610859814"><ele>141.33333333333334</ele><time>2026-03-28T16:08:44.999Z</time></trkpt><trkpt lat="44.72013192398895" lon="10.191657361925465"><ele>140.66666666666666</ele><time>2026-03-28T16:08:45.999Z</time></trkpt><trkpt lat="44.72001756662621" lon="10.191479698321503"><ele>140.0</ele><time>2026-03-28T16:08:46.999Z</time></trkpt><trkpt lat="44.71991932925589" lon="10.191326603629667"><ele>140.0</ele><time>2026-03-28T16:08:47.999Z</time></trkpt><trkpt lat="44.71982472056798" lon="10.191179163887451"><ele>140.0</ele><time>2026-03-28T16:08:48.999Z</time></trkpt><trkpt lat="44.719724339856164" lon="10.191020970336345"><ele>140.0</ele><time>2026-03-28T16:08:49.999Z</time></trkpt><trkpt lat="44.71962766005984" lon="10.190868246821802"><ele>140.0</ele><time>2026-03-28T16:08:50.999Z</time></trkpt><trkpt lat="44.719525455230844" lon="10.190706932266837"><ele>139.0</ele><time>2026-03-28T16:08:51.999Z</time></trkpt><trkpt lat="44.71942034379559" lon="10.190541030123999"><ele>138.0</ele><time>2026-03-28T16:08:52.999Z</time></trkpt><trkpt lat="44.719319028396015" lon="10.190360924997107"><ele>137.0</ele><time>2026-03-28T16:08:53.999Z</time></trkpt><trkpt lat="44.71922341641879" lon="10.190166489373851"><ele>137.0</ele><time>2026-03-28T16:08:55Z</time></trkpt><trkpt lat="44.719125850626604" lon="10.189961696162666"><ele>137.0</ele><time>2026-03-28T16:08:56Z</time></trkpt><trkpt lat="44.7190047478041" lon="10.189771142336944"><ele>137.0</ele><time>2026-03-28T16:08:57Z</time></trkpt><trkpt lat="44.71883943912791" lon="10.189584485558884"><ele>137.66666666666666</ele><time>2026-03-28T16:08:58Z</time></trkpt><trkpt lat="44.71867870914699" lon="10.189406323485736"><ele>138.33333333333334</ele><time>2026-03-28T16:08:59Z</time></trkpt><trkpt lat="44.71849798285568" lon="10.18921244198956"><ele>139.0</ele><time>2026-03-28T16:09:00Z</time></trkpt><trkpt lat="44.71832947231062" lon="10.189037469347808"><ele>139.33333333333334</ele><time>2026-03-28T16:09:01Z</time></trkpt><trkpt lat="44.71816493476848" lon="10.188867501749538"><ele>139.66666666666666</ele><time>2026-03-28T16:09:02Z</time></trkpt><trkpt lat="44.718020808128934" lon="10.188683288370234"><ele>140.0</ele><time>2026-03-28T16:09:03Z</time></trkpt><trkpt lat="44.71786314965295" lon="10.188522884666588"><ele>139.66666666666666</ele><time>2026-03-28T16:09:04Z</time></trkpt><trkpt lat="44.71770313323406" lon="10.188378212878165"><ele>139.33333333333334</ele><time>2026-03-28T16:09:05Z</time></trkpt><trkpt lat="44.717573559579854" lon="10.188234587130571"><ele>139.0</ele><time>2026-03-28T16:09:06Z</time></trkpt><trkpt lat="44.71741849519143" lon="10.1880710149245"><ele>139.0</ele><time>2026-03-28T16:09:07Z</time></trkpt><trkpt lat="44.71728249980436" lon="10.18793094559329"><ele>139.0</ele><time>2026-03-28T16:09:08Z</time></trkpt><trkpt lat="44.71713763030235" lon="10.187786491492956"><ele>139.0</ele><time>2026-03-28T16:09:09Z</time></trkpt><trkpt lat="44.71698493510461" lon="10.187633891507636"><ele>139.33333333333334</ele><time>2026-03-28T16:09:10Z</time></trkpt><trkpt lat="44.716844159996626" lon="10.187464298146017"><ele>139.66666666666666</ele><time>2026-03-28T16:09:11Z</time></trkpt><trkpt lat="44.71671106499152" lon="10.187317050711616"><ele>140.0</ele><time>2026-03-28T16:09:12Z</time></trkpt><trkpt lat="44.716601637164985" lon="10.187168007354535"><ele>140.0</ele><time>2026-03-28T16:09:13Z</time></trkpt><trkpt lat="44.71648885734483" lon="10.187036803187949"><ele>140.0</ele><time>2026-03-28T16:09:14Z</time></trkpt><trkpt lat="44.716432194981834" lon="10.186830425446137"><ele>140.0</ele><time>2026-03-28T16:09:15Z</time></trkpt><trkpt lat="44.71641315570679" lon="10.186576794889602"><ele>141.33333333333331</ele><time>2026-03-28T16:09:16Z</time></trkpt><trkpt lat="44.716396604839616" lon="10.186315477663063"><ele>142.66666666666666</ele><time>2026-03-28T16:09:17Z</time></trkpt><trkpt lat="44.716361662262806" lon="10.186082263029268"><ele>144.0</ele><time>2026-03-28T16:09:18Z</time></trkpt><trkpt lat="44.71629026769686" lon="10.185885199438765"><ele>144.0</ele><time>2026-03-28T16:09:19Z</time></trkpt><trkpt lat="44.71616207167073" lon="10.18570352217488"><ele>144.0</ele><time>2026-03-28T16:09:20Z</time></trkpt><trkpt lat="44.71600060620689" lon="10.185523340461318"><ele>144.0</ele><time>2026-03-28T16:09:21Z</time></trkpt><trkpt lat="44.71583259825598" lon="10.185342239946337"><ele>144.0</ele><time>2026-03-28T16:09:22Z</time></trkpt><trkpt lat="44.71566456159992" lon="10.185147010396971"><ele>144.0</ele><time>2026-03-28T16:09:23Z</time></trkpt><trkpt lat="44.71550722114706" lon="10.18494567423212"><ele>144.0</ele><time>2026-03-28T16:09:24Z</time></trkpt><trkpt lat="44.715346167418986" lon="10.184732756390716"><ele>144.33333333333334</ele><time>2026-03-28T16:09:25Z</time></trkpt><trkpt lat="44.71517985349159" lon="10.184524086915186"><ele>144.66666666666669</ele><time>2026-03-28T16:09:26Z</time></trkpt><trkpt lat="44.715017259474855" lon="10.18431531410615"><ele>145.0</ele><time>2026-03-28T16:09:27Z</time></trkpt><trkpt lat="44.71486091670268" lon="10.184113541057402"><ele>145.66666666666669</ele><time>2026-03-28T16:09:28Z</time></trkpt><trkpt lat="44.71470830498905" lon="10.18391861268996"><ele>146.33333333333334</ele><time>2026-03-28T16:09:29Z</time></trkpt><trkpt lat="44.71456528647261" lon="10.183742109975308"><ele>147.0</ele><time>2026-03-28T16:09:30Z</time></trkpt><trkpt lat="44.714439664653725" lon="10.183603616218539"><ele>147.0</ele><time>2026-03-28T16:09:31Z</time></trkpt><trkpt lat="44.71430995369658" lon="10.183528756149952"><ele>147.0</ele><time>2026-03-28T16:09:32Z</time></trkpt><trkpt lat="44.7141365713016" lon="10.183528402393843"><ele>147.0</ele><time>2026-03-28T16:09:33Z</time></trkpt><trkpt lat="44.71393956504209" lon="10.183532530631924"><ele>147.0</ele><time>2026-03-28T16:09:34Z</time></trkpt><trkpt lat="44.71372655850502" lon="10.183534980753723"><ele>147.0</ele><time>2026-03-28T16:09:35Z</time></trkpt><trkpt lat="44.713512368168736" lon="10.18356817675083"><ele>147.0</ele><time>2026-03-28T16:09:36Z</time></trkpt><trkpt lat="44.71328805465985" lon="10.183606305047006"><ele>148.0</ele><time>2026-03-28T16:09:37Z</time></trkpt><trkpt lat="44.713080445508275" lon="10.183635975988782"><ele>149.0</ele><time>2026-03-28T16:09:38Z</time></trkpt><trkpt lat="44.71289188648571" lon="10.183659133458324"><ele>150.0</ele><time>2026-03-28T16:09:39Z</time></trkpt><trkpt lat="44.71270787129223" lon="10.183675750561083"><ele>152.66666666666666</ele><time>2026-03-28T16:09:40Z</time></trkpt><trkpt lat="44.71252108046115" lon="10.183693994683441"><ele>155.33333333333331</ele><time>2026-03-28T16:09:41Z</time></trkpt><trkpt lat="44.712337110308816" lon="10.183714982252264"><ele>158.0</ele><time>2026-03-28T16:09:42Z</time></trkpt><trkpt lat="44.71218069989448" lon="10.183730880222285"><ele>158.0</ele><time>2026-03-28T16:09:43Z</time></trkpt><trkpt lat="44.7120421875896" lon="10.183737420570004"><ele>158.0</ele><time>2026-03-28T16:09:44Z</time></trkpt><trkpt lat="44.711885785930406" lon="10.183729729368412"><ele>158.0</ele><time>2026-03-28T16:09:45Z</time></trkpt><trkpt lat="44.71171728045644" lon="10.183707597667013"><ele>158.33333333333331</ele><time>2026-03-28T16:09:46Z</time></trkpt><trkpt lat="44.711561153269166" lon="10.183655929637123"><ele>158.66666666666666</ele><time>2026-03-28T16:09:47Z</time></trkpt><trkpt lat="44.711387898379805" lon="10.183609046558912"><ele>159.0</ele><time>2026-03-28T16:09:48Z</time></trkpt><trkpt lat="44.71120072521335" lon="10.183581248039058"><ele>158.33333333333334</ele><time>2026-03-28T16:09:49Z</time></trkpt><trkpt lat="44.71101106754958" lon="10.18352122756239"><ele>157.66666666666669</ele><time>2026-03-28T16:09:50Z</time></trkpt><trkpt lat="44.71081556990464" lon="10.183467934576726"><ele>157.0</ele><time>2026-03-28T16:09:51Z</time></trkpt><trkpt lat="44.71061615761708" lon="10.183414865077129"><ele>157.0</ele><time>2026-03-28T16:09:52Z</time></trkpt><trkpt lat="44.71041545472139" lon="10.183361410679975"><ele>157.0</ele><time>2026-03-28T16:09:53Z</time></trkpt><trkpt lat="44.71021906398627" lon="10.183309335830216"><ele>157.0</ele><time>2026-03-28T16:09:54Z</time></trkpt><trkpt lat="44.71002186666699" lon="10.18325300703272"><ele>156.33333333333334</ele><time>2026-03-28T16:09:55Z</time></trkpt><trkpt lat="44.709835251036345" lon="10.18319999133043"><ele>155.66666666666666</ele><time>2026-03-28T16:09:56Z</time></trkpt><trkpt lat="44.7096678537846" lon="10.18315158017606"><ele>155.0</ele><time>2026-03-28T16:09:57Z</time></trkpt><trkpt lat="44.70949218013592" lon="10.183112593346738"><ele>154.66666666666666</ele><time>2026-03-28T16:09:58Z</time></trkpt><trkpt lat="44.709318548879494" lon="10.183130728735048"><ele>154.33333333333334</ele><time>2026-03-28T16:09:59Z</time></trkpt><trkpt lat="44.70913363369095" lon="10.183211979941625"><ele>154.0</ele><time>2026-03-28T16:10:00Z</time></trkpt><trkpt lat="44.70894326657997" lon="10.183304575085005"><ele>154.0</ele><time>2026-03-28T16:10:01Z</time></trkpt><trkpt lat="44.708775072560236" lon="10.183373592731469"><ele>154.0</ele><time>2026-03-28T16:10:02Z</time></trkpt><trkpt lat="44.708619235943" lon="10.183404868558245"><ele>154.0</ele><time>2026-03-28T16:10:03Z</time></trkpt><trkpt lat="44.70842739027803" lon="10.183370889954519"><ele>154.33333333333334</ele><time>2026-03-28T16:10:04Z</time></trkpt><trkpt lat="44.70822579831129" lon="10.1833651627555"><ele>154.66666666666666</ele><time>2026-03-28T16:10:05Z</time></trkpt><trkpt lat="44.708039746469446" lon="10.183428693829118"><ele>155.0</ele><time>2026-03-28T16:10:06Z</time></trkpt><trkpt lat="44.7078698726682" lon="10.183549721126838"><ele>154.66666666666666</ele><time>2026-03-28T16:10:07Z</time></trkpt><trkpt lat="44.70769703373702" lon="10.183715470507318"><ele>154.33333333333334</ele><time>2026-03-28T16:10:07.999Z</time></trkpt><trkpt lat="44.70750600308012" lon="10.18381345432263"><ele>154.0</ele><time>2026-03-28T16:10:08.999Z</time></trkpt><trkpt lat="44.70732989576863" lon="10.183843436082944"><ele>154.0</ele><time>2026-03-28T16:10:09.999Z</time></trkpt><trkpt lat="44.70719014898034" lon="10.183832107280715"><ele>154.0</ele><time>2026-03-28T16:10:10.999Z</time></trkpt><trkpt lat="44.707093639968875" lon="10.183734994652378"><ele>154.0</ele><time>2026-03-28T16:10:11.999Z</time></trkpt><trkpt lat="44.70701114177132" lon="10.183601381512483"><ele>154.0</ele><time>2026-03-28T16:10:12.999Z</time></trkpt><trkpt lat="44.70691278033498" lon="10.183425484792282"><ele>154.33333333333334</ele><time>2026-03-28T16:10:13.999Z</time></trkpt><trkpt lat="44.70682239766466" lon="10.183219553449598"><ele>154.66666666666666</ele><time>2026-03-28T16:10:14.999Z</time></trkpt><trkpt lat="44.70675026261647" lon="10.182974055595883"><ele>155.0</ele><time>2026-03-28T16:10:15.999Z</time></trkpt><trkpt lat="44.70668726134251" lon="10.182703800656787"><ele>155.0</ele><time>2026-03-28T16:10:16.999Z</time></trkpt><trkpt lat="44.706620241170874" lon="10.182418445129985"><ele>155.0</ele><time>2026-03-28T16:10:17.999Z</time></trkpt><trkpt lat="44.70655706931522" lon="10.182154269372424"><ele>155.0</ele><time>2026-03-28T16:10:18.999Z</time></trkpt><trkpt lat="44.70652299663984" lon="10.18189904416272"><ele>155.0</ele><time>2026-03-28T16:10:19.999Z</time></trkpt><trkpt lat="44.70651843963273" lon="10.181631433154633"><ele>155.0</ele><time>2026-03-28T16:10:20.999Z</time></trkpt><trkpt lat="44.7065299281728" lon="10.18136710114952"><ele>155.0</ele><time>2026-03-28T16:10:21.999Z</time></trkpt><trkpt lat="44.70653734824168" lon="10.181128954881732"><ele>155.75</ele><time>2026-03-28T16:10:22.999Z</time></trkpt><trkpt lat="44.70651199976433" lon="10.180936224976236"><ele>156.5</ele><time>2026-03-28T16:10:23.999Z</time></trkpt><trkpt lat="44.70646461221836" lon="10.18076390344439"><ele>157.25</ele><time>2026-03-28T16:10:24.999Z</time></trkpt><trkpt lat="44.70639884947282" lon="10.18064653100702"><ele>158.0</ele><time>2026-03-28T16:10:25.999Z</time></trkpt><trkpt lat="44.70633808290767" lon="10.180558780771632"><ele>158.0</ele><time>2026-03-28T16:10:27.999Z</time></trkpt><trkpt lat="44.70624808758275" lon="10.180664550697289"><ele>158.0</ele><time>2026-03-28T16:10:29.999Z</time></trkpt><trkpt lat="44.70620459459917" lon="10.180740816768445"><ele>158.0</ele><time>2026-03-28T16:10:40.999Z</time></trkpt><trkpt lat="44.706089912055724" lon="10.180822070520213"><ele>158.0</ele><time>2026-03-28T16:10:42.999Z</time></trkpt><trkpt lat="44.706020987521136" lon="10.180802494775941"><ele>158.0</ele><time>2026-03-28T16:10:43.999Z</time></trkpt><trkpt lat="44.70595431987758" lon="10.180745092565228"><ele>158.60000000000002</ele><time>2026-03-28T16:10:44.999Z</time></trkpt><trkpt lat="44.70586850753094" lon="10.180684622114581"><ele>159.20000000000002</ele><time>2026-03-28T16:10:45.999Z</time></trkpt><trkpt lat="44.70578442892163" lon="10.180641499854945"><ele>159.8</ele><time>2026-03-28T16:10:46.999Z</time></trkpt><trkpt lat="44.70569027628728" lon="10.180581506219319"><ele>160.4</ele><time>2026-03-28T16:10:47.999Z</time></trkpt><trkpt lat="44.70560371978554" lon="10.180529958418417"><ele>161.0</ele><time>2026-03-28T16:10:48.999Z</time></trkpt><trkpt lat="44.70551536886232" lon="10.18044172049738"><ele>161.0</ele><time>2026-03-28T16:10:49.999Z</time></trkpt><trkpt lat="44.7054367063525" lon="10.18038592416513"><ele>161.0</ele><time>2026-03-28T16:10:50.999Z</time></trkpt><trkpt lat="44.7053653364183" lon="10.180335275240896"><ele>161.0</ele><time>2026-03-28T16:10:51.999Z</time></trkpt><trkpt lat="44.70527974928594" lon="10.180292638645854"><ele>161.0</ele><time>2026-03-28T16:10:52.999Z</time></trkpt><trkpt lat="44.70522133488971" lon="10.180238708572372"><ele>161.0</ele><time>2026-03-28T16:10:53.999Z</time></trkpt><trkpt lat="44.70514810944087" lon="10.18021880033836"><ele>161.0</ele><time>2026-03-28T16:10:54.999Z</time></trkpt><trkpt lat="44.705089603216905" lon="10.180158516240397"><ele>162.66666666666666</ele><time>2026-03-28T16:10:55.999Z</time></trkpt><trkpt lat="44.70501433779632" lon="10.180115237026827"><ele>164.33333333333331</ele><time>2026-03-28T16:10:56.999Z</time></trkpt><trkpt lat="44.70493793071422" lon="10.180077684499475"><ele>166.0</ele><time>2026-03-28T16:10:57.999Z</time></trkpt><trkpt lat="44.70485452465957" lon="10.180057948555751"><ele>167.66666666666666</ele><time>2026-03-28T16:10:58.999Z</time></trkpt><trkpt lat="44.70477275441991" lon="10.180021921443863"><ele>169.33333333333334</ele><time>2026-03-28T16:10:59.999Z</time></trkpt><trkpt lat="44.70469152593525" lon="10.179990387419512"><ele>171.0</ele><time>2026-03-28T16:11:01Z</time></trkpt><trkpt lat="44.70461266963622" lon="10.179969573784701"><ele>171.0</ele><time>2026-03-28T16:11:02Z</time></trkpt><trkpt lat="44.70453460596463" lon="10.179964199635897"><ele>171.0</ele><time>2026-03-28T16:11:03Z</time></trkpt><trkpt lat="44.70445806494903" lon="10.17997495734031"><ele>171.0</ele><time>2026-03-28T16:11:04Z</time></trkpt><trkpt lat="44.70436647755876" lon="10.180006418857335"><ele>171.0</ele><time>2026-03-28T16:11:05Z</time></trkpt><trkpt lat="44.704280735347304" lon="10.18004861263443"><ele>171.0</ele><time>2026-03-28T16:11:06Z</time></trkpt><trkpt lat="44.70420335515386" lon="10.18009297364519"><ele>171.0</ele><time>2026-03-28T16:11:07Z</time></trkpt><trkpt lat="44.70411795374316" lon="10.180120973020466"><ele>173.5</ele><time>2026-03-28T16:11:08Z</time></trkpt><trkpt lat="44.70404421439305" lon="10.180168883258373"><ele>176.0</ele><time>2026-03-28T16:11:09Z</time></trkpt><trkpt lat="44.70396532149849" lon="10.180234512157014"><ele>178.5</ele><time>2026-03-28T16:11:10Z</time></trkpt><trkpt lat="44.7038990761972" lon="10.180279804066807"><ele>181.0</ele><time>2026-03-28T16:11:11Z</time></trkpt><trkpt lat="44.70381994049923" lon="10.180309869677822"><ele>183.5</ele><time>2026-03-28T16:11:12Z</time></trkpt><trkpt lat="44.703757399380024" lon="10.180335355164726"><ele>186.0</ele><time>2026-03-28T16:11:13Z</time></trkpt><trkpt lat="44.703675475796466" lon="10.180285313497997"><ele>186.0</ele><time>2026-03-28T16:11:15Z</time></trkpt><trkpt lat="44.70364789719672" lon="10.180153304966296"><ele>186.0</ele><time>2026-03-28T16:11:17Z</time></trkpt><trkpt lat="44.70360994266174" lon="10.18003122917801"><ele>186.0</ele><time>2026-03-28T16:11:18Z</time></trkpt><trkpt lat="44.703587593666214" lon="10.179917861149201"><ele>186.0</ele><time>2026-03-28T16:11:19Z</time></trkpt><trkpt lat="44.7035374908195" lon="10.179826420448748"><ele>186.0</ele><time>2026-03-28T16:11:20Z</time></trkpt><trkpt lat="44.703473338965765" lon="10.179745855595725"><ele>186.0</ele><time>2026-03-28T16:11:21Z</time></trkpt><trkpt lat="44.703383901968756" lon="10.17966826786264"><ele>186.8</ele><time>2026-03-28T16:11:22Z</time></trkpt><trkpt lat="44.703291568077574" lon="10.179639097897219"><ele>187.60000000000002</ele><time>2026-03-28T16:11:23Z</time></trkpt><trkpt lat="44.70316961566321" lon="10.179607362299567"><ele>188.4</ele><time>2026-03-28T16:11:24Z</time></trkpt><trkpt lat="44.703063380788414" lon="10.179579010009663"><ele>189.2</ele><time>2026-03-28T16:11:25Z</time></trkpt><trkpt lat="44.70298704136026" lon="10.179559327944233"><ele>190.0</ele><time>2026-03-28T16:11:26Z</time></trkpt><trkpt lat="44.702904722152596" lon="10.179536457161172"><ele>190.0</ele><time>2026-03-28T16:11:27Z</time></trkpt><trkpt lat="44.70282589027929" lon="10.17953518155907"><ele>190.0</ele><time>2026-03-28T16:11:28Z</time></trkpt><trkpt lat="44.70274375959455" lon="10.17950105378717"><ele>190.0</ele><time>2026-03-28T16:11:29Z</time></trkpt><trkpt lat="44.70265441508803" lon="10.179494150453237"><ele>190.0</ele><time>2026-03-28T16:11:30Z</time></trkpt><trkpt lat="44.70255815739451" lon="10.179444287711599"><ele>190.0</ele><time>2026-03-28T16:11:31Z</time></trkpt><trkpt lat="44.70247252565494" lon="10.179419104316676"><ele>190.0</ele><time>2026-03-28T16:11:32Z</time></trkpt><trkpt lat="44.70237534273807" lon="10.179411626926237"><ele>193.2</ele><time>2026-03-28T16:11:33Z</time></trkpt><trkpt lat="44.70227810692231" lon="10.179374722617148"><ele>196.4</ele><time>2026-03-28T16:11:34Z</time></trkpt><trkpt lat="44.7021762803091" lon="10.179346281258654"><ele>199.60000000000002</ele><time>2026-03-28T16:11:35Z</time></trkpt><trkpt lat="44.70208695873427" lon="10.179299070810291"><ele>202.8</ele><time>2026-03-28T16:11:36Z</time></trkpt><trkpt lat="44.701993553591336" lon="10.179282065598358"><ele>206.0</ele><time>2026-03-28T16:11:37Z</time></trkpt><trkpt lat="44.70190719723826" lon="10.179260454819548"><ele>208.33333333333334</ele><time>2026-03-28T16:11:38Z</time></trkpt><trkpt lat="44.701821476527016" lon="10.179233493893118"><ele>210.66666666666669</ele><time>2026-03-28T16:11:39Z</time></trkpt><trkpt lat="44.701737775421954" lon="10.179195280030077"><ele>213.0</ele><time>2026-03-28T16:11:40Z</time></trkpt><trkpt lat="44.701654570538395" lon="10.179176118358004"><ele>215.33333333333331</ele><time>2026-03-28T16:11:41Z</time></trkpt><trkpt lat="44.701563199421585" lon="10.179153401540395"><ele>217.66666666666666</ele><time>2026-03-28T16:11:42Z</time></trkpt><trkpt lat="44.701470681026876" lon="10.179145937801229"><ele>220.0</ele><time>2026-03-28T16:11:43Z</time></trkpt><trkpt lat="44.70139086604851" lon="10.179104035450871"><ele>219.99999999999997</ele><time>2026-03-28T16:11:44Z</time></trkpt><trkpt lat="44.701322595313755" lon="10.179082936400098"><ele>220.0</ele><time>2026-03-28T16:11:45Z</time></trkpt><trkpt lat="44.701228874707624" lon="10.179050460579306"><ele>220.0</ele><time>2026-03-28T16:11:46Z</time></trkpt><trkpt lat="44.7011340560179" lon="10.17904284253771"><ele>220.0</ele><time>2026-03-28T16:11:47Z</time></trkpt><trkpt lat="44.70104406594477" lon="10.179012624232799"><ele>219.99999999999997</ele><time>2026-03-28T16:11:48Z</time></trkpt><trkpt lat="44.70095213593642" lon="10.178987935664042"><ele>220.0</ele><time>2026-03-28T16:11:49Z</time></trkpt><trkpt lat="44.70086898140046" lon="10.178938358567056"><ele>219.66666666666666</ele><time>2026-03-28T16:11:50Z</time></trkpt><trkpt lat="44.70077842009324" lon="10.178910170144855"><ele>219.33333333333331</ele><time>2026-03-28T16:11:51Z</time></trkpt><trkpt lat="44.700690429449274" lon="10.17890520961687"><ele>219.0</ele><time>2026-03-28T16:11:52Z</time></trkpt><trkpt lat="44.70059385101254" lon="10.178868712025096"><ele>218.66666666666669</ele><time>2026-03-28T16:11:53Z</time></trkpt><trkpt lat="44.700514672022884" lon="10.178840252342242"><ele>218.33333333333334</ele><time>2026-03-28T16:11:54Z</time></trkpt><trkpt lat="44.70043846196463" lon="10.17881451372592"><ele>218.0</ele><time>2026-03-28T16:11:55Z</time></trkpt><trkpt lat="44.700370684694825" lon="10.178792214154091"><ele>218.0</ele><time>2026-03-28T16:11:56Z</time></trkpt><trkpt lat="44.70029712165668" lon="10.178766172308936"><ele>218.0</ele><time>2026-03-28T16:11:57Z</time></trkpt><trkpt lat="44.70022069337667" lon="10.178743971868347"><ele>218.0</ele><time>2026-03-28T16:11:58Z</time></trkpt><trkpt lat="44.70015279000457" lon="10.17874216275317"><ele>218.0</ele><time>2026-03-28T16:11:59Z</time></trkpt><trkpt lat="44.70009831821773" lon="10.178790126362083"><ele>218.0</ele><time>2026-03-28T16:12:00Z</time></trkpt><trkpt lat="44.700081300702756" lon="10.178880319748579"><ele>218.0</ele><time>2026-03-28T16:12:01Z</time></trkpt><trkpt lat="44.70008979490168" lon="10.178986162254084"><ele>218.0</ele><time>2026-03-28T16:12:02Z</time></trkpt><trkpt lat="44.70007819802519" lon="10.179077618584147"><ele>221.83333333333334</ele><time>2026-03-28T16:12:03Z</time></trkpt><trkpt lat="44.70007021705964" lon="10.179200253359415"><ele>225.66666666666669</ele><time>2026-03-28T16:12:04Z</time></trkpt><trkpt lat="44.70003316450177" lon="10.179306949148332"><ele>229.5</ele><time>2026-03-28T16:12:06Z</time></trkpt><trkpt lat="44.69994816709788" lon="10.179267156876282"><ele>233.33333333333331</ele><time>2026-03-28T16:12:07Z</time></trkpt><trkpt lat="44.699885205325295" lon="10.179306206946613"><ele>237.16666666666666</ele><time>2026-03-28T16:12:08Z</time></trkpt><trkpt lat="44.699838960898845" lon="10.179386135450354"><ele>241.0</ele><time>2026-03-28T16:12:09Z</time></trkpt><trkpt lat="44.69979903962587" lon="10.179458361833088"><ele>240.99999999999997</ele><time>2026-03-28T16:12:10Z</time></trkpt><trkpt lat="44.699709891214894" lon="10.179461775616437"><ele>241.0</ele><time>2026-03-28T16:12:12Z</time></trkpt><trkpt lat="44.6996557546905" lon="10.179402332637281"><ele>241.0</ele><time>2026-03-28T16:12:14Z</time></trkpt><trkpt lat="44.699593195101855" lon="10.179350232290792"><ele>241.0</ele><time>2026-03-28T16:12:15.999Z</time></trkpt><trkpt lat="44.6995163604306" lon="10.17930933551781"><ele>240.99999999999997</ele><time>2026-03-28T16:12:17.999Z</time></trkpt><trkpt lat="44.6994359075038" lon="10.179251606537521"><ele>241.0</ele><time>2026-03-28T16:12:19.999Z</time></trkpt><trkpt lat="44.69937829052171" lon="10.179206663732417"><ele>240.66666666666666</ele><time>2026-03-28T16:12:20.999Z</time></trkpt><trkpt lat="44.69931434495693" lon="10.179187605382378"><ele>240.33333333333331</ele><time>2026-03-28T16:12:21.999Z</time></trkpt><trkpt lat="44.69921066838859" lon="10.179096225002574"><ele>240.0</ele><time>2026-03-28T16:12:23.999Z</time></trkpt><trkpt lat="44.69914527744241" lon="10.179070507056778"><ele>239.66666666666669</ele><time>2026-03-28T16:12:24.999Z</time></trkpt><trkpt lat="44.69908218955646" lon="10.179034224109532"><ele>239.33333333333334</ele><time>2026-03-28T16:12:25.999Z</time></trkpt><trkpt lat="44.698988644855426" lon="10.178953748967304"><ele>239.0</ele><time>2026-03-28T16:12:27.999Z</time></trkpt><trkpt lat="44.69890469865246" lon="10.178859396864754"><ele>239.00000000000003</ele><time>2026-03-28T16:12:29.999Z</time></trkpt><trkpt lat="44.69885466542363" lon="10.178800244158325"><ele>239.0</ele><time>2026-03-28T16:12:30.999Z</time></trkpt><trkpt lat="44.69879272002231" lon="10.178737536725935"><ele>239.0</ele><time>2026-03-28T16:12:31.999Z</time></trkpt><trkpt lat="44.69873459334438" lon="10.178685878719769"><ele>239.0</ele><time>2026-03-28T16:12:32.999Z</time></trkpt><trkpt lat="44.69866068063906" lon="10.178642654445007"><ele>239.00000000000003</ele><time>2026-03-28T16:12:33.999Z</time></trkpt><trkpt lat="44.69859234249487" lon="10.178630086404626"><ele>239.0</ele><time>2026-03-28T16:12:34.999Z</time></trkpt><trkpt lat="44.698508978109494" lon="10.17857227557694"><ele>239.8571428571429</ele><time>2026-03-28T16:12:35.999Z</time></trkpt><trkpt lat="44.69844617562384" lon="10.178532778051371"><ele>240.71428571428572</ele><time>2026-03-28T16:12:36.999Z</time></trkpt><trkpt lat="44.69836392936148" lon="10.178485368561585"><ele>241.57142857142858</ele><time>2026-03-28T16:12:37.999Z</time></trkpt><trkpt lat="44.69830452534175" lon="10.178428912964211"><ele>242.42857142857144</ele><time>2026-03-28T16:12:38.999Z</time></trkpt><trkpt lat="44.69823952505182" lon="10.178406296466305"><ele>243.28571428571428</ele><time>2026-03-28T16:12:39.999Z</time></trkpt><trkpt lat="44.69818332878178" lon="10.178342345659834"><ele>244.14285714285714</ele><time>2026-03-28T16:12:40.999Z</time></trkpt><trkpt lat="44.698112529516195" lon="10.17829127417668"><ele>245.0</ele><time>2026-03-28T16:12:41.999Z</time></trkpt><trkpt lat="44.69803806078651" lon="10.178261994318484"><ele>245.0</ele><time>2026-03-28T16:12:42.999Z</time></trkpt><trkpt lat="44.697978883438886" lon="10.178227709546116"><ele>245.0</ele><time>2026-03-28T16:12:43.999Z</time></trkpt><trkpt lat="44.69790430226274" lon="10.178182700209899"><ele>245.0</ele><time>2026-03-28T16:12:44.999Z</time></trkpt><trkpt lat="44.6978406115626" lon="10.178122120297486"><ele>245.0</ele><time>2026-03-28T16:12:45.999Z</time></trkpt><trkpt lat="44.69778194462347" lon="10.178086749456547"><ele>245.0</ele><time>2026-03-28T16:12:46.999Z</time></trkpt><trkpt lat="44.69770561926126" lon="10.178065916044757"><ele>245.0</ele><time>2026-03-28T16:12:47.999Z</time></trkpt><trkpt lat="44.69764533231649" lon="10.178007712158259"><ele>245.0</ele><time>2026-03-28T16:12:48.999Z</time></trkpt><trkpt lat="44.6975690643408" lon="10.17798944769696"><ele>246.16666666666669</ele><time>2026-03-28T16:12:49.999Z</time></trkpt><trkpt lat="44.69750312688844" lon="10.177941329832706"><ele>247.33333333333334</ele><time>2026-03-28T16:12:50.999Z</time></trkpt><trkpt lat="44.69743043371179" lon="10.177901792227525"><ele>248.5</ele><time>2026-03-28T16:12:51.999Z</time></trkpt><trkpt lat="44.69735489631501" lon="10.177831679006788"><ele>249.66666666666669</ele><time>2026-03-28T16:12:52.999Z</time></trkpt><trkpt lat="44.69727633267623" lon="10.17776982543082"><ele>250.83333333333334</ele><time>2026-03-28T16:12:53.999Z</time></trkpt><trkpt lat="44.697189800788664" lon="10.177717300715484"><ele>252.0</ele><time>2026-03-28T16:12:54.999Z</time></trkpt><trkpt lat="44.69711277522778" lon="10.177647268873663"><ele>252.0</ele><time>2026-03-28T16:12:55.999Z</time></trkpt><trkpt lat="44.69702220729201" lon="10.177574112205328"><ele>252.0</ele><time>2026-03-28T16:12:56.999Z</time></trkpt><trkpt lat="44.696939685886136" lon="10.177512755119142"><ele>252.0</ele><time>2026-03-28T16:12:57.999Z</time></trkpt><trkpt lat="44.69687142893322" lon="10.177466095129182"><ele>252.0</ele><time>2026-03-28T16:12:58.999Z</time></trkpt><trkpt lat="44.69678671061267" lon="10.177407315321313"><ele>252.0</ele><time>2026-03-28T16:12:59.999Z</time></trkpt><trkpt lat="44.696723522605666" lon="10.177363816979193"><ele>252.0</ele><time>2026-03-28T16:13:00.999Z</time></trkpt><trkpt lat="44.69664450184865" lon="10.177311046976655"><ele>252.5</ele><time>2026-03-28T16:13:01.999Z</time></trkpt><trkpt lat="44.696558870159464" lon="10.177257620603967"><ele>253.0</ele><time>2026-03-28T16:13:02.999Z</time></trkpt><trkpt lat="44.69646933575911" lon="10.177202701083944"><ele>253.5</ele><time>2026-03-28T16:13:03.999Z</time></trkpt><trkpt lat="44.69637089976411" lon="10.177149559498925"><ele>254.0</ele><time>2026-03-28T16:13:04.999Z</time></trkpt><trkpt lat="44.69629397908018" lon="10.177105730193372"><ele>254.5</ele><time>2026-03-28T16:13:05.999Z</time></trkpt><trkpt lat="44.696234589721335" lon="10.177056147615723"><ele>255.0</ele><time>2026-03-28T16:13:07Z</time></trkpt><trkpt lat="44.69616185521902" lon="10.17694430638583"><ele>255.0</ele><time>2026-03-28T16:13:09Z</time></trkpt><trkpt lat="44.69615770758113" lon="10.176772102651745"><ele>255.0</ele><time>2026-03-28T16:13:11Z</time></trkpt><trkpt lat="44.69617355609031" lon="10.17666456494451"><ele>255.0</ele><time>2026-03-28T16:13:12Z</time></trkpt><trkpt lat="44.696178062750114" lon="10.176574097391176"><ele>255.0</ele><time>2026-03-28T16:13:13Z</time></trkpt><trkpt lat="44.69617341468579" lon="10.176459989057287"><ele>255.0</ele><time>2026-03-28T16:13:14Z</time></trkpt><trkpt lat="44.69615855040387" lon="10.176352682330789"><ele>255.0</ele><time>2026-03-28T16:13:15Z</time></trkpt><trkpt lat="44.69613359527802" lon="10.176265194214965"><ele>255.0</ele><time>2026-03-28T16:13:16Z</time></trkpt><trkpt lat="44.696087366920594" lon="10.176200543699"><ele>255.0</ele><time>2026-03-28T16:13:17Z</time></trkpt><trkpt lat="44.69598681710647" lon="10.176181522321576"><ele>255.0</ele><time>2026-03-28T16:13:19Z</time></trkpt><trkpt lat="44.69596589295732" lon="10.17607362044193"><ele>255.0</ele><time>2026-03-28T16:13:22Z</time></trkpt><trkpt lat="44.69591672127161" lon="10.175995974704334"><ele>255.0</ele><time>2026-03-28T16:13:24Z</time></trkpt><trkpt lat="44.695806882204984" lon="10.175892031924475"><ele>257.3333333333333</ele><time>2026-03-28T16:13:26Z</time></trkpt><trkpt lat="44.69569793258418" lon="10.175830128272148"><ele>259.6666666666667</ele><time>2026-03-28T16:13:28Z</time></trkpt><trkpt lat="44.695636856935046" lon="10.175804713226679"><ele>262.0</ele><time>2026-03-28T16:13:29Z</time></trkpt><trkpt lat="44.69557594280905" lon="10.175781611808981"><ele>264.33333333333337</ele><time>2026-03-28T16:13:30Z</time></trkpt><trkpt lat="44.695466759193046" lon="10.175768707797829"><ele>266.6666666666667</ele><time>2026-03-28T16:13:32Z</time></trkpt><trkpt lat="44.69539446747566" lon="10.175768531460399"><ele>269.0</ele><time>2026-03-28T16:13:33Z</time></trkpt><trkpt lat="44.695315108076215" lon="10.175783216574793"><ele>267.6666666666667</ele><time>2026-03-28T16:13:34Z</time></trkpt><trkpt lat="44.69524040975671" lon="10.175777090410614"><ele>266.33333333333337</ele><time>2026-03-28T16:13:35Z</time></trkpt><trkpt lat="44.695176270334706" lon="10.175804828071893"><ele>265.0</ele><time>2026-03-28T16:13:36Z</time></trkpt><trkpt lat="44.695106734283364" lon="10.175805568392754"><ele>263.6666666666667</ele><time>2026-03-28T16:13:37Z</time></trkpt><trkpt lat="44.69503141228047" lon="10.175790250253657"><ele>262.3333333333333</ele><time>2026-03-28T16:13:38Z</time></trkpt><trkpt lat="44.69494608165075" lon="10.17580999986051"><ele>261.0</ele><time>2026-03-28T16:13:39Z</time></trkpt><trkpt lat="44.694860520023454" lon="10.175808198804633"><ele>261.0</ele><time>2026-03-28T16:13:40Z</time></trkpt><trkpt lat="44.69477817180626" lon="10.175810027229542"><ele>261.0</ele><time>2026-03-28T16:13:41Z</time></trkpt><trkpt lat="44.69471452821217" lon="10.175788536709723"><ele>261.0</ele><time>2026-03-28T16:13:42Z</time></trkpt><trkpt lat="44.694628999060185" lon="10.175790711639165"><ele>261.0</ele><time>2026-03-28T16:13:43Z</time></trkpt><trkpt lat="44.69452899002385" lon="10.175817586944293"><ele>261.0</ele><time>2026-03-28T16:13:44Z</time></trkpt><trkpt lat="44.69443846240493" lon="10.17580420412838"><ele>261.0</ele><time>2026-03-28T16:13:45Z</time></trkpt><trkpt lat="44.6943566794686" lon="10.175824504957916"><ele>258.8</ele><time>2026-03-28T16:13:46Z</time></trkpt><trkpt lat="44.69427072810123" lon="10.175751163066503"><ele>256.6</ele><time>2026-03-28T16:13:47Z</time></trkpt><trkpt lat="44.69416307252049" lon="10.175719372547992"><ele>254.4</ele><time>2026-03-28T16:13:48Z</time></trkpt><trkpt lat="44.69408298460137" lon="10.175685302819097"><ele>252.2</ele><time>2026-03-28T16:13:49Z</time></trkpt><trkpt lat="44.6940139555351" lon="10.175633775203025"><ele>250.0</ele><time>2026-03-28T16:13:50Z</time></trkpt><trkpt lat="44.69394055921184" lon="10.175599356927432"><ele>249.49999999999997</ele><time>2026-03-28T16:13:51Z</time></trkpt><trkpt lat="44.69384943391105" lon="10.175581183325813"><ele>249.0</ele><time>2026-03-28T16:13:52Z</time></trkpt><trkpt lat="44.69378138838902" lon="10.175550491569256"><ele>248.5</ele><time>2026-03-28T16:13:53Z</time></trkpt><trkpt lat="44.69371091634002" lon="10.17550052151747"><ele>248.0</ele><time>2026-03-28T16:13:54Z</time></trkpt><trkpt lat="44.69363418806562" lon="10.17545963982454"><ele>247.49999999999997</ele><time>2026-03-28T16:13:55Z</time></trkpt><trkpt lat="44.693563349828395" lon="10.175405617005012"><ele>247.0</ele><time>2026-03-28T16:13:56Z</time></trkpt><trkpt lat="44.69349256035132" lon="10.175340866235208"><ele>248.49999999999997</ele><time>2026-03-28T16:13:57Z</time></trkpt><trkpt lat="44.69341339967317" lon="10.17530328268341"><ele>250.0</ele><time>2026-03-28T16:13:58Z</time></trkpt><trkpt lat="44.69334228031162" lon="10.17528300695246"><ele>251.5</ele><time>2026-03-28T16:13:59Z</time></trkpt><trkpt lat="44.69326821757516" lon="10.175289532394737"><ele>253.0</ele><time>2026-03-28T16:14:00Z</time></trkpt><trkpt lat="44.6932013376839" lon="10.175273590656012"><ele>254.49999999999997</ele><time>2026-03-28T16:14:01Z</time></trkpt><trkpt lat="44.69309378187974" lon="10.175204969235846"><ele>256.0</ele><time>2026-03-28T16:14:03Z</time></trkpt><trkpt lat="44.69303642118578" lon="10.175155261604342"><ele>255.99999999999997</ele><time>2026-03-28T16:14:04Z</time></trkpt><trkpt lat="44.692976733921114" lon="10.175087232156743"><ele>256.0</ele><time>2026-03-28T16:14:05Z</time></trkpt><trkpt lat="44.692917223722496" lon="10.17501334812984"><ele>256.0</ele><time>2026-03-28T16:14:06Z</time></trkpt><trkpt lat="44.69284178326194" lon="10.174932123394058"><ele>256.0</ele><time>2026-03-28T16:14:07Z</time></trkpt><trkpt lat="44.692793316011745" lon="10.174833275906709"><ele>255.99999999999997</ele><time>2026-03-28T16:14:08Z</time></trkpt><trkpt lat="44.69275428765059" lon="10.174748449541807"><ele>256.0</ele><time>2026-03-28T16:14:09Z</time></trkpt><trkpt lat="44.69270729538899" lon="10.174677497889215"><ele>257.16666666666663</ele><time>2026-03-28T16:14:10Z</time></trkpt><trkpt lat="44.69264886863611" lon="10.174612635800278"><ele>258.3333333333333</ele><time>2026-03-28T16:14:11Z</time></trkpt><trkpt lat="44.692582552327124" lon="10.174550611924765"><ele>259.5</ele><time>2026-03-28T16:14:12Z</time></trkpt><trkpt lat="44.692470618123764" lon="10.174461483861629"><ele>260.6666666666667</ele><time>2026-03-28T16:14:14Z</time></trkpt><trkpt lat="44.692407983381905" lon="10.174413709338456"><ele>261.83333333333337</ele><time>2026-03-28T16:14:15Z</time></trkpt><trkpt lat="44.69234391654855" lon="10.174371614559032"><ele>263.0</ele><time>2026-03-28T16:14:16Z</time></trkpt><trkpt lat="44.692268935074644" lon="10.174342527361578"><ele>263.0</ele><time>2026-03-28T16:14:17Z</time></trkpt><trkpt lat="44.69219523253579" lon="10.174321424339103"><ele>263.0</ele><time>2026-03-28T16:14:18Z</time></trkpt><trkpt lat="44.692073076759534" lon="10.174263920086402"><ele>263.0</ele><time>2026-03-28T16:14:20Z</time></trkpt><trkpt lat="44.69200635635694" lon="10.174239260066024"><ele>263.0</ele><time>2026-03-28T16:14:20.999Z</time></trkpt><trkpt lat="44.69192602633498" lon="10.174197862143595"><ele>263.0</ele><time>2026-03-28T16:14:21.999Z</time></trkpt><trkpt lat="44.69185159230401" lon="10.174191376730295"><ele>263.0</ele><time>2026-03-28T16:14:22.999Z</time></trkpt><trkpt lat="44.69178056480779" lon="10.174151894794482"><ele>264.1666666666667</ele><time>2026-03-28T16:14:23.999Z</time></trkpt><trkpt lat="44.691712435594084" lon="10.174140516823343"><ele>265.33333333333337</ele><time>2026-03-28T16:14:24.999Z</time></trkpt><trkpt lat="44.6916280630974" lon="10.17414678370694"><ele>266.5</ele><time>2026-03-28T16:14:25.999Z</time></trkpt><trkpt lat="44.691557593549575" lon="10.174170133251568"><ele>267.6666666666667</ele><time>2026-03-28T16:14:26.999Z</time></trkpt><trkpt lat="44.691477910073175" lon="10.174225251826263"><ele>268.8333333333333</ele><time>2026-03-28T16:14:27.999Z</time></trkpt><trkpt lat="44.69141437961135" lon="10.174276864174626"><ele>270.0</ele><time>2026-03-28T16:14:28.999Z</time></trkpt><trkpt lat="44.691346864087954" lon="10.174327063878387"><ele>270.0</ele><time>2026-03-28T16:14:29.999Z</time></trkpt><trkpt lat="44.691283478269824" lon="10.174363895172105"><ele>270.0</ele><time>2026-03-28T16:14:30.999Z</time></trkpt><trkpt lat="44.69120363290983" lon="10.174414288210071"><ele>270.0</ele><time>2026-03-28T16:14:31.999Z</time></trkpt><trkpt lat="44.691120191009965" lon="10.174448593808437"><ele>270.0</ele><time>2026-03-28T16:14:32.999Z</time></trkpt><trkpt lat="44.69099143663896" lon="10.174509726553731"><ele>270.0</ele><time>2026-03-28T16:14:34.999Z</time></trkpt><trkpt lat="44.690911960696184" lon="10.174505727122803"><ele>270.2857142857143</ele><time>2026-03-28T16:14:35.999Z</time></trkpt><trkpt lat="44.690846756649314" lon="10.174544339787209"><ele>270.57142857142856</ele><time>2026-03-28T16:14:36.999Z</time></trkpt><trkpt lat="44.69078431051125" lon="10.174557636795587"><ele>270.85714285714283</ele><time>2026-03-28T16:14:37.999Z</time></trkpt><trkpt lat="44.69071521835915" lon="10.174584821134683"><ele>271.1428571428571</ele><time>2026-03-28T16:14:38.999Z</time></trkpt><trkpt lat="44.69065380315395" lon="10.174605835591816"><ele>271.42857142857144</ele><time>2026-03-28T16:14:39.999Z</time></trkpt><trkpt lat="44.690565782134286" lon="10.174640326093334"><ele>271.71428571428567</ele><time>2026-03-28T16:14:40.999Z</time></trkpt><trkpt lat="44.690481208813274" lon="10.174675158740076"><ele>272.0</ele><time>2026-03-28T16:14:41.999Z</time></trkpt><trkpt lat="44.69040591799764" lon="10.174697069136565"><ele>272.0</ele><time>2026-03-28T16:14:42.999Z</time></trkpt><trkpt lat="44.6903261763973" lon="10.174730419988661"><ele>272.0</ele><time>2026-03-28T16:14:43.999Z</time></trkpt><trkpt lat="44.69023584011986" lon="10.174737056174571"><ele>272.0</ele><time>2026-03-28T16:14:44.999Z</time></trkpt><trkpt lat="44.690175728361616" lon="10.174780038058602"><ele>272.0</ele><time>2026-03-28T16:14:45.999Z</time></trkpt><trkpt lat="44.690085354199326" lon="10.174792119455619"><ele>272.0</ele><time>2026-03-28T16:14:46.999Z</time></trkpt><trkpt lat="44.690004759811586" lon="10.174823899220552"><ele>272.0</ele><time>2026-03-28T16:14:47.999Z</time></trkpt><trkpt lat="44.689904940308715" lon="10.17486554487736"><ele>274.8</ele><time>2026-03-28T16:14:48.999Z</time></trkpt><trkpt lat="44.689818141298495" lon="10.17489819129089"><ele>277.6</ele><time>2026-03-28T16:14:49.999Z</time></trkpt><trkpt lat="44.689731238818986" lon="10.174950827037488"><ele>280.40000000000003</ele><time>2026-03-28T16:14:50.999Z</time></trkpt><trkpt lat="44.689641444819515" lon="10.174984130011586"><ele>283.2</ele><time>2026-03-28T16:14:51.999Z</time></trkpt><trkpt lat="44.68955011530269" lon="10.175017232791717"><ele>286.0</ele><time>2026-03-28T16:14:52.999Z</time></trkpt><trkpt lat="44.68945161198618" lon="10.175053651307385"><ele>286.8333333333333</ele><time>2026-03-28T16:14:53.999Z</time></trkpt><trkpt lat="44.689361954391934" lon="10.17507593709005"><ele>287.66666666666663</ele><time>2026-03-28T16:14:54.999Z</time></trkpt><trkpt lat="44.68926916697689" lon="10.175135045639884"><ele>288.5</ele><time>2026-03-28T16:14:55.999Z</time></trkpt><trkpt lat="44.689183204740466" lon="10.175162275536122"><ele>289.3333333333333</ele><time>2026-03-28T16:14:56.999Z</time></trkpt><trkpt lat="44.68909403119289" lon="10.175174434199207"><ele>290.1666666666667</ele><time>2026-03-28T16:14:57.999Z</time></trkpt><trkpt lat="44.689022656987305" lon="10.175199555525895"><ele>291.0</ele><time>2026-03-28T16:14:58.999Z</time></trkpt><trkpt lat="44.68895278347253" lon="10.17522276188358"><ele>291.0</ele><time>2026-03-28T16:14:59.999Z</time></trkpt><trkpt lat="44.688873581684334" lon="10.175263219536719"><ele>291.0</ele><time>2026-03-28T16:15:00.999Z</time></trkpt><trkpt lat="44.68880206797847" lon="10.175282279585545"><ele>291.0</ele><time>2026-03-28T16:15:01.999Z</time></trkpt><trkpt lat="44.6887327836551" lon="10.175299569481666"><ele>291.0</ele><time>2026-03-28T16:15:02.999Z</time></trkpt><trkpt lat="44.68866950745468" lon="10.175298557419962"><ele>291.0</ele><time>2026-03-28T16:15:03.999Z</time></trkpt><trkpt lat="44.688605045050224" lon="10.175334137536481"><ele>291.0</ele><time>2026-03-28T16:15:04.999Z</time></trkpt><trkpt lat="44.68853747367752" lon="10.175433855227423"><ele>291.8333333333333</ele><time>2026-03-28T16:15:06.999Z</time></trkpt><trkpt lat="44.68849030271154" lon="10.175506453001015"><ele>292.6666666666667</ele><time>2026-03-28T16:15:07.999Z</time></trkpt><trkpt lat="44.68836340271637" lon="10.175509837771754"><ele>293.5</ele><time>2026-03-28T16:15:09.999Z</time></trkpt><trkpt lat="44.688292455936505" lon="10.175514863881558"><ele>294.33333333333337</ele><time>2026-03-28T16:15:10.999Z</time></trkpt><trkpt lat="44.688199498513825" lon="10.175530872666801"><ele>295.1666666666667</ele><time>2026-03-28T16:15:13Z</time></trkpt><trkpt lat="44.68813945888471" lon="10.175581860323785"><ele>296.0</ele><time>2026-03-28T16:15:15Z</time></trkpt><trkpt lat="44.688058731025" lon="10.175738460274538"><ele>296.0</ele><time>2026-03-28T16:15:17Z</time></trkpt><trkpt lat="44.68801926755121" lon="10.175824097499225"><ele>296.0</ele><time>2026-03-28T16:15:18Z</time></trkpt><trkpt lat="44.68798645271849" lon="10.175918404058265"><ele>296.0</ele><time>2026-03-28T16:15:19Z</time></trkpt><trkpt lat="44.687940696290596" lon="10.17600175544203"><ele>296.0</ele><time>2026-03-28T16:15:20Z</time></trkpt><trkpt lat="44.687896175154435" lon="10.176080992183582"><ele>296.0</ele><time>2026-03-28T16:15:21Z</time></trkpt><trkpt lat="44.68785672473578" lon="10.176161698342638"><ele>296.0</ele><time>2026-03-28T16:15:22Z</time></trkpt><trkpt lat="44.68781729916329" lon="10.176233583477702"><ele>296.0</ele><time>2026-03-28T16:15:23Z</time></trkpt><trkpt lat="44.68777746952255" lon="10.176308290442584"><ele>296.1666666666667</ele><time>2026-03-28T16:15:24Z</time></trkpt><trkpt lat="44.68770059690008" lon="10.176465214993929"><ele>296.33333333333337</ele><time>2026-03-28T16:15:26Z</time></trkpt><trkpt lat="44.68765892014176" lon="10.176549386979682"><ele>296.5</ele><time>2026-03-28T16:15:27Z</time></trkpt><trkpt lat="44.687612127557585" lon="10.176609775439234"><ele>296.6666666666667</ele><time>2026-03-28T16:15:28Z</time></trkpt><trkpt lat="44.68754877653602" lon="10.17673689237963"><ele>296.8333333333333</ele><time>2026-03-28T16:15:30Z</time></trkpt><trkpt lat="44.68751656815369" lon="10.176818207775385"><ele>297.0</ele><time>2026-03-28T16:15:31Z</time></trkpt><trkpt lat="44.68746719152215" lon="10.176966992758983"><ele>297.0</ele><time>2026-03-28T16:15:33Z</time></trkpt><trkpt lat="44.68744910661633" lon="10.177056402264137"><ele>297.0</ele><time>2026-03-28T16:15:34Z</time></trkpt><trkpt lat="44.6874226571935" lon="10.177168485957965"><ele>297.0</ele><time>2026-03-28T16:15:35Z</time></trkpt><trkpt lat="44.68740266312513" lon="10.177286735425943"><ele>297.0</ele><time>2026-03-28T16:15:36Z</time></trkpt><trkpt lat="44.687378781690754" lon="10.17740859552161"><ele>297.0</ele><time>2026-03-28T16:15:37Z</time></trkpt><trkpt lat="44.68735512491871" lon="10.177526124553728"><ele>297.0</ele><time>2026-03-28T16:15:38Z</time></trkpt><trkpt lat="44.68733162008413" lon="10.177641136295275"><ele>296.57142857142856</ele><time>2026-03-28T16:15:39Z</time></trkpt><trkpt lat="44.68731044638878" lon="10.17774312646575"><ele>296.14285714285717</ele><time>2026-03-28T16:15:40Z</time></trkpt><trkpt lat="44.68729162114444" lon="10.177834321600528"><ele>295.7142857142857</ele><time>2026-03-28T16:15:41Z</time></trkpt><trkpt lat="44.68728671127325" lon="10.17793218480114"><ele>295.2857142857143</ele><time>2026-03-28T16:15:42Z</time></trkpt><trkpt lat="44.687272145998854" lon="10.178033678582093"><ele>294.8571428571429</ele><time>2026-03-28T16:15:43Z</time></trkpt><trkpt lat="44.68727850201888" lon="10.17813557518975"><ele>294.42857142857144</ele><time>2026-03-28T16:15:44Z</time></trkpt><trkpt lat="44.6872787493602" lon="10.178250162865075"><ele>294.0</ele><time>2026-03-28T16:15:45Z</time></trkpt><trkpt lat="44.687243101603244" lon="10.178377057699771"><ele>292.8333333333333</ele><time>2026-03-28T16:15:46Z</time></trkpt><trkpt lat="44.687232819284816" lon="10.17849310722414"><ele>291.6666666666667</ele><time>2026-03-28T16:15:47Z</time></trkpt><trkpt lat="44.68721012816837" lon="10.178594669788664"><ele>290.5</ele><time>2026-03-28T16:15:48Z</time></trkpt><trkpt lat="44.687188856266516" lon="10.178701605468369"><ele>289.33333333333337</ele><time>2026-03-28T16:15:49Z</time></trkpt><trkpt lat="44.687163019088885" lon="10.178824970008993"><ele>288.1666666666667</ele><time>2026-03-28T16:15:50Z</time></trkpt><trkpt lat="44.68714597373027" lon="10.178930518789475"><ele>287.0</ele><time>2026-03-28T16:15:51Z</time></trkpt><trkpt lat="44.68712673241216" lon="10.179054708089378"><ele>286.4</ele><time>2026-03-28T16:15:52Z</time></trkpt><trkpt lat="44.68708600000385" lon="10.179173282733919"><ele>285.79999999999995</ele><time>2026-03-28T16:15:53Z</time></trkpt><trkpt lat="44.687067532443" lon="10.179310358334385"><ele>285.2</ele><time>2026-03-28T16:15:54Z</time></trkpt><trkpt lat="44.68703407528456" lon="10.179450023849054"><ele>284.59999999999997</ele><time>2026-03-28T16:15:55Z</time></trkpt><trkpt lat="44.687004203891384" lon="10.179559790129586"><ele>284.0</ele><time>2026-03-28T16:15:56Z</time></trkpt><trkpt lat="44.68697880562333" lon="10.179676385567797"><ele>284.0</ele><time>2026-03-28T16:15:57Z</time></trkpt><trkpt lat="44.68695510119229" lon="10.179795076502526"><ele>284.0</ele><time>2026-03-28T16:15:58Z</time></trkpt><trkpt lat="44.68693469541731" lon="10.17992010593903"><ele>284.0</ele><time>2026-03-28T16:15:59Z</time></trkpt><trkpt lat="44.6869155235213" lon="10.180060314069216"><ele>284.0</ele><time>2026-03-28T16:16:00Z</time></trkpt><trkpt lat="44.68689942887717" lon="10.180170280726015"><ele>284.0</ele><time>2026-03-28T16:16:01Z</time></trkpt><trkpt lat="44.68687499691044" lon="10.180280985707904"><ele>284.0</ele><time>2026-03-28T16:16:02Z</time></trkpt><trkpt lat="44.68686397355171" lon="10.180373498701265"><ele>286.6666666666667</ele><time>2026-03-28T16:16:03Z</time></trkpt><trkpt lat="44.68684768001733" lon="10.180484680264565"><ele>289.33333333333337</ele><time>2026-03-28T16:16:04Z</time></trkpt><trkpt lat="44.686832366891615" lon="10.18060891831362"><ele>292.0</ele><time>2026-03-28T16:16:05Z</time></trkpt><trkpt lat="44.6867896550829" lon="10.18077420090382"><ele>294.6666666666667</ele><time>2026-03-28T16:16:07Z</time></trkpt><trkpt lat="44.6867761333703" lon="10.180863396161138"><ele>297.3333333333333</ele><time>2026-03-28T16:16:08Z</time></trkpt><trkpt lat="44.686765764244434" lon="10.18095663653556"><ele>300.0</ele><time>2026-03-28T16:16:09Z</time></trkpt><trkpt lat="44.68676875984399" lon="10.181081193921958"><ele>300.0</ele><time>2026-03-28T16:16:10Z</time></trkpt><trkpt lat="44.68676893636669" lon="10.181194147103797"><ele>300.0</ele><time>2026-03-28T16:16:11Z</time></trkpt><trkpt lat="44.686763075034214" lon="10.181324836758273"><ele>300.0</ele><time>2026-03-28T16:16:12Z</time></trkpt><trkpt lat="44.68675321874491" lon="10.181436565459586"><ele>300.0</ele><time>2026-03-28T16:16:13Z</time></trkpt><trkpt lat="44.68674916698211" lon="10.181554055267721"><ele>300.0</ele><time>2026-03-28T16:16:14Z</time></trkpt><trkpt lat="44.686744751868886" lon="10.181668298537073"><ele>300.0</ele><time>2026-03-28T16:16:15Z</time></trkpt><trkpt lat="44.68674497320345" lon="10.181778581974907"><ele>300.1666666666667</ele><time>2026-03-28T16:16:16Z</time></trkpt><trkpt lat="44.686737421716686" lon="10.181888742169042"><ele>300.3333333333333</ele><time>2026-03-28T16:16:17Z</time></trkpt><trkpt lat="44.68673663411277" lon="10.181998928609582"><ele>300.5</ele><time>2026-03-28T16:16:18Z</time></trkpt><trkpt lat="44.6867319183798" lon="10.18209784763867"><ele>300.66666666666663</ele><time>2026-03-28T16:16:19Z</time></trkpt><trkpt lat="44.686724812125966" lon="10.182197684797648"><ele>300.8333333333333</ele><time>2026-03-28T16:16:20Z</time></trkpt><trkpt lat="44.68673656920007" lon="10.182304620649065"><ele>301.0</ele><time>2026-03-28T16:16:21Z</time></trkpt><trkpt lat="44.68672651652023" lon="10.182427961321862"><ele>301.0</ele><time>2026-03-28T16:16:22Z</time></trkpt><trkpt lat="44.68672585977927" lon="10.182557789310827"><ele>301.0</ele><time>2026-03-28T16:16:23Z</time></trkpt><trkpt lat="44.686741636732044" lon="10.182676235387627"><ele>301.0</ele><time>2026-03-28T16:16:24Z</time></trkpt><trkpt lat="44.68673645280172" lon="10.182781773849042"><ele>301.0</ele><time>2026-03-28T16:16:25Z</time></trkpt><trkpt lat="44.68673852420893" lon="10.182904265384613"><ele>301.0</ele><time>2026-03-28T16:16:26Z</time></trkpt><trkpt lat="44.68674028903023" lon="10.183017104449481"><ele>301.0</ele><time>2026-03-28T16:16:27Z</time></trkpt><trkpt lat="44.68673645557058" lon="10.18312607983854"><ele>300.66666666666663</ele><time>2026-03-28T16:16:27.999Z</time></trkpt><trkpt lat="44.68673774502968" lon="10.183245129307473"><ele>300.3333333333333</ele><time>2026-03-28T16:16:28.999Z</time></trkpt><trkpt lat="44.68674716353828" lon="10.183355960093015"><ele>300.0</ele><time>2026-03-28T16:16:29.999Z</time></trkpt><trkpt lat="44.686748240839705" lon="10.183470676507861"><ele>299.6666666666667</ele><time>2026-03-28T16:16:30.999Z</time></trkpt><trkpt lat="44.686753368684016" lon="10.183575621861419"><ele>299.33333333333337</ele><time>2026-03-28T16:16:31.999Z</time></trkpt><trkpt lat="44.686752640721686" lon="10.183694801313463"><ele>299.0</ele><time>2026-03-28T16:16:32.999Z</time></trkpt><trkpt lat="44.6867625756612" lon="10.183800438021976"><ele>299.0</ele><time>2026-03-28T16:16:33.999Z</time></trkpt><trkpt lat="44.68677081275967" lon="10.183907869501592"><ele>299.0</ele><time>2026-03-28T16:16:34.999Z</time></trkpt><trkpt lat="44.686773546598076" lon="10.183997268465022"><ele>299.0</ele><time>2026-03-28T16:16:35.999Z</time></trkpt><trkpt lat="44.68676457644888" lon="10.184111735237508"><ele>299.0</ele><time>2026-03-28T16:16:37.999Z</time></trkpt><trkpt lat="44.68676052894581" lon="10.184207880998635"><ele>299.0</ele><time>2026-03-28T16:16:40.999Z</time></trkpt><trkpt lat="44.68680097718989" lon="10.184284617715765"><ele>299.0</ele><time>2026-03-28T16:16:41.999Z</time></trkpt><trkpt lat="44.68688074700588" lon="10.18436469477567"><ele>297.5</ele><time>2026-03-28T16:16:49.999Z</time></trkpt><trkpt lat="44.686944800123435" lon="10.184476124684364"><ele>296.0</ele><time>2026-03-28T16:16:50.999Z</time></trkpt><trkpt lat="44.687015634700536" lon="10.184558179983098"><ele>294.5</ele><time>2026-03-28T16:16:51.999Z</time></trkpt><trkpt lat="44.68706515642136" lon="10.18465726981696"><ele>293.0</ele><time>2026-03-28T16:16:52.999Z</time></trkpt><trkpt lat="44.68712598168755" lon="10.184731770999317"><ele>291.5</ele><time>2026-03-28T16:16:53.999Z</time></trkpt><trkpt lat="44.687175952294965" lon="10.1848073299105"><ele>290.0</ele><time>2026-03-28T16:16:54.999Z</time></trkpt><trkpt lat="44.68722982955553" lon="10.184891426669541"><ele>290.0</ele><time>2026-03-28T16:16:55.999Z</time></trkpt><trkpt lat="44.68726817365179" lon="10.18499642392828"><ele>290.0</ele><time>2026-03-28T16:16:56.999Z</time></trkpt><trkpt lat="44.68730428684942" lon="10.185109087504276"><ele>290.0</ele><time>2026-03-28T16:16:57.999Z</time></trkpt><trkpt lat="44.68735302610525" lon="10.185217868526443"><ele>290.0</ele><time>2026-03-28T16:16:58.999Z</time></trkpt><trkpt lat="44.68741966306829" lon="10.185292024608914"><ele>290.0</ele><time>2026-03-28T16:16:59.999Z</time></trkpt><trkpt lat="44.68751303992113" lon="10.185323094743095"><ele>290.0</ele><time>2026-03-28T16:17:00.999Z</time></trkpt><trkpt lat="44.68762199651178" lon="10.185309254331598"><ele>290.0</ele><time>2026-03-28T16:17:01.999Z</time></trkpt><trkpt lat="44.6877477213001" lon="10.185277227080531"><ele>290.0</ele><time>2026-03-28T16:17:02.999Z</time></trkpt><trkpt lat="44.68788601103041" lon="10.185261806920844"><ele>290.0</ele><time>2026-03-28T16:17:03.999Z</time></trkpt><trkpt lat="44.68803849809326" lon="10.185280832973831"><ele>290.0</ele><time>2026-03-28T16:17:04.999Z</time></trkpt><trkpt lat="44.68819122956404" lon="10.185311186552966"><ele>287.5</ele><time>2026-03-28T16:17:05.999Z</time></trkpt><trkpt lat="44.688351974271434" lon="10.185390035255594"><ele>285.0</ele><time>2026-03-28T16:17:07.999Z</time></trkpt><trkpt lat="44.68845281112889" lon="10.185437166512685"><ele>282.5</ele><time>2026-03-28T16:17:08.999Z</time></trkpt><trkpt lat="44.688547625352996" lon="10.185491312114983"><ele>280.0</ele><time>2026-03-28T16:17:09.999Z</time></trkpt><trkpt lat="44.68862455446347" lon="10.185543647430078"><ele>279.3333333333333</ele><time>2026-03-28T16:17:10.999Z</time></trkpt><trkpt lat="44.688679578209886" lon="10.185598103010303"><ele>278.66666666666663</ele><time>2026-03-28T16:17:11.999Z</time></trkpt><trkpt lat="44.688736258605566" lon="10.185649731169288"><ele>278.0</ele><time>2026-03-28T16:17:12.999Z</time></trkpt><trkpt lat="44.68878826766982" lon="10.185749024393896"><ele>277.3333333333333</ele><time>2026-03-28T16:17:13.999Z</time></trkpt><trkpt lat="44.688849406896416" lon="10.18587269718718"><ele>276.6666666666667</ele><time>2026-03-28T16:17:14.999Z</time></trkpt><trkpt lat="44.68891071072953" lon="10.186004576186889"><ele>276.0</ele><time>2026-03-28T16:17:15.999Z</time></trkpt><trkpt lat="44.68898674769254" lon="10.186116058187432"><ele>278.5</ele><time>2026-03-28T16:17:16.999Z</time></trkpt><trkpt lat="44.68908589555339" lon="10.18621228825816"><ele>281.0</ele><time>2026-03-28T16:17:17.999Z</time></trkpt><trkpt lat="44.68920534266293" lon="10.18628308717122"><ele>283.5</ele><time>2026-03-28T16:17:19Z</time></trkpt><trkpt lat="44.68933784446914" lon="10.186362539733542"><ele>286.0</ele><time>2026-03-28T16:17:20Z</time></trkpt><trkpt lat="44.68947552643005" lon="10.186404346303426"><ele>286.0</ele><time>2026-03-28T16:17:21Z</time></trkpt><trkpt lat="44.68961041086553" lon="10.186424531411967"><ele>286.0</ele><time>2026-03-28T16:17:22Z</time></trkpt><trkpt lat="44.68975370510574" lon="10.186424558794496"><ele>286.0</ele><time>2026-03-28T16:17:23Z</time></trkpt><trkpt lat="44.6898970067249" lon="10.186406903807246"><ele>286.0</ele><time>2026-03-28T16:17:24Z</time></trkpt><trkpt lat="44.69003268457669" lon="10.186393447423992"><ele>286.0</ele><time>2026-03-28T16:17:25Z</time></trkpt><trkpt lat="44.69017111290664" lon="10.18638510828094"><ele>286.0</ele><time>2026-03-28T16:17:26Z</time></trkpt><trkpt lat="44.690298035845906" lon="10.186360749407838"><ele>286.0</ele><time>2026-03-28T16:17:27Z</time></trkpt><trkpt lat="44.69039690465446" lon="10.18635331632066"><ele>286.0</ele><time>2026-03-28T16:17:28Z</time></trkpt><trkpt lat="44.69047596404206" lon="10.186374719834506"><ele>286.0</ele><time>2026-03-28T16:17:29Z</time></trkpt><trkpt lat="44.69054626649817" lon="10.186442625119474"><ele>288.0</ele><time>2026-03-28T16:17:30Z</time></trkpt><trkpt lat="44.6906073299285" lon="10.18656216811858"><ele>290.0</ele><time>2026-03-28T16:17:31Z</time></trkpt><trkpt lat="44.69063528693618" lon="10.186737712329313"><ele>292.0</ele><time>2026-03-28T16:17:32Z</time></trkpt><trkpt lat="44.69065743811202" lon="10.186942883747847"><ele>294.0</ele><time>2026-03-28T16:17:33Z</time></trkpt><trkpt lat="44.69070275472887" lon="10.1871450424304"><ele>294.0</ele><time>2026-03-28T16:17:34Z</time></trkpt><trkpt lat="44.69076018677212" lon="10.187319846066096"><ele>294.0</ele><time>2026-03-28T16:17:35Z</time></trkpt><trkpt lat="44.6908101811656" lon="10.18747055860926"><ele>294.0</ele><time>2026-03-28T16:17:36Z</time></trkpt><trkpt lat="44.690846729149136" lon="10.187624583060988"><ele>294.0</ele><time>2026-03-28T16:17:37Z</time></trkpt><trkpt lat="44.690856875229734" lon="10.187821698326292"><ele>293.75</ele><time>2026-03-28T16:17:38Z</time></trkpt><trkpt lat="44.69083977132764" lon="10.188034021395978"><ele>293.5</ele><time>2026-03-28T16:17:39Z</time></trkpt><trkpt lat="44.69081939444157" lon="10.188231873850587"><ele>293.25</ele><time>2026-03-28T16:17:40Z</time></trkpt><trkpt lat="44.69081866494387" lon="10.188410813561612"><ele>293.0</ele><time>2026-03-28T16:17:41Z</time></trkpt><trkpt lat="44.69083978729889" lon="10.188565915620336"><ele>291.5</ele><time>2026-03-28T16:17:42Z</time></trkpt><trkpt lat="44.69088848851313" lon="10.18872449857451"><ele>290.0</ele><time>2026-03-28T16:17:43Z</time></trkpt><trkpt lat="44.69096823297445" lon="10.18887764937547"><ele>288.5</ele><time>2026-03-28T16:17:44Z</time></trkpt><trkpt lat="44.69105491798018" lon="10.189056598750897"><ele>287.0</ele><time>2026-03-28T16:17:45Z</time></trkpt><trkpt lat="44.69114331420574" lon="10.189217539457562"><ele>286.0</ele><time>2026-03-28T16:17:46Z</time></trkpt><trkpt lat="44.691253003284814" lon="10.189355545475195"><ele>285.0</ele><time>2026-03-28T16:17:47Z</time></trkpt><trkpt lat="44.69138686981412" lon="10.189479469452017"><ele>284.0</ele><time>2026-03-28T16:17:48Z</time></trkpt><trkpt lat="44.69154962495539" lon="10.189592419005736"><ele>284.0</ele><time>2026-03-28T16:17:49Z</time></trkpt><trkpt lat="44.69171002747532" lon="10.189670757662583"><ele>284.0</ele><time>2026-03-28T16:17:50Z</time></trkpt><trkpt lat="44.69184516886551" lon="10.189741288289083"><ele>284.0</ele><time>2026-03-28T16:17:51Z</time></trkpt><trkpt lat="44.69192175612402" lon="10.189810059952649"><ele>284.0</ele><time>2026-03-28T16:17:52Z</time></trkpt><trkpt lat="44.69195500358461" lon="10.189937325887007"><ele>285.25</ele><time>2026-03-28T16:17:53Z</time></trkpt><trkpt lat="44.69198432486717" lon="10.190065169788662"><ele>286.5</ele><time>2026-03-28T16:17:54Z</time></trkpt><trkpt lat="44.692012779509966" lon="10.190227205930194"><ele>287.75</ele><time>2026-03-28T16:17:55Z</time></trkpt><trkpt lat="44.6920751356425" lon="10.190385279502483"><ele>289.0</ele><time>2026-03-28T16:17:56Z</time></trkpt><trkpt lat="44.69217417815551" lon="10.190492801256617"><ele>289.0</ele><time>2026-03-28T16:17:57Z</time></trkpt><trkpt lat="44.6923052756179" lon="10.190558194689642"><ele>289.0</ele><time>2026-03-28T16:17:58Z</time></trkpt><trkpt lat="44.6924627066467" lon="10.190585275628873"><ele>289.0</ele><time>2026-03-28T16:17:59Z</time></trkpt><trkpt lat="44.692625134916945" lon="10.190614684487047"><ele>291.0</ele><time>2026-03-28T16:18:00Z</time></trkpt><trkpt lat="44.69276663553931" lon="10.190637817686616"><ele>293.0</ele><time>2026-03-28T16:18:01Z</time></trkpt><trkpt lat="44.692898457165796" lon="10.19069290574133"><ele>295.0</ele><time>2026-03-28T16:18:02Z</time></trkpt><trkpt lat="44.69299794764513" lon="10.190708245525645"><ele>297.0</ele><time>2026-03-28T16:18:03Z</time></trkpt><trkpt lat="44.69307378687458" lon="10.19077468936219"><ele>297.0</ele><time>2026-03-28T16:18:04Z</time></trkpt><trkpt lat="44.69317590610373" lon="10.19086166346763"><ele>297.0</ele><time>2026-03-28T16:18:05Z</time></trkpt><trkpt lat="44.693232936141314" lon="10.1909680520554"><ele>297.0</ele><time>2026-03-28T16:18:06Z</time></trkpt><trkpt lat="44.693296726179774" lon="10.19106875364707"><ele>297.0</ele><time>2026-03-28T16:18:07Z</time></trkpt><trkpt lat="44.69335804482723" lon="10.191166585505712"><ele>297.0</ele><time>2026-03-28T16:18:08Z</time></trkpt><trkpt lat="44.693413213465945" lon="10.191263583851129"><ele>297.0</ele><time>2026-03-28T16:18:09Z</time></trkpt><trkpt lat="44.6934808218688" lon="10.19137219105223"><ele>297.0</ele><time>2026-03-28T16:18:10Z</time></trkpt><trkpt lat="44.693537155557564" lon="10.191463280908204"><ele>297.0</ele><time>2026-03-28T16:18:11Z</time></trkpt><trkpt lat="44.693605110590575" lon="10.191560861119923"><ele>297.0</ele><time>2026-03-28T16:18:12Z</time></trkpt><trkpt lat="44.69367055635308" lon="10.191650154208402"><ele>297.0</ele><time>2026-03-28T16:18:13Z</time></trkpt><trkpt lat="44.69373781238221" lon="10.191767258841585"><ele>294.75</ele><time>2026-03-28T16:18:14Z</time></trkpt><trkpt lat="44.6937813520117" lon="10.191933669256418"><ele>292.5</ele><time>2026-03-28T16:18:15Z</time></trkpt><trkpt lat="44.69382131797521" lon="10.192122425688241"><ele>290.25</ele><time>2026-03-28T16:18:16Z</time></trkpt><trkpt lat="44.69384035704368" lon="10.192297602393648"><ele>288.0</ele><time>2026-03-28T16:18:17Z</time></trkpt><trkpt lat="44.69384231043011" lon="10.192434055339001"><ele>288.0</ele><time>2026-03-28T16:18:18Z</time></trkpt><trkpt lat="44.6938461674124" lon="10.192570021889065"><ele>288.0</ele><time>2026-03-28T16:18:19Z</time></trkpt><trkpt lat="44.693885753786574" lon="10.19271816967065"><ele>288.0</ele><time>2026-03-28T16:18:20Z</time></trkpt><trkpt lat="44.693956931220825" lon="10.192863315523526"><ele>288.0</ele><time>2026-03-28T16:18:21Z</time></trkpt><trkpt lat="44.69405644212836" lon="10.193022584878086"><ele>288.25</ele><time>2026-03-28T16:18:22Z</time></trkpt><trkpt lat="44.69415006548468" lon="10.193178138372934"><ele>288.5</ele><time>2026-03-28T16:18:23Z</time></trkpt><trkpt lat="44.6942317627592" lon="10.193337209536391"><ele>288.75</ele><time>2026-03-28T16:18:24Z</time></trkpt><trkpt lat="44.694293331077354" lon="10.193494694261272"><ele>289.0</ele><time>2026-03-28T16:18:25Z</time></trkpt><trkpt lat="44.694311003907124" lon="10.193679469648258"><ele>289.0</ele><time>2026-03-28T16:18:26Z</time></trkpt><trkpt lat="44.69434671389922" lon="10.193875658057886"><ele>289.0</ele><time>2026-03-28T16:18:27Z</time></trkpt><trkpt lat="44.69438210804872" lon="10.194073492768226"><ele>289.0</ele><time>2026-03-28T16:18:28Z</time></trkpt><trkpt lat="44.6944293919063" lon="10.194259800779548"><ele>289.0</ele><time>2026-03-28T16:18:29Z</time></trkpt><trkpt lat="44.694478545999154" lon="10.194435321040162"><ele>285.5</ele><time>2026-03-28T16:18:29.999Z</time></trkpt><trkpt lat="44.69453331232491" lon="10.194607375122551"><ele>282.0</ele><time>2026-03-28T16:18:30.999Z</time></trkpt><trkpt lat="44.69460496995307" lon="10.19477942982063"><ele>278.5</ele><time>2026-03-28T16:18:31.999Z</time></trkpt><trkpt lat="44.69469600646027" lon="10.194963166185413"><ele>275.0</ele><time>2026-03-28T16:18:32.999Z</time></trkpt><trkpt lat="44.69479940819248" lon="10.195169363090058"><ele>275.0</ele><time>2026-03-28T16:18:33.999Z</time></trkpt><trkpt lat="44.69490872069971" lon="10.195396082860828"><ele>275.0</ele><time>2026-03-28T16:18:34.999Z</time></trkpt><trkpt lat="44.69501078397113" lon="10.195606631656494"><ele>275.0</ele><time>2026-03-28T16:18:35.999Z</time></trkpt><trkpt lat="44.69511533378936" lon="10.195819955777417"><ele>274.0</ele><time>2026-03-28T16:18:36.999Z</time></trkpt><trkpt lat="44.69520978362466" lon="10.196014053122807"><ele>273.0</ele><time>2026-03-28T16:18:37.999Z</time></trkpt><trkpt lat="44.69529717945136" lon="10.196170958690663"><ele>272.0</ele><time>2026-03-28T16:18:38.999Z</time></trkpt><trkpt lat="44.69538780688744" lon="10.196319178935225"><ele>271.0</ele><time>2026-03-28T16:18:39.999Z</time></trkpt><trkpt lat="44.69548158390252" lon="10.196456112095559"><ele>273.2</ele><time>2026-03-28T16:18:40.999Z</time></trkpt><trkpt lat="44.69554175655534" lon="10.19656110807738"><ele>275.40000000000003</ele><time>2026-03-28T16:18:41.999Z</time></trkpt><trkpt lat="44.695554571277206" lon="10.196689153999234"><ele>277.6</ele><time>2026-03-28T16:18:42.999Z</time></trkpt><trkpt lat="44.69553430917599" lon="10.196831416221466"><ele>279.8</ele><time>2026-03-28T16:18:43.999Z</time></trkpt><trkpt lat="44.695528359270504" lon="10.19700631238915"><ele>282.0</ele><time>2026-03-28T16:18:44.999Z</time></trkpt><trkpt lat="44.69556361448386" lon="10.197173266192435"><ele>282.0</ele><time>2026-03-28T16:18:45.999Z</time></trkpt><trkpt lat="44.695626042336976" lon="10.197328493474236"><ele>282.0</ele><time>2026-03-28T16:18:46.999Z</time></trkpt><trkpt lat="44.69570899741952" lon="10.197451842036548"><ele>282.0</ele><time>2026-03-28T16:18:47.999Z</time></trkpt><trkpt lat="44.69582608217922" lon="10.197531506878505"><ele>282.0</ele><time>2026-03-28T16:18:48.999Z</time></trkpt><trkpt lat="44.69597202954848" lon="10.19759075913541"><ele>282.5</ele><time>2026-03-28T16:18:49.999Z</time></trkpt><trkpt lat="44.696136269839755" lon="10.19765501243321"><ele>283.0</ele><time>2026-03-28T16:18:50.999Z</time></trkpt><trkpt lat="44.69625868544816" lon="10.197716711672054"><ele>283.5</ele><time>2026-03-28T16:18:51.999Z</time></trkpt><trkpt lat="44.69636627760589" lon="10.197770049636603"><ele>284.0</ele><time>2026-03-28T16:18:52.999Z</time></trkpt><trkpt lat="44.6964926785992" lon="10.197807134699612"><ele>284.0</ele><time>2026-03-28T16:18:53.999Z</time></trkpt><trkpt lat="44.6966374826372" lon="10.197852522104045"><ele>284.0</ele><time>2026-03-28T16:18:54.999Z</time></trkpt><trkpt lat="44.696792840719546" lon="10.197899627633195"><ele>284.0</ele><time>2026-03-28T16:18:55.999Z</time></trkpt><trkpt lat="44.69693290246266" lon="10.197931202687865"><ele>284.0</ele><time>2026-03-28T16:18:56.999Z</time></trkpt><trkpt lat="44.69705548945086" lon="10.197961645388295"><ele>284.0</ele><time>2026-03-28T16:18:57.999Z</time></trkpt><trkpt lat="44.6971492502826" lon="10.197989561328562"><ele>284.0</ele><time>2026-03-28T16:18:58.999Z</time></trkpt><trkpt lat="44.69722399641943" lon="10.198022126562819"><ele>284.0</ele><time>2026-03-28T16:18:59.999Z</time></trkpt><trkpt lat="44.69728106887162" lon="10.198094308838927"><ele>284.0</ele><time>2026-03-28T16:19:00.999Z</time></trkpt><trkpt lat="44.69731592850269" lon="10.19818354087558"><ele>284.0</ele><time>2026-03-28T16:19:01.999Z</time></trkpt><trkpt lat="44.69730691926721" lon="10.19828138151742"><ele>284.0</ele><time>2026-03-28T16:19:02.999Z</time></trkpt><trkpt lat="44.69726265218976" lon="10.198365651700854"><ele>284.0</ele><time>2026-03-28T16:19:03.999Z</time></trkpt><trkpt lat="44.697179288181225" lon="10.198414017657745"><ele>284.0</ele><time>2026-03-28T16:19:04.999Z</time></trkpt><trkpt lat="44.697084356202325" lon="10.198450288594207"><ele>284.0</ele><time>2026-03-28T16:19:05.999Z</time></trkpt><trkpt lat="44.696987964081195" lon="10.198524222136413"><ele>284.0</ele><time>2026-03-28T16:19:06.999Z</time></trkpt><trkpt lat="44.69689983911158" lon="10.198601239447948"><ele>284.0</ele><time>2026-03-28T16:19:07.999Z</time></trkpt><trkpt lat="44.69682909714949" lon="10.198704686299529"><ele>286.0</ele><time>2026-03-28T16:19:08.999Z</time></trkpt><trkpt lat="44.696783204597594" lon="10.19885384772296"><ele>288.0</ele><time>2026-03-28T16:19:09.999Z</time></trkpt><trkpt lat="44.69676545119171" lon="10.19907109031997"><ele>290.0</ele><time>2026-03-28T16:19:10.999Z</time></trkpt><trkpt lat="44.69676729981982" lon="10.199309009599762"><ele>292.0</ele><time>2026-03-28T16:19:11.999Z</time></trkpt><trkpt lat="44.696776185924016" lon="10.19952701567056"><ele>292.0</ele><time>2026-03-28T16:19:12.999Z</time></trkpt><trkpt lat="44.69678499805713" lon="10.199743982520678"><ele>292.0</ele><time>2026-03-28T16:19:13.999Z</time></trkpt><trkpt lat="44.696798040652084" lon="10.199945828874856"><ele>292.0</ele><time>2026-03-28T16:19:14.999Z</time></trkpt><trkpt lat="44.696805118375984" lon="10.20012577790938"><ele>292.0</ele><time>2026-03-28T16:19:15.999Z</time></trkpt><trkpt lat="44.69679044746914" lon="10.200287854909167"><ele>293.0</ele><time>2026-03-28T16:19:16.999Z</time></trkpt><trkpt lat="44.69676846282025" lon="10.20043159112668"><ele>294.0</ele><time>2026-03-28T16:19:17.999Z</time></trkpt><trkpt lat="44.69673372310618" lon="10.200559761072782"><ele>295.0</ele><time>2026-03-28T16:19:18.999Z</time></trkpt><trkpt lat="44.69668538525645" lon="10.200675914949974"><ele>296.0</ele><time>2026-03-28T16:19:19.999Z</time></trkpt><trkpt lat="44.69662761715856" lon="10.200781222242792"><ele>297.0</ele><time>2026-03-28T16:19:20.999Z</time></trkpt><trkpt lat="44.69656941899381" lon="10.200895639238688"><ele>297.5</ele><time>2026-03-28T16:19:21.999Z</time></trkpt><trkpt lat="44.69649502359945" lon="10.201033253462068"><ele>298.0</ele><time>2026-03-28T16:19:22.999Z</time></trkpt><trkpt lat="44.696416603263756" lon="10.201190666804687"><ele>298.5</ele><time>2026-03-28T16:19:23.999Z</time></trkpt><trkpt lat="44.696350339774234" lon="10.20135732916213"><ele>299.0</ele><time>2026-03-28T16:19:25Z</time></trkpt><trkpt lat="44.696300158516536" lon="10.20153394351947"><ele>297.25</ele><time>2026-03-28T16:19:26Z</time></trkpt><trkpt lat="44.69627092051252" lon="10.201711436662444"><ele>295.5</ele><time>2026-03-28T16:19:27Z</time></trkpt><trkpt lat="44.6962811077087" lon="10.20189638379243"><ele>293.75</ele><time>2026-03-28T16:19:28Z</time></trkpt><trkpt lat="44.69634705638804" lon="10.202076468667219"><ele>292.0</ele><time>2026-03-28T16:19:29Z</time></trkpt><trkpt lat="44.69643567601521" lon="10.202218043153106"><ele>291.66666666666663</ele><time>2026-03-28T16:19:30Z</time></trkpt><trkpt lat="44.6965577098243" lon="10.202346431521736"><ele>291.3333333333333</ele><time>2026-03-28T16:19:31Z</time></trkpt><trkpt lat="44.69666858405493" lon="10.202494808065008"><ele>291.0</ele><time>2026-03-28T16:19:32Z</time></trkpt><trkpt lat="44.69673259031336" lon="10.202686546864769"><ele>291.0</ele><time>2026-03-28T16:19:33Z</time></trkpt><trkpt lat="44.6968154467502" lon="10.20290800368236"><ele>291.0</ele><time>2026-03-28T16:19:34Z</time></trkpt><trkpt lat="44.696863860561635" lon="10.203115698540884"><ele>291.0</ele><time>2026-03-28T16:19:35Z</time></trkpt><trkpt lat="44.696931181081474" lon="10.203299289021135"><ele>290.0</ele><time>2026-03-28T16:19:36Z</time></trkpt><trkpt lat="44.69705870812822" lon="10.203483604318242"><ele>289.0</ele><time>2026-03-28T16:19:37Z</time></trkpt><trkpt lat="44.697236620648994" lon="10.203695149762943"><ele>288.0</ele><time>2026-03-28T16:19:38Z</time></trkpt><trkpt lat="44.69740776179519" lon="10.203953476105303"><ele>291.0</ele><time>2026-03-28T16:19:39Z</time></trkpt><trkpt lat="44.69744598968729" lon="10.204036440115411"><ele>294.0</ele><time>2026-03-28T16:19:40Z</time></trkpt><trkpt lat="44.697514126385904" lon="10.20423733189767"><ele>297.0</ele><time>2026-03-28T16:19:41Z</time></trkpt><trkpt lat="44.69757454634187" lon="10.204491650140938"><ele>300.0</ele><time>2026-03-28T16:19:42Z</time></trkpt><trkpt lat="44.69761257133971" lon="10.204711222980528"><ele>301.25</ele><time>2026-03-28T16:19:43Z</time></trkpt><trkpt lat="44.69764561857085" lon="10.204900080434012"><ele>302.5</ele><time>2026-03-28T16:19:44Z</time></trkpt><trkpt lat="44.69769403226001" lon="10.205071594478008"><ele>303.75</ele><time>2026-03-28T16:19:45Z</time></trkpt><trkpt lat="44.69772175963688" lon="10.205231143322578"><ele>305.0</ele><time>2026-03-28T16:19:46Z</time></trkpt><trkpt lat="44.69775130707481" lon="10.205403295622814"><ele>303.75</ele><time>2026-03-28T16:19:47Z</time></trkpt><trkpt lat="44.697798787919744" lon="10.205581387151804"><ele>302.5</ele><time>2026-03-28T16:19:48Z</time></trkpt><trkpt lat="44.69785862815683" lon="10.205767742812059"><ele>301.25</ele><time>2026-03-28T16:19:49Z</time></trkpt><trkpt lat="44.69792337862886" lon="10.205962107933203"><ele>300.0</ele><time>2026-03-28T16:19:50Z</time></trkpt><trkpt lat="44.697986893114795" lon="10.206148299156117"><ele>300.0</ele><time>2026-03-28T16:19:51Z</time></trkpt><trkpt lat="44.69807123435254" lon="10.206349924220653"><ele>300.0</ele><time>2026-03-28T16:19:52Z</time></trkpt><trkpt lat="44.69815972021913" lon="10.206553422619216"><ele>300.0</ele><time>2026-03-28T16:19:53Z</time></trkpt><trkpt lat="44.698248277726414" lon="10.206750682432402"><ele>299.0</ele><time>2026-03-28T16:19:54Z</time></trkpt><trkpt lat="44.69832957564585" lon="10.206944266123653"><ele>298.0</ele><time>2026-03-28T16:19:55Z</time></trkpt><trkpt lat="44.698407320378905" lon="10.207131917675522"><ele>297.0</ele><time>2026-03-28T16:19:56Z</time></trkpt><trkpt lat="44.69848492351385" lon="10.20731145154117"><ele>295.6666666666667</ele><time>2026-03-28T16:19:56.999Z</time></trkpt><trkpt lat="44.6985627688848" lon="10.207487291190594"><ele>294.33333333333337</ele><time>2026-03-28T16:19:57.999Z</time></trkpt><trkpt lat="44.69864138685129" lon="10.20767295576637"><ele>293.0</ele><time>2026-03-28T16:19:58.999Z</time></trkpt><trkpt lat="44.69871764199458" lon="10.207859984034705"><ele>290.6666666666667</ele><time>2026-03-28T16:19:59.999Z</time></trkpt><trkpt lat="44.69879664033382" lon="10.20804899748059"><ele>288.3333333333333</ele><time>2026-03-28T16:20:00.999Z</time></trkpt><trkpt lat="44.698879124530606" lon="10.208237210744763"><ele>286.0</ele><time>2026-03-28T16:20:01.999Z</time></trkpt><trkpt lat="44.69897854695182" lon="10.208411708239378"><ele>285.66666666666663</ele><time>2026-03-28T16:20:02.999Z</time></trkpt><trkpt lat="44.699084340932764" lon="10.208584814739663"><ele>285.3333333333333</ele><time>2026-03-28T16:20:03.999Z</time></trkpt><trkpt lat="44.699184524856584" lon="10.20876512779013"><ele>285.0</ele><time>2026-03-28T16:20:04.999Z</time></trkpt><trkpt lat="44.699272634125414" lon="10.208944062210962"><ele>284.75</ele><time>2026-03-28T16:20:05.999Z</time></trkpt><trkpt lat="44.69935496063336" lon="10.209114448208574"><ele>284.5</ele><time>2026-03-28T16:20:06.999Z</time></trkpt><trkpt lat="44.69944003495302" lon="10.209277965813273"><ele>284.25</ele><time>2026-03-28T16:20:07.999Z</time></trkpt><trkpt lat="44.69952442439387" lon="10.209437044474244"><ele>284.0</ele><time>2026-03-28T16:20:08.999Z</time></trkpt><trkpt lat="44.699597519273226" lon="10.209567336140266"><ele>283.75</ele><time>2026-03-28T16:20:09.999Z</time></trkpt><trkpt lat="44.699692903472915" lon="10.20967559141893"><ele>283.5</ele><time>2026-03-28T16:20:10.999Z</time></trkpt><trkpt lat="44.699827301504456" lon="10.209764046512436"><ele>283.25</ele><time>2026-03-28T16:20:11.999Z</time></trkpt><trkpt lat="44.69995985589938" lon="10.209837201721754"><ele>283.0</ele><time>2026-03-28T16:20:12.999Z</time></trkpt><trkpt lat="44.70006493777663" lon="10.209929490084793"><ele>281.75</ele><time>2026-03-28T16:20:13.999Z</time></trkpt><trkpt lat="44.70015023587272" lon="10.210050480664304"><ele>280.5</ele><time>2026-03-28T16:20:14.999Z</time></trkpt><trkpt lat="44.70023956424102" lon="10.210232759185551"><ele>279.25</ele><time>2026-03-28T16:20:15.999Z</time></trkpt><trkpt lat="44.70033444936502" lon="10.210405760416592"><ele>278.0</ele><time>2026-03-28T16:20:16.999Z</time></trkpt><trkpt lat="44.70043617601804" lon="10.210562255705394"><ele>273.6666666666667</ele><time>2026-03-28T16:20:17.999Z</time></trkpt><trkpt lat="44.700557322120545" lon="10.210696879719762"><ele>269.3333333333333</ele><time>2026-03-28T16:20:18.999Z</time></trkpt><trkpt lat="44.70069291388417" lon="10.210817696815763"><ele>265.0</ele><time>2026-03-28T16:20:19.999Z</time></trkpt><trkpt lat="44.70085459654076" lon="10.21089742344295"><ele>265.0</ele><time>2026-03-28T16:20:20.999Z</time></trkpt><trkpt lat="44.701016431446085" lon="10.21099008612056"><ele>265.0</ele><time>2026-03-28T16:20:21.999Z</time></trkpt><trkpt lat="44.70118381614446" lon="10.211093728133665"><ele>265.0</ele><time>2026-03-28T16:20:22.999Z</time></trkpt><trkpt lat="44.70136108213748" lon="10.211173283210023"><ele>262.0</ele><time>2026-03-28T16:20:23.999Z</time></trkpt><trkpt lat="44.70153327547426" lon="10.21124464512251"><ele>259.0</ele><time>2026-03-28T16:20:24.999Z</time></trkpt><trkpt lat="44.70170433011599" lon="10.211302464185934"><ele>256.0</ele><time>2026-03-28T16:20:25.999Z</time></trkpt><trkpt lat="44.70187179743952" lon="10.211357709339872"><ele>254.33333333333331</ele><time>2026-03-28T16:20:26.999Z</time></trkpt><trkpt lat="44.70203818243031" lon="10.211415022861653"><ele>252.66666666666669</ele><time>2026-03-28T16:20:27.999Z</time></trkpt><trkpt lat="44.70220064527471" lon="10.211467399959233"><ele>251.0</ele><time>2026-03-28T16:20:28.999Z</time></trkpt><trkpt lat="44.70236386242068" lon="10.211521122739128"><ele>249.66666666666669</ele><time>2026-03-28T16:20:29.999Z</time></trkpt><trkpt lat="44.70253634024477" lon="10.211575597313466"><ele>248.33333333333331</ele><time>2026-03-28T16:20:30.999Z</time></trkpt><trkpt lat="44.702709112029964" lon="10.211629155062225"><ele>247.0</ele><time>2026-03-28T16:20:31.999Z</time></trkpt><trkpt lat="44.70288900276996" lon="10.211686484501111"><ele>246.33333333333331</ele><time>2026-03-28T16:20:32.999Z</time></trkpt><trkpt lat="44.70306762139056" lon="10.211750579813934"><ele>245.66666666666669</ele><time>2026-03-28T16:20:33.999Z</time></trkpt><trkpt lat="44.703246618045696" lon="10.211812334940621"><ele>245.0</ele><time>2026-03-28T16:20:34.999Z</time></trkpt><trkpt lat="44.703417802734826" lon="10.21187069446036"><ele>243.33333333333334</ele><time>2026-03-28T16:20:35.999Z</time></trkpt><trkpt lat="44.703595393608154" lon="10.211925914174294"><ele>241.66666666666669</ele><time>2026-03-28T16:20:36.999Z</time></trkpt><trkpt lat="44.70377027158604" lon="10.21197754292796"><ele>240.0</ele><time>2026-03-28T16:20:37.999Z</time></trkpt><trkpt lat="44.70394724624849" lon="10.212040862558554"><ele>240.0</ele><time>2026-03-28T16:20:38.999Z</time></trkpt><trkpt lat="44.70411979039918" lon="10.212099494127637"><ele>240.0</ele><time>2026-03-28T16:20:39.999Z</time></trkpt><trkpt lat="44.7042999450536" lon="10.212164587344118"><ele>240.0</ele><time>2026-03-28T16:20:40.999Z</time></trkpt><trkpt lat="44.70448653402566" lon="10.212233614998807"><ele>238.0</ele><time>2026-03-28T16:20:41.999Z</time></trkpt><trkpt lat="44.704690208217045" lon="10.212308333544213"><ele>236.0</ele><time>2026-03-28T16:20:42.999Z</time></trkpt><trkpt lat="44.70485930940751" lon="10.212364286417921"><ele>234.0</ele><time>2026-03-28T16:20:43.999Z</time></trkpt><trkpt lat="44.70504183666521" lon="10.212419781923488"><ele>234.0</ele><time>2026-03-28T16:20:44.999Z</time></trkpt><trkpt lat="44.705229333676925" lon="10.212475329806761"><ele>234.0</ele><time>2026-03-28T16:20:45.999Z</time></trkpt><trkpt lat="44.70538354700726" lon="10.212522823466841"><ele>234.0</ele><time>2026-03-28T16:20:46.999Z</time></trkpt><trkpt lat="44.705537564084445" lon="10.212584531773766"><ele>232.33333333333331</ele><time>2026-03-28T16:20:47.999Z</time></trkpt><trkpt lat="44.705773997807306" lon="10.212642347097665"><ele>230.66666666666666</ele><time>2026-03-28T16:20:48.999Z</time></trkpt><trkpt lat="44.70596001695851" lon="10.212711125614591"><ele>229.0</ele><time>2026-03-28T16:20:49.999Z</time></trkpt><trkpt lat="44.7061544734581" lon="10.212777655037344"><ele>228.5</ele><time>2026-03-28T16:20:50.999Z</time></trkpt><trkpt lat="44.706413432232864" lon="10.212855485089666"><ele>228.0</ele><time>2026-03-28T16:20:51.999Z</time></trkpt><trkpt lat="44.706678873219595" lon="10.212959768968718"><ele>228.0</ele><time>2026-03-28T16:20:52.999Z</time></trkpt><trkpt lat="44.706865499468755" lon="10.213012557967438"><ele>228.0</ele><time>2026-03-28T16:20:54.999Z</time></trkpt><trkpt lat="44.7070363121969" lon="10.213072922232202"><ele>228.0</ele><time>2026-03-28T16:20:55.999Z</time></trkpt><trkpt lat="44.70720054000847" lon="10.213132614481859"><ele>227.33333333333331</ele><time>2026-03-28T16:20:56.999Z</time></trkpt><trkpt lat="44.70735551172695" lon="10.21318329312598"><ele>226.66666666666666</ele><time>2026-03-28T16:20:57.999Z</time></trkpt><trkpt lat="44.70750877768253" lon="10.213231783709395"><ele>226.0</ele><time>2026-03-28T16:20:58.999Z</time></trkpt><trkpt lat="44.70766991639878" lon="10.21329320340679"><ele>224.66666666666666</ele><time>2026-03-28T16:20:59.999Z</time></trkpt><trkpt lat="44.70784199296375" lon="10.213349189800809"><ele>223.33333333333331</ele><time>2026-03-28T16:21:00.999Z</time></trkpt><trkpt lat="44.70801176292009" lon="10.213418115543794"><ele>222.0</ele><time>2026-03-28T16:21:01.999Z</time></trkpt><trkpt lat="44.708184121237885" lon="10.213488774632959"><ele>222.0</ele><time>2026-03-28T16:21:02.999Z</time></trkpt><trkpt lat="44.708353774975656" lon="10.213567632305827"><ele>222.0</ele><time>2026-03-28T16:21:03.999Z</time></trkpt><trkpt lat="44.70853028520293" lon="10.21364851829305"><ele>222.0</ele><time>2026-03-28T16:21:04.999Z</time></trkpt><trkpt lat="44.7087056539152" lon="10.213740040246694"><ele>220.33333333333331</ele><time>2026-03-28T16:21:05.999Z</time></trkpt><trkpt lat="44.7088802962931" lon="10.21382831575708"><ele>218.66666666666666</ele><time>2026-03-28T16:21:06.999Z</time></trkpt><trkpt lat="44.70905433000272" lon="10.213916871913918"><ele>217.0</ele><time>2026-03-28T16:21:07.999Z</time></trkpt><trkpt lat="44.70922396221789" lon="10.21399818128549"><ele>217.0</ele><time>2026-03-28T16:21:08.999Z</time></trkpt><trkpt lat="44.709391407139435" lon="10.214078468344413"><ele>217.0</ele><time>2026-03-28T16:21:09.999Z</time></trkpt><trkpt lat="44.70956002518361" lon="10.21416107023152"><ele>217.0</ele><time>2026-03-28T16:21:10.999Z</time></trkpt><trkpt lat="44.70973261600551" lon="10.214242959991589"><ele>216.33333333333331</ele><time>2026-03-28T16:21:11.999Z</time></trkpt><trkpt lat="44.709906387740624" lon="10.214327280984817"><ele>215.66666666666669</ele><time>2026-03-28T16:21:12.999Z</time></trkpt><trkpt lat="44.71007850121074" lon="10.214407891572057"><ele>215.0</ele><time>2026-03-28T16:21:13.999Z</time></trkpt><trkpt lat="44.710251139266866" lon="10.214494834989601"><ele>214.0</ele><time>2026-03-28T16:21:14.999Z</time></trkpt><trkpt lat="44.71042346089215" lon="10.214576890301345"><ele>213.0</ele><time>2026-03-28T16:21:15.999Z</time></trkpt><trkpt lat="44.71059235991607" lon="10.214662815263159"><ele>212.0</ele><time>2026-03-28T16:21:16.999Z</time></trkpt><trkpt lat="44.710761436324" lon="10.214745599016247"><ele>210.66666666666669</ele><time>2026-03-28T16:21:17.999Z</time></trkpt><trkpt lat="44.71093072988027" lon="10.214822242286575"><ele>209.33333333333331</ele><time>2026-03-28T16:21:18.999Z</time></trkpt><trkpt lat="44.71109901759998" lon="10.214909951685158"><ele>208.0</ele><time>2026-03-28T16:21:19.999Z</time></trkpt><trkpt lat="44.711261500927826" lon="10.214989885346423"><ele>207.33333333333331</ele><time>2026-03-28T16:21:20.999Z</time></trkpt><trkpt lat="44.711423084897724" lon="10.215059152069434"><ele>206.66666666666669</ele><time>2026-03-28T16:21:21.999Z</time></trkpt><trkpt lat="44.71158267242735" lon="10.215129527310134"><ele>206.0</ele><time>2026-03-28T16:21:22.999Z</time></trkpt><trkpt lat="44.711737149296795" lon="10.215207885141847"><ele>206.0</ele><time>2026-03-28T16:21:23.999Z</time></trkpt><trkpt lat="44.71189293864084" lon="10.21527826485467"><ele>206.0</ele><time>2026-03-28T16:21:24.999Z</time></trkpt><trkpt lat="44.71204513991024" lon="10.21534816601618"><ele>206.0</ele><time>2026-03-28T16:21:25.999Z</time></trkpt><trkpt lat="44.71219802843064" lon="10.215427728494728"><ele>205.33333333333334</ele><time>2026-03-28T16:21:26.999Z</time></trkpt><trkpt lat="44.71234978329928" lon="10.21551095616908"><ele>204.66666666666669</ele><time>2026-03-28T16:21:27.999Z</time></trkpt><trkpt lat="44.71250777181964" lon="10.215583563967561"><ele>204.0</ele><time>2026-03-28T16:21:28.999Z</time></trkpt><trkpt lat="44.71266893266642" lon="10.215653978584433"><ele>203.0</ele><time>2026-03-28T16:21:29.999Z</time></trkpt><trkpt lat="44.712828405087166" lon="10.215736577564488"><ele>202.0</ele><time>2026-03-28T16:21:30.999Z</time></trkpt><trkpt lat="44.7129846598881" lon="10.215805621139543"><ele>201.0</ele><time>2026-03-28T16:21:31.999Z</time></trkpt><trkpt lat="44.713137954994025" lon="10.215883163186604"><ele>201.0</ele><time>2026-03-28T16:21:32.999Z</time></trkpt><trkpt lat="44.713288817304225" lon="10.215963801666314"><ele>201.0</ele><time>2026-03-28T16:21:34Z</time></trkpt><trkpt lat="44.7134431814593" lon="10.216038493487037"><ele>201.0</ele><time>2026-03-28T16:21:35Z</time></trkpt><trkpt lat="44.7135959548803" lon="10.216112954710388"><ele>199.66666666666669</ele><time>2026-03-28T16:21:36Z</time></trkpt><trkpt lat="44.71373664394647" lon="10.216181433661259"><ele>198.33333333333334</ele><time>2026-03-28T16:21:37Z</time></trkpt><trkpt lat="44.71387981799957" lon="10.21624801849968"><ele>197.0</ele><time>2026-03-28T16:21:38Z</time></trkpt><trkpt lat="44.71403339399353" lon="10.216318433986663"><ele>197.0</ele><time>2026-03-28T16:21:39Z</time></trkpt><trkpt lat="44.7141871502987" lon="10.216394668664467"><ele>197.0</ele><time>2026-03-28T16:21:40Z</time></trkpt><trkpt lat="44.71433645326392" lon="10.21646209040772"><ele>197.0</ele><time>2026-03-28T16:21:41Z</time></trkpt><trkpt lat="44.71448405642988" lon="10.216527383460619"><ele>195.33333333333334</ele><time>2026-03-28T16:21:42Z</time></trkpt><trkpt lat="44.714633504417534" lon="10.216598243794683"><ele>193.66666666666669</ele><time>2026-03-28T16:21:43Z</time></trkpt><trkpt lat="44.71477857107244" lon="10.216671050830636"><ele>192.0</ele><time>2026-03-28T16:21:44Z</time></trkpt><trkpt lat="44.714926142214935" lon="10.216743166615819"><ele>192.0</ele><time>2026-03-28T16:21:45Z</time></trkpt><trkpt lat="44.71507481879557" lon="10.216818980790313"><ele>192.0</ele><time>2026-03-28T16:21:46Z</time></trkpt><trkpt lat="44.71522091606848" lon="10.216899655005358"><ele>192.0</ele><time>2026-03-28T16:21:47Z</time></trkpt><trkpt lat="44.71536544382515" lon="10.216972624884436"><ele>191.5</ele><time>2026-03-28T16:21:48Z</time></trkpt><trkpt lat="44.71550076840243" lon="10.217038636627295"><ele>191.0</ele><time>2026-03-28T16:21:49Z</time></trkpt><trkpt lat="44.71561865752062" lon="10.217092933678046"><ele>190.5</ele><time>2026-03-28T16:21:50Z</time></trkpt><trkpt lat="44.715721212718265" lon="10.217134787955308"><ele>190.0</ele><time>2026-03-28T16:21:51Z</time></trkpt><trkpt lat="44.71581952310576" lon="10.21718437073642"><ele>190.0</ele><time>2026-03-28T16:21:52Z</time></trkpt><trkpt lat="44.71591021255075" lon="10.21724112105941"><ele>190.0</ele><time>2026-03-28T16:21:53Z</time></trkpt><trkpt lat="44.716002235172056" lon="10.217279380629915"><ele>190.0</ele><time>2026-03-28T16:21:54Z</time></trkpt><trkpt lat="44.716085380093276" lon="10.217320674508205"><ele>190.0</ele><time>2026-03-28T16:21:55Z</time></trkpt><trkpt lat="44.716161032116105" lon="10.21735083212433"><ele>190.0</ele><time>2026-03-28T16:21:56Z</time></trkpt><trkpt lat="44.71623287608362" lon="10.217432164568837"><ele>187.5</ele><time>2026-03-28T16:21:58Z</time></trkpt><trkpt lat="44.71623271930196" lon="10.217642737676211"><ele>185.0</ele><time>2026-03-28T16:22:03Z</time></trkpt><trkpt lat="44.716187816316165" lon="10.217781612358769"><ele>182.5</ele><time>2026-03-28T16:22:04Z</time></trkpt><trkpt lat="44.71613899790415" lon="10.217944749991482"><ele>180.0</ele><time>2026-03-28T16:22:05Z</time></trkpt><trkpt lat="44.71609399666954" lon="10.218124686176967"><ele>182.0</ele><time>2026-03-28T16:22:06Z</time></trkpt><trkpt lat="44.716046464081444" lon="10.218323389795069"><ele>184.0</ele><time>2026-03-28T16:22:07Z</time></trkpt><trkpt lat="44.715992206425" lon="10.21853151988823"><ele>186.0</ele><time>2026-03-28T16:22:08Z</time></trkpt><trkpt lat="44.715937792031674" lon="10.218718924753306"><ele>186.0</ele><time>2026-03-28T16:22:09Z</time></trkpt><trkpt lat="44.715889298368744" lon="10.21890104312108"><ele>186.0</ele><time>2026-03-28T16:22:10Z</time></trkpt><trkpt lat="44.715843664881085" lon="10.219083240133243"><ele>186.0</ele><time>2026-03-28T16:22:11Z</time></trkpt><trkpt lat="44.71579621310168" lon="10.21926159251098"><ele>186.0</ele><time>2026-03-28T16:22:12Z</time></trkpt><trkpt lat="44.71575103785907" lon="10.219439597091272"><ele>185.25</ele><time>2026-03-28T16:22:13Z</time></trkpt><trkpt lat="44.715703937572925" lon="10.219614395497114"><ele>184.5</ele><time>2026-03-28T16:22:14Z</time></trkpt><trkpt lat="44.71565787873723" lon="10.21978657532291"><ele>183.75</ele><time>2026-03-28T16:22:15Z</time></trkpt><trkpt lat="44.715610115122075" lon="10.219958547737505"><ele>183.0</ele><time>2026-03-28T16:22:16Z</time></trkpt><trkpt lat="44.715573723104306" lon="10.220141607033977"><ele>182.5</ele><time>2026-03-28T16:22:17Z</time></trkpt><trkpt lat="44.71552815704456" lon="10.220321389097897"><ele>182.0</ele><time>2026-03-28T16:22:18Z</time></trkpt><trkpt lat="44.71547764651963" lon="10.220508116791084"><ele>181.5</ele><time>2026-03-28T16:22:19Z</time></trkpt><trkpt lat="44.71542582120936" lon="10.220707140716375"><ele>181.0</ele><time>2026-03-28T16:22:20Z</time></trkpt><trkpt lat="44.71537403022374" lon="10.22091753515181"><ele>180.75</ele><time>2026-03-28T16:22:21Z</time></trkpt><trkpt lat="44.71531085880287" lon="10.221128714710323"><ele>180.5</ele><time>2026-03-28T16:22:22Z</time></trkpt><trkpt lat="44.7152628748343" lon="10.221316276252113"><ele>180.25</ele><time>2026-03-28T16:22:23Z</time></trkpt><trkpt lat="44.71521431278008" lon="10.221487156181148"><ele>180.0</ele><time>2026-03-28T16:22:24Z</time></trkpt><trkpt lat="44.715167980874384" lon="10.221662536068015"><ele>180.0</ele><time>2026-03-28T16:22:25Z</time></trkpt><trkpt lat="44.71511964368391" lon="10.221845212161394"><ele>180.0</ele><time>2026-03-28T16:22:26Z</time></trkpt><trkpt lat="44.715076906646196" lon="10.222033484246124"><ele>180.0</ele><time>2026-03-28T16:22:27Z</time></trkpt><trkpt lat="44.71502627803011" lon="10.222225511632265"><ele>180.0</ele><time>2026-03-28T16:22:28Z</time></trkpt><trkpt lat="44.71496581668627" lon="10.222428626820882"><ele>179.0</ele><time>2026-03-28T16:22:29Z</time></trkpt><trkpt lat="44.71492083254713" lon="10.222624174539046"><ele>178.0</ele><time>2026-03-28T16:22:30Z</time></trkpt><trkpt lat="44.71487066581621" lon="10.222819439460581"><ele>177.0</ele><time>2026-03-28T16:22:31Z</time></trkpt><trkpt lat="44.71482434581819" lon="10.22299087436931"><ele>176.0</ele><time>2026-03-28T16:22:32Z</time></trkpt><trkpt lat="44.714775646583334" lon="10.223149710054955"><ele>175.8</ele><time>2026-03-28T16:22:33Z</time></trkpt><trkpt lat="44.71473731848447" lon="10.223291652760041"><ele>175.60000000000002</ele><time>2026-03-28T16:22:34Z</time></trkpt><trkpt lat="44.71470338145377" lon="10.223424255092159"><ele>175.4</ele><time>2026-03-28T16:22:35Z</time></trkpt><trkpt lat="44.71467847146516" lon="10.223558113029416"><ele>175.2</ele><time>2026-03-28T16:22:36Z</time></trkpt><trkpt lat="44.714652060434936" lon="10.223671216643769"><ele>175.0</ele><time>2026-03-28T16:22:37Z</time></trkpt><trkpt lat="44.71461303996151" lon="10.223808543394922"><ele>175.0</ele><time>2026-03-28T16:22:39Z</time></trkpt><trkpt lat="44.71458376525307" lon="10.223892355550909"><ele>175.0</ele><time>2026-03-28T16:22:40Z</time></trkpt><trkpt lat="44.71454807327407" lon="10.224007308198193"><ele>175.0</ele><time>2026-03-28T16:22:41Z</time></trkpt><trkpt lat="44.71452071948486" lon="10.224117118372854"><ele>175.0</ele><time>2026-03-28T16:22:42Z</time></trkpt><trkpt lat="44.714501049230925" lon="10.224211547983552"><ele>175.0</ele><time>2026-03-28T16:22:42.999Z</time></trkpt><trkpt lat="44.71447220253242" lon="10.224334462334397"><ele>175.0</ele><time>2026-03-28T16:22:44.999Z</time></trkpt><trkpt lat="44.714441454241175" lon="10.224463479183994"><ele>174.83333333333334</ele><time>2026-03-28T16:22:46.999Z</time></trkpt><trkpt lat="44.714410512773696" lon="10.224578348598408"><ele>174.66666666666669</ele><time>2026-03-28T16:22:47.999Z</time></trkpt><trkpt lat="44.71437852355032" lon="10.224706753552594"><ele>174.5</ele><time>2026-03-28T16:22:48.999Z</time></trkpt><trkpt lat="44.71434516928188" lon="10.224807841638777"><ele>174.33333333333334</ele><time>2026-03-28T16:22:49.999Z</time></trkpt><trkpt lat="44.71432438812272" lon="10.224896627696966"><ele>174.16666666666666</ele><time>2026-03-28T16:22:50.999Z</time></trkpt><trkpt lat="44.71429919206805" lon="10.224978095283982"><ele>174.0</ele><time>2026-03-28T16:22:51.999Z</time></trkpt><trkpt lat="44.714244205673076" lon="10.225093373102746"><ele>174.0</ele><time>2026-03-28T16:22:53.999Z</time></trkpt><trkpt lat="44.7142495453812" lon="10.22519823597326"><ele>174.0</ele><time>2026-03-28T16:22:55.999Z</time></trkpt><trkpt lat="44.7143755259185" lon="10.225178688768164"><ele>174.0</ele><time>2026-03-28T16:22:57.999Z</time></trkpt><trkpt lat="44.71445611802906" lon="10.22520765301526"><ele>174.0</ele><time>2026-03-28T16:22:58.999Z</time></trkpt><trkpt lat="44.714551176890836" lon="10.225223488570846"><ele>174.0</ele><time>2026-03-28T16:22:59.999Z</time></trkpt><trkpt lat="44.71462096151147" lon="10.225252459267876"><ele>173.0</ele><time>2026-03-28T16:23:00.999Z</time></trkpt><trkpt lat="44.71471513369456" lon="10.225277247072087"><ele>172.0</ele><time>2026-03-28T16:23:01.999Z</time></trkpt><trkpt lat="44.714820307178265" lon="10.225315563339784"><ele>171.0</ele><time>2026-03-28T16:23:02.999Z</time></trkpt><trkpt lat="44.714951940126696" lon="10.225354189090158"><ele>170.0</ele><time>2026-03-28T16:23:03.999Z</time></trkpt><trkpt lat="44.715102925500915" lon="10.225400267199534"><ele>169.25</ele><time>2026-03-28T16:23:04.999Z</time></trkpt><trkpt lat="44.71524932087957" lon="10.225445410210936"><ele>168.5</ele><time>2026-03-28T16:23:05.999Z</time></trkpt><trkpt lat="44.71539756280529" lon="10.225477593469664"><ele>167.75</ele><time>2026-03-28T16:23:06.999Z</time></trkpt><trkpt lat="44.71553253800039" lon="10.225529722325842"><ele>167.0</ele><time>2026-03-28T16:23:07.999Z</time></trkpt><trkpt lat="44.71565377831396" lon="10.225568020861013"><ele>167.0</ele><time>2026-03-28T16:23:08.999Z</time></trkpt><trkpt lat="44.71578643476849" lon="10.225609869363577"><ele>167.0</ele><time>2026-03-28T16:23:09.999Z</time></trkpt><trkpt lat="44.71591164850639" lon="10.22564646496076"><ele>167.0</ele><time>2026-03-28T16:23:10.999Z</time></trkpt><trkpt lat="44.71602042175332" lon="10.225676933153188"><ele>167.0</ele><time>2026-03-28T16:23:11.999Z</time></trkpt><trkpt lat="44.71613198803204" lon="10.225710489306518"><ele>167.0</ele><time>2026-03-28T16:23:12.999Z</time></trkpt><trkpt lat="44.716231265694596" lon="10.22574250237186"><ele>167.0</ele><time>2026-03-28T16:23:13.999Z</time></trkpt><trkpt lat="44.716325795729766" lon="10.225777614934994"><ele>167.0</ele><time>2026-03-28T16:23:14.999Z</time></trkpt><trkpt lat="44.716403349135526" lon="10.225819861337344"><ele>167.0</ele><time>2026-03-28T16:23:15.999Z</time></trkpt><trkpt lat="44.71647155456798" lon="10.22588946336862"><ele>167.0</ele><time>2026-03-28T16:23:16.999Z</time></trkpt><trkpt lat="44.71652330045486" lon="10.225975391736226"><ele>167.0</ele><time>2026-03-28T16:23:17.999Z</time></trkpt><trkpt lat="44.716596982567" lon="10.226068258860371"><ele>167.0</ele><time>2026-03-28T16:23:18.999Z</time></trkpt><trkpt lat="44.716699690518425" lon="10.226162895644809"><ele>167.0</ele><time>2026-03-28T16:23:19.999Z</time></trkpt><trkpt lat="44.716819576235835" lon="10.226252313676028"><ele>167.0</ele><time>2026-03-28T16:23:20.999Z</time></trkpt><trkpt lat="44.71693789587995" lon="10.22639006019576"><ele>167.0</ele><time>2026-03-28T16:23:21.999Z</time></trkpt><trkpt lat="44.717054967427956" lon="10.226540017562735"><ele>167.0</ele><time>2026-03-28T16:23:22.999Z</time></trkpt><trkpt lat="44.71716420431927" lon="10.226671003162894"><ele>167.0</ele><time>2026-03-28T16:23:23.999Z</time></trkpt><trkpt lat="44.7172605990172" lon="10.226790035612115"><ele>167.0</ele><time>2026-03-28T16:23:24.999Z</time></trkpt><trkpt lat="44.71735117013412" lon="10.226902758143469"><ele>167.0</ele><time>2026-03-28T16:23:25.999Z</time></trkpt><trkpt lat="44.71743450805603" lon="10.227012059597426"><ele>167.0</ele><time>2026-03-28T16:23:26.999Z</time></trkpt><trkpt lat="44.717523199047385" lon="10.227125006759453"><ele>167.0</ele><time>2026-03-28T16:23:27.999Z</time></trkpt><trkpt lat="44.7176110781087" lon="10.227238653286278"><ele>167.0</ele><time>2026-03-28T16:23:28.999Z</time></trkpt><trkpt lat="44.717697876404564" lon="10.227342506004698"><ele>167.0</ele><time>2026-03-28T16:23:29.999Z</time></trkpt><trkpt lat="44.71777788608109" lon="10.22743937967431"><ele>167.5</ele><time>2026-03-28T16:23:30.999Z</time></trkpt><trkpt lat="44.71786427266366" lon="10.227527758713395"><ele>168.0</ele><time>2026-03-28T16:23:31.999Z</time></trkpt><trkpt lat="44.71796233968799" lon="10.227602619602628"><ele>168.5</ele><time>2026-03-28T16:23:32.999Z</time></trkpt><trkpt lat="44.71807579004105" lon="10.22766085671757"><ele>169.0</ele><time>2026-03-28T16:23:33.999Z</time></trkpt><trkpt lat="44.71819179034222" lon="10.227703515452424"><ele>169.0</ele><time>2026-03-28T16:23:34.999Z</time></trkpt><trkpt lat="44.718305730797795" lon="10.227731743537642"><ele>169.0</ele><time>2026-03-28T16:23:35.999Z</time></trkpt><trkpt lat="44.71842848912657" lon="10.227746951872287"><ele>169.0</ele><time>2026-03-28T16:23:37Z</time></trkpt><trkpt lat="44.718543565912" lon="10.227769151477462"><ele>169.0</ele><time>2026-03-28T16:23:38Z</time></trkpt><trkpt lat="44.71865655897631" lon="10.22780065386874"><ele>168.79999999999998</ele><time>2026-03-28T16:23:39Z</time></trkpt><trkpt lat="44.71876548349016" lon="10.227830564775056"><ele>168.6</ele><time>2026-03-28T16:23:40Z</time></trkpt><trkpt lat="44.718873147085326" lon="10.227856326639527"><ele>168.4</ele><time>2026-03-28T16:23:41Z</time></trkpt><trkpt lat="44.71897525960233" lon="10.227886440187106"><ele>168.2</ele><time>2026-03-28T16:23:42Z</time></trkpt><trkpt lat="44.71908656058886" lon="10.227916197659457"><ele>168.0</ele><time>2026-03-28T16:23:43Z</time></trkpt><trkpt lat="44.71920190038721" lon="10.22793863189016"><ele>168.0</ele><time>2026-03-28T16:23:44Z</time></trkpt><trkpt lat="44.71930369069906" lon="10.227960092622967"><ele>168.0</ele><time>2026-03-28T16:23:45Z</time></trkpt><trkpt lat="44.71940034464452" lon="10.227976416229009"><ele>168.0</ele><time>2026-03-28T16:23:46Z</time></trkpt><trkpt lat="44.719510496162044" lon="10.227985624710913"><ele>168.0</ele><time>2026-03-28T16:23:47Z</time></trkpt><trkpt lat="44.719627749023815" lon="10.227992748852373"><ele>168.0</ele><time>2026-03-28T16:23:48Z</time></trkpt><trkpt lat="44.71974745764908" lon="10.227998758615602"><ele>167.0</ele><time>2026-03-28T16:23:49Z</time></trkpt><trkpt lat="44.719871375329305" lon="10.228002815933415"><ele>166.0</ele><time>2026-03-28T16:23:50Z</time></trkpt><trkpt lat="44.719992778216096" lon="10.228002238043121"><ele>165.0</ele><time>2026-03-28T16:23:51Z</time></trkpt><trkpt lat="44.7201094704394" lon="10.228005578536216"><ele>164.0</ele><time>2026-03-28T16:23:52Z</time></trkpt><trkpt lat="44.720236654343346" lon="10.228008806629633"><ele>163.25</ele><time>2026-03-28T16:23:53Z</time></trkpt><trkpt lat="44.72036739120453" lon="10.228013939023816"><ele>162.5</ele><time>2026-03-28T16:23:54Z</time></trkpt><trkpt lat="44.720488597376274" lon="10.228016484820447"><ele>161.75</ele><time>2026-03-28T16:23:55Z</time></trkpt><trkpt lat="44.72060950802967" lon="10.228020929434882"><ele>161.0</ele><time>2026-03-28T16:23:56Z</time></trkpt><trkpt lat="44.72073657648245" lon="10.228025250311891"><ele>161.0</ele><time>2026-03-28T16:23:57Z</time></trkpt><trkpt lat="44.72086917023161" lon="10.2280292523579"><ele>161.0</ele><time>2026-03-28T16:23:58Z</time></trkpt><trkpt lat="44.72098731545218" lon="10.228033299059737"><ele>161.0</ele><time>2026-03-28T16:23:59Z</time></trkpt><trkpt lat="44.721101957722844" lon="10.228032622342099"><ele>161.0</ele><time>2026-03-28T16:24:00Z</time></trkpt><trkpt lat="44.72120761301605" lon="10.228036019258399"><ele>160.4</ele><time>2026-03-28T16:24:01Z</time></trkpt><trkpt lat="44.721308515306895" lon="10.228036960741372"><ele>159.8</ele><time>2026-03-28T16:24:02Z</time></trkpt><trkpt lat="44.72140708888022" lon="10.228036065272576"><ele>159.20000000000002</ele><time>2026-03-28T16:24:03Z</time></trkpt><trkpt lat="44.72151153650838" lon="10.228036451116616"><ele>158.60000000000002</ele><time>2026-03-28T16:24:04Z</time></trkpt><trkpt lat="44.72161951643091" lon="10.228039155236374"><ele>158.0</ele><time>2026-03-28T16:24:05Z</time></trkpt><trkpt lat="44.72172608857461" lon="10.228042884634673"><ele>158.0</ele><time>2026-03-28T16:24:06Z</time></trkpt><trkpt lat="44.72182402947304" lon="10.228048065937665"><ele>158.0</ele><time>2026-03-28T16:24:07Z</time></trkpt><trkpt lat="44.721917314077515" lon="10.228053658287783"><ele>158.0</ele><time>2026-03-28T16:24:08Z</time></trkpt><trkpt lat="44.72200118696032" lon="10.22806967157877"><ele>158.0</ele><time>2026-03-28T16:24:09Z</time></trkpt><trkpt lat="44.72207532019833" lon="10.228092947260635"><ele>158.0</ele><time>2026-03-28T16:24:10Z</time></trkpt><trkpt lat="44.7221402359486" lon="10.228127768861915"><ele>158.0</ele><time>2026-03-28T16:24:12Z</time></trkpt><trkpt lat="44.722214431116136" lon="10.228186048746345"><ele>157.6</ele><time>2026-03-28T16:24:19Z</time></trkpt><trkpt lat="44.72229017476168" lon="10.22829886567236"><ele>157.20000000000002</ele><time>2026-03-28T16:24:21Z</time></trkpt><trkpt lat="44.72235281297844" lon="10.228351751978293"><ele>156.8</ele><time>2026-03-28T16:24:22Z</time></trkpt><trkpt lat="44.722417589660786" lon="10.228369696606197"><ele>156.4</ele><time>2026-03-28T16:24:23Z</time></trkpt><trkpt lat="44.72254233273257" lon="10.228276929987063"><ele>156.0</ele><time>2026-03-28T16:24:25Z</time></trkpt><trkpt lat="44.72262394547566" lon="10.22821433014212"><ele>156.0</ele><time>2026-03-28T16:24:26Z</time></trkpt><trkpt lat="44.72272636816093" lon="10.228157168499596"><ele>156.0</ele><time>2026-03-28T16:24:27Z</time></trkpt><trkpt lat="44.72284327814203" lon="10.228112439042427"><ele>156.0</ele><time>2026-03-28T16:24:28Z</time></trkpt><trkpt lat="44.72296807493686" lon="10.228074871183775"><ele>156.0</ele><time>2026-03-28T16:24:29Z</time></trkpt><trkpt lat="44.723088437988324" lon="10.228037648835066"><ele>155.33333333333334</ele><time>2026-03-28T16:24:30Z</time></trkpt><trkpt lat="44.72323867174947" lon="10.2279908499617"><ele>154.66666666666669</ele><time>2026-03-28T16:24:31Z</time></trkpt><trkpt lat="44.72339640325475" lon="10.227957285877045"><ele>154.0</ele><time>2026-03-28T16:24:32Z</time></trkpt><trkpt lat="44.72356618390319" lon="10.22791538642891"><ele>154.0</ele><time>2026-03-28T16:24:33Z</time></trkpt><trkpt lat="44.72370486972337" lon="10.22788336122463"><ele>154.0</ele><time>2026-03-28T16:24:35Z</time></trkpt><trkpt lat="44.72384069975603" lon="10.227849877700095"><ele>154.0</ele><time>2026-03-28T16:24:36Z</time></trkpt><trkpt lat="44.72397919092899" lon="10.227814360900686"><ele>154.0</ele><time>2026-03-28T16:24:37Z</time></trkpt><trkpt lat="44.72411418978395" lon="10.227783239735503"><ele>154.0</ele><time>2026-03-28T16:24:38Z</time></trkpt><trkpt lat="44.724246732641504" lon="10.227751082170236"><ele>154.0</ele><time>2026-03-28T16:24:39Z</time></trkpt><trkpt lat="44.72437650002497" lon="10.227716931642137"><ele>154.0</ele><time>2026-03-28T16:24:40Z</time></trkpt><trkpt lat="44.724503518969186" lon="10.227681563453002"><ele>154.0</ele><time>2026-03-28T16:24:41Z</time></trkpt><trkpt lat="44.72463796512333" lon="10.227648776516858"><ele>153.5</ele><time>2026-03-28T16:24:42Z</time></trkpt><trkpt lat="44.7247798386249" lon="10.227612689425921"><ele>153.0</ele><time>2026-03-28T16:24:43Z</time></trkpt><trkpt lat="44.724917209874626" lon="10.227583626094262"><ele>152.5</ele><time>2026-03-28T16:24:44Z</time></trkpt><trkpt lat="44.725042180820665" lon="10.227552011032142"><ele>152.0</ele><time>2026-03-28T16:24:45Z</time></trkpt><trkpt lat="44.72517448498042" lon="10.227522548685103"><ele>152.0</ele><time>2026-03-28T16:24:46Z</time></trkpt><trkpt lat="44.725312130565385" lon="10.227490788446534"><ele>152.0</ele><time>2026-03-28T16:24:47Z</time></trkpt><trkpt lat="44.725445926498104" lon="10.227460358852051"><ele>152.0</ele><time>2026-03-28T16:24:48Z</time></trkpt><trkpt lat="44.72557842123288" lon="10.227429829911674"><ele>152.0</ele><time>2026-03-28T16:24:48.999Z</time></trkpt><trkpt lat="44.725707910124086" lon="10.227398170086976"><ele>152.0</ele><time>2026-03-28T16:24:49.999Z</time></trkpt><trkpt lat="44.72584593619474" lon="10.22736201642534"><ele>152.0</ele><time>2026-03-28T16:24:50.999Z</time></trkpt><trkpt lat="44.72597145380411" lon="10.227327247776051"><ele>152.0</ele><time>2026-03-28T16:24:51.999Z</time></trkpt><trkpt lat="44.72609313056797" lon="10.227296542062243"><ele>152.0</ele><time>2026-03-28T16:24:52.999Z</time></trkpt><trkpt lat="44.726216266338994" lon="10.227266469915975"><ele>151.0</ele><time>2026-03-28T16:24:53.999Z</time></trkpt><trkpt lat="44.72633982404323" lon="10.227235683403022"><ele>150.0</ele><time>2026-03-28T16:24:54.999Z</time></trkpt><trkpt lat="44.72646457986667" lon="10.227210751024815"><ele>149.0</ele><time>2026-03-28T16:24:55.999Z</time></trkpt><trkpt lat="44.726591772139" lon="10.22718354750082"><ele>148.0</ele><time>2026-03-28T16:24:56.999Z</time></trkpt><trkpt lat="44.726722554770504" lon="10.227148084791102"><ele>148.0</ele><time>2026-03-28T16:24:57.999Z</time></trkpt><trkpt lat="44.72685479459811" lon="10.227113548779771"><ele>148.0</ele><time>2026-03-28T16:24:58.999Z</time></trkpt><trkpt lat="44.72698810568342" lon="10.227081651396674"><ele>148.0</ele><time>2026-03-28T16:24:59.999Z</time></trkpt><trkpt lat="44.72711111419423" lon="10.227054981257815"><ele>148.0</ele><time>2026-03-28T16:25:00.999Z</time></trkpt><trkpt lat="44.72723780331012" lon="10.22703094353229"><ele>148.25</ele><time>2026-03-28T16:25:01.999Z</time></trkpt><trkpt lat="44.727375340743635" lon="10.22700502031677"><ele>148.5</ele><time>2026-03-28T16:25:02.999Z</time></trkpt><trkpt lat="44.72750957908456" lon="10.22697301957119"><ele>148.75</ele><time>2026-03-28T16:25:03.999Z</time></trkpt><trkpt lat="44.72764473671918" lon="10.226935231906696"><ele>149.0</ele><time>2026-03-28T16:25:04.999Z</time></trkpt><trkpt lat="44.72778340323458" lon="10.226898714301479"><ele>149.25</ele><time>2026-03-28T16:25:05.999Z</time></trkpt><trkpt lat="44.72791627584582" lon="10.226863834496006"><ele>149.5</ele><time>2026-03-28T16:25:06.999Z</time></trkpt><trkpt lat="44.72805224708391" lon="10.226827480827328"><ele>149.75</ele><time>2026-03-28T16:25:07.999Z</time></trkpt><trkpt lat="44.72818976443118" lon="10.226791635543158"><ele>150.0</ele><time>2026-03-28T16:25:08.999Z</time></trkpt><trkpt lat="44.72832588685505" lon="10.22675438397568"><ele>150.0</ele><time>2026-03-28T16:25:09.999Z</time></trkpt><trkpt lat="44.728472463537784" lon="10.226719178626638"><ele>150.0</ele><time>2026-03-28T16:25:10.999Z</time></trkpt><trkpt lat="44.728647548228466" lon="10.226669075866441"><ele>150.0</ele><time>2026-03-28T16:25:11.999Z</time></trkpt><trkpt lat="44.72883236387199" lon="10.22665068588664"><ele>147.0</ele><time>2026-03-28T16:25:12.999Z</time></trkpt><trkpt lat="44.729052138078565" lon="10.226607090962242"><ele>144.0</ele><time>2026-03-28T16:25:13.999Z</time></trkpt><trkpt lat="44.729283220808945" lon="10.226551376867675"><ele>142.5</ele><time>2026-03-28T16:25:14.999Z</time></trkpt><trkpt lat="44.72951934937485" lon="10.226535790938163"><ele>141.0</ele><time>2026-03-28T16:25:15.999Z</time></trkpt><trkpt lat="44.72975787290535" lon="10.226495084375259"><ele>140.5</ele><time>2026-03-28T16:25:16.999Z</time></trkpt><trkpt lat="44.73001416497344" lon="10.226446237981468"><ele>140.0</ele><time>2026-03-28T16:25:17.999Z</time></trkpt><trkpt lat="44.73027045770246" lon="10.226395002594346"><ele>142.0</ele><time>2026-03-28T16:25:18.999Z</time></trkpt><trkpt lat="44.73052707077293" lon="10.226331382717813"><ele>144.0</ele><time>2026-03-28T16:25:19.999Z</time></trkpt><trkpt lat="44.73077482585291" lon="10.226248475284043"><ele>144.0</ele><time>2026-03-28T16:25:20.999Z</time></trkpt><trkpt lat="44.73101896361834" lon="10.226124113064104"><ele>144.0</ele><time>2026-03-28T16:25:21.999Z</time></trkpt><trkpt lat="44.73125999010487" lon="10.225966355171945"><ele>144.5</ele><time>2026-03-28T16:25:22.999Z</time></trkpt><trkpt lat="44.73150512760636" lon="10.225833534126954"><ele>145.0</ele><time>2026-03-28T16:25:23.999Z</time></trkpt><trkpt lat="44.73172388456458" lon="10.225737770361366"><ele>144.66666666666669</ele><time>2026-03-28T16:25:24.999Z</time></trkpt><trkpt lat="44.731934754681866" lon="10.225681617621307"><ele>144.33333333333334</ele><time>2026-03-28T16:25:25.999Z</time></trkpt><trkpt lat="44.73214246310475" lon="10.2256497367636"><ele>144.0</ele><time>2026-03-28T16:25:26.999Z</time></trkpt><trkpt lat="44.732352486986734" lon="10.225634870767612"><ele>142.33333333333334</ele><time>2026-03-28T16:25:27.999Z</time></trkpt><trkpt lat="44.73257148515489" lon="10.225612246064795"><ele>140.66666666666669</ele><time>2026-03-28T16:25:28.999Z</time></trkpt><trkpt lat="44.73279446932511" lon="10.225590553467033"><ele>139.0</ele><time>2026-03-28T16:25:29.999Z</time></trkpt><trkpt lat="44.73302412127663" lon="10.22556500598995"><ele>138.0</ele><time>2026-03-28T16:25:30.999Z</time></trkpt><trkpt lat="44.73326581561174" lon="10.225542970524373"><ele>137.0</ele><time>2026-03-28T16:25:31.999Z</time></trkpt><trkpt lat="44.733512392588544" lon="10.22552137431521"><ele>135.5</ele><time>2026-03-28T16:25:32.999Z</time></trkpt><trkpt lat="44.7337612935144" lon="10.225504163126487"><ele>134.0</ele><time>2026-03-28T16:25:33.999Z</time></trkpt><trkpt lat="44.73401672842137" lon="10.225488571946217"><ele>134.0</ele><time>2026-03-28T16:25:34.999Z</time></trkpt><trkpt lat="44.73427345441072" lon="10.225474310077185"><ele>134.0</ele><time>2026-03-28T16:25:35.999Z</time></trkpt><trkpt lat="44.734528795626275" lon="10.225457941444521"><ele>134.0</ele><time>2026-03-28T16:25:36.999Z</time></trkpt><trkpt lat="44.73478259866598" lon="10.225438412996047"><ele>134.0</ele><time>2026-03-28T16:25:37.999Z</time></trkpt><trkpt lat="44.73503434325089" lon="10.225423325240694"><ele>133.5</ele><time>2026-03-28T16:25:38.999Z</time></trkpt><trkpt lat="44.73527574370179" lon="10.225414037511117"><ele>133.0</ele><time>2026-03-28T16:25:39.999Z</time></trkpt><trkpt lat="44.735503193927386" lon="10.225401754760886"><ele>133.0</ele><time>2026-03-28T16:25:40.999Z</time></trkpt><trkpt lat="44.73571802531247" lon="10.225386905581775"><ele>133.0</ele><time>2026-03-28T16:25:41.999Z</time></trkpt><trkpt lat="44.73592465455682" lon="10.225372263155531"><ele>133.0</ele><time>2026-03-28T16:25:43Z</time></trkpt><trkpt lat="44.736127211661554" lon="10.225357398723984"><ele>132.66666666666669</ele><time>2026-03-28T16:25:44Z</time></trkpt><trkpt lat="44.73632222085164" lon="10.225345152955217"><ele>132.33333333333334</ele><time>2026-03-28T16:25:45Z</time></trkpt><trkpt lat="44.73651784947568" lon="10.225335539403622"><ele>132.0</ele><time>2026-03-28T16:25:46Z</time></trkpt><trkpt lat="44.73671102690346" lon="10.225323615459828"><ele>131.66666666666666</ele><time>2026-03-28T16:25:47Z</time></trkpt><trkpt lat="44.73691842159491" lon="10.225311783067271"><ele>131.33333333333331</ele><time>2026-03-28T16:25:48Z</time></trkpt><trkpt lat="44.73712423930773" lon="10.225297789452629"><ele>131.0</ele><time>2026-03-28T16:25:49Z</time></trkpt><trkpt lat="44.73733007430891" lon="10.225279188933929"><ele>131.0</ele><time>2026-03-28T16:25:50Z</time></trkpt><trkpt lat="44.73753461993043" lon="10.225258850292462"><ele>131.0</ele><time>2026-03-28T16:25:51Z</time></trkpt><trkpt lat="44.737735320312524" lon="10.225243550747045"><ele>131.0</ele><time>2026-03-28T16:25:52Z</time></trkpt><trkpt lat="44.73794086813859" lon="10.225234449451172"><ele>130.0</ele><time>2026-03-28T16:25:53Z</time></trkpt><trkpt lat="44.7381369610228" lon="10.225225344213241"><ele>129.0</ele><time>2026-03-28T16:25:54Z</time></trkpt><trkpt lat="44.73830868208939" lon="10.225213627922301"><ele>128.0</ele><time>2026-03-28T16:25:55Z</time></trkpt><trkpt lat="44.73849519025087" lon="10.225200704982287"><ele>127.66666666666666</ele><time>2026-03-28T16:25:56Z</time></trkpt><trkpt lat="44.738687784247496" lon="10.225179640514167"><ele>127.33333333333334</ele><time>2026-03-28T16:25:57Z</time></trkpt><trkpt lat="44.73889038372026" lon="10.225188140776508"><ele>127.0</ele><time>2026-03-28T16:25:58Z</time></trkpt><trkpt lat="44.739117870319255" lon="10.225174628765759"><ele>127.0</ele><time>2026-03-28T16:25:59Z</time></trkpt><trkpt lat="44.73934766181469" lon="10.225161001207912"><ele>127.0</ele><time>2026-03-28T16:26:00Z</time></trkpt><trkpt lat="44.73955973532097" lon="10.225140315058376"><ele>127.0</ele><time>2026-03-28T16:26:01Z</time></trkpt><trkpt lat="44.73975444724415" lon="10.225147833208842"><ele>127.33333333333334</ele><time>2026-03-28T16:26:02Z</time></trkpt><trkpt lat="44.73992680150254" lon="10.225137924667909"><ele>127.66666666666666</ele><time>2026-03-28T16:26:03Z</time></trkpt><trkpt lat="44.74009453388322" lon="10.22512116251163"><ele>128.0</ele><time>2026-03-28T16:26:04Z</time></trkpt><trkpt lat="44.74025080099949" lon="10.225109149237335"><ele>128.0</ele><time>2026-03-28T16:26:05Z</time></trkpt><trkpt lat="44.74040323876916" lon="10.225103193107659"><ele>128.0</ele><time>2026-03-28T16:26:06Z</time></trkpt><trkpt lat="44.74054489562115" lon="10.225096758133965"><ele>128.0</ele><time>2026-03-28T16:26:07Z</time></trkpt><trkpt lat="44.74068891017262" lon="10.225085727190706"><ele>128.0</ele><time>2026-03-28T16:26:08Z</time></trkpt><trkpt lat="44.74083603983842" lon="10.225072012066065"><ele>128.0</ele><time>2026-03-28T16:26:09Z</time></trkpt><trkpt lat="44.740977088120005" lon="10.225060125953393"><ele>128.0</ele><time>2026-03-28T16:26:10Z</time></trkpt><trkpt lat="44.74111763634131" lon="10.22505540333621"><ele>128.0</ele><time>2026-03-28T16:26:11Z</time></trkpt><trkpt lat="44.74125473788055" lon="10.225044125682889"><ele>128.0</ele><time>2026-03-28T16:26:12Z</time></trkpt><trkpt lat="44.74139261958101" lon="10.225032965574362"><ele>127.75</ele><time>2026-03-28T16:26:13Z</time></trkpt><trkpt lat="44.74152026110542" lon="10.22502531882447"><ele>127.5</ele><time>2026-03-28T16:26:14Z</time></trkpt><trkpt lat="44.741640111476" lon="10.225021599649693"><ele>127.25</ele><time>2026-03-28T16:26:15Z</time></trkpt><trkpt lat="44.74176653886847" lon="10.225017802426793"><ele>127.0</ele><time>2026-03-28T16:26:16Z</time></trkpt><trkpt lat="44.74189501776342" lon="10.22501071636297"><ele>126.75</ele><time>2026-03-28T16:26:17Z</time></trkpt><trkpt lat="44.74202745567825" lon="10.22500298625788"><ele>126.5</ele><time>2026-03-28T16:26:18Z</time></trkpt><trkpt lat="44.74215404664236" lon="10.224994699839904"><ele>126.25</ele><time>2026-03-28T16:26:19Z</time></trkpt><trkpt lat="44.74226871490641" lon="10.22499049264628"><ele>126.0</ele><time>2026-03-28T16:26:20Z</time></trkpt><trkpt lat="44.742379124780776" lon="10.224983294760946"><ele>126.0</ele><time>2026-03-28T16:26:21Z</time></trkpt><trkpt lat="44.74248174663629" lon="10.224971860096485"><ele>126.0</ele><time>2026-03-28T16:26:22Z</time></trkpt><trkpt lat="44.742573262199485" lon="10.224969339442202"><ele>126.0</ele><time>2026-03-28T16:26:23Z</time></trkpt><trkpt lat="44.742648344981866" lon="10.224963208285"><ele>126.0</ele><time>2026-03-28T16:26:24Z</time></trkpt><trkpt lat="44.74272941303784" lon="10.2249600302936"><ele>126.0</ele><time>2026-03-28T16:26:26Z</time></trkpt><trkpt lat="44.74280101930844" lon="10.224957634683975"><ele>126.0</ele><time>2026-03-28T16:26:28Z</time></trkpt><trkpt lat="44.74288827305133" lon="10.224950096618679"><ele>125.6</ele><time>2026-03-28T16:26:30Z</time></trkpt><trkpt lat="44.742953832267425" lon="10.22494573039429"><ele>125.19999999999999</ele><time>2026-03-28T16:26:31Z</time></trkpt><trkpt lat="44.74305521758699" lon="10.224936332817991"><ele>124.80000000000001</ele><time>2026-03-28T16:26:32Z</time></trkpt><trkpt lat="44.743166849816475" lon="10.224934481493547"><ele>124.4</ele><time>2026-03-28T16:26:33Z</time></trkpt><trkpt lat="44.7432769360879" lon="10.224929809910803"><ele>124.0</ele><time>2026-03-28T16:26:34Z</time></trkpt><trkpt lat="44.74338003517089" lon="10.22492523764168"><ele>124.0</ele><time>2026-03-28T16:26:35Z</time></trkpt><trkpt lat="44.743484088852476" lon="10.224921607625848"><ele>124.0</ele><time>2026-03-28T16:26:36Z</time></trkpt><trkpt lat="44.74358695290456" lon="10.224913673995813"><ele>124.0</ele><time>2026-03-28T16:26:37Z</time></trkpt><trkpt lat="44.74368011704157" lon="10.22490575827663"><ele>124.0</ele><time>2026-03-28T16:26:38Z</time></trkpt><trkpt lat="44.743761023428064" lon="10.224898721208978"><ele>124.0</ele><time>2026-03-28T16:26:39Z</time></trkpt><trkpt lat="44.743837723709845" lon="10.22489336946431"><ele>124.00000000000001</ele><time>2026-03-28T16:26:40Z</time></trkpt><trkpt lat="44.743934171939244" lon="10.22490165580713"><ele>124.0</ele><time>2026-03-28T16:26:42Z</time></trkpt><trkpt lat="44.74400813582827" lon="10.22492445972312"><ele>124.0</ele><time>2026-03-28T16:26:44Z</time></trkpt><trkpt lat="44.744102970760345" lon="10.224988018259026"><ele>124.0</ele><time>2026-03-28T16:26:46Z</time></trkpt><trkpt lat="44.744170785558346" lon="10.225012189355105"><ele>124.00000000000001</ele><time>2026-03-28T16:26:47Z</time></trkpt><trkpt lat="44.74424680859091" lon="10.225005867994911"><ele>124.0</ele><time>2026-03-28T16:26:48Z</time></trkpt><trkpt lat="44.74430974806519" lon="10.224941405250462"><ele>124.00000000000001</ele><time>2026-03-28T16:26:49Z</time></trkpt><trkpt lat="44.744354664589494" lon="10.224832794428936"><ele>124.0</ele><time>2026-03-28T16:26:50Z</time></trkpt><trkpt lat="44.744380577759536" lon="10.224729749113413"><ele>124.0</ele><time>2026-03-28T16:26:51Z</time></trkpt><trkpt lat="44.74444877543416" lon="10.224679230578872"><ele>124.0</ele><time>2026-03-28T16:26:52Z</time></trkpt><trkpt lat="44.74452566107929" lon="10.224611752845089"><ele>124.00000000000001</ele><time>2026-03-28T16:26:53Z</time></trkpt><trkpt lat="44.74462149915361" lon="10.224537373544687"><ele>124.0</ele><time>2026-03-28T16:26:54Z</time></trkpt><trkpt lat="44.744723010022575" lon="10.2244665656391"><ele>123.80000000000001</ele><time>2026-03-28T16:26:55Z</time></trkpt><trkpt lat="44.74481622036725" lon="10.224402824919208"><ele>123.60000000000001</ele><time>2026-03-28T16:26:56Z</time></trkpt><trkpt lat="44.744911684021886" lon="10.22433437828972"><ele>123.4</ele><time>2026-03-28T16:26:57Z</time></trkpt><trkpt lat="44.74501192440798" lon="10.224260537719182"><ele>123.2</ele><time>2026-03-28T16:26:58Z</time></trkpt><trkpt lat="44.74511294293894" lon="10.224184466104361"><ele>123.0</ele><time>2026-03-28T16:26:59Z</time></trkpt><trkpt lat="44.74521411024378" lon="10.224114902936606"><ele>122.75</ele><time>2026-03-28T16:26:59.999Z</time></trkpt><trkpt lat="44.745320768450625" lon="10.224041994492202"><ele>122.5</ele><time>2026-03-28T16:27:00.999Z</time></trkpt><trkpt lat="44.745427635539286" lon="10.223966176914594"><ele>122.25</ele><time>2026-03-28T16:27:01.999Z</time></trkpt><trkpt lat="44.74552539976591" lon="10.223900708992009"><ele>122.0</ele><time>2026-03-28T16:27:02.999Z</time></trkpt><trkpt lat="44.74562759014654" lon="10.223844876394168"><ele>122.0</ele><time>2026-03-28T16:27:03.999Z</time></trkpt><trkpt lat="44.745745965012816" lon="10.223790537152887"><ele>122.0</ele><time>2026-03-28T16:27:04.999Z</time></trkpt><trkpt lat="44.745872561461034" lon="10.223742065232349"><ele>122.0</ele><time>2026-03-28T16:27:05.999Z</time></trkpt><trkpt lat="44.74600028549958" lon="10.22371062662994"><ele>122.0</ele><time>2026-03-28T16:27:06.999Z</time></trkpt><trkpt lat="44.74612325268777" lon="10.22369437469248"><ele>121.75</ele><time>2026-03-28T16:27:07.999Z</time></trkpt><trkpt lat="44.746242932615814" lon="10.223677725706743"><ele>121.5</ele><time>2026-03-28T16:27:08.999Z</time></trkpt><trkpt lat="44.74636918792085" lon="10.223670966278563"><ele>121.25</ele><time>2026-03-28T16:27:09.999Z</time></trkpt><trkpt lat="44.74648200447476" lon="10.22367493707529"><ele>121.0</ele><time>2026-03-28T16:27:10.999Z</time></trkpt><trkpt lat="44.746578742993755" lon="10.223688118042624"><ele>121.0</ele><time>2026-03-28T16:27:11.999Z</time></trkpt><trkpt lat="44.74667101608082" lon="10.223697857783048"><ele>121.0</ele><time>2026-03-28T16:27:12.999Z</time></trkpt><trkpt lat="44.74677168775421" lon="10.223705121545485"><ele>121.0</ele><time>2026-03-28T16:27:13.999Z</time></trkpt><trkpt lat="44.746876259805155" lon="10.2237170347537"><ele>121.0</ele><time>2026-03-28T16:27:14.999Z</time></trkpt><trkpt lat="44.74697812550774" lon="10.223732452263201"><ele>121.0</ele><time>2026-03-28T16:27:15.999Z</time></trkpt><trkpt lat="44.74708537484368" lon="10.223748658979968"><ele>121.0</ele><time>2026-03-28T16:27:16.999Z</time></trkpt><trkpt lat="44.7471939795103" lon="10.223760763141021"><ele>121.0</ele><time>2026-03-28T16:27:17.999Z</time></trkpt><trkpt lat="44.74730885432027" lon="10.223772626267575"><ele>121.0</ele><time>2026-03-28T16:27:18.999Z</time></trkpt><trkpt lat="44.74741592035809" lon="10.223782625762121"><ele>121.0</ele><time>2026-03-28T16:27:19.999Z</time></trkpt><trkpt lat="44.74751254176201" lon="10.223793068495318"><ele>121.0</ele><time>2026-03-28T16:27:20.999Z</time></trkpt><trkpt lat="44.74760223856657" lon="10.223804843006247"><ele>121.0</ele><time>2026-03-28T16:27:21.999Z</time></trkpt><trkpt lat="44.747684628449925" lon="10.223814954103643"><ele>121.0</ele><time>2026-03-28T16:27:22.999Z</time></trkpt><trkpt lat="44.74777409617415" lon="10.223824972314166"><ele>121.0</ele><time>2026-03-28T16:27:24.999Z</time></trkpt><trkpt lat="44.74786590811853" lon="10.223832170773798"><ele>121.0</ele><time>2026-03-28T16:27:26.999Z</time></trkpt><trkpt lat="44.74797020413096" lon="10.22384456977576"><ele>121.0</ele><time>2026-03-28T16:27:28.999Z</time></trkpt><trkpt lat="44.74805118267701" lon="10.223861464270648"><ele>120.6</ele><time>2026-03-28T16:27:29.999Z</time></trkpt><trkpt lat="44.74814306633073" lon="10.223873267651516"><ele>120.19999999999999</ele><time>2026-03-28T16:27:30.999Z</time></trkpt><trkpt lat="44.7482467493207" lon="10.223886173965164"><ele>119.80000000000001</ele><time>2026-03-28T16:27:31.999Z</time></trkpt><trkpt lat="44.74836676056684" lon="10.223901842344844"><ele>119.4</ele><time>2026-03-28T16:27:32.999Z</time></trkpt><trkpt lat="44.74849348819682" lon="10.223915870190696"><ele>119.0</ele><time>2026-03-28T16:27:33.999Z</time></trkpt><trkpt lat="44.74861641745587" lon="10.223931037627263"><ele>119.0</ele><time>2026-03-28T16:27:34.999Z</time></trkpt><trkpt lat="44.74873341317223" lon="10.223945908436026"><ele>119.0</ele><time>2026-03-28T16:27:35.999Z</time></trkpt><trkpt lat="44.74885030112492" lon="10.223962950882216"><ele>119.0</ele><time>2026-03-28T16:27:36.999Z</time></trkpt><trkpt lat="44.74896381569995" lon="10.223976987054904"><ele>119.0</ele><time>2026-03-28T16:27:37.999Z</time></trkpt><trkpt lat="44.74907670101032" lon="10.223994003876184"><ele>119.0</ele><time>2026-03-28T16:27:38.999Z</time></trkpt><trkpt lat="44.74918500344945" lon="10.224007848860069"><ele>119.0</ele><time>2026-03-28T16:27:39.999Z</time></trkpt><trkpt lat="44.749293177650394" lon="10.22402438296869"><ele>119.0</ele><time>2026-03-28T16:27:40.999Z</time></trkpt><trkpt lat="44.749402327094984" lon="10.224036781399969"><ele>119.0</ele><time>2026-03-28T16:27:41.999Z</time></trkpt><trkpt lat="44.74950628490447" lon="10.224049411743719"><ele>119.0</ele><time>2026-03-28T16:27:42.999Z</time></trkpt><trkpt lat="44.749616613275705" lon="10.224068516895292"><ele>118.6</ele><time>2026-03-28T16:27:43.999Z</time></trkpt><trkpt lat="44.74971830605093" lon="10.224081836617238"><ele>118.2</ele><time>2026-03-28T16:27:44.999Z</time></trkpt><trkpt lat="44.749812729015105" lon="10.22409602730791"><ele>117.79999999999998</ele><time>2026-03-28T16:27:45.999Z</time></trkpt><trkpt lat="44.74990881312924" lon="10.224108164254652"><ele>117.39999999999999</ele><time>2026-03-28T16:27:46.999Z</time></trkpt><trkpt lat="44.74999544430008" lon="10.224115110395655"><ele>117.0</ele><time>2026-03-28T16:27:47.999Z</time></trkpt><trkpt lat="44.750070592104784" lon="10.224116631889428"><ele>117.0</ele><time>2026-03-28T16:27:49Z</time></trkpt><trkpt lat="44.75014082539555" lon="10.224122129633763"><ele>117.0</ele><time>2026-03-28T16:27:50Z</time></trkpt><trkpt lat="44.75021109823897" lon="10.224134861874244"><ele>117.0</ele><time>2026-03-28T16:27:51Z</time></trkpt><trkpt lat="44.75028743195416" lon="10.22415080345992"><ele>117.0</ele><time>2026-03-28T16:27:52Z</time></trkpt><trkpt lat="44.750355896794225" lon="10.224166351496354"><ele>117.0</ele><time>2026-03-28T16:27:53Z</time></trkpt><trkpt lat="44.75042954858612" lon="10.22417747123521"><ele>117.0</ele><time>2026-03-28T16:27:54Z</time></trkpt><trkpt lat="44.75052367769089" lon="10.224179667065316"><ele>117.0</ele><time>2026-03-28T16:27:55Z</time></trkpt><trkpt lat="44.75062683192218" lon="10.224188492303862"><ele>116.99999999999999</ele><time>2026-03-28T16:27:56Z</time></trkpt><trkpt lat="44.75072553864056" lon="10.224202444592102"><ele>116.99999999999999</ele><time>2026-03-28T16:27:57Z</time></trkpt><trkpt lat="44.75082587756905" lon="10.224218153449549"><ele>117.0</ele><time>2026-03-28T16:27:58Z</time></trkpt><trkpt lat="44.75093321839226" lon="10.224236782065464"><ele>117.0</ele><time>2026-03-28T16:27:59Z</time></trkpt><trkpt lat="44.75104804176277" lon="10.224254738821433"><ele>117.0</ele><time>2026-03-28T16:28:00Z</time></trkpt><trkpt lat="44.751160216634716" lon="10.224265558995045"><ele>117.0</ele><time>2026-03-28T16:28:01Z</time></trkpt><trkpt lat="44.751282031370124" lon="10.224278038163087"><ele>117.0</ele><time>2026-03-28T16:28:02Z</time></trkpt><trkpt lat="44.751415799497266" lon="10.22428702550684"><ele>117.0</ele><time>2026-03-28T16:28:03Z</time></trkpt><trkpt lat="44.75155171017644" lon="10.224302445081245"><ele>117.0</ele><time>2026-03-28T16:28:04Z</time></trkpt><trkpt lat="44.751659836419314" lon="10.22431601157879"><ele>116.99999999999999</ele><time>2026-03-28T16:28:05Z</time></trkpt><trkpt lat="44.75176471940949" lon="10.224332417478452"><ele>116.99999999999999</ele><time>2026-03-28T16:28:06Z</time></trkpt><trkpt lat="44.75187034258504" lon="10.224348650880538"><ele>117.0</ele><time>2026-03-28T16:28:07Z</time></trkpt><trkpt lat="44.7519655195689" lon="10.224364351728736"><ele>117.0</ele><time>2026-03-28T16:28:08Z</time></trkpt><trkpt lat="44.752050936240266" lon="10.224379248457709"><ele>116.83333333333333</ele><time>2026-03-28T16:28:09Z</time></trkpt><trkpt lat="44.75211579896861" lon="10.224394790098767"><ele>116.66666666666666</ele><time>2026-03-28T16:28:10Z</time></trkpt><trkpt lat="44.75218990977918" lon="10.224429580048795"><ele>116.5</ele><time>2026-03-28T16:28:12Z</time></trkpt><trkpt lat="44.75226571263394" lon="10.224466888372424"><ele>116.33333333333333</ele><time>2026-03-28T16:28:14Z</time></trkpt><trkpt lat="44.75232829448125" lon="10.224514423908236"><ele>116.16666666666666</ele><time>2026-03-28T16:28:15Z</time></trkpt><trkpt lat="44.7523944077136" lon="10.224575583739334"><ele>116.0</ele><time>2026-03-28T16:28:16Z</time></trkpt><trkpt lat="44.75246866650391" lon="10.224632881312402"><ele>115.99999999999999</ele><time>2026-03-28T16:28:17Z</time></trkpt><trkpt lat="44.752543638922546" lon="10.224688714474587"><ele>116.0</ele><time>2026-03-28T16:28:18Z</time></trkpt><trkpt lat="44.752603610020714" lon="10.224743236763945"><ele>116.0</ele><time>2026-03-28T16:28:19Z</time></trkpt><trkpt lat="44.75268703714545" lon="10.224852046542788"><ele>116.0</ele><time>2026-03-28T16:28:21Z</time></trkpt><trkpt lat="44.75273175433157" lon="10.224933825833167"><ele>115.99999999999999</ele><time>2026-03-28T16:28:22Z</time></trkpt><trkpt lat="44.75278423788843" lon="10.225031188139166"><ele>116.0</ele><time>2026-03-28T16:28:23Z</time></trkpt><trkpt lat="44.75284175476282" lon="10.225138042455631"><ele>116.0</ele><time>2026-03-28T16:28:24Z</time></trkpt><trkpt lat="44.75289693064288" lon="10.225247176653259"><ele>116.0</ele><time>2026-03-28T16:28:25Z</time></trkpt><trkpt lat="44.7529522220727" lon="10.225362611750691"><ele>116.0</ele><time>2026-03-28T16:28:26Z</time></trkpt><trkpt lat="44.753006071143474" lon="10.225471098656262"><ele>116.0</ele><time>2026-03-28T16:28:27Z</time></trkpt><trkpt lat="44.75305717359777" lon="10.22557815344619"><ele>116.0</ele><time>2026-03-28T16:28:28Z</time></trkpt><trkpt lat="44.753113215925" lon="10.225683393128861"><ele>116.19999999999999</ele><time>2026-03-28T16:28:29Z</time></trkpt><trkpt lat="44.75317335051049" lon="10.225803938753177"><ele>116.39999999999999</ele><time>2026-03-28T16:28:30Z</time></trkpt><trkpt lat="44.753242613612464" lon="10.225930397609599"><ele>116.6</ele><time>2026-03-28T16:28:31Z</time></trkpt><trkpt lat="44.75330890040583" lon="10.226057590425146"><ele>116.8</ele><time>2026-03-28T16:28:32Z</time></trkpt><trkpt lat="44.75337106034907" lon="10.226194862926043"><ele>117.0</ele><time>2026-03-28T16:28:33Z</time></trkpt><trkpt lat="44.75343233228514" lon="10.226341005338481"><ele>116.8</ele><time>2026-03-28T16:28:34Z</time></trkpt><trkpt lat="44.7534941476424" lon="10.226481147268416"><ele>116.6</ele><time>2026-03-28T16:28:35Z</time></trkpt><trkpt lat="44.75355574396722" lon="10.2266182008814"><ele>116.39999999999999</ele><time>2026-03-28T16:28:36Z</time></trkpt><trkpt lat="44.75360655495267" lon="10.226736131545698"><ele>116.19999999999999</ele><time>2026-03-28T16:28:37Z</time></trkpt><trkpt lat="44.75364624804925" lon="10.226819606748238"><ele>116.0</ele><time>2026-03-28T16:28:38Z</time></trkpt><trkpt lat="44.7537103838688" lon="10.226945955118309"><ele>115.83333333333333</ele><time>2026-03-28T16:28:40Z</time></trkpt><trkpt lat="44.753767623555" lon="10.227038177053492"><ele>115.66666666666666</ele><time>2026-03-28T16:28:42Z</time></trkpt><trkpt lat="44.753810767563614" lon="10.227118563615235"><ele>115.5</ele><time>2026-03-28T16:28:46Z</time></trkpt><trkpt lat="44.75386280460845" lon="10.2272523575695"><ele>115.33333333333334</ele><time>2026-03-28T16:28:48Z</time></trkpt><trkpt lat="44.753918307817635" lon="10.227371370198236"><ele>115.16666666666667</ele><time>2026-03-28T16:28:50Z</time></trkpt><trkpt lat="44.75398402955056" lon="10.22743774125981"><ele>115.0</ele><time>2026-03-28T16:28:51Z</time></trkpt><trkpt lat="44.754018478301674" lon="10.227548123256316"><ele>114.75</ele><time>2026-03-28T16:28:52Z</time></trkpt><trkpt lat="44.75406000022858" lon="10.227667868347257"><ele>114.5</ele><time>2026-03-28T16:28:53Z</time></trkpt><trkpt lat="44.754112621632665" lon="10.22780859523165"><ele>114.25</ele><time>2026-03-28T16:28:54Z</time></trkpt><trkpt lat="44.75421798735328" lon="10.228006137083321"><ele>114.0</ele><time>2026-03-28T16:28:55Z</time></trkpt><trkpt lat="44.754315340833614" lon="10.228225233777726"><ele>113.66666666666666</ele><time>2026-03-28T16:28:56Z</time></trkpt><trkpt lat="44.754404052629724" lon="10.228454858283209"><ele>113.33333333333333</ele><time>2026-03-28T16:28:57Z</time></trkpt><trkpt lat="44.754492237663975" lon="10.228661290900272"><ele>113.0</ele><time>2026-03-28T16:28:58Z</time></trkpt><trkpt lat="44.754580240780726" lon="10.228852839886516"><ele>112.75</ele><time>2026-03-28T16:28:59Z</time></trkpt><trkpt lat="44.75466465339167" lon="10.229040360247904"><ele>112.5</ele><time>2026-03-28T16:29:00Z</time></trkpt><trkpt lat="44.75473182667129" lon="10.229186123285656"><ele>112.25</ele><time>2026-03-28T16:29:01Z</time></trkpt><trkpt lat="44.754792220457354" lon="10.22931715559432"><ele>112.0</ele><time>2026-03-28T16:29:02Z</time></trkpt><trkpt lat="44.75485040366762" lon="10.22944840980979"><ele>112.0</ele><time>2026-03-28T16:29:03Z</time></trkpt><trkpt lat="44.75491425890927" lon="10.22958666037385"><ele>111.99999999999999</ele><time>2026-03-28T16:29:04Z</time></trkpt><trkpt lat="44.75497313714515" lon="10.229709115342011"><ele>111.99999999999999</ele><time>2026-03-28T16:29:05Z</time></trkpt><trkpt lat="44.755028238559134" lon="10.229825109123997"><ele>112.0</ele><time>2026-03-28T16:29:06Z</time></trkpt><trkpt lat="44.75508608998069" lon="10.229952868525144"><ele>112.0</ele><time>2026-03-28T16:29:07Z</time></trkpt><trkpt lat="44.75514688189336" lon="10.230080279948353"><ele>112.0</ele><time>2026-03-28T16:29:08Z</time></trkpt><trkpt lat="44.755207317426354" lon="10.230204799847092"><ele>111.99999999999999</ele><time>2026-03-28T16:29:09Z</time></trkpt><trkpt lat="44.75526461358174" lon="10.230317194838879"><ele>111.99999999999999</ele><time>2026-03-28T16:29:10Z</time></trkpt><trkpt lat="44.75532018370605" lon="10.230422188470571"><ele>112.0</ele><time>2026-03-28T16:29:11Z</time></trkpt><trkpt lat="44.75537450515978" lon="10.230517946141529"><ele>112.0</ele><time>2026-03-28T16:29:11.999Z</time></trkpt><trkpt lat="44.75542859894224" lon="10.230614712793127"><ele>112.00000000000001</ele><time>2026-03-28T16:29:12.999Z</time></trkpt><trkpt lat="44.75547540340817" lon="10.230709745753174"><ele>112.0</ele><time>2026-03-28T16:29:13.999Z</time></trkpt><trkpt lat="44.75551487711309" lon="10.2308079731952"><ele>112.0</ele><time>2026-03-28T16:29:14.999Z</time></trkpt><trkpt lat="44.75555985039734" lon="10.230892060572907"><ele>112.0</ele><time>2026-03-28T16:29:15.999Z</time></trkpt><trkpt lat="44.75558638306863" lon="10.231011440289059"><ele>112.00000000000001</ele><time>2026-03-28T16:29:16.999Z</time></trkpt><trkpt lat="44.755602249769616" lon="10.231156544923005"><ele>112.0</ele><time>2026-03-28T16:29:17.999Z</time></trkpt><trkpt lat="44.755643256618" lon="10.23129161804109"><ele>112.0</ele><time>2026-03-28T16:29:18.999Z</time></trkpt><trkpt lat="44.75570652619752" lon="10.231412626083399"><ele>112.0</ele><time>2026-03-28T16:29:19.999Z</time></trkpt><trkpt lat="44.75580910946874" lon="10.231505542310991"><ele>112.0</ele><time>2026-03-28T16:29:20.999Z</time></trkpt><trkpt lat="44.75593400760817" lon="10.231580085863328"><ele>112.0</ele><time>2026-03-28T16:29:21.999Z</time></trkpt><trkpt lat="44.756055637250235" lon="10.23170545816207"><ele>111.0</ele><time>2026-03-28T16:29:22.999Z</time></trkpt><trkpt lat="44.75614021728546" lon="10.231871527866975"><ele>110.0</ele><time>2026-03-28T16:29:23.999Z</time></trkpt><trkpt lat="44.756185045140256" lon="10.232076636539855"><ele>109.0</ele><time>2026-03-28T16:29:24.999Z</time></trkpt><trkpt lat="44.75622821920115" lon="10.23227996330705"><ele>108.0</ele><time>2026-03-28T16:29:25.999Z</time></trkpt><trkpt lat="44.75627648447177" lon="10.232457848374633"><ele>108.0</ele><time>2026-03-28T16:29:26.999Z</time></trkpt><trkpt lat="44.75634179261455" lon="10.2326519888054"><ele>108.0</ele><time>2026-03-28T16:29:27.999Z</time></trkpt><trkpt lat="44.75642106990479" lon="10.232827436277992"><ele>108.0</ele><time>2026-03-28T16:29:28.999Z</time></trkpt><trkpt lat="44.756509859066846" lon="10.232999275852732"><ele>108.75</ele><time>2026-03-28T16:29:29.999Z</time></trkpt><trkpt lat="44.75658933794644" lon="10.233172890181159"><ele>109.5</ele><time>2026-03-28T16:29:30.999Z</time></trkpt><trkpt lat="44.75666922574351" lon="10.233351322686609"><ele>110.25</ele><time>2026-03-28T16:29:31.999Z</time></trkpt><trkpt lat="44.756751115851856" lon="10.233533054213087"><ele>111.0</ele><time>2026-03-28T16:29:32.999Z</time></trkpt><trkpt lat="44.75683287704612" lon="10.23371007157677"><ele>111.0</ele><time>2026-03-28T16:29:33.999Z</time></trkpt><trkpt lat="44.75691769237977" lon="10.233887065298475"><ele>111.0</ele><time>2026-03-28T16:29:34.999Z</time></trkpt><trkpt lat="44.757001018613934" lon="10.23405833637571"><ele>111.0</ele><time>2026-03-28T16:29:35.999Z</time></trkpt><trkpt lat="44.75707995792336" lon="10.234235777453625"><ele>111.0</ele><time>2026-03-28T16:29:36.999Z</time></trkpt><trkpt lat="44.75716134507793" lon="10.234412269906846"><ele>111.0</ele><time>2026-03-28T16:29:37.999Z</time></trkpt><trkpt lat="44.75724512633438" lon="10.234596285150877"><ele>111.0</ele><time>2026-03-28T16:29:38.999Z</time></trkpt><trkpt lat="44.757331532721075" lon="10.234786696330916"><ele>111.0</ele><time>2026-03-28T16:29:39.999Z</time></trkpt><trkpt lat="44.7574205139343" lon="10.234982320798256"><ele>111.0</ele><time>2026-03-28T16:29:40.999Z</time></trkpt><trkpt lat="44.75752128820165" lon="10.235211273498482"><ele>111.0</ele><time>2026-03-28T16:29:41.999Z</time></trkpt><trkpt lat="44.75759395280064" lon="10.235358452834584"><ele>111.0</ele><time>2026-03-28T16:29:42.999Z</time></trkpt><trkpt lat="44.75768031800973" lon="10.235547068485996"><ele>110.0</ele><time>2026-03-28T16:29:43.999Z</time></trkpt><trkpt lat="44.75776592956892" lon="10.235735627151312"><ele>109.0</ele><time>2026-03-28T16:29:44.999Z</time></trkpt><trkpt lat="44.75785237575876" lon="10.235927454349405"><ele>108.0</ele><time>2026-03-28T16:29:45.999Z</time></trkpt><trkpt lat="44.757941830618684" lon="10.236120755078359"><ele>108.0</ele><time>2026-03-28T16:29:46.999Z</time></trkpt><trkpt lat="44.75803760355627" lon="10.236318065942688"><ele>108.0</ele><time>2026-03-28T16:29:47.999Z</time></trkpt><trkpt lat="44.75813887771066" lon="10.236531004305558"><ele>108.0</ele><time>2026-03-28T16:29:48.999Z</time></trkpt><trkpt lat="44.75823088110916" lon="10.23673734063927"><ele>108.0</ele><time>2026-03-28T16:29:49.999Z</time></trkpt><trkpt lat="44.75831745637698" lon="10.23692158325481"><ele>108.0</ele><time>2026-03-28T16:29:50.999Z</time></trkpt><trkpt lat="44.7583944459242" lon="10.237089135236678"><ele>108.0</ele><time>2026-03-28T16:29:51.999Z</time></trkpt><trkpt lat="44.758464226523934" lon="10.237244859021956"><ele>108.0</ele><time>2026-03-28T16:29:52.999Z</time></trkpt><trkpt lat="44.758538554691185" lon="10.237413177828056"><ele>108.0</ele><time>2026-03-28T16:29:53.999Z</time></trkpt><trkpt lat="44.758616295068116" lon="10.23758650331565"><ele>108.0</ele><time>2026-03-28T16:29:55Z</time></trkpt><trkpt lat="44.7586990424865" lon="10.237758913759322"><ele>108.0</ele><time>2026-03-28T16:29:56Z</time></trkpt><trkpt lat="44.758783616501056" lon="10.237936257861524"><ele>108.0</ele><time>2026-03-28T16:29:57Z</time></trkpt><trkpt lat="44.75886819611091" lon="10.23811992549022"><ele>108.0</ele><time>2026-03-28T16:29:58Z</time></trkpt><trkpt lat="44.758960164633464" lon="10.238338123522515"><ele>108.0</ele><time>2026-03-28T16:29:59Z</time></trkpt><trkpt lat="44.75905981427793" lon="10.238581399346579"><ele>108.0</ele><time>2026-03-28T16:30:00Z</time></trkpt><trkpt lat="44.75913896906103" lon="10.238721117574562"><ele>108.0</ele><time>2026-03-28T16:30:01Z</time></trkpt><trkpt lat="44.75923057899299" lon="10.238924001069444"><ele>108.0</ele><time>2026-03-28T16:30:02Z</time></trkpt><trkpt lat="44.75932436741049" lon="10.239119439879685"><ele>108.0</ele><time>2026-03-28T16:30:03Z</time></trkpt><trkpt lat="44.7594120657328" lon="10.239308855966595"><ele>107.66666666666666</ele><time>2026-03-28T16:30:04Z</time></trkpt><trkpt lat="44.759497530594714" lon="10.239497647954618"><ele>107.33333333333333</ele><time>2026-03-28T16:30:05Z</time></trkpt><trkpt lat="44.75958287139357" lon="10.2396843547381"><ele>107.0</ele><time>2026-03-28T16:30:06Z</time></trkpt><trkpt lat="44.75966755922709" lon="10.239867011916909"><ele>108.66666666666666</ele><time>2026-03-28T16:30:07Z</time></trkpt><trkpt lat="44.759752851227766" lon="10.240054155356733"><ele>110.33333333333334</ele><time>2026-03-28T16:30:08Z</time></trkpt><trkpt lat="44.75984222181688" lon="10.240238442068376"><ele>112.0</ele><time>2026-03-28T16:30:09Z</time></trkpt><trkpt lat="44.75993184730055" lon="10.240422369159988"><ele>112.0</ele><time>2026-03-28T16:30:10Z</time></trkpt><trkpt lat="44.76001575549149" lon="10.240610652933775"><ele>112.0</ele><time>2026-03-28T16:30:11Z</time></trkpt><trkpt lat="44.76010163553462" lon="10.240795857562201"><ele>112.0</ele><time>2026-03-28T16:30:12Z</time></trkpt><trkpt lat="44.760187180223205" lon="10.240984144497652"><ele>111.33333333333334</ele><time>2026-03-28T16:30:13Z</time></trkpt><trkpt lat="44.76027516581748" lon="10.241170939012274"><ele>110.66666666666666</ele><time>2026-03-28T16:30:14Z</time></trkpt><trkpt lat="44.760359634318526" lon="10.241359000895988"><ele>110.0</ele><time>2026-03-28T16:30:15Z</time></trkpt><trkpt lat="44.760442210803866" lon="10.241549177663606"><ele>109.66666666666666</ele><time>2026-03-28T16:30:16Z</time></trkpt><trkpt lat="44.76052753905301" lon="10.241734555574448"><ele>109.33333333333334</ele><time>2026-03-28T16:30:17Z</time></trkpt><trkpt lat="44.76061455529134" lon="10.241920604665868"><ele>109.0</ele><time>2026-03-28T16:30:18Z</time></trkpt><trkpt lat="44.76070293599023" lon="10.242104516698214"><ele>109.0</ele><time>2026-03-28T16:30:19Z</time></trkpt><trkpt lat="44.760788178891374" lon="10.242289149301454"><ele>109.0</ele><time>2026-03-28T16:30:20Z</time></trkpt><trkpt lat="44.76087129955583" lon="10.242472628088104"><ele>109.0</ele><time>2026-03-28T16:30:21Z</time></trkpt><trkpt lat="44.7609590291025" lon="10.242657700520219"><ele>108.0</ele><time>2026-03-28T16:30:22Z</time></trkpt><trkpt lat="44.76104610846586" lon="10.242844076914249"><ele>107.0</ele><time>2026-03-28T16:30:23Z</time></trkpt><trkpt lat="44.761129151282645" lon="10.24302578881695"><ele>106.0</ele><time>2026-03-28T16:30:24Z</time></trkpt><trkpt lat="44.76121155762104" lon="10.243207680074665"><ele>105.0</ele><time>2026-03-28T16:30:25Z</time></trkpt><trkpt lat="44.76129700223701" lon="10.243392576648"><ele>104.0</ele><time>2026-03-28T16:30:26Z</time></trkpt><trkpt lat="44.76138319058782" lon="10.24357210708488"><ele>103.0</ele><time>2026-03-28T16:30:27Z</time></trkpt><trkpt lat="44.76146798952761" lon="10.24374994275259"><ele>103.0</ele><time>2026-03-28T16:30:28Z</time></trkpt><trkpt lat="44.76154678171152" lon="10.243919324471491"><ele>103.0</ele><time>2026-03-28T16:30:29Z</time></trkpt><trkpt lat="44.761625220490394" lon="10.244085608661841"><ele>103.0</ele><time>2026-03-28T16:30:30Z</time></trkpt><trkpt lat="44.76170496188312" lon="10.24425587036294"><ele>103.0</ele><time>2026-03-28T16:30:31Z</time></trkpt><trkpt lat="44.76178894745915" lon="10.244432586947063"><ele>102.66666666666667</ele><time>2026-03-28T16:30:32Z</time></trkpt><trkpt lat="44.76186992633861" lon="10.244611738746617"><ele>102.33333333333334</ele><time>2026-03-28T16:30:33Z</time></trkpt><trkpt lat="44.761956183303006" lon="10.244795062315701"><ele>102.0</ele><time>2026-03-28T16:30:34Z</time></trkpt><trkpt lat="44.76204665112177" lon="10.244978864013337"><ele>102.0</ele><time>2026-03-28T16:30:35Z</time></trkpt><trkpt lat="44.76213664718039" lon="10.245165398385925"><ele>102.0</ele><time>2026-03-28T16:30:36Z</time></trkpt><trkpt lat="44.762223896787575" lon="10.245347852918858"><ele>102.0</ele><time>2026-03-28T16:30:37Z</time></trkpt><trkpt lat="44.762310513298" lon="10.24552680812974"><ele>102.66666666666666</ele><time>2026-03-28T16:30:38Z</time></trkpt><trkpt lat="44.76239716140733" lon="10.245707607905535"><ele>103.33333333333333</ele><time>2026-03-28T16:30:39Z</time></trkpt><trkpt lat="44.762480372783294" lon="10.245886604257082"><ele>104.0</ele><time>2026-03-28T16:30:40Z</time></trkpt><trkpt lat="44.76256437886622" lon="10.246073226415191"><ele>104.0</ele><time>2026-03-28T16:30:41Z</time></trkpt><trkpt lat="44.76265094163188" lon="10.246264325897826"><ele>104.0</ele><time>2026-03-28T16:30:42Z</time></trkpt><trkpt lat="44.76273818462234" lon="10.246456342714506"><ele>104.0</ele><time>2026-03-28T16:30:43Z</time></trkpt><trkpt lat="44.76283238499384" lon="10.246656975492725"><ele>103.66666666666666</ele><time>2026-03-28T16:30:44Z</time></trkpt><trkpt lat="44.76291752380616" lon="10.246822116535087"><ele>103.33333333333334</ele><time>2026-03-28T16:30:45Z</time></trkpt><trkpt lat="44.76300354850627" lon="10.247001149805865"><ele>103.0</ele><time>2026-03-28T16:30:46Z</time></trkpt><trkpt lat="44.763095971879494" lon="10.247195625463476"><ele>103.66666666666667</ele><time>2026-03-28T16:30:47Z</time></trkpt><trkpt lat="44.76318542554851" lon="10.247385226631595"><ele>104.33333333333334</ele><time>2026-03-28T16:30:48Z</time></trkpt><trkpt lat="44.76327668724886" lon="10.247576342115517"><ele>105.0</ele><time>2026-03-28T16:30:49Z</time></trkpt><trkpt lat="44.76336830834558" lon="10.247764707200831"><ele>105.0</ele><time>2026-03-28T16:30:50Z</time></trkpt><trkpt lat="44.76345269481892" lon="10.247957734960675"><ele>105.0</ele><time>2026-03-28T16:30:51Z</time></trkpt><trkpt lat="44.76354247664299" lon="10.248148708195787"><ele>105.0</ele><time>2026-03-28T16:30:52Z</time></trkpt><trkpt lat="44.76362781554196" lon="10.24833802991635"><ele>103.66666666666666</ele><time>2026-03-28T16:30:53Z</time></trkpt><trkpt lat="44.76371405797411" lon="10.248525346864074"><ele>102.33333333333333</ele><time>2026-03-28T16:30:54Z</time></trkpt><trkpt lat="44.76380862338378" lon="10.248717396357739"><ele>101.0</ele><time>2026-03-28T16:30:55Z</time></trkpt><trkpt lat="44.76389467858421" lon="10.248891534184828"><ele>101.25</ele><time>2026-03-28T16:30:56Z</time></trkpt><trkpt lat="44.7639791472318" lon="10.249067356888686"><ele>101.5</ele><time>2026-03-28T16:30:57Z</time></trkpt><trkpt lat="44.7640564531419" lon="10.249237068857516"><ele>101.75</ele><time>2026-03-28T16:30:58Z</time></trkpt><trkpt lat="44.7641280422053" lon="10.249399694685897"><ele>102.0</ele><time>2026-03-28T16:30:59Z</time></trkpt><trkpt lat="44.764202172264085" lon="10.249555358772193"><ele>102.0</ele><time>2026-03-28T16:31:00Z</time></trkpt><trkpt lat="44.76427715621554" lon="10.249715766016502"><ele>102.0</ele><time>2026-03-28T16:31:01Z</time></trkpt><trkpt lat="44.76435232551978" lon="10.249873693096553"><ele>102.0</ele><time>2026-03-28T16:31:02Z</time></trkpt><trkpt lat="44.76442988662671" lon="10.250035376662868"><ele>102.0</ele><time>2026-03-28T16:31:03Z</time></trkpt><trkpt lat="44.76450730965393" lon="10.250197066343064"><ele>101.0</ele><time>2026-03-28T16:31:04Z</time></trkpt><trkpt lat="44.76458599919221" lon="10.25036191017716"><ele>100.0</ele><time>2026-03-28T16:31:05Z</time></trkpt><trkpt lat="44.7646667665457" lon="10.250531994833029"><ele>99.0</ele><time>2026-03-28T16:31:06Z</time></trkpt><trkpt lat="44.76474155953048" lon="10.250703848292993"><ele>98.0</ele><time>2026-03-28T16:31:07Z</time></trkpt><trkpt lat="44.76481673086639" lon="10.250876173402165"><ele>98.0</ele><time>2026-03-28T16:31:08Z</time></trkpt><trkpt lat="44.76489304504714" lon="10.251044802556947"><ele>98.0</ele><time>2026-03-28T16:31:09Z</time></trkpt><trkpt lat="44.7649679810286" lon="10.251211692718613"><ele>98.0</ele><time>2026-03-28T16:31:10Z</time></trkpt><trkpt lat="44.76504159385179" lon="10.251373897958668"><ele>98.0</ele><time>2026-03-28T16:31:11Z</time></trkpt><trkpt lat="44.765109234329735" lon="10.25152292713364"><ele>98.25</ele><time>2026-03-28T16:31:12Z</time></trkpt><trkpt lat="44.76517669875685" lon="10.251671417701434"><ele>98.5</ele><time>2026-03-28T16:31:13Z</time></trkpt><trkpt lat="44.765243141246614" lon="10.251815120296342"><ele>98.75</ele><time>2026-03-28T16:31:14Z</time></trkpt><trkpt lat="44.76531632400357" lon="10.251970142794766"><ele>99.0</ele><time>2026-03-28T16:31:15Z</time></trkpt><trkpt lat="44.76538939901914" lon="10.25213006334109"><ele>98.75</ele><time>2026-03-28T16:31:16Z</time></trkpt><trkpt lat="44.76545711751732" lon="10.25230480330294"><ele>98.5</ele><time>2026-03-28T16:31:17Z</time></trkpt><trkpt lat="44.765524944461575" lon="10.252482772087456"><ele>98.25</ele><time>2026-03-28T16:31:18Z</time></trkpt><trkpt lat="44.765598266153255" lon="10.252650674126581"><ele>98.0</ele><time>2026-03-28T16:31:19Z</time></trkpt><trkpt lat="44.76566890385422" lon="10.252819111695864"><ele>98.0</ele><time>2026-03-28T16:31:20Z</time></trkpt><trkpt lat="44.7657411744172" lon="10.25296887326466"><ele>98.0</ele><time>2026-03-28T16:31:20.999Z</time></trkpt><trkpt lat="44.765816392392736" lon="10.253116394768131"><ele>98.0</ele><time>2026-03-28T16:31:21.999Z</time></trkpt><trkpt lat="44.76589259852353" lon="10.25326529775371"><ele>98.0</ele><time>2026-03-28T16:31:22.999Z</time></trkpt><trkpt lat="44.7659725203668" lon="10.25342038403014"><ele>98.25</ele><time>2026-03-28T16:31:23.999Z</time></trkpt><trkpt lat="44.76605135366132" lon="10.253580222038682"><ele>98.5</ele><time>2026-03-28T16:31:24.999Z</time></trkpt><trkpt lat="44.7661202128285" lon="10.253731749958819"><ele>98.75</ele><time>2026-03-28T16:31:25.999Z</time></trkpt><trkpt lat="44.76618243576616" lon="10.25387153031813"><ele>99.0</ele><time>2026-03-28T16:31:26.999Z</time></trkpt><trkpt lat="44.76622994747243" lon="10.25397522946388"><ele>98.4</ele><time>2026-03-28T16:31:27.999Z</time></trkpt><trkpt lat="44.76628255213644" lon="10.254090607185493"><ele>97.80000000000001</ele><time>2026-03-28T16:31:29.999Z</time></trkpt><trkpt lat="44.76632988633435" lon="10.254181953674324"><ele>97.19999999999999</ele><time>2026-03-28T16:31:33.999Z</time></trkpt><trkpt lat="44.766436728027905" lon="10.254159799657948"><ele>96.6</ele><time>2026-03-28T16:31:35.999Z</time></trkpt><trkpt lat="44.76654915685257" lon="10.254106865192329"><ele>96.0</ele><time>2026-03-28T16:31:36.999Z</time></trkpt><trkpt lat="44.76666844046326" lon="10.254069035870543"><ele>96.0</ele><time>2026-03-28T16:31:37.999Z</time></trkpt><trkpt lat="44.76678693832297" lon="10.254050246175789"><ele>96.0</ele><time>2026-03-28T16:31:38.999Z</time></trkpt><trkpt lat="44.76694543835571" lon="10.25410877235658"><ele>96.0</ele><time>2026-03-28T16:31:39.999Z</time></trkpt><trkpt lat="44.7671483473386" lon="10.25418499442621"><ele>96.0</ele><time>2026-03-28T16:31:40.999Z</time></trkpt><trkpt lat="44.76735712945001" lon="10.254245733749732"><ele>96.0</ele><time>2026-03-28T16:31:41.999Z</time></trkpt><trkpt lat="44.767565504283844" lon="10.254305238575222"><ele>96.0</ele><time>2026-03-28T16:31:42.999Z</time></trkpt><trkpt lat="44.76776445806166" lon="10.25436028090297"><ele>96.0</ele><time>2026-03-28T16:31:43.999Z</time></trkpt><trkpt lat="44.76795604316828" lon="10.254415767457754"><ele>96.0</ele><time>2026-03-28T16:31:44.999Z</time></trkpt><trkpt lat="44.7681389569686" lon="10.254472420068248"><ele>96.0</ele><time>2026-03-28T16:31:45.999Z</time></trkpt><trkpt lat="44.76833029063931" lon="10.254534510613295"><ele>96.0</ele><time>2026-03-28T16:31:46.999Z</time></trkpt><trkpt lat="44.768515902734535" lon="10.254585464747713"><ele>96.0</ele><time>2026-03-28T16:31:47.999Z</time></trkpt><trkpt lat="44.76870603512246" lon="10.254630735457788"><ele>96.0</ele><time>2026-03-28T16:31:48.999Z</time></trkpt><trkpt lat="44.768894230419576" lon="10.254679985979337"><ele>94.66666666666667</ele><time>2026-03-28T16:31:49.999Z</time></trkpt><trkpt lat="44.7690744781579" lon="10.254720567554454"><ele>93.33333333333334</ele><time>2026-03-28T16:31:50.999Z</time></trkpt><trkpt lat="44.769254734451835" lon="10.254758755021252"><ele>92.0</ele><time>2026-03-28T16:31:51.999Z</time></trkpt><trkpt lat="44.769429214066975" lon="10.254818243462719"><ele>92.0</ele><time>2026-03-28T16:31:52.999Z</time></trkpt><trkpt lat="44.76959773002888" lon="10.254875875232173"><ele>92.0</ele><time>2026-03-28T16:31:53.999Z</time></trkpt><trkpt lat="44.769767104020765" lon="10.254923862824894"><ele>92.0</ele><time>2026-03-28T16:31:54.999Z</time></trkpt><trkpt lat="44.769931637232375" lon="10.254970982235427"><ele>92.0</ele><time>2026-03-28T16:31:55.999Z</time></trkpt><trkpt lat="44.77009360820078" lon="10.255019398081552"><ele>92.0</ele><time>2026-03-28T16:31:56.999Z</time></trkpt><trkpt lat="44.77025561452295" lon="10.255060574723048"><ele>92.0</ele><time>2026-03-28T16:31:57.999Z</time></trkpt><trkpt lat="44.77039155632904" lon="10.255090090343264"><ele>92.0</ele><time>2026-03-28T16:31:58.999Z</time></trkpt><trkpt lat="44.770504940825234" lon="10.25512059818409"><ele>92.0</ele><time>2026-03-28T16:31:59.999Z</time></trkpt><trkpt lat="44.77059637948529" lon="10.255161035226456"><ele>92.0</ele><time>2026-03-28T16:32:01Z</time></trkpt><trkpt lat="44.770666006833885" lon="10.255193161274224"><ele>92.0</ele><time>2026-03-28T16:32:02Z</time></trkpt><trkpt lat="44.77068666409922" lon="10.25552896967566"><ele>92.0</ele><time>2026-03-28T16:32:04Z</time></trkpt><trkpt lat="44.770662994554506" lon="10.255715958964563"><ele>92.0</ele><time>2026-03-28T16:32:05Z</time></trkpt><trkpt lat="44.7706527234144" lon="10.255913346197357"><ele>92.0</ele><time>2026-03-28T16:32:06Z</time></trkpt><trkpt lat="44.770623279685594" lon="10.256092845587686"><ele>92.0</ele><time>2026-03-28T16:32:07Z</time></trkpt><trkpt lat="44.770592082586276" lon="10.256262075614726"><ele>92.0</ele><time>2026-03-28T16:32:08Z</time></trkpt><trkpt lat="44.770568807192404" lon="10.256402309898881"><ele>92.0</ele><time>2026-03-28T16:32:09Z</time></trkpt><trkpt lat="44.77054262374891" lon="10.25674125295039"><ele>92.0</ele><time>2026-03-28T16:32:11Z</time></trkpt><trkpt lat="44.77057712419052" lon="10.25688652635232"><ele>92.0</ele><time>2026-03-28T16:32:12Z</time></trkpt><trkpt lat="44.77066016155183" lon="10.25703424395052"><ele>92.0</ele><time>2026-03-28T16:32:13Z</time></trkpt><trkpt lat="44.77075959609966" lon="10.257209724085056"><ele>92.0</ele><time>2026-03-28T16:32:14Z</time></trkpt><trkpt lat="44.77085091180948" lon="10.257398787032644"><ele>91.66666666666667</ele><time>2026-03-28T16:32:15Z</time></trkpt><trkpt lat="44.7709512052827" lon="10.25761276875134"><ele>91.33333333333333</ele><time>2026-03-28T16:32:16Z</time></trkpt><trkpt lat="44.771045761526615" lon="10.257819339877852"><ele>91.0</ele><time>2026-03-28T16:32:17Z</time></trkpt><trkpt lat="44.77114543376503" lon="10.258035671369228"><ele>90.0</ele><time>2026-03-28T16:32:18Z</time></trkpt><trkpt lat="44.77124939999622" lon="10.258253142252885"><ele>89.0</ele><time>2026-03-28T16:32:19Z</time></trkpt><trkpt lat="44.771345627655585" lon="10.258452127232658"><ele>88.0</ele><time>2026-03-28T16:32:20Z</time></trkpt><trkpt lat="44.771441367398495" lon="10.258658194088927"><ele>88.0</ele><time>2026-03-28T16:32:21Z</time></trkpt><trkpt lat="44.77154722161737" lon="10.258872050362529"><ele>88.0</ele><time>2026-03-28T16:32:22Z</time></trkpt><trkpt lat="44.771647885331056" lon="10.259082017987845"><ele>88.0</ele><time>2026-03-28T16:32:23Z</time></trkpt><trkpt lat="44.77174982834749" lon="10.259285991100537"><ele>88.0</ele><time>2026-03-28T16:32:24Z</time></trkpt><trkpt lat="44.77184489814789" lon="10.259490753709274"><ele>88.0</ele><time>2026-03-28T16:32:25Z</time></trkpt><trkpt lat="44.771939984885805" lon="10.259695886754566"><ele>88.0</ele><time>2026-03-28T16:32:26Z</time></trkpt><trkpt lat="44.77203573059646" lon="10.259904042906069"><ele>88.0</ele><time>2026-03-28T16:32:27Z</time></trkpt><trkpt lat="44.772132912344574" lon="10.260112108199172"><ele>88.0</ele><time>2026-03-28T16:32:28Z</time></trkpt><trkpt lat="44.77223508288866" lon="10.260321869088658"><ele>88.0</ele><time>2026-03-28T16:32:29Z</time></trkpt><trkpt lat="44.772335520097634" lon="10.260526422306533"><ele>88.66666666666666</ele><time>2026-03-28T16:32:30Z</time></trkpt><trkpt lat="44.77243129932259" lon="10.26072528005779"><ele>89.33333333333333</ele><time>2026-03-28T16:32:31Z</time></trkpt><trkpt lat="44.77253037003815" lon="10.260924003962486"><ele>90.0</ele><time>2026-03-28T16:32:32Z</time></trkpt><trkpt lat="44.77262650491497" lon="10.26113140093216"><ele>89.66666666666667</ele><time>2026-03-28T16:32:33Z</time></trkpt><trkpt lat="44.77272611767952" lon="10.261336625781391"><ele>89.33333333333334</ele><time>2026-03-28T16:32:34Z</time></trkpt><trkpt lat="44.77281953128877" lon="10.261529800623702"><ele>89.0</ele><time>2026-03-28T16:32:35Z</time></trkpt><trkpt lat="44.77291446457108" lon="10.2617227322722"><ele>88.66666666666667</ele><time>2026-03-28T16:32:36Z</time></trkpt><trkpt lat="44.773009421752135" lon="10.26191909321448"><ele>88.33333333333333</ele><time>2026-03-28T16:32:37Z</time></trkpt><trkpt lat="44.773098998379666" lon="10.262111642535476"><ele>88.0</ele><time>2026-03-28T16:32:38Z</time></trkpt><trkpt lat="44.77317715018119" lon="10.262281882074687"><ele>88.0</ele><time>2026-03-28T16:32:39Z</time></trkpt><trkpt lat="44.77325959366327" lon="10.262462251366138"><ele>88.0</ele><time>2026-03-28T16:32:40Z</time></trkpt><trkpt lat="44.773338021574375" lon="10.26263068233855"><ele>88.0</ele><time>2026-03-28T16:32:41Z</time></trkpt><trkpt lat="44.77341687919587" lon="10.262803003498682"><ele>88.0</ele><time>2026-03-28T16:32:42Z</time></trkpt><trkpt lat="44.77349161910256" lon="10.262960832452837"><ele>87.60000000000001</ele><time>2026-03-28T16:32:43Z</time></trkpt><trkpt lat="44.77356267285306" lon="10.263100715547854"><ele>87.2</ele><time>2026-03-28T16:32:44Z</time></trkpt><trkpt lat="44.773623740586075" lon="10.263232448504914"><ele>86.8</ele><time>2026-03-28T16:32:45Z</time></trkpt><trkpt lat="44.773681483232714" lon="10.263354157413854"><ele>86.4</ele><time>2026-03-28T16:32:46Z</time></trkpt><trkpt lat="44.773734694893975" lon="10.263459441515833"><ele>86.0</ele><time>2026-03-28T16:32:47Z</time></trkpt><trkpt lat="44.77378271433668" lon="10.263542093220227"><ele>85.8</ele><time>2026-03-28T16:32:48Z</time></trkpt><trkpt lat="44.77389416989387" lon="10.263556129362932"><ele>85.6</ele><time>2026-03-28T16:32:50Z</time></trkpt><trkpt lat="44.77395757485305" lon="10.263525836700198"><ele>85.4</ele><time>2026-03-28T16:32:51Z</time></trkpt><trkpt lat="44.77396361801504" lon="10.263407519847762"><ele>85.2</ele><time>2026-03-28T16:32:52Z</time></trkpt><trkpt lat="44.7739796281025" lon="10.263276075045704"><ele>85.0</ele><time>2026-03-28T16:32:54Z</time></trkpt><trkpt lat="44.774018287686474" lon="10.263157910614666"><ele>85.2</ele><time>2026-03-28T16:33:20Z</time></trkpt><trkpt lat="44.77400202973912" lon="10.263060449795622"><ele>85.4</ele><time>2026-03-28T16:33:22Z</time></trkpt><trkpt lat="44.77389626926696" lon="10.263058155091485"><ele>85.6</ele><time>2026-03-28T16:33:23Z</time></trkpt><trkpt lat="44.77381383198251" lon="10.263009964314012"><ele>85.8</ele><time>2026-03-28T16:33:24Z</time></trkpt><trkpt lat="44.77373526432295" lon="10.26298049840993"><ele>86.0</ele><time>2026-03-28T16:33:25Z</time></trkpt><trkpt lat="44.77367238274908" lon="10.262850014140183"><ele>86.0</ele><time>2026-03-28T16:33:26.999Z</time></trkpt><trkpt lat="44.77363042643874" lon="10.26276195812007"><ele>86.0</ele><time>2026-03-28T16:33:27.999Z</time></trkpt><trkpt lat="44.77358533395367" lon="10.262686995082394"><ele>86.0</ele><time>2026-03-28T16:33:28.999Z</time></trkpt><trkpt lat="44.77362727887551" lon="10.26260092338574"><ele>86.0</ele><time>2026-03-28T16:33:29.999Z</time></trkpt><trkpt lat="44.7736473597102" lon="10.262500064311444"><ele>86.0</ele><time>2026-03-28T16:33:30.999Z</time></trkpt><trkpt lat="44.77367135891658" lon="10.262381712864798"><ele>86.0</ele><time>2026-03-28T16:33:31.999Z</time></trkpt><trkpt lat="44.773701491983054" lon="10.262233791703625"><ele>86.0</ele><time>2026-03-28T16:33:33.999Z</time></trkpt><trkpt lat="44.77376928749177" lon="10.262230410424516"><ele>86.0</ele><time>2026-03-28T16:33:36.999Z</time></trkpt><trkpt lat="44.773721093273444" lon="10.262148370703622"><ele>86.0</ele><time>2026-03-28T16:36:42Z</time></trkpt><trkpt lat="44.77365828968385" lon="10.262227901122268"><ele>86.0</ele><time>2026-03-28T16:36:46Z</time></trkpt><trkpt lat="44.77365134858156" lon="10.262347013249002"><ele>86.0</ele><time>2026-03-28T16:36:49Z</time></trkpt><trkpt lat="44.77363408191425" lon="10.262462086964382"><ele>86.0</ele><time>2026-03-28T16:36:52Z</time></trkpt><trkpt lat="44.7735964768452" lon="10.262539858837489"><ele>86.0</ele><time>2026-03-28T16:36:55Z</time></trkpt><trkpt lat="44.77363064514239" lon="10.26261538923236"><ele>86.0</ele><time>2026-03-28T16:36:58Z</time></trkpt><trkpt lat="44.77365882691356" lon="10.262704101071185"><ele>86.0</ele><time>2026-03-28T16:38:09.999Z</time></trkpt><trkpt lat="44.773647408707184" lon="10.262607191949575"><ele>86.0</ele><time>2026-03-28T16:38:21Z</time></trkpt><trkpt lat="44.773626420466705" lon="10.262697715512866"><ele>86.0</ele><time>2026-03-28T16:38:27Z</time></trkpt><trkpt lat="44.773676550511325" lon="10.262545509723923"><ele>86.0</ele><time>2026-03-28T16:41:21Z</time></trkpt><trkpt lat="44.77365081968745" lon="10.262457190043804"><ele>86.0</ele><time>2026-03-28T16:42:28.999Z</time></trkpt><trkpt lat="44.7736914210498" lon="10.262365659771586"><ele>86.0</ele><time>2026-03-28T16:42:35Z</time></trkpt><trkpt lat="44.77371710906624" lon="10.26226678186725"><ele>86.0</ele><time>2026-03-28T16:42:41Z</time></trkpt><trkpt lat="44.77373923072331" lon="10.26217776055301"><ele>86.0</ele><time>2026-03-28T16:42:48Z</time></trkpt><trkpt lat="44.77382750536595" lon="10.26213459658316"><ele>86.0</ele><time>2026-03-28T16:43:15Z</time></trkpt><trkpt lat="44.77374883084443" lon="10.262156877072442"><ele>86.0</ele><time>2026-03-28T16:43:37Z</time></trkpt><trkpt lat="44.77368385726837" lon="10.262162216355852"><ele>86.0</ele><time>2026-03-28T16:43:43Z</time></trkpt></trkseg><trkseg><trkpt lat="44.471745817266736" lon="9.928950708580262"><ele>1042.0</ele><time>2026-03-29T09:11:56Z</time></trkpt><trkpt lat="44.471831163536685" lon="9.929117584914177"><ele>1042.0</ele><time>2026-03-29T09:11:58Z</time></trkpt><trkpt lat="44.471863555425486" lon="9.929224603302595"><ele>1042.0</ele><time>2026-03-29T09:11:59Z</time></trkpt><trkpt lat="44.47194021144835" lon="9.929398307053047"><ele>1042.0</ele><time>2026-03-29T09:12:01Z</time></trkpt><trkpt lat="44.47201401982616" lon="9.92957919234626"><ele>1039.75</ele><time>2026-03-29T09:12:02Z</time></trkpt><trkpt lat="44.472084665560246" lon="9.929752850021044"><ele>1037.5</ele><time>2026-03-29T09:12:03Z</time></trkpt><trkpt lat="44.472149870241104" lon="9.92992872649755"><ele>1035.25</ele><time>2026-03-29T09:12:04Z</time></trkpt><trkpt lat="44.4722253327404" lon="9.930113866717404"><ele>1033.0</ele><time>2026-03-29T09:12:05Z</time></trkpt><trkpt lat="44.47230169930945" lon="9.930286669211725"><ele>1033.0</ele><time>2026-03-29T09:12:06Z</time></trkpt><trkpt lat="44.472364721331324" lon="9.93046655093109"><ele>1033.0</ele><time>2026-03-29T09:12:07Z</time></trkpt><trkpt lat="44.47241727964514" lon="9.93064450207838"><ele>1033.0</ele><time>2026-03-29T09:12:08Z</time></trkpt><trkpt lat="44.47245694929199" lon="9.930846688614437"><ele>1033.0</ele><time>2026-03-29T09:12:09Z</time></trkpt><trkpt lat="44.47247326358321" lon="9.931061546044456"><ele>1030.6666666666665</ele><time>2026-03-29T09:12:10Z</time></trkpt><trkpt lat="44.47246673667588" lon="9.931291162861493"><ele>1028.3333333333333</ele><time>2026-03-29T09:12:11Z</time></trkpt><trkpt lat="44.472435686579885" lon="9.931525243208466"><ele>1026.0</ele><time>2026-03-29T09:12:12Z</time></trkpt><trkpt lat="44.472384151164306" lon="9.931753371116624"><ele>1022.6666666666667</ele><time>2026-03-29T09:12:13Z</time></trkpt><trkpt lat="44.47233231145485" lon="9.931975634947266"><ele>1019.3333333333334</ele><time>2026-03-29T09:12:14Z</time></trkpt><trkpt lat="44.47228135875256" lon="9.932200288374199"><ele>1016.0</ele><time>2026-03-29T09:12:15Z</time></trkpt><trkpt lat="44.47222941685545" lon="9.93242930313449"><ele>1014.0</ele><time>2026-03-29T09:12:16Z</time></trkpt><trkpt lat="44.47217660102317" lon="9.932649792160287"><ele>1012.0</ele><time>2026-03-29T09:12:17Z</time></trkpt><trkpt lat="44.472113106464505" lon="9.932862353398825"><ele>1010.0</ele><time>2026-03-29T09:12:18Z</time></trkpt><trkpt lat="44.47203614884093" lon="9.9330644108506"><ele>1015.0</ele><time>2026-03-29T09:12:19Z</time></trkpt><trkpt lat="44.47195074199357" lon="9.933261964274836"><ele>1020.0</ele><time>2026-03-29T09:12:20Z</time></trkpt><trkpt lat="44.47186317968245" lon="9.93346218819549"><ele>1025.0</ele><time>2026-03-29T09:12:21Z</time></trkpt><trkpt lat="44.47177821243133" lon="9.933655833387549"><ele>1025.0</ele><time>2026-03-29T09:12:22Z</time></trkpt><trkpt lat="44.47169832974226" lon="9.933837717801296"><ele>1025.0</ele><time>2026-03-29T09:12:23Z</time></trkpt><trkpt lat="44.47162467190454" lon="9.934033464451591"><ele>1025.0</ele><time>2026-03-29T09:12:24Z</time></trkpt><trkpt lat="44.47154692990656" lon="9.93421747009347"><ele>1023.5</ele><time>2026-03-29T09:12:25Z</time></trkpt><trkpt lat="44.471484215714696" lon="9.93440058743443"><ele>1022.0</ele><time>2026-03-29T09:12:26Z</time></trkpt><trkpt lat="44.47143931433171" lon="9.934601329632125"><ele>1020.5</ele><time>2026-03-29T09:12:27Z</time></trkpt><trkpt lat="44.47141423177758" lon="9.934803286368425"><ele>1019.0</ele><time>2026-03-29T09:12:28Z</time></trkpt><trkpt lat="44.47140865728899" lon="9.93497127915399"><ele>1020.8333333333334</ele><time>2026-03-29T09:12:29Z</time></trkpt><trkpt lat="44.47141597729399" lon="9.935101148748537"><ele>1022.6666666666667</ele><time>2026-03-29T09:12:30Z</time></trkpt><trkpt lat="44.47144792361636" lon="9.935187089576996"><ele>1024.5</ele><time>2026-03-29T09:12:31Z</time></trkpt><trkpt lat="44.4715070023425" lon="9.93523812592268"><ele>1026.3333333333333</ele><time>2026-03-29T09:12:32Z</time></trkpt><trkpt lat="44.471589565060064" lon="9.935267908148798"><ele>1028.1666666666665</ele><time>2026-03-29T09:12:33Z</time></trkpt><trkpt lat="44.47168709226382" lon="9.935247476618196"><ele>1030.0</ele><time>2026-03-29T09:12:34Z</time></trkpt><trkpt lat="44.47181828677567" lon="9.935178631281465"><ele>1030.0</ele><time>2026-03-29T09:12:35Z</time></trkpt><trkpt lat="44.47194137378907" lon="9.93519446533618"><ele>1030.0</ele><time>2026-03-29T09:12:36Z</time></trkpt><trkpt lat="44.472070216473185" lon="9.935275462474658"><ele>1030.0</ele><time>2026-03-29T09:12:37Z</time></trkpt><trkpt lat="44.47218940743465" lon="9.935414301760336"><ele>1030.0</ele><time>2026-03-29T09:12:38Z</time></trkpt><trkpt lat="44.472295922785314" lon="9.935566224494268"><ele>1029.75</ele><time>2026-03-29T09:12:39Z</time></trkpt><trkpt lat="44.472406301168625" lon="9.935708660801586"><ele>1029.5</ele><time>2026-03-29T09:12:40Z</time></trkpt><trkpt lat="44.47252326606771" lon="9.935839689829876"><ele>1029.25</ele><time>2026-03-29T09:12:41Z</time></trkpt><trkpt lat="44.472635908024266" lon="9.93596527606679"><ele>1029.0</ele><time>2026-03-29T09:12:42Z</time></trkpt><trkpt lat="44.47274669329952" lon="9.9360976353862"><ele>1029.0</ele><time>2026-03-29T09:12:43Z</time></trkpt><trkpt lat="44.47281188774836" lon="9.936272290200353"><ele>1029.0</ele><time>2026-03-29T09:12:44Z</time></trkpt><trkpt lat="44.4728341275517" lon="9.936469823187915"><ele>1029.0</ele><time>2026-03-29T09:12:45Z</time></trkpt><trkpt lat="44.472825099868814" lon="9.936687867185459"><ele>1029.0</ele><time>2026-03-29T09:12:46Z</time></trkpt><trkpt lat="44.47274733617198" lon="9.936891990970713"><ele>1028.3333333333333</ele><time>2026-03-29T09:12:47Z</time></trkpt><trkpt lat="44.47270402503423" lon="9.9371129787184"><ele>1027.6666666666665</ele><time>2026-03-29T09:12:48Z</time></trkpt><trkpt lat="44.472657344554705" lon="9.937331955378333"><ele>1027.0</ele><time>2026-03-29T09:12:49Z</time></trkpt><trkpt lat="44.47263783485948" lon="9.937562871885396"><ele>1025.6666666666665</ele><time>2026-03-29T09:12:50Z</time></trkpt><trkpt lat="44.472621764433995" lon="9.937794376308743"><ele>1024.3333333333333</ele><time>2026-03-29T09:12:51Z</time></trkpt><trkpt lat="44.47259889166178" lon="9.938026449849952"><ele>1023.0</ele><time>2026-03-29T09:12:52Z</time></trkpt><trkpt lat="44.472575145623075" lon="9.938251250934057"><ele>1021.75</ele><time>2026-03-29T09:12:53Z</time></trkpt><trkpt lat="44.472558573327404" lon="9.93845489775289"><ele>1020.5</ele><time>2026-03-29T09:12:54Z</time></trkpt><trkpt lat="44.47252665062661" lon="9.938629542286192"><ele>1019.25</ele><time>2026-03-29T09:12:55Z</time></trkpt><trkpt lat="44.47242764704578" lon="9.938756054502488"><ele>1018.0</ele><time>2026-03-29T09:12:56Z</time></trkpt><trkpt lat="44.47231498780256" lon="9.938860219350415"><ele>1018.0</ele><time>2026-03-29T09:12:57Z</time></trkpt><trkpt lat="44.47222497787797" lon="9.93897729289662"><ele>1018.0</ele><time>2026-03-29T09:12:58Z</time></trkpt><trkpt lat="44.47216181417232" lon="9.939080816822871"><ele>1018.0</ele><time>2026-03-29T09:12:59Z</time></trkpt><trkpt lat="44.47214405996241" lon="9.939212809843326"><ele>1018.0</ele><time>2026-03-29T09:13:00Z</time></trkpt><trkpt lat="44.472163570687286" lon="9.939379005871178"><ele>1018.0</ele><time>2026-03-29T09:13:01Z</time></trkpt><trkpt lat="44.47221015779486" lon="9.939544223639912"><ele>1019.0</ele><time>2026-03-29T09:13:02Z</time></trkpt><trkpt lat="44.4722522611763" lon="9.939730659157053"><ele>1020.0</ele><time>2026-03-29T09:13:03Z</time></trkpt><trkpt lat="44.47229647172422" lon="9.939905573748833"><ele>1021.0</ele><time>2026-03-29T09:13:04Z</time></trkpt><trkpt lat="44.47235726876926" lon="9.940032104070582"><ele>1022.0</ele><time>2026-03-29T09:13:05Z</time></trkpt><trkpt lat="44.47244817528204" lon="9.940140035494762"><ele>1027.6666666666667</ele><time>2026-03-29T09:13:06Z</time></trkpt><trkpt lat="44.472592583201696" lon="9.940180687569912"><ele>1033.3333333333333</ele><time>2026-03-29T09:13:07Z</time></trkpt><trkpt lat="44.47276425935228" lon="9.940211503801176"><ele>1039.0</ele><time>2026-03-29T09:13:08Z</time></trkpt><trkpt lat="44.47293846431719" lon="9.940248344391605"><ele>1036.0</ele><time>2026-03-29T09:13:09Z</time></trkpt><trkpt lat="44.47311021292136" lon="9.94025790795836"><ele>1033.0</ele><time>2026-03-29T09:13:10Z</time></trkpt><trkpt lat="44.473265510913386" lon="9.940246201032496"><ele>1030.0</ele><time>2026-03-29T09:13:11Z</time></trkpt><trkpt lat="44.473399970866105" lon="9.940314971228178"><ele>1030.0</ele><time>2026-03-29T09:13:12Z</time></trkpt><trkpt lat="44.47351868817783" lon="9.940427605147985"><ele>1030.0</ele><time>2026-03-29T09:13:13Z</time></trkpt><trkpt lat="44.47361126104017" lon="9.940607118115235"><ele>1030.0</ele><time>2026-03-29T09:13:14Z</time></trkpt><trkpt lat="44.47372766485558" lon="9.940802607223809"><ele>1023.6666666666666</ele><time>2026-03-29T09:13:15Z</time></trkpt><trkpt lat="44.47382582562979" lon="9.941024761525034"><ele>1017.3333333333333</ele><time>2026-03-29T09:13:16Z</time></trkpt><trkpt lat="44.47394032776421" lon="9.94119610891299"><ele>1011.0</ele><time>2026-03-29T09:13:17Z</time></trkpt><trkpt lat="44.4740756733262" lon="9.941307224019749"><ele>1011.0</ele><time>2026-03-29T09:13:18Z</time></trkpt><trkpt lat="44.47422230476884" lon="9.94137789908985"><ele>1010.9999999999999</ele><time>2026-03-29T09:13:19Z</time></trkpt><trkpt lat="44.474314601169645" lon="9.941456778901923"><ele>1010.9999999999999</ele><time>2026-03-29T09:13:20Z</time></trkpt><trkpt lat="44.474333194606245" lon="9.941569802876545"><ele>1011.0</ele><time>2026-03-29T09:13:21Z</time></trkpt><trkpt lat="44.474271182011954" lon="9.941680792961867"><ele>1011.0</ele><time>2026-03-29T09:13:22Z</time></trkpt><trkpt lat="44.47417162837055" lon="9.941764080319606"><ele>1007.0</ele><time>2026-03-29T09:13:23Z</time></trkpt><trkpt lat="44.47405813318855" lon="9.94190066743707"><ele>1003.0</ele><time>2026-03-29T09:13:24Z</time></trkpt><trkpt lat="44.47392451550689" lon="9.94204463724776"><ele>999.0</ele><time>2026-03-29T09:13:25Z</time></trkpt><trkpt lat="44.47379705175498" lon="9.94219371057209"><ele>1004.25</ele><time>2026-03-29T09:13:26Z</time></trkpt><trkpt lat="44.473686232916855" lon="9.942320052209126"><ele>1009.5</ele><time>2026-03-29T09:13:27Z</time></trkpt><trkpt lat="44.47359283560932" lon="9.942464344697415"><ele>1014.75</ele><time>2026-03-29T09:13:28Z</time></trkpt><trkpt lat="44.473546940051655" lon="9.942676282273583"><ele>1020.0</ele><time>2026-03-29T09:13:29Z</time></trkpt><trkpt lat="44.47353717890116" lon="9.942918852874604"><ele>1020.0</ele><time>2026-03-29T09:13:30Z</time></trkpt><trkpt lat="44.473546058690495" lon="9.94315102017558"><ele>1020.0</ele><time>2026-03-29T09:13:31Z</time></trkpt><trkpt lat="44.47357803078953" lon="9.943380580379126"><ele>1020.0</ele><time>2026-03-29T09:13:32Z</time></trkpt><trkpt lat="44.47366267437182" lon="9.943604854988484"><ele>1015.3333333333333</ele><time>2026-03-29T09:13:33Z</time></trkpt><trkpt lat="44.473786227937666" lon="9.943834143746237"><ele>1010.6666666666666</ele><time>2026-03-29T09:13:34Z</time></trkpt><trkpt lat="44.47387345217892" lon="9.944082561503985"><ele>1006.0</ele><time>2026-03-29T09:13:35Z</time></trkpt><trkpt lat="44.473957839162" lon="9.944296201378581"><ele>1006.0</ele><time>2026-03-29T09:13:36Z</time></trkpt><trkpt lat="44.47403225147895" lon="9.944512616939168"><ele>1006.0</ele><time>2026-03-29T09:13:37Z</time></trkpt><trkpt lat="44.47409671106159" lon="9.944742081844954"><ele>1006.0</ele><time>2026-03-29T09:13:38Z</time></trkpt><trkpt lat="44.47415348699543" lon="9.944984793666745"><ele>1007.0</ele><time>2026-03-29T09:13:39Z</time></trkpt><trkpt lat="44.47419790969189" lon="9.945237228819641"><ele>1008.0</ele><time>2026-03-29T09:13:40Z</time></trkpt><trkpt lat="44.47424189519707" lon="9.94549832816748"><ele>1009.0</ele><time>2026-03-29T09:13:41Z</time></trkpt><trkpt lat="44.47428190805423" lon="9.945731123653454"><ele>1007.75</ele><time>2026-03-29T09:13:42Z</time></trkpt><trkpt lat="44.474321449910335" lon="9.945946912288562"><ele>1006.5</ele><time>2026-03-29T09:13:43Z</time></trkpt><trkpt lat="44.47436603195659" lon="9.946130635276253"><ele>1005.25</ele><time>2026-03-29T09:13:44Z</time></trkpt><trkpt lat="44.4744652007732" lon="9.946264309603041"><ele>1004.0</ele><time>2026-03-29T09:13:45Z</time></trkpt><trkpt lat="44.4746047004141" lon="9.946350923195704"><ele>1004.0</ele><time>2026-03-29T09:13:46Z</time></trkpt><trkpt lat="44.474784750751354" lon="9.946408006261487"><ele>1004.0</ele><time>2026-03-29T09:13:47Z</time></trkpt><trkpt lat="44.47497456676707" lon="9.946467859400197"><ele>1004.0</ele><time>2026-03-29T09:13:48Z</time></trkpt><trkpt lat="44.47516462063073" lon="9.946509727406793"><ele>1004.0</ele><time>2026-03-29T09:13:49Z</time></trkpt><trkpt lat="44.47535927160959" lon="9.946530380838581"><ele>1004.0</ele><time>2026-03-29T09:13:50Z</time></trkpt><trkpt lat="44.475557423276356" lon="9.94655325046492"><ele>1004.0</ele><time>2026-03-29T09:13:51Z</time></trkpt><trkpt lat="44.47573980211525" lon="9.946660149769281"><ele>1006.0</ele><time>2026-03-29T09:13:52Z</time></trkpt><trkpt lat="44.475929576988015" lon="9.946770664114887"><ele>1008.0</ele><time>2026-03-29T09:13:53Z</time></trkpt><trkpt lat="44.47611503878547" lon="9.946853911093696"><ele>1010.0</ele><time>2026-03-29T09:13:54Z</time></trkpt><trkpt lat="44.47626976564132" lon="9.946967419473276"><ele>1004.3333333333334</ele><time>2026-03-29T09:13:55Z</time></trkpt><trkpt lat="44.47641142044831" lon="9.94706364314381"><ele>998.6666666666667</ele><time>2026-03-29T09:13:56Z</time></trkpt><trkpt lat="44.47652058513227" lon="9.947202411159914"><ele>993.0</ele><time>2026-03-29T09:13:57Z</time></trkpt><trkpt lat="44.47660869580181" lon="9.947399791361011"><ele>997.3333333333333</ele><time>2026-03-29T09:13:58Z</time></trkpt><trkpt lat="44.47669731380799" lon="9.94761654012027"><ele>1001.6666666666666</ele><time>2026-03-29T09:13:59Z</time></trkpt><trkpt lat="44.47680321335477" lon="9.947807934525631"><ele>1006.0</ele><time>2026-03-29T09:14:00Z</time></trkpt><trkpt lat="44.476922312263845" lon="9.947979506667872"><ele>1006.0</ele><time>2026-03-29T09:14:01Z</time></trkpt><trkpt lat="44.47708405310654" lon="9.948114989732762"><ele>1006.0</ele><time>2026-03-29T09:14:02Z</time></trkpt><trkpt lat="44.477272063749" lon="9.948187067484648"><ele>1006.0</ele><time>2026-03-29T09:14:03Z</time></trkpt><trkpt lat="44.47742902861354" lon="9.948244897219023"><ele>1003.25</ele><time>2026-03-29T09:14:04Z</time></trkpt><trkpt lat="44.477535411866796" lon="9.948382668934698"><ele>1000.5</ele><time>2026-03-29T09:14:05Z</time></trkpt><trkpt lat="44.47760648131609" lon="9.94853857917031"><ele>997.75</ele><time>2026-03-29T09:14:06Z</time></trkpt><trkpt lat="44.47766433490712" lon="9.948754705281623"><ele>995.0</ele><time>2026-03-29T09:14:07Z</time></trkpt><trkpt lat="44.47770064987831" lon="9.94900804948579"><ele>996.6666666666667</ele><time>2026-03-29T09:14:08Z</time></trkpt><trkpt lat="44.47769933179809" lon="9.949247592426461"><ele>998.3333333333333</ele><time>2026-03-29T09:14:09Z</time></trkpt><trkpt lat="44.47768991968309" lon="9.949463664467844"><ele>1000.0</ele><time>2026-03-29T09:14:10Z</time></trkpt><trkpt lat="44.47771060186933" lon="9.949649960033755"><ele>1000.0</ele><time>2026-03-29T09:14:11Z</time></trkpt><trkpt lat="44.477740160794525" lon="9.949814848996564"><ele>1000.0</ele><time>2026-03-29T09:14:12Z</time></trkpt><trkpt lat="44.47788501716028" lon="9.94996074912675"><ele>1000.0</ele><time>2026-03-29T09:14:13Z</time></trkpt><trkpt lat="44.47805022690388" lon="9.950071884693056"><ele>1001.0</ele><time>2026-03-29T09:14:14Z</time></trkpt><trkpt lat="44.478234671523516" lon="9.950148636786464"><ele>1002.0</ele><time>2026-03-29T09:14:15Z</time></trkpt><trkpt lat="44.478422648964944" lon="9.950151777256009"><ele>1003.0</ele><time>2026-03-29T09:14:16Z</time></trkpt><trkpt lat="44.478616899813694" lon="9.950082028892709"><ele>996.6666666666666</ele><time>2026-03-29T09:14:17Z</time></trkpt><trkpt lat="44.47881708909566" lon="9.950024003076559"><ele>990.3333333333333</ele><time>2026-03-29T09:14:18Z</time></trkpt><trkpt lat="44.479014248167616" lon="9.949995146275686"><ele>984.0</ele><time>2026-03-29T09:14:19Z</time></trkpt><trkpt lat="44.479196162439266" lon="9.949973716788444"><ele>984.0</ele><time>2026-03-29T09:14:20Z</time></trkpt><trkpt lat="44.479328192257285" lon="9.949948069025885"><ele>984.0</ele><time>2026-03-29T09:14:21Z</time></trkpt><trkpt lat="44.479440850312365" lon="9.949929149944685"><ele>984.0</ele><time>2026-03-29T09:14:22Z</time></trkpt><trkpt lat="44.47956096127163" lon="9.949912569733016"><ele>984.0</ele><time>2026-03-29T09:14:23Z</time></trkpt><trkpt lat="44.47969331081719" lon="9.949891941877924"><ele>984.0</ele><time>2026-03-29T09:14:24Z</time></trkpt><trkpt lat="44.47984011272469" lon="9.949870310341142"><ele>984.0</ele><time>2026-03-29T09:14:25Z</time></trkpt><trkpt lat="44.479993402990445" lon="9.949851176506671"><ele>984.0</ele><time>2026-03-29T09:14:26Z</time></trkpt><trkpt lat="44.48014851009834" lon="9.949821967533753"><ele>984.0</ele><time>2026-03-29T09:14:27Z</time></trkpt><trkpt lat="44.4803130556322" lon="9.949794457586371"><ele>984.0</ele><time>2026-03-29T09:14:28Z</time></trkpt><trkpt lat="44.48046699090198" lon="9.949771260341748"><ele>984.0</ele><time>2026-03-29T09:14:29Z</time></trkpt><trkpt lat="44.480601307636135" lon="9.94973299119973"><ele>984.3333333333333</ele><time>2026-03-29T09:14:30Z</time></trkpt><trkpt lat="44.48072037848354" lon="9.949614371012187"><ele>984.6666666666666</ele><time>2026-03-29T09:14:31Z</time></trkpt><trkpt lat="44.48082858113751" lon="9.949412850090493"><ele>985.0</ele><time>2026-03-29T09:14:32Z</time></trkpt><trkpt lat="44.48096210886364" lon="9.949200547455327"><ele>981.3333333333333</ele><time>2026-03-29T09:14:33Z</time></trkpt><trkpt lat="44.48109669642848" lon="9.949016408589198"><ele>977.6666666666667</ele><time>2026-03-29T09:14:34Z</time></trkpt><trkpt lat="44.481233829976865" lon="9.948830118778194"><ele>974.0</ele><time>2026-03-29T09:14:35Z</time></trkpt><trkpt lat="44.48135644567253" lon="9.948657908838014"><ele>974.0</ele><time>2026-03-29T09:14:36Z</time></trkpt><trkpt lat="44.48146123400422" lon="9.948515497482113"><ele>974.0000000000001</ele><time>2026-03-29T09:14:37Z</time></trkpt><trkpt lat="44.48154555122403" lon="9.948440051849659"><ele>974.0000000000001</ele><time>2026-03-29T09:14:38Z</time></trkpt><trkpt lat="44.48163264509178" lon="9.948428738543521"><ele>974.0</ele><time>2026-03-29T09:14:39Z</time></trkpt><trkpt lat="44.48172759069914" lon="9.948483432238373"><ele>974.0</ele><time>2026-03-29T09:14:40Z</time></trkpt><trkpt lat="44.48179583428178" lon="9.948629389511513"><ele>974.0</ele><time>2026-03-29T09:14:41Z</time></trkpt><trkpt lat="44.481809459749094" lon="9.948837985064209"><ele>974.0</ele><time>2026-03-29T09:14:42Z</time></trkpt><trkpt lat="44.48187404085218" lon="9.949034107889602"><ele>974.0</ele><time>2026-03-29T09:14:43Z</time></trkpt><trkpt lat="44.48197013887747" lon="9.949215640537561"><ele>973.3333333333334</ele><time>2026-03-29T09:14:44Z</time></trkpt><trkpt lat="44.48212753772557" lon="9.949373929497995"><ele>972.6666666666667</ele><time>2026-03-29T09:14:45Z</time></trkpt><trkpt lat="44.48229737148018" lon="9.949509055056872"><ele>972.0</ele><time>2026-03-29T09:14:46Z</time></trkpt><trkpt lat="44.48246549777853" lon="9.949644918769065"><ele>972.0</ele><time>2026-03-29T09:14:47Z</time></trkpt><trkpt lat="44.4826188146497" lon="9.949790135298525"><ele>972.0</ele><time>2026-03-29T09:14:48Z</time></trkpt><trkpt lat="44.48275499100891" lon="9.949926722843214"><ele>972.0</ele><time>2026-03-29T09:14:49Z</time></trkpt><trkpt lat="44.482884629869844" lon="9.950013603112717"><ele>966.3333333333333</ele><time>2026-03-29T09:14:50Z</time></trkpt><trkpt lat="44.48304552864016" lon="9.95003109517185"><ele>960.6666666666666</ele><time>2026-03-29T09:14:51Z</time></trkpt><trkpt lat="44.4832302703984" lon="9.9499755960202"><ele>955.0</ele><time>2026-03-29T09:14:52Z</time></trkpt><trkpt lat="44.48340738250095" lon="9.949951577838384"><ele>955.0</ele><time>2026-03-29T09:14:53Z</time></trkpt><trkpt lat="44.483575387314346" lon="9.950034149772547"><ele>955.0</ele><time>2026-03-29T09:14:54Z</time></trkpt><trkpt lat="44.48374432738673" lon="9.950161032629914"><ele>955.0</ele><time>2026-03-29T09:14:55Z</time></trkpt><trkpt lat="44.48389841839618" lon="9.950341636276198"><ele>955.6666666666666</ele><time>2026-03-29T09:14:56Z</time></trkpt><trkpt lat="44.48401442549408" lon="9.950574015489915"><ele>956.3333333333333</ele><time>2026-03-29T09:14:57Z</time></trkpt><trkpt lat="44.48409757963797" lon="9.950860872040298"><ele>957.0</ele><time>2026-03-29T09:14:58Z</time></trkpt><trkpt lat="44.484173540122626" lon="9.951200413680656"><ele>957.0</ele><time>2026-03-29T09:14:59Z</time></trkpt><trkpt lat="44.48424559949672" lon="9.951530908371103"><ele>957.0</ele><time>2026-03-29T09:15:00Z</time></trkpt><trkpt lat="44.48432770294684" lon="9.951848897910496"><ele>960.5</ele><time>2026-03-29T09:15:01Z</time></trkpt><trkpt lat="44.484454200316186" lon="9.952116086346917"><ele>964.0</ele><time>2026-03-29T09:15:02Z</time></trkpt><trkpt lat="44.484618918588936" lon="9.952384926562733"><ele>950.0</ele><time>2026-03-29T09:15:03Z</time></trkpt><trkpt lat="44.484759797185966" lon="9.952675722048053"><ele>936.0</ele><time>2026-03-29T09:15:04Z</time></trkpt><trkpt lat="44.48486399520454" lon="9.95297585670569"><ele>936.0</ele><time>2026-03-29T09:15:05Z</time></trkpt><trkpt lat="44.48495406404387" lon="9.953229600836764"><ele>936.0</ele><time>2026-03-29T09:15:06Z</time></trkpt><trkpt lat="44.485005110708315" lon="9.953544091115427"><ele>936.0</ele><time>2026-03-29T09:15:07Z</time></trkpt><trkpt lat="44.485013355674496" lon="9.953854898483394"><ele>935.6666666666667</ele><time>2026-03-29T09:15:08Z</time></trkpt><trkpt lat="44.48500150160706" lon="9.954161001311698"><ele>935.3333333333334</ele><time>2026-03-29T09:15:09Z</time></trkpt><trkpt lat="44.48495071700327" lon="9.954447018132411"><ele>935.0</ele><time>2026-03-29T09:15:10Z</time></trkpt><trkpt lat="44.484910408063584" lon="9.954714959886434"><ele>932.6666666666667</ele><time>2026-03-29T09:15:11Z</time></trkpt><trkpt lat="44.484845799986495" lon="9.954983304296178"><ele>930.3333333333333</ele><time>2026-03-29T09:15:12Z</time></trkpt><trkpt lat="44.48478781351368" lon="9.955269773428181"><ele>928.0</ele><time>2026-03-29T09:15:13Z</time></trkpt><trkpt lat="44.484702578984226" lon="9.955565932452206"><ele>927.5</ele><time>2026-03-29T09:15:14Z</time></trkpt><trkpt lat="44.48461420338901" lon="9.955865799454115"><ele>927.0</ele><time>2026-03-29T09:15:15Z</time></trkpt><trkpt lat="44.48455631841565" lon="9.956186955248828"><ele>927.0</ele><time>2026-03-29T09:15:16Z</time></trkpt><trkpt lat="44.48451335949406" lon="9.956537275257158"><ele>927.0</ele><time>2026-03-29T09:15:17Z</time></trkpt><trkpt lat="44.484495587086485" lon="9.956916883928647"><ele>926.0</ele><time>2026-03-29T09:15:18Z</time></trkpt><trkpt lat="44.48447108119713" lon="9.957284656087042"><ele>925.0</ele><time>2026-03-29T09:15:19Z</time></trkpt><trkpt lat="44.48444149322387" lon="9.957616290944683"><ele>925.0</ele><time>2026-03-29T09:15:20Z</time></trkpt><trkpt lat="44.48441406016371" lon="9.957885490283303"><ele>925.0</ele><time>2026-03-29T09:15:21Z</time></trkpt><trkpt lat="44.48439665334669" lon="9.958086699475421"><ele>925.0</ele><time>2026-03-29T09:15:22Z</time></trkpt><trkpt lat="44.484389291092775" lon="9.958245209980351"><ele>927.5</ele><time>2026-03-29T09:15:23Z</time></trkpt><trkpt lat="44.484375009380194" lon="9.958404404936525"><ele>930.0</ele><time>2026-03-29T09:15:24Z</time></trkpt><trkpt lat="44.48439359350129" lon="9.958558213091285"><ele>932.5</ele><time>2026-03-29T09:15:25Z</time></trkpt><trkpt lat="44.484467820253556" lon="9.958687302160135"><ele>935.0</ele><time>2026-03-29T09:15:26Z</time></trkpt><trkpt lat="44.48459014384147" lon="9.958759102868376"><ele>927.3333333333334</ele><time>2026-03-29T09:15:27Z</time></trkpt><trkpt lat="44.48474288584717" lon="9.958792237105117"><ele>919.6666666666667</ele><time>2026-03-29T09:15:28Z</time></trkpt><trkpt lat="44.48489839295594" lon="9.95881310584987"><ele>912.0</ele><time>2026-03-29T09:15:29Z</time></trkpt><trkpt lat="44.48506055608524" lon="9.958823650214287"><ele>912.0</ele><time>2026-03-29T09:15:30Z</time></trkpt><trkpt lat="44.48520988396305" lon="9.958835175131417"><ele>912.0</ele><time>2026-03-29T09:15:31Z</time></trkpt><trkpt lat="44.485340919996005" lon="9.958866866192457"><ele>912.0</ele><time>2026-03-29T09:15:32Z</time></trkpt><trkpt lat="44.485461819176415" lon="9.958933323124903"><ele>912.0</ele><time>2026-03-29T09:15:33Z</time></trkpt><trkpt lat="44.48555720476424" lon="9.959084802438454"><ele>905.0</ele><time>2026-03-29T09:15:34Z</time></trkpt><trkpt lat="44.48562727730506" lon="9.95928231272579"><ele>898.0</ele><time>2026-03-29T09:15:35Z</time></trkpt><trkpt lat="44.48561073455139" lon="9.959519549734116"><ele>891.0</ele><time>2026-03-29T09:15:36Z</time></trkpt><trkpt lat="44.48561465938179" lon="9.959793115111188"><ele>891.6666666666667</ele><time>2026-03-29T09:15:37Z</time></trkpt><trkpt lat="44.48563042724739" lon="9.960059065614146"><ele>892.3333333333334</ele><time>2026-03-29T09:15:38Z</time></trkpt><trkpt lat="44.48564155667131" lon="9.960301307932022"><ele>893.0</ele><time>2026-03-29T09:15:39Z</time></trkpt><trkpt lat="44.48567758377486" lon="9.960551320801018"><ele>893.0</ele><time>2026-03-29T09:15:40Z</time></trkpt><trkpt lat="44.48572972393196" lon="9.960816485414146"><ele>893.0</ele><time>2026-03-29T09:15:41Z</time></trkpt><trkpt lat="44.48578103409334" lon="9.961081727217605"><ele>893.0</ele><time>2026-03-29T09:15:42Z</time></trkpt><trkpt lat="44.48581799324799" lon="9.961339090261195"><ele>893.0</ele><time>2026-03-29T09:15:43Z</time></trkpt><trkpt lat="44.48585647563302" lon="9.961598137425975"><ele>893.0</ele><time>2026-03-29T09:15:44Z</time></trkpt><trkpt lat="44.48589831857913" lon="9.961851880077631"><ele>893.0</ele><time>2026-03-29T09:15:45Z</time></trkpt><trkpt lat="44.48594871567011" lon="9.962109779539702"><ele>893.0</ele><time>2026-03-29T09:15:46Z</time></trkpt><trkpt lat="44.48597669355405" lon="9.962372272844135"><ele>893.0</ele><time>2026-03-29T09:15:47Z</time></trkpt><trkpt lat="44.486016705352" lon="9.962604579954668"><ele>893.0</ele><time>2026-03-29T09:15:48Z</time></trkpt><trkpt lat="44.48603959111053" lon="9.96281862707653"><ele>892.3333333333334</ele><time>2026-03-29T09:15:49Z</time></trkpt><trkpt lat="44.48600767778095" lon="9.963012282864769"><ele>891.6666666666667</ele><time>2026-03-29T09:15:50Z</time></trkpt><trkpt lat="44.48593632787122" lon="9.96321117992296"><ele>891.0</ele><time>2026-03-29T09:15:51Z</time></trkpt><trkpt lat="44.48583189040095" lon="9.963430256611318"><ele>890.3333333333333</ele><time>2026-03-29T09:15:52Z</time></trkpt><trkpt lat="44.485726279443504" lon="9.963655263815527"><ele>889.6666666666666</ele><time>2026-03-29T09:15:53Z</time></trkpt><trkpt lat="44.48565736559582" lon="9.963860350213812"><ele>889.0</ele><time>2026-03-29T09:15:54Z</time></trkpt><trkpt lat="44.485598594661965" lon="9.964056039409341"><ele>889.6666666666666</ele><time>2026-03-29T09:15:55Z</time></trkpt><trkpt lat="44.48557505754951" lon="9.964273501578957"><ele>890.3333333333333</ele><time>2026-03-29T09:15:56Z</time></trkpt><trkpt lat="44.485584129288405" lon="9.964495619856734"><ele>891.0</ele><time>2026-03-29T09:15:57Z</time></trkpt><trkpt lat="44.48562803519788" lon="9.9646959595478"><ele>891.0</ele><time>2026-03-29T09:15:58Z</time></trkpt><trkpt lat="44.48570701898237" lon="9.964859251928504"><ele>891.0</ele><time>2026-03-29T09:15:59Z</time></trkpt><trkpt lat="44.48581302243304" lon="9.964968561994377"><ele>891.0</ele><time>2026-03-29T09:16:00Z</time></trkpt><trkpt lat="44.48594690980017" lon="9.965003033663379"><ele>891.0</ele><time>2026-03-29T09:16:01Z</time></trkpt><trkpt lat="44.48609031373565" lon="9.964980045629185"><ele>891.0</ele><time>2026-03-29T09:16:02Z</time></trkpt><trkpt lat="44.486244874169316" lon="9.964897192357952"><ele>891.0</ele><time>2026-03-29T09:16:03Z</time></trkpt><trkpt lat="44.48641691335658" lon="9.9647954535978"><ele>891.0</ele><time>2026-03-29T09:16:04Z</time></trkpt><trkpt lat="44.486585221413556" lon="9.964697122541843"><ele>886.6666666666667</ele><time>2026-03-29T09:16:05Z</time></trkpt><trkpt lat="44.48674135167957" lon="9.964643396474266"><ele>882.3333333333334</ele><time>2026-03-29T09:16:06Z</time></trkpt><trkpt lat="44.48689053279751" lon="9.964681136071823"><ele>878.0</ele><time>2026-03-29T09:16:07Z</time></trkpt><trkpt lat="44.48705273335748" lon="9.964763530457759"><ele>875.3333333333334</ele><time>2026-03-29T09:16:08Z</time></trkpt><trkpt lat="44.487198579222905" lon="9.964921879409353"><ele>872.6666666666667</ele><time>2026-03-29T09:16:09Z</time></trkpt><trkpt lat="44.4873165618098" lon="9.965140685579419"><ele>870.0</ele><time>2026-03-29T09:16:10Z</time></trkpt><trkpt lat="44.48743559597595" lon="9.96537650016237"><ele>870.0</ele><time>2026-03-29T09:16:11Z</time></trkpt><trkpt lat="44.4875516631476" lon="9.965599698766825"><ele>870.0</ele><time>2026-03-29T09:16:12Z</time></trkpt><trkpt lat="44.48766525501868" lon="9.965802203501738"><ele>870.0</ele><time>2026-03-29T09:16:13Z</time></trkpt><trkpt lat="44.48775398604092" lon="9.966000089245453"><ele>871.75</ele><time>2026-03-29T09:16:14Z</time></trkpt><trkpt lat="44.487832636614385" lon="9.96617297070756"><ele>873.5</ele><time>2026-03-29T09:16:15Z</time></trkpt><trkpt lat="44.487934698717645" lon="9.966283587933688"><ele>875.25</ele><time>2026-03-29T09:16:16Z</time></trkpt><trkpt lat="44.48807399645227" lon="9.966311817205979"><ele>877.0</ele><time>2026-03-29T09:16:17Z</time></trkpt><trkpt lat="44.488232280861624" lon="9.966260078460678"><ele>877.0</ele><time>2026-03-29T09:16:18Z</time></trkpt><trkpt lat="44.488383261715555" lon="9.966153182142609"><ele>877.0</ele><time>2026-03-29T09:16:19Z</time></trkpt><trkpt lat="44.48852676648644" lon="9.966054866690001"><ele>877.0</ele><time>2026-03-29T09:16:20Z</time></trkpt><trkpt lat="44.48866555367594" lon="9.966044115364111"><ele>877.0</ele><time>2026-03-29T09:16:21Z</time></trkpt><trkpt lat="44.488803960730195" lon="9.966180206523477"><ele>877.0</ele><time>2026-03-29T09:16:22Z</time></trkpt><trkpt lat="44.488920302495565" lon="9.966368143677705"><ele>877.0</ele><time>2026-03-29T09:16:23Z</time></trkpt><trkpt lat="44.489046595383535" lon="9.966571115805037"><ele>880.5</ele><time>2026-03-29T09:16:24Z</time></trkpt><trkpt lat="44.48916442493223" lon="9.966743246718417"><ele>884.0</ele><time>2026-03-29T09:16:25Z</time></trkpt><trkpt lat="44.4892816506806" lon="9.966855838965369"><ele>887.5</ele><time>2026-03-29T09:16:26Z</time></trkpt><trkpt lat="44.48941595121004" lon="9.966849478688632"><ele>891.0</ele><time>2026-03-29T09:16:27Z</time></trkpt><trkpt lat="44.48954416608586" lon="9.966760961863784"><ele>886.3333333333333</ele><time>2026-03-29T09:16:28Z</time></trkpt><trkpt lat="44.489660232740526" lon="9.966583211277898"><ele>881.6666666666666</ele><time>2026-03-29T09:16:29Z</time></trkpt><trkpt lat="44.48979156512909" lon="9.966385292635154"><ele>877.0</ele><time>2026-03-29T09:16:30Z</time></trkpt><trkpt lat="44.48994403847257" lon="9.96620464452193"><ele>877.0</ele><time>2026-03-29T09:16:31Z</time></trkpt><trkpt lat="44.49007644277608" lon="9.966047485563937"><ele>877.0</ele><time>2026-03-29T09:16:32Z</time></trkpt><trkpt lat="44.49022837777338" lon="9.965958986716302"><ele>877.0</ele><time>2026-03-29T09:16:33Z</time></trkpt><trkpt lat="44.49040746052362" lon="9.965920188893735"><ele>878.0</ele><time>2026-03-29T09:16:34Z</time></trkpt><trkpt lat="44.49060067047447" lon="9.965882104087651"><ele>879.0</ele><time>2026-03-29T09:16:35Z</time></trkpt><trkpt lat="44.490779267165856" lon="9.96589210321239"><ele>880.0</ele><time>2026-03-29T09:16:36Z</time></trkpt><trkpt lat="44.49094167218079" lon="9.965900038531823"><ele>880.0</ele><time>2026-03-29T09:16:37Z</time></trkpt><trkpt lat="44.49109355581097" lon="9.965932299748303"><ele>880.0</ele><time>2026-03-29T09:16:38Z</time></trkpt><trkpt lat="44.49124385840204" lon="9.965997770855003"><ele>880.0</ele><time>2026-03-29T09:16:39Z</time></trkpt><trkpt lat="44.49139486022926" lon="9.966066611355181"><ele>878.0</ele><time>2026-03-29T09:16:40Z</time></trkpt><trkpt lat="44.491521887375406" lon="9.96613346599661"><ele>876.0</ele><time>2026-03-29T09:16:41Z</time></trkpt><trkpt lat="44.4916566188049" lon="9.966213059581213"><ele>874.0</ele><time>2026-03-29T09:16:42Z</time></trkpt><trkpt lat="44.491793800166135" lon="9.966302590886746"><ele>872.0</ele><time>2026-03-29T09:16:43Z</time></trkpt><trkpt lat="44.49193722031837" lon="9.966384537623558"><ele>869.6666666666667</ele><time>2026-03-29T09:16:44Z</time></trkpt><trkpt lat="44.49209283491122" lon="9.96645765484968"><ele>867.3333333333333</ele><time>2026-03-29T09:16:45Z</time></trkpt><trkpt lat="44.49224754749542" lon="9.966533275955955"><ele>865.0</ele><time>2026-03-29T09:16:46Z</time></trkpt><trkpt lat="44.49237973040376" lon="9.966620903750217"><ele>865.75</ele><time>2026-03-29T09:16:47Z</time></trkpt><trkpt lat="44.492506381584775" lon="9.966738595544308"><ele>866.5</ele><time>2026-03-29T09:16:48Z</time></trkpt><trkpt lat="44.49257822049081" lon="9.966889911548648"><ele>867.25</ele><time>2026-03-29T09:16:49Z</time></trkpt><trkpt lat="44.492614458844336" lon="9.967079475125287"><ele>868.0</ele><time>2026-03-29T09:16:50Z</time></trkpt><trkpt lat="44.49259659166423" lon="9.967311160177596"><ele>868.6666666666666</ele><time>2026-03-29T09:16:51Z</time></trkpt><trkpt lat="44.49260722518083" lon="9.967568719688467"><ele>869.3333333333333</ele><time>2026-03-29T09:16:52Z</time></trkpt><trkpt lat="44.49264570270697" lon="9.967824344568617"><ele>870.0</ele><time>2026-03-29T09:16:53Z</time></trkpt><trkpt lat="44.49269620951208" lon="9.968078540562173"><ele>870.0</ele><time>2026-03-29T09:16:54Z</time></trkpt><trkpt lat="44.49276603943813" lon="9.968310259549687"><ele>870.0</ele><time>2026-03-29T09:16:55Z</time></trkpt><trkpt lat="44.49282661321902" lon="9.96851145560325"><ele>870.0</ele><time>2026-03-29T09:16:56Z</time></trkpt><trkpt lat="44.49288215854855" lon="9.96869464818533"><ele>869.75</ele><time>2026-03-29T09:16:57Z</time></trkpt><trkpt lat="44.492935052664514" lon="9.96886599341502"><ele>869.5</ele><time>2026-03-29T09:16:58Z</time></trkpt><trkpt lat="44.492983486608566" lon="9.969021488724298"><ele>869.25</ele><time>2026-03-29T09:16:59Z</time></trkpt><trkpt lat="44.49302780930695" lon="9.969165536675277"><ele>869.0</ele><time>2026-03-29T09:17:00Z</time></trkpt><trkpt lat="44.49307273865388" lon="9.969310212402142"><ele>869.0</ele><time>2026-03-29T09:17:01Z</time></trkpt><trkpt lat="44.49312005108268" lon="9.969463280691233"><ele>869.0</ele><time>2026-03-29T09:17:02Z</time></trkpt><trkpt lat="44.4931663938871" lon="9.969618849868612"><ele>869.0</ele><time>2026-03-29T09:17:03Z</time></trkpt><trkpt lat="44.49321156927533" lon="9.969773667428889"><ele>869.0</ele><time>2026-03-29T09:17:04Z</time></trkpt><trkpt lat="44.49325757649353" lon="9.969930196462332"><ele>874.75</ele><time>2026-03-29T09:17:05Z</time></trkpt><trkpt lat="44.49330310291618" lon="9.970093155673947"><ele>880.5</ele><time>2026-03-29T09:17:06Z</time></trkpt><trkpt lat="44.49334854931065" lon="9.970261369638893"><ele>886.25</ele><time>2026-03-29T09:17:07Z</time></trkpt><trkpt lat="44.493407561354424" lon="9.970432250846557"><ele>892.0</ele><time>2026-03-29T09:17:08Z</time></trkpt><trkpt lat="44.49350301940967" lon="9.970590235662657"><ele>892.0</ele><time>2026-03-29T09:17:09Z</time></trkpt><trkpt lat="44.4936334969138" lon="9.970717948982985"><ele>892.0</ele><time>2026-03-29T09:17:10Z</time></trkpt><trkpt lat="44.49381466051744" lon="9.970808642424348"><ele>892.0</ele><time>2026-03-29T09:17:11Z</time></trkpt><trkpt lat="44.493972492406456" lon="9.970918070403282"><ele>887.25</ele><time>2026-03-29T09:17:12Z</time></trkpt><trkpt lat="44.494102143358155" lon="9.97102879688875"><ele>882.5</ele><time>2026-03-29T09:17:13Z</time></trkpt><trkpt lat="44.49417817403882" lon="9.971170091358621"><ele>877.75</ele><time>2026-03-29T09:17:14Z</time></trkpt><trkpt lat="44.494184788976284" lon="9.971335961093258"><ele>873.0</ele><time>2026-03-29T09:17:15Z</time></trkpt><trkpt lat="44.49413952779241" lon="9.971508600318227"><ele>873.0</ele><time>2026-03-29T09:17:16Z</time></trkpt><trkpt lat="44.4940342658672" lon="9.971640609110715"><ele>873.0</ele><time>2026-03-29T09:17:17Z</time></trkpt><trkpt lat="44.49398296838461" lon="9.971775537316361"><ele>873.0</ele><time>2026-03-29T09:17:18Z</time></trkpt><trkpt lat="44.49395507399419" lon="9.971901621926108"><ele>873.0</ele><time>2026-03-29T09:17:19Z</time></trkpt><trkpt lat="44.49395221871888" lon="9.97205353608746"><ele>875.0</ele><time>2026-03-29T09:17:20Z</time></trkpt><trkpt lat="44.49398081129773" lon="9.972231177255898"><ele>877.0</ele><time>2026-03-29T09:17:21Z</time></trkpt><trkpt lat="44.49403291567304" lon="9.97241680384462"><ele>879.0</ele><time>2026-03-29T09:17:22Z</time></trkpt><trkpt lat="44.49411244994255" lon="9.972600967563565"><ele>881.0</ele><time>2026-03-29T09:17:23Z</time></trkpt><trkpt lat="44.49424753540941" lon="9.972717468614018"><ele>882.3333333333334</ele><time>2026-03-29T09:17:24Z</time></trkpt><trkpt lat="44.49443210322045" lon="9.972811285706438"><ele>883.6666666666667</ele><time>2026-03-29T09:17:25Z</time></trkpt><trkpt lat="44.49462984202074" lon="9.972910417110853"><ele>885.0</ele><time>2026-03-29T09:17:26Z</time></trkpt><trkpt lat="44.49480549533417" lon="9.973027826141065"><ele>885.0</ele><time>2026-03-29T09:17:27Z</time></trkpt><trkpt lat="44.49498692932387" lon="9.97315507324521"><ele>885.0</ele><time>2026-03-29T09:17:28Z</time></trkpt><trkpt lat="44.49516139182604" lon="9.97327661132055"><ele>885.0</ele><time>2026-03-29T09:17:29Z</time></trkpt><trkpt lat="44.49533838504991" lon="9.97338336239299"><ele>890.0</ele><time>2026-03-29T09:17:30Z</time></trkpt><trkpt lat="44.495515003552455" lon="9.973481924684618"><ele>895.0</ele><time>2026-03-29T09:17:31Z</time></trkpt><trkpt lat="44.49569634563599" lon="9.973563272809553"><ele>900.0</ele><time>2026-03-29T09:17:32Z</time></trkpt><trkpt lat="44.49587579276435" lon="9.973614448009567"><ele>900.0</ele><time>2026-03-29T09:17:33Z</time></trkpt><trkpt lat="44.49606149700454" lon="9.973659967481325"><ele>900.0</ele><time>2026-03-29T09:17:34Z</time></trkpt><trkpt lat="44.496239102744305" lon="9.973700951749477"><ele>900.0</ele><time>2026-03-29T09:17:35Z</time></trkpt><trkpt lat="44.49642009254839" lon="9.973743068084918"><ele>895.3333333333333</ele><time>2026-03-29T09:17:36Z</time></trkpt><trkpt lat="44.49659790255068" lon="9.973828255689673"><ele>890.6666666666666</ele><time>2026-03-29T09:17:37Z</time></trkpt><trkpt lat="44.496774339554435" lon="9.973956348996069"><ele>886.0</ele><time>2026-03-29T09:17:38Z</time></trkpt><trkpt lat="44.49694412868722" lon="9.974055183960855"><ele>890.3333333333333</ele><time>2026-03-29T09:17:39Z</time></trkpt><trkpt lat="44.49712095330735" lon="9.974084468603374"><ele>894.6666666666667</ele><time>2026-03-29T09:17:40Z</time></trkpt><trkpt lat="44.49728555532144" lon="9.974089434212106"><ele>899.0</ele><time>2026-03-29T09:17:41Z</time></trkpt><trkpt lat="44.4974134641478" lon="9.974202782512496"><ele>899.0</ele><time>2026-03-29T09:17:42Z</time></trkpt><trkpt lat="44.4975354109491" lon="9.974360966638931"><ele>899.0</ele><time>2026-03-29T09:17:43Z</time></trkpt><trkpt lat="44.49765590681755" lon="9.974559013011055"><ele>899.0</ele><time>2026-03-29T09:17:44Z</time></trkpt><trkpt lat="44.49778745000316" lon="9.974749193430387"><ele>902.3333333333334</ele><time>2026-03-29T09:17:45Z</time></trkpt><trkpt lat="44.49792097455656" lon="9.974919938648863"><ele>905.6666666666667</ele><time>2026-03-29T09:17:46Z</time></trkpt><trkpt lat="44.49808600577589" lon="9.975032995235082"><ele>909.0</ele><time>2026-03-29T09:17:47Z</time></trkpt><trkpt lat="44.498292651760785" lon="9.975116294921705"><ele>909.0</ele><time>2026-03-29T09:17:48Z</time></trkpt><trkpt lat="44.4984976595059" lon="9.975191592593466"><ele>909.0</ele><time>2026-03-29T09:17:49Z</time></trkpt><trkpt lat="44.49868163824727" lon="9.975279027742356"><ele>909.0</ele><time>2026-03-29T09:17:50Z</time></trkpt><trkpt lat="44.498854667815166" lon="9.975344596185819"><ele>902.25</ele><time>2026-03-29T09:17:51Z</time></trkpt><trkpt lat="44.49900985022547" lon="9.975351455398828"><ele>895.5</ele><time>2026-03-29T09:17:52Z</time></trkpt><trkpt lat="44.499156800369015" lon="9.975334202601648"><ele>888.75</ele><time>2026-03-29T09:17:53Z</time></trkpt><trkpt lat="44.499263734290125" lon="9.975378586389029"><ele>882.0</ele><time>2026-03-29T09:17:54Z</time></trkpt><trkpt lat="44.499332696420986" lon="9.975442791507165"><ele>882.0</ele><time>2026-03-29T09:17:55Z</time></trkpt><trkpt lat="44.499362477216195" lon="9.975598615658438"><ele>882.0</ele><time>2026-03-29T09:17:56Z</time></trkpt><trkpt lat="44.499360434739444" lon="9.975815218486742"><ele>882.0</ele><time>2026-03-29T09:17:57Z</time></trkpt><trkpt lat="44.49936770483859" lon="9.976069325366037"><ele>888.3333333333333</ele><time>2026-03-29T09:17:58Z</time></trkpt><trkpt lat="44.499401340881825" lon="9.97630651596443"><ele>894.6666666666666</ele><time>2026-03-29T09:17:59Z</time></trkpt><trkpt lat="44.499468970382" lon="9.976533282876881"><ele>901.0</ele><time>2026-03-29T09:18:00Z</time></trkpt><trkpt lat="44.49956150006623" lon="9.976764869187384"><ele>887.3333333333333</ele><time>2026-03-29T09:18:01Z</time></trkpt><trkpt lat="44.49964135141721" lon="9.977006375439853"><ele>873.6666666666667</ele><time>2026-03-29T09:18:02Z</time></trkpt><trkpt lat="44.49970929918572" lon="9.9772437711757"><ele>860.0</ele><time>2026-03-29T09:18:03Z</time></trkpt><trkpt lat="44.49976788746316" lon="9.977476806219164"><ele>861.0</ele><time>2026-03-29T09:18:04Z</time></trkpt><trkpt lat="44.4997869765279" lon="9.97772733508881"><ele>862.0</ele><time>2026-03-29T09:18:05Z</time></trkpt><trkpt lat="44.49976836836989" lon="9.977988136708857"><ele>863.0</ele><time>2026-03-29T09:18:06Z</time></trkpt><trkpt lat="44.49975607573953" lon="9.978259222549381"><ele>863.3333333333334</ele><time>2026-03-29T09:18:07Z</time></trkpt><trkpt lat="44.49973349342251" lon="9.978504390959188"><ele>863.6666666666667</ele><time>2026-03-29T09:18:08Z</time></trkpt><trkpt lat="44.49974486926751" lon="9.978728286291272"><ele>864.0</ele><time>2026-03-29T09:18:09Z</time></trkpt><trkpt lat="44.499807158054516" lon="9.97895760262179"><ele>865.0</ele><time>2026-03-29T09:18:10Z</time></trkpt><trkpt lat="44.49990504795629" lon="9.979202738775895"><ele>866.0</ele><time>2026-03-29T09:18:11Z</time></trkpt><trkpt lat="44.49999590579037" lon="9.97944250002462"><ele>867.0</ele><time>2026-03-29T09:18:12Z</time></trkpt><trkpt lat="44.50006466685726" lon="9.979649220998459"><ele>867.0</ele><time>2026-03-29T09:18:13Z</time></trkpt><trkpt lat="44.500073545810324" lon="9.979841501124131"><ele>867.0</ele><time>2026-03-29T09:18:14Z</time></trkpt><trkpt lat="44.50006822609736" lon="9.980047655088876"><ele>867.0</ele><time>2026-03-29T09:18:15Z</time></trkpt><trkpt lat="44.500055893315405" lon="9.98030246458797"><ele>867.6666666666667</ele><time>2026-03-29T09:18:16Z</time></trkpt><trkpt lat="44.500039225945514" lon="9.980549035122477"><ele>868.3333333333334</ele><time>2026-03-29T09:18:17Z</time></trkpt><trkpt lat="44.50005635807322" lon="9.980768956098562"><ele>869.0</ele><time>2026-03-29T09:18:18Z</time></trkpt><trkpt lat="44.50011739190493" lon="9.980974215539316"><ele>865.6666666666667</ele><time>2026-03-29T09:18:19Z</time></trkpt><trkpt lat="44.50021453617194" lon="9.981159633965683"><ele>862.3333333333333</ele><time>2026-03-29T09:18:20Z</time></trkpt><trkpt lat="44.50034644266412" lon="9.981333001300406"><ele>859.0</ele><time>2026-03-29T09:18:21Z</time></trkpt><trkpt lat="44.500470569629385" lon="9.981520391688619"><ele>864.6666666666666</ele><time>2026-03-29T09:18:22Z</time></trkpt><trkpt lat="44.500590190087586" lon="9.981686455005473"><ele>870.3333333333333</ele><time>2026-03-29T09:18:23Z</time></trkpt><trkpt lat="44.50071188781376" lon="9.98182940920874"><ele>876.0</ele><time>2026-03-29T09:18:24Z</time></trkpt><trkpt lat="44.5008283077771" lon="9.981959357620678"><ele>876.0</ele><time>2026-03-29T09:18:25Z</time></trkpt><trkpt lat="44.50096229392776" lon="9.98209495643812"><ele>876.0</ele><time>2026-03-29T09:18:26Z</time></trkpt><trkpt lat="44.501116421641235" lon="9.982220236179682"><ele>876.0</ele><time>2026-03-29T09:18:27Z</time></trkpt><trkpt lat="44.501299304364096" lon="9.98231820959984"><ele>873.25</ele><time>2026-03-29T09:18:28Z</time></trkpt><trkpt lat="44.50146838577433" lon="9.982380907649748"><ele>870.5</ele><time>2026-03-29T09:18:29Z</time></trkpt><trkpt lat="44.50159952163663" lon="9.982444014470815"><ele>867.75</ele><time>2026-03-29T09:18:30Z</time></trkpt><trkpt lat="44.501697542230154" lon="9.982575152879134"><ele>865.0</ele><time>2026-03-29T09:18:31Z</time></trkpt><trkpt lat="44.50173972712582" lon="9.982795980730788"><ele>865.0</ele><time>2026-03-29T09:18:32Z</time></trkpt><trkpt lat="44.501806134656555" lon="9.98304912224779"><ele>865.0</ele><time>2026-03-29T09:18:33Z</time></trkpt><trkpt lat="44.50184507238495" lon="9.983303041674406"><ele>865.0</ele><time>2026-03-29T09:18:34Z</time></trkpt><trkpt lat="44.50186131464294" lon="9.983533408628778"><ele>865.0</ele><time>2026-03-29T09:18:35Z</time></trkpt><trkpt lat="44.501834592572344" lon="9.983755593042197"><ele>865.0</ele><time>2026-03-29T09:18:36Z</time></trkpt><trkpt lat="44.501778691170166" lon="9.984006434813052"><ele>865.0</ele><time>2026-03-29T09:18:36.999Z</time></trkpt><trkpt lat="44.501720780566444" lon="9.9842553281401"><ele>863.25</ele><time>2026-03-29T09:18:37.999Z</time></trkpt><trkpt lat="44.50162327047121" lon="9.984429872150352"><ele>861.5</ele><time>2026-03-29T09:18:38.999Z</time></trkpt><trkpt lat="44.50155638398548" lon="9.984594097097277"><ele>859.75</ele><time>2026-03-29T09:18:39.999Z</time></trkpt><trkpt lat="44.50148237672786" lon="9.984715558196886"><ele>858.0</ele><time>2026-03-29T09:18:40.999Z</time></trkpt><trkpt lat="44.50142663524259" lon="9.98485163619667"><ele>858.0</ele><time>2026-03-29T09:18:41.999Z</time></trkpt><trkpt lat="44.50139970360509" lon="9.984994718530404"><ele>858.0</ele><time>2026-03-29T09:18:42.999Z</time></trkpt><trkpt lat="44.501416291397724" lon="9.985156516972047"><ele>858.0</ele><time>2026-03-29T09:18:43.999Z</time></trkpt><trkpt lat="44.50149009842106" lon="9.985329728168113"><ele>858.0</ele><time>2026-03-29T09:18:44.999Z</time></trkpt><trkpt lat="44.501614585971346" lon="9.985507021933863"><ele>858.6666666666667</ele><time>2026-03-29T09:18:45.999Z</time></trkpt><trkpt lat="44.501768984772525" lon="9.985643390778453"><ele>859.3333333333334</ele><time>2026-03-29T09:18:46.999Z</time></trkpt><trkpt lat="44.50191969516329" lon="9.985749128685779"><ele>860.0</ele><time>2026-03-29T09:18:47.999Z</time></trkpt><trkpt lat="44.50202077211675" lon="9.985941652819617"><ele>855.6666666666667</ele><time>2026-03-29T09:18:49Z</time></trkpt><trkpt lat="44.502115969927836" lon="9.986138890640303"><ele>851.3333333333333</ele><time>2026-03-29T09:18:50Z</time></trkpt><trkpt lat="44.50219473042135" lon="9.986353845122173"><ele>847.0</ele><time>2026-03-29T09:18:51Z</time></trkpt><trkpt lat="44.50223376560681" lon="9.986551346903752"><ele>848.5</ele><time>2026-03-29T09:18:52Z</time></trkpt><trkpt lat="44.50217336561129" lon="9.986720380299964"><ele>850.0</ele><time>2026-03-29T09:18:53Z</time></trkpt><trkpt lat="44.50209869284983" lon="9.986908126634491"><ele>851.5</ele><time>2026-03-29T09:18:54Z</time></trkpt><trkpt lat="44.502048035368496" lon="9.987096231953595"><ele>853.0</ele><time>2026-03-29T09:18:55Z</time></trkpt><trkpt lat="44.50202953349912" lon="9.987260172424541"><ele>855.75</ele><time>2026-03-29T09:18:56Z</time></trkpt><trkpt lat="44.50207533107834" lon="9.987428085048682"><ele>858.5</ele><time>2026-03-29T09:18:57Z</time></trkpt><trkpt lat="44.50217778449655" lon="9.987543205317658"><ele>861.25</ele><time>2026-03-29T09:18:58Z</time></trkpt><trkpt lat="44.50232993096897" lon="9.98758731735595"><ele>864.0</ele><time>2026-03-29T09:18:59Z</time></trkpt><trkpt lat="44.50250343570565" lon="9.987568140898114"><ele>860.3333333333333</ele><time>2026-03-29T09:19:00Z</time></trkpt><trkpt lat="44.50266593508966" lon="9.987504110731434"><ele>856.6666666666666</ele><time>2026-03-29T09:19:01Z</time></trkpt><trkpt lat="44.50281990351704" lon="9.987442668131424"><ele>853.0</ele><time>2026-03-29T09:19:02Z</time></trkpt><trkpt lat="44.50295961359586" lon="9.987422885128662"><ele>853.2</ele><time>2026-03-29T09:19:03Z</time></trkpt><trkpt lat="44.503071218220676" lon="9.98745445595651"><ele>853.4</ele><time>2026-03-29T09:19:04Z</time></trkpt><trkpt lat="44.50313506282694" lon="9.987589000021401"><ele>853.6000000000001</ele><time>2026-03-29T09:19:05Z</time></trkpt><trkpt lat="44.50318859761397" lon="9.987712102381767"><ele>853.8000000000001</ele><time>2026-03-29T09:19:06Z</time></trkpt><trkpt lat="44.50325176147527" lon="9.987817652340317"><ele>854.0</ele><time>2026-03-29T09:19:07Z</time></trkpt><trkpt lat="44.50329400757009" lon="9.987925725526951"><ele>854.0</ele><time>2026-03-29T09:19:08Z</time></trkpt><trkpt lat="44.50334584551124" lon="9.988035194475383"><ele>854.0000000000001</ele><time>2026-03-29T09:19:09Z</time></trkpt><trkpt lat="44.50340544015333" lon="9.988152552074391"><ele>854.0000000000001</ele><time>2026-03-29T09:19:10Z</time></trkpt><trkpt lat="44.50346426308804" lon="9.988269655741412"><ele>854.0</ele><time>2026-03-29T09:19:11Z</time></trkpt><trkpt lat="44.50353354141439" lon="9.988379219743692"><ele>854.0</ele><time>2026-03-29T09:19:12Z</time></trkpt><trkpt lat="44.50361059613763" lon="9.988479790972116"><ele>853.8000000000001</ele><time>2026-03-29T09:19:13Z</time></trkpt><trkpt lat="44.50369772005475" lon="9.988566331838383"><ele>853.6000000000001</ele><time>2026-03-29T09:19:14Z</time></trkpt><trkpt lat="44.50377887054406" lon="9.988645937200333"><ele>853.4</ele><time>2026-03-29T09:19:15Z</time></trkpt><trkpt lat="44.50386777384828" lon="9.988731699707794"><ele>853.2</ele><time>2026-03-29T09:19:16Z</time></trkpt><trkpt lat="44.50396479025971" lon="9.98881535884679"><ele>853.0</ele><time>2026-03-29T09:19:17Z</time></trkpt><trkpt lat="44.50407498019743" lon="9.988891020094025"><ele>853.0</ele><time>2026-03-29T09:19:18Z</time></trkpt><trkpt lat="44.504202542997525" lon="9.988954496646567"><ele>853.0</ele><time>2026-03-29T09:19:19Z</time></trkpt><trkpt lat="44.50433143939657" lon="9.98898780361628"><ele>853.0</ele><time>2026-03-29T09:19:20Z</time></trkpt><trkpt lat="44.50446461047084" lon="9.988990057012254"><ele>853.0</ele><time>2026-03-29T09:19:21Z</time></trkpt><trkpt lat="44.504602092495944" lon="9.98899007590197"><ele>852.0</ele><time>2026-03-29T09:19:22Z</time></trkpt><trkpt lat="44.504738155219485" lon="9.988997368386435"><ele>851.0</ele><time>2026-03-29T09:19:23Z</time></trkpt><trkpt lat="44.50487116645912" lon="9.989008335042358"><ele>850.0</ele><time>2026-03-29T09:19:24Z</time></trkpt><trkpt lat="44.50500240985727" lon="9.989025308590408"><ele>849.0</ele><time>2026-03-29T09:19:25Z</time></trkpt><trkpt lat="44.50513057701557" lon="9.989058106731283"><ele>849.0</ele><time>2026-03-29T09:19:26Z</time></trkpt><trkpt lat="44.50525012979122" lon="9.98913531313243"><ele>849.0</ele><time>2026-03-29T09:19:27Z</time></trkpt><trkpt lat="44.50535777836136" lon="9.98925101573885"><ele>849.0</ele><time>2026-03-29T09:19:28Z</time></trkpt><trkpt lat="44.50545012325712" lon="9.989384366187993"><ele>849.0</ele><time>2026-03-29T09:19:29Z</time></trkpt><trkpt lat="44.50554567708056" lon="9.989505593115956"><ele>848.25</ele><time>2026-03-29T09:19:30Z</time></trkpt><trkpt lat="44.5056488183772" lon="9.989614306056948"><ele>847.5</ele><time>2026-03-29T09:19:31Z</time></trkpt><trkpt lat="44.50575048937697" lon="9.989720454485374"><ele>846.75</ele><time>2026-03-29T09:19:32Z</time></trkpt><trkpt lat="44.50584934582518" lon="9.989826937245274"><ele>846.0</ele><time>2026-03-29T09:19:33Z</time></trkpt><trkpt lat="44.50594636868295" lon="9.98992803239867"><ele>846.0</ele><time>2026-03-29T09:19:34Z</time></trkpt><trkpt lat="44.50604502251181" lon="9.990036439529662"><ele>846.0</ele><time>2026-03-29T09:19:35Z</time></trkpt><trkpt lat="44.50613422686681" lon="9.990146465850867"><ele>846.0</ele><time>2026-03-29T09:19:36Z</time></trkpt><trkpt lat="44.50620517613741" lon="9.990279063584813"><ele>846.0</ele><time>2026-03-29T09:19:37Z</time></trkpt><trkpt lat="44.50625229159919" lon="9.99042344244031"><ele>845.4</ele><time>2026-03-29T09:19:38Z</time></trkpt><trkpt lat="44.50629358850582" lon="9.990570035509007"><ele>844.8</ele><time>2026-03-29T09:19:39Z</time></trkpt><trkpt lat="44.50633895936582" lon="9.990708219766052"><ele>844.1999999999999</ele><time>2026-03-29T09:19:40Z</time></trkpt><trkpt lat="44.506393773060715" lon="9.990838889826765"><ele>843.5999999999999</ele><time>2026-03-29T09:19:41Z</time></trkpt><trkpt lat="44.50645864155452" lon="9.990948518028306"><ele>843.0</ele><time>2026-03-29T09:19:42Z</time></trkpt><trkpt lat="44.50653659260711" lon="9.991055523844913"><ele>843.0</ele><time>2026-03-29T09:19:43Z</time></trkpt><trkpt lat="44.50662645498185" lon="9.991161341753516"><ele>843.0</ele><time>2026-03-29T09:19:44Z</time></trkpt><trkpt lat="44.50672173537934" lon="9.991249578420963"><ele>843.0</ele><time>2026-03-29T09:19:45Z</time></trkpt><trkpt lat="44.506804398635" lon="9.991351230358907"><ele>843.0</ele><time>2026-03-29T09:19:46Z</time></trkpt><trkpt lat="44.50688606068376" lon="9.99145007802476"><ele>843.0</ele><time>2026-03-29T09:19:47Z</time></trkpt><trkpt lat="44.5069654832027" lon="9.991536642980105"><ele>843.0</ele><time>2026-03-29T09:19:48Z</time></trkpt><trkpt lat="44.50702890855323" lon="9.991644693076903"><ele>843.0</ele><time>2026-03-29T09:19:49Z</time></trkpt><trkpt lat="44.50710428828806" lon="9.9917405493696"><ele>843.0</ele><time>2026-03-29T09:19:50Z</time></trkpt><trkpt lat="44.507249649987436" lon="9.99172579940856"><ele>843.0</ele><time>2026-03-29T09:19:51Z</time></trkpt><trkpt lat="44.50735417934857" lon="9.991789085142164"><ele>843.0</ele><time>2026-03-29T09:19:52Z</time></trkpt><trkpt lat="44.50746102512733" lon="9.991865049773505"><ele>843.0</ele><time>2026-03-29T09:19:53Z</time></trkpt><trkpt lat="44.50756524868886" lon="9.991938644059871"><ele>843.0</ele><time>2026-03-29T09:19:54Z</time></trkpt><trkpt lat="44.50767836535133" lon="9.991996902764612"><ele>843.0</ele><time>2026-03-29T09:19:55Z</time></trkpt><trkpt lat="44.507794760680966" lon="9.992049362036767"><ele>843.0</ele><time>2026-03-29T09:19:56Z</time></trkpt><trkpt lat="44.50790115929252" lon="9.992096859513714"><ele>843.0</ele><time>2026-03-29T09:19:57Z</time></trkpt><trkpt lat="44.50801509891397" lon="9.992095899324477"><ele>843.0</ele><time>2026-03-29T09:19:58Z</time></trkpt><trkpt lat="44.50814178030615" lon="9.992107642709005"><ele>843.0</ele><time>2026-03-29T09:19:59Z</time></trkpt><trkpt lat="44.50825810044832" lon="9.992111899908865"><ele>842.25</ele><time>2026-03-29T09:20:00Z</time></trkpt><trkpt lat="44.508376357804885" lon="9.992113918544662"><ele>841.5</ele><time>2026-03-29T09:20:01Z</time></trkpt><trkpt lat="44.50849463758167" lon="9.992097774195656"><ele>840.75</ele><time>2026-03-29T09:20:02Z</time></trkpt><trkpt lat="44.50861556273976" lon="9.992083298351385"><ele>840.0</ele><time>2026-03-29T09:20:03Z</time></trkpt><trkpt lat="44.50873301431526" lon="9.992080459492332"><ele>839.2</ele><time>2026-03-29T09:20:04Z</time></trkpt><trkpt lat="44.5088491151605" lon="9.992070576289048"><ele>838.4</ele><time>2026-03-29T09:20:05Z</time></trkpt><trkpt lat="44.50896962456816" lon="9.992064567038263"><ele>837.5999999999999</ele><time>2026-03-29T09:20:06Z</time></trkpt><trkpt lat="44.50906943321829" lon="9.992065172347807"><ele>836.8</ele><time>2026-03-29T09:20:07Z</time></trkpt><trkpt lat="44.50917344042027" lon="9.992118013942697"><ele>836.0</ele><time>2026-03-29T09:20:08Z</time></trkpt><trkpt lat="44.50926608516003" lon="9.992198375340864"><ele>836.0</ele><time>2026-03-29T09:20:09Z</time></trkpt><trkpt lat="44.50933815952264" lon="9.992316040946166"><ele>836.0</ele><time>2026-03-29T09:20:10Z</time></trkpt><trkpt lat="44.5094167839408" lon="9.992424863415852"><ele>836.0</ele><time>2026-03-29T09:20:11Z</time></trkpt><trkpt lat="44.5095061271088" lon="9.99251832478186"><ele>836.0</ele><time>2026-03-29T09:20:12Z</time></trkpt><trkpt lat="44.50959757912239" lon="9.992567734381222"><ele>836.0</ele><time>2026-03-29T09:20:13Z</time></trkpt><trkpt lat="44.50971578220155" lon="9.99256996249632"><ele>836.5</ele><time>2026-03-29T09:20:14Z</time></trkpt><trkpt lat="44.50984404292645" lon="9.99255205269874"><ele>837.0</ele><time>2026-03-29T09:20:15Z</time></trkpt><trkpt lat="44.50995801062509" lon="9.992530984741673"><ele>837.5</ele><time>2026-03-29T09:20:16Z</time></trkpt><trkpt lat="44.51006586465025" lon="9.9925220257262"><ele>838.0</ele><time>2026-03-29T09:20:17Z</time></trkpt><trkpt lat="44.5101745355113" lon="9.992533876103636"><ele>837.9999999999999</ele><time>2026-03-29T09:20:18Z</time></trkpt><trkpt lat="44.51026841602415" lon="9.99252774700396"><ele>838.0</ele><time>2026-03-29T09:20:19Z</time></trkpt><trkpt lat="44.51035779863615" lon="9.992516204783865"><ele>838.0</ele><time>2026-03-29T09:20:20Z</time></trkpt><trkpt lat="44.51044182271228" lon="9.992514258430225"><ele>838.0</ele><time>2026-03-29T09:20:21Z</time></trkpt><trkpt lat="44.51052268622791" lon="9.992527499837918"><ele>837.9999999999999</ele><time>2026-03-29T09:20:22Z</time></trkpt><trkpt lat="44.510588036601604" lon="9.992493639691231"><ele>838.0</ele><time>2026-03-29T09:20:23Z</time></trkpt><trkpt lat="44.51065029211952" lon="9.992433574580824"><ele>835.9999999999999</ele><time>2026-03-29T09:20:24Z</time></trkpt><trkpt lat="44.510686364826505" lon="9.992336435118416"><ele>834.0</ele><time>2026-03-29T09:20:25Z</time></trkpt><trkpt lat="44.51072695607457" lon="9.992260561216565"><ele>832.0</ele><time>2026-03-29T09:20:26Z</time></trkpt><trkpt lat="44.51075544818795" lon="9.992150943790962"><ele>830.0</ele><time>2026-03-29T09:20:27Z</time></trkpt><trkpt lat="44.51075322812502" lon="9.992031864564305"><ele>827.9999999999999</ele><time>2026-03-29T09:20:28Z</time></trkpt><trkpt lat="44.51073666107668" lon="9.991915118708574"><ele>826.0</ele><time>2026-03-29T09:20:29Z</time></trkpt><trkpt lat="44.51072577382672" lon="9.991808239213547"><ele>825.9999999999999</ele><time>2026-03-29T09:20:30Z</time></trkpt><trkpt lat="44.510717397005976" lon="9.991704843786662"><ele>826.0</ele><time>2026-03-29T09:20:31Z</time></trkpt><trkpt lat="44.51071686352079" lon="9.991612721550194"><ele>826.0</ele><time>2026-03-29T09:20:32Z</time></trkpt><trkpt lat="44.51070510521927" lon="9.991495183481533"><ele>826.0</ele><time>2026-03-29T09:20:33.999Z</time></trkpt><trkpt lat="44.51070230904563" lon="9.991398827252244"><ele>825.9999999999999</ele><time>2026-03-29T09:20:36.999Z</time></trkpt><trkpt lat="44.51067571640292" lon="9.991307601140212"><ele>826.0</ele><time>2026-03-29T09:20:40.999Z</time></trkpt><trkpt lat="44.51058146752338" lon="9.991339768915353"><ele>824.2857142857143</ele><time>2026-03-29T09:20:42.999Z</time></trkpt><trkpt lat="44.510677773671986" lon="9.991372279473046"><ele>822.5714285714286</ele><time>2026-03-29T09:20:44.999Z</time></trkpt><trkpt lat="44.51070255106329" lon="9.991466492360644"><ele>820.8571428571429</ele><time>2026-03-29T09:21:07Z</time></trkpt><trkpt lat="44.51069006526498" lon="9.991373111412127"><ele>819.1428571428571</ele><time>2026-03-29T09:22:10Z</time></trkpt><trkpt lat="44.51067984218471" lon="9.991277324388825"><ele>817.4285714285714</ele><time>2026-03-29T09:22:16Z</time></trkpt><trkpt lat="44.510670683068014" lon="9.991182646431778"><ele>815.7142857142858</ele><time>2026-03-29T09:22:22Z</time></trkpt><trkpt lat="44.51072446614078" lon="9.991129606156184"><ele>814.0</ele><time>2026-03-29T09:22:34Z</time></trkpt><trkpt lat="44.51065229721814" lon="9.991167476410036"><ele>814.0</ele><time>2026-03-29T09:22:40Z</time></trkpt><trkpt lat="44.510594839271896" lon="9.99112447724677"><ele>814.0</ele><time>2026-03-29T09:22:45.999Z</time></trkpt><trkpt lat="44.51016355625658" lon="9.991156154546005"><ele>814.0</ele><time>2026-03-29T09:22:58.621Z</time></trkpt><trkpt lat="44.510578112006044" lon="9.991361498541668"><ele>814.0</ele><time>2026-03-29T09:23:58.013Z</time></trkpt><trkpt lat="44.5103789620759" lon="9.991272181668295"><ele>814.0</ele><time>2026-03-29T09:24:15.132Z</time></trkpt><trkpt lat="44.510507796786584" lon="9.991287640149006"><ele>814.0</ele><time>2026-03-29T09:24:25.012Z</time></trkpt><trkpt lat="44.51052494349141" lon="9.991135314858395"><ele>814.0</ele><time>2026-03-29T09:24:39Z</time></trkpt><trkpt lat="44.51060258529564" lon="9.991171479540002"><ele>814.0</ele><time>2026-03-29T09:24:44Z</time></trkpt><trkpt lat="44.510684068911154" lon="9.991218817768695"><ele>814.0</ele><time>2026-03-29T09:25:03Z</time></trkpt><trkpt lat="44.510637159064956" lon="9.991292712524233"><ele>813.9999999999999</ele><time>2026-03-29T09:27:38Z</time></trkpt><trkpt lat="44.51062174710823" lon="9.991381115888045"><ele>814.0</ele><time>2026-03-29T09:27:46Z</time></trkpt><trkpt lat="44.510633951679765" lon="9.991475358245696"><ele>814.0</ele><time>2026-03-29T09:27:54Z</time></trkpt><trkpt lat="44.51070117402995" lon="9.991567093056991"><ele>814.0</ele><time>2026-03-29T09:30:56Z</time></trkpt><trkpt lat="44.510713980711806" lon="9.991664408708354"><ele>813.9999999999999</ele><time>2026-03-29T09:30:57Z</time></trkpt><trkpt lat="44.510722342289476" lon="9.991803863445154"><ele>814.0</ele><time>2026-03-29T09:30:58Z</time></trkpt><trkpt lat="44.51073576521774" lon="9.991936521716452"><ele>816.4000000000001</ele><time>2026-03-29T09:30:59Z</time></trkpt><trkpt lat="44.510743488759985" lon="9.99206021541579"><ele>818.8</ele><time>2026-03-29T09:31:00Z</time></trkpt><trkpt lat="44.510736170773235" lon="9.992176601332284"><ele>821.2</ele><time>2026-03-29T09:31:01Z</time></trkpt><trkpt lat="44.51069855343842" lon="9.992293906261692"><ele>823.5999999999999</ele><time>2026-03-29T09:31:02Z</time></trkpt><trkpt lat="44.51064668816629" lon="9.992405494376833"><ele>826.0</ele><time>2026-03-29T09:31:03Z</time></trkpt><trkpt lat="44.51054820162808" lon="9.992459984947747"><ele>826.0</ele><time>2026-03-29T09:31:04Z</time></trkpt><trkpt lat="44.510441223162765" lon="9.992490559325026"><ele>826.0</ele><time>2026-03-29T09:31:05Z</time></trkpt><trkpt lat="44.51031362450514" lon="9.99248297895412"><ele>826.0</ele><time>2026-03-29T09:31:06Z</time></trkpt><trkpt lat="44.51017962786568" lon="9.99249533619433"><ele>826.0</ele><time>2026-03-29T09:31:07Z</time></trkpt><trkpt lat="44.51004204583692" lon="9.992500645850212"><ele>828.5</ele><time>2026-03-29T09:31:08Z</time></trkpt><trkpt lat="44.50990878011245" lon="9.992515071545535"><ele>831.0</ele><time>2026-03-29T09:31:09Z</time></trkpt><trkpt lat="44.5097927809569" lon="9.992523868408865"><ele>833.5</ele><time>2026-03-29T09:31:10Z</time></trkpt><trkpt lat="44.509680944766664" lon="9.99252915321042"><ele>836.0</ele><time>2026-03-29T09:31:11Z</time></trkpt><trkpt lat="44.50956867766003" lon="9.992496415029038"><ele>836.0</ele><time>2026-03-29T09:31:12Z</time></trkpt><trkpt lat="44.50946914755647" lon="9.992430956057053"><ele>836.0</ele><time>2026-03-29T09:31:13Z</time></trkpt><trkpt lat="44.50936533396423" lon="9.992305596574818"><ele>836.0</ele><time>2026-03-29T09:31:14Z</time></trkpt><trkpt lat="44.509272848433426" lon="9.992163867390607"><ele>836.0</ele><time>2026-03-29T09:31:15Z</time></trkpt><trkpt lat="44.509173656413935" lon="9.992054202152651"><ele>836.0</ele><time>2026-03-29T09:31:16Z</time></trkpt><trkpt lat="44.509058788874036" lon="9.9919917674092"><ele>836.0</ele><time>2026-03-29T09:31:17Z</time></trkpt><trkpt lat="44.50891956097125" lon="9.991999062146839"><ele>836.0</ele><time>2026-03-29T09:31:18Z</time></trkpt><trkpt lat="44.50874319199915" lon="9.992035297178148"><ele>836.0</ele><time>2026-03-29T09:31:19Z</time></trkpt><trkpt lat="44.50856767301416" lon="9.992057539209064"><ele>837.3333333333334</ele><time>2026-03-29T09:31:20Z</time></trkpt><trkpt lat="44.508400737852476" lon="9.992068881315497"><ele>838.6666666666667</ele><time>2026-03-29T09:31:21Z</time></trkpt><trkpt lat="44.50822953716377" lon="9.992074868018992"><ele>840.0</ele><time>2026-03-29T09:31:22Z</time></trkpt><trkpt lat="44.50805871537312" lon="9.992070965794532"><ele>841.0</ele><time>2026-03-29T09:31:23Z</time></trkpt><trkpt lat="44.50790882305194" lon="9.992044180979128"><ele>842.0</ele><time>2026-03-29T09:31:24Z</time></trkpt><trkpt lat="44.50776361133466" lon="9.992007410827444"><ele>843.0</ele><time>2026-03-29T09:31:25Z</time></trkpt><trkpt lat="44.50761000824224" lon="9.991924489872533"><ele>843.0</ele><time>2026-03-29T09:31:26Z</time></trkpt><trkpt lat="44.50747279553287" lon="9.991841517967195"><ele>843.0</ele><time>2026-03-29T09:31:27Z</time></trkpt><trkpt lat="44.507377635219065" lon="9.99176609045438"><ele>843.0</ele><time>2026-03-29T09:31:28Z</time></trkpt><trkpt lat="44.5072930487541" lon="9.991704160098745"><ele>843.0</ele><time>2026-03-29T09:31:29Z</time></trkpt><trkpt lat="44.50722900947569" lon="9.99165485442351"><ele>843.0</ele><time>2026-03-29T09:31:30Z</time></trkpt><trkpt lat="44.50714375332988" lon="9.991597946107882"><ele>843.0</ele><time>2026-03-29T09:31:32Z</time></trkpt><trkpt lat="44.50707373966442" lon="9.991612829450201"><ele>843.0</ele><time>2026-03-29T09:31:35Z</time></trkpt><trkpt lat="44.50719182469448" lon="9.991864654585891"><ele>843.0</ele><time>2026-03-29T09:31:38Z</time></trkpt><trkpt lat="44.507307431887625" lon="9.991971302473686"><ele>843.0</ele><time>2026-03-29T09:31:39Z</time></trkpt><trkpt lat="44.507431810062435" lon="9.99209818354479"><ele>843.0</ele><time>2026-03-29T09:31:40Z</time></trkpt><trkpt lat="44.5075665465615" lon="9.992234498692902"><ele>843.0</ele><time>2026-03-29T09:31:41Z</time></trkpt><trkpt lat="44.50770240812587" lon="9.992367207786563"><ele>843.0</ele><time>2026-03-29T09:31:42Z</time></trkpt><trkpt lat="44.5078280289955" lon="9.992505424553327"><ele>843.6666666666667</ele><time>2026-03-29T09:31:43Z</time></trkpt><trkpt lat="44.50795371932386" lon="9.992631064738"><ele>844.3333333333334</ele><time>2026-03-29T09:31:44Z</time></trkpt><trkpt lat="44.508069076910935" lon="9.992789552989198"><ele>845.0</ele><time>2026-03-29T09:31:45Z</time></trkpt><trkpt lat="44.50814106688046" lon="9.992994827220015"><ele>845.0</ele><time>2026-03-29T09:31:46Z</time></trkpt><trkpt lat="44.50820858657528" lon="9.993222953285786"><ele>845.0</ele><time>2026-03-29T09:31:47Z</time></trkpt><trkpt lat="44.50828138304539" lon="9.993450671944387"><ele>845.0</ele><time>2026-03-29T09:31:48Z</time></trkpt><trkpt lat="44.508354842167584" lon="9.993700127704985"><ele>841.3333333333334</ele><time>2026-03-29T09:31:49Z</time></trkpt><trkpt lat="44.508430284150364" lon="9.993950476501526"><ele>837.6666666666667</ele><time>2026-03-29T09:31:50Z</time></trkpt><trkpt lat="44.50850944215051" lon="9.994190098210577"><ele>834.0</ele><time>2026-03-29T09:31:51Z</time></trkpt><trkpt lat="44.50860257892732" lon="9.99437037725901"><ele>835.25</ele><time>2026-03-29T09:31:52Z</time></trkpt><trkpt lat="44.508712351134925" lon="9.99452302699973"><ele>836.5</ele><time>2026-03-29T09:31:53Z</time></trkpt><trkpt lat="44.508818294367565" lon="9.994632055224328"><ele>837.75</ele><time>2026-03-29T09:31:54Z</time></trkpt><trkpt lat="44.508927799313724" lon="9.994687891792616"><ele>839.0</ele><time>2026-03-29T09:31:55Z</time></trkpt><trkpt lat="44.50903611780036" lon="9.99471222318242"><ele>839.0</ele><time>2026-03-29T09:31:56Z</time></trkpt><trkpt lat="44.509131938122586" lon="9.994713434735043"><ele>839.0</ele><time>2026-03-29T09:31:57Z</time></trkpt><trkpt lat="44.50922947519144" lon="9.994717048350358"><ele>839.0</ele><time>2026-03-29T09:31:58Z</time></trkpt><trkpt lat="44.50935031684102" lon="9.994739850656813"><ele>839.0</ele><time>2026-03-29T09:31:59Z</time></trkpt><trkpt lat="44.50948429704348" lon="9.994765307183904"><ele>843.0</ele><time>2026-03-29T09:32:00Z</time></trkpt><trkpt lat="44.509616992557255" lon="9.994833010560543"><ele>847.0</ele><time>2026-03-29T09:32:01Z</time></trkpt><trkpt lat="44.509705901482675" lon="9.99500055493503"><ele>851.0</ele><time>2026-03-29T09:32:02Z</time></trkpt><trkpt lat="44.50975813917794" lon="9.99521690875783"><ele>851.0</ele><time>2026-03-29T09:32:03Z</time></trkpt><trkpt lat="44.50983184063376" lon="9.995455093409028"><ele>851.0</ele><time>2026-03-29T09:32:04Z</time></trkpt><trkpt lat="44.50989258499748" lon="9.995677519121644"><ele>851.0</ele><time>2026-03-29T09:32:05Z</time></trkpt><trkpt lat="44.50997521095269" lon="9.995836494350543"><ele>846.6666666666667</ele><time>2026-03-29T09:32:06Z</time></trkpt><trkpt lat="44.51012052439948" lon="9.995946733857954"><ele>842.3333333333333</ele><time>2026-03-29T09:32:07Z</time></trkpt><trkpt lat="44.51028346067358" lon="9.99603247912178"><ele>838.0</ele><time>2026-03-29T09:32:08Z</time></trkpt><trkpt lat="44.5104051183396" lon="9.996193842271271"><ele>848.5</ele><time>2026-03-29T09:32:09Z</time></trkpt><trkpt lat="44.51054441821317" lon="9.996440552738678"><ele>859.0</ele><time>2026-03-29T09:32:10Z</time></trkpt><trkpt lat="44.510701081893245" lon="9.99668257970614"><ele>859.0</ele><time>2026-03-29T09:32:11Z</time></trkpt><trkpt lat="44.51078480814938" lon="9.996919949273668"><ele>859.0</ele><time>2026-03-29T09:32:12Z</time></trkpt><trkpt lat="44.510829413396685" lon="9.997133873122358"><ele>859.0</ele><time>2026-03-29T09:32:13Z</time></trkpt><trkpt lat="44.510885425122126" lon="9.997334795681075"><ele>855.0</ele><time>2026-03-29T09:32:14Z</time></trkpt><trkpt lat="44.51094337896011" lon="9.997556618165394"><ele>851.0</ele><time>2026-03-29T09:32:15Z</time></trkpt><trkpt lat="44.51106141033785" lon="9.997757282869225"><ele>847.0</ele><time>2026-03-29T09:32:16Z</time></trkpt><trkpt lat="44.51122660020968" lon="9.997937133948417"><ele>851.6666666666666</ele><time>2026-03-29T09:32:17Z</time></trkpt><trkpt lat="44.51139764462902" lon="9.99807574437061"><ele>856.3333333333333</ele><time>2026-03-29T09:32:18Z</time></trkpt><trkpt lat="44.51156987845178" lon="9.998128321460463"><ele>861.0</ele><time>2026-03-29T09:32:19Z</time></trkpt><trkpt lat="44.5117542379041" lon="9.998116686658824"><ele>861.0</ele><time>2026-03-29T09:32:20Z</time></trkpt><trkpt lat="44.511941557482714" lon="9.998055820015384"><ele>861.0</ele><time>2026-03-29T09:32:21Z</time></trkpt><trkpt lat="44.51212426040166" lon="9.997935084257978"><ele>861.0</ele><time>2026-03-29T09:32:22Z</time></trkpt><trkpt lat="44.51228231595327" lon="9.99777609519425"><ele>860.6666666666667</ele><time>2026-03-29T09:32:23Z</time></trkpt><trkpt lat="44.512387061595234" lon="9.997585202630045"><ele>860.3333333333334</ele><time>2026-03-29T09:32:24Z</time></trkpt><trkpt lat="44.51249056353961" lon="9.997308868487437"><ele>860.0</ele><time>2026-03-29T09:32:25Z</time></trkpt><trkpt lat="44.512583536177125" lon="9.996995464343394"><ele>862.3333333333334</ele><time>2026-03-29T09:32:26Z</time></trkpt><trkpt lat="44.51271099328262" lon="9.996720690191967"><ele>864.6666666666667</ele><time>2026-03-29T09:32:27Z</time></trkpt><trkpt lat="44.51282216518707" lon="9.996479953646578"><ele>867.0</ele><time>2026-03-29T09:32:28Z</time></trkpt><trkpt lat="44.512953213769556" lon="9.99631765219114"><ele>867.0</ele><time>2026-03-29T09:32:29Z</time></trkpt><trkpt lat="44.513125904118986" lon="9.9962249904498"><ele>867.0</ele><time>2026-03-29T09:32:30Z</time></trkpt><trkpt lat="44.5133559304064" lon="9.996128147036133"><ele>867.0</ele><time>2026-03-29T09:32:31Z</time></trkpt><trkpt lat="44.51359460943442" lon="9.996016739859247"><ele>866.0</ele><time>2026-03-29T09:32:32Z</time></trkpt><trkpt lat="44.51380254894896" lon="9.99592264839148"><ele>865.0</ele><time>2026-03-29T09:32:33Z</time></trkpt><trkpt lat="44.51395640487207" lon="9.995882422283193"><ele>864.0</ele><time>2026-03-29T09:32:34Z</time></trkpt><trkpt lat="44.5141436262066" lon="9.995848359999522"><ele>864.0</ele><time>2026-03-29T09:32:35Z</time></trkpt><trkpt lat="44.51448028910358" lon="9.995889709979293"><ele>864.0</ele><time>2026-03-29T09:32:36Z</time></trkpt><trkpt lat="44.5147552144983" lon="9.995929070339962"><ele>865.0</ele><time>2026-03-29T09:32:37Z</time></trkpt><trkpt lat="44.51499933825954" lon="9.99597164670594"><ele>866.0</ele><time>2026-03-29T09:32:38Z</time></trkpt><trkpt lat="44.515251738197954" lon="9.995999818618237"><ele>869.0</ele><time>2026-03-29T09:32:39Z</time></trkpt><trkpt lat="44.515511005485976" lon="9.996025726445803"><ele>872.0</ele><time>2026-03-29T09:32:40Z</time></trkpt><trkpt lat="44.51575800644658" lon="9.996052456780513"><ele>872.0</ele><time>2026-03-29T09:32:41Z</time></trkpt><trkpt lat="44.516006116654914" lon="9.996076850746578"><ele>872.0</ele><time>2026-03-29T09:32:42Z</time></trkpt><trkpt lat="44.5162518738963" lon="9.99609619600868"><ele>873.3333333333334</ele><time>2026-03-29T09:32:43Z</time></trkpt><trkpt lat="44.51647267315525" lon="9.996113667836662"><ele>874.6666666666667</ele><time>2026-03-29T09:32:44Z</time></trkpt><trkpt lat="44.51666819231552" lon="9.996145090218151"><ele>876.0</ele><time>2026-03-29T09:32:45Z</time></trkpt><trkpt lat="44.51683185995326" lon="9.9961620426857"><ele>876.0</ele><time>2026-03-29T09:32:46Z</time></trkpt><trkpt lat="44.51696464393732" lon="9.996135387769252"><ele>876.0</ele><time>2026-03-29T09:32:47Z</time></trkpt><trkpt lat="44.51708677983689" lon="9.996045734042665"><ele>876.0</ele><time>2026-03-29T09:32:48Z</time></trkpt><trkpt lat="44.517168621319335" lon="9.995864781927713"><ele>876.0</ele><time>2026-03-29T09:32:49Z</time></trkpt><trkpt lat="44.5172321788541" lon="9.995636420187076"><ele>876.3333333333333</ele><time>2026-03-29T09:32:50Z</time></trkpt><trkpt lat="44.517312496855936" lon="9.995377422865579"><ele>876.6666666666666</ele><time>2026-03-29T09:32:51Z</time></trkpt><trkpt lat="44.51746643799114" lon="9.995158804243841"><ele>877.0</ele><time>2026-03-29T09:32:52Z</time></trkpt><trkpt lat="44.517644950475976" lon="9.994937321626036"><ele>878.5</ele><time>2026-03-29T09:32:53Z</time></trkpt><trkpt lat="44.5178443342623" lon="9.994712768057894"><ele>880.0</ele><time>2026-03-29T09:32:54Z</time></trkpt><trkpt lat="44.518041109181354" lon="9.994464243346748"><ele>880.0</ele><time>2026-03-29T09:32:55Z</time></trkpt><trkpt lat="44.51822689957858" lon="9.994255880626348"><ele>880.0</ele><time>2026-03-29T09:32:56Z</time></trkpt><trkpt lat="44.51838733782201" lon="9.994083255949215"><ele>880.0</ele><time>2026-03-29T09:32:57Z</time></trkpt><trkpt lat="44.51854242437031" lon="9.993968966726353"><ele>882.3333333333333</ele><time>2026-03-29T09:32:58Z</time></trkpt><trkpt lat="44.51870251961227" lon="9.993904260310192"><ele>884.6666666666667</ele><time>2026-03-29T09:32:59Z</time></trkpt><trkpt lat="44.51889804475219" lon="9.993910802776083"><ele>887.0</ele><time>2026-03-29T09:33:00Z</time></trkpt><trkpt lat="44.519133996525326" lon="9.993913651494704"><ele>888.0</ele><time>2026-03-29T09:33:01Z</time></trkpt><trkpt lat="44.51936313285607" lon="9.993968486209207"><ele>889.0</ele><time>2026-03-29T09:33:02Z</time></trkpt><trkpt lat="44.51959863678551" lon="9.994030865730059"><ele>889.5</ele><time>2026-03-29T09:33:03Z</time></trkpt><trkpt lat="44.51984832267397" lon="9.99408795028365"><ele>890.0</ele><time>2026-03-29T09:33:04Z</time></trkpt><trkpt lat="44.52010999761911" lon="9.99409423937625"><ele>890.0</ele><time>2026-03-29T09:33:05Z</time></trkpt><trkpt lat="44.520379577548496" lon="9.994084012470715"><ele>890.0</ele><time>2026-03-29T09:33:06Z</time></trkpt><trkpt lat="44.52062122502432" lon="9.994079211951117"><ele>890.3333333333334</ele><time>2026-03-29T09:33:07Z</time></trkpt><trkpt lat="44.5208170876902" lon="9.99413915650138"><ele>890.6666666666667</ele><time>2026-03-29T09:33:08Z</time></trkpt><trkpt lat="44.520990587894914" lon="9.994248317095384"><ele>891.0</ele><time>2026-03-29T09:33:09Z</time></trkpt><trkpt lat="44.52115836897332" lon="9.994433428275325"><ele>897.5</ele><time>2026-03-29T09:33:10Z</time></trkpt><trkpt lat="44.52135740866092" lon="9.99460841635204"><ele>904.0</ele><time>2026-03-29T09:33:11Z</time></trkpt><trkpt lat="44.52155227220086" lon="9.994788567100803"><ele>904.0</ele><time>2026-03-29T09:33:12Z</time></trkpt><trkpt lat="44.52175348586123" lon="9.994970791633817"><ele>904.0</ele><time>2026-03-29T09:33:13Z</time></trkpt><trkpt lat="44.521930568666065" lon="9.995175674641217"><ele>903.3333333333333</ele><time>2026-03-29T09:33:14Z</time></trkpt><trkpt lat="44.52205920014209" lon="9.995397103660196"><ele>902.6666666666667</ele><time>2026-03-29T09:33:15Z</time></trkpt><trkpt lat="44.522164777369206" lon="9.995584680105706"><ele>902.0</ele><time>2026-03-29T09:33:16Z</time></trkpt><trkpt lat="44.52229269347106" lon="9.995707583663963"><ele>906.0</ele><time>2026-03-29T09:33:17Z</time></trkpt><trkpt lat="44.5224721540877" lon="9.995789411623896"><ele>910.0</ele><time>2026-03-29T09:33:18Z</time></trkpt><trkpt lat="44.52268001058592" lon="9.995798194200479"><ele>914.0</ele><time>2026-03-29T09:33:19Z</time></trkpt><trkpt lat="44.52291070143615" lon="9.995749827097473"><ele>916.5</ele><time>2026-03-29T09:33:20Z</time></trkpt><trkpt lat="44.523133719403404" lon="9.995721297962545"><ele>919.0</ele><time>2026-03-29T09:33:21Z</time></trkpt><trkpt lat="44.52336568041466" lon="9.995722373067377"><ele>919.0</ele><time>2026-03-29T09:33:22Z</time></trkpt><trkpt lat="44.5236038281293" lon="9.995725046711447"><ele>919.0</ele><time>2026-03-29T09:33:23Z</time></trkpt><trkpt lat="44.52382585157695" lon="9.995719243144892"><ele>918.3333333333333</ele><time>2026-03-29T09:33:24Z</time></trkpt><trkpt lat="44.52402247785825" lon="9.995713979374399"><ele>917.6666666666667</ele><time>2026-03-29T09:33:25Z</time></trkpt><trkpt lat="44.52418850356218" lon="9.99571301237894"><ele>917.0</ele><time>2026-03-29T09:33:26Z</time></trkpt><trkpt lat="44.52431386620105" lon="9.995684019410207"><ele>917.0</ele><time>2026-03-29T09:33:27Z</time></trkpt><trkpt lat="44.52443909412849" lon="9.99558902533903"><ele>917.0</ele><time>2026-03-29T09:33:28Z</time></trkpt><trkpt lat="44.52455686209573" lon="9.995391841081457"><ele>917.0</ele><time>2026-03-29T09:33:29Z</time></trkpt><trkpt lat="44.52464122412008" lon="9.995147910543375"><ele>919.3333333333334</ele><time>2026-03-29T09:33:30Z</time></trkpt><trkpt lat="44.524736868097705" lon="9.99497517373606"><ele>921.6666666666667</ele><time>2026-03-29T09:33:31Z</time></trkpt><trkpt lat="44.52488084566094" lon="9.994890079010624"><ele>924.0</ele><time>2026-03-29T09:33:32Z</time></trkpt><trkpt lat="44.52505849155705" lon="9.99487775489643"><ele>924.0</ele><time>2026-03-29T09:33:33Z</time></trkpt><trkpt lat="44.52527728161965" lon="9.994866659672683"><ele>924.0</ele><time>2026-03-29T09:33:34Z</time></trkpt><trkpt lat="44.525513281371474" lon="9.994855391854365"><ele>922.6666666666667</ele><time>2026-03-29T09:33:35Z</time></trkpt><trkpt lat="44.525716928054045" lon="9.994847668704992"><ele>921.3333333333334</ele><time>2026-03-29T09:33:36Z</time></trkpt><trkpt lat="44.5259152522823" lon="9.994783429209978"><ele>920.0</ele><time>2026-03-29T09:33:37Z</time></trkpt><trkpt lat="44.52610991071896" lon="9.994648572873748"><ele>919.3333333333334</ele><time>2026-03-29T09:33:38Z</time></trkpt><trkpt lat="44.526297732613756" lon="9.994471017171692"><ele>918.6666666666667</ele><time>2026-03-29T09:33:39Z</time></trkpt><trkpt lat="44.52646434775547" lon="9.9943565246077"><ele>918.0</ele><time>2026-03-29T09:33:40Z</time></trkpt><trkpt lat="44.5266031779476" lon="9.994306526172545"><ele>918.0</ele><time>2026-03-29T09:33:41Z</time></trkpt><trkpt lat="44.52673197484" lon="9.994317657277396"><ele>918.0</ele><time>2026-03-29T09:33:42Z</time></trkpt><trkpt lat="44.52686517836178" lon="9.994407782885993"><ele>918.0</ele><time>2026-03-29T09:33:43Z</time></trkpt><trkpt lat="44.526964247433945" lon="9.994565120288991"><ele>918.0</ele><time>2026-03-29T09:33:44Z</time></trkpt><trkpt lat="44.5270703666173" lon="9.994757556523988"><ele>916.3333333333333</ele><time>2026-03-29T09:33:45Z</time></trkpt><trkpt lat="44.52718579060468" lon="9.994935765643191"><ele>914.6666666666666</ele><time>2026-03-29T09:33:46Z</time></trkpt><trkpt lat="44.52731324275704" lon="9.995078125966856"><ele>913.0</ele><time>2026-03-29T09:33:47Z</time></trkpt><trkpt lat="44.52749726877322" lon="9.995154702195132"><ele>913.0</ele><time>2026-03-29T09:33:48Z</time></trkpt><trkpt lat="44.52769816100753" lon="9.995210091111055"><ele>913.0</ele><time>2026-03-29T09:33:49Z</time></trkpt><trkpt lat="44.527895005336255" lon="9.995246510555411"><ele>913.0</ele><time>2026-03-29T09:33:50Z</time></trkpt><trkpt lat="44.52807972446469" lon="9.995353456654094"><ele>914.0</ele><time>2026-03-29T09:33:51Z</time></trkpt><trkpt lat="44.52826363740502" lon="9.995513442447905"><ele>915.0</ele><time>2026-03-29T09:33:52Z</time></trkpt><trkpt lat="44.52842365401207" lon="9.995709757817574"><ele>916.0</ele><time>2026-03-29T09:33:53Z</time></trkpt><trkpt lat="44.528554100758605" lon="9.99585600196183"><ele>916.0</ele><time>2026-03-29T09:33:54Z</time></trkpt><trkpt lat="44.52864210135043" lon="9.995968208739034"><ele>916.0</ele><time>2026-03-29T09:33:55Z</time></trkpt><trkpt lat="44.52876126106882" lon="9.996022825871986"><ele>916.0</ele><time>2026-03-29T09:33:56Z</time></trkpt><trkpt lat="44.528930409956146" lon="9.99598019319977"><ele>916.0</ele><time>2026-03-29T09:33:57Z</time></trkpt><trkpt lat="44.52910333966253" lon="9.99587416389047"><ele>923.0</ele><time>2026-03-29T09:33:58Z</time></trkpt><trkpt lat="44.52926936171158" lon="9.995721267135972"><ele>930.0</ele><time>2026-03-29T09:33:59Z</time></trkpt><trkpt lat="44.5294312376211" lon="9.99572669934563"><ele>937.0</ele><time>2026-03-29T09:34:00Z</time></trkpt><trkpt lat="44.529576391135855" lon="9.995830918839287"><ele>935.0</ele><time>2026-03-29T09:34:01Z</time></trkpt><trkpt lat="44.52974659870599" lon="9.995975663539705"><ele>933.0</ele><time>2026-03-29T09:34:02Z</time></trkpt><trkpt lat="44.5299301364451" lon="9.996111232154218"><ele>931.0</ele><time>2026-03-29T09:34:03Z</time></trkpt><trkpt lat="44.53009541397185" lon="9.996262655581768"><ele>931.0</ele><time>2026-03-29T09:34:04Z</time></trkpt><trkpt lat="44.53025979189455" lon="9.996408105274341"><ele>931.0</ele><time>2026-03-29T09:34:05Z</time></trkpt><trkpt lat="44.53043405218056" lon="9.996555788730586"><ele>931.0</ele><time>2026-03-29T09:34:06Z</time></trkpt><trkpt lat="44.530607956129565" lon="9.99670124298705"><ele>929.0</ele><time>2026-03-29T09:34:07Z</time></trkpt><trkpt lat="44.530781928829015" lon="9.996836957220605"><ele>927.0</ele><time>2026-03-29T09:34:08Z</time></trkpt><trkpt lat="44.53094667958768" lon="9.996917602602913"><ele>925.0</ele><time>2026-03-29T09:34:09Z</time></trkpt><trkpt lat="44.53111615858733" lon="9.996972809386108"><ele>929.0</ele><time>2026-03-29T09:34:10Z</time></trkpt><trkpt lat="44.53127967667467" lon="9.996834120382884"><ele>933.0</ele><time>2026-03-29T09:34:11Z</time></trkpt><trkpt lat="44.53139967812154" lon="9.996838150718913"><ele>937.0</ele><time>2026-03-29T09:34:12Z</time></trkpt><trkpt lat="44.531498508360684" lon="9.996935659159062"><ele>941.0</ele><time>2026-03-29T09:34:13Z</time></trkpt><trkpt lat="44.53156645381962" lon="9.997113198776251"><ele>941.0</ele><time>2026-03-29T09:34:14Z</time></trkpt><trkpt lat="44.531591744410484" lon="9.997352459413674"><ele>941.0</ele><time>2026-03-29T09:34:15Z</time></trkpt><trkpt lat="44.53160520193918" lon="9.997626170778199"><ele>941.0</ele><time>2026-03-29T09:34:16Z</time></trkpt><trkpt lat="44.53165071667383" lon="9.997858603052766"><ele>941.0</ele><time>2026-03-29T09:34:17Z</time></trkpt><trkpt lat="44.53173879409322" lon="9.998060478145895"><ele>941.0</ele><time>2026-03-29T09:34:18Z</time></trkpt><trkpt lat="44.531883708499734" lon="9.998210224070364"><ele>941.0</ele><time>2026-03-29T09:34:19Z</time></trkpt><trkpt lat="44.532068062033424" lon="9.998323310208095"><ele>941.0</ele><time>2026-03-29T09:34:20Z</time></trkpt><trkpt lat="44.53217658396371" lon="9.998398613224264"><ele>941.0</ele><time>2026-03-29T09:34:21Z</time></trkpt><trkpt lat="44.532321513164696" lon="9.998343687466864"><ele>941.0</ele><time>2026-03-29T09:34:22Z</time></trkpt><trkpt lat="44.53251536198871" lon="9.998259484752333"><ele>941.0</ele><time>2026-03-29T09:34:23Z</time></trkpt><trkpt lat="44.53267940202792" lon="9.998119219855592"><ele>941.0</ele><time>2026-03-29T09:34:24Z</time></trkpt><trkpt lat="44.53288254583243" lon="9.998058940937547"><ele>941.0</ele><time>2026-03-29T09:34:25Z</time></trkpt><trkpt lat="44.533102811138576" lon="9.998075355239953"><ele>940.5</ele><time>2026-03-29T09:34:26Z</time></trkpt><trkpt lat="44.53334945410273" lon="9.998091349500212"><ele>940.0</ele><time>2026-03-29T09:34:27Z</time></trkpt><trkpt lat="44.533608242660435" lon="9.998102085303035"><ele>940.0</ele><time>2026-03-29T09:34:28Z</time></trkpt><trkpt lat="44.533867199908144" lon="9.998112846139962"><ele>940.0</ele><time>2026-03-29T09:34:29Z</time></trkpt><trkpt lat="44.53411637381427" lon="9.998114534234837"><ele>940.0</ele><time>2026-03-29T09:34:30Z</time></trkpt><trkpt lat="44.53433373644257" lon="9.998121597229265"><ele>940.0</ele><time>2026-03-29T09:34:31Z</time></trkpt><trkpt lat="44.53452862444162" lon="9.998140529866319"><ele>940.0</ele><time>2026-03-29T09:34:32Z</time></trkpt><trkpt lat="44.53470942186654" lon="9.99820026946771"><ele>939.3333333333333</ele><time>2026-03-29T09:34:33Z</time></trkpt><trkpt lat="44.534877415391946" lon="9.9983570156883"><ele>938.6666666666667</ele><time>2026-03-29T09:34:34Z</time></trkpt><trkpt lat="44.535047463651686" lon="9.998542258395943"><ele>938.0</ele><time>2026-03-29T09:34:35Z</time></trkpt><trkpt lat="44.53522021946113" lon="9.998714707765224"><ele>938.0</ele><time>2026-03-29T09:34:36Z</time></trkpt><trkpt lat="44.535349550168995" lon="9.998861678017947"><ele>938.0</ele><time>2026-03-29T09:34:37Z</time></trkpt><trkpt lat="44.53547153126377" lon="9.998943131099862"><ele>938.0</ele><time>2026-03-29T09:34:38Z</time></trkpt><trkpt lat="44.53560100198124" lon="9.998925295967933"><ele>938.0</ele><time>2026-03-29T09:34:39Z</time></trkpt><trkpt lat="44.53574157921241" lon="9.998847237975292"><ele>940.0</ele><time>2026-03-29T09:34:40Z</time></trkpt><trkpt lat="44.53587723465204" lon="9.998662127984513"><ele>942.0</ele><time>2026-03-29T09:34:41Z</time></trkpt><trkpt lat="44.536014877500484" lon="9.998420991739982"><ele>944.0</ele><time>2026-03-29T09:34:42Z</time></trkpt><trkpt lat="44.53618634078911" lon="9.9982058858438"><ele>945.3333333333334</ele><time>2026-03-29T09:34:43Z</time></trkpt><trkpt lat="44.536348037758174" lon="9.998068923572939"><ele>946.6666666666667</ele><time>2026-03-29T09:34:44Z</time></trkpt><trkpt lat="44.536526549008244" lon="9.998050319442944"><ele>948.0</ele><time>2026-03-29T09:34:45Z</time></trkpt><trkpt lat="44.536734977762336" lon="9.998066608499006"><ele>948.0</ele><time>2026-03-29T09:34:46Z</time></trkpt><trkpt lat="44.53693443616116" lon="9.99817697713453"><ele>948.0</ele><time>2026-03-29T09:34:47Z</time></trkpt><trkpt lat="44.53715048535278" lon="9.998352638111028"><ele>948.5</ele><time>2026-03-29T09:34:48Z</time></trkpt><trkpt lat="44.53737644414172" lon="9.998535417605646"><ele>949.0</ele><time>2026-03-29T09:34:49Z</time></trkpt><trkpt lat="44.537559738197885" lon="9.998696652759907"><ele>949.0</ele><time>2026-03-29T09:34:50Z</time></trkpt><trkpt lat="44.53768777308877" lon="9.998894711826644"><ele>949.0</ele><time>2026-03-29T09:34:51Z</time></trkpt><trkpt lat="44.53776563739216" lon="9.999133563290677"><ele>949.0</ele><time>2026-03-29T09:34:52Z</time></trkpt><trkpt lat="44.537865523403255" lon="9.999441455506949"><ele>951.0</ele><time>2026-03-29T09:34:53Z</time></trkpt><trkpt lat="44.53795980321669" lon="9.999739899219431"><ele>953.0</ele><time>2026-03-29T09:34:54Z</time></trkpt><trkpt lat="44.53806011618867" lon="10.000048405908684"><ele>953.0</ele><time>2026-03-29T09:34:55Z</time></trkpt><trkpt lat="44.5381355998436" lon="10.000344945853398"><ele>953.0</ele><time>2026-03-29T09:34:56Z</time></trkpt><trkpt lat="44.53827293793398" lon="10.000677056494427"><ele>954.5</ele><time>2026-03-29T09:34:57Z</time></trkpt><trkpt lat="44.53838218137593" lon="10.000991194010854"><ele>956.0</ele><time>2026-03-29T09:34:58Z</time></trkpt><trkpt lat="44.53848707454992" lon="10.001347334894124"><ele>956.0</ele><time>2026-03-29T09:34:58.999Z</time></trkpt><trkpt lat="44.538564528184004" lon="10.001648417881388"><ele>956.0</ele><time>2026-03-29T09:34:59.999Z</time></trkpt><trkpt lat="44.53856542250642" lon="10.00195515233182"><ele>956.0</ele><time>2026-03-29T09:35:00.999Z</time></trkpt><trkpt lat="44.538484495379926" lon="10.002262114456494"><ele>956.0</ele><time>2026-03-29T09:35:03Z</time></trkpt><trkpt lat="44.53841440800944" lon="10.002565144483881"><ele>956.0</ele><time>2026-03-29T09:35:04Z</time></trkpt><trkpt lat="44.53835037773639" lon="10.00285162722539"><ele>956.0</ele><time>2026-03-29T09:35:05Z</time></trkpt><trkpt lat="44.53831728918945" lon="10.00310904808466"><ele>957.6666666666667</ele><time>2026-03-29T09:35:06Z</time></trkpt><trkpt lat="44.53829791615382" lon="10.003356230827801"><ele>959.3333333333333</ele><time>2026-03-29T09:35:07Z</time></trkpt><trkpt lat="44.538327935573385" lon="10.003639040612459"><ele>961.0</ele><time>2026-03-29T09:35:08Z</time></trkpt><trkpt lat="44.5384121306711" lon="10.003929975238055"><ele>960.3333333333333</ele><time>2026-03-29T09:35:09Z</time></trkpt><trkpt lat="44.538523025400444" lon="10.0041683923541"><ele>959.6666666666667</ele><time>2026-03-29T09:35:10Z</time></trkpt><trkpt lat="44.53865213558373" lon="10.004344644323202"><ele>959.0</ele><time>2026-03-29T09:35:11Z</time></trkpt><trkpt lat="44.5388024665679" lon="10.004467917184819"><ele>961.6666666666667</ele><time>2026-03-29T09:35:12Z</time></trkpt><trkpt lat="44.53899427891571" lon="10.004515845370777"><ele>964.3333333333333</ele><time>2026-03-29T09:35:13Z</time></trkpt><trkpt lat="44.53922482568438" lon="10.004570006692903"><ele>967.0</ele><time>2026-03-29T09:35:14Z</time></trkpt><trkpt lat="44.539494278634464" lon="10.004593464801347"><ele>965.5</ele><time>2026-03-29T09:35:15Z</time></trkpt><trkpt lat="44.53976163622004" lon="10.00464918555319"><ele>964.0</ele><time>2026-03-29T09:35:16Z</time></trkpt><trkpt lat="44.5400070067632" lon="10.00473073063709"><ele>964.0</ele><time>2026-03-29T09:35:17Z</time></trkpt><trkpt lat="44.54022373068744" lon="10.004838191790602"><ele>964.0</ele><time>2026-03-29T09:35:18Z</time></trkpt><trkpt lat="44.54041427479426" lon="10.004913862070339"><ele>964.0</ele><time>2026-03-29T09:35:19Z</time></trkpt><trkpt lat="44.5406023439549" lon="10.004918475745574"><ele>959.6666666666666</ele><time>2026-03-29T09:35:20Z</time></trkpt><trkpt lat="44.54078933933843" lon="10.004848340928449"><ele>955.3333333333333</ele><time>2026-03-29T09:35:21Z</time></trkpt><trkpt lat="44.54099636509215" lon="10.004674251301704"><ele>951.0</ele><time>2026-03-29T09:35:22Z</time></trkpt><trkpt lat="44.54118230776672" lon="10.00453553687568"><ele>946.6666666666667</ele><time>2026-03-29T09:35:23Z</time></trkpt><trkpt lat="44.54137701033444" lon="10.004459365328225"><ele>942.3333333333334</ele><time>2026-03-29T09:35:24Z</time></trkpt><trkpt lat="44.54156914939742" lon="10.004541369786084"><ele>938.0</ele><time>2026-03-29T09:35:25Z</time></trkpt><trkpt lat="44.54174744613051" lon="10.004590420544583"><ele>938.0</ele><time>2026-03-29T09:35:26Z</time></trkpt><trkpt lat="44.54187409138386" lon="10.004596157801924"><ele>938.0</ele><time>2026-03-29T09:35:27Z</time></trkpt><trkpt lat="44.54199057226551" lon="10.004572440915156"><ele>938.0</ele><time>2026-03-29T09:35:28Z</time></trkpt><trkpt lat="44.54210701015247" lon="10.004441894611226"><ele>938.0</ele><time>2026-03-29T09:35:29Z</time></trkpt><trkpt lat="44.542181790548675" lon="10.004247303998381"><ele>936.3333333333334</ele><time>2026-03-29T09:35:30Z</time></trkpt><trkpt lat="44.542181051921126" lon="10.00402748561253"><ele>934.6666666666667</ele><time>2026-03-29T09:35:31Z</time></trkpt><trkpt lat="44.54211261686714" lon="10.003813173175244"><ele>933.0</ele><time>2026-03-29T09:35:32Z</time></trkpt><trkpt lat="44.541973812854735" lon="10.003634417115357"><ele>933.0</ele><time>2026-03-29T09:35:33Z</time></trkpt><trkpt lat="44.54178675934857" lon="10.003464959472238"><ele>933.0</ele><time>2026-03-29T09:35:34Z</time></trkpt><trkpt lat="44.54159348727686" lon="10.003275561508506"><ele>931.0</ele><time>2026-03-29T09:35:35Z</time></trkpt><trkpt lat="44.54141615155664" lon="10.003089915879649"><ele>929.0</ele><time>2026-03-29T09:35:36Z</time></trkpt><trkpt lat="44.54125535141773" lon="10.002943212707223"><ele>927.0</ele><time>2026-03-29T09:35:37Z</time></trkpt><trkpt lat="44.541101611883846" lon="10.002839858895365"><ele>929.2</ele><time>2026-03-29T09:35:38Z</time></trkpt><trkpt lat="44.54100305009379" lon="10.002752490619564"><ele>931.4000000000001</ele><time>2026-03-29T09:35:39Z</time></trkpt><trkpt lat="44.54096355557656" lon="10.002643537699416"><ele>933.5999999999999</ele><time>2026-03-29T09:35:40Z</time></trkpt><trkpt lat="44.5409646380967" lon="10.002543576687657"><ele>935.8</ele><time>2026-03-29T09:35:41Z</time></trkpt><trkpt lat="44.54100339482258" lon="10.002448787599173"><ele>938.0</ele><time>2026-03-29T09:35:42Z</time></trkpt><trkpt lat="44.54110974563294" lon="10.002420275486909"><ele>934.3333333333334</ele><time>2026-03-29T09:35:43Z</time></trkpt><trkpt lat="44.54123494342712" lon="10.002458606921145"><ele>930.6666666666667</ele><time>2026-03-29T09:35:44Z</time></trkpt><trkpt lat="44.541446060705226" lon="10.002497925592344"><ele>927.0</ele><time>2026-03-29T09:35:45Z</time></trkpt><trkpt lat="44.5416632237283" lon="10.002564578466318"><ele>927.0</ele><time>2026-03-29T09:35:46Z</time></trkpt><trkpt lat="44.54190533672272" lon="10.002613548081909"><ele>927.0</ele><time>2026-03-29T09:35:47Z</time></trkpt><trkpt lat="44.542112569008275" lon="10.002675737808445"><ele>925.25</ele><time>2026-03-29T09:35:48Z</time></trkpt><trkpt lat="44.542251572736454" lon="10.002781517080757"><ele>923.5</ele><time>2026-03-29T09:35:49Z</time></trkpt><trkpt lat="44.542333272644065" lon="10.00291691569166"><ele>921.75</ele><time>2026-03-29T09:35:50Z</time></trkpt><trkpt lat="44.54234137950134" lon="10.003095635559044"><ele>920.0</ele><time>2026-03-29T09:35:51Z</time></trkpt><trkpt lat="44.54240402450488" lon="10.003376906484219"><ele>920.0</ele><time>2026-03-29T09:35:52Z</time></trkpt><trkpt lat="44.54249579236754" lon="10.00362952904722"><ele>920.0</ele><time>2026-03-29T09:35:53Z</time></trkpt><trkpt lat="44.54260403417179" lon="10.003866212483965"><ele>920.0</ele><time>2026-03-29T09:35:54Z</time></trkpt><trkpt lat="44.542762735818386" lon="10.00406949515249"><ele>917.3333333333334</ele><time>2026-03-29T09:35:55Z</time></trkpt><trkpt lat="44.542942335611144" lon="10.004204171226466"><ele>914.6666666666667</ele><time>2026-03-29T09:35:56Z</time></trkpt><trkpt lat="44.54314291049656" lon="10.004277178329989"><ele>912.0</ele><time>2026-03-29T09:35:57Z</time></trkpt><trkpt lat="44.5433679810359" lon="10.004285281444156"><ele>912.0</ele><time>2026-03-29T09:35:58Z</time></trkpt><trkpt lat="44.54358807500006" lon="10.004272927062912"><ele>912.0</ele><time>2026-03-29T09:35:59Z</time></trkpt><trkpt lat="44.54379133009556" lon="10.004242792633194"><ele>912.0</ele><time>2026-03-29T09:36:00Z</time></trkpt><trkpt lat="44.54397586331049" lon="10.004189948331907"><ele>909.6666666666667</ele><time>2026-03-29T09:36:01Z</time></trkpt><trkpt lat="44.544146362557285" lon="10.004136233002932"><ele>907.3333333333334</ele><time>2026-03-29T09:36:02Z</time></trkpt><trkpt lat="44.54433123896958" lon="10.004176556312263"><ele>905.0</ele><time>2026-03-29T09:36:03Z</time></trkpt><trkpt lat="44.54454115072195" lon="10.004257357148404"><ele>901.5</ele><time>2026-03-29T09:36:04Z</time></trkpt><trkpt lat="44.5447765905311" lon="10.004347459895449"><ele>898.0</ele><time>2026-03-29T09:36:05Z</time></trkpt><trkpt lat="44.54499381398537" lon="10.004448351684442"><ele>898.0</ele><time>2026-03-29T09:36:06Z</time></trkpt><trkpt lat="44.54516965700804" lon="10.004528561076901"><ele>898.0</ele><time>2026-03-29T09:36:07Z</time></trkpt><trkpt lat="44.54532127207436" lon="10.004573862739463"><ele>898.0</ele><time>2026-03-29T09:36:08Z</time></trkpt><trkpt lat="44.54547909787387" lon="10.004632896661086"><ele>897.0</ele><time>2026-03-29T09:36:09Z</time></trkpt><trkpt lat="44.545641520643194" lon="10.00462143574478"><ele>896.0</ele><time>2026-03-29T09:36:10Z</time></trkpt><trkpt lat="44.54579673192093" lon="10.00426232652842"><ele>892.3333333333334</ele><time>2026-03-29T09:36:11Z</time></trkpt><trkpt lat="44.54594881426275" lon="10.004055533651496"><ele>888.6666666666667</ele><time>2026-03-29T09:36:12Z</time></trkpt><trkpt lat="44.54609891938771" lon="10.00390303351437"><ele>885.0</ele><time>2026-03-29T09:36:13Z</time></trkpt><trkpt lat="44.5462851316548" lon="10.003834854700575"><ele>882.3333333333333</ele><time>2026-03-29T09:36:14Z</time></trkpt><trkpt lat="44.54650116969602" lon="10.00380271104194"><ele>879.6666666666666</ele><time>2026-03-29T09:36:15Z</time></trkpt><trkpt lat="44.546715100929674" lon="10.00381791075347"><ele>877.0</ele><time>2026-03-29T09:36:16Z</time></trkpt><trkpt lat="44.54694706598411" lon="10.003880984893534"><ele>875.0</ele><time>2026-03-29T09:36:17Z</time></trkpt><trkpt lat="44.547202134215894" lon="10.003929241601943"><ele>873.0</ele><time>2026-03-29T09:36:18Z</time></trkpt><trkpt lat="44.54743045955988" lon="10.003988596048366"><ele>873.0</ele><time>2026-03-29T09:36:19Z</time></trkpt><trkpt lat="44.54763817117992" lon="10.003957612530161"><ele>873.0</ele><time>2026-03-29T09:36:20Z</time></trkpt><trkpt lat="44.54783066930965" lon="10.003879658738786"><ele>873.0</ele><time>2026-03-29T09:36:21Z</time></trkpt><trkpt lat="44.548014177244305" lon="10.00387441955263"><ele>871.3333333333333</ele><time>2026-03-29T09:36:22Z</time></trkpt><trkpt lat="44.54818991149353" lon="10.003970947227092"><ele>869.6666666666666</ele><time>2026-03-29T09:36:23Z</time></trkpt><trkpt lat="44.54835749011726" lon="10.004072014918853"><ele>868.0</ele><time>2026-03-29T09:36:24Z</time></trkpt><trkpt lat="44.54851899980534" lon="10.004126441493389"><ele>868.0</ele><time>2026-03-29T09:36:25Z</time></trkpt><trkpt lat="44.54867792891693" lon="10.004122147323526"><ele>868.0</ele><time>2026-03-29T09:36:26Z</time></trkpt><trkpt lat="44.54885032881422" lon="10.004004690255627"><ele>868.0</ele><time>2026-03-29T09:36:27Z</time></trkpt><trkpt lat="44.549042593771105" lon="10.003819844810184"><ele>866.3333333333333</ele><time>2026-03-29T09:36:28Z</time></trkpt><trkpt lat="44.54924344223254" lon="10.003668392332955"><ele>864.6666666666667</ele><time>2026-03-29T09:36:29Z</time></trkpt><trkpt lat="44.549439159440425" lon="10.00358671029245"><ele>863.0</ele><time>2026-03-29T09:36:30Z</time></trkpt><trkpt lat="44.54962286104859" lon="10.00359492516575"><ele>862.6666666666667</ele><time>2026-03-29T09:36:31Z</time></trkpt><trkpt lat="44.54981654154123" lon="10.003669648440162"><ele>862.3333333333333</ele><time>2026-03-29T09:36:32Z</time></trkpt><trkpt lat="44.54996767399748" lon="10.00369084969718"><ele>862.0</ele><time>2026-03-29T09:36:33Z</time></trkpt><trkpt lat="44.55012192215685" lon="10.003644956464353"><ele>862.0</ele><time>2026-03-29T09:36:34Z</time></trkpt><trkpt lat="44.55029619853454" lon="10.003515836535515"><ele>862.0</ele><time>2026-03-29T09:36:35Z</time></trkpt><trkpt lat="44.5504561381196" lon="10.00328408471271"><ele>862.0</ele><time>2026-03-29T09:36:36Z</time></trkpt><trkpt lat="44.55058610604282" lon="10.002999202416952"><ele>859.3333333333333</ele><time>2026-03-29T09:36:37Z</time></trkpt><trkpt lat="44.55073007909025" lon="10.002752160816632"><ele>856.6666666666667</ele><time>2026-03-29T09:36:38Z</time></trkpt><trkpt lat="44.55086620983891" lon="10.002525735696542"><ele>854.0</ele><time>2026-03-29T09:36:39Z</time></trkpt><trkpt lat="44.55098227939245" lon="10.002312836806304"><ele>851.25</ele><time>2026-03-29T09:36:39.999Z</time></trkpt><trkpt lat="44.55108308649985" lon="10.002176566840317"><ele>848.5</ele><time>2026-03-29T09:36:40.999Z</time></trkpt><trkpt lat="44.551182980145946" lon="10.00206085267768"><ele>845.75</ele><time>2026-03-29T09:36:41.999Z</time></trkpt><trkpt lat="44.55129562041581" lon="10.001992603211647"><ele>843.0</ele><time>2026-03-29T09:36:42.999Z</time></trkpt><trkpt lat="44.551452237674035" lon="10.002076577994359"><ele>843.0</ele><time>2026-03-29T09:36:43.999Z</time></trkpt><trkpt lat="44.55165993862445" lon="10.002145378427862"><ele>843.0</ele><time>2026-03-29T09:36:44.999Z</time></trkpt><trkpt lat="44.551867208174464" lon="10.002247883983193"><ele>843.0</ele><time>2026-03-29T09:36:45.999Z</time></trkpt><trkpt lat="44.55206730714919" lon="10.002270104252496"><ele>842.3333333333333</ele><time>2026-03-29T09:36:46.999Z</time></trkpt><trkpt lat="44.55226143554835" lon="10.002231450983338"><ele>841.6666666666666</ele><time>2026-03-29T09:36:47.999Z</time></trkpt><trkpt lat="44.552480282235905" lon="10.002197703092655"><ele>841.0</ele><time>2026-03-29T09:36:48.999Z</time></trkpt><trkpt lat="44.552667210568245" lon="10.00218066788461"><ele>841.0</ele><time>2026-03-29T09:36:49.999Z</time></trkpt><trkpt lat="44.55273324922648" lon="10.002039342932951"><ele>841.0</ele><time>2026-03-29T09:36:50.999Z</time></trkpt><trkpt lat="44.552863662461604" lon="10.001841234259988"><ele>841.0</ele><time>2026-03-29T09:36:51.999Z</time></trkpt><trkpt lat="44.55298783107259" lon="10.00163854082343"><ele>835.6666666666666</ele><time>2026-03-29T09:36:52.999Z</time></trkpt><trkpt lat="44.55310955816801" lon="10.001475255246152"><ele>830.3333333333333</ele><time>2026-03-29T09:36:53.999Z</time></trkpt><trkpt lat="44.553251413404105" lon="10.00135296311096"><ele>825.0</ele><time>2026-03-29T09:36:54.999Z</time></trkpt><trkpt lat="44.55337665574749" lon="10.001325974671015"><ele>825.0</ele><time>2026-03-29T09:36:55.999Z</time></trkpt><trkpt lat="44.55349049688947" lon="10.001354684804836"><ele>825.0</ele><time>2026-03-29T09:36:56.999Z</time></trkpt><trkpt lat="44.5536079447343" lon="10.001443063291584"><ele>825.0</ele><time>2026-03-29T09:36:57.999Z</time></trkpt><trkpt lat="44.55370366634982" lon="10.00157298908172"><ele>825.0</ele><time>2026-03-29T09:36:58.999Z</time></trkpt><trkpt lat="44.553772864065294" lon="10.001778179159883"><ele>825.0</ele><time>2026-03-29T09:36:59.999Z</time></trkpt><trkpt lat="44.55382870289742" lon="10.002049550825877"><ele>825.0</ele><time>2026-03-29T09:37:00.999Z</time></trkpt><trkpt lat="44.55387741928148" lon="10.00235125796282"><ele>825.0</ele><time>2026-03-29T09:37:01.999Z</time></trkpt><trkpt lat="44.55393608551642" lon="10.002655786420501"><ele>825.0</ele><time>2026-03-29T09:37:02.999Z</time></trkpt><trkpt lat="44.55401702826209" lon="10.002914237526799"><ele>825.0</ele><time>2026-03-29T09:37:03.999Z</time></trkpt><trkpt lat="44.55410406219767" lon="10.003140144976104"><ele>825.0</ele><time>2026-03-29T09:37:04.999Z</time></trkpt><trkpt lat="44.554230794666175" lon="10.003341676276598"><ele>829.0</ele><time>2026-03-29T09:37:05.999Z</time></trkpt><trkpt lat="44.554416836823286" lon="10.003499371268289"><ele>833.0</ele><time>2026-03-29T09:37:06.999Z</time></trkpt><trkpt lat="44.55462839911957" lon="10.003650930124152"><ele>827.0</ele><time>2026-03-29T09:37:08Z</time></trkpt><trkpt lat="44.55480693607129" lon="10.003816813915204"><ele>821.0</ele><time>2026-03-29T09:37:09Z</time></trkpt><trkpt lat="44.554980442620916" lon="10.003939697987368"><ele>815.0</ele><time>2026-03-29T09:37:10Z</time></trkpt><trkpt lat="44.55516993074282" lon="10.003969144515846"><ele>815.0</ele><time>2026-03-29T09:37:11Z</time></trkpt><trkpt lat="44.55534482795691" lon="10.003988844826509"><ele>815.0</ele><time>2026-03-29T09:37:12Z</time></trkpt><trkpt lat="44.555460065594374" lon="10.004025090999075"><ele>815.0</ele><time>2026-03-29T09:37:13Z</time></trkpt><trkpt lat="44.55555146300585" lon="10.004111059211752"><ele>815.0</ele><time>2026-03-29T09:37:14Z</time></trkpt><trkpt lat="44.55561111356252" lon="10.004273220112674"><ele>811.6666666666667</ele><time>2026-03-29T09:37:15Z</time></trkpt><trkpt lat="44.5556082301659" lon="10.004517612193956"><ele>808.3333333333333</ele><time>2026-03-29T09:37:16Z</time></trkpt><trkpt lat="44.55558495006796" lon="10.004791671837491"><ele>805.0</ele><time>2026-03-29T09:37:17Z</time></trkpt><trkpt lat="44.55549059552373" lon="10.005035418368806"><ele>804.5</ele><time>2026-03-29T09:37:18Z</time></trkpt><trkpt lat="44.55543396484862" lon="10.005247810366518"><ele>804.0</ele><time>2026-03-29T09:37:19Z</time></trkpt><trkpt lat="44.55540307794535" lon="10.005453472295883"><ele>803.5</ele><time>2026-03-29T09:37:20Z</time></trkpt><trkpt lat="44.55543488931759" lon="10.005638264288182"><ele>803.0</ele><time>2026-03-29T09:37:21Z</time></trkpt><trkpt lat="44.55548771329913" lon="10.00581963986622"><ele>803.0</ele><time>2026-03-29T09:37:22Z</time></trkpt><trkpt lat="44.55555099588844" lon="10.006003805917024"><ele>803.0</ele><time>2026-03-29T09:37:23Z</time></trkpt><trkpt lat="44.55562227782722" lon="10.006203495656514"><ele>803.0</ele><time>2026-03-29T09:37:24Z</time></trkpt><trkpt lat="44.555733725338065" lon="10.00637461035901"><ele>803.0</ele><time>2026-03-29T09:37:25Z</time></trkpt><trkpt lat="44.55590048981146" lon="10.006529503618772"><ele>803.0</ele><time>2026-03-29T09:37:26Z</time></trkpt><trkpt lat="44.556068018358175" lon="10.006692932006716"><ele>803.0</ele><time>2026-03-29T09:37:27Z</time></trkpt><trkpt lat="44.556212004439445" lon="10.006847999386677"><ele>799.5</ele><time>2026-03-29T09:37:28Z</time></trkpt><trkpt lat="44.55634573630044" lon="10.006992743155042"><ele>796.0</ele><time>2026-03-29T09:37:29Z</time></trkpt><trkpt lat="44.5564549170058" lon="10.007135962163256"><ele>792.5</ele><time>2026-03-29T09:37:30Z</time></trkpt><trkpt lat="44.5564714183531" lon="10.007309210833636"><ele>789.0</ele><time>2026-03-29T09:37:31Z</time></trkpt><trkpt lat="44.556508450063795" lon="10.007482058869236"><ele>790.8000000000001</ele><time>2026-03-29T09:37:32Z</time></trkpt><trkpt lat="44.55652894867614" lon="10.007632705543102"><ele>792.6</ele><time>2026-03-29T09:37:33Z</time></trkpt><trkpt lat="44.556589662499185" lon="10.007730508659638"><ele>794.4</ele><time>2026-03-29T09:37:34Z</time></trkpt><trkpt lat="44.556677845368206" lon="10.00778426634332"><ele>796.2</ele><time>2026-03-29T09:37:35Z</time></trkpt><trkpt lat="44.556793313683" lon="10.007779686428483"><ele>798.0</ele><time>2026-03-29T09:37:36Z</time></trkpt><trkpt lat="44.556938912876895" lon="10.007727140286002"><ele>793.3333333333333</ele><time>2026-03-29T09:37:37Z</time></trkpt><trkpt lat="44.55710390462643" lon="10.007654085908245"><ele>788.6666666666666</ele><time>2026-03-29T09:37:38Z</time></trkpt><trkpt lat="44.55726271448209" lon="10.007642031864535"><ele>784.0</ele><time>2026-03-29T09:37:39Z</time></trkpt><trkpt lat="44.557397714883535" lon="10.007679194497038"><ele>784.0</ele><time>2026-03-29T09:37:40Z</time></trkpt><trkpt lat="44.55750722906779" lon="10.007771956793892"><ele>784.0</ele><time>2026-03-29T09:37:41Z</time></trkpt><trkpt lat="44.557517977145785" lon="10.007970052090883"><ele>784.0</ele><time>2026-03-29T09:37:42Z</time></trkpt><trkpt lat="44.55754956873843" lon="10.008178096693305"><ele>784.0</ele><time>2026-03-29T09:37:43Z</time></trkpt><trkpt lat="44.55759838578046" lon="10.008393237285178"><ele>787.0</ele><time>2026-03-29T09:37:44Z</time></trkpt><trkpt lat="44.55769242255114" lon="10.008601019134328"><ele>790.0</ele><time>2026-03-29T09:37:45Z</time></trkpt><trkpt lat="44.557836911926586" lon="10.008760043402102"><ele>793.0</ele><time>2026-03-29T09:37:46Z</time></trkpt><trkpt lat="44.55796290358907" lon="10.008900510372849"><ele>789.0</ele><time>2026-03-29T09:37:47Z</time></trkpt><trkpt lat="44.55804012558002" lon="10.009090105464043"><ele>785.0</ele><time>2026-03-29T09:37:48Z</time></trkpt><trkpt lat="44.558113184912145" lon="10.00932724994562"><ele>781.0</ele><time>2026-03-29T09:37:49Z</time></trkpt><trkpt lat="44.55816275940934" lon="10.009562254526584"><ele>781.0</ele><time>2026-03-29T09:37:50Z</time></trkpt><trkpt lat="44.55823002330504" lon="10.009777672725654"><ele>781.0</ele><time>2026-03-29T09:37:51Z</time></trkpt><trkpt lat="44.55833814504266" lon="10.009970260665531"><ele>781.0</ele><time>2026-03-29T09:37:52Z</time></trkpt><trkpt lat="44.5585049004477" lon="10.01015192570103"><ele>782.0</ele><time>2026-03-29T09:37:53Z</time></trkpt><trkpt lat="44.55869429210631" lon="10.010301436357597"><ele>783.0</ele><time>2026-03-29T09:37:54Z</time></trkpt><trkpt lat="44.55887236248249" lon="10.010439655779344"><ele>784.0</ele><time>2026-03-29T09:37:55Z</time></trkpt><trkpt lat="44.55904064877217" lon="10.010567599021403"><ele>779.6666666666666</ele><time>2026-03-29T09:37:56Z</time></trkpt><trkpt lat="44.55920414679383" lon="10.010658037024639"><ele>775.3333333333333</ele><time>2026-03-29T09:37:57Z</time></trkpt><trkpt lat="44.55933889062839" lon="10.010750167365607"><ele>771.0</ele><time>2026-03-29T09:37:58Z</time></trkpt><trkpt lat="44.55940470264801" lon="10.010929483171404"><ele>771.0</ele><time>2026-03-29T09:37:59Z</time></trkpt><trkpt lat="44.55947214379025" lon="10.011159125195821"><ele>771.0</ele><time>2026-03-29T09:38:00Z</time></trkpt><trkpt lat="44.55953212180059" lon="10.011381053899441"><ele>771.0</ele><time>2026-03-29T09:38:01Z</time></trkpt><trkpt lat="44.55956649435631" lon="10.011616404121412"><ele>765.0</ele><time>2026-03-29T09:38:02Z</time></trkpt><trkpt lat="44.559562534271606" lon="10.0118832825429"><ele>759.0</ele><time>2026-03-29T09:38:03Z</time></trkpt><trkpt lat="44.55957035223834" lon="10.01216228084692"><ele>753.0</ele><time>2026-03-29T09:38:04Z</time></trkpt><trkpt lat="44.5596010463229" lon="10.012446332543371"><ele>752.0</ele><time>2026-03-29T09:38:05Z</time></trkpt><trkpt lat="44.55967640612557" lon="10.012738930325721"><ele>751.0</ele><time>2026-03-29T09:38:06Z</time></trkpt><trkpt lat="44.55976109229888" lon="10.013025426316819"><ele>750.0</ele><time>2026-03-29T09:38:07Z</time></trkpt><trkpt lat="44.559826159408374" lon="10.013283230896079"><ele>750.0</ele><time>2026-03-29T09:38:08Z</time></trkpt><trkpt lat="44.5598848200648" lon="10.013524334929038"><ele>750.0</ele><time>2026-03-29T09:38:09Z</time></trkpt><trkpt lat="44.5599493450715" lon="10.013753840553017"><ele>750.0</ele><time>2026-03-29T09:38:10Z</time></trkpt><trkpt lat="44.5600301173411" lon="10.013957448431112"><ele>750.0</ele><time>2026-03-29T09:38:11Z</time></trkpt><trkpt lat="44.56014374185464" lon="10.014129091751018"><ele>750.0</ele><time>2026-03-29T09:38:12Z</time></trkpt><trkpt lat="44.56032786242082" lon="10.014225802311167"><ele>750.0</ele><time>2026-03-29T09:38:13Z</time></trkpt><trkpt lat="44.56053318567967" lon="10.014245431343562"><ele>746.3333333333334</ele><time>2026-03-29T09:38:14Z</time></trkpt><trkpt lat="44.56073809992816" lon="10.014242496353646"><ele>742.6666666666667</ele><time>2026-03-29T09:38:15Z</time></trkpt><trkpt lat="44.560927829374414" lon="10.014269715939953"><ele>739.0</ele><time>2026-03-29T09:38:16Z</time></trkpt><trkpt lat="44.561098830635416" lon="10.014370221100284"><ele>735.3333333333334</ele><time>2026-03-29T09:38:17Z</time></trkpt><trkpt lat="44.56128388485011" lon="10.014471005891835"><ele>731.6666666666666</ele><time>2026-03-29T09:38:18Z</time></trkpt><trkpt lat="44.56144585799535" lon="10.014622340791943"><ele>728.0</ele><time>2026-03-29T09:38:19Z</time></trkpt><trkpt lat="44.561604765577826" lon="10.014751377213734"><ele>728.0</ele><time>2026-03-29T09:38:20Z</time></trkpt><trkpt lat="44.56176815150579" lon="10.01487503961364"><ele>728.0</ele><time>2026-03-29T09:38:21Z</time></trkpt><trkpt lat="44.56192901476563" lon="10.014983955180588"><ele>728.0</ele><time>2026-03-29T09:38:22Z</time></trkpt><trkpt lat="44.562088283084165" lon="10.015046978781232"><ele>729.3333333333333</ele><time>2026-03-29T09:38:23Z</time></trkpt><trkpt lat="44.56227257613505" lon="10.015029945109921"><ele>730.6666666666666</ele><time>2026-03-29T09:38:24Z</time></trkpt><trkpt lat="44.56246174498355" lon="10.014941774415034"><ele>732.0</ele><time>2026-03-29T09:38:25Z</time></trkpt><trkpt lat="44.56262277645952" lon="10.014848388717025"><ele>729.0</ele><time>2026-03-29T09:38:26Z</time></trkpt><trkpt lat="44.56275509392647" lon="10.014814125770439"><ele>726.0</ele><time>2026-03-29T09:38:27Z</time></trkpt><trkpt lat="44.56285935835307" lon="10.014846228782021"><ele>723.0</ele><time>2026-03-29T09:38:28Z</time></trkpt><trkpt lat="44.562948225575724" lon="10.014969824125384"><ele>720.0</ele><time>2026-03-29T09:38:29Z</time></trkpt><trkpt lat="44.562975065578414" lon="10.015197203749002"><ele>718.6666666666666</ele><time>2026-03-29T09:38:30Z</time></trkpt><trkpt lat="44.56304148054692" lon="10.01546662088444"><ele>717.3333333333333</ele><time>2026-03-29T09:38:31Z</time></trkpt><trkpt lat="44.56310413974906" lon="10.01575028194326"><ele>716.0</ele><time>2026-03-29T09:38:31.999Z</time></trkpt><trkpt lat="44.56318160389617" lon="10.016032704595505"><ele>716.0</ele><time>2026-03-29T09:38:32.999Z</time></trkpt><trkpt lat="44.56326363007052" lon="10.016274227735856"><ele>716.0</ele><time>2026-03-29T09:38:33.999Z</time></trkpt><trkpt lat="44.563373615374246" lon="10.01647397229136"><ele>716.0</ele><time>2026-03-29T09:38:34.999Z</time></trkpt><trkpt lat="44.56353171133708" lon="10.016643971204209"><ele>714.6666666666666</ele><time>2026-03-29T09:38:35.999Z</time></trkpt><trkpt lat="44.56371993910095" lon="10.016793805762708"><ele>713.3333333333334</ele><time>2026-03-29T09:38:36.999Z</time></trkpt><trkpt lat="44.5638901402771" lon="10.01693091586349"><ele>712.0</ele><time>2026-03-29T09:38:37.999Z</time></trkpt><trkpt lat="44.564040044674684" lon="10.017046397331063"><ele>712.0</ele><time>2026-03-29T09:38:38.999Z</time></trkpt><trkpt lat="44.56418417711393" lon="10.017120330795546"><ele>712.0</ele><time>2026-03-29T09:38:39.999Z</time></trkpt><trkpt lat="44.56434995763519" lon="10.017126354301913"><ele>712.0</ele><time>2026-03-29T09:38:40.999Z</time></trkpt><trkpt lat="44.56453836765504" lon="10.017114333487129"><ele>710.3333333333334</ele><time>2026-03-29T09:38:41.999Z</time></trkpt><trkpt lat="44.56472228527479" lon="10.017153448282931"><ele>708.6666666666666</ele><time>2026-03-29T09:38:42.999Z</time></trkpt><trkpt lat="44.56488988154615" lon="10.017307757560047"><ele>707.0</ele><time>2026-03-29T09:38:43.999Z</time></trkpt><trkpt lat="44.56507859938639" lon="10.017463959357347"><ele>708.5</ele><time>2026-03-29T09:38:44.999Z</time></trkpt><trkpt lat="44.565276385901775" lon="10.017616585292535"><ele>710.0</ele><time>2026-03-29T09:38:45.999Z</time></trkpt><trkpt lat="44.56551871398418" lon="10.017686031211753"><ele>710.0</ele><time>2026-03-29T09:38:46.999Z</time></trkpt><trkpt lat="44.56577438599058" lon="10.017709673185516"><ele>710.0</ele><time>2026-03-29T09:38:47.999Z</time></trkpt><trkpt lat="44.566038359676874" lon="10.017742322936241"><ele>709.5</ele><time>2026-03-29T09:38:48.999Z</time></trkpt><trkpt lat="44.56626983886924" lon="10.017853504071978"><ele>709.0</ele><time>2026-03-29T09:38:49.999Z</time></trkpt><trkpt lat="44.56648536680184" lon="10.018010212950298"><ele>709.0</ele><time>2026-03-29T09:38:50.999Z</time></trkpt><trkpt lat="44.56670679171109" lon="10.018207184534946"><ele>709.0</ele><time>2026-03-29T09:38:51.999Z</time></trkpt><trkpt lat="44.566917717715704" lon="10.018388178725482"><ele>711.0</ele><time>2026-03-29T09:38:52.999Z</time></trkpt><trkpt lat="44.56711963132181" lon="10.018579974382089"><ele>713.0</ele><time>2026-03-29T09:38:53.999Z</time></trkpt><trkpt lat="44.56732532391888" lon="10.018757532043285"><ele>713.0</ele><time>2026-03-29T09:38:54.999Z</time></trkpt><trkpt lat="44.567536457949686" lon="10.018928395219897"><ele>713.0</ele><time>2026-03-29T09:38:55.999Z</time></trkpt><trkpt lat="44.56773265992951" lon="10.019094827618789"><ele>710.6666666666666</ele><time>2026-03-29T09:38:56.999Z</time></trkpt><trkpt lat="44.567916577178046" lon="10.019252432237675"><ele>708.3333333333334</ele><time>2026-03-29T09:38:57.999Z</time></trkpt><trkpt lat="44.56808585357101" lon="10.0193960045918"><ele>706.0</ele><time>2026-03-29T09:38:58.999Z</time></trkpt><trkpt lat="44.568245789098846" lon="10.019539822765104"><ele>706.0</ele><time>2026-03-29T09:38:59.999Z</time></trkpt><trkpt lat="44.56839310202355" lon="10.019673854749024"><ele>706.0</ele><time>2026-03-29T09:39:00.999Z</time></trkpt><trkpt lat="44.56852291477448" lon="10.019794308067077"><ele>706.0</ele><time>2026-03-29T09:39:01.999Z</time></trkpt><trkpt lat="44.568661699881055" lon="10.019915756000158"><ele>707.6666666666667</ele><time>2026-03-29T09:39:02.999Z</time></trkpt><trkpt lat="44.56881633744955" lon="10.020049096510334"><ele>709.3333333333334</ele><time>2026-03-29T09:39:03.999Z</time></trkpt><trkpt lat="44.56898166117471" lon="10.020206868698343"><ele>711.0</ele><time>2026-03-29T09:39:04.999Z</time></trkpt><trkpt lat="44.56916262292595" lon="10.020373806117565"><ele>711.0</ele><time>2026-03-29T09:39:05.999Z</time></trkpt><trkpt lat="44.56934687897677" lon="10.020516657000156"><ele>711.0</ele><time>2026-03-29T09:39:06.999Z</time></trkpt><trkpt lat="44.56954535856178" lon="10.020555720081708"><ele>711.0</ele><time>2026-03-29T09:39:07.999Z</time></trkpt><trkpt lat="44.56978244492439" lon="10.020519253945938"><ele>713.3333333333334</ele><time>2026-03-29T09:39:08.999Z</time></trkpt><trkpt lat="44.57000600948057" lon="10.02045791488963"><ele>715.6666666666667</ele><time>2026-03-29T09:39:09.999Z</time></trkpt><trkpt lat="44.57020061579067" lon="10.020453794206066"><ele>718.0</ele><time>2026-03-29T09:39:10.999Z</time></trkpt><trkpt lat="44.570354736176306" lon="10.020548491748995"><ele>718.3333333333334</ele><time>2026-03-29T09:39:11.999Z</time></trkpt><trkpt lat="44.570481986896176" lon="10.020708298095585"><ele>718.6666666666666</ele><time>2026-03-29T09:39:12.999Z</time></trkpt><trkpt lat="44.57063626521533" lon="10.020920671245046"><ele>719.0</ele><time>2026-03-29T09:39:14Z</time></trkpt><trkpt lat="44.57080448721842" lon="10.02117143069852"><ele>722.3333333333333</ele><time>2026-03-29T09:39:15Z</time></trkpt><trkpt lat="44.570967304557726" lon="10.021401026940897"><ele>725.6666666666666</ele><time>2026-03-29T09:39:16Z</time></trkpt><trkpt lat="44.57113427736765" lon="10.02159009615613"><ele>729.0</ele><time>2026-03-29T09:39:17Z</time></trkpt><trkpt lat="44.571335347690585" lon="10.021736283973103"><ele>735.0</ele><time>2026-03-29T09:39:18Z</time></trkpt><trkpt lat="44.571580670389615" lon="10.021833397664853"><ele>741.0</ele><time>2026-03-29T09:39:19Z</time></trkpt><trkpt lat="44.57182865952639" lon="10.021927188591079"><ele>742.5</ele><time>2026-03-29T09:39:20Z</time></trkpt><trkpt lat="44.57206306350047" lon="10.022032359012808"><ele>744.0</ele><time>2026-03-29T09:39:21Z</time></trkpt><trkpt lat="44.57225789268608" lon="10.022137976737792"><ele>744.0</ele><time>2026-03-29T09:39:22Z</time></trkpt><trkpt lat="44.572389595119645" lon="10.022272603398923"><ele>744.0</ele><time>2026-03-29T09:39:23Z</time></trkpt><trkpt lat="44.57252955706249" lon="10.02245948365444"><ele>744.0</ele><time>2026-03-29T09:39:24Z</time></trkpt><trkpt lat="44.57276776934639" lon="10.022708617848716"><ele>738.5</ele><time>2026-03-29T09:39:25Z</time></trkpt><trkpt lat="44.57290057191581" lon="10.02299361996297"><ele>733.0</ele><time>2026-03-29T09:39:26Z</time></trkpt><trkpt lat="44.57301421694706" lon="10.02330603981968"><ele>734.3333333333334</ele><time>2026-03-29T09:39:27Z</time></trkpt><trkpt lat="44.57311935332576" lon="10.023568774158669"><ele>735.6666666666666</ele><time>2026-03-29T09:39:28Z</time></trkpt><trkpt lat="44.57323030141926" lon="10.02378816430547"><ele>737.0</ele><time>2026-03-29T09:39:29Z</time></trkpt><trkpt lat="44.57335347745763" lon="10.023974980881363"><ele>737.0</ele><time>2026-03-29T09:39:30Z</time></trkpt><trkpt lat="44.57351649949784" lon="10.02408298011859"><ele>737.0</ele><time>2026-03-29T09:39:31Z</time></trkpt><trkpt lat="44.573767535731996" lon="10.024203932682543"><ele>737.0</ele><time>2026-03-29T09:39:32Z</time></trkpt><trkpt lat="44.574020950471024" lon="10.024270829900779"><ele>737.0</ele><time>2026-03-29T09:39:33Z</time></trkpt><trkpt lat="44.57426395352611" lon="10.024346064062065"><ele>737.0</ele><time>2026-03-29T09:39:34Z</time></trkpt><trkpt lat="44.574516506981354" lon="10.024454380986743"><ele>734.0</ele><time>2026-03-29T09:39:35Z</time></trkpt><trkpt lat="44.57476856810857" lon="10.024556831148347"><ele>731.0</ele><time>2026-03-29T09:39:36Z</time></trkpt><trkpt lat="44.57500359203986" lon="10.024638112423363"><ele>731.0</ele><time>2026-03-29T09:39:37Z</time></trkpt><trkpt lat="44.57522588653894" lon="10.024725214667548"><ele>731.0</ele><time>2026-03-29T09:39:38Z</time></trkpt><trkpt lat="44.57543674960043" lon="10.024826878867543"><ele>732.5</ele><time>2026-03-29T09:39:39Z</time></trkpt><trkpt lat="44.57563214468224" lon="10.025018452425055"><ele>734.0</ele><time>2026-03-29T09:39:40Z</time></trkpt><trkpt lat="44.57585251559885" lon="10.025222615394094"><ele>734.0</ele><time>2026-03-29T09:39:41Z</time></trkpt><trkpt lat="44.57605575213293" lon="10.025458301426632"><ele>734.0</ele><time>2026-03-29T09:39:42Z</time></trkpt><trkpt lat="44.57625910447477" lon="10.025671368254901"><ele>737.0</ele><time>2026-03-29T09:39:43Z</time></trkpt><trkpt lat="44.576455767805435" lon="10.025875328352573"><ele>740.0</ele><time>2026-03-29T09:39:44Z</time></trkpt><trkpt lat="44.57662929797302" lon="10.026058539922094"><ele>740.0</ele><time>2026-03-29T09:39:45Z</time></trkpt><trkpt lat="44.57678227907381" lon="10.026234171365648"><ele>740.0</ele><time>2026-03-29T09:39:46Z</time></trkpt><trkpt lat="44.57687209380597" lon="10.026458479887863"><ele>740.0</ele><time>2026-03-29T09:39:47Z</time></trkpt><trkpt lat="44.5769311492025" lon="10.026718639894877"><ele>741.3333333333333</ele><time>2026-03-29T09:39:48Z</time></trkpt><trkpt lat="44.57700617527699" lon="10.027003597112348"><ele>742.6666666666666</ele><time>2026-03-29T09:39:49Z</time></trkpt><trkpt lat="44.577104272479346" lon="10.027285296360539"><ele>744.0</ele><time>2026-03-29T09:39:50Z</time></trkpt><trkpt lat="44.57723321253382" lon="10.027560695922123"><ele>744.0</ele><time>2026-03-29T09:39:51Z</time></trkpt><trkpt lat="44.577319134034795" lon="10.027866460806875"><ele>744.0</ele><time>2026-03-29T09:39:52Z</time></trkpt><trkpt lat="44.57738686651473" lon="10.028150217431751"><ele>744.0</ele><time>2026-03-29T09:39:53Z</time></trkpt><trkpt lat="44.57743953141782" lon="10.028398414262757"><ele>746.3333333333334</ele><time>2026-03-29T09:39:54Z</time></trkpt><trkpt lat="44.57756723656824" lon="10.028600902532535"><ele>748.6666666666667</ele><time>2026-03-29T09:39:55Z</time></trkpt><trkpt lat="44.57774690730244" lon="10.028778507905326"><ele>751.0</ele><time>2026-03-29T09:39:56Z</time></trkpt><trkpt lat="44.577919885483674" lon="10.028934158242201"><ele>755.3333333333334</ele><time>2026-03-29T09:39:57Z</time></trkpt><trkpt lat="44.57798021235762" lon="10.029147326883475"><ele>759.6666666666666</ele><time>2026-03-29T09:39:58Z</time></trkpt><trkpt lat="44.57800804185199" lon="10.02940735141939"><ele>764.0</ele><time>2026-03-29T09:39:59Z</time></trkpt><trkpt lat="44.578035913115095" lon="10.029682706509178"><ele>764.0</ele><time>2026-03-29T09:40:00Z</time></trkpt><trkpt lat="44.57807113021643" lon="10.029941237645145"><ele>764.0</ele><time>2026-03-29T09:40:01Z</time></trkpt><trkpt lat="44.578155570620744" lon="10.03015743769383"><ele>764.0</ele><time>2026-03-29T09:40:02Z</time></trkpt><trkpt lat="44.5782884986038" lon="10.030315665479959"><ele>763.0</ele><time>2026-03-29T09:40:03Z</time></trkpt><trkpt lat="44.5784452271601" lon="10.030473288047125"><ele>762.0</ele><time>2026-03-29T09:40:04Z</time></trkpt><trkpt lat="44.578614035952846" lon="10.030592407652282"><ele>761.0</ele><time>2026-03-29T09:40:05Z</time></trkpt><trkpt lat="44.57879354569881" lon="10.030676998387706"><ele>764.0</ele><time>2026-03-29T09:40:06Z</time></trkpt><trkpt lat="44.57897730851344" lon="10.03068134384145"><ele>767.0</ele><time>2026-03-29T09:40:07Z</time></trkpt><trkpt lat="44.579170267990946" lon="10.030612497970687"><ele>770.0</ele><time>2026-03-29T09:40:08Z</time></trkpt><trkpt lat="44.579353342613736" lon="10.03047408616264"><ele>770.0</ele><time>2026-03-29T09:40:09Z</time></trkpt><trkpt lat="44.57953568920012" lon="10.030323069130821"><ele>770.0</ele><time>2026-03-29T09:40:10Z</time></trkpt><trkpt lat="44.57975505243776" lon="10.03026474408452"><ele>770.0</ele><time>2026-03-29T09:40:11Z</time></trkpt><trkpt lat="44.579952181504" lon="10.030218137310486"><ele>770.0</ele><time>2026-03-29T09:40:12Z</time></trkpt><trkpt lat="44.5801817002583" lon="10.030201489969729"><ele>770.0</ele><time>2026-03-29T09:40:13Z</time></trkpt><trkpt lat="44.58041855946351" lon="10.030235668674601"><ele>771.5</ele><time>2026-03-29T09:40:14Z</time></trkpt><trkpt lat="44.58065556524487" lon="10.030325591626758"><ele>773.0</ele><time>2026-03-29T09:40:15Z</time></trkpt><trkpt lat="44.580897500429835" lon="10.030386550931697"><ele>773.0</ele><time>2026-03-29T09:40:16Z</time></trkpt><trkpt lat="44.58113710129641" lon="10.030459873757719"><ele>773.0</ele><time>2026-03-29T09:40:17Z</time></trkpt><trkpt lat="44.581379245293675" lon="10.03048883491735"><ele>771.6666666666667</ele><time>2026-03-29T09:40:18Z</time></trkpt><trkpt lat="44.58159775859585" lon="10.03058803792931"><ele>770.3333333333333</ele><time>2026-03-29T09:40:19Z</time></trkpt><trkpt lat="44.581772627418026" lon="10.030751810511196"><ele>769.0</ele><time>2026-03-29T09:40:20Z</time></trkpt><trkpt lat="44.58194214044017" lon="10.03095628960656"><ele>767.6666666666666</ele><time>2026-03-29T09:40:21Z</time></trkpt><trkpt lat="44.5820946434365" lon="10.031131923724644"><ele>766.3333333333333</ele><time>2026-03-29T09:40:22Z</time></trkpt><trkpt lat="44.582229227102175" lon="10.031306736976875"><ele>765.0</ele><time>2026-03-29T09:40:23Z</time></trkpt><trkpt lat="44.58235443942609" lon="10.031446600684582"><ele>765.0</ele><time>2026-03-29T09:40:24Z</time></trkpt><trkpt lat="44.58247571233017" lon="10.031580356019528"><ele>765.0</ele><time>2026-03-29T09:40:25Z</time></trkpt><trkpt lat="44.58258503768019" lon="10.03170346522251"><ele>765.0</ele><time>2026-03-29T09:40:26Z</time></trkpt><trkpt lat="44.582685295822536" lon="10.031817373495793"><ele>765.0</ele><time>2026-03-29T09:40:27Z</time></trkpt><trkpt lat="44.58278823916954" lon="10.031914120827077"><ele>767.5</ele><time>2026-03-29T09:40:28Z</time></trkpt><trkpt lat="44.582898915073486" lon="10.032002690978773"><ele>770.0</ele><time>2026-03-29T09:40:29Z</time></trkpt><trkpt lat="44.5830107426938" lon="10.03207524127796"><ele>772.5</ele><time>2026-03-29T09:40:30Z</time></trkpt><trkpt lat="44.58312115925831" lon="10.032121412377224"><ele>775.0</ele><time>2026-03-29T09:40:31Z</time></trkpt><trkpt lat="44.58323483217165" lon="10.032166017852752"><ele>775.0</ele><time>2026-03-29T09:40:32Z</time></trkpt><trkpt lat="44.5833494199436" lon="10.032194930028293"><ele>775.0</ele><time>2026-03-29T09:40:32.999Z</time></trkpt><trkpt lat="44.58346787407285" lon="10.032224454239302"><ele>775.0</ele><time>2026-03-29T09:40:33.999Z</time></trkpt><trkpt lat="44.58358645052601" lon="10.032254207250489"><ele>775.0</ele><time>2026-03-29T09:40:34.999Z</time></trkpt><trkpt lat="44.58369848972424" lon="10.032299371731206"><ele>775.0</ele><time>2026-03-29T09:40:35.999Z</time></trkpt><trkpt lat="44.583800512016765" lon="10.032373009543127"><ele>775.0</ele><time>2026-03-29T09:40:36.999Z</time></trkpt><trkpt lat="44.583900971207825" lon="10.032452060539498"><ele>775.0</ele><time>2026-03-29T09:40:37.999Z</time></trkpt><trkpt lat="44.58398853056209" lon="10.03253040802454"><ele>775.0</ele><time>2026-03-29T09:40:38.999Z</time></trkpt><trkpt lat="44.584078744680326" lon="10.032614317079522"><ele>775.0</ele><time>2026-03-29T09:40:39.999Z</time></trkpt><trkpt lat="44.58416788821378" lon="10.032702834334318"><ele>777.6</ele><time>2026-03-29T09:40:40.999Z</time></trkpt><trkpt lat="44.584255974953145" lon="10.03279761745902"><ele>780.2</ele><time>2026-03-29T09:40:41.999Z</time></trkpt><trkpt lat="44.58433951505569" lon="10.032890143070182"><ele>782.8</ele><time>2026-03-29T09:40:42.999Z</time></trkpt><trkpt lat="44.58441694843462" lon="10.032979379732215"><ele>785.4</ele><time>2026-03-29T09:40:43.999Z</time></trkpt><trkpt lat="44.58449348490828" lon="10.033072624439752"><ele>788.0</ele><time>2026-03-29T09:40:44.999Z</time></trkpt><trkpt lat="44.58456781653911" lon="10.03316241052686"><ele>788.0</ele><time>2026-03-29T09:40:45.999Z</time></trkpt><trkpt lat="44.58464074134126" lon="10.033257837411096"><ele>788.0</ele><time>2026-03-29T09:40:46.999Z</time></trkpt><trkpt lat="44.58471208770672" lon="10.03335879689409"><ele>788.0</ele><time>2026-03-29T09:40:47.999Z</time></trkpt><trkpt lat="44.58478527808168" lon="10.033461955402668"><ele>788.0</ele><time>2026-03-29T09:40:48.999Z</time></trkpt><trkpt lat="44.5848603184654" lon="10.033572274901045"><ele>788.0</ele><time>2026-03-29T09:40:49.999Z</time></trkpt><trkpt lat="44.584937936124916" lon="10.033686438797186"><ele>789.8</ele><time>2026-03-29T09:40:50.999Z</time></trkpt><trkpt lat="44.58501494322507" lon="10.03379218285614"><ele>791.5999999999999</ele><time>2026-03-29T09:40:51.999Z</time></trkpt><trkpt lat="44.58509317823172" lon="10.033897151860938"><ele>793.4000000000001</ele><time>2026-03-29T09:40:52.999Z</time></trkpt><trkpt lat="44.58517418332542" lon="10.033997401676851"><ele>795.2</ele><time>2026-03-29T09:40:53.999Z</time></trkpt><trkpt lat="44.58526385447543" lon="10.034093301670167"><ele>797.0</ele><time>2026-03-29T09:40:54.999Z</time></trkpt><trkpt lat="44.58535930125786" lon="10.03417189915067"><ele>798.0</ele><time>2026-03-29T09:40:55.999Z</time></trkpt><trkpt lat="44.585468151243184" lon="10.034227453649041"><ele>799.0</ele><time>2026-03-29T09:40:56.999Z</time></trkpt><trkpt lat="44.585575799782646" lon="10.0342670007338"><ele>800.0</ele><time>2026-03-29T09:40:57.999Z</time></trkpt><trkpt lat="44.58568836961939" lon="10.03429374702865"><ele>801.0</ele><time>2026-03-29T09:40:58.999Z</time></trkpt><trkpt lat="44.58579961278057" lon="10.034325969083216"><ele>801.0</ele><time>2026-03-29T09:40:59.999Z</time></trkpt><trkpt lat="44.585904363833144" lon="10.034362639941047"><ele>801.0</ele><time>2026-03-29T09:41:00.999Z</time></trkpt><trkpt lat="44.58600853824898" lon="10.034394514170144"><ele>801.0</ele><time>2026-03-29T09:41:01.999Z</time></trkpt><trkpt lat="44.5861122423743" lon="10.034426595075423"><ele>801.0</ele><time>2026-03-29T09:41:02.999Z</time></trkpt><trkpt lat="44.58620777594306" lon="10.034459860417716"><ele>801.0</ele><time>2026-03-29T09:41:03.999Z</time></trkpt><trkpt lat="44.58630345271703" lon="10.0344980617115"><ele>801.5999999999999</ele><time>2026-03-29T09:41:04.999Z</time></trkpt><trkpt lat="44.58640197027178" lon="10.03453201647289"><ele>802.2</ele><time>2026-03-29T09:41:05.999Z</time></trkpt><trkpt lat="44.586503053485956" lon="10.0345648906051"><ele>802.8</ele><time>2026-03-29T09:41:06.999Z</time></trkpt><trkpt lat="44.58660678678135" lon="10.034598476524232"><ele>803.4000000000001</ele><time>2026-03-29T09:41:07.999Z</time></trkpt><trkpt lat="44.58670694440052" lon="10.034627493419418"><ele>804.0</ele><time>2026-03-29T09:41:08.999Z</time></trkpt><trkpt lat="44.58681076372326" lon="10.034661225926115"><ele>804.0</ele><time>2026-03-29T09:41:09.999Z</time></trkpt><trkpt lat="44.586916695208934" lon="10.034699545987733"><ele>804.0</ele><time>2026-03-29T09:41:10.999Z</time></trkpt><trkpt lat="44.5870241390099" lon="10.034735594121294"><ele>804.0</ele><time>2026-03-29T09:41:11.999Z</time></trkpt><trkpt lat="44.58713703733033" lon="10.034776315640542"><ele>804.0</ele><time>2026-03-29T09:41:12.999Z</time></trkpt><trkpt lat="44.587244377238726" lon="10.034819601143733"><ele>804.0</ele><time>2026-03-29T09:41:13.999Z</time></trkpt><trkpt lat="44.58735311115076" lon="10.034862981603881"><ele>805.6</ele><time>2026-03-29T09:41:14.999Z</time></trkpt><trkpt lat="44.58745283220136" lon="10.034939277157422"><ele>807.2</ele><time>2026-03-29T09:41:15.999Z</time></trkpt><trkpt lat="44.587537088526176" lon="10.035037702917007"><ele>808.8000000000001</ele><time>2026-03-29T09:41:16.999Z</time></trkpt><trkpt lat="44.58757779157331" lon="10.035172972758676"><ele>810.4000000000001</ele><time>2026-03-29T09:41:17.999Z</time></trkpt><trkpt lat="44.58758577101612" lon="10.03532588984127"><ele>812.0</ele><time>2026-03-29T09:41:18.999Z</time></trkpt><trkpt lat="44.587568128774784" lon="10.035473742050987"><ele>813.5</ele><time>2026-03-29T09:41:20Z</time></trkpt><trkpt lat="44.587527714390596" lon="10.035619919664432"><ele>815.0</ele><time>2026-03-29T09:41:21Z</time></trkpt><trkpt lat="44.58749734785542" lon="10.035772148768473"><ele>816.5</ele><time>2026-03-29T09:41:22Z</time></trkpt><trkpt lat="44.587496136450575" lon="10.035937133009009"><ele>818.0</ele><time>2026-03-29T09:41:23Z</time></trkpt><trkpt lat="44.58753893484041" lon="10.03612286363413"><ele>819.6666666666667</ele><time>2026-03-29T09:41:24Z</time></trkpt><trkpt lat="44.587626972994414" lon="10.036312341450728"><ele>821.3333333333333</ele><time>2026-03-29T09:41:25Z</time></trkpt><trkpt lat="44.587714195417824" lon="10.036507308496816"><ele>823.0</ele><time>2026-03-29T09:41:26Z</time></trkpt><trkpt lat="44.58777154068973" lon="10.036727004915937"><ele>824.0</ele><time>2026-03-29T09:41:27Z</time></trkpt><trkpt lat="44.58777471560006" lon="10.036967311962838"><ele>825.0</ele><time>2026-03-29T09:41:28Z</time></trkpt><trkpt lat="44.587746640397306" lon="10.037216766834595"><ele>826.0</ele><time>2026-03-29T09:41:29Z</time></trkpt><trkpt lat="44.58768368914435" lon="10.037490235232532"><ele>827.0</ele><time>2026-03-29T09:41:30Z</time></trkpt><trkpt lat="44.58763411535984" lon="10.037770120733216"><ele>828.0</ele><time>2026-03-29T09:41:31Z</time></trkpt><trkpt lat="44.587594796743055" lon="10.038060659164493"><ele>829.0</ele><time>2026-03-29T09:41:32Z</time></trkpt><trkpt lat="44.58755624363644" lon="10.038355222856866"><ele>832.0</ele><time>2026-03-29T09:41:33Z</time></trkpt><trkpt lat="44.58751035447365" lon="10.038633562284323"><ele>835.0</ele><time>2026-03-29T09:41:34Z</time></trkpt><trkpt lat="44.58746235672662" lon="10.038901173266995"><ele>838.0</ele><time>2026-03-29T09:41:35Z</time></trkpt><trkpt lat="44.58740815862691" lon="10.039145120704983"><ele>843.3333333333333</ele><time>2026-03-29T09:41:36Z</time></trkpt><trkpt lat="44.587307264721915" lon="10.039330139697052"><ele>848.6666666666667</ele><time>2026-03-29T09:41:37Z</time></trkpt><trkpt lat="44.587183493754495" lon="10.039507262128868"><ele>854.0</ele><time>2026-03-29T09:41:38Z</time></trkpt><trkpt lat="44.587046959280485" lon="10.039694829251456"><ele>850.3333333333334</ele><time>2026-03-29T09:41:39Z</time></trkpt><trkpt lat="44.586913794318626" lon="10.039873641562496"><ele>846.6666666666667</ele><time>2026-03-29T09:41:40Z</time></trkpt><trkpt lat="44.58680617944646" lon="10.040039100990546"><ele>843.0</ele><time>2026-03-29T09:41:41Z</time></trkpt><trkpt lat="44.58672801757805" lon="10.04020377685417"><ele>843.0</ele><time>2026-03-29T09:41:42Z</time></trkpt><trkpt lat="44.5866856439872" lon="10.04041524467116"><ele>843.0</ele><time>2026-03-29T09:41:43Z</time></trkpt><trkpt lat="44.58667309340178" lon="10.040677489741627"><ele>843.0</ele><time>2026-03-29T09:41:44Z</time></trkpt><trkpt lat="44.58664459653517" lon="10.04095272087167"><ele>848.0</ele><time>2026-03-29T09:41:45Z</time></trkpt><trkpt lat="44.58660196773545" lon="10.041209420162879"><ele>853.0</ele><time>2026-03-29T09:41:46Z</time></trkpt><trkpt lat="44.586586880139336" lon="10.04144809845471"><ele>858.0</ele><time>2026-03-29T09:41:47Z</time></trkpt><trkpt lat="44.58661722997279" lon="10.041702152895274"><ele>860.0</ele><time>2026-03-29T09:41:48Z</time></trkpt><trkpt lat="44.58670290325012" lon="10.041991936493716"><ele>862.0</ele><time>2026-03-29T09:41:49Z</time></trkpt><trkpt lat="44.58681437048839" lon="10.042271724442944"><ele>859.3333333333333</ele><time>2026-03-29T09:41:50Z</time></trkpt><trkpt lat="44.58693445359945" lon="10.042528036163203"><ele>856.6666666666667</ele><time>2026-03-29T09:41:51Z</time></trkpt><trkpt lat="44.586996394043304" lon="10.042792512266743"><ele>854.0</ele><time>2026-03-29T09:41:52Z</time></trkpt><trkpt lat="44.587001369110055" lon="10.043034652078475"><ele>854.0</ele><time>2026-03-29T09:41:53Z</time></trkpt><trkpt lat="44.586935849276514" lon="10.04324538192107"><ele>854.0</ele><time>2026-03-29T09:41:54Z</time></trkpt><trkpt lat="44.5869027628873" lon="10.043533191493124"><ele>854.0</ele><time>2026-03-29T09:41:55Z</time></trkpt><trkpt lat="44.58689762528" lon="10.043817839490693"><ele>854.6666666666667</ele><time>2026-03-29T09:41:56Z</time></trkpt><trkpt lat="44.58690742032184" lon="10.044121644287998"><ele>855.3333333333333</ele><time>2026-03-29T09:41:57Z</time></trkpt><trkpt lat="44.58685623769528" lon="10.04443674056558"><ele>856.0</ele><time>2026-03-29T09:41:58Z</time></trkpt><trkpt lat="44.586818924260164" lon="10.044744621529446"><ele>860.6666666666666</ele><time>2026-03-29T09:41:59Z</time></trkpt><trkpt lat="44.58676693473237" lon="10.045033929736423"><ele>865.3333333333333</ele><time>2026-03-29T09:42:00Z</time></trkpt><trkpt lat="44.58669316258387" lon="10.045282509498104"><ele>870.0</ele><time>2026-03-29T09:42:01Z</time></trkpt><trkpt lat="44.58655755999026" lon="10.045489092311485"><ele>870.0</ele><time>2026-03-29T09:42:02Z</time></trkpt><trkpt lat="44.58642481614325" lon="10.045713380038759"><ele>870.0</ele><time>2026-03-29T09:42:03Z</time></trkpt><trkpt lat="44.586324297053146" lon="10.045949323355321"><ele>870.0</ele><time>2026-03-29T09:42:04Z</time></trkpt><trkpt lat="44.58626977081786" lon="10.046224561812952"><ele>875.3333333333333</ele><time>2026-03-29T09:42:05Z</time></trkpt><trkpt lat="44.58621362045909" lon="10.046478643677641"><ele>880.6666666666666</ele><time>2026-03-29T09:42:06Z</time></trkpt><trkpt lat="44.586169631720665" lon="10.046698004681394"><ele>886.0</ele><time>2026-03-29T09:42:07Z</time></trkpt><trkpt lat="44.58614969396833" lon="10.046902488819478"><ele>887.5</ele><time>2026-03-29T09:42:08Z</time></trkpt><trkpt lat="44.58615016045041" lon="10.047089870890279"><ele>889.0</ele><time>2026-03-29T09:42:09Z</time></trkpt><trkpt lat="44.586203371935795" lon="10.047232286319472"><ele>890.5</ele><time>2026-03-29T09:42:10Z</time></trkpt><trkpt lat="44.58631754070692" lon="10.047317818668208"><ele>892.0</ele><time>2026-03-29T09:42:11Z</time></trkpt><trkpt lat="44.58647178250999" lon="10.047344901698239"><ele>892.0</ele><time>2026-03-29T09:42:12Z</time></trkpt><trkpt lat="44.58665344347056" lon="10.047328976570402"><ele>892.0</ele><time>2026-03-29T09:42:13Z</time></trkpt><trkpt lat="44.58684075100076" lon="10.047366338750601"><ele>892.0</ele><time>2026-03-29T09:42:14Z</time></trkpt><trkpt lat="44.587030170427106" lon="10.047387772353158"><ele>898.3333333333333</ele><time>2026-03-29T09:42:15Z</time></trkpt><trkpt lat="44.58721290554664" lon="10.04738893379221"><ele>904.6666666666667</ele><time>2026-03-29T09:42:16Z</time></trkpt><trkpt lat="44.587372747422826" lon="10.047430071616201"><ele>911.0</ele><time>2026-03-29T09:42:17Z</time></trkpt><trkpt lat="44.58751293161544" lon="10.047453622874931"><ele>907.25</ele><time>2026-03-29T09:42:18Z</time></trkpt><trkpt lat="44.587622471603005" lon="10.047499082021655"><ele>903.5</ele><time>2026-03-29T09:42:19Z</time></trkpt><trkpt lat="44.587710805099675" lon="10.047584382423215"><ele>899.75</ele><time>2026-03-29T09:42:20Z</time></trkpt><trkpt lat="44.58776056508132" lon="10.047722267791727"><ele>896.0</ele><time>2026-03-29T09:42:21Z</time></trkpt><trkpt lat="44.5877680458757" lon="10.047911431569233"><ele>896.0</ele><time>2026-03-29T09:42:22Z</time></trkpt><trkpt lat="44.587689772213714" lon="10.04809157404291"><ele>896.0</ele><time>2026-03-29T09:42:23Z</time></trkpt><trkpt lat="44.587616536851975" lon="10.048317571806301"><ele>896.0</ele><time>2026-03-29T09:42:24Z</time></trkpt><trkpt lat="44.587515255777504" lon="10.048531213978562"><ele>894.5</ele><time>2026-03-29T09:42:25Z</time></trkpt><trkpt lat="44.58745354570387" lon="10.048705476728994"><ele>893.0</ele><time>2026-03-29T09:42:26Z</time></trkpt><trkpt lat="44.58743445240695" lon="10.048831594935342"><ele>891.5</ele><time>2026-03-29T09:42:27Z</time></trkpt><trkpt lat="44.58747028419701" lon="10.04896084016696"><ele>890.0</ele><time>2026-03-29T09:42:28Z</time></trkpt><trkpt lat="44.58757390288305" lon="10.049059901786514"><ele>890.0</ele><time>2026-03-29T09:42:29Z</time></trkpt><trkpt lat="44.587735519349586" lon="10.049101989384"><ele>890.0</ele><time>2026-03-29T09:42:30Z</time></trkpt><trkpt lat="44.5879403632557" lon="10.049100726278246"><ele>890.0</ele><time>2026-03-29T09:42:31Z</time></trkpt><trkpt lat="44.58815316405082" lon="10.049115469059805"><ele>896.3333333333334</ele><time>2026-03-29T09:42:32Z</time></trkpt><trkpt lat="44.58834197539686" lon="10.049185640077015"><ele>902.6666666666667</ele><time>2026-03-29T09:42:33Z</time></trkpt><trkpt lat="44.58852882319718" lon="10.049295048142948"><ele>909.0</ele><time>2026-03-29T09:42:34Z</time></trkpt><trkpt lat="44.58872308277319" lon="10.04947782100606"><ele>911.5</ele><time>2026-03-29T09:42:35Z</time></trkpt><trkpt lat="44.588923045553194" lon="10.049709904550443"><ele>914.0</ele><time>2026-03-29T09:42:36Z</time></trkpt><trkpt lat="44.58912251181811" lon="10.049980860629475"><ele>914.0</ele><time>2026-03-29T09:42:37Z</time></trkpt><trkpt lat="44.58925311062028" lon="10.050193641245333"><ele>914.0</ele><time>2026-03-29T09:42:38Z</time></trkpt><trkpt lat="44.58936813491429" lon="10.050439816552235"><ele>914.0</ele><time>2026-03-29T09:42:39Z</time></trkpt><trkpt lat="44.58944466910584" lon="10.050756367585342"><ele>909.0</ele><time>2026-03-29T09:42:40Z</time></trkpt><trkpt lat="44.589493864810784" lon="10.05107044124643"><ele>904.0</ele><time>2026-03-29T09:42:41Z</time></trkpt><trkpt lat="44.58951256173969" lon="10.05133971175001"><ele>899.0</ele><time>2026-03-29T09:42:42Z</time></trkpt><trkpt lat="44.58951157912097" lon="10.051662969317722"><ele>897.0</ele><time>2026-03-29T09:42:43Z</time></trkpt><trkpt lat="44.5894976226836" lon="10.052024065296216"><ele>895.0</ele><time>2026-03-29T09:42:44Z</time></trkpt><trkpt lat="44.589493445180516" lon="10.052376131186582"><ele>895.6666666666666</ele><time>2026-03-29T09:42:45Z</time></trkpt><trkpt lat="44.58948049772547" lon="10.0527063146971"><ele>896.3333333333333</ele><time>2026-03-29T09:42:46Z</time></trkpt><trkpt lat="44.5894741454883" lon="10.052963616298989"><ele>897.0</ele><time>2026-03-29T09:42:47Z</time></trkpt><trkpt lat="44.589484584390085" lon="10.05319972138657"><ele>905.6666666666667</ele><time>2026-03-29T09:42:48Z</time></trkpt><trkpt lat="44.58954205860358" lon="10.053400484545804"><ele>914.3333333333334</ele><time>2026-03-29T09:42:48.999Z</time></trkpt><trkpt lat="44.58966942918767" lon="10.053574729535006"><ele>923.0</ele><time>2026-03-29T09:42:49.999Z</time></trkpt><trkpt lat="44.589857718331565" lon="10.05372993269685"><ele>923.0</ele><time>2026-03-29T09:42:50.999Z</time></trkpt><trkpt lat="44.59004481383519" lon="10.053919181716354"><ele>923.0</ele><time>2026-03-29T09:42:51.999Z</time></trkpt><trkpt lat="44.59019837419389" lon="10.054116142977511"><ele>923.0</ele><time>2026-03-29T09:42:52.999Z</time></trkpt><trkpt lat="44.590346352119624" lon="10.054258858789979"><ele>921.0</ele><time>2026-03-29T09:42:53.999Z</time></trkpt><trkpt lat="44.59050087844028" lon="10.05436461773346"><ele>919.0</ele><time>2026-03-29T09:42:54.999Z</time></trkpt><trkpt lat="44.59068253038232" lon="10.054375901786832"><ele>917.0</ele><time>2026-03-29T09:42:55.999Z</time></trkpt><trkpt lat="44.59082433467022" lon="10.054417382974503"><ele>917.0</ele><time>2026-03-29T09:42:56.999Z</time></trkpt><trkpt lat="44.59092562469119" lon="10.054539686854811"><ele>917.0</ele><time>2026-03-29T09:42:57.999Z</time></trkpt><trkpt lat="44.59097783705952" lon="10.054730705534825"><ele>917.0</ele><time>2026-03-29T09:42:58.999Z</time></trkpt><trkpt lat="44.59105386353592" lon="10.054986346699357"><ele>915.6666666666667</ele><time>2026-03-29T09:42:59.999Z</time></trkpt><trkpt lat="44.591141090702095" lon="10.055214392369914"><ele>914.3333333333333</ele><time>2026-03-29T09:43:00.999Z</time></trkpt><trkpt lat="44.59125677860059" lon="10.055384533351873"><ele>913.0</ele><time>2026-03-29T09:43:01.999Z</time></trkpt><trkpt lat="44.59142433201623" lon="10.05546857629174"><ele>913.0</ele><time>2026-03-29T09:43:02.999Z</time></trkpt><trkpt lat="44.59161705699422" lon="10.0554452365848"><ele>913.0</ele><time>2026-03-29T09:43:03.999Z</time></trkpt><trkpt lat="44.591815069893975" lon="10.055349422104111"><ele>913.0</ele><time>2026-03-29T09:43:04.999Z</time></trkpt><trkpt lat="44.591998561185555" lon="10.055275125545352"><ele>911.6666666666666</ele><time>2026-03-29T09:43:05.999Z</time></trkpt><trkpt lat="44.592162388673444" lon="10.055267785081154"><ele>910.3333333333333</ele><time>2026-03-29T09:43:06.999Z</time></trkpt><trkpt lat="44.59231070199702" lon="10.055279725097261"><ele>909.0</ele><time>2026-03-29T09:43:07.999Z</time></trkpt><trkpt lat="44.59242438824507" lon="10.055418101055084"><ele>909.0</ele><time>2026-03-29T09:43:08.999Z</time></trkpt><trkpt lat="44.59257597078143" lon="10.055618497200669"><ele>909.0</ele><time>2026-03-29T09:43:09.999Z</time></trkpt><trkpt lat="44.59274157704024" lon="10.055805247571925"><ele>909.0</ele><time>2026-03-29T09:43:10.999Z</time></trkpt><trkpt lat="44.592873316777556" lon="10.055993252058359"><ele>904.0</ele><time>2026-03-29T09:43:11.999Z</time></trkpt><trkpt lat="44.59297641961808" lon="10.056225163045454"><ele>899.0</ele><time>2026-03-29T09:43:12.999Z</time></trkpt><trkpt lat="44.593041693786034" lon="10.056479749583465"><ele>894.0</ele><time>2026-03-29T09:43:13.999Z</time></trkpt><trkpt lat="44.59311076205763" lon="10.056751063700588"><ele>892.6666666666667</ele><time>2026-03-29T09:43:14.999Z</time></trkpt><trkpt lat="44.59314852237492" lon="10.057031664096131"><ele>891.3333333333334</ele><time>2026-03-29T09:43:15.999Z</time></trkpt><trkpt lat="44.593199488517605" lon="10.057289723264889"><ele>890.0</ele><time>2026-03-29T09:43:16.999Z</time></trkpt><trkpt lat="44.59326782844771" lon="10.057561903923105"><ele>887.0</ele><time>2026-03-29T09:43:17.999Z</time></trkpt><trkpt lat="44.59336322879862" lon="10.05782669324713"><ele>884.0</ele><time>2026-03-29T09:43:18.999Z</time></trkpt><trkpt lat="44.59348538566264" lon="10.058081277806057"><ele>881.0</ele><time>2026-03-29T09:43:19.999Z</time></trkpt><trkpt lat="44.593633075420726" lon="10.058300139554769"><ele>880.0</ele><time>2026-03-29T09:43:20.999Z</time></trkpt><trkpt lat="44.59380482577722" lon="10.058488442208267"><ele>879.0</ele><time>2026-03-29T09:43:21.999Z</time></trkpt><trkpt lat="44.59399365079014" lon="10.058618405938944"><ele>878.0</ele><time>2026-03-29T09:43:22.999Z</time></trkpt><trkpt lat="44.594157561322916" lon="10.058777711868379"><ele>878.0</ele><time>2026-03-29T09:43:23.999Z</time></trkpt><trkpt lat="44.59426109112011" lon="10.058988147201847"><ele>878.0</ele><time>2026-03-29T09:43:24.999Z</time></trkpt><trkpt lat="44.59431511208585" lon="10.059236759466614"><ele>878.0</ele><time>2026-03-29T09:43:26Z</time></trkpt><trkpt lat="44.59437925147158" lon="10.059523022674307"><ele>877.6666666666667</ele><time>2026-03-29T09:43:27Z</time></trkpt><trkpt lat="44.59441355182581" lon="10.05980818421724"><ele>877.3333333333333</ele><time>2026-03-29T09:43:28Z</time></trkpt><trkpt lat="44.59445622908159" lon="10.060075141016501"><ele>877.0</ele><time>2026-03-29T09:43:29Z</time></trkpt><trkpt lat="44.59450043537172" lon="10.060339271010971"><ele>879.6666666666666</ele><time>2026-03-29T09:43:30Z</time></trkpt><trkpt lat="44.594546280168494" lon="10.060594635555251"><ele>882.3333333333333</ele><time>2026-03-29T09:43:31Z</time></trkpt><trkpt lat="44.594594984466454" lon="10.060834098344719"><ele>885.0</ele><time>2026-03-29T09:43:32Z</time></trkpt><trkpt lat="44.59465412913235" lon="10.06106338725319"><ele>887.0</ele><time>2026-03-29T09:43:33Z</time></trkpt><trkpt lat="44.5947419562678" lon="10.061280476564423"><ele>889.0</ele><time>2026-03-29T09:43:34Z</time></trkpt><trkpt lat="44.59484939986985" lon="10.061495718353273"><ele>891.0</ele><time>2026-03-29T09:43:35Z</time></trkpt><trkpt lat="44.594961919535066" lon="10.061702258687784"><ele>891.0</ele><time>2026-03-29T09:43:36Z</time></trkpt><trkpt lat="44.5950883558045" lon="10.061889911362941"><ele>891.0</ele><time>2026-03-29T09:43:37Z</time></trkpt><trkpt lat="44.59523254254197" lon="10.062069883965574"><ele>891.0</ele><time>2026-03-29T09:43:38Z</time></trkpt><trkpt lat="44.595365907964734" lon="10.062260969359496"><ele>893.0</ele><time>2026-03-29T09:43:39Z</time></trkpt><trkpt lat="44.59549637674981" lon="10.06243684036671"><ele>895.0</ele><time>2026-03-29T09:43:40Z</time></trkpt><trkpt lat="44.595618396943536" lon="10.062609664182798"><ele>897.0</ele><time>2026-03-29T09:43:41Z</time></trkpt><trkpt lat="44.595715082667496" lon="10.062800097499315"><ele>897.0</ele><time>2026-03-29T09:43:42Z</time></trkpt><trkpt lat="44.59576901463968" lon="10.063033336595666"><ele>897.0</ele><time>2026-03-29T09:43:43Z</time></trkpt><trkpt lat="44.59578240177226" lon="10.06329493831645"><ele>897.0</ele><time>2026-03-29T09:43:44Z</time></trkpt><trkpt lat="44.595739830668705" lon="10.063569537231817"><ele>893.3333333333333</ele><time>2026-03-29T09:43:45Z</time></trkpt><trkpt lat="44.595687694682056" lon="10.063848905947909"><ele>889.6666666666666</ele><time>2026-03-29T09:43:46Z</time></trkpt><trkpt lat="44.59563466199033" lon="10.064117465069613"><ele>886.0</ele><time>2026-03-29T09:43:47Z</time></trkpt><trkpt lat="44.59562713537198" lon="10.064405532060157"><ele>885.0</ele><time>2026-03-29T09:43:48Z</time></trkpt><trkpt lat="44.59564153874383" lon="10.064698494510791"><ele>884.0</ele><time>2026-03-29T09:43:49Z</time></trkpt><trkpt lat="44.59565812685811" lon="10.064989562410224"><ele>883.0</ele><time>2026-03-29T09:43:50Z</time></trkpt><trkpt lat="44.59569834046219" lon="10.06527642346887"><ele>881.3333333333333</ele><time>2026-03-29T09:43:51Z</time></trkpt><trkpt lat="44.595731376287134" lon="10.065543358784007"><ele>879.6666666666667</ele><time>2026-03-29T09:43:52Z</time></trkpt><trkpt lat="44.59570071521655" lon="10.065820814933153"><ele>878.0</ele><time>2026-03-29T09:43:53Z</time></trkpt><trkpt lat="44.59568231583039" lon="10.066124705078733"><ele>874.6666666666667</ele><time>2026-03-29T09:43:54Z</time></trkpt><trkpt lat="44.59568041300911" lon="10.066437422050278"><ele>871.3333333333333</ele><time>2026-03-29T09:43:55Z</time></trkpt><trkpt lat="44.59570579769941" lon="10.066730433051108"><ele>868.0</ele><time>2026-03-29T09:43:56Z</time></trkpt><trkpt lat="44.595740852449055" lon="10.067030632811445"><ele>865.6666666666666</ele><time>2026-03-29T09:43:57Z</time></trkpt><trkpt lat="44.59578765251454" lon="10.067316369187795"><ele>863.3333333333333</ele><time>2026-03-29T09:43:58Z</time></trkpt><trkpt lat="44.59583813023981" lon="10.067574241202033"><ele>861.0</ele><time>2026-03-29T09:43:59Z</time></trkpt><trkpt lat="44.5959002439085" lon="10.067825484360108"><ele>863.3333333333333</ele><time>2026-03-29T09:44:00Z</time></trkpt><trkpt lat="44.59599658620459" lon="10.068062275820695"><ele>865.6666666666666</ele><time>2026-03-29T09:44:01Z</time></trkpt><trkpt lat="44.59612262654404" lon="10.06828914655455"><ele>868.0</ele><time>2026-03-29T09:44:02Z</time></trkpt><trkpt lat="44.59622031220683" lon="10.068541098511364"><ele>868.0</ele><time>2026-03-29T09:44:03Z</time></trkpt><trkpt lat="44.5962984548206" lon="10.068804070777349"><ele>868.0</ele><time>2026-03-29T09:44:04Z</time></trkpt><trkpt lat="44.59634854355611" lon="10.069071253037498"><ele>868.0</ele><time>2026-03-29T09:44:05Z</time></trkpt><trkpt lat="44.59639031337461" lon="10.069335554537316"><ele>865.3333333333333</ele><time>2026-03-29T09:44:06Z</time></trkpt><trkpt lat="44.59644364225649" lon="10.069575598379997"><ele>862.6666666666667</ele><time>2026-03-29T09:44:07Z</time></trkpt><trkpt lat="44.596502225537414" lon="10.069770061118652"><ele>860.0</ele><time>2026-03-29T09:44:08Z</time></trkpt><trkpt lat="44.5966023113084" lon="10.06990463939405"><ele>855.75</ele><time>2026-03-29T09:44:09Z</time></trkpt><trkpt lat="44.596733837869266" lon="10.06999396406023"><ele>851.5</ele><time>2026-03-29T09:44:10Z</time></trkpt><trkpt lat="44.59687546529484" lon="10.070032252142767"><ele>847.25</ele><time>2026-03-29T09:44:11Z</time></trkpt><trkpt lat="44.59701799605329" lon="10.070038655610581"><ele>843.0</ele><time>2026-03-29T09:44:12Z</time></trkpt><trkpt lat="44.59716161337545" lon="10.070039897447387"><ele>842.3333333333333</ele><time>2026-03-29T09:44:13Z</time></trkpt><trkpt lat="44.59734443211133" lon="10.070039897451762"><ele>841.6666666666666</ele><time>2026-03-29T09:44:14Z</time></trkpt><trkpt lat="44.597554717085565" lon="10.07003989745797"><ele>841.0</ele><time>2026-03-29T09:44:15Z</time></trkpt><trkpt lat="44.597768768577865" lon="10.070019083750234"><ele>836.3333333333333</ele><time>2026-03-29T09:44:16Z</time></trkpt><trkpt lat="44.597978694988" lon="10.07001797682628"><ele>831.6666666666667</ele><time>2026-03-29T09:44:17Z</time></trkpt><trkpt lat="44.598184338686664" lon="10.0700429294785"><ele>827.0</ele><time>2026-03-29T09:44:18Z</time></trkpt><trkpt lat="44.59837628843655" lon="10.070102053169308"><ele>827.0</ele><time>2026-03-29T09:44:19Z</time></trkpt><trkpt lat="44.598550902643176" lon="10.07020538918234"><ele>827.0</ele><time>2026-03-29T09:44:20Z</time></trkpt><trkpt lat="44.598712056364825" lon="10.070330309953691"><ele>827.0</ele><time>2026-03-29T09:44:21Z</time></trkpt><trkpt lat="44.598864410671446" lon="10.070400563796428"><ele>822.3333333333334</ele><time>2026-03-29T09:44:22Z</time></trkpt><trkpt lat="44.59902682279218" lon="10.070420909881129"><ele>817.6666666666667</ele><time>2026-03-29T09:44:23Z</time></trkpt><trkpt lat="44.599208732433965" lon="10.07035152263466"><ele>813.0</ele><time>2026-03-29T09:44:24Z</time></trkpt><trkpt lat="44.59937311390718" lon="10.070243375908886"><ele>809.0</ele><time>2026-03-29T09:44:25Z</time></trkpt><trkpt lat="44.599516085274956" lon="10.070233734027827"><ele>805.0</ele><time>2026-03-29T09:44:26Z</time></trkpt><trkpt lat="44.599645195934535" lon="10.070279546036884"><ele>801.0</ele><time>2026-03-29T09:44:27Z</time></trkpt><trkpt lat="44.59978764201257" lon="10.070421393124036"><ele>801.0</ele><time>2026-03-29T09:44:28Z</time></trkpt><trkpt lat="44.59997917026973" lon="10.070563831758811"><ele>801.0</ele><time>2026-03-29T09:44:29Z</time></trkpt><trkpt lat="44.60017437382128" lon="10.070731899620636"><ele>801.0</ele><time>2026-03-29T09:44:30Z</time></trkpt><trkpt lat="44.600340811494135" lon="10.070896994924988"><ele>798.6666666666667</ele><time>2026-03-29T09:44:31Z</time></trkpt><trkpt lat="44.600440668769444" lon="10.07106558122219"><ele>796.3333333333334</ele><time>2026-03-29T09:44:32Z</time></trkpt><trkpt lat="44.6005004395599" lon="10.071278890897963"><ele>794.0</ele><time>2026-03-29T09:44:33Z</time></trkpt><trkpt lat="44.60055345285176" lon="10.071493646797652"><ele>795.25</ele><time>2026-03-29T09:44:34Z</time></trkpt><trkpt lat="44.60060883763305" lon="10.071687799611643"><ele>796.5</ele><time>2026-03-29T09:44:35Z</time></trkpt><trkpt lat="44.600645962960456" lon="10.071826368061739"><ele>797.75</ele><time>2026-03-29T09:44:36Z</time></trkpt><trkpt lat="44.600713847262405" lon="10.071928832507526"><ele>799.0</ele><time>2026-03-29T09:44:37Z</time></trkpt><trkpt lat="44.60081459161121" lon="10.072001174742288"><ele>799.0</ele><time>2026-03-29T09:44:38Z</time></trkpt><trkpt lat="44.600946426918455" lon="10.071989510485492"><ele>799.0</ele><time>2026-03-29T09:44:39Z</time></trkpt><trkpt lat="44.60107700702989" lon="10.071913231823917"><ele>799.0</ele><time>2026-03-29T09:44:40Z</time></trkpt><trkpt lat="44.601215932807804" lon="10.071761628078667"><ele>799.0</ele><time>2026-03-29T09:44:41Z</time></trkpt><trkpt lat="44.60136637567615" lon="10.071615604000115"><ele>795.3333333333333</ele><time>2026-03-29T09:44:42Z</time></trkpt><trkpt lat="44.60153690425493" lon="10.071479099418976"><ele>791.6666666666667</ele><time>2026-03-29T09:44:43Z</time></trkpt><trkpt lat="44.601718733779634" lon="10.071319208589184"><ele>788.0</ele><time>2026-03-29T09:44:44Z</time></trkpt><trkpt lat="44.601882700771036" lon="10.07117130495186"><ele>787.6666666666667</ele><time>2026-03-29T09:44:45Z</time></trkpt><trkpt lat="44.6020409869432" lon="10.071030136138209"><ele>787.3333333333333</ele><time>2026-03-29T09:44:46Z</time></trkpt><trkpt lat="44.602187452373656" lon="10.070897524172105"><ele>787.0</ele><time>2026-03-29T09:44:47Z</time></trkpt><trkpt lat="44.60233009092309" lon="10.070804331955442"><ele>787.0</ele><time>2026-03-29T09:44:48Z</time></trkpt><trkpt lat="44.60244202864329" lon="10.070721335581172"><ele>787.0</ele><time>2026-03-29T09:44:49Z</time></trkpt><trkpt lat="44.60256760097708" lon="10.070732695480698"><ele>787.0</ele><time>2026-03-29T09:44:50Z</time></trkpt><trkpt lat="44.60267840124228" lon="10.070850915677477"><ele>787.0</ele><time>2026-03-29T09:44:51Z</time></trkpt><trkpt lat="44.60273707495336" lon="10.071078972409783"><ele>783.0</ele><time>2026-03-29T09:44:52Z</time></trkpt><trkpt lat="44.60283617564791" lon="10.071331406290781"><ele>779.0</ele><time>2026-03-29T09:44:53Z</time></trkpt><trkpt lat="44.602915579454546" lon="10.071604666093188"><ele>775.0</ele><time>2026-03-29T09:44:54Z</time></trkpt><trkpt lat="44.60299861478749" lon="10.071861086014747"><ele>775.0</ele><time>2026-03-29T09:44:55Z</time></trkpt><trkpt lat="44.603095683227714" lon="10.072091386079126"><ele>775.0</ele><time>2026-03-29T09:44:56Z</time></trkpt><trkpt lat="44.60321207985809" lon="10.07230941775183"><ele>775.0</ele><time>2026-03-29T09:44:57Z</time></trkpt><trkpt lat="44.60329076030028" lon="10.072302274979934"><ele>775.0</ele><time>2026-03-29T09:44:57.999Z</time></trkpt><trkpt lat="44.603482076463294" lon="10.072290702190523"><ele>775.0</ele><time>2026-03-29T09:44:58.999Z</time></trkpt><trkpt lat="44.603684780102384" lon="10.072254619307532"><ele>775.0</ele><time>2026-03-29T09:44:59.999Z</time></trkpt><trkpt lat="44.60388620257524" lon="10.072242744274092"><ele>775.3333333333333</ele><time>2026-03-29T09:45:00.999Z</time></trkpt><trkpt lat="44.60408577287047" lon="10.072328188401164"><ele>775.6666666666667</ele><time>2026-03-29T09:45:01.999Z</time></trkpt><trkpt lat="44.60428878871769" lon="10.072407090301528"><ele>776.0</ele><time>2026-03-29T09:45:02.999Z</time></trkpt><trkpt lat="44.60447746611833" lon="10.072451182497012"><ele>772.6666666666667</ele><time>2026-03-29T09:45:03.999Z</time></trkpt><trkpt lat="44.60466777552133" lon="10.072407157530197"><ele>769.3333333333334</ele><time>2026-03-29T09:45:04.999Z</time></trkpt><trkpt lat="44.604901805278836" lon="10.072290275714277"><ele>766.0</ele><time>2026-03-29T09:45:05.999Z</time></trkpt><trkpt lat="44.60516808751646" lon="10.072211526362064"><ele>767.5</ele><time>2026-03-29T09:45:06.999Z</time></trkpt><trkpt lat="44.60542670889246" lon="10.072119798225906"><ele>769.0</ele><time>2026-03-29T09:45:07.999Z</time></trkpt><trkpt lat="44.60567846667057" lon="10.072006818920082"><ele>769.0</ele><time>2026-03-29T09:45:08.999Z</time></trkpt><trkpt lat="44.605900846104745" lon="10.071912176165911"><ele>769.0</ele><time>2026-03-29T09:45:09.999Z</time></trkpt><trkpt lat="44.606072756716095" lon="10.07181697967977"><ele>769.0</ele><time>2026-03-29T09:45:10.999Z</time></trkpt><trkpt lat="44.606239103492825" lon="10.071802850289677"><ele>768.6666666666666</ele><time>2026-03-29T09:45:11.999Z</time></trkpt><trkpt lat="44.60640543204101" lon="10.071901393981893"><ele>768.3333333333333</ele><time>2026-03-29T09:45:12.999Z</time></trkpt><trkpt lat="44.606615563863954" lon="10.0719507723515"><ele>768.0</ele><time>2026-03-29T09:45:13.999Z</time></trkpt><trkpt lat="44.60682576987451" lon="10.071984144160831"><ele>773.5</ele><time>2026-03-29T09:45:14.999Z</time></trkpt><trkpt lat="44.60707052937362" lon="10.071956040336485"><ele>779.0</ele><time>2026-03-29T09:45:15.999Z</time></trkpt><trkpt lat="44.607294571427246" lon="10.071947645968823"><ele>779.0</ele><time>2026-03-29T09:45:16.999Z</time></trkpt><trkpt lat="44.60747512724603" lon="10.071946079187303"><ele>779.0</ele><time>2026-03-29T09:45:17.999Z</time></trkpt><trkpt lat="44.60762145560318" lon="10.071901137835724"><ele>779.0</ele><time>2026-03-29T09:45:18.999Z</time></trkpt><trkpt lat="44.607757252733805" lon="10.071764370485626"><ele>777.0</ele><time>2026-03-29T09:45:19.999Z</time></trkpt><trkpt lat="44.607898931568876" lon="10.071543411338327"><ele>775.0</ele><time>2026-03-29T09:45:20.999Z</time></trkpt><trkpt lat="44.60805949189545" lon="10.071351022096634"><ele>773.0</ele><time>2026-03-29T09:45:21.999Z</time></trkpt><trkpt lat="44.60822801200711" lon="10.071273828812386"><ele>773.0</ele><time>2026-03-29T09:45:22.999Z</time></trkpt><trkpt lat="44.60841878084161" lon="10.071277380125519"><ele>773.0</ele><time>2026-03-29T09:45:23.999Z</time></trkpt><trkpt lat="44.60865917203873" lon="10.071345557912638"><ele>773.0</ele><time>2026-03-29T09:45:24.999Z</time></trkpt><trkpt lat="44.60890559611255" lon="10.071408034981864"><ele>773.0</ele><time>2026-03-29T09:45:25.999Z</time></trkpt><trkpt lat="44.60913203301922" lon="10.071497437107658"><ele>773.0</ele><time>2026-03-29T09:45:26.999Z</time></trkpt><trkpt lat="44.6093465778658" lon="10.071566941755094"><ele>777.6666666666667</ele><time>2026-03-29T09:45:27.999Z</time></trkpt><trkpt lat="44.609533975265514" lon="10.071625367931786"><ele>782.3333333333333</ele><time>2026-03-29T09:45:28.999Z</time></trkpt><trkpt lat="44.60971717798163" lon="10.071681966924924"><ele>787.0</ele><time>2026-03-29T09:45:29.999Z</time></trkpt><trkpt lat="44.60992133087561" lon="10.071743614574219"><ele>787.0</ele><time>2026-03-29T09:45:30.999Z</time></trkpt><trkpt lat="44.61012155592842" lon="10.071804507462891"><ele>787.0</ele><time>2026-03-29T09:45:32Z</time></trkpt><trkpt lat="44.610300494019135" lon="10.071842308356848"><ele>787.0</ele><time>2026-03-29T09:45:33Z</time></trkpt><trkpt lat="44.61048536778185" lon="10.07182116072142"><ele>786.6666666666666</ele><time>2026-03-29T09:45:34Z</time></trkpt><trkpt lat="44.61067456580994" lon="10.07173814997821"><ele>786.3333333333333</ele><time>2026-03-29T09:45:35Z</time></trkpt><trkpt lat="44.61083511206042" lon="10.071590001544713"><ele>786.0</ele><time>2026-03-29T09:45:36Z</time></trkpt><trkpt lat="44.6109521299128" lon="10.071374685613184"><ele>786.0</ele><time>2026-03-29T09:45:37Z</time></trkpt><trkpt lat="44.61101769453033" lon="10.071090046027514"><ele>786.0</ele><time>2026-03-29T09:45:38Z</time></trkpt><trkpt lat="44.61105183946188" lon="10.070768913221192"><ele>786.0</ele><time>2026-03-29T09:45:39Z</time></trkpt><trkpt lat="44.61111018035073" lon="10.07045650279487"><ele>786.75</ele><time>2026-03-29T09:45:40Z</time></trkpt><trkpt lat="44.61116279272367" lon="10.070196454851693"><ele>787.5</ele><time>2026-03-29T09:45:41Z</time></trkpt><trkpt lat="44.61123067602183" lon="10.070027535713859"><ele>788.25</ele><time>2026-03-29T09:45:42Z</time></trkpt><trkpt lat="44.61132406001776" lon="10.069954161033753"><ele>789.0</ele><time>2026-03-29T09:45:43Z</time></trkpt><trkpt lat="44.61145234069014" lon="10.069928518534933"><ele>789.0</ele><time>2026-03-29T09:45:44Z</time></trkpt><trkpt lat="44.61161978427306" lon="10.0699879998895"><ele>789.0</ele><time>2026-03-29T09:45:45Z</time></trkpt><trkpt lat="44.611838481063316" lon="10.070046352523246"><ele>789.0</ele><time>2026-03-29T09:45:46Z</time></trkpt><trkpt lat="44.61206897065714" lon="10.070124828145008"><ele>787.0</ele><time>2026-03-29T09:45:47Z</time></trkpt><trkpt lat="44.612293594793876" lon="10.07017133171892"><ele>785.0</ele><time>2026-03-29T09:45:48Z</time></trkpt><trkpt lat="44.61251272963957" lon="10.070200002369283"><ele>783.0</ele><time>2026-03-29T09:45:49Z</time></trkpt><trkpt lat="44.61273237880899" lon="10.070178814261673"><ele>782.5</ele><time>2026-03-29T09:45:50Z</time></trkpt><trkpt lat="44.612948820638245" lon="10.070065680054583"><ele>782.0</ele><time>2026-03-29T09:45:51Z</time></trkpt><trkpt lat="44.61315990324843" lon="10.069895438703865"><ele>777.0</ele><time>2026-03-29T09:45:52Z</time></trkpt><trkpt lat="44.61336188621547" lon="10.069664270036862"><ele>772.0</ele><time>2026-03-29T09:45:53Z</time></trkpt><trkpt lat="44.613557362325864" lon="10.069435882656247"><ele>772.0</ele><time>2026-03-29T09:45:54Z</time></trkpt><trkpt lat="44.613754866072654" lon="10.069197240706506"><ele>772.0</ele><time>2026-03-29T09:45:55Z</time></trkpt><trkpt lat="44.61395205712674" lon="10.068961779353247"><ele>767.6666666666666</ele><time>2026-03-29T09:45:56Z</time></trkpt><trkpt lat="44.61413906186947" lon="10.068751084170236"><ele>763.3333333333333</ele><time>2026-03-29T09:45:57Z</time></trkpt><trkpt lat="44.61429872989069" lon="10.06856345952236"><ele>759.0</ele><time>2026-03-29T09:45:58Z</time></trkpt><trkpt lat="44.61442643141748" lon="10.068401860552738"><ele>759.0</ele><time>2026-03-29T09:45:59Z</time></trkpt><trkpt lat="44.614571256102586" lon="10.06818080288705"><ele>759.0</ele><time>2026-03-29T09:46:00Z</time></trkpt><trkpt lat="44.61463973196582" lon="10.067972034515991"><ele>759.0</ele><time>2026-03-29T09:46:01Z</time></trkpt><trkpt lat="44.61462838583019" lon="10.067737975258991"><ele>759.0</ele><time>2026-03-29T09:46:02Z</time></trkpt><trkpt lat="44.61455082873094" lon="10.067488450956715"><ele>759.0</ele><time>2026-03-29T09:46:03Z</time></trkpt><trkpt lat="44.61456795252944" lon="10.067267693698959"><ele>759.0</ele><time>2026-03-29T09:46:04Z</time></trkpt><trkpt lat="44.614633975361215" lon="10.067084382405739"><ele>755.6666666666666</ele><time>2026-03-29T09:46:05Z</time></trkpt><trkpt lat="44.614777691473904" lon="10.066899549531703"><ele>752.3333333333333</ele><time>2026-03-29T09:46:06Z</time></trkpt><trkpt lat="44.614947942832934" lon="10.066656445379257"><ele>749.0</ele><time>2026-03-29T09:46:07Z</time></trkpt><trkpt lat="44.615113060277366" lon="10.066400595206455"><ele>746.0</ele><time>2026-03-29T09:46:08Z</time></trkpt><trkpt lat="44.61524971364358" lon="10.066193597042869"><ele>743.0</ele><time>2026-03-29T09:46:09Z</time></trkpt><trkpt lat="44.615369893738176" lon="10.06606098001762"><ele>740.0</ele><time>2026-03-29T09:46:10Z</time></trkpt><trkpt lat="44.61547533303691" lon="10.06597092569641"><ele>740.0</ele><time>2026-03-29T09:46:11Z</time></trkpt><trkpt lat="44.61564859204046" lon="10.066030886350463"><ele>740.0</ele><time>2026-03-29T09:46:12Z</time></trkpt><trkpt lat="44.615866119097156" lon="10.06610022723586"><ele>740.0</ele><time>2026-03-29T09:46:13Z</time></trkpt><trkpt lat="44.61610341236962" lon="10.066174512573156"><ele>736.0</ele><time>2026-03-29T09:46:14Z</time></trkpt><trkpt lat="44.61632781647887" lon="10.066254267256967"><ele>732.0</ele><time>2026-03-29T09:46:15Z</time></trkpt><trkpt lat="44.61653106670416" lon="10.066312788921616"><ele>728.0</ele><time>2026-03-29T09:46:16Z</time></trkpt><trkpt lat="44.61670296509991" lon="10.066357307447076"><ele>728.0</ele><time>2026-03-29T09:46:17Z</time></trkpt><trkpt lat="44.616847519355744" lon="10.066454408644384"><ele>728.0</ele><time>2026-03-29T09:46:18Z</time></trkpt><trkpt lat="44.616965874724706" lon="10.066644713094625"><ele>728.0</ele><time>2026-03-29T09:46:19Z</time></trkpt><trkpt lat="44.617091468887736" lon="10.066892971542066"><ele>726.0</ele><time>2026-03-29T09:46:20Z</time></trkpt><trkpt lat="44.61725861702871" lon="10.067084118926253"><ele>724.0</ele><time>2026-03-29T09:46:21Z</time></trkpt><trkpt lat="44.61742930541782" lon="10.067221576655534"><ele>722.0</ele><time>2026-03-29T09:46:22Z</time></trkpt><trkpt lat="44.617549474646076" lon="10.067349428351209"><ele>724.0</ele><time>2026-03-29T09:46:23Z</time></trkpt><trkpt lat="44.61761435733744" lon="10.067528583430201"><ele>726.0</ele><time>2026-03-29T09:46:24Z</time></trkpt><trkpt lat="44.61765375403702" lon="10.067738005150861"><ele>728.0</ele><time>2026-03-29T09:46:25Z</time></trkpt><trkpt lat="44.61768928572541" lon="10.067988659265284"><ele>728.0</ele><time>2026-03-29T09:46:26Z</time></trkpt><trkpt lat="44.61776159749103" lon="10.068212499075264"><ele>728.0</ele><time>2026-03-29T09:46:27Z</time></trkpt><trkpt lat="44.61789492790106" lon="10.068407630854088"><ele>728.0</ele><time>2026-03-29T09:46:28Z</time></trkpt><trkpt lat="44.61803172569654" lon="10.068606175557386"><ele>723.0</ele><time>2026-03-29T09:46:29Z</time></trkpt><trkpt lat="44.61814881550806" lon="10.068810994017676"><ele>718.0</ele><time>2026-03-29T09:46:30Z</time></trkpt><trkpt lat="44.61825297800804" lon="10.068994577225231"><ele>713.0</ele><time>2026-03-29T09:46:31Z</time></trkpt><trkpt lat="44.618328671103065" lon="10.06916377619397"><ele>713.0</ele><time>2026-03-29T09:46:32Z</time></trkpt><trkpt lat="44.6183391208255" lon="10.069358134612202"><ele>713.0</ele><time>2026-03-29T09:46:33Z</time></trkpt><trkpt lat="44.61827731008278" lon="10.06960511544958"><ele>713.0</ele><time>2026-03-29T09:46:34Z</time></trkpt><trkpt lat="44.61822546768463" lon="10.069919072313688"><ele>711.3333333333333</ele><time>2026-03-29T09:46:35Z</time></trkpt><trkpt lat="44.61817304459261" lon="10.070228609930075"><ele>709.6666666666666</ele><time>2026-03-29T09:46:36Z</time></trkpt><trkpt lat="44.618151800277644" lon="10.070452867078025"><ele>708.0</ele><time>2026-03-29T09:46:37Z</time></trkpt><trkpt lat="44.61816517486677" lon="10.070749928974347"><ele>706.6666666666666</ele><time>2026-03-29T09:46:38Z</time></trkpt><trkpt lat="44.6182083471686" lon="10.071022217391718"><ele>705.3333333333333</ele><time>2026-03-29T09:46:39Z</time></trkpt><trkpt lat="44.61817723462514" lon="10.071261450231601"><ele>704.0</ele><time>2026-03-29T09:46:40Z</time></trkpt><trkpt lat="44.61813785140596" lon="10.07150757413943"><ele>703.0</ele><time>2026-03-29T09:46:41Z</time></trkpt><trkpt lat="44.61807530070181" lon="10.071713927857225"><ele>702.0</ele><time>2026-03-29T09:46:42Z</time></trkpt><trkpt lat="44.61806950684043" lon="10.07188379158818"><ele>701.0</ele><time>2026-03-29T09:46:43Z</time></trkpt><trkpt lat="44.61810971836781" lon="10.072036197385335"><ele>700.0</ele><time>2026-03-29T09:46:44Z</time></trkpt><trkpt lat="44.61821270413067" lon="10.072165102864144"><ele>700.0</ele><time>2026-03-29T09:46:45Z</time></trkpt><trkpt lat="44.61835685378138" lon="10.072251751297793"><ele>700.0</ele><time>2026-03-29T09:46:46Z</time></trkpt><trkpt lat="44.618543662908316" lon="10.072285114948498"><ele>700.0</ele><time>2026-03-29T09:46:47Z</time></trkpt><trkpt lat="44.61876458077916" lon="10.072293967479833"><ele>691.5</ele><time>2026-03-29T09:46:48Z</time></trkpt><trkpt lat="44.619020801514864" lon="10.072318923867988"><ele>683.0</ele><time>2026-03-29T09:46:49Z</time></trkpt><trkpt lat="44.61926045181558" lon="10.072344962277452"><ele>683.0</ele><time>2026-03-29T09:46:50Z</time></trkpt><trkpt lat="44.619410760250005" lon="10.072350732306832"><ele>683.0</ele><time>2026-03-29T09:46:51Z</time></trkpt><trkpt lat="44.61952903334254" lon="10.07239451410771"><ele>683.0</ele><time>2026-03-29T09:46:52Z</time></trkpt><trkpt lat="44.61969712646268" lon="10.072412347827635"><ele>683.0</ele><time>2026-03-29T09:46:53Z</time></trkpt><trkpt lat="44.6197970668605" lon="10.072471288134674"><ele>680.6666666666666</ele><time>2026-03-29T09:46:54Z</time></trkpt><trkpt lat="44.61984200056488" lon="10.07261564864785"><ele>678.3333333333334</ele><time>2026-03-29T09:46:55Z</time></trkpt><trkpt lat="44.61982331762657" lon="10.07283150736215"><ele>676.0</ele><time>2026-03-29T09:46:56Z</time></trkpt><trkpt lat="44.61976711948072" lon="10.073115990782295"><ele>676.3333333333334</ele><time>2026-03-29T09:46:57Z</time></trkpt><trkpt lat="44.61974348232127" lon="10.07340148235453"><ele>676.6666666666666</ele><time>2026-03-29T09:46:58Z</time></trkpt><trkpt lat="44.619770168774835" lon="10.073660986904128"><ele>677.0</ele><time>2026-03-29T09:46:59Z</time></trkpt><trkpt lat="44.61987199019425" lon="10.07390419423134"><ele>677.0</ele><time>2026-03-29T09:47:00Z</time></trkpt><trkpt lat="44.62002635719064" lon="10.074059758657521"><ele>677.0</ele><time>2026-03-29T09:47:01Z</time></trkpt><trkpt lat="44.620219527559634" lon="10.074157273893992"><ele>677.0</ele><time>2026-03-29T09:47:01.999Z</time></trkpt><trkpt lat="44.62043904137812" lon="10.074247667478488"><ele>672.3333333333333</ele><time>2026-03-29T09:47:02.999Z</time></trkpt><trkpt lat="44.62061675995938" lon="10.074331992310194"><ele>667.6666666666666</ele><time>2026-03-29T09:47:03.999Z</time></trkpt><trkpt lat="44.62075210729784" lon="10.074462252378387"><ele>663.0</ele><time>2026-03-29T09:47:04.999Z</time></trkpt><trkpt lat="44.62083179574132" lon="10.074676630399585"><ele>663.0</ele><time>2026-03-29T09:47:05.999Z</time></trkpt><trkpt lat="44.62090422546111" lon="10.074851725511431"><ele>663.0</ele><time>2026-03-29T09:47:06.999Z</time></trkpt><trkpt lat="44.62097817334314" lon="10.07502328501413"><ele>663.0</ele><time>2026-03-29T09:47:07.999Z</time></trkpt><trkpt lat="44.62120814062981" lon="10.075376028203864"><ele>661.6666666666666</ele><time>2026-03-29T09:47:08.999Z</time></trkpt><trkpt lat="44.62140146674926" lon="10.075623792296184"><ele>660.3333333333333</ele><time>2026-03-29T09:47:09.999Z</time></trkpt><trkpt lat="44.62152127356907" lon="10.075800544652028"><ele>659.0</ele><time>2026-03-29T09:47:10.999Z</time></trkpt><trkpt lat="44.62165436549583" lon="10.075988661892936"><ele>659.0</ele><time>2026-03-29T09:47:11.999Z</time></trkpt><trkpt lat="44.62177593047082" lon="10.076157790945041"><ele>659.0</ele><time>2026-03-29T09:47:12.999Z</time></trkpt><trkpt lat="44.621893879228594" lon="10.076321690060581"><ele>659.0</ele><time>2026-03-29T09:47:13.999Z</time></trkpt><trkpt lat="44.62200188321064" lon="10.076468459716011"><ele>658.5</ele><time>2026-03-29T09:47:14.999Z</time></trkpt><trkpt lat="44.62210214460835" lon="10.076555484537899"><ele>658.0</ele><time>2026-03-29T09:47:15.999Z</time></trkpt><trkpt lat="44.62220238011658" lon="10.07657496436063"><ele>657.5</ele><time>2026-03-29T09:47:16.999Z</time></trkpt><trkpt lat="44.62232764900178" lon="10.07646481375746"><ele>657.0</ele><time>2026-03-29T09:47:17.999Z</time></trkpt><trkpt lat="44.622424178170505" lon="10.07628074657801"><ele>657.0</ele><time>2026-03-29T09:47:18.999Z</time></trkpt><trkpt lat="44.62254258527046" lon="10.076124626040416"><ele>657.0</ele><time>2026-03-29T09:47:19.999Z</time></trkpt><trkpt lat="44.6226976778413" lon="10.076049406973468"><ele>657.0</ele><time>2026-03-29T09:47:20.999Z</time></trkpt><trkpt lat="44.622872326284345" lon="10.076042304697951"><ele>655.6666666666666</ele><time>2026-03-29T09:47:21.999Z</time></trkpt><trkpt lat="44.623052852050336" lon="10.076099474342195"><ele>654.3333333333333</ele><time>2026-03-29T09:47:22.999Z</time></trkpt><trkpt lat="44.623186684237645" lon="10.07617586885152"><ele>653.0</ele><time>2026-03-29T09:47:23.999Z</time></trkpt><trkpt lat="44.623344697181885" lon="10.076309577347395"><ele>653.0</ele><time>2026-03-29T09:47:24.999Z</time></trkpt><trkpt lat="44.62354515729093" lon="10.07650936452092"><ele>653.0</ele><time>2026-03-29T09:47:25.999Z</time></trkpt><trkpt lat="44.62365033696742" lon="10.07673683710014"><ele>653.0</ele><time>2026-03-29T09:47:26.999Z</time></trkpt><trkpt lat="44.62362365877251" lon="10.076968104695213"><ele>652.25</ele><time>2026-03-29T09:47:27.999Z</time></trkpt><trkpt lat="44.62360469182866" lon="10.077195171054813"><ele>651.5</ele><time>2026-03-29T09:47:28.999Z</time></trkpt><trkpt lat="44.623609544330904" lon="10.077332212994714"><ele>650.75</ele><time>2026-03-29T09:47:29.999Z</time></trkpt><trkpt lat="44.62365175958767" lon="10.077546598764965"><ele>650.0</ele><time>2026-03-29T09:47:30.999Z</time></trkpt><trkpt lat="44.62371775036333" lon="10.07772100712642"><ele>650.0</ele><time>2026-03-29T09:47:31.999Z</time></trkpt><trkpt lat="44.6238550865979" lon="10.077858115448889"><ele>650.0</ele><time>2026-03-29T09:47:32.999Z</time></trkpt><trkpt lat="44.62400432521313" lon="10.077993599338438"><ele>650.0</ele><time>2026-03-29T09:47:33.999Z</time></trkpt><trkpt lat="44.62405486581764" lon="10.078201059541383"><ele>649.3333333333333</ele><time>2026-03-29T09:47:34.999Z</time></trkpt><trkpt lat="44.62405083541709" lon="10.078432545185299"><ele>648.6666666666666</ele><time>2026-03-29T09:47:35.999Z</time></trkpt><trkpt lat="44.62407681838257" lon="10.07867174751361"><ele>648.0</ele><time>2026-03-29T09:47:36.999Z</time></trkpt><trkpt lat="44.62413408600881" lon="10.078846609635859"><ele>648.0</ele><time>2026-03-29T09:47:38Z</time></trkpt><trkpt lat="44.624221031851526" lon="10.078985380190298"><ele>648.0</ele><time>2026-03-29T09:47:39Z</time></trkpt><trkpt lat="44.624401244736795" lon="10.079083074386356"><ele>648.0</ele><time>2026-03-29T09:47:40Z</time></trkpt><trkpt lat="44.624563027636974" lon="10.079178917970994"><ele>646.3333333333334</ele><time>2026-03-29T09:47:41Z</time></trkpt><trkpt lat="44.62470197587981" lon="10.079202111037032"><ele>644.6666666666667</ele><time>2026-03-29T09:47:42Z</time></trkpt><trkpt lat="44.624843785494036" lon="10.079109019694625"><ele>643.0</ele><time>2026-03-29T09:47:43Z</time></trkpt><trkpt lat="44.62500829094852" lon="10.078950364386806"><ele>643.0</ele><time>2026-03-29T09:47:44Z</time></trkpt><trkpt lat="44.62520068153299" lon="10.078787500136391"><ele>643.0</ele><time>2026-03-29T09:47:45Z</time></trkpt><trkpt lat="44.62540468355022" lon="10.078639310966627"><ele>639.6666666666667</ele><time>2026-03-29T09:47:46Z</time></trkpt><trkpt lat="44.62560683570988" lon="10.078499072803044"><ele>636.3333333333334</ele><time>2026-03-29T09:47:47Z</time></trkpt><trkpt lat="44.6257927014793" lon="10.078393080939913"><ele>633.0</ele><time>2026-03-29T09:47:48Z</time></trkpt><trkpt lat="44.62598415825877" lon="10.078386673828385"><ele>634.0</ele><time>2026-03-29T09:47:49Z</time></trkpt><trkpt lat="44.62617558284541" lon="10.078404936104457"><ele>635.0</ele><time>2026-03-29T09:47:50Z</time></trkpt><trkpt lat="44.62636471545202" lon="10.07853838207955"><ele>636.0</ele><time>2026-03-29T09:47:51Z</time></trkpt><trkpt lat="44.62655209343415" lon="10.078738096973947"><ele>636.0</ele><time>2026-03-29T09:47:52Z</time></trkpt><trkpt lat="44.62673852414771" lon="10.078955615507839"><ele>636.0</ele><time>2026-03-29T09:47:53Z</time></trkpt><trkpt lat="44.62691612123695" lon="10.079160864933014"><ele>635.0</ele><time>2026-03-29T09:47:54Z</time></trkpt><trkpt lat="44.6270832521703" lon="10.079338706354832"><ele>634.0</ele><time>2026-03-29T09:47:55Z</time></trkpt><trkpt lat="44.62723393826977" lon="10.07948879073487"><ele>633.0</ele><time>2026-03-29T09:47:56Z</time></trkpt><trkpt lat="44.62737582204819" lon="10.07960782229493"><ele>633.0</ele><time>2026-03-29T09:47:57Z</time></trkpt><trkpt lat="44.62754078909189" lon="10.079662242855578"><ele>633.0</ele><time>2026-03-29T09:47:58Z</time></trkpt><trkpt lat="44.627737767463664" lon="10.079647575488183"><ele>633.0</ele><time>2026-03-29T09:47:59Z</time></trkpt><trkpt lat="44.6279170208383" lon="10.0796440555864"><ele>631.3333333333334</ele><time>2026-03-29T09:48:00Z</time></trkpt><trkpt lat="44.62807401895481" lon="10.079704107933729"><ele>629.6666666666667</ele><time>2026-03-29T09:48:01Z</time></trkpt><trkpt lat="44.62820666004084" lon="10.079774067245227"><ele>628.0</ele><time>2026-03-29T09:48:02Z</time></trkpt><trkpt lat="44.628297776461295" lon="10.07993639714765"><ele>625.75</ele><time>2026-03-29T09:48:03Z</time></trkpt><trkpt lat="44.62836895856531" lon="10.080102731643352"><ele>623.5</ele><time>2026-03-29T09:48:04Z</time></trkpt><trkpt lat="44.62845872965391" lon="10.080176128629326"><ele>621.25</ele><time>2026-03-29T09:48:05Z</time></trkpt><trkpt lat="44.628620547835624" lon="10.08008696872403"><ele>619.0</ele><time>2026-03-29T09:48:06Z</time></trkpt><trkpt lat="44.628708016068224" lon="10.080058726764213"><ele>617.0</ele><time>2026-03-29T09:48:07Z</time></trkpt><trkpt lat="44.62877687135551" lon="10.079875257422106"><ele>615.0</ele><time>2026-03-29T09:48:08Z</time></trkpt><trkpt lat="44.62878932924395" lon="10.07964712358811"><ele>613.0</ele><time>2026-03-29T09:48:09Z</time></trkpt><trkpt lat="44.628770191152476" lon="10.07941141588085"><ele>613.0</ele><time>2026-03-29T09:48:10Z</time></trkpt><trkpt lat="44.62881225026443" lon="10.079226352999475"><ele>613.0</ele><time>2026-03-29T09:48:11Z</time></trkpt><trkpt lat="44.62894332583193" lon="10.079129554192168"><ele>613.0</ele><time>2026-03-29T09:48:12Z</time></trkpt><trkpt lat="44.629083783613" lon="10.079102759817838"><ele>613.0</ele><time>2026-03-29T09:48:13Z</time></trkpt><trkpt lat="44.62925366586622" lon="10.079128391913233"><ele>613.0</ele><time>2026-03-29T09:48:14Z</time></trkpt><trkpt lat="44.62945097257055" lon="10.079143004087983"><ele>613.0</ele><time>2026-03-29T09:48:15Z</time></trkpt><trkpt lat="44.629606944412124" lon="10.079151852272634"><ele>613.0</ele><time>2026-03-29T09:48:16Z</time></trkpt><trkpt lat="44.62973868224178" lon="10.079129434584502"><ele>614.0</ele><time>2026-03-29T09:48:17Z</time></trkpt><trkpt lat="44.629863025406294" lon="10.07911688187641"><ele>615.0</ele><time>2026-03-29T09:48:18Z</time></trkpt><trkpt lat="44.62997713188832" lon="10.079070011024333"><ele>616.0</ele><time>2026-03-29T09:48:19Z</time></trkpt><trkpt lat="44.63009740659294" lon="10.078963561279377"><ele>617.0</ele><time>2026-03-29T09:48:20Z</time></trkpt><trkpt lat="44.63021086554994" lon="10.078772206543714"><ele>617.0</ele><time>2026-03-29T09:48:21Z</time></trkpt><trkpt lat="44.630308046034344" lon="10.078537576971884"><ele>617.0</ele><time>2026-03-29T09:48:22Z</time></trkpt><trkpt lat="44.63043006209989" lon="10.078391060485885"><ele>617.0</ele><time>2026-03-29T09:48:23Z</time></trkpt><trkpt lat="44.63057567170877" lon="10.07828635233"><ele>616.0</ele><time>2026-03-29T09:48:24Z</time></trkpt><trkpt lat="44.63071845423584" lon="10.078231864230428"><ele>615.0</ele><time>2026-03-29T09:48:25Z</time></trkpt><trkpt lat="44.63085879779259" lon="10.07824500148533"><ele>614.0</ele><time>2026-03-29T09:48:26Z</time></trkpt><trkpt lat="44.63099832889337" lon="10.078342097653866"><ele>613.0</ele><time>2026-03-29T09:48:27Z</time></trkpt><trkpt lat="44.631114515008534" lon="10.078507253518197"><ele>609.0</ele><time>2026-03-29T09:48:28Z</time></trkpt><trkpt lat="44.631265893039426" lon="10.078716917842652"><ele>605.0</ele><time>2026-03-29T09:48:29Z</time></trkpt><trkpt lat="44.631412866044656" lon="10.078913603163182"><ele>601.0</ele><time>2026-03-29T09:48:30Z</time></trkpt><trkpt lat="44.63155235284906" lon="10.079056214365886"><ele>599.0</ele><time>2026-03-29T09:48:31Z</time></trkpt><trkpt lat="44.63169026451344" lon="10.079168323306371"><ele>597.0</ele><time>2026-03-29T09:48:32Z</time></trkpt><trkpt lat="44.63183810607043" lon="10.079207681213049"><ele>595.0</ele><time>2026-03-29T09:48:33Z</time></trkpt><trkpt lat="44.631990955201864" lon="10.079149068713614"><ele>594.6666666666667</ele><time>2026-03-29T09:48:34Z</time></trkpt><trkpt lat="44.63215422287346" lon="10.079110251962545"><ele>594.3333333333334</ele><time>2026-03-29T09:48:35Z</time></trkpt><trkpt lat="44.63231157200101" lon="10.07907816631595"><ele>594.0</ele><time>2026-03-29T09:48:36Z</time></trkpt><trkpt lat="44.63246893267879" lon="10.079053964394653"><ele>594.0</ele><time>2026-03-29T09:48:37Z</time></trkpt><trkpt lat="44.63262956738102" lon="10.079034859984741"><ele>594.0</ele><time>2026-03-29T09:48:38Z</time></trkpt><trkpt lat="44.63278549885644" lon="10.079016169029613"><ele>594.0</ele><time>2026-03-29T09:48:39Z</time></trkpt><trkpt lat="44.63293915765443" lon="10.078994133047997"><ele>592.0</ele><time>2026-03-29T09:48:40Z</time></trkpt><trkpt lat="44.63310284587148" lon="10.078977421804796"><ele>590.0</ele><time>2026-03-29T09:48:41Z</time></trkpt><trkpt lat="44.63325598969216" lon="10.078953058394204"><ele>588.0</ele><time>2026-03-29T09:48:42Z</time></trkpt><trkpt lat="44.633415985393675" lon="10.078923722886792"><ele>588.0</ele><time>2026-03-29T09:48:43Z</time></trkpt><trkpt lat="44.633577972115454" lon="10.078903152463283"><ele>588.0</ele><time>2026-03-29T09:48:44Z</time></trkpt><trkpt lat="44.633736909629945" lon="10.07888624198584"><ele>588.0</ele><time>2026-03-29T09:48:45Z</time></trkpt><trkpt lat="44.633892509606426" lon="10.07886750236165"><ele>587.3333333333334</ele><time>2026-03-29T09:48:46Z</time></trkpt><trkpt lat="44.634076138912626" lon="10.078838664176807"><ele>586.6666666666667</ele><time>2026-03-29T09:48:47Z</time></trkpt><trkpt lat="44.63425985160975" lon="10.078803645878262"><ele>586.0</ele><time>2026-03-29T09:48:48Z</time></trkpt><trkpt lat="44.63444364690647" lon="10.078772807585983"><ele>585.0</ele><time>2026-03-29T09:48:49Z</time></trkpt><trkpt lat="44.63464118536407" lon="10.078746473184024"><ele>584.0</ele><time>2026-03-29T09:48:50Z</time></trkpt><trkpt lat="44.63482934653613" lon="10.078721529013338"><ele>583.0</ele><time>2026-03-29T09:48:51Z</time></trkpt><trkpt lat="44.63501957829979" lon="10.078770377717513"><ele>583.0</ele><time>2026-03-29T09:48:52Z</time></trkpt><trkpt lat="44.6352178201362" lon="10.0788409376665"><ele>583.0</ele><time>2026-03-29T09:48:53Z</time></trkpt><trkpt lat="44.635416420758716" lon="10.079019404848463"><ele>583.0</ele><time>2026-03-29T09:48:54Z</time></trkpt><trkpt lat="44.6356110037414" lon="10.079201839004902"><ele>584.5</ele><time>2026-03-29T09:48:55Z</time></trkpt><trkpt lat="44.6358286582978" lon="10.079340134709344"><ele>586.0</ele><time>2026-03-29T09:48:56Z</time></trkpt><trkpt lat="44.636067758848405" lon="10.079426343240051"><ele>583.0</ele><time>2026-03-29T09:48:57Z</time></trkpt><trkpt lat="44.636308642210174" lon="10.079482174412671"><ele>580.0</ele><time>2026-03-29T09:48:58Z</time></trkpt><trkpt lat="44.63654398243222" lon="10.079529743152845"><ele>580.0</ele><time>2026-03-29T09:48:59Z</time></trkpt><trkpt lat="44.63675885200739" lon="10.079572054190512"><ele>580.0</ele><time>2026-03-29T09:49:00Z</time></trkpt><trkpt lat="44.63696139782231" lon="10.079607342177598"><ele>580.0</ele><time>2026-03-29T09:49:01Z</time></trkpt><trkpt lat="44.63718865650105" lon="10.079603595284699"><ele>581.0</ele><time>2026-03-29T09:49:02Z</time></trkpt><trkpt lat="44.6374261708698" lon="10.079529450810703"><ele>582.0</ele><time>2026-03-29T09:49:03Z</time></trkpt><trkpt lat="44.637685297331444" lon="10.079449266089622"><ele>581.0</ele><time>2026-03-29T09:49:04Z</time></trkpt><trkpt lat="44.637956762885175" lon="10.079402304582658"><ele>580.0</ele><time>2026-03-29T09:49:05Z</time></trkpt><trkpt lat="44.63821087232174" lon="10.07934329660743"><ele>580.0</ele><time>2026-03-29T09:49:06Z</time></trkpt><trkpt lat="44.638445718875055" lon="10.079291193543737"><ele>580.0</ele><time>2026-03-29T09:49:07Z</time></trkpt><trkpt lat="44.63865792060848" lon="10.079248944225265"><ele>580.3333333333334</ele><time>2026-03-29T09:49:08Z</time></trkpt><trkpt lat="44.6388381090664" lon="10.079220490631023"><ele>580.6666666666666</ele><time>2026-03-29T09:49:09Z</time></trkpt><trkpt lat="44.639001017207974" lon="10.079208167022834"><ele>581.0</ele><time>2026-03-29T09:49:10Z</time></trkpt><trkpt lat="44.639168558285675" lon="10.079207236486608"><ele>581.0</ele><time>2026-03-29T09:49:11Z</time></trkpt><trkpt lat="44.639364492755575" lon="10.079215910755288"><ele>581.0</ele><time>2026-03-29T09:49:12Z</time></trkpt><trkpt lat="44.63957418898705" lon="10.07922654358046"><ele>581.0</ele><time>2026-03-29T09:49:12.999Z</time></trkpt><trkpt lat="44.63978936103049" lon="10.079230337995613"><ele>580.0</ele><time>2026-03-29T09:49:13.999Z</time></trkpt><trkpt lat="44.63999419157971" lon="10.079242001216242"><ele>579.0</ele><time>2026-03-29T09:49:14.999Z</time></trkpt><trkpt lat="44.64016735544562" lon="10.079232030641096"><ele>578.0</ele><time>2026-03-29T09:49:15.999Z</time></trkpt><trkpt lat="44.64035740633469" lon="10.079175987146213"><ele>573.0</ele><time>2026-03-29T09:49:16.999Z</time></trkpt><trkpt lat="44.64053589685546" lon="10.079019842572352"><ele>568.0</ele><time>2026-03-29T09:49:17.999Z</time></trkpt><trkpt lat="44.64071865628347" lon="10.078793756374017"><ele>568.0</ele><time>2026-03-29T09:49:18.999Z</time></trkpt><trkpt lat="44.64092591404182" lon="10.078627130866222"><ele>568.0</ele><time>2026-03-29T09:49:19.999Z</time></trkpt><trkpt lat="44.64110735888885" lon="10.07846231820237"><ele>567.3333333333334</ele><time>2026-03-29T09:49:20.999Z</time></trkpt><trkpt lat="44.641266564114815" lon="10.07829292045474"><ele>566.6666666666666</ele><time>2026-03-29T09:49:21.999Z</time></trkpt><trkpt lat="44.641423161235615" lon="10.078182638441737"><ele>566.0</ele><time>2026-03-29T09:49:22.999Z</time></trkpt><trkpt lat="44.64154810615517" lon="10.078072559724188"><ele>564.0</ele><time>2026-03-29T09:49:23.999Z</time></trkpt><trkpt lat="44.64168898610775" lon="10.078114533291869"><ele>562.0</ele><time>2026-03-29T09:49:24.999Z</time></trkpt><trkpt lat="44.64186196103145" lon="10.0782160324586"><ele>560.0</ele><time>2026-03-29T09:49:25.999Z</time></trkpt><trkpt lat="44.64207428789435" lon="10.078310449508225"><ele>560.0</ele><time>2026-03-29T09:49:26.999Z</time></trkpt><trkpt lat="44.64227827490449" lon="10.078389087305206"><ele>560.0</ele><time>2026-03-29T09:49:27.999Z</time></trkpt><trkpt lat="44.642475353137804" lon="10.078408083906842"><ele>560.0</ele><time>2026-03-29T09:49:28.999Z</time></trkpt><trkpt lat="44.64266216033783" lon="10.078352759794546"><ele>555.6666666666666</ele><time>2026-03-29T09:49:29.999Z</time></trkpt><trkpt lat="44.642847152062814" lon="10.07820576244211"><ele>551.3333333333334</ele><time>2026-03-29T09:49:30.999Z</time></trkpt><trkpt lat="44.64301837966452" lon="10.077994385059617"><ele>547.0</ele><time>2026-03-29T09:49:31.999Z</time></trkpt><trkpt lat="44.643140537341544" lon="10.07772040621078"><ele>547.0</ele><time>2026-03-29T09:49:32.999Z</time></trkpt><trkpt lat="44.64324688770537" lon="10.07747548002067"><ele>547.0</ele><time>2026-03-29T09:49:33.999Z</time></trkpt><trkpt lat="44.64334982693129" lon="10.07733878371699"><ele>547.0</ele><time>2026-03-29T09:49:34.999Z</time></trkpt><trkpt lat="44.643420904783945" lon="10.07727174422103"><ele>547.0</ele><time>2026-03-29T09:49:35.999Z</time></trkpt><trkpt lat="44.64352372363423" lon="10.07725027274332"><ele>544.3333333333334</ele><time>2026-03-29T09:49:36.999Z</time></trkpt><trkpt lat="44.64367432455684" lon="10.077355479203971"><ele>541.6666666666666</ele><time>2026-03-29T09:49:37.999Z</time></trkpt><trkpt lat="44.643871976082984" lon="10.07743735505105"><ele>539.0</ele><time>2026-03-29T09:49:38.999Z</time></trkpt><trkpt lat="44.644053277667346" lon="10.077532457115064"><ele>539.0</ele><time>2026-03-29T09:49:39.999Z</time></trkpt><trkpt lat="44.64419583227105" lon="10.077655264005045"><ele>539.0</ele><time>2026-03-29T09:49:40.999Z</time></trkpt><trkpt lat="44.64424786667406" lon="10.077862522590195"><ele>539.0</ele><time>2026-03-29T09:49:41.999Z</time></trkpt><trkpt lat="44.644244806075136" lon="10.078097944990304"><ele>540.0</ele><time>2026-03-29T09:49:42.999Z</time></trkpt><trkpt lat="44.64425508433045" lon="10.078403803785104"><ele>541.0</ele><time>2026-03-29T09:49:44Z</time></trkpt><trkpt lat="44.6442401637206" lon="10.078687003768634"><ele>542.0</ele><time>2026-03-29T09:49:45Z</time></trkpt><trkpt lat="44.644246059094364" lon="10.078893521402522"><ele>541.3333333333333</ele><time>2026-03-29T09:49:46Z</time></trkpt><trkpt lat="44.64429761412333" lon="10.079114394282769"><ele>540.6666666666666</ele><time>2026-03-29T09:49:47Z</time></trkpt><trkpt lat="44.64442457801785" lon="10.079303305958957"><ele>540.0</ele><time>2026-03-29T09:49:48Z</time></trkpt><trkpt lat="44.64460987600387" lon="10.079456211382643"><ele>533.0</ele><time>2026-03-29T09:49:49Z</time></trkpt><trkpt lat="44.644770967806764" lon="10.07955239198518"><ele>526.0</ele><time>2026-03-29T09:49:50Z</time></trkpt><trkpt lat="44.64500676841877" lon="10.079619111467842"><ele>519.0</ele><time>2026-03-29T09:49:51Z</time></trkpt><trkpt lat="44.64523540448534" lon="10.079707832913703"><ele>509.0</ele><time>2026-03-29T09:49:52Z</time></trkpt><trkpt lat="44.64546512980713" lon="10.079806009793337"><ele>499.0</ele><time>2026-03-29T09:49:53Z</time></trkpt><trkpt lat="44.645697132910044" lon="10.079908558338305"><ele>496.5</ele><time>2026-03-29T09:49:54Z</time></trkpt><trkpt lat="44.64591126905063" lon="10.080065497758577"><ele>494.0</ele><time>2026-03-29T09:49:55Z</time></trkpt><trkpt lat="44.64613209848746" lon="10.080216352567069"><ele>494.0</ele><time>2026-03-29T09:49:56Z</time></trkpt><trkpt lat="44.646345538356776" lon="10.080366929540322"><ele>494.0</ele><time>2026-03-29T09:49:57Z</time></trkpt><trkpt lat="44.64654574643488" lon="10.080478675869292"><ele>494.0</ele><time>2026-03-29T09:49:58Z</time></trkpt><trkpt lat="44.64669808473059" lon="10.080615771531114"><ele>494.0</ele><time>2026-03-29T09:49:59Z</time></trkpt><trkpt lat="44.64683014682361" lon="10.080756675489008"><ele>494.0</ele><time>2026-03-29T09:50:00Z</time></trkpt><trkpt lat="44.646957600425225" lon="10.080954024851813"><ele>491.3333333333333</ele><time>2026-03-29T09:50:01Z</time></trkpt><trkpt lat="44.64708596389914" lon="10.081167527329498"><ele>488.66666666666663</ele><time>2026-03-29T09:50:02Z</time></trkpt><trkpt lat="44.64721055609435" lon="10.081382973159656"><ele>486.0</ele><time>2026-03-29T09:50:03Z</time></trkpt><trkpt lat="44.64730288335957" lon="10.081591996305978"><ele>490.75</ele><time>2026-03-29T09:50:04Z</time></trkpt><trkpt lat="44.647378448926894" lon="10.081788625834424"><ele>495.5</ele><time>2026-03-29T09:50:05Z</time></trkpt><trkpt lat="44.647464059819455" lon="10.081952955757934"><ele>500.25</ele><time>2026-03-29T09:50:06Z</time></trkpt><trkpt lat="44.647551102803725" lon="10.082102637818307"><ele>505.0</ele><time>2026-03-29T09:50:07Z</time></trkpt><trkpt lat="44.64764817913791" lon="10.082197954137033"><ele>505.0</ele><time>2026-03-29T09:50:08Z</time></trkpt><trkpt lat="44.647753588875084" lon="10.082257698417925"><ele>505.0</ele><time>2026-03-29T09:50:09Z</time></trkpt><trkpt lat="44.64787268764461" lon="10.08225903739965"><ele>505.0</ele><time>2026-03-29T09:50:10Z</time></trkpt><trkpt lat="44.64799326920718" lon="10.082172547268868"><ele>505.0</ele><time>2026-03-29T09:50:11Z</time></trkpt><trkpt lat="44.648093938958624" lon="10.082009189851886"><ele>501.33333333333337</ele><time>2026-03-29T09:50:12Z</time></trkpt><trkpt lat="44.64819887242459" lon="10.081820448368365"><ele>497.66666666666663</ele><time>2026-03-29T09:50:13Z</time></trkpt><trkpt lat="44.648317965495075" lon="10.081649840061806"><ele>494.0</ele><time>2026-03-29T09:50:14Z</time></trkpt><trkpt lat="44.64844530570413" lon="10.081478551762476"><ele>490.66666666666663</ele><time>2026-03-29T09:50:15Z</time></trkpt><trkpt lat="44.648569154176556" lon="10.081301655483355"><ele>487.33333333333337</ele><time>2026-03-29T09:50:16Z</time></trkpt><trkpt lat="44.648685265952224" lon="10.081129859247275"><ele>484.0</ele><time>2026-03-29T09:50:17Z</time></trkpt><trkpt lat="44.64881805548493" lon="10.0809960301401"><ele>484.0</ele><time>2026-03-29T09:50:18Z</time></trkpt><trkpt lat="44.6489422942933" lon="10.08087296611466"><ele>484.0</ele><time>2026-03-29T09:50:19Z</time></trkpt><trkpt lat="44.64906513443912" lon="10.080779410243307"><ele>484.0</ele><time>2026-03-29T09:50:20Z</time></trkpt><trkpt lat="44.6491901528547" lon="10.08077166023178"><ele>484.0</ele><time>2026-03-29T09:50:21Z</time></trkpt><trkpt lat="44.64932430149705" lon="10.080859575630251"><ele>480.33333333333337</ele><time>2026-03-29T09:50:22Z</time></trkpt><trkpt lat="44.649502413795375" lon="10.080946433536207"><ele>476.66666666666663</ele><time>2026-03-29T09:50:23Z</time></trkpt><trkpt lat="44.64969296308103" lon="10.08100351598009"><ele>473.0</ele><time>2026-03-29T09:50:24Z</time></trkpt><trkpt lat="44.64989146171562" lon="10.081042930260715"><ele>473.0</ele><time>2026-03-29T09:50:25Z</time></trkpt><trkpt lat="44.650070608105715" lon="10.08112099320082"><ele>473.0</ele><time>2026-03-29T09:50:26Z</time></trkpt><trkpt lat="44.65023222485443" lon="10.081266738707923"><ele>473.0</ele><time>2026-03-29T09:50:27Z</time></trkpt><trkpt lat="44.650397154743445" lon="10.08142288907168"><ele>472.66666666666663</ele><time>2026-03-29T09:50:28Z</time></trkpt><trkpt lat="44.65057310245436" lon="10.08154763842324"><ele>472.33333333333337</ele><time>2026-03-29T09:50:29Z</time></trkpt><trkpt lat="44.65075415158824" lon="10.08164402721147"><ele>472.0</ele><time>2026-03-29T09:50:30Z</time></trkpt><trkpt lat="44.650992100797204" lon="10.081667407432002"><ele>467.0</ele><time>2026-03-29T09:50:31Z</time></trkpt><trkpt lat="44.651230506490414" lon="10.081670820166558"><ele>462.0</ele><time>2026-03-29T09:50:32Z</time></trkpt><trkpt lat="44.65144098842684" lon="10.081697809810098"><ele>462.0</ele><time>2026-03-29T09:50:33Z</time></trkpt><trkpt lat="44.651638824922934" lon="10.081721043618112"><ele>462.0</ele><time>2026-03-29T09:50:34Z</time></trkpt><trkpt lat="44.651821566965644" lon="10.081793620991494"><ele>462.0</ele><time>2026-03-29T09:50:35Z</time></trkpt><trkpt lat="44.65198641430879" lon="10.081916035482454"><ele>460.33333333333337</ele><time>2026-03-29T09:50:36Z</time></trkpt><trkpt lat="44.6521387158569" lon="10.082105923917583"><ele>458.6666666666667</ele><time>2026-03-29T09:50:37Z</time></trkpt><trkpt lat="44.652240230515986" lon="10.082341024706768"><ele>457.0</ele><time>2026-03-29T09:50:38Z</time></trkpt><trkpt lat="44.65233271835119" lon="10.08260699101291"><ele>457.0</ele><time>2026-03-29T09:50:39Z</time></trkpt><trkpt lat="44.65243218103383" lon="10.082775944540824"><ele>457.0</ele><time>2026-03-29T09:50:40Z</time></trkpt><trkpt lat="44.65252742335626" lon="10.082899319154455"><ele>457.0</ele><time>2026-03-29T09:50:41Z</time></trkpt><trkpt lat="44.65268140902068" lon="10.082955517774927"><ele>457.0</ele><time>2026-03-29T09:50:42Z</time></trkpt><trkpt lat="44.65287782131115" lon="10.082967797632492"><ele>453.33333333333337</ele><time>2026-03-29T09:50:43Z</time></trkpt><trkpt lat="44.65310224657203" lon="10.082884657292496"><ele>449.66666666666663</ele><time>2026-03-29T09:50:44Z</time></trkpt><trkpt lat="44.65329940985183" lon="10.082866341812394"><ele>446.0</ele><time>2026-03-29T09:50:45Z</time></trkpt><trkpt lat="44.65346440026146" lon="10.08298611503135"><ele>447.0</ele><time>2026-03-29T09:50:46Z</time></trkpt><trkpt lat="44.653661446262674" lon="10.08314502507581"><ele>448.0</ele><time>2026-03-29T09:50:47Z</time></trkpt><trkpt lat="44.653864609821674" lon="10.083286848117485"><ele>448.0</ele><time>2026-03-29T09:50:48Z</time></trkpt><trkpt lat="44.65406880515013" lon="10.083392568498203"><ele>448.0</ele><time>2026-03-29T09:50:49Z</time></trkpt><trkpt lat="44.65428694348726" lon="10.08346052325496"><ele>448.0</ele><time>2026-03-29T09:50:50Z</time></trkpt><trkpt lat="44.65447236852702" lon="10.083572341754993"><ele>448.6666666666667</ele><time>2026-03-29T09:50:51Z</time></trkpt><trkpt lat="44.65461323744431" lon="10.083751115017414"><ele>449.33333333333337</ele><time>2026-03-29T09:50:52Z</time></trkpt><trkpt lat="44.654777389454566" lon="10.083941678600564"><ele>450.0</ele><time>2026-03-29T09:50:53Z</time></trkpt><trkpt lat="44.65493679802015" lon="10.084105310703857"><ele>450.0</ele><time>2026-03-29T09:50:54Z</time></trkpt><trkpt lat="44.65511221619498" lon="10.084131232161724"><ele>450.0</ele><time>2026-03-29T09:50:55Z</time></trkpt><trkpt lat="44.655298990851215" lon="10.084092462401843"><ele>450.0</ele><time>2026-03-29T09:50:56Z</time></trkpt><trkpt lat="44.65546592624465" lon="10.084035718155157"><ele>445.5</ele><time>2026-03-29T09:50:57Z</time></trkpt><trkpt lat="44.65557055538482" lon="10.08407701832729"><ele>441.0</ele><time>2026-03-29T09:50:58Z</time></trkpt><trkpt lat="44.65565335027169" lon="10.084139379870015"><ele>436.5</ele><time>2026-03-29T09:50:59Z</time></trkpt><trkpt lat="44.65571366770705" lon="10.084303460906776"><ele>432.0</ele><time>2026-03-29T09:51:00Z</time></trkpt><trkpt lat="44.65570080461572" lon="10.084571712283962"><ele>432.0</ele><time>2026-03-29T09:51:01Z</time></trkpt><trkpt lat="44.65571423281817" lon="10.08489449531737"><ele>432.0</ele><time>2026-03-29T09:51:02Z</time></trkpt><trkpt lat="44.655711765599754" lon="10.085208236269114"><ele>432.75</ele><time>2026-03-29T09:51:03Z</time></trkpt><trkpt lat="44.655711535001245" lon="10.085441577557683"><ele>433.5</ele><time>2026-03-29T09:51:04Z</time></trkpt><trkpt lat="44.65572378866422" lon="10.08566093888112"><ele>434.25</ele><time>2026-03-29T09:51:05Z</time></trkpt><trkpt lat="44.65576813433671" lon="10.085820192303872"><ele>435.0</ele><time>2026-03-29T09:51:06Z</time></trkpt><trkpt lat="44.65588340321951" lon="10.08590467219606"><ele>435.33333333333337</ele><time>2026-03-29T09:51:07Z</time></trkpt><trkpt lat="44.65605709009805" lon="10.085927301126809"><ele>435.6666666666667</ele><time>2026-03-29T09:51:08Z</time></trkpt><trkpt lat="44.65627192352223" lon="10.085932300441893"><ele>436.0</ele><time>2026-03-29T09:51:09Z</time></trkpt><trkpt lat="44.65649267963992" lon="10.085957158857953"><ele>430.33333333333337</ele><time>2026-03-29T09:51:10Z</time></trkpt><trkpt lat="44.65668753272243" lon="10.086018898204836"><ele>424.66666666666663</ele><time>2026-03-29T09:51:11Z</time></trkpt><trkpt lat="44.656789272867044" lon="10.08625834261855"><ele>419.0</ele><time>2026-03-29T09:51:12Z</time></trkpt><trkpt lat="44.65670503655222" lon="10.086325169012564"><ele>419.0</ele><time>2026-03-29T09:51:13Z</time></trkpt><trkpt lat="44.656761769092206" lon="10.086591652943122"><ele>419.0</ele><time>2026-03-29T09:51:14Z</time></trkpt><trkpt lat="44.656841612217306" lon="10.086891715469932"><ele>419.0</ele><time>2026-03-29T09:51:15Z</time></trkpt><trkpt lat="44.65688521927405" lon="10.087135705951471"><ele>420.25</ele><time>2026-03-29T09:51:16Z</time></trkpt><trkpt lat="44.65694526933058" lon="10.087301041103851"><ele>421.5</ele><time>2026-03-29T09:51:17Z</time></trkpt><trkpt lat="44.65705828639993" lon="10.087404743516867"><ele>422.75</ele><time>2026-03-29T09:51:18Z</time></trkpt><trkpt lat="44.65723720859934" lon="10.087437785755462"><ele>424.0</ele><time>2026-03-29T09:51:19Z</time></trkpt><trkpt lat="44.65743076351175" lon="10.087430676796918"><ele>421.0</ele><time>2026-03-29T09:51:20Z</time></trkpt><trkpt lat="44.65756717647475" lon="10.087466460101735"><ele>418.0</ele><time>2026-03-29T09:51:21Z</time></trkpt><trkpt lat="44.657624688337556" lon="10.087599170113576"><ele>415.0</ele><time>2026-03-29T09:51:21.999Z</time></trkpt><trkpt lat="44.65762883563312" lon="10.08777759468764"><ele>412.0</ele><time>2026-03-29T09:51:22.999Z</time></trkpt><trkpt lat="44.65756231751617" lon="10.087954018931697"><ele>412.0</ele><time>2026-03-29T09:51:23.999Z</time></trkpt><trkpt lat="44.65749497761249" lon="10.088200234805532"><ele>412.0</ele><time>2026-03-29T09:51:24.999Z</time></trkpt><trkpt lat="44.65745101617443" lon="10.088389211575137"><ele>412.0</ele><time>2026-03-29T09:51:25.999Z</time></trkpt><trkpt lat="44.65743249331937" lon="10.088523811512278"><ele>412.0</ele><time>2026-03-29T09:51:26.999Z</time></trkpt><trkpt lat="44.657484029061074" lon="10.088637164734813"><ele>412.0</ele><time>2026-03-29T09:51:27.999Z</time></trkpt><trkpt lat="44.65758759396421" lon="10.088685991653527"><ele>412.0</ele><time>2026-03-29T09:51:28.999Z</time></trkpt><trkpt lat="44.657701990016356" lon="10.088617542787432"><ele>412.0</ele><time>2026-03-29T09:51:29.999Z</time></trkpt><trkpt lat="44.657770035275504" lon="10.088443664064338"><ele>412.0</ele><time>2026-03-29T09:51:30.999Z</time></trkpt><trkpt lat="44.6577797755897" lon="10.088212386583137"><ele>405.0</ele><time>2026-03-29T09:51:31.999Z</time></trkpt><trkpt lat="44.65781375374606" lon="10.087922847409674"><ele>398.0</ele><time>2026-03-29T09:51:32.999Z</time></trkpt><trkpt lat="44.65791025957236" lon="10.087658318528536"><ele>391.0</ele><time>2026-03-29T09:51:33.999Z</time></trkpt><trkpt lat="44.65795550971987" lon="10.08743415617065"><ele>391.0</ele><time>2026-03-29T09:51:34.999Z</time></trkpt><trkpt lat="44.65799694470325" lon="10.087299503497134"><ele>391.0</ele><time>2026-03-29T09:51:35.999Z</time></trkpt><trkpt lat="44.65806795688876" lon="10.087245288918433"><ele>391.0</ele><time>2026-03-29T09:51:37.999Z</time></trkpt><trkpt lat="44.658116718970255" lon="10.087341790894946"><ele>391.0</ele><time>2026-03-29T09:51:38.999Z</time></trkpt><trkpt lat="44.6581258849744" lon="10.087494322905119"><ele>391.0</ele><time>2026-03-29T09:51:39.999Z</time></trkpt><trkpt lat="44.65809718059531" lon="10.08770696692082"><ele>391.0</ele><time>2026-03-29T09:51:40.999Z</time></trkpt><trkpt lat="44.65807308562784" lon="10.087980588502605"><ele>391.0</ele><time>2026-03-29T09:51:41.999Z</time></trkpt><trkpt lat="44.65806821306679" lon="10.088260483938509"><ele>391.0</ele><time>2026-03-29T09:51:42.999Z</time></trkpt><trkpt lat="44.65807705114866" lon="10.088550459806635"><ele>389.0</ele><time>2026-03-29T09:51:43.999Z</time></trkpt><trkpt lat="44.658135861406144" lon="10.088862576612936"><ele>387.0</ele><time>2026-03-29T09:51:44.999Z</time></trkpt><trkpt lat="44.65822509710864" lon="10.08916725800238"><ele>386.66666666666663</ele><time>2026-03-29T09:51:45.999Z</time></trkpt><trkpt lat="44.658301208398846" lon="10.08943686634761"><ele>386.3333333333333</ele><time>2026-03-29T09:51:46.999Z</time></trkpt><trkpt lat="44.658364093270784" lon="10.089680417301128"><ele>386.0</ele><time>2026-03-29T09:51:47.999Z</time></trkpt><trkpt lat="44.658402092044774" lon="10.089853914131197"><ele>384.8</ele><time>2026-03-29T09:51:48.999Z</time></trkpt><trkpt lat="44.658438622195966" lon="10.089965053355495"><ele>383.6</ele><time>2026-03-29T09:51:50Z</time></trkpt><trkpt lat="44.65851158428003" lon="10.090027764669657"><ele>382.4</ele><time>2026-03-29T09:51:51Z</time></trkpt><trkpt lat="44.65860856837565" lon="10.089958684225055"><ele>381.2</ele><time>2026-03-29T09:51:52Z</time></trkpt><trkpt lat="44.65868722584434" lon="10.089839540393815"><ele>380.0</ele><time>2026-03-29T09:51:53Z</time></trkpt><trkpt lat="44.658717257165" lon="10.089690219910727"><ele>381.5</ele><time>2026-03-29T09:51:54Z</time></trkpt><trkpt lat="44.65866330409714" lon="10.089511719064474"><ele>383.0</ele><time>2026-03-29T09:51:55Z</time></trkpt><trkpt lat="44.65858342038782" lon="10.089332920363258"><ele>384.5</ele><time>2026-03-29T09:51:56Z</time></trkpt><trkpt lat="44.65856248252434" lon="10.089111436036749"><ele>386.0</ele><time>2026-03-29T09:51:57Z</time></trkpt><trkpt lat="44.658563548394504" lon="10.088871968356454"><ele>386.3333333333333</ele><time>2026-03-29T09:51:58Z</time></trkpt><trkpt lat="44.658616082228185" lon="10.088608728759729"><ele>386.66666666666663</ele><time>2026-03-29T09:51:59Z</time></trkpt><trkpt lat="44.65869428090518" lon="10.08834128257517"><ele>387.0</ele><time>2026-03-29T09:52:00Z</time></trkpt><trkpt lat="44.65877715454822" lon="10.088100163977895"><ele>381.3333333333333</ele><time>2026-03-29T09:52:01Z</time></trkpt><trkpt lat="44.658903853098" lon="10.087896786242874"><ele>375.66666666666663</ele><time>2026-03-29T09:52:02Z</time></trkpt><trkpt lat="44.659090907155004" lon="10.087672028509818"><ele>370.0</ele><time>2026-03-29T09:52:03Z</time></trkpt><trkpt lat="44.65919913172301" lon="10.087563022521868"><ele>368.0</ele><time>2026-03-29T09:52:04Z</time></trkpt><trkpt lat="44.65938269967881" lon="10.087377574172844"><ele>366.0</ele><time>2026-03-29T09:52:05Z</time></trkpt><trkpt lat="44.65955725492376" lon="10.087200495754955"><ele>364.0</ele><time>2026-03-29T09:52:06Z</time></trkpt><trkpt lat="44.65970336463157" lon="10.08702479679921"><ele>361.6</ele><time>2026-03-29T09:52:07Z</time></trkpt><trkpt lat="44.659829450186116" lon="10.086926422439491"><ele>359.2</ele><time>2026-03-29T09:52:08Z</time></trkpt><trkpt lat="44.65991431052649" lon="10.08684386133421"><ele>356.8</ele><time>2026-03-29T09:52:09Z</time></trkpt><trkpt lat="44.65997388962117" lon="10.086814518589147"><ele>354.40000000000003</ele><time>2026-03-29T09:52:10Z</time></trkpt><trkpt lat="44.66002071704883" lon="10.086929149470562"><ele>352.0</ele><time>2026-03-29T09:52:12Z</time></trkpt><trkpt lat="44.659997895494016" lon="10.087032989191654"><ele>352.0</ele><time>2026-03-29T09:52:13Z</time></trkpt><trkpt lat="44.65991524617154" lon="10.087174931740854"><ele>352.0</ele><time>2026-03-29T09:52:14Z</time></trkpt><trkpt lat="44.659824437434295" lon="10.08737747016253"><ele>352.0</ele><time>2026-03-29T09:52:15Z</time></trkpt><trkpt lat="44.65972738027007" lon="10.087617656350124"><ele>351.66666666666663</ele><time>2026-03-29T09:52:16Z</time></trkpt><trkpt lat="44.65961791500326" lon="10.087886583274813"><ele>351.3333333333333</ele><time>2026-03-29T09:52:17Z</time></trkpt><trkpt lat="44.65953989186866" lon="10.088125221969165"><ele>351.0</ele><time>2026-03-29T09:52:18Z</time></trkpt><trkpt lat="44.65951652783027" lon="10.088361096867411"><ele>349.3333333333333</ele><time>2026-03-29T09:52:19Z</time></trkpt><trkpt lat="44.659560263837754" lon="10.088623252550372"><ele>347.66666666666663</ele><time>2026-03-29T09:52:20Z</time></trkpt><trkpt lat="44.65967002578407" lon="10.088903836678828"><ele>346.0</ele><time>2026-03-29T09:52:21Z</time></trkpt><trkpt lat="44.659786526720666" lon="10.089204356596877"><ele>343.0</ele><time>2026-03-29T09:52:22Z</time></trkpt><trkpt lat="44.65990953692097" lon="10.089512092952223"><ele>340.0</ele><time>2026-03-29T09:52:23Z</time></trkpt><trkpt lat="44.66006396404305" lon="10.089823972255322"><ele>340.5</ele><time>2026-03-29T09:52:24Z</time></trkpt><trkpt lat="44.660213470043324" lon="10.09011981037082"><ele>341.0</ele><time>2026-03-29T09:52:25Z</time></trkpt><trkpt lat="44.66034788270507" lon="10.090390714228969"><ele>335.33333333333337</ele><time>2026-03-29T09:52:26Z</time></trkpt><trkpt lat="44.66046207744801" lon="10.09062506756379"><ele>329.6666666666667</ele><time>2026-03-29T09:52:27Z</time></trkpt><trkpt lat="44.660562008454846" lon="10.090881709440646"><ele>324.0</ele><time>2026-03-29T09:52:28Z</time></trkpt><trkpt lat="44.6606324714782" lon="10.091174506370406"><ele>324.0</ele><time>2026-03-29T09:52:29Z</time></trkpt><trkpt lat="44.6606901705375" lon="10.091474145098868"><ele>324.0</ele><time>2026-03-29T09:52:30Z</time></trkpt><trkpt lat="44.66073397854006" lon="10.091744380642245"><ele>324.0</ele><time>2026-03-29T09:52:31Z</time></trkpt><trkpt lat="44.66075303202918" lon="10.091966943874315"><ele>324.0</ele><time>2026-03-29T09:52:32Z</time></trkpt><trkpt lat="44.66075250607096" lon="10.092124515512692"><ele>324.0</ele><time>2026-03-29T09:52:33Z</time></trkpt><trkpt lat="44.66078408765449" lon="10.092241077439498"><ele>324.0</ele><time>2026-03-29T09:52:34Z</time></trkpt><trkpt lat="44.660858474705925" lon="10.09230558232265"><ele>324.0</ele><time>2026-03-29T09:52:35Z</time></trkpt><trkpt lat="44.66095309511636" lon="10.092302390810591"><ele>324.0</ele><time>2026-03-29T09:52:36Z</time></trkpt><trkpt lat="44.661049521710424" lon="10.092206075110418"><ele>324.0</ele><time>2026-03-29T09:52:37Z</time></trkpt><trkpt lat="44.661093039791666" lon="10.092048478355375"><ele>324.0</ele><time>2026-03-29T09:52:38Z</time></trkpt><trkpt lat="44.66107293211423" lon="10.091865341699915"><ele>324.0</ele><time>2026-03-29T09:52:39Z</time></trkpt><trkpt lat="44.66105977570597" lon="10.09163218163527"><ele>324.0</ele><time>2026-03-29T09:52:40Z</time></trkpt><trkpt lat="44.66106632007311" lon="10.09137664852414"><ele>324.0</ele><time>2026-03-29T09:52:41Z</time></trkpt><trkpt lat="44.661079504412086" lon="10.091112947933436"><ele>324.0</ele><time>2026-03-29T09:52:42Z</time></trkpt><trkpt lat="44.66108554071265" lon="10.09085816395869"><ele>324.0</ele><time>2026-03-29T09:52:43Z</time></trkpt><trkpt lat="44.66110860080136" lon="10.090623888696351"><ele>319.0</ele><time>2026-03-29T09:52:44Z</time></trkpt><trkpt lat="44.66112273726667" lon="10.090419091235711"><ele>314.0</ele><time>2026-03-29T09:52:45Z</time></trkpt><trkpt lat="44.661162332644764" lon="10.090264945956017"><ele>309.0</ele><time>2026-03-29T09:52:46Z</time></trkpt><trkpt lat="44.66123051141876" lon="10.090131550211858"><ele>304.0</ele><time>2026-03-29T09:52:47Z</time></trkpt><trkpt lat="44.66131139639185" lon="10.09001831854139"><ele>304.0</ele><time>2026-03-29T09:52:48Z</time></trkpt><trkpt lat="44.6614137920539" lon="10.089935525290361"><ele>304.0</ele><time>2026-03-29T09:52:49Z</time></trkpt><trkpt lat="44.66152145692763" lon="10.089870664962298"><ele>304.0</ele><time>2026-03-29T09:52:50Z</time></trkpt><trkpt lat="44.66162701126816" lon="10.089795137621792"><ele>304.0</ele><time>2026-03-29T09:52:51Z</time></trkpt><trkpt lat="44.661729687966414" lon="10.089705101061252"><ele>303.8</ele><time>2026-03-29T09:52:52Z</time></trkpt><trkpt lat="44.66182294360527" lon="10.089616995427017"><ele>303.59999999999997</ele><time>2026-03-29T09:52:53Z</time></trkpt><trkpt lat="44.661911401017896" lon="10.089534797759905"><ele>303.4</ele><time>2026-03-29T09:52:54Z</time></trkpt><trkpt lat="44.6620023168843" lon="10.089461038826617"><ele>303.2</ele><time>2026-03-29T09:52:55Z</time></trkpt><trkpt lat="44.66209303804191" lon="10.08939986178177"><ele>303.0</ele><time>2026-03-29T09:52:56Z</time></trkpt><trkpt lat="44.66219219380567" lon="10.089358609063906"><ele>303.0</ele><time>2026-03-29T09:52:57Z</time></trkpt><trkpt lat="44.6623048424728" lon="10.089355695771195"><ele>303.0</ele><time>2026-03-29T09:52:58Z</time></trkpt><trkpt lat="44.662419993165194" lon="10.089365571326578"><ele>303.0</ele><time>2026-03-29T09:52:59Z</time></trkpt><trkpt lat="44.66254061056779" lon="10.089380786649674"><ele>303.0</ele><time>2026-03-29T09:53:00Z</time></trkpt><trkpt lat="44.662659251351535" lon="10.089397603978544"><ele>303.0</ele><time>2026-03-29T09:53:01Z</time></trkpt><trkpt lat="44.66277888487822" lon="10.089416074666973"><ele>303.0</ele><time>2026-03-29T09:53:02Z</time></trkpt><trkpt lat="44.66290019211118" lon="10.089435006281846"><ele>303.0</ele><time>2026-03-29T09:53:03Z</time></trkpt><trkpt lat="44.663006709221776" lon="10.089440902601982"><ele>303.0</ele><time>2026-03-29T09:53:04Z</time></trkpt><trkpt lat="44.663089722074425" lon="10.089479798978292"><ele>303.0</ele><time>2026-03-29T09:53:05Z</time></trkpt><trkpt lat="44.66314363372508" lon="10.089583525822222"><ele>302.0</ele><time>2026-03-29T09:53:06Z</time></trkpt><trkpt lat="44.66317670371873" lon="10.08973131823027"><ele>301.0</ele><time>2026-03-29T09:53:07Z</time></trkpt><trkpt lat="44.66315177655763" lon="10.08988517566062"><ele>300.0</ele><time>2026-03-29T09:53:08Z</time></trkpt><trkpt lat="44.66308078108521" lon="10.090023738992675"><ele>299.0</ele><time>2026-03-29T09:53:09Z</time></trkpt><trkpt lat="44.66298550528886" lon="10.090158429720857"><ele>296.75</ele><time>2026-03-29T09:53:10Z</time></trkpt><trkpt lat="44.6628985732688" lon="10.090297547576855"><ele>294.5</ele><time>2026-03-29T09:53:11Z</time></trkpt><trkpt lat="44.66281913537846" lon="10.090447749448828"><ele>292.25</ele><time>2026-03-29T09:53:12Z</time></trkpt><trkpt lat="44.66274368136293" lon="10.090590225302197"><ele>290.0</ele><time>2026-03-29T09:53:13Z</time></trkpt><trkpt lat="44.66267167976782" lon="10.090720751964623"><ele>288.25</ele><time>2026-03-29T09:53:14Z</time></trkpt><trkpt lat="44.66259713067823" lon="10.09084538012708"><ele>286.5</ele><time>2026-03-29T09:53:15Z</time></trkpt><trkpt lat="44.6625501755114" lon="10.090981284662211"><ele>284.75</ele><time>2026-03-29T09:53:16Z</time></trkpt><trkpt lat="44.662555098049154" lon="10.091146676540744"><ele>283.0</ele><time>2026-03-29T09:53:17Z</time></trkpt><trkpt lat="44.66260674926886" lon="10.09137564435964"><ele>283.0</ele><time>2026-03-29T09:53:18Z</time></trkpt><trkpt lat="44.662706764866606" lon="10.091648818604096"><ele>283.0</ele><time>2026-03-29T09:53:19Z</time></trkpt><trkpt lat="44.66279637440414" lon="10.0918910588205"><ele>283.0</ele><time>2026-03-29T09:53:20Z</time></trkpt><trkpt lat="44.662860484651546" lon="10.092105350449684"><ele>279.5</ele><time>2026-03-29T09:53:21Z</time></trkpt><trkpt lat="44.662915101819785" lon="10.092303098550051"><ele>276.0</ele><time>2026-03-29T09:53:22Z</time></trkpt><trkpt lat="44.66297320828022" lon="10.092485134003589"><ele>272.5</ele><time>2026-03-29T09:53:23Z</time></trkpt><trkpt lat="44.66303861435842" lon="10.092653487825702"><ele>269.0</ele><time>2026-03-29T09:53:24Z</time></trkpt><trkpt lat="44.663124662906746" lon="10.092792743712112"><ele>268.5</ele><time>2026-03-29T09:53:25Z</time></trkpt><trkpt lat="44.66322959199419" lon="10.092900832486164"><ele>268.0</ele><time>2026-03-29T09:53:26Z</time></trkpt><trkpt lat="44.66337263621875" lon="10.092968091381481"><ele>267.5</ele><time>2026-03-29T09:53:27Z</time></trkpt><trkpt lat="44.66352554795446" lon="10.093010946091226"><ele>267.0</ele><time>2026-03-29T09:53:28Z</time></trkpt><trkpt lat="44.66367277062767" lon="10.09302716120865"><ele>265.25</ele><time>2026-03-29T09:53:29Z</time></trkpt><trkpt lat="44.663813627407954" lon="10.093049693894054"><ele>263.5</ele><time>2026-03-29T09:53:29.999Z</time></trkpt><trkpt lat="44.66395407485491" lon="10.093068979688688"><ele>261.75</ele><time>2026-03-29T09:53:30.999Z</time></trkpt><trkpt lat="44.664094992665696" lon="10.093089642047284"><ele>260.0</ele><time>2026-03-29T09:53:31.999Z</time></trkpt><trkpt lat="44.66423922411905" lon="10.09311359616329"><ele>260.0</ele><time>2026-03-29T09:53:32.999Z</time></trkpt><trkpt lat="44.664387085371786" lon="10.093141715084139"><ele>260.0</ele><time>2026-03-29T09:53:33.999Z</time></trkpt><trkpt lat="44.66453355616514" lon="10.093163111131311"><ele>260.0</ele><time>2026-03-29T09:53:34.999Z</time></trkpt><trkpt lat="44.66467563232256" lon="10.093182957292024"><ele>260.0</ele><time>2026-03-29T09:53:35.999Z</time></trkpt><trkpt lat="44.66482950171528" lon="10.093207800590987"><ele>257.33333333333337</ele><time>2026-03-29T09:53:36.999Z</time></trkpt><trkpt lat="44.664982596561" lon="10.09322734874713"><ele>254.66666666666669</ele><time>2026-03-29T09:53:37.999Z</time></trkpt><trkpt lat="44.66513974244995" lon="10.093226210738232"><ele>252.0</ele><time>2026-03-29T09:53:38.999Z</time></trkpt><trkpt lat="44.665306522570674" lon="10.09319553563642"><ele>249.25</ele><time>2026-03-29T09:53:39.999Z</time></trkpt><trkpt lat="44.665463577587" lon="10.093146506100535"><ele>246.5</ele><time>2026-03-29T09:53:40.999Z</time></trkpt><trkpt lat="44.66561324317312" lon="10.093109459037576"><ele>243.75</ele><time>2026-03-29T09:53:41.999Z</time></trkpt><trkpt lat="44.665742175145446" lon="10.093077556167213"><ele>241.0</ele><time>2026-03-29T09:53:42.999Z</time></trkpt><trkpt lat="44.66586150514391" lon="10.093108408142042"><ele>241.0</ele><time>2026-03-29T09:53:43.999Z</time></trkpt><trkpt lat="44.66598306603143" lon="10.093231744433437"><ele>241.0</ele><time>2026-03-29T09:53:44.999Z</time></trkpt><trkpt lat="44.66611590391642" lon="10.093401334396205"><ele>241.0</ele><time>2026-03-29T09:53:45.999Z</time></trkpt><trkpt lat="44.66624835021282" lon="10.093612226152914"><ele>239.0</ele><time>2026-03-29T09:53:46.999Z</time></trkpt><trkpt lat="44.66639095203802" lon="10.09381300121502"><ele>237.0</ele><time>2026-03-29T09:53:47.999Z</time></trkpt><trkpt lat="44.666597500726816" lon="10.093990074849579"><ele>235.0</ele><time>2026-03-29T09:53:48.999Z</time></trkpt><trkpt lat="44.66683754834079" lon="10.094167021056418"><ele>230.0</ele><time>2026-03-29T09:53:49.999Z</time></trkpt><trkpt lat="44.66706063585149" lon="10.09436570792782"><ele>225.0</ele><time>2026-03-29T09:53:50.999Z</time></trkpt><trkpt lat="44.66727067749617" lon="10.094543083477504"><ele>225.0</ele><time>2026-03-29T09:53:51.999Z</time></trkpt><trkpt lat="44.66747816080663" lon="10.094722445848745"><ele>225.0</ele><time>2026-03-29T09:53:52.999Z</time></trkpt><trkpt lat="44.66767499653855" lon="10.094887838609276"><ele>223.0</ele><time>2026-03-29T09:53:53.999Z</time></trkpt><trkpt lat="44.66784230941507" lon="10.094989323977336"><ele>221.0</ele><time>2026-03-29T09:53:54.999Z</time></trkpt><trkpt lat="44.66803035782251" lon="10.09509429988234"><ele>219.0</ele><time>2026-03-29T09:53:56Z</time></trkpt><trkpt lat="44.66820144607827" lon="10.095177618894946"><ele>219.0</ele><time>2026-03-29T09:53:57Z</time></trkpt><trkpt lat="44.66854614737441" lon="10.095339780297694"><ele>219.0</ele><time>2026-03-29T09:53:58Z</time></trkpt><trkpt lat="44.66874395487923" lon="10.095427661487323"><ele>216.33333333333331</ele><time>2026-03-29T09:53:59Z</time></trkpt><trkpt lat="44.66891324384816" lon="10.09557965543995"><ele>213.66666666666666</ele><time>2026-03-29T09:54:00Z</time></trkpt><trkpt lat="44.669085829520355" lon="10.095779509596175"><ele>211.0</ele><time>2026-03-29T09:54:01Z</time></trkpt><trkpt lat="44.66924194444479" lon="10.096013124357704"><ele>211.0</ele><time>2026-03-29T09:54:02Z</time></trkpt><trkpt lat="44.66936587261458" lon="10.096230156732211"><ele>211.0</ele><time>2026-03-29T09:54:03Z</time></trkpt><trkpt lat="44.66944168953692" lon="10.096407163511316"><ele>211.0</ele><time>2026-03-29T09:54:04Z</time></trkpt><trkpt lat="44.6694839449684" lon="10.096570870692679"><ele>210.33333333333331</ele><time>2026-03-29T09:54:05Z</time></trkpt><trkpt lat="44.66944620195306" lon="10.096739244045965"><ele>209.66666666666669</ele><time>2026-03-29T09:54:06Z</time></trkpt><trkpt lat="44.66939865721441" lon="10.096997064394149"><ele>209.0</ele><time>2026-03-29T09:54:07Z</time></trkpt><trkpt lat="44.66934543404165" lon="10.097295934830742"><ele>207.33333333333334</ele><time>2026-03-29T09:54:08Z</time></trkpt><trkpt lat="44.66930724933228" lon="10.097589717375323"><ele>205.66666666666669</ele><time>2026-03-29T09:54:09Z</time></trkpt><trkpt lat="44.6692525012482" lon="10.097854911459908"><ele>204.0</ele><time>2026-03-29T09:54:10Z</time></trkpt><trkpt lat="44.669201644672405" lon="10.098104489035475"><ele>202.75</ele><time>2026-03-29T09:54:11Z</time></trkpt><trkpt lat="44.669165258910425" lon="10.098315411256957"><ele>201.5</ele><time>2026-03-29T09:54:12Z</time></trkpt><trkpt lat="44.669151463035824" lon="10.098490911751133"><ele>200.25</ele><time>2026-03-29T09:54:13Z</time></trkpt><trkpt lat="44.66918337581404" lon="10.098633933160206"><ele>199.0</ele><time>2026-03-29T09:54:14Z</time></trkpt><trkpt lat="44.669271006066666" lon="10.098745629932969"><ele>199.0</ele><time>2026-03-29T09:54:15Z</time></trkpt><trkpt lat="44.66940231949916" lon="10.098810899542036"><ele>199.0</ele><time>2026-03-29T09:54:16Z</time></trkpt><trkpt lat="44.669548648228734" lon="10.098795516129059"><ele>199.0</ele><time>2026-03-29T09:54:17Z</time></trkpt><trkpt lat="44.6696752528703" lon="10.098686524911345"><ele>199.0</ele><time>2026-03-29T09:54:18Z</time></trkpt><trkpt lat="44.66977825738811" lon="10.098498366765513"><ele>197.33333333333331</ele><time>2026-03-29T09:54:19Z</time></trkpt><trkpt lat="44.669869046951064" lon="10.098267002723688"><ele>195.66666666666669</ele><time>2026-03-29T09:54:20Z</time></trkpt><trkpt lat="44.66997509232733" lon="10.098029535324844"><ele>194.0</ele><time>2026-03-29T09:54:21Z</time></trkpt><trkpt lat="44.67010615898668" lon="10.097772911730551"><ele>194.0</ele><time>2026-03-29T09:54:22Z</time></trkpt><trkpt lat="44.67026861432547" lon="10.097547346640198"><ele>194.0</ele><time>2026-03-29T09:54:23Z</time></trkpt><trkpt lat="44.670440979429024" lon="10.097324907384225"><ele>189.0</ele><time>2026-03-29T09:54:24Z</time></trkpt><trkpt lat="44.67059358771635" lon="10.097065536997382"><ele>184.0</ele><time>2026-03-29T09:54:25Z</time></trkpt><trkpt lat="44.67071131256182" lon="10.096783929834936"><ele>183.66666666666669</ele><time>2026-03-29T09:54:26Z</time></trkpt><trkpt lat="44.670811336657025" lon="10.096521806598409"><ele>183.33333333333334</ele><time>2026-03-29T09:54:27Z</time></trkpt><trkpt lat="44.67091401540212" lon="10.09628825066931"><ele>183.0</ele><time>2026-03-29T09:54:28Z</time></trkpt><trkpt lat="44.67101252251973" lon="10.096090557915597"><ele>181.75</ele><time>2026-03-29T09:54:29Z</time></trkpt><trkpt lat="44.67111663161881" lon="10.09595367304293"><ele>180.5</ele><time>2026-03-29T09:54:30Z</time></trkpt><trkpt lat="44.67122215757195" lon="10.095893697767046"><ele>179.25</ele><time>2026-03-29T09:54:31Z</time></trkpt><trkpt lat="44.67133792260837" lon="10.09589984369995"><ele>178.0</ele><time>2026-03-29T09:54:32Z</time></trkpt><trkpt lat="44.671443811948684" lon="10.095995006766552"><ele>178.0</ele><time>2026-03-29T09:54:33Z</time></trkpt><trkpt lat="44.6715842177041" lon="10.096129770252757"><ele>178.0</ele><time>2026-03-29T09:54:34Z</time></trkpt><trkpt lat="44.67171733329607" lon="10.096265156475758"><ele>178.0</ele><time>2026-03-29T09:54:35Z</time></trkpt><trkpt lat="44.67183659809784" lon="10.096389643655195"><ele>177.5</ele><time>2026-03-29T09:54:36Z</time></trkpt><trkpt lat="44.67194142507628" lon="10.096502602578013"><ele>177.0</ele><time>2026-03-29T09:54:37Z</time></trkpt><trkpt lat="44.672031127817405" lon="10.096636054699644"><ele>176.5</ele><time>2026-03-29T09:54:38Z</time></trkpt><trkpt lat="44.672098655086096" lon="10.096810606549097"><ele>176.0</ele><time>2026-03-29T09:54:39Z</time></trkpt><trkpt lat="44.67212785731431" lon="10.097015759031901"><ele>174.5</ele><time>2026-03-29T09:54:40Z</time></trkpt><trkpt lat="44.6721472705872" lon="10.097224898453517"><ele>173.0</ele><time>2026-03-29T09:54:41Z</time></trkpt><trkpt lat="44.67216807035517" lon="10.0974222976684"><ele>171.5</ele><time>2026-03-29T09:54:42Z</time></trkpt><trkpt lat="44.67218353667307" lon="10.09759914306652"><ele>170.0</ele><time>2026-03-29T09:54:43Z</time></trkpt><trkpt lat="44.67222721940339" lon="10.09775002991886"><ele>169.25</ele><time>2026-03-29T09:54:44Z</time></trkpt><trkpt lat="44.67232100063894" lon="10.097870041157543"><ele>168.5</ele><time>2026-03-29T09:54:45Z</time></trkpt><trkpt lat="44.67246344069382" lon="10.097900690143643"><ele>167.75</ele><time>2026-03-29T09:54:46Z</time></trkpt><trkpt lat="44.67260669334824" lon="10.097841959613413"><ele>167.0</ele><time>2026-03-29T09:54:47Z</time></trkpt><trkpt lat="44.672747232019255" lon="10.09773170735377"><ele>164.66666666666666</ele><time>2026-03-29T09:54:48Z</time></trkpt><trkpt lat="44.672893937700174" lon="10.097647787941556"><ele>162.33333333333334</ele><time>2026-03-29T09:54:49Z</time></trkpt><trkpt lat="44.673043574402286" lon="10.097575814835517"><ele>160.0</ele><time>2026-03-29T09:54:50Z</time></trkpt><trkpt lat="44.67319000352824" lon="10.097501616246424"><ele>160.0</ele><time>2026-03-29T09:54:51Z</time></trkpt><trkpt lat="44.673330068249854" lon="10.097428926037493"><ele>160.0</ele><time>2026-03-29T09:54:52Z</time></trkpt><trkpt lat="44.67347405226375" lon="10.097357785831557"><ele>160.0</ele><time>2026-03-29T09:54:53Z</time></trkpt><trkpt lat="44.673610432564864" lon="10.09728398505188"><ele>160.0</ele><time>2026-03-29T09:54:54Z</time></trkpt><trkpt lat="44.673746831610565" lon="10.097220542507115"><ele>160.0</ele><time>2026-03-29T09:54:55Z</time></trkpt><trkpt lat="44.6738865840631" lon="10.097151207053193"><ele>160.0</ele><time>2026-03-29T09:54:56Z</time></trkpt><trkpt lat="44.674023968793435" lon="10.097078292218043"><ele>160.0</ele><time>2026-03-29T09:54:57Z</time></trkpt><trkpt lat="44.67416200291778" lon="10.097009949732815"><ele>160.0</ele><time>2026-03-29T09:54:58Z</time></trkpt><trkpt lat="44.67429747044132" lon="10.096942112853293"><ele>160.0</ele><time>2026-03-29T09:54:59Z</time></trkpt><trkpt lat="44.67443347404496" lon="10.096872818172399"><ele>160.0</ele><time>2026-03-29T09:55:00Z</time></trkpt><trkpt lat="44.67456686995397" lon="10.09680086034713"><ele>160.0</ele><time>2026-03-29T09:55:01Z</time></trkpt><trkpt lat="44.67470056153154" lon="10.096733489244292"><ele>160.0</ele><time>2026-03-29T09:55:02Z</time></trkpt><trkpt lat="44.67483393818441" lon="10.096661141586111"><ele>160.0</ele><time>2026-03-29T09:55:03Z</time></trkpt><trkpt lat="44.674968750983275" lon="10.096594157831353"><ele>160.0</ele><time>2026-03-29T09:55:04Z</time></trkpt><trkpt lat="44.67510457546946" lon="10.096525596500312"><ele>160.0</ele><time>2026-03-29T09:55:05Z</time></trkpt><trkpt lat="44.675243818459364" lon="10.096453513268258"><ele>160.0</ele><time>2026-03-29T09:55:06Z</time></trkpt><trkpt lat="44.67538021456742" lon="10.096380872989338"><ele>159.25</ele><time>2026-03-29T09:55:07Z</time></trkpt><trkpt lat="44.67551168849989" lon="10.096309423960065"><ele>158.5</ele><time>2026-03-29T09:55:08Z</time></trkpt><trkpt lat="44.67564509291943" lon="10.09624281168416"><ele>157.75</ele><time>2026-03-29T09:55:09Z</time></trkpt><trkpt lat="44.67578539853646" lon="10.096178331438551"><ele>157.0</ele><time>2026-03-29T09:55:10Z</time></trkpt><trkpt lat="44.675920758533586" lon="10.096104490175131"><ele>157.0</ele><time>2026-03-29T09:55:11Z</time></trkpt><trkpt lat="44.676057563046506" lon="10.096033384470628"><ele>157.0</ele><time>2026-03-29T09:55:12Z</time></trkpt><trkpt lat="44.676192918628665" lon="10.095966092482923"><ele>157.0</ele><time>2026-03-29T09:55:13Z</time></trkpt><trkpt lat="44.676331692218724" lon="10.095891967178925"><ele>157.0</ele><time>2026-03-29T09:55:14Z</time></trkpt><trkpt lat="44.67647391777819" lon="10.095816075201865"><ele>156.33333333333334</ele><time>2026-03-29T09:55:15Z</time></trkpt><trkpt lat="44.67662396237144" lon="10.09573317086691"><ele>155.66666666666666</ele><time>2026-03-29T09:55:16Z</time></trkpt><trkpt lat="44.676787325291436" lon="10.095650923445044"><ele>155.0</ele><time>2026-03-29T09:55:17Z</time></trkpt><trkpt lat="44.6769310637648" lon="10.095579773484435"><ele>154.5</ele><time>2026-03-29T09:55:18Z</time></trkpt><trkpt lat="44.677049158295304" lon="10.095523667518496"><ele>154.0</ele><time>2026-03-29T09:55:19Z</time></trkpt><trkpt lat="44.67715706676043" lon="10.095466643983308"><ele>153.5</ele><time>2026-03-29T09:55:20Z</time></trkpt><trkpt lat="44.67727657945913" lon="10.095402336079712"><ele>153.0</ele><time>2026-03-29T09:55:21Z</time></trkpt><trkpt lat="44.677404443788014" lon="10.095329688652743"><ele>153.0</ele><time>2026-03-29T09:55:22Z</time></trkpt><trkpt lat="44.67754480165663" lon="10.095260880877024"><ele>153.0</ele><time>2026-03-29T09:55:23Z</time></trkpt><trkpt lat="44.67768409679226" lon="10.095190581429785"><ele>153.0</ele><time>2026-03-29T09:55:24Z</time></trkpt><trkpt lat="44.67782872257305" lon="10.095115622656312"><ele>152.0</ele><time>2026-03-29T09:55:25Z</time></trkpt><trkpt lat="44.67797527689908" lon="10.095035864506913"><ele>151.0</ele><time>2026-03-29T09:55:26Z</time></trkpt><trkpt lat="44.67810908866641" lon="10.094969609104089"><ele>150.0</ele><time>2026-03-29T09:55:27Z</time></trkpt><trkpt lat="44.67825015647236" lon="10.094894954593075"><ele>149.33333333333334</ele><time>2026-03-29T09:55:28Z</time></trkpt><trkpt lat="44.678391263011484" lon="10.094823640894182"><ele>148.66666666666669</ele><time>2026-03-29T09:55:29Z</time></trkpt><trkpt lat="44.67853744977588" lon="10.094746393515218"><ele>148.0</ele><time>2026-03-29T09:55:30Z</time></trkpt><trkpt lat="44.678677660159444" lon="10.094671033747836"><ele>148.0</ele><time>2026-03-29T09:55:31Z</time></trkpt><trkpt lat="44.67881476076488" lon="10.094590125342648"><ele>148.0</ele><time>2026-03-29T09:55:32Z</time></trkpt><trkpt lat="44.678942121941695" lon="10.09451034358622"><ele>148.0</ele><time>2026-03-29T09:55:33Z</time></trkpt><trkpt lat="44.679062786325" lon="10.09446032000986"><ele>148.0</ele><time>2026-03-29T09:55:33.999Z</time></trkpt><trkpt lat="44.6791800959419" lon="10.09446673579369"><ele>148.0</ele><time>2026-03-29T09:55:34.999Z</time></trkpt><trkpt lat="44.67930473930534" lon="10.094486790926998"><ele>148.0</ele><time>2026-03-29T09:55:35.999Z</time></trkpt><trkpt lat="44.67944314714308" lon="10.094528852246173"><ele>148.0</ele><time>2026-03-29T09:55:37Z</time></trkpt><trkpt lat="44.67958010367318" lon="10.094610105832208"><ele>148.0</ele><time>2026-03-29T09:55:37.999Z</time></trkpt><trkpt lat="44.679734372845346" lon="10.094747944341824"><ele>148.0</ele><time>2026-03-29T09:55:38.999Z</time></trkpt><trkpt lat="44.67988633227846" lon="10.094865948045781"><ele>148.0</ele><time>2026-03-29T09:55:39.999Z</time></trkpt><trkpt lat="44.68005407489141" lon="10.094961115921322"><ele>148.0</ele><time>2026-03-29T09:55:40.999Z</time></trkpt><trkpt lat="44.68021432300935" lon="10.0950466137708"><ele>147.0</ele><time>2026-03-29T09:55:41.999Z</time></trkpt><trkpt lat="44.680377788800314" lon="10.095134202786285"><ele>146.0</ele><time>2026-03-29T09:55:42.999Z</time></trkpt><trkpt lat="44.680537007986494" lon="10.095223195514073"><ele>145.0</ele><time>2026-03-29T09:55:43.999Z</time></trkpt><trkpt lat="44.68069012554503" lon="10.095306519637683"><ele>145.0</ele><time>2026-03-29T09:55:44.999Z</time></trkpt><trkpt lat="44.680836639793256" lon="10.095383598700916"><ele>145.0</ele><time>2026-03-29T09:55:45.999Z</time></trkpt><trkpt lat="44.68096781646353" lon="10.095450966595942"><ele>145.0</ele><time>2026-03-29T09:55:46.999Z</time></trkpt><trkpt lat="44.681102007208466" lon="10.095519800481844"><ele>145.0</ele><time>2026-03-29T09:55:47.999Z</time></trkpt><trkpt lat="44.681241853981476" lon="10.095586270711639"><ele>145.33333333333334</ele><time>2026-03-29T09:55:48.999Z</time></trkpt><trkpt lat="44.68138262904211" lon="10.095643087607264"><ele>145.66666666666666</ele><time>2026-03-29T09:55:49.999Z</time></trkpt><trkpt lat="44.68152883118414" lon="10.09570177406687"><ele>146.0</ele><time>2026-03-29T09:55:50.999Z</time></trkpt><trkpt lat="44.681683632086724" lon="10.095751841741272"><ele>147.0</ele><time>2026-03-29T09:55:51.999Z</time></trkpt><trkpt lat="44.68184045609017" lon="10.095801776463798"><ele>148.0</ele><time>2026-03-29T09:55:52.999Z</time></trkpt><trkpt lat="44.68199879769249" lon="10.095837482391305"><ele>149.0</ele><time>2026-03-29T09:55:53.999Z</time></trkpt><trkpt lat="44.68215091094941" lon="10.095861540692539"><ele>149.0</ele><time>2026-03-29T09:55:54.999Z</time></trkpt><trkpt lat="44.68231342712451" lon="10.095902073259392"><ele>149.0</ele><time>2026-03-29T09:55:55.999Z</time></trkpt><trkpt lat="44.68247032693197" lon="10.095933069688535"><ele>149.0</ele><time>2026-03-29T09:55:56.999Z</time></trkpt><trkpt lat="44.682634377696836" lon="10.09597431958323"><ele>148.0</ele><time>2026-03-29T09:55:57.999Z</time></trkpt><trkpt lat="44.682795373863215" lon="10.096009763322575"><ele>147.0</ele><time>2026-03-29T09:55:58.999Z</time></trkpt><trkpt lat="44.68295836421164" lon="10.096046121607834"><ele>146.0</ele><time>2026-03-29T09:55:59.999Z</time></trkpt><trkpt lat="44.683120674871546" lon="10.096080883517626"><ele>146.0</ele><time>2026-03-29T09:56:00.999Z</time></trkpt><trkpt lat="44.683278690414866" lon="10.096116177260482"><ele>146.0</ele><time>2026-03-29T09:56:02Z</time></trkpt><trkpt lat="44.6834304968382" lon="10.09615013386936"><ele>146.0</ele><time>2026-03-29T09:56:03Z</time></trkpt><trkpt lat="44.6835816800866" lon="10.09619304173259"><ele>146.0</ele><time>2026-03-29T09:56:04Z</time></trkpt><trkpt lat="44.6837386506166" lon="10.096230414975267"><ele>146.0</ele><time>2026-03-29T09:56:05Z</time></trkpt><trkpt lat="44.68388683907942" lon="10.096265795488048"><ele>146.0</ele><time>2026-03-29T09:56:06Z</time></trkpt><trkpt lat="44.684039818928476" lon="10.096302617507584"><ele>146.0</ele><time>2026-03-29T09:56:07Z</time></trkpt><trkpt lat="44.684191420620024" lon="10.09633146905631"><ele>146.0</ele><time>2026-03-29T09:56:08Z</time></trkpt><trkpt lat="44.68434269198177" lon="10.096358317446887"><ele>146.0</ele><time>2026-03-29T09:56:09Z</time></trkpt><trkpt lat="44.684495363568956" lon="10.096386467453396"><ele>145.66666666666666</ele><time>2026-03-29T09:56:10Z</time></trkpt><trkpt lat="44.68464697068145" lon="10.09642489316521"><ele>145.33333333333334</ele><time>2026-03-29T09:56:11Z</time></trkpt><trkpt lat="44.68479741895894" lon="10.09645766079319"><ele>145.0</ele><time>2026-03-29T09:56:12Z</time></trkpt><trkpt lat="44.68495210095468" lon="10.09650025035853"><ele>145.0</ele><time>2026-03-29T09:56:13Z</time></trkpt><trkpt lat="44.68512064783886" lon="10.096532401468215"><ele>145.0</ele><time>2026-03-29T09:56:14Z</time></trkpt><trkpt lat="44.68527815039923" lon="10.096568197162302"><ele>145.0</ele><time>2026-03-29T09:56:15Z</time></trkpt><trkpt lat="44.68544110979379" lon="10.096601127856632"><ele>146.0</ele><time>2026-03-29T09:56:16Z</time></trkpt><trkpt lat="44.68560160165993" lon="10.096629269603326"><ele>147.0</ele><time>2026-03-29T09:56:17Z</time></trkpt><trkpt lat="44.6857672908403" lon="10.09666496947089"><ele>148.0</ele><time>2026-03-29T09:56:18Z</time></trkpt><trkpt lat="44.6859298719779" lon="10.096699337462622"><ele>148.0</ele><time>2026-03-29T09:56:19Z</time></trkpt><trkpt lat="44.6860903678266" lon="10.096735936061114"><ele>148.0</ele><time>2026-03-29T09:56:20Z</time></trkpt><trkpt lat="44.686247028499324" lon="10.096771086173757"><ele>148.0</ele><time>2026-03-29T09:56:21Z</time></trkpt><trkpt lat="44.686396321977455" lon="10.096805874269087"><ele>147.0</ele><time>2026-03-29T09:56:22Z</time></trkpt><trkpt lat="44.68654812519006" lon="10.096832515384323"><ele>146.0</ele><time>2026-03-29T09:56:23Z</time></trkpt><trkpt lat="44.686717850454585" lon="10.096872024019358"><ele>145.0</ele><time>2026-03-29T09:56:24Z</time></trkpt><trkpt lat="44.68687744331909" lon="10.096907318615095"><ele>144.0</ele><time>2026-03-29T09:56:25Z</time></trkpt><trkpt lat="44.68703556394528" lon="10.096943578804892"><ele>143.0</ele><time>2026-03-29T09:56:26Z</time></trkpt><trkpt lat="44.68719495127924" lon="10.096982007392338"><ele>142.0</ele><time>2026-03-29T09:56:27Z</time></trkpt><trkpt lat="44.68733771242884" lon="10.097011307954649"><ele>142.0</ele><time>2026-03-29T09:56:28Z</time></trkpt><trkpt lat="44.687485418948555" lon="10.097039140091141"><ele>142.0</ele><time>2026-03-29T09:56:29Z</time></trkpt><trkpt lat="44.68763323784851" lon="10.097068635126792"><ele>142.0</ele><time>2026-03-29T09:56:30Z</time></trkpt><trkpt lat="44.68777693750661" lon="10.097097739438603"><ele>142.0</ele><time>2026-03-29T09:56:31Z</time></trkpt><trkpt lat="44.68791929221615" lon="10.097130728810823"><ele>141.75</ele><time>2026-03-29T09:56:32Z</time></trkpt><trkpt lat="44.68806368341915" lon="10.097167682739194"><ele>141.5</ele><time>2026-03-29T09:56:33Z</time></trkpt><trkpt lat="44.68820765347937" lon="10.097198121931342"><ele>141.25</ele><time>2026-03-29T09:56:34Z</time></trkpt><trkpt lat="44.68835546132587" lon="10.097230973894044"><ele>141.0</ele><time>2026-03-29T09:56:35Z</time></trkpt><trkpt lat="44.68850763062091" lon="10.097266836534647"><ele>141.0</ele><time>2026-03-29T09:56:36Z</time></trkpt><trkpt lat="44.68865680924111" lon="10.097297014135817"><ele>141.0</ele><time>2026-03-29T09:56:37Z</time></trkpt><trkpt lat="44.68881173840686" lon="10.09732516682012"><ele>141.0</ele><time>2026-03-29T09:56:38Z</time></trkpt><trkpt lat="44.68896454695348" lon="10.097367687256126"><ele>141.0</ele><time>2026-03-29T09:56:39Z</time></trkpt><trkpt lat="44.689112143805936" lon="10.097407016789369"><ele>141.0</ele><time>2026-03-29T09:56:40Z</time></trkpt><trkpt lat="44.68925164181368" lon="10.097449047070254"><ele>141.0</ele><time>2026-03-29T09:56:41Z</time></trkpt><trkpt lat="44.68938310178957" lon="10.097485501374864"><ele>141.0</ele><time>2026-03-29T09:56:42Z</time></trkpt><trkpt lat="44.68949370321659" lon="10.097521510687786"><ele>143.8</ele><time>2026-03-29T09:56:43Z</time></trkpt><trkpt lat="44.689591971843015" lon="10.097564358683714"><ele>146.6</ele><time>2026-03-29T09:56:44Z</time></trkpt><trkpt lat="44.68968190798992" lon="10.097613829255792"><ele>149.4</ele><time>2026-03-29T09:56:45Z</time></trkpt><trkpt lat="44.68976656613052" lon="10.097679775317788"><ele>152.2</ele><time>2026-03-29T09:56:46Z</time></trkpt><trkpt lat="44.68984954436222" lon="10.097766090211579"><ele>155.0</ele><time>2026-03-29T09:56:47Z</time></trkpt><trkpt lat="44.68992606298788" lon="10.09787232632348"><ele>155.0</ele><time>2026-03-29T09:56:48Z</time></trkpt><trkpt lat="44.68999816151486" lon="10.097981458137165"><ele>155.0</ele><time>2026-03-29T09:56:49Z</time></trkpt><trkpt lat="44.6900672408812" lon="10.098091200076436"><ele>155.0</ele><time>2026-03-29T09:56:50Z</time></trkpt><trkpt lat="44.69009930564117" lon="10.098190239258932"><ele>155.0</ele><time>2026-03-29T09:56:51Z</time></trkpt><trkpt lat="44.690142264034925" lon="10.098288955537473"><ele>155.0</ele><time>2026-03-29T09:56:53Z</time></trkpt><trkpt lat="44.69015824680507" lon="10.098382396322544"><ele>155.0</ele><time>2026-03-29T09:56:55Z</time></trkpt><trkpt lat="44.690346167214045" lon="10.09839450857404"><ele>155.16666666666666</ele><time>2026-03-29T09:56:58Z</time></trkpt><trkpt lat="44.69044817539146" lon="10.098447379361096"><ele>155.33333333333331</ele><time>2026-03-29T09:57:00Z</time></trkpt><trkpt lat="44.69053392017545" lon="10.098527287215763"><ele>155.5</ele><time>2026-03-29T09:57:02Z</time></trkpt><trkpt lat="44.69058746070616" lon="10.098591091881243"><ele>155.66666666666666</ele><time>2026-03-29T09:57:06Z</time></trkpt><trkpt lat="44.69065583722589" lon="10.098665058396396"><ele>155.83333333333334</ele><time>2026-03-29T09:57:09Z</time></trkpt><trkpt lat="44.69071327911458" lon="10.098712916409363"><ele>156.0</ele><time>2026-03-29T09:57:11Z</time></trkpt><trkpt lat="44.69079834374562" lon="10.098793036026006"><ele>156.0</ele><time>2026-03-29T09:57:13Z</time></trkpt><trkpt lat="44.69085625507082" lon="10.098848197769323"><ele>156.0</ele><time>2026-03-29T09:57:14Z</time></trkpt><trkpt lat="44.69091374872961" lon="10.09890556079067"><ele>156.0</ele><time>2026-03-29T09:57:15Z</time></trkpt><trkpt lat="44.690969441840416" lon="10.098957319191186"><ele>156.0</ele><time>2026-03-29T09:57:16Z</time></trkpt><trkpt lat="44.69103062666727" lon="10.099006708641456"><ele>156.0</ele><time>2026-03-29T09:57:17Z</time></trkpt><trkpt lat="44.69109172694098" lon="10.099063902962506"><ele>156.0</ele><time>2026-03-29T09:57:18Z</time></trkpt><trkpt lat="44.69115040420692" lon="10.09912825478811"><ele>156.0</ele><time>2026-03-29T09:57:19Z</time></trkpt><trkpt lat="44.691217291468234" lon="10.099196715597992"><ele>154.5</ele><time>2026-03-29T09:57:20Z</time></trkpt><trkpt lat="44.691283890559454" lon="10.099261905837707"><ele>153.0</ele><time>2026-03-29T09:57:21Z</time></trkpt><trkpt lat="44.691349225191814" lon="10.099323443621461"><ele>151.5</ele><time>2026-03-29T09:57:22Z</time></trkpt><trkpt lat="44.69141174011551" lon="10.099391118695483"><ele>150.0</ele><time>2026-03-29T09:57:23Z</time></trkpt><trkpt lat="44.69146484825778" lon="10.09944671058016"><ele>148.5</ele><time>2026-03-29T09:57:24Z</time></trkpt><trkpt lat="44.69154983529811" lon="10.099560479285865"><ele>147.0</ele><time>2026-03-29T09:57:26Z</time></trkpt><trkpt lat="44.691586785258494" lon="10.099671817452096"><ele>147.0</ele><time>2026-03-29T09:57:28Z</time></trkpt><trkpt lat="44.6916580819057" lon="10.099737222971772"><ele>147.0</ele><time>2026-03-29T09:57:30Z</time></trkpt><trkpt lat="44.69175468449253" lon="10.099568684935003"><ele>147.0</ele><time>2026-03-29T09:57:32Z</time></trkpt><trkpt lat="44.691823133946016" lon="10.099512967678999"><ele>147.0</ele><time>2026-03-29T09:57:33Z</time></trkpt><trkpt lat="44.691898778427465" lon="10.099458750373635"><ele>147.0</ele><time>2026-03-29T09:57:34Z</time></trkpt><trkpt lat="44.692005690485466" lon="10.099412448902326"><ele>145.75</ele><time>2026-03-29T09:57:35Z</time></trkpt><trkpt lat="44.69212898649424" lon="10.099371154603192"><ele>144.5</ele><time>2026-03-29T09:57:36Z</time></trkpt><trkpt lat="44.69224377857134" lon="10.09933512011587"><ele>143.25</ele><time>2026-03-29T09:57:37Z</time></trkpt><trkpt lat="44.692350353803185" lon="10.099291813508623"><ele>142.0</ele><time>2026-03-29T09:57:37.999Z</time></trkpt><trkpt lat="44.692455575478114" lon="10.099240798971277"><ele>142.0</ele><time>2026-03-29T09:57:38.999Z</time></trkpt><trkpt lat="44.69256011261545" lon="10.09917852920416"><ele>142.0</ele><time>2026-03-29T09:57:39.999Z</time></trkpt><trkpt lat="44.692656089343075" lon="10.099090739014919"><ele>142.0</ele><time>2026-03-29T09:57:40.999Z</time></trkpt><trkpt lat="44.692741584588234" lon="10.098981199258029"><ele>142.0</ele><time>2026-03-29T09:57:41.999Z</time></trkpt><trkpt lat="44.69280358170103" lon="10.098871969214635"><ele>142.0</ele><time>2026-03-29T09:57:42.999Z</time></trkpt><trkpt lat="44.69286716971187" lon="10.098760619814554"><ele>141.4</ele><time>2026-03-29T09:57:43.999Z</time></trkpt><trkpt lat="44.692931333668774" lon="10.098640427345568"><ele>140.79999999999998</ele><time>2026-03-29T09:57:44.999Z</time></trkpt><trkpt lat="44.69299311648006" lon="10.09851587925089"><ele>140.2</ele><time>2026-03-29T09:57:45.999Z</time></trkpt><trkpt lat="44.69305588037244" lon="10.098394641854865"><ele>139.6</ele><time>2026-03-29T09:57:46.999Z</time></trkpt><trkpt lat="44.693120009783854" lon="10.098277989919708"><ele>139.0</ele><time>2026-03-29T09:57:47.999Z</time></trkpt><trkpt lat="44.693191031109954" lon="10.098154382471504"><ele>139.0</ele><time>2026-03-29T09:57:48.999Z</time></trkpt><trkpt lat="44.69325945845802" lon="10.098036397685984"><ele>139.0</ele><time>2026-03-29T09:57:49.999Z</time></trkpt><trkpt lat="44.69332383166541" lon="10.097917892762007"><ele>139.0</ele><time>2026-03-29T09:57:50.999Z</time></trkpt><trkpt lat="44.693395345586616" lon="10.097788523644239"><ele>139.0</ele><time>2026-03-29T09:57:51.999Z</time></trkpt><trkpt lat="44.69347041291932" lon="10.09765151213073"><ele>139.0</ele><time>2026-03-29T09:57:52.999Z</time></trkpt><trkpt lat="44.69354682309486" lon="10.097510027144164"><ele>139.0</ele><time>2026-03-29T09:57:53.999Z</time></trkpt><trkpt lat="44.69362069819399" lon="10.097373390151263"><ele>139.0</ele><time>2026-03-29T09:57:54.999Z</time></trkpt><trkpt lat="44.693695352706996" lon="10.097232901034378"><ele>139.0</ele><time>2026-03-29T09:57:55.999Z</time></trkpt><trkpt lat="44.69376822397787" lon="10.097095914626522"><ele>138.5</ele><time>2026-03-29T09:57:56.999Z</time></trkpt><trkpt lat="44.69384116486856" lon="10.096959294941291"><ele>138.0</ele><time>2026-03-29T09:57:57.999Z</time></trkpt><trkpt lat="44.693916161007586" lon="10.096821398020905"><ele>137.5</ele><time>2026-03-29T09:57:58.999Z</time></trkpt><trkpt lat="44.69398910114253" lon="10.09668968662337"><ele>137.0</ele><time>2026-03-29T09:57:59.999Z</time></trkpt><trkpt lat="44.694061298273056" lon="10.096556720760779"><ele>136.25</ele><time>2026-03-29T09:58:00.999Z</time></trkpt><trkpt lat="44.69413340490125" lon="10.096422401018943"><ele>135.5</ele><time>2026-03-29T09:58:01.999Z</time></trkpt><trkpt lat="44.69420732629484" lon="10.096279699502256"><ele>134.75</ele><time>2026-03-29T09:58:02.999Z</time></trkpt><trkpt lat="44.69429155181612" lon="10.096140089354993"><ele>134.0</ele><time>2026-03-29T09:58:03.999Z</time></trkpt><trkpt lat="44.694374286874414" lon="10.096003138236311"><ele>133.75</ele><time>2026-03-29T09:58:04.999Z</time></trkpt><trkpt lat="44.69445381626561" lon="10.095867399831604"><ele>133.5</ele><time>2026-03-29T09:58:05.999Z</time></trkpt><trkpt lat="44.69453251748792" lon="10.095720045258101"><ele>133.25</ele><time>2026-03-29T09:58:06.999Z</time></trkpt><trkpt lat="44.69461428849513" lon="10.095564629799373"><ele>133.0</ele><time>2026-03-29T09:58:08Z</time></trkpt><trkpt lat="44.69470146604155" lon="10.095405914634307"><ele>133.0</ele><time>2026-03-29T09:58:09Z</time></trkpt><trkpt lat="44.69479037520318" lon="10.095246914967708"><ele>133.0</ele><time>2026-03-29T09:58:10Z</time></trkpt><trkpt lat="44.69488239264544" lon="10.095083828665183"><ele>133.0</ele><time>2026-03-29T09:58:11Z</time></trkpt><trkpt lat="44.694971607821586" lon="10.094921623869713"><ele>133.0</ele><time>2026-03-29T09:58:12Z</time></trkpt><trkpt lat="44.69506592844771" lon="10.094750517374413"><ele>133.0</ele><time>2026-03-29T09:58:13Z</time></trkpt><trkpt lat="44.69515584546166" lon="10.094585574612331"><ele>133.0</ele><time>2026-03-29T09:58:14Z</time></trkpt><trkpt lat="44.695246707530835" lon="10.094419114704344"><ele>133.0</ele><time>2026-03-29T09:58:15Z</time></trkpt><trkpt lat="44.69533846493591" lon="10.094255424748642"><ele>133.0</ele><time>2026-03-29T09:58:16Z</time></trkpt><trkpt lat="44.695432012917536" lon="10.09409307732295"><ele>132.66666666666669</ele><time>2026-03-29T09:58:17Z</time></trkpt><trkpt lat="44.69552657748175" lon="10.093928639491885"><ele>132.33333333333334</ele><time>2026-03-29T09:58:18Z</time></trkpt><trkpt lat="44.69561745119249" lon="10.093758951144467"><ele>132.0</ele><time>2026-03-29T09:58:19Z</time></trkpt><trkpt lat="44.69571226621412" lon="10.093581717544332"><ele>132.0</ele><time>2026-03-29T09:58:20Z</time></trkpt><trkpt lat="44.69580652651003" lon="10.093407993476669"><ele>132.0</ele><time>2026-03-29T09:58:21Z</time></trkpt><trkpt lat="44.695905587602375" lon="10.093228664597914"><ele>132.0</ele><time>2026-03-29T09:58:22Z</time></trkpt><trkpt lat="44.69599837688743" lon="10.093067676203988"><ele>132.66666666666666</ele><time>2026-03-29T09:58:23Z</time></trkpt><trkpt lat="44.69609480824114" lon="10.092899314261947"><ele>133.33333333333331</ele><time>2026-03-29T09:58:24Z</time></trkpt><trkpt lat="44.6961886826969" lon="10.092728582085636"><ele>134.0</ele><time>2026-03-29T09:58:25Z</time></trkpt><trkpt lat="44.69628641207953" lon="10.092553299298492"><ele>135.33333333333331</ele><time>2026-03-29T09:58:26Z</time></trkpt><trkpt lat="44.69638272155505" lon="10.092372098790767"><ele>136.66666666666666</ele><time>2026-03-29T09:58:27Z</time></trkpt><trkpt lat="44.69648116695328" lon="10.092184461754139"><ele>138.0</ele><time>2026-03-29T09:58:28Z</time></trkpt><trkpt lat="44.69657154460794" lon="10.092022928492378"><ele>138.0</ele><time>2026-03-29T09:58:29Z</time></trkpt><trkpt lat="44.69666150962842" lon="10.091861507579743"><ele>138.0</ele><time>2026-03-29T09:58:30Z</time></trkpt><trkpt lat="44.696750204098194" lon="10.091704878284881"><ele>138.0</ele><time>2026-03-29T09:58:31Z</time></trkpt><trkpt lat="44.69683218218337" lon="10.091559807737982"><ele>138.0</ele><time>2026-03-29T09:58:32Z</time></trkpt><trkpt lat="44.6969059781435" lon="10.091428752255995"><ele>138.8</ele><time>2026-03-29T09:58:33Z</time></trkpt><trkpt lat="44.69697853251126" lon="10.091299895955444"><ele>139.60000000000002</ele><time>2026-03-29T09:58:34Z</time></trkpt><trkpt lat="44.697044301611164" lon="10.091185111259612"><ele>140.39999999999998</ele><time>2026-03-29T09:58:35Z</time></trkpt><trkpt lat="44.69710974105052" lon="10.091079168903613"><ele>141.2</ele><time>2026-03-29T09:58:36Z</time></trkpt><trkpt lat="44.697182810011796" lon="10.09096745735902"><ele>142.0</ele><time>2026-03-29T09:58:37Z</time></trkpt><trkpt lat="44.697250612638165" lon="10.090859717238965"><ele>142.4</ele><time>2026-03-29T09:58:38Z</time></trkpt><trkpt lat="44.69731187228248" lon="10.09075060610426"><ele>142.79999999999998</ele><time>2026-03-29T09:58:39Z</time></trkpt><trkpt lat="44.697378152684045" lon="10.090630215226488"><ele>143.2</ele><time>2026-03-29T09:58:40Z</time></trkpt><trkpt lat="44.6974401159099" lon="10.090514656410747"><ele>143.6</ele><time>2026-03-29T09:58:41Z</time></trkpt><trkpt lat="44.69749801074736" lon="10.090403809710258"><ele>144.0</ele><time>2026-03-29T09:58:42Z</time></trkpt><trkpt lat="44.69756207055037" lon="10.090290393709648"><ele>144.0</ele><time>2026-03-29T09:58:43Z</time></trkpt><trkpt lat="44.69762776185713" lon="10.090178109165105"><ele>144.0</ele><time>2026-03-29T09:58:44Z</time></trkpt><trkpt lat="44.69769161676413" lon="10.090072299811126"><ele>144.0</ele><time>2026-03-29T09:58:45Z</time></trkpt><trkpt lat="44.69774961416896" lon="10.089970419165079"><ele>144.0</ele><time>2026-03-29T09:58:46Z</time></trkpt><trkpt lat="44.69780431830454" lon="10.089866894197083"><ele>144.0</ele><time>2026-03-29T09:58:47Z</time></trkpt><trkpt lat="44.697850491290424" lon="10.089775928590626"><ele>144.83333333333334</ele><time>2026-03-29T09:58:48Z</time></trkpt><trkpt lat="44.697890493929144" lon="10.089696582768326"><ele>145.66666666666666</ele><time>2026-03-29T09:58:49Z</time></trkpt><trkpt lat="44.6979555474284" lon="10.08958462078127"><ele>146.5</ele><time>2026-03-29T09:58:51Z</time></trkpt><trkpt lat="44.69800260316942" lon="10.08951731250247"><ele>147.33333333333331</ele><time>2026-03-29T09:58:55Z</time></trkpt><trkpt lat="44.69806407307001" lon="10.089421109459712"><ele>148.16666666666666</ele><time>2026-03-29T09:58:57Z</time></trkpt><trkpt lat="44.69816072180756" lon="10.089360694566567"><ele>149.0</ele><time>2026-03-29T09:58:59Z</time></trkpt><trkpt lat="44.698231059699545" lon="10.089339643150833"><ele>149.0</ele><time>2026-03-29T09:59:00Z</time></trkpt><trkpt lat="44.69832288351262" lon="10.089322357267585"><ele>149.0</ele><time>2026-03-29T09:59:01Z</time></trkpt><trkpt lat="44.69841321796052" lon="10.089321954699288"><ele>149.0</ele><time>2026-03-29T09:59:02Z</time></trkpt><trkpt lat="44.69850862998255" lon="10.089352321580382"><ele>149.0</ele><time>2026-03-29T09:59:03Z</time></trkpt><trkpt lat="44.69860124603472" lon="10.089398614526814"><ele>149.0</ele><time>2026-03-29T09:59:04Z</time></trkpt><trkpt lat="44.698693551430495" lon="10.089471895330162"><ele>151.0</ele><time>2026-03-29T09:59:05Z</time></trkpt><trkpt lat="44.69878356103155" lon="10.089555084060054"><ele>153.0</ele><time>2026-03-29T09:59:06Z</time></trkpt><trkpt lat="44.69887592769843" lon="10.089648378185512"><ele>155.0</ele><time>2026-03-29T09:59:07Z</time></trkpt><trkpt lat="44.698965529465134" lon="10.089739917104513"><ele>157.0</ele><time>2026-03-29T09:59:08Z</time></trkpt><trkpt lat="44.69905407022104" lon="10.089828344297128"><ele>159.0</ele><time>2026-03-29T09:59:09Z</time></trkpt><trkpt lat="44.69914564377399" lon="10.089918584213919"><ele>158.4</ele><time>2026-03-29T09:59:10Z</time></trkpt><trkpt lat="44.6992348882464" lon="10.090006548294964"><ele>157.8</ele><time>2026-03-29T09:59:11Z</time></trkpt><trkpt lat="44.69932031349131" lon="10.090092008990634"><ele>157.2</ele><time>2026-03-29T09:59:12Z</time></trkpt><trkpt lat="44.69939792093048" lon="10.0901735422933"><ele>156.6</ele><time>2026-03-29T09:59:13Z</time></trkpt><trkpt lat="44.69946882145128" lon="10.090248637579592"><ele>156.0</ele><time>2026-03-29T09:59:14Z</time></trkpt><trkpt lat="44.6995270605963" lon="10.090313419703643"><ele>156.0</ele><time>2026-03-29T09:59:15Z</time></trkpt><trkpt lat="44.69957503471168" lon="10.090397650196113"><ele>156.0</ele><time>2026-03-29T09:59:17Z</time></trkpt><trkpt lat="44.69961098545302" lon="10.090472582060427"><ele>156.0</ele><time>2026-03-29T09:59:21Z</time></trkpt><trkpt lat="44.69968736837492" lon="10.090548936255166"><ele>156.0</ele><time>2026-03-29T09:59:23Z</time></trkpt><trkpt lat="44.699751114346896" lon="10.090638516109673"><ele>156.0</ele><time>2026-03-29T09:59:25Z</time></trkpt><trkpt lat="44.69981158848732" lon="10.090701567861942"><ele>156.0</ele><time>2026-03-29T09:59:27Z</time></trkpt><trkpt lat="44.69986946784191" lon="10.090764962558675"><ele>156.0</ele><time>2026-03-29T09:59:29Z</time></trkpt><trkpt lat="44.69992665427234" lon="10.090821300197899"><ele>156.0</ele><time>2026-03-29T09:59:30Z</time></trkpt><trkpt lat="44.699984573937236" lon="10.090874983031634"><ele>156.0</ele><time>2026-03-29T09:59:31Z</time></trkpt><trkpt lat="44.70006182203618" lon="10.090967923961008"><ele>156.0</ele><time>2026-03-29T09:59:33Z</time></trkpt><trkpt lat="44.70011393685775" lon="10.091028881838563"><ele>156.0</ele><time>2026-03-29T09:59:35Z</time></trkpt><trkpt lat="44.70018393331636" lon="10.090996263520145"><ele>156.0</ele><time>2026-03-29T10:01:24Z</time></trkpt><trkpt lat="44.7002901922456" lon="10.091034372936429"><ele>156.0</ele><time>2026-03-29T10:01:27Z</time></trkpt><trkpt lat="44.700353117878" lon="10.091110190273175"><ele>156.0</ele><time>2026-03-29T10:01:28Z</time></trkpt><trkpt lat="44.7004220078946" lon="10.091178556648755"><ele>156.0</ele><time>2026-03-29T10:01:29Z</time></trkpt><trkpt lat="44.70050578048876" lon="10.091268906804428"><ele>156.0</ele><time>2026-03-29T10:01:30Z</time></trkpt><trkpt lat="44.70060938948152" lon="10.091368849409925"><ele>156.0</ele><time>2026-03-29T10:01:31Z</time></trkpt><trkpt lat="44.70069770105841" lon="10.091467257716939"><ele>156.0</ele><time>2026-03-29T10:01:32Z</time></trkpt><trkpt lat="44.70082034850446" lon="10.091574220164802"><ele>156.0</ele><time>2026-03-29T10:01:33Z</time></trkpt><trkpt lat="44.700932337249434" lon="10.091676219125565"><ele>156.0</ele><time>2026-03-29T10:01:34Z</time></trkpt><trkpt lat="44.7010749540898" lon="10.09181514207755"><ele>154.5</ele><time>2026-03-29T10:01:35Z</time></trkpt><trkpt lat="44.701196184253966" lon="10.091941627206461"><ele>153.0</ele><time>2026-03-29T10:01:36Z</time></trkpt><trkpt lat="44.701319955180516" lon="10.092065729351235"><ele>151.5</ele><time>2026-03-29T10:01:37Z</time></trkpt><trkpt lat="44.701434619461374" lon="10.09218075135611"><ele>150.0</ele><time>2026-03-29T10:01:37.999Z</time></trkpt><trkpt lat="44.70152231727151" lon="10.092278017663377"><ele>150.0</ele><time>2026-03-29T10:01:38.999Z</time></trkpt><trkpt lat="44.70158787230921" lon="10.092354489869699"><ele>150.0</ele><time>2026-03-29T10:01:39.999Z</time></trkpt><trkpt lat="44.70164524762871" lon="10.092431445347913"><ele>150.0</ele><time>2026-03-29T10:01:40.999Z</time></trkpt><trkpt lat="44.701727872710435" lon="10.092519493054716"><ele>150.0</ele><time>2026-03-29T10:01:41.999Z</time></trkpt><trkpt lat="44.70184171130042" lon="10.092617969478244"><ele>150.0</ele><time>2026-03-29T10:01:42.999Z</time></trkpt><trkpt lat="44.70196658274303" lon="10.092734534892575"><ele>150.33333333333334</ele><time>2026-03-29T10:01:43.999Z</time></trkpt><trkpt lat="44.70209841206235" lon="10.092862266777212"><ele>150.66666666666669</ele><time>2026-03-29T10:01:44.999Z</time></trkpt><trkpt lat="44.70221963793757" lon="10.092986339705059"><ele>151.0</ele><time>2026-03-29T10:01:45.999Z</time></trkpt><trkpt lat="44.70233910061128" lon="10.0931058387162"><ele>151.0</ele><time>2026-03-29T10:01:46.999Z</time></trkpt><trkpt lat="44.70246715810695" lon="10.093234186859352"><ele>151.0</ele><time>2026-03-29T10:01:47.999Z</time></trkpt><trkpt lat="44.70259982133146" lon="10.0933748540856"><ele>151.0</ele><time>2026-03-29T10:01:48.999Z</time></trkpt><trkpt lat="44.70273872588435" lon="10.093511391797866"><ele>152.0</ele><time>2026-03-29T10:01:49.999Z</time></trkpt><trkpt lat="44.70287813787484" lon="10.093646942550224"><ele>153.0</ele><time>2026-03-29T10:01:50.999Z</time></trkpt><trkpt lat="44.703015255691064" lon="10.093782948729555"><ele>154.0</ele><time>2026-03-29T10:01:51.999Z</time></trkpt><trkpt lat="44.70315200466662" lon="10.093924639150044"><ele>154.0</ele><time>2026-03-29T10:01:52.999Z</time></trkpt><trkpt lat="44.7032914204385" lon="10.094073472028514"><ele>154.0</ele><time>2026-03-29T10:01:53.999Z</time></trkpt><trkpt lat="44.70343651164233" lon="10.094216781322883"><ele>154.0</ele><time>2026-03-29T10:01:54.999Z</time></trkpt><trkpt lat="44.703592488809996" lon="10.09437206781114"><ele>154.0</ele><time>2026-03-29T10:01:55.999Z</time></trkpt><trkpt lat="44.70374717460431" lon="10.09452847190288"><ele>154.0</ele><time>2026-03-29T10:01:56.999Z</time></trkpt><trkpt lat="44.70389717515758" lon="10.094686239373342"><ele>154.0</ele><time>2026-03-29T10:01:57.999Z</time></trkpt><trkpt lat="44.704045190250696" lon="10.094864307570175"><ele>153.33333333333334</ele><time>2026-03-29T10:01:58.999Z</time></trkpt><trkpt lat="44.704187470614634" lon="10.09505340872725"><ele>152.66666666666666</ele><time>2026-03-29T10:01:59.999Z</time></trkpt><trkpt lat="44.704322454373354" lon="10.095265429468604"><ele>152.0</ele><time>2026-03-29T10:02:00.999Z</time></trkpt><trkpt lat="44.70443923966545" lon="10.095489765266699"><ele>152.0</ele><time>2026-03-29T10:02:01.999Z</time></trkpt><trkpt lat="44.704556223195375" lon="10.095730910133428"><ele>152.0</ele><time>2026-03-29T10:02:02.999Z</time></trkpt><trkpt lat="44.70466478232816" lon="10.095967326244981"><ele>152.0</ele><time>2026-03-29T10:02:03.999Z</time></trkpt><trkpt lat="44.7047711685599" lon="10.096193936573725"><ele>148.0</ele><time>2026-03-29T10:02:04.999Z</time></trkpt><trkpt lat="44.70489039305065" lon="10.096430801692412"><ele>144.0</ele><time>2026-03-29T10:02:05.999Z</time></trkpt><trkpt lat="44.7050191146414" lon="10.096727153714196"><ele>142.5</ele><time>2026-03-29T10:02:06.999Z</time></trkpt><trkpt lat="44.70516736194322" lon="10.097037423543348"><ele>141.0</ele><time>2026-03-29T10:02:07.999Z</time></trkpt><trkpt lat="44.70532899636114" lon="10.097331567592603"><ele>142.5</ele><time>2026-03-29T10:02:08.999Z</time></trkpt><trkpt lat="44.705459566431244" lon="10.097645260942846"><ele>144.0</ele><time>2026-03-29T10:02:09.999Z</time></trkpt><trkpt lat="44.70560575051323" lon="10.097923918560651"><ele>144.0</ele><time>2026-03-29T10:02:10.999Z</time></trkpt><trkpt lat="44.70576926346828" lon="10.098175001788992"><ele>144.0</ele><time>2026-03-29T10:02:11.999Z</time></trkpt><trkpt lat="44.7059721606358" lon="10.09835883590208"><ele>144.5</ele><time>2026-03-29T10:02:12.999Z</time></trkpt><trkpt lat="44.70620622742903" lon="10.09849969045465"><ele>145.0</ele><time>2026-03-29T10:02:13.999Z</time></trkpt><trkpt lat="44.70646125615618" lon="10.09863538797487"><ele>145.0</ele><time>2026-03-29T10:02:14.999Z</time></trkpt><trkpt lat="44.70670067549375" lon="10.098786681629772"><ele>145.0</ele><time>2026-03-29T10:02:15.999Z</time></trkpt><trkpt lat="44.70692754071524" lon="10.098973355470166"><ele>144.5</ele><time>2026-03-29T10:02:16.999Z</time></trkpt><trkpt lat="44.70714326541878" lon="10.099133159778306"><ele>144.0</ele><time>2026-03-29T10:02:17.999Z</time></trkpt><trkpt lat="44.707319512115475" lon="10.099373591926437"><ele>144.0</ele><time>2026-03-29T10:02:18.999Z</time></trkpt><trkpt lat="44.70751885550588" lon="10.099612498077262"><ele>144.0</ele><time>2026-03-29T10:02:20Z</time></trkpt><trkpt lat="44.707699376634544" lon="10.099882723382832"><ele>141.5</ele><time>2026-03-29T10:02:21Z</time></trkpt><trkpt lat="44.70787722456364" lon="10.100125129474204"><ele>139.0</ele><time>2026-03-29T10:02:22Z</time></trkpt><trkpt lat="44.70804317004197" lon="10.100344965153216"><ele>139.0</ele><time>2026-03-29T10:02:23Z</time></trkpt><trkpt lat="44.708194972128624" lon="10.1005505113378"><ele>139.0</ele><time>2026-03-29T10:02:24Z</time></trkpt><trkpt lat="44.7083410607605" lon="10.100742580716622"><ele>139.0</ele><time>2026-03-29T10:02:25Z</time></trkpt><trkpt lat="44.70848675221462" lon="10.100903359576249"><ele>137.33333333333334</ele><time>2026-03-29T10:02:26Z</time></trkpt><trkpt lat="44.708648173599116" lon="10.101016765906333"><ele>135.66666666666666</ele><time>2026-03-29T10:02:27Z</time></trkpt><trkpt lat="44.70886075032348" lon="10.101056003578297"><ele>134.0</ele><time>2026-03-29T10:02:28Z</time></trkpt><trkpt lat="44.70911376425846" lon="10.101037121936056"><ele>134.0</ele><time>2026-03-29T10:02:29Z</time></trkpt><trkpt lat="44.70937762832647" lon="10.101008704469383"><ele>134.0</ele><time>2026-03-29T10:02:30Z</time></trkpt><trkpt lat="44.7096435373834" lon="10.100999998590467"><ele>134.5</ele><time>2026-03-29T10:02:31Z</time></trkpt><trkpt lat="44.70989317898915" lon="10.101002979571495"><ele>135.0</ele><time>2026-03-29T10:02:32Z</time></trkpt><trkpt lat="44.71013717045178" lon="10.101005288676392"><ele>136.0</ele><time>2026-03-29T10:02:33Z</time></trkpt><trkpt lat="44.71037695587902" lon="10.101001147409493"><ele>137.0</ele><time>2026-03-29T10:02:34Z</time></trkpt><trkpt lat="44.71059070581078" lon="10.10100059867151"><ele>137.0</ele><time>2026-03-29T10:02:35Z</time></trkpt><trkpt lat="44.71077192083302" lon="10.101003831799881"><ele>137.0</ele><time>2026-03-29T10:02:36Z</time></trkpt><trkpt lat="44.71090531473384" lon="10.101013618951862"><ele>137.0</ele><time>2026-03-29T10:02:37Z</time></trkpt><trkpt lat="44.711006027410924" lon="10.101040869680489"><ele>137.0</ele><time>2026-03-29T10:02:38Z</time></trkpt><trkpt lat="44.71108148961587" lon="10.101077258757687"><ele>137.6</ele><time>2026-03-29T10:02:39Z</time></trkpt><trkpt lat="44.71114247022445" lon="10.101112116114232"><ele>138.2</ele><time>2026-03-29T10:02:40Z</time></trkpt><trkpt lat="44.71127307179873" lon="10.101182567212339"><ele>138.8</ele><time>2026-03-29T10:02:42Z</time></trkpt><trkpt lat="44.7113775149117" lon="10.101246292732888"><ele>139.4</ele><time>2026-03-29T10:02:43Z</time></trkpt><trkpt lat="44.711486693860586" lon="10.1013204968097"><ele>140.0</ele><time>2026-03-29T10:02:44Z</time></trkpt><trkpt lat="44.71160687462995" lon="10.101405071782922"><ele>140.0</ele><time>2026-03-29T10:02:45Z</time></trkpt><trkpt lat="44.711743484819905" lon="10.101503509954943"><ele>140.0</ele><time>2026-03-29T10:02:46Z</time></trkpt><trkpt lat="44.71190378116293" lon="10.101624515437736"><ele>140.0</ele><time>2026-03-29T10:02:47Z</time></trkpt><trkpt lat="44.71206470748606" lon="10.10174150887425"><ele>139.33333333333331</ele><time>2026-03-29T10:02:48Z</time></trkpt><trkpt lat="44.712237637971846" lon="10.101869208049013"><ele>138.66666666666666</ele><time>2026-03-29T10:02:49Z</time></trkpt><trkpt lat="44.71241441932739" lon="10.10200696878588"><ele>138.0</ele><time>2026-03-29T10:02:50Z</time></trkpt><trkpt lat="44.71258775570048" lon="10.10213999890934"><ele>138.0</ele><time>2026-03-29T10:02:51Z</time></trkpt><trkpt lat="44.71276497429549" lon="10.10228224931919"><ele>138.0</ele><time>2026-03-29T10:02:52Z</time></trkpt><trkpt lat="44.71295773319578" lon="10.102425982628134"><ele>138.0</ele><time>2026-03-29T10:02:53Z</time></trkpt><trkpt lat="44.713148586970476" lon="10.10256969837666"><ele>138.0</ele><time>2026-03-29T10:02:54Z</time></trkpt><trkpt lat="44.7133405065374" lon="10.102719650856882"><ele>138.0</ele><time>2026-03-29T10:02:55Z</time></trkpt><trkpt lat="44.71353551913369" lon="10.10287072516278"><ele>138.0</ele><time>2026-03-29T10:02:56Z</time></trkpt><trkpt lat="44.71373044652713" lon="10.10301883203747"><ele>138.0</ele><time>2026-03-29T10:02:57Z</time></trkpt><trkpt lat="44.71392117147745" lon="10.103162582085675"><ele>138.0</ele><time>2026-03-29T10:02:58Z</time></trkpt><trkpt lat="44.71410167720745" lon="10.103297828525719"><ele>138.0</ele><time>2026-03-29T10:02:59Z</time></trkpt><trkpt lat="44.71428552384284" lon="10.1034355255528"><ele>137.66666666666666</ele><time>2026-03-29T10:03:00Z</time></trkpt><trkpt lat="44.71446597919947" lon="10.10357559848959"><ele>137.33333333333331</ele><time>2026-03-29T10:03:01Z</time></trkpt><trkpt lat="44.71464775081588" lon="10.103711532056757"><ele>137.0</ele><time>2026-03-29T10:03:02Z</time></trkpt><trkpt lat="44.71481950530478" lon="10.103838597181397"><ele>137.0</ele><time>2026-03-29T10:03:03Z</time></trkpt><trkpt lat="44.7149928733617" lon="10.103966496113301"><ele>137.0</ele><time>2026-03-29T10:03:04Z</time></trkpt><trkpt lat="44.71515071580754" lon="10.104085364988832"><ele>137.0</ele><time>2026-03-29T10:03:05Z</time></trkpt><trkpt lat="44.715298341061" lon="10.104195845620147"><ele>137.0</ele><time>2026-03-29T10:03:06Z</time></trkpt><trkpt lat="44.71542522078036" lon="10.104293915140069"><ele>137.0</ele><time>2026-03-29T10:03:07Z</time></trkpt><trkpt lat="44.715534502714036" lon="10.10437854426069"><ele>137.0</ele><time>2026-03-29T10:03:08Z</time></trkpt><trkpt lat="44.715638121085526" lon="10.104460491557377"><ele>137.0</ele><time>2026-03-29T10:03:09Z</time></trkpt><trkpt lat="44.71573989393823" lon="10.104537411538404"><ele>137.0</ele><time>2026-03-29T10:03:10Z</time></trkpt><trkpt lat="44.71583532831057" lon="10.10460612939951"><ele>137.0</ele><time>2026-03-29T10:03:11Z</time></trkpt><trkpt lat="44.71593519098318" lon="10.104678507438349"><ele>137.0</ele><time>2026-03-29T10:03:12Z</time></trkpt><trkpt lat="44.716034083431744" lon="10.104737074843474"><ele>137.0</ele><time>2026-03-29T10:03:13Z</time></trkpt><trkpt lat="44.716128293287866" lon="10.104786346307604"><ele>137.0</ele><time>2026-03-29T10:03:14Z</time></trkpt><trkpt lat="44.71622968556173" lon="10.104830442468"><ele>137.5</ele><time>2026-03-29T10:03:15Z</time></trkpt><trkpt lat="44.71634031436573" lon="10.104862003857445"><ele>138.0</ele><time>2026-03-29T10:03:16Z</time></trkpt><trkpt lat="44.71646697936314" lon="10.104885602072452"><ele>138.5</ele><time>2026-03-29T10:03:17Z</time></trkpt><trkpt lat="44.716607487136294" lon="10.104904836533956"><ele>139.0</ele><time>2026-03-29T10:03:18Z</time></trkpt><trkpt lat="44.71676576900266" lon="10.10492252145469"><ele>137.0</ele><time>2026-03-29T10:03:19Z</time></trkpt><trkpt lat="44.71692443119868" lon="10.104943092277997"><ele>135.0</ele><time>2026-03-29T10:03:20Z</time></trkpt><trkpt lat="44.71708349958131" lon="10.104951767689359"><ele>133.0</ele><time>2026-03-29T10:03:21Z</time></trkpt><trkpt lat="44.71724357124528" lon="10.104957877768285"><ele>133.0</ele><time>2026-03-29T10:03:22Z</time></trkpt><trkpt lat="44.71741315640207" lon="10.104979221874155"><ele>133.0</ele><time>2026-03-29T10:03:23Z</time></trkpt><trkpt lat="44.71759086033529" lon="10.105017097599829"><ele>133.0</ele><time>2026-03-29T10:03:24Z</time></trkpt><trkpt lat="44.71777052565244" lon="10.105102787633161"><ele>134.0</ele><time>2026-03-29T10:03:25Z</time></trkpt><trkpt lat="44.717947258225664" lon="10.105224392947145"><ele>135.0</ele><time>2026-03-29T10:03:26Z</time></trkpt><trkpt lat="44.718124554667135" lon="10.105358709584236"><ele>136.0</ele><time>2026-03-29T10:03:27Z</time></trkpt><trkpt lat="44.718306094663646" lon="10.10549801355257"><ele>136.0</ele><time>2026-03-29T10:03:28Z</time></trkpt><trkpt lat="44.71849799470227" lon="10.105629430466786"><ele>136.0</ele><time>2026-03-29T10:03:29Z</time></trkpt><trkpt lat="44.71868820398266" lon="10.105762047834308"><ele>136.0</ele><time>2026-03-29T10:03:30Z</time></trkpt><trkpt lat="44.718876051831245" lon="10.105895245268908"><ele>136.0</ele><time>2026-03-29T10:03:31Z</time></trkpt><trkpt lat="44.719060606687265" lon="10.106034635817892"><ele>136.0</ele><time>2026-03-29T10:03:32Z</time></trkpt><trkpt lat="44.71923932938085" lon="10.106175116765813"><ele>136.0</ele><time>2026-03-29T10:03:33Z</time></trkpt><trkpt lat="44.71941674996856" lon="10.106331858801308"><ele>136.0</ele><time>2026-03-29T10:03:34Z</time></trkpt><trkpt lat="44.71958908739719" lon="10.106510555176937"><ele>136.0</ele><time>2026-03-29T10:03:35Z</time></trkpt><trkpt lat="44.71976139614945" lon="10.106702078449283"><ele>136.0</ele><time>2026-03-29T10:03:35.999Z</time></trkpt><trkpt lat="44.719936008777935" lon="10.10690979192684"><ele>135.0</ele><time>2026-03-29T10:03:36.999Z</time></trkpt><trkpt lat="44.720100169606184" lon="10.107119856089863"><ele>134.0</ele><time>2026-03-29T10:03:37.999Z</time></trkpt><trkpt lat="44.72025635005711" lon="10.107325850828003"><ele>133.0</ele><time>2026-03-29T10:03:38.999Z</time></trkpt><trkpt lat="44.72039872148762" lon="10.107519028252113"><ele>132.33333333333334</ele><time>2026-03-29T10:03:39.999Z</time></trkpt><trkpt lat="44.720546336581215" lon="10.107713349979438"><ele>131.66666666666666</ele><time>2026-03-29T10:03:40.999Z</time></trkpt><trkpt lat="44.72069335739322" lon="10.107905012096296"><ele>131.0</ele><time>2026-03-29T10:03:41.999Z</time></trkpt><trkpt lat="44.72084725773432" lon="10.108100669124752"><ele>131.0</ele><time>2026-03-29T10:03:42.999Z</time></trkpt><trkpt lat="44.72099817390045" lon="10.108282859121841"><ele>131.0</ele><time>2026-03-29T10:03:43.999Z</time></trkpt><trkpt lat="44.721162813958216" lon="10.10845030886964"><ele>131.0</ele><time>2026-03-29T10:03:44.999Z</time></trkpt><trkpt lat="44.72134694336509" lon="10.108601152365798"><ele>131.0</ele><time>2026-03-29T10:03:45.999Z</time></trkpt><trkpt lat="44.72152856260059" lon="10.108734002943512"><ele>131.0</ele><time>2026-03-29T10:03:46.999Z</time></trkpt><trkpt lat="44.721696745646945" lon="10.108859994122765"><ele>131.0</ele><time>2026-03-29T10:03:47.999Z</time></trkpt><trkpt lat="44.721863368714935" lon="10.108990005671092"><ele>131.0</ele><time>2026-03-29T10:03:48.999Z</time></trkpt><trkpt lat="44.72203756453194" lon="10.10913159180747"><ele>131.0</ele><time>2026-03-29T10:03:49.999Z</time></trkpt><trkpt lat="44.72221123022728" lon="10.109270123241316"><ele>131.0</ele><time>2026-03-29T10:03:50.999Z</time></trkpt><trkpt lat="44.722382078653226" lon="10.10940992068932"><ele>131.0</ele><time>2026-03-29T10:03:51.999Z</time></trkpt><trkpt lat="44.72255362706228" lon="10.109550034937216"><ele>131.0</ele><time>2026-03-29T10:03:52.999Z</time></trkpt><trkpt lat="44.722722875377784" lon="10.10968929424911"><ele>131.0</ele><time>2026-03-29T10:03:53.999Z</time></trkpt><trkpt lat="44.72288902680291" lon="10.109823678603703"><ele>131.33333333333331</ele><time>2026-03-29T10:03:54.999Z</time></trkpt><trkpt lat="44.723050665758684" lon="10.109946948691023"><ele>131.66666666666666</ele><time>2026-03-29T10:03:55.999Z</time></trkpt><trkpt lat="44.7232018982179" lon="10.110061381096175"><ele>132.0</ele><time>2026-03-29T10:03:56.999Z</time></trkpt><trkpt lat="44.723342689144914" lon="10.110167287469986"><ele>132.0</ele><time>2026-03-29T10:03:57.999Z</time></trkpt><trkpt lat="44.72348048104216" lon="10.110259233427909"><ele>132.0</ele><time>2026-03-29T10:03:58.999Z</time></trkpt><trkpt lat="44.723608258295364" lon="10.11033754513539"><ele>132.0</ele><time>2026-03-29T10:03:59.999Z</time></trkpt><trkpt lat="44.72373218782267" lon="10.110405261184164"><ele>132.0</ele><time>2026-03-29T10:04:00.999Z</time></trkpt><trkpt lat="44.723848815031396" lon="10.110470405215509"><ele>132.5</ele><time>2026-03-29T10:04:01.999Z</time></trkpt><trkpt lat="44.72395784825494" lon="10.110531547770638"><ele>133.0</ele><time>2026-03-29T10:04:02.999Z</time></trkpt><trkpt lat="44.72406446246432" lon="10.110590604924933"><ele>133.5</ele><time>2026-03-29T10:04:03.999Z</time></trkpt><trkpt lat="44.72418043199463" lon="10.110653793600747"><ele>134.0</ele><time>2026-03-29T10:04:04.999Z</time></trkpt><trkpt lat="44.72429024352276" lon="10.110717119393879"><ele>133.75</ele><time>2026-03-29T10:04:05.999Z</time></trkpt><trkpt lat="44.72439497415469" lon="10.110788405240235"><ele>133.5</ele><time>2026-03-29T10:04:06.999Z</time></trkpt><trkpt lat="44.72448017488773" lon="10.110900473224715"><ele>133.25</ele><time>2026-03-29T10:04:07.999Z</time></trkpt><trkpt lat="44.72455345759553" lon="10.111040331977502"><ele>133.0</ele><time>2026-03-29T10:04:08.999Z</time></trkpt><trkpt lat="44.72462350706795" lon="10.111183657772305"><ele>133.20000000000002</ele><time>2026-03-29T10:04:09.999Z</time></trkpt><trkpt lat="44.724665437723445" lon="10.111324683506652"><ele>133.4</ele><time>2026-03-29T10:04:10.999Z</time></trkpt><trkpt lat="44.72470866372339" lon="10.111449715582406"><ele>133.60000000000002</ele><time>2026-03-29T10:04:11.999Z</time></trkpt><trkpt lat="44.72475091313407" lon="10.111554972980722"><ele>133.8</ele><time>2026-03-29T10:04:12.999Z</time></trkpt><trkpt lat="44.72478290199956" lon="10.111650173291597"><ele>134.0</ele><time>2026-03-29T10:04:13.999Z</time></trkpt><trkpt lat="44.724838835643894" lon="10.11180190247715"><ele>134.0</ele><time>2026-03-29T10:04:15.999Z</time></trkpt><trkpt lat="44.724866958400625" lon="10.111894476956017"><ele>134.0</ele><time>2026-03-29T10:04:19.999Z</time></trkpt><trkpt lat="44.72489418045359" lon="10.111994995755325"><ele>134.0</ele><time>2026-03-29T10:04:23.999Z</time></trkpt><trkpt lat="44.724958244236795" lon="10.112138327755332"><ele>134.0</ele><time>2026-03-29T10:04:26Z</time></trkpt><trkpt lat="44.72499688488791" lon="10.112234901081072"><ele>134.0</ele><time>2026-03-29T10:04:27Z</time></trkpt><trkpt lat="44.72504418255645" lon="10.112348912126727"><ele>134.0</ele><time>2026-03-29T10:04:28Z</time></trkpt><trkpt lat="44.72507289592697" lon="10.112456324886928"><ele>134.0</ele><time>2026-03-29T10:04:29Z</time></trkpt><trkpt lat="44.72514169213722" lon="10.112514505497014"><ele>134.0</ele><time>2026-03-29T10:04:30Z</time></trkpt><trkpt lat="44.725193138596076" lon="10.1125978481864"><ele>134.0</ele><time>2026-03-29T10:04:31Z</time></trkpt><trkpt lat="44.72524538677221" lon="10.112695183736719"><ele>134.0</ele><time>2026-03-29T10:04:32Z</time></trkpt><trkpt lat="44.725304327726555" lon="10.112798363954655"><ele>134.0</ele><time>2026-03-29T10:04:33Z</time></trkpt><trkpt lat="44.7253845721355" lon="10.112848771366282"><ele>134.0</ele><time>2026-03-29T10:04:34Z</time></trkpt><trkpt lat="44.72543040256227" lon="10.112999408994426"><ele>134.0</ele><time>2026-03-29T10:04:35Z</time></trkpt><trkpt lat="44.72550171562702" lon="10.113104243030826"><ele>134.0</ele><time>2026-03-29T10:04:36Z</time></trkpt><trkpt lat="44.72557469471527" lon="10.113205864991448"><ele>134.0</ele><time>2026-03-29T10:04:37Z</time></trkpt><trkpt lat="44.725640551907006" lon="10.11330836188681"><ele>134.0</ele><time>2026-03-29T10:04:38Z</time></trkpt><trkpt lat="44.72571162826944" lon="10.113412120251365"><ele>134.0</ele><time>2026-03-29T10:04:39Z</time></trkpt><trkpt lat="44.72578449895575" lon="10.113514082623395"><ele>133.75</ele><time>2026-03-29T10:04:40Z</time></trkpt><trkpt lat="44.72586129751136" lon="10.11362479995554"><ele>133.5</ele><time>2026-03-29T10:04:41Z</time></trkpt><trkpt lat="44.725943069479136" lon="10.113745007940823"><ele>133.25</ele><time>2026-03-29T10:04:42Z</time></trkpt><trkpt lat="44.726021425340974" lon="10.113862490016453"><ele>133.0</ele><time>2026-03-29T10:04:43Z</time></trkpt><trkpt lat="44.726099374044466" lon="10.113975531776967"><ele>133.5</ele><time>2026-03-29T10:04:44Z</time></trkpt><trkpt lat="44.72618071112942" lon="10.11409487533039"><ele>134.0</ele><time>2026-03-29T10:04:45Z</time></trkpt><trkpt lat="44.72626227597013" lon="10.11421526405577"><ele>134.5</ele><time>2026-03-29T10:04:46Z</time></trkpt><trkpt lat="44.72634352166743" lon="10.114331860026102"><ele>135.0</ele><time>2026-03-29T10:04:47Z</time></trkpt><trkpt lat="44.72642196689429" lon="10.114445633702214"><ele>135.0</ele><time>2026-03-29T10:04:48Z</time></trkpt><trkpt lat="44.72649723696705" lon="10.114553028827459"><ele>135.0</ele><time>2026-03-29T10:04:49Z</time></trkpt><trkpt lat="44.72657382944187" lon="10.114666143544271"><ele>135.0</ele><time>2026-03-29T10:04:50Z</time></trkpt><trkpt lat="44.72665267401773" lon="10.114784188280245"><ele>135.0</ele><time>2026-03-29T10:04:51Z</time></trkpt><trkpt lat="44.72673144049704" lon="10.114906531229321"><ele>135.25</ele><time>2026-03-29T10:04:52Z</time></trkpt><trkpt lat="44.72681164771071" lon="10.115027981232641"><ele>135.5</ele><time>2026-03-29T10:04:53Z</time></trkpt><trkpt lat="44.72689179364756" lon="10.115147596460211"><ele>135.75</ele><time>2026-03-29T10:04:54Z</time></trkpt><trkpt lat="44.72697239980682" lon="10.115263257985852"><ele>136.0</ele><time>2026-03-29T10:04:55Z</time></trkpt><trkpt lat="44.72705715537616" lon="10.11538574810612"><ele>136.0</ele><time>2026-03-29T10:04:56Z</time></trkpt><trkpt lat="44.72714501081198" lon="10.115509914173126"><ele>136.0</ele><time>2026-03-29T10:04:57Z</time></trkpt><trkpt lat="44.72723237242607" lon="10.115644686534043"><ele>136.0</ele><time>2026-03-29T10:04:58Z</time></trkpt><trkpt lat="44.72732854570908" lon="10.115781081740472"><ele>136.0</ele><time>2026-03-29T10:04:59Z</time></trkpt><trkpt lat="44.72741735910862" lon="10.115912042333584"><ele>136.25</ele><time>2026-03-29T10:05:00Z</time></trkpt><trkpt lat="44.72750978166634" lon="10.116044118867965"><ele>136.5</ele><time>2026-03-29T10:05:01Z</time></trkpt><trkpt lat="44.72760344684579" lon="10.116176508400123"><ele>136.75</ele><time>2026-03-29T10:05:02Z</time></trkpt><trkpt lat="44.72769856096348" lon="10.116314013011493"><ele>137.0</ele><time>2026-03-29T10:05:03Z</time></trkpt><trkpt lat="44.72779883180671" lon="10.116458467907165"><ele>135.75</ele><time>2026-03-29T10:05:04Z</time></trkpt><trkpt lat="44.727897705941665" lon="10.116599303652041"><ele>134.5</ele><time>2026-03-29T10:05:05Z</time></trkpt><trkpt lat="44.72799495566692" lon="10.116743306758613"><ele>133.25</ele><time>2026-03-29T10:05:06Z</time></trkpt><trkpt lat="44.72809491738718" lon="10.116883567047363"><ele>132.0</ele><time>2026-03-29T10:05:07Z</time></trkpt><trkpt lat="44.72818904282769" lon="10.117017954877253"><ele>132.0</ele><time>2026-03-29T10:05:08Z</time></trkpt><trkpt lat="44.72827826350256" lon="10.117148509679726"><ele>132.0</ele><time>2026-03-29T10:05:09Z</time></trkpt><trkpt lat="44.7283690761258" lon="10.11727838230369"><ele>132.0</ele><time>2026-03-29T10:05:10Z</time></trkpt><trkpt lat="44.72846327101641" lon="10.117416508406942"><ele>132.0</ele><time>2026-03-29T10:05:11Z</time></trkpt><trkpt lat="44.72856049485949" lon="10.117554727929422"><ele>133.25</ele><time>2026-03-29T10:05:12Z</time></trkpt><trkpt lat="44.7286525380927" lon="10.117693243833784"><ele>134.5</ele><time>2026-03-29T10:05:13Z</time></trkpt><trkpt lat="44.72874621449954" lon="10.117838509089186"><ele>135.75</ele><time>2026-03-29T10:05:14Z</time></trkpt><trkpt lat="44.72885031040633" lon="10.117991047304152"><ele>137.0</ele><time>2026-03-29T10:05:15Z</time></trkpt><trkpt lat="44.728953233817485" lon="10.118137704825582"><ele>136.25</ele><time>2026-03-29T10:05:16Z</time></trkpt><trkpt lat="44.72905058023644" lon="10.118274888998002"><ele>135.5</ele><time>2026-03-29T10:05:17Z</time></trkpt><trkpt lat="44.72914986661692" lon="10.11841462116886"><ele>134.75</ele><time>2026-03-29T10:05:18Z</time></trkpt><trkpt lat="44.72924309173625" lon="10.1185496287266"><ele>134.0</ele><time>2026-03-29T10:05:19Z</time></trkpt><trkpt lat="44.729336693039215" lon="10.118687296776054"><ele>134.0</ele><time>2026-03-29T10:05:20Z</time></trkpt><trkpt lat="44.72942986952155" lon="10.118822776550719"><ele>134.0</ele><time>2026-03-29T10:05:21Z</time></trkpt><trkpt lat="44.729529144433265" lon="10.118964806287146"><ele>134.0</ele><time>2026-03-29T10:05:22Z</time></trkpt><trkpt lat="44.729627701306576" lon="10.119105324712985"><ele>134.0</ele><time>2026-03-29T10:05:23Z</time></trkpt><trkpt lat="44.72972890771098" lon="10.11925194690851"><ele>134.0</ele><time>2026-03-29T10:05:24Z</time></trkpt><trkpt lat="44.729828175198854" lon="10.119390436542373"><ele>134.0</ele><time>2026-03-29T10:05:25Z</time></trkpt><trkpt lat="44.729921612472786" lon="10.11951689313271"><ele>134.0</ele><time>2026-03-29T10:05:26Z</time></trkpt><trkpt lat="44.730029181469114" lon="10.119644924581118"><ele>134.0</ele><time>2026-03-29T10:05:27Z</time></trkpt><trkpt lat="44.730144439999286" lon="10.119768933059913"><ele>133.0</ele><time>2026-03-29T10:05:28Z</time></trkpt><trkpt lat="44.73026012216502" lon="10.119881238622282"><ele>132.0</ele><time>2026-03-29T10:05:29Z</time></trkpt><trkpt lat="44.73037243625306" lon="10.11999169847367"><ele>131.0</ele><time>2026-03-29T10:05:30Z</time></trkpt><trkpt lat="44.7304765487531" lon="10.12009881411217"><ele>130.0</ele><time>2026-03-29T10:05:31Z</time></trkpt><trkpt lat="44.73058407875709" lon="10.120214870592328"><ele>130.0</ele><time>2026-03-29T10:05:32Z</time></trkpt><trkpt lat="44.730718727367965" lon="10.120367964330026"><ele>130.0</ele><time>2026-03-29T10:05:33Z</time></trkpt><trkpt lat="44.73089949139831" lon="10.12055595229603"><ele>130.0</ele><time>2026-03-29T10:05:34Z</time></trkpt><trkpt lat="44.731107383524126" lon="10.120772223329736"><ele>131.0</ele><time>2026-03-29T10:05:35Z</time></trkpt><trkpt lat="44.731339929719574" lon="10.121012999071828"><ele>132.0</ele><time>2026-03-29T10:05:35.999Z</time></trkpt><trkpt lat="44.731595626022354" lon="10.121272631214895"><ele>132.5</ele><time>2026-03-29T10:05:36.999Z</time></trkpt><trkpt lat="44.73185619638408" lon="10.121583936481942"><ele>133.0</ele><time>2026-03-29T10:05:37.999Z</time></trkpt><trkpt lat="44.73210266784867" lon="10.12189148124393"><ele>133.0</ele><time>2026-03-29T10:05:38.999Z</time></trkpt><trkpt lat="44.73232823059336" lon="10.122176124653942"><ele>133.0</ele><time>2026-03-29T10:05:39.999Z</time></trkpt><trkpt lat="44.73254359995608" lon="10.122433505910422"><ele>131.0</ele><time>2026-03-29T10:05:40.999Z</time></trkpt><trkpt lat="44.73277330217117" lon="10.122673592270493"><ele>129.0</ele><time>2026-03-29T10:05:41.999Z</time></trkpt><trkpt lat="44.7330363544889" lon="10.122887022388705"><ele>129.0</ele><time>2026-03-29T10:05:42.999Z</time></trkpt><trkpt lat="44.73334114997524" lon="10.123090070456637"><ele>129.0</ele><time>2026-03-29T10:05:43.999Z</time></trkpt><trkpt lat="44.733656084541366" lon="10.12328703606179"><ele>125.5</ele><time>2026-03-29T10:05:44.999Z</time></trkpt><trkpt lat="44.73395638327256" lon="10.123494912106842"><ele>122.0</ele><time>2026-03-29T10:05:45.999Z</time></trkpt><trkpt lat="44.73423204871328" lon="10.12368458201895"><ele>124.0</ele><time>2026-03-29T10:05:46.999Z</time></trkpt><trkpt lat="44.734484788745405" lon="10.123864020830098"><ele>126.0</ele><time>2026-03-29T10:05:47.999Z</time></trkpt><trkpt lat="44.73474287830017" lon="10.12405711819512"><ele>125.5</ele><time>2026-03-29T10:05:48.999Z</time></trkpt><trkpt lat="44.73501455458156" lon="10.124276435801617"><ele>125.0</ele><time>2026-03-29T10:05:49.999Z</time></trkpt><trkpt lat="44.735285699416906" lon="10.124508135086087"><ele>125.0</ele><time>2026-03-29T10:05:50.999Z</time></trkpt><trkpt lat="44.735561822275166" lon="10.124741784839916"><ele>125.0</ele><time>2026-03-29T10:05:51.999Z</time></trkpt><trkpt lat="44.73582529797681" lon="10.12495640242421"><ele>126.0</ele><time>2026-03-29T10:05:52.999Z</time></trkpt><trkpt lat="44.73606811271188" lon="10.125161112103337"><ele>127.0</ele><time>2026-03-29T10:05:53.999Z</time></trkpt><trkpt lat="44.73631450793921" lon="10.125370135409275"><ele>127.0</ele><time>2026-03-29T10:05:54.999Z</time></trkpt><trkpt lat="44.736570462643535" lon="10.125585546669909"><ele>127.0</ele><time>2026-03-29T10:05:55.999Z</time></trkpt><trkpt lat="44.736836592257845" lon="10.12580952777958"><ele>126.0</ele><time>2026-03-29T10:05:56.999Z</time></trkpt><trkpt lat="44.73711258220095" lon="10.126053828510713"><ele>125.0</ele><time>2026-03-29T10:05:57.999Z</time></trkpt><trkpt lat="44.737368765903504" lon="10.126297860449435"><ele>125.0</ele><time>2026-03-29T10:05:58.999Z</time></trkpt><trkpt lat="44.73759773264863" lon="10.126527100884765"><ele>125.0</ele><time>2026-03-29T10:05:59.999Z</time></trkpt><trkpt lat="44.7378144710634" lon="10.12675887879077"><ele>124.5</ele><time>2026-03-29T10:06:00.999Z</time></trkpt><trkpt lat="44.73799509063746" lon="10.126986290422833"><ele>124.0</ele><time>2026-03-29T10:06:01.999Z</time></trkpt><trkpt lat="44.73815335208093" lon="10.127223053971871"><ele>124.33333333333334</ele><time>2026-03-29T10:06:02.999Z</time></trkpt><trkpt lat="44.738299024999236" lon="10.127456461363728"><ele>124.66666666666666</ele><time>2026-03-29T10:06:03.999Z</time></trkpt><trkpt lat="44.73844758074809" lon="10.127685405141802"><ele>125.0</ele><time>2026-03-29T10:06:04.999Z</time></trkpt><trkpt lat="44.73859017360947" lon="10.12789851905309"><ele>125.0</ele><time>2026-03-29T10:06:05.999Z</time></trkpt><trkpt lat="44.73871723288422" lon="10.128091265099332"><ele>125.0</ele><time>2026-03-29T10:06:06.999Z</time></trkpt><trkpt lat="44.738837944447546" lon="10.128278311997091"><ele>125.0</ele><time>2026-03-29T10:06:07.999Z</time></trkpt><trkpt lat="44.73896197485513" lon="10.12846039557495"><ele>124.0</ele><time>2026-03-29T10:06:08.999Z</time></trkpt><trkpt lat="44.7390870058259" lon="10.128644676955846"><ele>123.0</ele><time>2026-03-29T10:06:09.999Z</time></trkpt><trkpt lat="44.73920240457251" lon="10.128814924881027"><ele>122.0</ele><time>2026-03-29T10:06:10.999Z</time></trkpt><trkpt lat="44.739319300959586" lon="10.12898215712107"><ele>120.33333333333333</ele><time>2026-03-29T10:06:11.999Z</time></trkpt><trkpt lat="44.73944524401286" lon="10.129134535326468"><ele>118.66666666666666</ele><time>2026-03-29T10:06:12.999Z</time></trkpt><trkpt lat="44.73957023196339" lon="10.129258585576332"><ele>117.0</ele><time>2026-03-29T10:06:13.999Z</time></trkpt><trkpt lat="44.7396872762287" lon="10.129366768075162"><ele>117.0</ele><time>2026-03-29T10:06:14.999Z</time></trkpt><trkpt lat="44.73978887365891" lon="10.129457269497433"><ele>116.99999999999999</ele><time>2026-03-29T10:06:15.999Z</time></trkpt><trkpt lat="44.73986955093449" lon="10.129530532697997"><ele>116.99999999999999</ele><time>2026-03-29T10:06:16.999Z</time></trkpt><trkpt lat="44.73994169545756" lon="10.129600268876585"><ele>117.0</ele><time>2026-03-29T10:06:17.999Z</time></trkpt><trkpt lat="44.7400067630637" lon="10.12966413475988"><ele>117.0</ele><time>2026-03-29T10:06:18.999Z</time></trkpt><trkpt lat="44.74006462599821" lon="10.129729783588322"><ele>117.0</ele><time>2026-03-29T10:06:19.999Z</time></trkpt><trkpt lat="44.740149998269125" lon="10.12985821961835"><ele>117.0</ele><time>2026-03-29T10:06:21.999Z</time></trkpt><trkpt lat="44.7402063235529" lon="10.12995231510527"><ele>117.0</ele><time>2026-03-29T10:06:22.999Z</time></trkpt><trkpt lat="44.7403160605447" lon="10.130034497325129"><ele>117.0</ele><time>2026-03-29T10:06:23.999Z</time></trkpt><trkpt lat="44.74047705053899" lon="10.130075495059065"><ele>116.66666666666666</ele><time>2026-03-29T10:06:24.999Z</time></trkpt><trkpt lat="44.740635490298075" lon="10.130128686638283"><ele>116.33333333333333</ele><time>2026-03-29T10:06:25.999Z</time></trkpt><trkpt lat="44.740810201758855" lon="10.130210491652548"><ele>116.0</ele><time>2026-03-29T10:06:26.999Z</time></trkpt><trkpt lat="44.74097531701937" lon="10.13031492605894"><ele>117.0</ele><time>2026-03-29T10:06:27.999Z</time></trkpt><trkpt lat="44.74113713681059" lon="10.130442393953636"><ele>118.0</ele><time>2026-03-29T10:06:28.999Z</time></trkpt><trkpt lat="44.74130129429896" lon="10.13056401987393"><ele>119.0</ele><time>2026-03-29T10:06:29.999Z</time></trkpt><trkpt lat="44.74147170513104" lon="10.13069178556077"><ele>118.66666666666666</ele><time>2026-03-29T10:06:30.999Z</time></trkpt><trkpt lat="44.74164448792246" lon="10.130824959456755"><ele>118.33333333333334</ele><time>2026-03-29T10:06:32Z</time></trkpt><trkpt lat="44.74181621411753" lon="10.13096545996692"><ele>118.0</ele><time>2026-03-29T10:06:33Z</time></trkpt><trkpt lat="44.74198640185751" lon="10.131101620598795"><ele>118.0</ele><time>2026-03-29T10:06:34Z</time></trkpt><trkpt lat="44.7421732121321" lon="10.131254239574991"><ele>118.0</ele><time>2026-03-29T10:06:35Z</time></trkpt><trkpt lat="44.74238368390053" lon="10.131424332503926"><ele>119.0</ele><time>2026-03-29T10:06:36Z</time></trkpt><trkpt lat="44.742595980774006" lon="10.13159402035652"><ele>120.0</ele><time>2026-03-29T10:06:37Z</time></trkpt><trkpt lat="44.74282115484086" lon="10.131772929313149"><ele>120.0</ele><time>2026-03-29T10:06:38Z</time></trkpt><trkpt lat="44.74306935838166" lon="10.13196953232989"><ele>120.0</ele><time>2026-03-29T10:06:39Z</time></trkpt><trkpt lat="44.74334018401995" lon="10.132178101101562"><ele>120.0</ele><time>2026-03-29T10:06:40Z</time></trkpt><trkpt lat="44.743605650573194" lon="10.132389566499828"><ele>120.0</ele><time>2026-03-29T10:06:41Z</time></trkpt><trkpt lat="44.74386377408333" lon="10.132600509298584"><ele>120.0</ele><time>2026-03-29T10:06:42Z</time></trkpt><trkpt lat="44.74411463842549" lon="10.132810015391918"><ele>120.0</ele><time>2026-03-29T10:06:43Z</time></trkpt><trkpt lat="44.744368339975075" lon="10.1330210896063"><ele>120.5</ele><time>2026-03-29T10:06:44Z</time></trkpt><trkpt lat="44.74461471571184" lon="10.1332336395546"><ele>121.0</ele><time>2026-03-29T10:06:45Z</time></trkpt><trkpt lat="44.744862769482744" lon="10.133462356344998"><ele>121.0</ele><time>2026-03-29T10:06:46Z</time></trkpt><trkpt lat="44.745107639524704" lon="10.133700592698183"><ele>121.0</ele><time>2026-03-29T10:06:47Z</time></trkpt><trkpt lat="44.74534775557382" lon="10.133945519062518"><ele>122.0</ele><time>2026-03-29T10:06:48Z</time></trkpt><trkpt lat="44.74558791108286" lon="10.134206201153212"><ele>123.0</ele><time>2026-03-29T10:06:49Z</time></trkpt><trkpt lat="44.7458336886272" lon="10.134483093342793"><ele>123.0</ele><time>2026-03-29T10:06:50Z</time></trkpt><trkpt lat="44.746080651988784" lon="10.134795111652352"><ele>123.0</ele><time>2026-03-29T10:06:51Z</time></trkpt><trkpt lat="44.74632841510678" lon="10.13511238268476"><ele>123.0</ele><time>2026-03-29T10:06:52Z</time></trkpt><trkpt lat="44.746584098266645" lon="10.135432295555407"><ele>123.0</ele><time>2026-03-29T10:06:53Z</time></trkpt><trkpt lat="44.74684049187501" lon="10.135754477178708"><ele>124.5</ele><time>2026-03-29T10:06:54Z</time></trkpt><trkpt lat="44.74709622337202" lon="10.136075353833297"><ele>126.0</ele><time>2026-03-29T10:06:55Z</time></trkpt><trkpt lat="44.74735585708339" lon="10.13639844211752"><ele>127.0</ele><time>2026-03-29T10:06:56Z</time></trkpt><trkpt lat="44.747614476816175" lon="10.136717327204204"><ele>128.0</ele><time>2026-03-29T10:06:57Z</time></trkpt><trkpt lat="44.74787663726274" lon="10.137038083568632"><ele>128.0</ele><time>2026-03-29T10:06:58Z</time></trkpt><trkpt lat="44.74811974117138" lon="10.137342894798564"><ele>128.0</ele><time>2026-03-29T10:06:59Z</time></trkpt><trkpt lat="44.74834396472951" lon="10.137617406153064"><ele>129.0</ele><time>2026-03-29T10:07:00Z</time></trkpt><trkpt lat="44.748547029811576" lon="10.137865317256601"><ele>130.0</ele><time>2026-03-29T10:07:01Z</time></trkpt><trkpt lat="44.74873255477145" lon="10.138098793721277"><ele>124.5</ele><time>2026-03-29T10:07:02Z</time></trkpt><trkpt lat="44.748910677856486" lon="10.138326151888608"><ele>119.0</ele><time>2026-03-29T10:07:03Z</time></trkpt><trkpt lat="44.749080383301525" lon="10.138540544871224"><ele>119.0</ele><time>2026-03-29T10:07:04Z</time></trkpt><trkpt lat="44.749245821666236" lon="10.138746702849335"><ele>119.0</ele><time>2026-03-29T10:07:05Z</time></trkpt><trkpt lat="44.74941869036056" lon="10.138958399936602"><ele>119.66666666666666</ele><time>2026-03-29T10:07:06Z</time></trkpt><trkpt lat="44.74958198065696" lon="10.139161714809813"><ele>120.33333333333334</ele><time>2026-03-29T10:07:07Z</time></trkpt><trkpt lat="44.749747494187375" lon="10.13937072861546"><ele>121.0</ele><time>2026-03-29T10:07:08Z</time></trkpt><trkpt lat="44.749915435016035" lon="10.139578500385099"><ele>121.0</ele><time>2026-03-29T10:07:09Z</time></trkpt><trkpt lat="44.750079395717776" lon="10.139782753859405"><ele>121.0</ele><time>2026-03-29T10:07:10Z</time></trkpt><trkpt lat="44.75024451513906" lon="10.139977829765122"><ele>121.0</ele><time>2026-03-29T10:07:11Z</time></trkpt><trkpt lat="44.75039490756223" lon="10.14014792668078"><ele>122.33333333333334</ele><time>2026-03-29T10:07:12Z</time></trkpt><trkpt lat="44.75052530254179" lon="10.140297184393434"><ele>123.66666666666666</ele><time>2026-03-29T10:07:13Z</time></trkpt><trkpt lat="44.750658273016015" lon="10.140429276708279"><ele>125.0</ele><time>2026-03-29T10:07:14Z</time></trkpt><trkpt lat="44.75078441309555" lon="10.1405440303364"><ele>125.0</ele><time>2026-03-29T10:07:15Z</time></trkpt><trkpt lat="44.75090024827267" lon="10.1406501322899"><ele>125.0</ele><time>2026-03-29T10:07:16Z</time></trkpt><trkpt lat="44.75101391618326" lon="10.140731636694227"><ele>125.0</ele><time>2026-03-29T10:07:17Z</time></trkpt><trkpt lat="44.75114542519537" lon="10.140802334110493"><ele>125.0</ele><time>2026-03-29T10:07:18Z</time></trkpt><trkpt lat="44.751285835235606" lon="10.14087419695579"><ele>124.0</ele><time>2026-03-29T10:07:19Z</time></trkpt><trkpt lat="44.751430413307745" lon="10.140956626493328"><ele>123.0</ele><time>2026-03-29T10:07:20Z</time></trkpt><trkpt lat="44.75156902221933" lon="10.141034903446254"><ele>122.0</ele><time>2026-03-29T10:07:21Z</time></trkpt><trkpt lat="44.751712397492" lon="10.14110941813015"><ele>122.0</ele><time>2026-03-29T10:07:22Z</time></trkpt><trkpt lat="44.75186380683277" lon="10.141180589883765"><ele>122.0</ele><time>2026-03-29T10:07:23Z</time></trkpt><trkpt lat="44.752011923806165" lon="10.141250385222856"><ele>122.0</ele><time>2026-03-29T10:07:24Z</time></trkpt><trkpt lat="44.752163578889274" lon="10.141316186510583"><ele>120.66666666666666</ele><time>2026-03-29T10:07:25Z</time></trkpt><trkpt lat="44.752315361384866" lon="10.141375534977096"><ele>119.33333333333334</ele><time>2026-03-29T10:07:26Z</time></trkpt><trkpt lat="44.75247271114926" lon="10.14142160946346"><ele>118.0</ele><time>2026-03-29T10:07:27Z</time></trkpt><trkpt lat="44.7526341721104" lon="10.141443890585867"><ele>117.0</ele><time>2026-03-29T10:07:28Z</time></trkpt><trkpt lat="44.75279201591612" lon="10.141452129002674"><ele>116.0</ele><time>2026-03-29T10:07:29Z</time></trkpt><trkpt lat="44.75294937482714" lon="10.141455704694367"><ele>115.0</ele><time>2026-03-29T10:07:30Z</time></trkpt><trkpt lat="44.753102595981005" lon="10.14144419778203"><ele>115.0</ele><time>2026-03-29T10:07:31Z</time></trkpt><trkpt lat="44.75325405288395" lon="10.141416245566552"><ele>115.0</ele><time>2026-03-29T10:07:32Z</time></trkpt><trkpt lat="44.75340250737529" lon="10.141373864924057"><ele>115.0</ele><time>2026-03-29T10:07:33Z</time></trkpt><trkpt lat="44.75355547815784" lon="10.141322670418534"><ele>120.0</ele><time>2026-03-29T10:07:34Z</time></trkpt><trkpt lat="44.75371077661822" lon="10.141265181789558"><ele>125.0</ele><time>2026-03-29T10:07:35Z</time></trkpt><trkpt lat="44.75386104666956" lon="10.141202604565098"><ele>130.0</ele><time>2026-03-29T10:07:36Z</time></trkpt><trkpt lat="44.75402058081609" lon="10.141134603572729"><ele>130.0</ele><time>2026-03-29T10:07:37Z</time></trkpt><trkpt lat="44.75417386471525" lon="10.141071945434211"><ele>130.0</ele><time>2026-03-29T10:07:38Z</time></trkpt><trkpt lat="44.754331683664454" lon="10.141020132039921"><ele>130.0</ele><time>2026-03-29T10:07:39Z</time></trkpt><trkpt lat="44.754489966253544" lon="10.140975044753631"><ele>131.25</ele><time>2026-03-29T10:07:40Z</time></trkpt><trkpt lat="44.754626835183466" lon="10.140950985765349"><ele>132.5</ele><time>2026-03-29T10:07:41Z</time></trkpt><trkpt lat="44.75476385148372" lon="10.140934117457281"><ele>133.75</ele><time>2026-03-29T10:07:42Z</time></trkpt><trkpt lat="44.7548950331423" lon="10.140932912772836"><ele>135.0</ele><time>2026-03-29T10:07:43Z</time></trkpt><trkpt lat="44.75502921055546" lon="10.140925787120151"><ele>135.0</ele><time>2026-03-29T10:07:44Z</time></trkpt><trkpt lat="44.755151120101644" lon="10.1409140412723"><ele>135.0</ele><time>2026-03-29T10:07:44.999Z</time></trkpt><trkpt lat="44.75526483482899" lon="10.140904906284025"><ele>135.0</ele><time>2026-03-29T10:07:45.999Z</time></trkpt><trkpt lat="44.755376549380465" lon="10.140895741449627"><ele>135.0</ele><time>2026-03-29T10:07:46.999Z</time></trkpt><trkpt lat="44.7554678991941" lon="10.14088327956586"><ele>135.0</ele><time>2026-03-29T10:07:47.999Z</time></trkpt><trkpt lat="44.75555526528662" lon="10.14087119427947"><ele>135.5</ele><time>2026-03-29T10:07:48.999Z</time></trkpt><trkpt lat="44.755643817201495" lon="10.140857188532335"><ele>136.0</ele><time>2026-03-29T10:07:49.999Z</time></trkpt><trkpt lat="44.755726209075824" lon="10.140840195995626"><ele>136.5</ele><time>2026-03-29T10:07:50.999Z</time></trkpt><trkpt lat="44.7557996454868" lon="10.140812601301043"><ele>137.0</ele><time>2026-03-29T10:07:51.999Z</time></trkpt><trkpt lat="44.75587348484197" lon="10.140791300860204"><ele>137.5</ele><time>2026-03-29T10:07:52.999Z</time></trkpt><trkpt lat="44.75594513895033" lon="10.140773256674235"><ele>138.0</ele><time>2026-03-29T10:07:53.999Z</time></trkpt><trkpt lat="44.756011712140115" lon="10.140776080869626"><ele>138.0</ele><time>2026-03-29T10:07:54.999Z</time></trkpt><trkpt lat="44.75608826368664" lon="10.140760831268778"><ele>138.0</ele><time>2026-03-29T10:07:55.999Z</time></trkpt><trkpt lat="44.756157325436256" lon="10.14073158978547"><ele>138.0</ele><time>2026-03-29T10:07:56.999Z</time></trkpt><trkpt lat="44.756221648422155" lon="10.14074683032598"><ele>138.0</ele><time>2026-03-29T10:07:57.999Z</time></trkpt><trkpt lat="44.75626758656005" lon="10.14084656426776"><ele>138.0</ele><time>2026-03-29T10:07:59.999Z</time></trkpt><trkpt lat="44.75623635889399" lon="10.140942318645575"><ele>138.0</ele><time>2026-03-29T10:08:02.999Z</time></trkpt><trkpt lat="44.75625999962769" lon="10.141031047563384"><ele>138.0</ele><time>2026-03-29T10:09:15Z</time></trkpt><trkpt lat="44.75610268293357" lon="10.14101463625767"><ele>138.0</ele><time>2026-03-29T10:09:34.507Z</time></trkpt><trkpt lat="44.756398688155045" lon="10.14107270708369"><ele>138.0</ele><time>2026-03-29T10:10:03.999Z</time></trkpt><trkpt lat="44.75649502597513" lon="10.141423785347937"><ele>138.0</ele><time>2026-03-29T10:10:05.999Z</time></trkpt><trkpt lat="44.756346325504104" lon="10.141102283258974"><ele>138.0</ele><time>2026-03-29T10:10:08.999Z</time></trkpt><trkpt lat="44.75626190428266" lon="10.141011809999418"><ele>138.0</ele><time>2026-03-29T10:10:19.999Z</time></trkpt><trkpt lat="44.75624315777069" lon="10.140860813117666"><ele>138.0</ele><time>2026-03-29T10:10:47.364Z</time></trkpt><trkpt lat="44.75640305707983" lon="10.140744985543208"><ele>138.0</ele><time>2026-03-29T10:10:51.999Z</time></trkpt><trkpt lat="44.75631781822451" lon="10.140819945737126"><ele>138.0</ele><time>2026-03-29T10:12:00.359Z</time></trkpt><trkpt lat="44.756275606955946" lon="10.141030948490915"><ele>138.0</ele><time>2026-03-29T10:12:02Z</time></trkpt><trkpt lat="44.75629492924685" lon="10.140916187181597"><ele>138.0</ele><time>2026-03-29T10:13:30Z</time></trkpt><trkpt lat="44.75629671184844" lon="10.140825743875808"><ele>138.0</ele><time>2026-03-29T10:13:33Z</time></trkpt><trkpt lat="44.75634045441866" lon="10.140734145803297"><ele>138.0</ele><time>2026-03-29T10:13:40Z</time></trkpt><trkpt lat="44.75640947317202" lon="10.140713782210605"><ele>138.0</ele><time>2026-03-29T10:13:41Z</time></trkpt><trkpt lat="44.75649295301866" lon="10.140709039755523"><ele>138.0</ele><time>2026-03-29T10:13:42Z</time></trkpt><trkpt lat="44.75656276360829" lon="10.14070425266003"><ele>138.0</ele><time>2026-03-29T10:13:43Z</time></trkpt><trkpt lat="44.75664967101051" lon="10.140715532239813"><ele>138.0</ele><time>2026-03-29T10:13:44Z</time></trkpt><trkpt lat="44.756732795871606" lon="10.140720156914082"><ele>138.0</ele><time>2026-03-29T10:13:45Z</time></trkpt><trkpt lat="44.7568146378263" lon="10.140727360249793"><ele>138.0</ele><time>2026-03-29T10:13:46Z</time></trkpt><trkpt lat="44.75690607717105" lon="10.140727704524375"><ele>138.0</ele><time>2026-03-29T10:13:47Z</time></trkpt><trkpt lat="44.75700738786593" lon="10.140723623509993"><ele>138.0</ele><time>2026-03-29T10:13:48Z</time></trkpt><trkpt lat="44.757121948514396" lon="10.140718467812706"><ele>137.66666666666666</ele><time>2026-03-29T10:13:49Z</time></trkpt><trkpt lat="44.75724460353349" lon="10.140713091344072"><ele>137.33333333333331</ele><time>2026-03-29T10:13:50Z</time></trkpt><trkpt lat="44.75738508218585" lon="10.140743589645478"><ele>137.0</ele><time>2026-03-29T10:13:51Z</time></trkpt><trkpt lat="44.75757193236534" lon="10.140734481996153"><ele>135.66666666666666</ele><time>2026-03-29T10:13:52Z</time></trkpt><trkpt lat="44.75775375558234" lon="10.140731761938364"><ele>134.33333333333334</ele><time>2026-03-29T10:13:53Z</time></trkpt><trkpt lat="44.75791386274043" lon="10.140739308543633"><ele>133.0</ele><time>2026-03-29T10:13:54Z</time></trkpt><trkpt lat="44.75808401454143" lon="10.140734373203967"><ele>133.0</ele><time>2026-03-29T10:13:55Z</time></trkpt><trkpt lat="44.75824557303466" lon="10.140736257505477"><ele>133.0</ele><time>2026-03-29T10:13:56Z</time></trkpt><trkpt lat="44.758406014617364" lon="10.140730390044547"><ele>133.0</ele><time>2026-03-29T10:13:57Z</time></trkpt><trkpt lat="44.75857024138012" lon="10.140736044565463"><ele>132.0</ele><time>2026-03-29T10:13:58Z</time></trkpt><trkpt lat="44.75872548586588" lon="10.140728425692844"><ele>131.0</ele><time>2026-03-29T10:13:59Z</time></trkpt><trkpt lat="44.75887362362371" lon="10.140713107452337"><ele>130.0</ele><time>2026-03-29T10:14:00Z</time></trkpt><trkpt lat="44.75902911177717" lon="10.140717939359089"><ele>130.0</ele><time>2026-03-29T10:14:01Z</time></trkpt><trkpt lat="44.75917836831022" lon="10.14072069098444"><ele>130.0</ele><time>2026-03-29T10:14:02Z</time></trkpt><trkpt lat="44.7593224358184" lon="10.14070877643341"><ele>130.0</ele><time>2026-03-29T10:14:03Z</time></trkpt><trkpt lat="44.75946574210924" lon="10.140682183559298"><ele>130.0</ele><time>2026-03-29T10:14:04Z</time></trkpt><trkpt lat="44.759625712110676" lon="10.140626971849139"><ele>130.66666666666669</ele><time>2026-03-29T10:14:05Z</time></trkpt><trkpt lat="44.75978623077575" lon="10.140582211132934"><ele>131.33333333333334</ele><time>2026-03-29T10:14:06Z</time></trkpt><trkpt lat="44.75995142766924" lon="10.140543724376641"><ele>132.0</ele><time>2026-03-29T10:14:07Z</time></trkpt><trkpt lat="44.76011541199546" lon="10.140504074262228"><ele>132.33333333333334</ele><time>2026-03-29T10:14:08Z</time></trkpt><trkpt lat="44.76027900778575" lon="10.140472064730417"><ele>132.66666666666669</ele><time>2026-03-29T10:14:09Z</time></trkpt><trkpt lat="44.7604422249331" lon="10.140451039992255"><ele>133.0</ele><time>2026-03-29T10:14:10Z</time></trkpt><trkpt lat="44.76060771247954" lon="10.140441180652681"><ele>133.0</ele><time>2026-03-29T10:14:11Z</time></trkpt><trkpt lat="44.76077020831783" lon="10.140430443109553"><ele>133.0</ele><time>2026-03-29T10:14:12Z</time></trkpt><trkpt lat="44.76093085834258" lon="10.140426433950434"><ele>133.0</ele><time>2026-03-29T10:14:13Z</time></trkpt><trkpt lat="44.76109713522781" lon="10.140423485419731"><ele>132.66666666666669</ele><time>2026-03-29T10:14:14Z</time></trkpt><trkpt lat="44.76126702262392" lon="10.140413163131628"><ele>132.33333333333334</ele><time>2026-03-29T10:14:15Z</time></trkpt><trkpt lat="44.76142834418799" lon="10.140401365125417"><ele>132.0</ele><time>2026-03-29T10:14:16Z</time></trkpt><trkpt lat="44.76159200526697" lon="10.140389222996605"><ele>132.0</ele><time>2026-03-29T10:14:17Z</time></trkpt><trkpt lat="44.76175691327837" lon="10.140382435974745"><ele>132.0</ele><time>2026-03-29T10:14:18Z</time></trkpt><trkpt lat="44.76191715831941" lon="10.14037463709076"><ele>132.0</ele><time>2026-03-29T10:14:19Z</time></trkpt><trkpt lat="44.762080291396536" lon="10.140367031600343"><ele>131.66666666666666</ele><time>2026-03-29T10:14:20Z</time></trkpt><trkpt lat="44.762248449182124" lon="10.140362535405805"><ele>131.33333333333331</ele><time>2026-03-29T10:14:20.999Z</time></trkpt><trkpt lat="44.762419954846145" lon="10.140353565118293"><ele>131.0</ele><time>2026-03-29T10:14:21.999Z</time></trkpt><trkpt lat="44.762592838588056" lon="10.140345039771512"><ele>130.33333333333331</ele><time>2026-03-29T10:14:22.999Z</time></trkpt><trkpt lat="44.76276425366804" lon="10.140337195656974"><ele>129.66666666666666</ele><time>2026-03-29T10:14:23.999Z</time></trkpt><trkpt lat="44.76292320959029" lon="10.140329472270125"><ele>129.0</ele><time>2026-03-29T10:14:24.999Z</time></trkpt><trkpt lat="44.76307417020506" lon="10.140313399415826"><ele>129.0</ele><time>2026-03-29T10:14:25.999Z</time></trkpt><trkpt lat="44.76322964410065" lon="10.140278013530255"><ele>129.0</ele><time>2026-03-29T10:14:26.999Z</time></trkpt><trkpt lat="44.763383248210665" lon="10.140225243681742"><ele>129.0</ele><time>2026-03-29T10:14:27.999Z</time></trkpt><trkpt lat="44.763529762187304" lon="10.14015673716627"><ele>129.66666666666666</ele><time>2026-03-29T10:14:28.999Z</time></trkpt><trkpt lat="44.763675076055584" lon="10.140101642488252"><ele>130.33333333333331</ele><time>2026-03-29T10:14:29.999Z</time></trkpt><trkpt lat="44.763823648485776" lon="10.140050157669325"><ele>131.0</ele><time>2026-03-29T10:14:30.999Z</time></trkpt><trkpt lat="44.763968593844176" lon="10.140003772184112"><ele>131.0</ele><time>2026-03-29T10:14:31.999Z</time></trkpt><trkpt lat="44.76411355127355" lon="10.139972171329417"><ele>131.0</ele><time>2026-03-29T10:14:32.999Z</time></trkpt><trkpt lat="44.764262828805016" lon="10.139957125594563"><ele>131.0</ele><time>2026-03-29T10:14:33.999Z</time></trkpt><trkpt lat="44.764415719748136" lon="10.139968927303965"><ele>131.0</ele><time>2026-03-29T10:14:34.999Z</time></trkpt><trkpt lat="44.76456570186984" lon="10.139993934434772"><ele>131.33333333333331</ele><time>2026-03-29T10:14:35.999Z</time></trkpt><trkpt lat="44.76471759788349" lon="10.14003333155541"><ele>131.66666666666666</ele><time>2026-03-29T10:14:36.999Z</time></trkpt><trkpt lat="44.7648865905959" lon="10.140078664754428"><ele>132.0</ele><time>2026-03-29T10:14:37.999Z</time></trkpt><trkpt lat="44.76507405538216" lon="10.140128433848906"><ele>133.33333333333334</ele><time>2026-03-29T10:14:38.999Z</time></trkpt><trkpt lat="44.76526572151819" lon="10.140181767905647"><ele>134.66666666666669</ele><time>2026-03-29T10:14:39.999Z</time></trkpt><trkpt lat="44.76546494165074" lon="10.140243183092466"><ele>136.0</ele><time>2026-03-29T10:14:40.999Z</time></trkpt><trkpt lat="44.765664108808025" lon="10.140304400740172"><ele>136.0</ele><time>2026-03-29T10:14:41.999Z</time></trkpt><trkpt lat="44.765858411670074" lon="10.140366665640402"><ele>136.0</ele><time>2026-03-29T10:14:42.999Z</time></trkpt><trkpt lat="44.76604015754085" lon="10.140425336467782"><ele>136.0</ele><time>2026-03-29T10:14:43.999Z</time></trkpt><trkpt lat="44.76621725447722" lon="10.140477630210988"><ele>137.0</ele><time>2026-03-29T10:14:44.999Z</time></trkpt><trkpt lat="44.766378124761765" lon="10.140527362043004"><ele>138.0</ele><time>2026-03-29T10:14:45.999Z</time></trkpt><trkpt lat="44.76652174490902" lon="10.1405724572651"><ele>139.0</ele><time>2026-03-29T10:14:46.999Z</time></trkpt><trkpt lat="44.76664214747963" lon="10.140615083814422"><ele>140.0</ele><time>2026-03-29T10:14:47.999Z</time></trkpt><trkpt lat="44.76674643352566" lon="10.140653697651542"><ele>140.0</ele><time>2026-03-29T10:14:48.999Z</time></trkpt><trkpt lat="44.76681981186898" lon="10.14068079427813"><ele>140.0</ele><time>2026-03-29T10:14:49.999Z</time></trkpt><trkpt lat="44.766916316078394" lon="10.140722091585863"><ele>140.0</ele><time>2026-03-29T10:14:51.999Z</time></trkpt><trkpt lat="44.76702898055042" lon="10.140814263460252"><ele>140.0</ele><time>2026-03-29T10:14:53.999Z</time></trkpt><trkpt lat="44.76709838718306" lon="10.14089816862672"><ele>140.0</ele><time>2026-03-29T10:14:54.999Z</time></trkpt><trkpt lat="44.76716598301865" lon="10.140974397284053"><ele>139.8</ele><time>2026-03-29T10:14:55.999Z</time></trkpt><trkpt lat="44.76720013244718" lon="10.141100267193172"><ele>139.6</ele><time>2026-03-29T10:14:56.999Z</time></trkpt><trkpt lat="44.76726706597575" lon="10.141211588344479"><ele>139.4</ele><time>2026-03-29T10:14:57.999Z</time></trkpt><trkpt lat="44.767362994827" lon="10.141320080836918"><ele>139.2</ele><time>2026-03-29T10:14:58.999Z</time></trkpt><trkpt lat="44.76745454144756" lon="10.141437019809839"><ele>139.0</ele><time>2026-03-29T10:14:59.999Z</time></trkpt><trkpt lat="44.76752747706085" lon="10.141541523089403"><ele>138.5</ele><time>2026-03-29T10:15:00.999Z</time></trkpt><trkpt lat="44.76761140713523" lon="10.141667189348569"><ele>138.0</ele><time>2026-03-29T10:15:01.999Z</time></trkpt><trkpt lat="44.767704966215994" lon="10.141808850865477"><ele>137.5</ele><time>2026-03-29T10:15:02.999Z</time></trkpt><trkpt lat="44.76780446237287" lon="10.141954340236692"><ele>137.0</ele><time>2026-03-29T10:15:03.999Z</time></trkpt><trkpt lat="44.76790471050073" lon="10.142108678372395"><ele>137.0</ele><time>2026-03-29T10:15:04.999Z</time></trkpt><trkpt lat="44.768006257270166" lon="10.14227430719789"><ele>137.0</ele><time>2026-03-29T10:15:05.999Z</time></trkpt><trkpt lat="44.768102034704086" lon="10.142446011100514"><ele>137.0</ele><time>2026-03-29T10:15:06.999Z</time></trkpt><trkpt lat="44.768198404825" lon="10.1426251979368"><ele>137.0</ele><time>2026-03-29T10:15:07.999Z</time></trkpt><trkpt lat="44.768294011809665" lon="10.14280450756341"><ele>137.0</ele><time>2026-03-29T10:15:08.999Z</time></trkpt><trkpt lat="44.76838821599027" lon="10.142990660389854"><ele>137.0</ele><time>2026-03-29T10:15:10Z</time></trkpt><trkpt lat="44.76848504044149" lon="10.14317878949132"><ele>137.0</ele><time>2026-03-29T10:15:11Z</time></trkpt><trkpt lat="44.76858932058153" lon="10.143368068739328"><ele>137.0</ele><time>2026-03-29T10:15:12Z</time></trkpt><trkpt lat="44.76870378972532" lon="10.143559787719033"><ele>137.0</ele><time>2026-03-29T10:15:13Z</time></trkpt><trkpt lat="44.76882403225347" lon="10.143743030132027"><ele>137.0</ele><time>2026-03-29T10:15:14Z</time></trkpt><trkpt lat="44.768948631015206" lon="10.143924425547327"><ele>137.0</ele><time>2026-03-29T10:15:15Z</time></trkpt><trkpt lat="44.769071779650766" lon="10.144109101327643"><ele>137.0</ele><time>2026-03-29T10:15:16Z</time></trkpt><trkpt lat="44.76919356314131" lon="10.14429394655422"><ele>136.66666666666666</ele><time>2026-03-29T10:15:17Z</time></trkpt><trkpt lat="44.76932377907772" lon="10.144490217003579"><ele>136.33333333333334</ele><time>2026-03-29T10:15:18Z</time></trkpt><trkpt lat="44.769458235066246" lon="10.144691014733496"><ele>136.0</ele><time>2026-03-29T10:15:19Z</time></trkpt><trkpt lat="44.76959471818511" lon="10.144893740813206"><ele>136.0</ele><time>2026-03-29T10:15:20Z</time></trkpt><trkpt lat="44.76973251541642" lon="10.145096476165962"><ele>136.0</ele><time>2026-03-29T10:15:21Z</time></trkpt><trkpt lat="44.76987006314168" lon="10.145298408029484"><ele>136.0</ele><time>2026-03-29T10:15:22Z</time></trkpt><trkpt lat="44.7700089837361" lon="10.14550014150064"><ele>136.0</ele><time>2026-03-29T10:15:23Z</time></trkpt><trkpt lat="44.77014747443088" lon="10.145704814303082"><ele>136.0</ele><time>2026-03-29T10:15:24Z</time></trkpt><trkpt lat="44.77028639888052" lon="10.145912271818094"><ele>136.0</ele><time>2026-03-29T10:15:25Z</time></trkpt><trkpt lat="44.770428517077846" lon="10.146121008220128"><ele>134.33333333333334</ele><time>2026-03-29T10:15:26Z</time></trkpt><trkpt lat="44.77057082896177" lon="10.146335142961059"><ele>132.66666666666666</ele><time>2026-03-29T10:15:27Z</time></trkpt><trkpt lat="44.77071982075389" lon="10.146549722914349"><ele>131.0</ele><time>2026-03-29T10:15:28Z</time></trkpt><trkpt lat="44.770875784592754" lon="10.146761361200381"><ele>130.33333333333331</ele><time>2026-03-29T10:15:29Z</time></trkpt><trkpt lat="44.771032598091416" lon="10.146975796583385"><ele>129.66666666666666</ele><time>2026-03-29T10:15:30Z</time></trkpt><trkpt lat="44.771192563972114" lon="10.147185276035717"><ele>129.0</ele><time>2026-03-29T10:15:31Z</time></trkpt><trkpt lat="44.77135322502498" lon="10.147394570474745"><ele>128.66666666666666</ele><time>2026-03-29T10:15:32Z</time></trkpt><trkpt lat="44.77151133190556" lon="10.147607894937355"><ele>128.33333333333331</ele><time>2026-03-29T10:15:33Z</time></trkpt><trkpt lat="44.771672453649515" lon="10.147820444089403"><ele>128.0</ele><time>2026-03-29T10:15:34Z</time></trkpt><trkpt lat="44.771834210546906" lon="10.148034026508789"><ele>127.33333333333333</ele><time>2026-03-29T10:15:35Z</time></trkpt><trkpt lat="44.77199197057558" lon="10.148242322714145"><ele>126.66666666666666</ele><time>2026-03-29T10:15:36Z</time></trkpt><trkpt lat="44.772147943550756" lon="10.148455247060427"><ele>126.0</ele><time>2026-03-29T10:15:37Z</time></trkpt><trkpt lat="44.7723045297776" lon="10.14867057724073"><ele>126.0</ele><time>2026-03-29T10:15:38Z</time></trkpt><trkpt lat="44.77246457173792" lon="10.14888267593572"><ele>126.0</ele><time>2026-03-29T10:15:39Z</time></trkpt><trkpt lat="44.77262519425888" lon="10.149093847662265"><ele>126.0</ele><time>2026-03-29T10:15:40Z</time></trkpt><trkpt lat="44.7727829859145" lon="10.149308961826279"><ele>126.33333333333334</ele><time>2026-03-29T10:15:41Z</time></trkpt><trkpt lat="44.77294489012001" lon="10.149521700115312"><ele>126.66666666666667</ele><time>2026-03-29T10:15:42Z</time></trkpt><trkpt lat="44.77310598544982" lon="10.149735038358882"><ele>127.0</ele><time>2026-03-29T10:15:43Z</time></trkpt><trkpt lat="44.77326899428995" lon="10.14994941920105"><ele>127.0</ele><time>2026-03-29T10:15:44Z</time></trkpt><trkpt lat="44.77343233661309" lon="10.150163516780214"><ele>127.0</ele><time>2026-03-29T10:15:45Z</time></trkpt><trkpt lat="44.773591550678226" lon="10.150381329326873"><ele>127.0</ele><time>2026-03-29T10:15:46Z</time></trkpt><trkpt lat="44.77375444686752" lon="10.150590880033409"><ele>125.66666666666667</ele><time>2026-03-29T10:15:47Z</time></trkpt><trkpt lat="44.77391425664516" lon="10.150798983884247"><ele>124.33333333333334</ele><time>2026-03-29T10:15:48Z</time></trkpt><trkpt lat="44.7740714127284" lon="10.151008388121822"><ele>123.0</ele><time>2026-03-29T10:15:49Z</time></trkpt><trkpt lat="44.77422913541131" lon="10.151215509090353"><ele>123.0</ele><time>2026-03-29T10:15:50Z</time></trkpt><trkpt lat="44.77438467144688" lon="10.151416684008371"><ele>123.0</ele><time>2026-03-29T10:15:51Z</time></trkpt><trkpt lat="44.774540898430644" lon="10.151625746790852"><ele>123.0</ele><time>2026-03-29T10:15:52Z</time></trkpt><trkpt lat="44.77470019153549" lon="10.151834202631575"><ele>122.33333333333334</ele><time>2026-03-29T10:15:53Z</time></trkpt><trkpt lat="44.77485795131504" lon="10.152039834798794"><ele>121.66666666666667</ele><time>2026-03-29T10:15:54Z</time></trkpt><trkpt lat="44.77502042790797" lon="10.15224347127164"><ele>121.0</ele><time>2026-03-29T10:15:55Z</time></trkpt><trkpt lat="44.77518104460701" lon="10.152460452609107"><ele>121.0</ele><time>2026-03-29T10:15:56Z</time></trkpt><trkpt lat="44.77535045867937" lon="10.152685252846993"><ele>121.0</ele><time>2026-03-29T10:15:57Z</time></trkpt><trkpt lat="44.775521521965466" lon="10.152917609097619"><ele>121.0</ele><time>2026-03-29T10:15:58Z</time></trkpt><trkpt lat="44.77570772425355" lon="10.153157151289284"><ele>121.0</ele><time>2026-03-29T10:15:59Z</time></trkpt><trkpt lat="44.77590935453592" lon="10.153418084980265"><ele>121.0</ele><time>2026-03-29T10:16:00Z</time></trkpt><trkpt lat="44.776116996559814" lon="10.153681806757874"><ele>121.0</ele><time>2026-03-29T10:16:01Z</time></trkpt><trkpt lat="44.77633295657258" lon="10.153953728283854"><ele>120.0</ele><time>2026-03-29T10:16:02Z</time></trkpt><trkpt lat="44.77656337504351" lon="10.154229959690369"><ele>119.0</ele><time>2026-03-29T10:16:03Z</time></trkpt><trkpt lat="44.77679123146718" lon="10.154501742970588"><ele>118.5</ele><time>2026-03-29T10:16:04Z</time></trkpt><trkpt lat="44.77699956861357" lon="10.154755117252321"><ele>118.0</ele><time>2026-03-29T10:16:05Z</time></trkpt><trkpt lat="44.77719641813058" lon="10.154993007939485"><ele>117.0</ele><time>2026-03-29T10:16:06Z</time></trkpt><trkpt lat="44.77738936575023" lon="10.155229038983634"><ele>116.0</ele><time>2026-03-29T10:16:07Z</time></trkpt><trkpt lat="44.77758194114936" lon="10.15546889015631"><ele>116.0</ele><time>2026-03-29T10:16:08Z</time></trkpt><trkpt lat="44.77777347377243" lon="10.155702701769064"><ele>116.0</ele><time>2026-03-29T10:16:09Z</time></trkpt><trkpt lat="44.777957986422" lon="10.155928563407437"><ele>116.0</ele><time>2026-03-29T10:16:10Z</time></trkpt><trkpt lat="44.77813084534384" lon="10.156142149693654"><ele>116.0</ele><time>2026-03-29T10:16:11Z</time></trkpt><trkpt lat="44.77830896282373" lon="10.156355319565197"><ele>115.0</ele><time>2026-03-29T10:16:12Z</time></trkpt><trkpt lat="44.77847273228539" lon="10.156560865317653"><ele>114.0</ele><time>2026-03-29T10:16:13Z</time></trkpt><trkpt lat="44.778632185238294" lon="10.156767659967151"><ele>113.0</ele><time>2026-03-29T10:16:14Z</time></trkpt><trkpt lat="44.77877893072376" lon="10.156986985374306"><ele>113.0</ele><time>2026-03-29T10:16:15Z</time></trkpt><trkpt lat="44.77891269631877" lon="10.157201065847692"><ele>113.0</ele><time>2026-03-29T10:16:16Z</time></trkpt><trkpt lat="44.779040561203225" lon="10.15739948569707"><ele>113.0</ele><time>2026-03-29T10:16:17Z</time></trkpt><trkpt lat="44.779163560849966" lon="10.157590383483118"><ele>113.0</ele><time>2026-03-29T10:16:18Z</time></trkpt><trkpt lat="44.77928479422364" lon="10.157748547304589"><ele>113.0</ele><time>2026-03-29T10:16:19Z</time></trkpt><trkpt lat="44.7793904939664" lon="10.157877212455984"><ele>113.0</ele><time>2026-03-29T10:16:20Z</time></trkpt><trkpt lat="44.77948973109678" lon="10.158005803355568"><ele>113.0</ele><time>2026-03-29T10:16:21Z</time></trkpt><trkpt lat="44.77959138113851" lon="10.15813183890746"><ele>112.4</ele><time>2026-03-29T10:16:22Z</time></trkpt><trkpt lat="44.779691605723244" lon="10.158254990247876"><ele>111.80000000000001</ele><time>2026-03-29T10:16:23Z</time></trkpt><trkpt lat="44.77978168596346" lon="10.158364391411796"><ele>111.2</ele><time>2026-03-29T10:16:24Z</time></trkpt><trkpt lat="44.779852619278046" lon="10.158453910749001"><ele>110.6</ele><time>2026-03-29T10:16:25Z</time></trkpt><trkpt lat="44.77990396025635" lon="10.158523927576113"><ele>110.0</ele><time>2026-03-29T10:16:26Z</time></trkpt><trkpt lat="44.779962421124765" lon="10.158661119414772"><ele>110.0</ele><time>2026-03-29T10:16:28Z</time></trkpt><trkpt lat="44.779996058552115" lon="10.15876463226241"><ele>110.0</ele><time>2026-03-29T10:16:28.999Z</time></trkpt><trkpt lat="44.780017500313456" lon="10.158922268257582"><ele>110.0</ele><time>2026-03-29T10:16:29.999Z</time></trkpt><trkpt lat="44.78004440237174" lon="10.159116240910402"><ele>110.0</ele><time>2026-03-29T10:16:30.999Z</time></trkpt><trkpt lat="44.78004306336388" lon="10.159286320065945"><ele>109.75</ele><time>2026-03-29T10:16:31.999Z</time></trkpt><trkpt lat="44.77999889563481" lon="10.159453936747227"><ele>109.5</ele><time>2026-03-29T10:16:32.999Z</time></trkpt><trkpt lat="44.77988200240968" lon="10.159565193706904"><ele>109.25</ele><time>2026-03-29T10:16:33.999Z</time></trkpt><trkpt lat="44.779751350111994" lon="10.159726438043268"><ele>109.0</ele><time>2026-03-29T10:16:34.999Z</time></trkpt><trkpt lat="44.77957569625194" lon="10.15989751162854"><ele>108.0</ele><time>2026-03-29T10:16:35.999Z</time></trkpt><trkpt lat="44.779394391233495" lon="10.160100516627498"><ele>107.0</ele><time>2026-03-29T10:16:36.999Z</time></trkpt><trkpt lat="44.77919971054246" lon="10.160321042149551"><ele>105.5</ele><time>2026-03-29T10:16:37.999Z</time></trkpt><trkpt lat="44.77897558671232" lon="10.160562660938462"><ele>104.0</ele><time>2026-03-29T10:16:38.999Z</time></trkpt><trkpt lat="44.77873245718758" lon="10.160820221355515"><ele>102.0</ele><time>2026-03-29T10:16:39.999Z</time></trkpt><trkpt lat="44.778474381075135" lon="10.1610887721819"><ele>100.0</ele><time>2026-03-29T10:16:40.999Z</time></trkpt><trkpt lat="44.77822469870778" lon="10.161344633792059"><ele>100.5</ele><time>2026-03-29T10:16:41.999Z</time></trkpt><trkpt lat="44.777958753612765" lon="10.161614279227718"><ele>101.0</ele><time>2026-03-29T10:16:42.999Z</time></trkpt><trkpt lat="44.77769770793944" lon="10.161876522328086"><ele>101.0</ele><time>2026-03-29T10:16:43.999Z</time></trkpt><trkpt lat="44.77744132085835" lon="10.162135050127002"><ele>101.0</ele><time>2026-03-29T10:16:44.999Z</time></trkpt><trkpt lat="44.77718963267727" lon="10.162387973299746"><ele>102.5</ele><time>2026-03-29T10:16:45.999Z</time></trkpt><trkpt lat="44.77696075346234" lon="10.162640234165869"><ele>104.0</ele><time>2026-03-29T10:16:46.999Z</time></trkpt><trkpt lat="44.776747211049354" lon="10.162868837457737"><ele>104.0</ele><time>2026-03-29T10:16:47.999Z</time></trkpt><trkpt lat="44.776542477571" lon="10.163073760991754"><ele>104.0</ele><time>2026-03-29T10:16:48.999Z</time></trkpt><trkpt lat="44.77634698944055" lon="10.16326823980824"><ele>105.0</ele><time>2026-03-29T10:16:49.999Z</time></trkpt><trkpt lat="44.77615167867663" lon="10.16346457850835"><ele>106.0</ele><time>2026-03-29T10:16:50.999Z</time></trkpt><trkpt lat="44.775957899172234" lon="10.163666278063019"><ele>104.33333333333334</ele><time>2026-03-29T10:16:51.999Z</time></trkpt><trkpt lat="44.77577553113758" lon="10.163853986316065"><ele>102.66666666666666</ele><time>2026-03-29T10:16:52.999Z</time></trkpt><trkpt lat="44.77560942746744" lon="10.164024598849466"><ele>101.0</ele><time>2026-03-29T10:16:53.999Z</time></trkpt><trkpt lat="44.77543132279332" lon="10.164220025652137"><ele>97.5</ele><time>2026-03-29T10:16:54.999Z</time></trkpt><trkpt lat="44.775213433982216" lon="10.16441885266858"><ele>94.0</ele><time>2026-03-29T10:16:55.999Z</time></trkpt><trkpt lat="44.774985767894044" lon="10.164650260792655"><ele>91.0</ele><time>2026-03-29T10:16:56.999Z</time></trkpt><trkpt lat="44.77475832050136" lon="10.1649055595332"><ele>88.0</ele><time>2026-03-29T10:16:57.999Z</time></trkpt><trkpt lat="44.7745174225019" lon="10.165142115019227"><ele>87.5</ele><time>2026-03-29T10:16:58.999Z</time></trkpt><trkpt lat="44.77427075132659" lon="10.16539611338889"><ele>87.0</ele><time>2026-03-29T10:16:59.999Z</time></trkpt><trkpt lat="44.774013196866534" lon="10.16565380969056"><ele>87.5</ele><time>2026-03-29T10:17:00.999Z</time></trkpt><trkpt lat="44.77375567632171" lon="10.165919164513728"><ele>88.0</ele><time>2026-03-29T10:17:01.999Z</time></trkpt><trkpt lat="44.77349269806042" lon="10.166180356104654"><ele>88.0</ele><time>2026-03-29T10:17:02.999Z</time></trkpt><trkpt lat="44.77322409338681" lon="10.166438716353063"><ele>88.0</ele><time>2026-03-29T10:17:03.999Z</time></trkpt><trkpt lat="44.77295523559671" lon="10.166699911816236"><ele>87.5</ele><time>2026-03-29T10:17:04.999Z</time></trkpt><trkpt lat="44.772689716463425" lon="10.166970732026952"><ele>87.0</ele><time>2026-03-29T10:17:05.999Z</time></trkpt><trkpt lat="44.772431729582976" lon="10.16724647253341"><ele>86.0</ele><time>2026-03-29T10:17:06.999Z</time></trkpt><trkpt lat="44.7721892297848" lon="10.167511300985188"><ele>85.0</ele><time>2026-03-29T10:17:07.999Z</time></trkpt><trkpt lat="44.771970737323194" lon="10.167761763561623"><ele>85.0</ele><time>2026-03-29T10:17:08.999Z</time></trkpt><trkpt lat="44.77177049662647" lon="10.16800403677819"><ele>85.0</ele><time>2026-03-29T10:17:09.999Z</time></trkpt><trkpt lat="44.771580845560706" lon="10.168232142403504"><ele>85.5</ele><time>2026-03-29T10:17:10.999Z</time></trkpt><trkpt lat="44.77140138594703" lon="10.16845116543621"><ele>86.0</ele><time>2026-03-29T10:17:11.999Z</time></trkpt><trkpt lat="44.77124357475397" lon="10.168656938074804"><ele>86.0</ele><time>2026-03-29T10:17:12.999Z</time></trkpt><trkpt lat="44.77110658807185" lon="10.168838655936876"><ele>86.0</ele><time>2026-03-29T10:17:13.999Z</time></trkpt><trkpt lat="44.770992240730834" lon="10.168990867099765"><ele>86.0</ele><time>2026-03-29T10:17:14.999Z</time></trkpt><trkpt lat="44.7709066998735" lon="10.169095644833124"><ele>85.66666666666667</ele><time>2026-03-29T10:17:16Z</time></trkpt><trkpt lat="44.770834394378504" lon="10.169150302132536"><ele>85.33333333333334</ele><time>2026-03-29T10:17:17Z</time></trkpt><trkpt lat="44.77076135523391" lon="10.16918407231135"><ele>85.0</ele><time>2026-03-29T10:17:18Z</time></trkpt><trkpt lat="44.77068407463318" lon="10.169208102973803"><ele>84.66666666666667</ele><time>2026-03-29T10:17:19Z</time></trkpt><trkpt lat="44.770593301213786" lon="10.169233878383437"><ele>84.33333333333333</ele><time>2026-03-29T10:17:20Z</time></trkpt><trkpt lat="44.770502049735896" lon="10.169274229226877"><ele>84.0</ele><time>2026-03-29T10:17:21Z</time></trkpt><trkpt lat="44.770408338113654" lon="10.169335243007"><ele>84.0</ele><time>2026-03-29T10:17:22Z</time></trkpt><trkpt lat="44.77035669612484" lon="10.16947129950726"><ele>84.0</ele><time>2026-03-29T10:17:23Z</time></trkpt><trkpt lat="44.770327828778356" lon="10.169616695065615"><ele>84.0</ele><time>2026-03-29T10:17:24Z</time></trkpt><trkpt lat="44.7703561266886" lon="10.16975696291666"><ele>84.0</ele><time>2026-03-29T10:17:25Z</time></trkpt><trkpt lat="44.77029400347926" lon="10.169917030845292"><ele>84.5</ele><time>2026-03-29T10:17:26Z</time></trkpt><trkpt lat="44.77023803062697" lon="10.170059281108283"><ele>85.0</ele><time>2026-03-29T10:17:27Z</time></trkpt><trkpt lat="44.77015770009333" lon="10.170194489183675"><ele>85.5</ele><time>2026-03-29T10:17:28Z</time></trkpt><trkpt lat="44.770042853256925" lon="10.170394126772775"><ele>86.0</ele><time>2026-03-29T10:17:29Z</time></trkpt><trkpt lat="44.769886238753855" lon="10.170641260680773"><ele>86.5</ele><time>2026-03-29T10:17:30Z</time></trkpt><trkpt lat="44.76973205584571" lon="10.1708922891782"><ele>87.0</ele><time>2026-03-29T10:17:31Z</time></trkpt><trkpt lat="44.769550588721536" lon="10.17118834974474"><ele>86.0</ele><time>2026-03-29T10:17:32Z</time></trkpt><trkpt lat="44.76936357768294" lon="10.171526483607352"><ele>85.0</ele><time>2026-03-29T10:17:33Z</time></trkpt><trkpt lat="44.769168753625124" lon="10.171887849897946"><ele>85.0</ele><time>2026-03-29T10:17:34Z</time></trkpt><trkpt lat="44.768994712837255" lon="10.17224678843694"><ele>85.0</ele><time>2026-03-29T10:17:35Z</time></trkpt><trkpt lat="44.76879641673464" lon="10.172633803692376"><ele>85.0</ele><time>2026-03-29T10:17:36Z</time></trkpt><trkpt lat="44.768599856241394" lon="10.173047049417914"><ele>85.0</ele><time>2026-03-29T10:17:37Z</time></trkpt><trkpt lat="44.76841016729301" lon="10.17348183962871"><ele>83.5</ele><time>2026-03-29T10:17:38Z</time></trkpt><trkpt lat="44.768244499570734" lon="10.173889344562465"><ele>82.0</ele><time>2026-03-29T10:17:39Z</time></trkpt><trkpt lat="44.76808304200945" lon="10.17427064561446"><ele>82.0</ele><time>2026-03-29T10:17:40Z</time></trkpt><trkpt lat="44.76792398801662" lon="10.174647504897296"><ele>82.0</ele><time>2026-03-29T10:17:41Z</time></trkpt><trkpt lat="44.76778118071624" lon="10.175016914016396"><ele>83.5</ele><time>2026-03-29T10:17:42Z</time></trkpt><trkpt lat="44.76766097228764" lon="10.17536271874037"><ele>85.0</ele><time>2026-03-29T10:17:43Z</time></trkpt><trkpt lat="44.76755059448936" lon="10.175689705869065"><ele>85.0</ele><time>2026-03-29T10:17:44Z</time></trkpt><trkpt lat="44.7674420388909" lon="10.176012876681332"><ele>85.0</ele><time>2026-03-29T10:17:45Z</time></trkpt><trkpt lat="44.76733877698448" lon="10.176330033301129"><ele>85.5</ele><time>2026-03-29T10:17:46Z</time></trkpt><trkpt lat="44.76723671162047" lon="10.176642237527728"><ele>86.0</ele><time>2026-03-29T10:17:47Z</time></trkpt><trkpt lat="44.76713813038159" lon="10.17694715348917"><ele>86.0</ele><time>2026-03-29T10:17:48Z</time></trkpt><trkpt lat="44.767045307782766" lon="10.177243740603316"><ele>86.0</ele><time>2026-03-29T10:17:49Z</time></trkpt><trkpt lat="44.76695192921281" lon="10.177538418191203"><ele>86.0</ele><time>2026-03-29T10:17:50Z</time></trkpt><trkpt lat="44.76685156177422" lon="10.177851998167604"><ele>86.0</ele><time>2026-03-29T10:17:51Z</time></trkpt><trkpt lat="44.7667439839241" lon="10.178187991043536"><ele>86.0</ele><time>2026-03-29T10:17:52Z</time></trkpt><trkpt lat="44.76661450390057" lon="10.17854824138154"><ele>86.0</ele><time>2026-03-29T10:17:53Z</time></trkpt><trkpt lat="44.7664856109476" lon="10.178945558136373"><ele>84.5</ele><time>2026-03-29T10:17:54Z</time></trkpt><trkpt lat="44.7663496395697" lon="10.179364694397563"><ele>83.0</ele><time>2026-03-29T10:17:55Z</time></trkpt><trkpt lat="44.76620805204469" lon="10.179801142753135"><ele>82.5</ele><time>2026-03-29T10:17:56Z</time></trkpt><trkpt lat="44.7660795933744" lon="10.180227463991054"><ele>82.0</ele><time>2026-03-29T10:17:57Z</time></trkpt><trkpt lat="44.76593010864991" lon="10.180675022645426"><ele>81.5</ele><time>2026-03-29T10:17:58Z</time></trkpt><trkpt lat="44.76577876929094" lon="10.181141238628022"><ele>81.0</ele><time>2026-03-29T10:17:59Z</time></trkpt><trkpt lat="44.76562081041429" lon="10.18161769664761"><ele>81.0</ele><time>2026-03-29T10:18:00Z</time></trkpt><trkpt lat="44.765461032539946" lon="10.182099660723667"><ele>81.0</ele><time>2026-03-29T10:18:01Z</time></trkpt><trkpt lat="44.76530251431034" lon="10.182582637158418"><ele>81.5</ele><time>2026-03-29T10:18:02Z</time></trkpt><trkpt lat="44.76515757936033" lon="10.183034238563385"><ele>82.0</ele><time>2026-03-29T10:18:03Z</time></trkpt><trkpt lat="44.76501980095991" lon="10.183460280974403"><ele>82.0</ele><time>2026-03-29T10:18:04Z</time></trkpt><trkpt lat="44.76487998156341" lon="10.183882990889435"><ele>82.0</ele><time>2026-03-29T10:18:05Z</time></trkpt><trkpt lat="44.76474571628688" lon="10.18429596142339"><ele>83.0</ele><time>2026-03-29T10:18:06Z</time></trkpt><trkpt lat="44.76461423472489" lon="10.184700537425373"><ele>84.0</ele><time>2026-03-29T10:18:07Z</time></trkpt><trkpt lat="44.7644869793776" lon="10.185095167834856"><ele>85.5</ele><time>2026-03-29T10:18:08Z</time></trkpt><trkpt lat="44.764363946286224" lon="10.18548237068739"><ele>87.0</ele><time>2026-03-29T10:18:09Z</time></trkpt><trkpt lat="44.764243585729545" lon="10.185856938364976"><ele>89.5</ele><time>2026-03-29T10:18:10Z</time></trkpt><trkpt lat="44.76412682470885" lon="10.186224487037896"><ele>92.0</ele><time>2026-03-29T10:18:11Z</time></trkpt><trkpt lat="44.76401171406397" lon="10.18658260437705"><ele>92.0</ele><time>2026-03-29T10:18:12Z</time></trkpt><trkpt lat="44.763895056422925" lon="10.186929538717488"><ele>92.0</ele><time>2026-03-29T10:18:13Z</time></trkpt><trkpt lat="44.763782805111646" lon="10.187271436959907"><ele>91.5</ele><time>2026-03-29T10:18:14Z</time></trkpt><trkpt lat="44.7636734221508" lon="10.187608963541074"><ele>91.0</ele><time>2026-03-29T10:18:15Z</time></trkpt><trkpt lat="44.76357307499229" lon="10.187950144673707"><ele>90.0</ele><time>2026-03-29T10:18:16Z</time></trkpt><trkpt lat="44.76346748671447" lon="10.188282035189339"><ele>89.0</ele><time>2026-03-29T10:18:17Z</time></trkpt><trkpt lat="44.76335861045021" lon="10.188613592675676"><ele>89.0</ele><time>2026-03-29T10:18:18Z</time></trkpt><trkpt lat="44.7632438460755" lon="10.188944828494868"><ele>89.0</ele><time>2026-03-29T10:18:19Z</time></trkpt><trkpt lat="44.763128757473964" lon="10.189300581453418"><ele>88.0</ele><time>2026-03-29T10:18:20Z</time></trkpt><trkpt lat="44.7630090029523" lon="10.189668287893394"><ele>87.0</ele><time>2026-03-29T10:18:21Z</time></trkpt><trkpt lat="44.76288038488806" lon="10.19007068435087"><ele>87.0</ele><time>2026-03-29T10:18:22Z</time></trkpt><trkpt lat="44.7627404701818" lon="10.190495527830054"><ele>87.0</ele><time>2026-03-29T10:18:23Z</time></trkpt><trkpt lat="44.76259279948647" lon="10.190943627233827"><ele>89.0</ele><time>2026-03-29T10:18:24Z</time></trkpt><trkpt lat="44.76244074210014" lon="10.191410451147316"><ele>91.0</ele><time>2026-03-29T10:18:25Z</time></trkpt><trkpt lat="44.762283369241686" lon="10.191892573701704"><ele>90.5</ele><time>2026-03-29T10:18:26Z</time></trkpt><trkpt lat="44.762120736998135" lon="10.192391219135553"><ele>90.0</ele><time>2026-03-29T10:18:27Z</time></trkpt><trkpt lat="44.76195428072991" lon="10.192903219813298"><ele>91.5</ele><time>2026-03-29T10:18:28Z</time></trkpt><trkpt lat="44.76178585597874" lon="10.193418199273085"><ele>93.0</ele><time>2026-03-29T10:18:29Z</time></trkpt><trkpt lat="44.761621483543514" lon="10.193907776010663"><ele>92.5</ele><time>2026-03-29T10:18:30Z</time></trkpt><trkpt lat="44.761471015778895" lon="10.194373577559078"><ele>92.0</ele><time>2026-03-29T10:18:31Z</time></trkpt><trkpt lat="44.76132585303955" lon="10.194823171495589"><ele>92.0</ele><time>2026-03-29T10:18:32Z</time></trkpt><trkpt lat="44.76118685633229" lon="10.195256352947302"><ele>92.0</ele><time>2026-03-29T10:18:33Z</time></trkpt><trkpt lat="44.761054233210444" lon="10.195676455680324"><ele>92.5</ele><time>2026-03-29T10:18:34Z</time></trkpt><trkpt lat="44.7609258043544" lon="10.196094607020925"><ele>93.0</ele><time>2026-03-29T10:18:35Z</time></trkpt><trkpt lat="44.760804496668094" lon="10.196502522908139"><ele>94.0</ele><time>2026-03-29T10:18:36Z</time></trkpt><trkpt lat="44.76068498921895" lon="10.196922982204565"><ele>95.0</ele><time>2026-03-29T10:18:37Z</time></trkpt><trkpt lat="44.76057324352777" lon="10.197339550333995"><ele>96.0</ele><time>2026-03-29T10:18:37.999Z</time></trkpt><trkpt lat="44.76046641913963" lon="10.197737582888873"><ele>97.0</ele><time>2026-03-29T10:18:38.999Z</time></trkpt><trkpt lat="44.76036952734924" lon="10.19811885140407"><ele>97.5</ele><time>2026-03-29T10:18:39.999Z</time></trkpt><trkpt lat="44.76028135281187" lon="10.198470092457638"><ele>98.0</ele><time>2026-03-29T10:18:40.999Z</time></trkpt><trkpt lat="44.760202389109885" lon="10.198797552689467"><ele>97.0</ele><time>2026-03-29T10:18:41.999Z</time></trkpt><trkpt lat="44.76011909138734" lon="10.199124432922188"><ele>96.0</ele><time>2026-03-29T10:18:42.999Z</time></trkpt><trkpt lat="44.76003140769545" lon="10.199487580408599"><ele>96.0</ele><time>2026-03-29T10:18:43.999Z</time></trkpt><trkpt lat="44.75993769676018" lon="10.199875832209884"><ele>96.0</ele><time>2026-03-29T10:18:44.999Z</time></trkpt><trkpt lat="44.75982714067978" lon="10.200250010219197"><ele>97.0</ele><time>2026-03-29T10:18:45.999Z</time></trkpt><trkpt lat="44.75973394947783" lon="10.200671129193816"><ele>98.0</ele><time>2026-03-29T10:18:46.999Z</time></trkpt><trkpt lat="44.75963607874155" lon="10.201020144147362"><ele>98.0</ele><time>2026-03-29T10:18:47.999Z</time></trkpt><trkpt lat="44.759550989410215" lon="10.201347650333357"><ele>98.0</ele><time>2026-03-29T10:18:48.999Z</time></trkpt><trkpt lat="44.7594742819617" lon="10.201643287101632"><ele>98.0</ele><time>2026-03-29T10:18:49.999Z</time></trkpt><trkpt lat="44.75940368859037" lon="10.201915872774915"><ele>98.0</ele><time>2026-03-29T10:18:50.999Z</time></trkpt><trkpt lat="44.75933824171359" lon="10.202166421466039"><ele>98.0</ele><time>2026-03-29T10:18:51.999Z</time></trkpt><trkpt lat="44.75927257819691" lon="10.202393115663845"><ele>98.2</ele><time>2026-03-29T10:18:52.999Z</time></trkpt><trkpt lat="44.75920856383375" lon="10.20258001127792"><ele>98.4</ele><time>2026-03-29T10:18:53.999Z</time></trkpt><trkpt lat="44.75915301580591" lon="10.202711475382259"><ele>98.60000000000001</ele><time>2026-03-29T10:18:54.999Z</time></trkpt><trkpt lat="44.75911108070935" lon="10.202823209546105"><ele>98.80000000000001</ele><time>2026-03-29T10:18:55.999Z</time></trkpt><trkpt lat="44.759066522153105" lon="10.202900818180435"><ele>99.0</ele><time>2026-03-29T10:18:56.999Z</time></trkpt><trkpt lat="44.759022143909654" lon="10.202976269626154"><ele>99.0</ele><time>2026-03-29T10:18:59.999Z</time></trkpt><trkpt lat="44.75895122708207" lon="10.202975141343408"><ele>99.0</ele><time>2026-03-29T10:19:00.999Z</time></trkpt><trkpt lat="44.758878168278386" lon="10.203023117036865"><ele>99.0</ele><time>2026-03-29T10:19:01.999Z</time></trkpt><trkpt lat="44.75876823239017" lon="10.20310662560047"><ele>99.0</ele><time>2026-03-29T10:19:02.999Z</time></trkpt><trkpt lat="44.75867375821802" lon="10.203194800264708"><ele>99.0</ele><time>2026-03-29T10:19:03.999Z</time></trkpt><trkpt lat="44.75860116876388" lon="10.203323858279132"><ele>99.25</ele><time>2026-03-29T10:19:04.999Z</time></trkpt><trkpt lat="44.758561498629604" lon="10.203494918318317"><ele>99.5</ele><time>2026-03-29T10:19:05.999Z</time></trkpt><trkpt lat="44.75855317977868" lon="10.20368555232783"><ele>99.75</ele><time>2026-03-29T10:19:06.999Z</time></trkpt><trkpt lat="44.75858262358434" lon="10.20386722957691"><ele>100.0</ele><time>2026-03-29T10:19:07.999Z</time></trkpt><trkpt lat="44.7586509495296" lon="10.20403312128119"><ele>100.0</ele><time>2026-03-29T10:19:08.999Z</time></trkpt><trkpt lat="44.7587611782891" lon="10.204167389116298"><ele>100.0</ele><time>2026-03-29T10:19:09.999Z</time></trkpt><trkpt lat="44.75889817755477" lon="10.204274680198319"><ele>100.0</ele><time>2026-03-29T10:19:10.999Z</time></trkpt><trkpt lat="44.7590392625689" lon="10.204390818532794"><ele>100.0</ele><time>2026-03-29T10:19:11.999Z</time></trkpt><trkpt lat="44.75916826266539" lon="10.204539290958772"><ele>100.0</ele><time>2026-03-29T10:19:12.999Z</time></trkpt><trkpt lat="44.75924831362969" lon="10.204790624432038"><ele>100.0</ele><time>2026-03-29T10:19:13.999Z</time></trkpt><trkpt lat="44.759314794478655" lon="10.205075532758055"><ele>99.0</ele><time>2026-03-29T10:19:14.999Z</time></trkpt><trkpt lat="44.75938580369782" lon="10.205368558704965"><ele>98.0</ele><time>2026-03-29T10:19:15.999Z</time></trkpt><trkpt lat="44.75945670896701" lon="10.205656952824237"><ele>97.0</ele><time>2026-03-29T10:19:16.999Z</time></trkpt><trkpt lat="44.75951592771161" lon="10.205950633545669"><ele>96.66666666666667</ele><time>2026-03-29T10:19:17.999Z</time></trkpt><trkpt lat="44.759555521510855" lon="10.206250227512804"><ele>96.33333333333334</ele><time>2026-03-29T10:19:18.999Z</time></trkpt><trkpt lat="44.75957306049161" lon="10.206547058030925"><ele>96.0</ele><time>2026-03-29T10:19:19.999Z</time></trkpt><trkpt lat="44.75958285705286" lon="10.206826218103435"><ele>96.0</ele><time>2026-03-29T10:19:20.999Z</time></trkpt><trkpt lat="44.75957446876687" lon="10.20710697731736"><ele>96.0</ele><time>2026-03-29T10:19:22Z</time></trkpt><trkpt lat="44.75954679856651" lon="10.207389596270776"><ele>96.0</ele><time>2026-03-29T10:19:23Z</time></trkpt><trkpt lat="44.75951092371548" lon="10.207643939980903"><ele>97.0</ele><time>2026-03-29T10:19:24Z</time></trkpt><trkpt lat="44.75946741974291" lon="10.20787607899565"><ele>98.0</ele><time>2026-03-29T10:19:25Z</time></trkpt><trkpt lat="44.759418916404364" lon="10.208120173750517"><ele>99.0</ele><time>2026-03-29T10:19:26Z</time></trkpt><trkpt lat="44.759336351142906" lon="10.208371490162879"><ele>99.0</ele><time>2026-03-29T10:19:27Z</time></trkpt><trkpt lat="44.75924621611295" lon="10.20863466445182"><ele>99.0</ele><time>2026-03-29T10:19:28Z</time></trkpt><trkpt lat="44.75913490833785" lon="10.20892281372333"><ele>99.0</ele><time>2026-03-29T10:19:29Z</time></trkpt><trkpt lat="44.759024992160285" lon="10.209238963750389"><ele>100.5</ele><time>2026-03-29T10:19:30Z</time></trkpt><trkpt lat="44.75890300762141" lon="10.209528001762083"><ele>102.0</ele><time>2026-03-29T10:19:31Z</time></trkpt><trkpt lat="44.758782956944664" lon="10.2098164519226"><ele>101.5</ele><time>2026-03-29T10:19:32Z</time></trkpt><trkpt lat="44.7586657689947" lon="10.210114171855965"><ele>101.0</ele><time>2026-03-29T10:19:33Z</time></trkpt><trkpt lat="44.75855409931654" lon="10.210411256030907"><ele>103.5</ele><time>2026-03-29T10:19:34Z</time></trkpt><trkpt lat="44.75844326755467" lon="10.210703228104675"><ele>106.0</ele><time>2026-03-29T10:19:35Z</time></trkpt><trkpt lat="44.758338869033324" lon="10.210997724425315"><ele>106.0</ele><time>2026-03-29T10:19:36Z</time></trkpt><trkpt lat="44.758214129269675" lon="10.211293888171367"><ele>106.0</ele><time>2026-03-29T10:19:37Z</time></trkpt><trkpt lat="44.75809108849135" lon="10.211609170902067"><ele>105.0</ele><time>2026-03-29T10:19:38Z</time></trkpt><trkpt lat="44.7579733442056" lon="10.211932613615396"><ele>104.0</ele><time>2026-03-29T10:19:39Z</time></trkpt><trkpt lat="44.7578459337488" lon="10.212240437232818"><ele>103.5</ele><time>2026-03-29T10:19:40Z</time></trkpt><trkpt lat="44.75773845411447" lon="10.212566145522192"><ele>103.0</ele><time>2026-03-29T10:19:41Z</time></trkpt><trkpt lat="44.75764787142428" lon="10.212901703399025"><ele>104.0</ele><time>2026-03-29T10:19:42Z</time></trkpt><trkpt lat="44.75756583097829" lon="10.213245493096844"><ele>105.0</ele><time>2026-03-29T10:19:43Z</time></trkpt><trkpt lat="44.757486597059724" lon="10.213596985919523"><ele>105.0</ele><time>2026-03-29T10:19:44Z</time></trkpt><trkpt lat="44.75741745755041" lon="10.213954293600617"><ele>105.0</ele><time>2026-03-29T10:19:45Z</time></trkpt><trkpt lat="44.757361831979146" lon="10.214319353239453"><ele>106.0</ele><time>2026-03-29T10:19:46Z</time></trkpt><trkpt lat="44.7573257045403" lon="10.214699230654366"><ele>107.0</ele><time>2026-03-29T10:19:47Z</time></trkpt><trkpt lat="44.75729790995989" lon="10.215099827565526"><ele>107.0</ele><time>2026-03-29T10:19:48Z</time></trkpt><trkpt lat="44.757274041811904" lon="10.21551607528725"><ele>107.0</ele><time>2026-03-29T10:19:49Z</time></trkpt><trkpt lat="44.757248742943474" lon="10.21594347242658"><ele>107.5</ele><time>2026-03-29T10:19:50Z</time></trkpt><trkpt lat="44.757222818026484" lon="10.216381310387927"><ele>108.0</ele><time>2026-03-29T10:19:51Z</time></trkpt><trkpt lat="44.757210619795444" lon="10.216824486590154"><ele>107.0</ele><time>2026-03-29T10:19:52Z</time></trkpt><trkpt lat="44.75722084204047" lon="10.217293284747024"><ele>106.0</ele><time>2026-03-29T10:19:53Z</time></trkpt><trkpt lat="44.757252345975154" lon="10.217783232929325"><ele>107.5</ele><time>2026-03-29T10:19:54Z</time></trkpt><trkpt lat="44.757293931023305" lon="10.218233759969417"><ele>109.0</ele><time>2026-03-29T10:19:55Z</time></trkpt><trkpt lat="44.75735398419752" lon="10.21864141806217"><ele>107.5</ele><time>2026-03-29T10:19:56Z</time></trkpt><trkpt lat="44.75742389903137" lon="10.219033709027604"><ele>106.0</ele><time>2026-03-29T10:19:57Z</time></trkpt><trkpt lat="44.75748117462232" lon="10.219402034365894"><ele>106.0</ele><time>2026-03-29T10:19:58Z</time></trkpt><trkpt lat="44.75753735151366" lon="10.219752043239124"><ele>106.0</ele><time>2026-03-29T10:19:59Z</time></trkpt><trkpt lat="44.75758953172841" lon="10.22008020592312"><ele>107.0</ele><time>2026-03-29T10:20:00Z</time></trkpt><trkpt lat="44.75763806038567" lon="10.220412109322686"><ele>108.0</ele><time>2026-03-29T10:20:01Z</time></trkpt><trkpt lat="44.75768818565964" lon="10.220740767968497"><ele>108.5</ele><time>2026-03-29T10:20:02Z</time></trkpt><trkpt lat="44.75774113207765" lon="10.221061076585501"><ele>109.0</ele><time>2026-03-29T10:20:03Z</time></trkpt><trkpt lat="44.757793190669574" lon="10.221379043358462"><ele>109.5</ele><time>2026-03-29T10:20:04Z</time></trkpt><trkpt lat="44.75784390679807" lon="10.221688950131927"><ele>110.0</ele><time>2026-03-29T10:20:05Z</time></trkpt><trkpt lat="44.757894736839845" lon="10.221996461867816"><ele>110.0</ele><time>2026-03-29T10:20:06Z</time></trkpt><trkpt lat="44.75794605030716" lon="10.222301609383555"><ele>110.0</ele><time>2026-03-29T10:20:07Z</time></trkpt><trkpt lat="44.75799577115032" lon="10.222605588075965"><ele>110.0</ele><time>2026-03-29T10:20:08Z</time></trkpt><trkpt lat="44.75804216677156" lon="10.222906398265014"><ele>109.0</ele><time>2026-03-29T10:20:09Z</time></trkpt><trkpt lat="44.75808795245891" lon="10.223204224109478"><ele>108.0</ele><time>2026-03-29T10:20:10Z</time></trkpt><trkpt lat="44.75813073125798" lon="10.22350055613264"><ele>107.0</ele><time>2026-03-29T10:20:11Z</time></trkpt><trkpt lat="44.75815995077098" lon="10.223794236592962"><ele>107.66666666666666</ele><time>2026-03-29T10:20:12Z</time></trkpt><trkpt lat="44.75817680509315" lon="10.224091979683598"><ele>108.33333333333334</ele><time>2026-03-29T10:20:13Z</time></trkpt><trkpt lat="44.75818197882681" lon="10.224387949596025"><ele>109.0</ele><time>2026-03-29T10:20:14Z</time></trkpt><trkpt lat="44.75818196365228" lon="10.224678136993345"><ele>109.66666666666667</ele><time>2026-03-29T10:20:15Z</time></trkpt><trkpt lat="44.75817456390796" lon="10.22496322525945"><ele>110.33333333333334</ele><time>2026-03-29T10:20:16Z</time></trkpt><trkpt lat="44.75816174004516" lon="10.225244490150075"><ele>111.0</ele><time>2026-03-29T10:20:17Z</time></trkpt><trkpt lat="44.758143012882215" lon="10.225500624105017"><ele>110.66666666666666</ele><time>2026-03-29T10:20:18Z</time></trkpt><trkpt lat="44.758119472036434" lon="10.225741681127142"><ele>110.33333333333333</ele><time>2026-03-29T10:20:19Z</time></trkpt><trkpt lat="44.75808742713505" lon="10.225979739287759"><ele>110.0</ele><time>2026-03-29T10:20:20Z</time></trkpt><trkpt lat="44.758047183341375" lon="10.22621368668188"><ele>110.0</ele><time>2026-03-29T10:20:21Z</time></trkpt><trkpt lat="44.758001843513874" lon="10.226440645058133"><ele>110.0</ele><time>2026-03-29T10:20:22Z</time></trkpt><trkpt lat="44.75795441614028" lon="10.22666397742552"><ele>110.0</ele><time>2026-03-29T10:20:23Z</time></trkpt><trkpt lat="44.757902228694476" lon="10.226890595507088"><ele>110.0</ele><time>2026-03-29T10:20:24Z</time></trkpt><trkpt lat="44.75784257442871" lon="10.227115928108732"><ele>110.0</ele><time>2026-03-29T10:20:25Z</time></trkpt><trkpt lat="44.75778212279751" lon="10.227336973693683"><ele>110.0</ele><time>2026-03-29T10:20:26Z</time></trkpt><trkpt lat="44.75771364973244" lon="10.227546990741939"><ele>110.0</ele><time>2026-03-29T10:20:27Z</time></trkpt><trkpt lat="44.75764444838832" lon="10.227742616402683"><ele>110.0</ele><time>2026-03-29T10:20:28Z</time></trkpt><trkpt lat="44.75757349506164" lon="10.227919394869986"><ele>110.0</ele><time>2026-03-29T10:20:29Z</time></trkpt><trkpt lat="44.75749822483264" lon="10.228089791856826"><ele>110.0</ele><time>2026-03-29T10:20:30Z</time></trkpt><trkpt lat="44.757417039956174" lon="10.228267873629708"><ele>109.25</ele><time>2026-03-29T10:20:31Z</time></trkpt><trkpt lat="44.75733995403699" lon="10.228441201689813"><ele>108.5</ele><time>2026-03-29T10:20:32Z</time></trkpt><trkpt lat="44.75726224366816" lon="10.228605650232765"><ele>107.75</ele><time>2026-03-29T10:20:33Z</time></trkpt><trkpt lat="44.757187529881286" lon="10.228755773353162"><ele>107.0</ele><time>2026-03-29T10:20:34Z</time></trkpt><trkpt lat="44.757116557724224" lon="10.228895261280043"><ele>107.75</ele><time>2026-03-29T10:20:35Z</time></trkpt><trkpt lat="44.757033646880146" lon="10.229038276638226"><ele>108.5</ele><time>2026-03-29T10:20:36Z</time></trkpt><trkpt lat="44.756943013580894" lon="10.229178680402143"><ele>109.25</ele><time>2026-03-29T10:20:37Z</time></trkpt><trkpt lat="44.7568515934459" lon="10.229312060600199"><ele>110.0</ele><time>2026-03-29T10:20:38Z</time></trkpt><trkpt lat="44.75676013028507" lon="10.229440060735103"><ele>110.75</ele><time>2026-03-29T10:20:38.999Z</time></trkpt><trkpt lat="44.75666997723795" lon="10.229562131355001"><ele>111.5</ele><time>2026-03-29T10:20:39.999Z</time></trkpt><trkpt lat="44.75658071107296" lon="10.229681375838334"><ele>112.25</ele><time>2026-03-29T10:20:40.999Z</time></trkpt><trkpt lat="44.75649480211188" lon="10.229794625423768"><ele>113.0</ele><time>2026-03-29T10:20:41.999Z</time></trkpt><trkpt lat="44.756421172425256" lon="10.229909039370707"><ele>113.2</ele><time>2026-03-29T10:20:42.999Z</time></trkpt><trkpt lat="44.75635647461656" lon="10.230024482660802"><ele>113.4</ele><time>2026-03-29T10:20:43.999Z</time></trkpt><trkpt lat="44.75629724923235" lon="10.230139545659112"><ele>113.60000000000001</ele><time>2026-03-29T10:20:44.999Z</time></trkpt><trkpt lat="44.756245485075155" lon="10.230259814171866"><ele>113.80000000000001</ele><time>2026-03-29T10:20:45.999Z</time></trkpt><trkpt lat="44.75619918471101" lon="10.230358180043918"><ele>114.0</ele><time>2026-03-29T10:20:46.999Z</time></trkpt><trkpt lat="44.75614579099597" lon="10.23045034566927"><ele>114.0</ele><time>2026-03-29T10:20:47.999Z</time></trkpt><trkpt lat="44.75609036885137" lon="10.23053009597287"><ele>114.0</ele><time>2026-03-29T10:20:48.999Z</time></trkpt><trkpt lat="44.75601924328352" lon="10.230605372509611"><ele>114.0</ele><time>2026-03-29T10:20:49.999Z</time></trkpt><trkpt lat="44.75593245454551" lon="10.23067536249"><ele>114.0</ele><time>2026-03-29T10:20:50.999Z</time></trkpt><trkpt lat="44.7558433176787" lon="10.230716950802526"><ele>114.0</ele><time>2026-03-29T10:20:51.999Z</time></trkpt><trkpt lat="44.75574738454881" lon="10.23076674038069"><ele>113.6</ele><time>2026-03-29T10:20:52.999Z</time></trkpt><trkpt lat="44.755667333208855" lon="10.230834217215799"><ele>113.2</ele><time>2026-03-29T10:20:53.999Z</time></trkpt><trkpt lat="44.755614637815356" lon="10.230949436850052"><ele>112.79999999999998</ele><time>2026-03-29T10:20:54.999Z</time></trkpt><trkpt lat="44.755587724648564" lon="10.231085564121365"><ele>112.39999999999999</ele><time>2026-03-29T10:20:55.999Z</time></trkpt><trkpt lat="44.7556151561734" lon="10.231230719358939"><ele>112.0</ele><time>2026-03-29T10:20:56.999Z</time></trkpt><trkpt lat="44.755663499143715" lon="10.23134671757073"><ele>112.0</ele><time>2026-03-29T10:20:57.999Z</time></trkpt><trkpt lat="44.75572806322027" lon="10.231439701045783"><ele>111.99999999999999</ele><time>2026-03-29T10:20:58.999Z</time></trkpt><trkpt lat="44.755807255013046" lon="10.231519188485192"><ele>111.99999999999999</ele><time>2026-03-29T10:20:59.999Z</time></trkpt><trkpt lat="44.75589046800611" lon="10.231544837478213"><ele>112.0</ele><time>2026-03-29T10:21:00.999Z</time></trkpt><trkpt lat="44.75597430526082" lon="10.231641892794368"><ele>112.0</ele><time>2026-03-29T10:21:01.999Z</time></trkpt><trkpt lat="44.756056693932074" lon="10.231740882845093"><ele>111.0</ele><time>2026-03-29T10:21:02.999Z</time></trkpt><trkpt lat="44.7561188857442" lon="10.231864371211378"><ele>110.0</ele><time>2026-03-29T10:21:03.999Z</time></trkpt><trkpt lat="44.75615643647969" lon="10.23200670698957"><ele>109.0</ele><time>2026-03-29T10:21:04.999Z</time></trkpt><trkpt lat="44.75619135735239" lon="10.232163181602367"><ele>108.0</ele><time>2026-03-29T10:21:05.999Z</time></trkpt><trkpt lat="44.756235915865" lon="10.232321690440193"><ele>108.0</ele><time>2026-03-29T10:21:06.999Z</time></trkpt><trkpt lat="44.75628278222917" lon="10.23248696793764"><ele>108.0</ele><time>2026-03-29T10:21:07.999Z</time></trkpt><trkpt lat="44.75634139156664" lon="10.232668651094102"><ele>108.0</ele><time>2026-03-29T10:21:08.999Z</time></trkpt><trkpt lat="44.75641618029556" lon="10.23282882005205"><ele>108.0</ele><time>2026-03-29T10:21:09.999Z</time></trkpt><trkpt lat="44.75649533148591" lon="10.232990872733"><ele>108.75</ele><time>2026-03-29T10:21:10.999Z</time></trkpt><trkpt lat="44.756580835616916" lon="10.233166610420785"><ele>109.5</ele><time>2026-03-29T10:21:11.999Z</time></trkpt><trkpt lat="44.75666285694687" lon="10.233333617309977"><ele>110.25</ele><time>2026-03-29T10:21:12.999Z</time></trkpt><trkpt lat="44.756743223758995" lon="10.2335109973498"><ele>111.0</ele><time>2026-03-29T10:21:13.999Z</time></trkpt><trkpt lat="44.75682543028415" lon="10.23368926961833"><ele>111.0</ele><time>2026-03-29T10:21:14.999Z</time></trkpt><trkpt lat="44.75691093791898" lon="10.233867779264342"><ele>111.0</ele><time>2026-03-29T10:21:15.999Z</time></trkpt><trkpt lat="44.75699866667578" lon="10.23404914744144"><ele>111.0</ele><time>2026-03-29T10:21:16.999Z</time></trkpt><trkpt lat="44.757083894541736" lon="10.234237522121575"><ele>111.0</ele><time>2026-03-29T10:21:17.999Z</time></trkpt><trkpt lat="44.75717347662947" lon="10.23442964132338"><ele>111.0</ele><time>2026-03-29T10:21:18.999Z</time></trkpt><trkpt lat="44.75727245852648" lon="10.234648128233875"><ele>111.0</ele><time>2026-03-29T10:21:19.999Z</time></trkpt><trkpt lat="44.757390611905315" lon="10.234904712091963"><ele>111.0</ele><time>2026-03-29T10:21:20.999Z</time></trkpt><trkpt lat="44.75752287111357" lon="10.235191802974134"><ele>111.0</ele><time>2026-03-29T10:21:21.999Z</time></trkpt><trkpt lat="44.75765313212317" lon="10.235465902437037"><ele>109.5</ele><time>2026-03-29T10:21:22.999Z</time></trkpt><trkpt lat="44.757776800677895" lon="10.23576075608125"><ele>108.0</ele><time>2026-03-29T10:21:23.999Z</time></trkpt><trkpt lat="44.75792172013889" lon="10.236077616713207"><ele>108.0</ele><time>2026-03-29T10:21:24.999Z</time></trkpt><trkpt lat="44.75806155652489" lon="10.236384734689775"><ele>108.0</ele><time>2026-03-29T10:21:25.999Z</time></trkpt><trkpt lat="44.758197657532314" lon="10.236684985439915"><ele>108.0</ele><time>2026-03-29T10:21:26.999Z</time></trkpt><trkpt lat="44.7583333460949" lon="10.236972311460725"><ele>108.0</ele><time>2026-03-29T10:21:28Z</time></trkpt><trkpt lat="44.758464841823006" lon="10.237252887939805"><ele>108.0</ele><time>2026-03-29T10:21:29Z</time></trkpt><trkpt lat="44.758589260167255" lon="10.237525699287646"><ele>108.0</ele><time>2026-03-29T10:21:30Z</time></trkpt><trkpt lat="44.75870908429835" lon="10.237789830486212"><ele>108.0</ele><time>2026-03-29T10:21:31Z</time></trkpt><trkpt lat="44.75882991059853" lon="10.238050836077186"><ele>108.0</ele><time>2026-03-29T10:21:32Z</time></trkpt><trkpt lat="44.758944665354704" lon="10.238303415635565"><ele>108.0</ele><time>2026-03-29T10:21:33Z</time></trkpt><trkpt lat="44.759057035018884" lon="10.2385498106066"><ele>108.0</ele><time>2026-03-29T10:21:34Z</time></trkpt><trkpt lat="44.759169991950245" lon="10.238795398971698"><ele>108.0</ele><time>2026-03-29T10:21:35Z</time></trkpt><trkpt lat="44.75928696968945" lon="10.239035989021753"><ele>108.0</ele><time>2026-03-29T10:21:36Z</time></trkpt><trkpt lat="44.75940184023122" lon="10.239280182738879"><ele>107.66666666666666</ele><time>2026-03-29T10:21:37Z</time></trkpt><trkpt lat="44.75951704887584" lon="10.23953656213064"><ele>107.33333333333333</ele><time>2026-03-29T10:21:38Z</time></trkpt><trkpt lat="44.759638845257676" lon="10.239801402827817"><ele>107.0</ele><time>2026-03-29T10:21:39Z</time></trkpt><trkpt lat="44.75976591193735" lon="10.240063447016137"><ele>108.33333333333333</ele><time>2026-03-29T10:21:40Z</time></trkpt><trkpt lat="44.75987802970736" lon="10.240309704963735"><ele>109.66666666666666</ele><time>2026-03-29T10:21:41Z</time></trkpt><trkpt lat="44.75998625149151" lon="10.240545808626072"><ele>111.0</ele><time>2026-03-29T10:21:42Z</time></trkpt><trkpt lat="44.760097709157584" lon="10.240779542957197"><ele>110.66666666666666</ele><time>2026-03-29T10:21:43Z</time></trkpt><trkpt lat="44.76020548477233" lon="10.241009582709559"><ele>110.33333333333333</ele><time>2026-03-29T10:21:44Z</time></trkpt><trkpt lat="44.76031493069314" lon="10.241244242805953"><ele>110.0</ele><time>2026-03-29T10:21:45Z</time></trkpt><trkpt lat="44.76042235764941" lon="10.241482151726228"><ele>109.66666666666666</ele><time>2026-03-29T10:21:46Z</time></trkpt><trkpt lat="44.76053202879406" lon="10.241720296416766"><ele>109.33333333333334</ele><time>2026-03-29T10:21:47Z</time></trkpt><trkpt lat="44.76063902471264" lon="10.241955377813918"><ele>109.0</ele><time>2026-03-29T10:21:48Z</time></trkpt><trkpt lat="44.76074195504161" lon="10.24217861356044"><ele>109.0</ele><time>2026-03-29T10:21:49Z</time></trkpt><trkpt lat="44.76084253322035" lon="10.242393345093095"><ele>109.0</ele><time>2026-03-29T10:21:50Z</time></trkpt><trkpt lat="44.76094094844341" lon="10.24260350944298"><ele>109.0</ele><time>2026-03-29T10:21:51Z</time></trkpt><trkpt lat="44.76103437532798" lon="10.242807057380734"><ele>108.0</ele><time>2026-03-29T10:21:52Z</time></trkpt><trkpt lat="44.76112598862442" lon="10.243012472647917"><ele>107.0</ele><time>2026-03-29T10:21:53Z</time></trkpt><trkpt lat="44.761216668958724" lon="10.24321838393807"><ele>106.0</ele><time>2026-03-29T10:21:54Z</time></trkpt><trkpt lat="44.761307392271966" lon="10.243421564271724"><ele>105.0</ele><time>2026-03-29T10:21:55Z</time></trkpt><trkpt lat="44.76140177386072" lon="10.243623340513167"><ele>104.0</ele><time>2026-03-29T10:21:56Z</time></trkpt><trkpt lat="44.761493616741305" lon="10.243819595817666"><ele>103.0</ele><time>2026-03-29T10:21:57Z</time></trkpt><trkpt lat="44.76158693616599" lon="10.244020304268574"><ele>102.66666666666667</ele><time>2026-03-29T10:21:58Z</time></trkpt><trkpt lat="44.761681168724316" lon="10.244223829358319"><ele>102.33333333333334</ele><time>2026-03-29T10:21:59Z</time></trkpt><trkpt lat="44.761776583827356" lon="10.244427665302975"><ele>102.0</ele><time>2026-03-29T10:22:00Z</time></trkpt><trkpt lat="44.761869678698055" lon="10.244630431667089"><ele>102.0</ele><time>2026-03-29T10:22:01Z</time></trkpt><trkpt lat="44.76196296470786" lon="10.244834560103598"><ele>102.0</ele><time>2026-03-29T10:22:02Z</time></trkpt><trkpt lat="44.76206056076029" lon="10.245040411592436"><ele>102.0</ele><time>2026-03-29T10:22:03Z</time></trkpt><trkpt lat="44.76216039206984" lon="10.245246949722752"><ele>102.0</ele><time>2026-03-29T10:22:04Z</time></trkpt><trkpt lat="44.76226441947927" lon="10.245453966970567"><ele>102.0</ele><time>2026-03-29T10:22:05Z</time></trkpt><trkpt lat="44.76236535995867" lon="10.245665854883715"><ele>102.0</ele><time>2026-03-29T10:22:06Z</time></trkpt><trkpt lat="44.76245762418209" lon="10.245871512670359"><ele>102.33333333333334</ele><time>2026-03-29T10:22:07Z</time></trkpt><trkpt lat="44.76254925525345" lon="10.246074042307528"><ele>102.66666666666667</ele><time>2026-03-29T10:22:08Z</time></trkpt><trkpt lat="44.7626449520571" lon="10.246277007899291"><ele>103.0</ele><time>2026-03-29T10:22:09Z</time></trkpt><trkpt lat="44.76273697521477" lon="10.246474574691174"><ele>103.0</ele><time>2026-03-29T10:22:10Z</time></trkpt><trkpt lat="44.762831950699955" lon="10.246670106606082"><ele>103.0</ele><time>2026-03-29T10:22:11Z</time></trkpt><trkpt lat="44.762927661350886" lon="10.246856971957913"><ele>103.0</ele><time>2026-03-29T10:22:12Z</time></trkpt><trkpt lat="44.763018875428635" lon="10.247049746598622"><ele>103.0</ele><time>2026-03-29T10:22:13Z</time></trkpt><trkpt lat="44.763108328268274" lon="10.247238713150605"><ele>103.0</ele><time>2026-03-29T10:22:14Z</time></trkpt><trkpt lat="44.76320349509416" lon="10.247430135014211"><ele>103.0</ele><time>2026-03-29T10:22:15Z</time></trkpt><trkpt lat="44.76329585420291" lon="10.247616964439992"><ele>103.66666666666667</ele><time>2026-03-29T10:22:16Z</time></trkpt><trkpt lat="44.76338975712606" lon="10.247807261156163"><ele>104.33333333333334</ele><time>2026-03-29T10:22:17Z</time></trkpt><trkpt lat="44.76348025508765" lon="10.248000901960781"><ele>105.0</ele><time>2026-03-29T10:22:18Z</time></trkpt><trkpt lat="44.763572935363115" lon="10.248198415085147"><ele>103.66666666666666</ele><time>2026-03-29T10:22:19Z</time></trkpt><trkpt lat="44.763664589527004" lon="10.248396291641336"><ele>102.33333333333333</ele><time>2026-03-29T10:22:20Z</time></trkpt><trkpt lat="44.76375766983955" lon="10.248592993878303"><ele>101.0</ele><time>2026-03-29T10:22:21Z</time></trkpt><trkpt lat="44.763858376803576" lon="10.248790775189677"><ele>101.33333333333333</ele><time>2026-03-29T10:22:22Z</time></trkpt><trkpt lat="44.763952261649344" lon="10.248988988391847"><ele>101.66666666666666</ele><time>2026-03-29T10:22:23Z</time></trkpt><trkpt lat="44.764047167653516" lon="10.249189550694076"><ele>102.0</ele><time>2026-03-29T10:22:24Z</time></trkpt><trkpt lat="44.764139796351024" lon="10.249395202036261"><ele>102.0</ele><time>2026-03-29T10:22:25Z</time></trkpt><trkpt lat="44.764232667188566" lon="10.249599357182138"><ele>102.0</ele><time>2026-03-29T10:22:26Z</time></trkpt><trkpt lat="44.76432596425971" lon="10.249817408511158"><ele>102.0</ele><time>2026-03-29T10:22:27Z</time></trkpt><trkpt lat="44.764428629928" lon="10.250040855843018"><ele>100.66666666666666</ele><time>2026-03-29T10:22:28Z</time></trkpt><trkpt lat="44.764535984687235" lon="10.250270178000696"><ele>99.33333333333333</ele><time>2026-03-29T10:22:29Z</time></trkpt><trkpt lat="44.76464889657287" lon="10.250506792182044"><ele>98.0</ele><time>2026-03-29T10:22:30Z</time></trkpt><trkpt lat="44.76476172429763" lon="10.250745984953264"><ele>98.0</ele><time>2026-03-29T10:22:31Z</time></trkpt><trkpt lat="44.76487180163212" lon="10.25099291487438"><ele>98.0</ele><time>2026-03-29T10:22:32Z</time></trkpt><trkpt lat="44.764982146733374" lon="10.251248695254583"><ele>98.0</ele><time>2026-03-29T10:22:33Z</time></trkpt><trkpt lat="44.76509565798482" lon="10.251504062531241"><ele>97.66666666666666</ele><time>2026-03-29T10:22:34Z</time></trkpt><trkpt lat="44.765213378316034" lon="10.25175764361169"><ele>97.33333333333334</ele><time>2026-03-29T10:22:35Z</time></trkpt><trkpt lat="44.765331665600094" lon="10.25201141254602"><ele>97.0</ele><time>2026-03-29T10:22:36Z</time></trkpt><trkpt lat="44.765444128333705" lon="10.252266469326567"><ele>97.33333333333334</ele><time>2026-03-29T10:22:37Z</time></trkpt><trkpt lat="44.76554915961826" lon="10.252510050339751"><ele>97.66666666666666</ele><time>2026-03-29T10:22:38Z</time></trkpt><trkpt lat="44.76564831242307" lon="10.252733536361303"><ele>98.0</ele><time>2026-03-29T10:22:39Z</time></trkpt><trkpt lat="44.76573981498287" lon="10.252947448959555"><ele>98.0</ele><time>2026-03-29T10:22:40Z</time></trkpt><trkpt lat="44.76583534744703" lon="10.253161184312242"><ele>98.0</ele><time>2026-03-29T10:22:41Z</time></trkpt><trkpt lat="44.76593036396714" lon="10.25337742800999"><ele>98.0</ele><time>2026-03-29T10:22:42Z</time></trkpt><trkpt lat="44.76602494398108" lon="10.253565203730272"><ele>98.25</ele><time>2026-03-29T10:22:43Z</time></trkpt><trkpt lat="44.766110922513676" lon="10.253743288332537"><ele>98.5</ele><time>2026-03-29T10:22:43.999Z</time></trkpt><trkpt lat="44.76619969424927" lon="10.253942421944181"><ele>98.75</ele><time>2026-03-29T10:22:44.999Z</time></trkpt><trkpt lat="44.76624505004517" lon="10.254037777643163"><ele>99.0</ele><time>2026-03-29T10:22:45.999Z</time></trkpt><trkpt lat="44.76629745081878" lon="10.254134363917249"><ele>98.4</ele><time>2026-03-29T10:22:46.999Z</time></trkpt><trkpt lat="44.766332509069485" lon="10.254223623911555"><ele>97.80000000000001</ele><time>2026-03-29T10:22:47.999Z</time></trkpt><trkpt lat="44.766497496071906" lon="10.25413118961106"><ele>97.19999999999999</ele><time>2026-03-29T10:22:49.999Z</time></trkpt><trkpt lat="44.766580135744725" lon="10.254092280342412"><ele>96.6</ele><time>2026-03-29T10:22:50.999Z</time></trkpt><trkpt lat="44.766679590117256" lon="10.254061124617797"><ele>96.0</ele><time>2026-03-29T10:22:51.999Z</time></trkpt><trkpt lat="44.76679530744883" lon="10.254055756277427"><ele>96.0</ele><time>2026-03-29T10:22:52.999Z</time></trkpt><trkpt lat="44.76691574821332" lon="10.254104538969944"><ele>96.0</ele><time>2026-03-29T10:22:53.999Z</time></trkpt><trkpt lat="44.767051815953316" lon="10.254152363389611"><ele>96.0</ele><time>2026-03-29T10:22:54.999Z</time></trkpt><trkpt lat="44.76718392065008" lon="10.25419396671865"><ele>96.0</ele><time>2026-03-29T10:22:55.999Z</time></trkpt><trkpt lat="44.76731109513523" lon="10.254229187277645"><ele>96.0</ele><time>2026-03-29T10:22:56.999Z</time></trkpt><trkpt lat="44.76743679334152" lon="10.254258800876512"><ele>96.0</ele><time>2026-03-29T10:22:57.999Z</time></trkpt><trkpt lat="44.767565388833255" lon="10.254299880970514"><ele>96.0</ele><time>2026-03-29T10:22:58.999Z</time></trkpt><trkpt lat="44.767698148887696" lon="10.25434278499508"><ele>96.0</ele><time>2026-03-29T10:22:59.999Z</time></trkpt><trkpt lat="44.76783180567244" lon="10.254378841984385"><ele>96.0</ele><time>2026-03-29T10:23:00.999Z</time></trkpt><trkpt lat="44.76795926315993" lon="10.254416036240658"><ele>96.0</ele><time>2026-03-29T10:23:01.999Z</time></trkpt><trkpt lat="44.76807918890278" lon="10.254456617433538"><ele>96.0</ele><time>2026-03-29T10:23:02.999Z</time></trkpt><trkpt lat="44.768197654627095" lon="10.254490694363017"><ele>96.0</ele><time>2026-03-29T10:23:03.999Z</time></trkpt><trkpt lat="44.76831316778985" lon="10.254524342799348"><ele>96.0</ele><time>2026-03-29T10:23:04.999Z</time></trkpt><trkpt lat="44.76841269346662" lon="10.254550961566673"><ele>96.0</ele><time>2026-03-29T10:23:05.999Z</time></trkpt><trkpt lat="44.76848442572501" lon="10.254562206225213"><ele>96.0</ele><time>2026-03-29T10:23:06.999Z</time></trkpt><trkpt lat="44.76852962678257" lon="10.254644742043865"><ele>96.0</ele><time>2026-03-29T10:23:08.999Z</time></trkpt><trkpt lat="44.768490004815" lon="10.254749708025635"><ele>96.0</ele><time>2026-03-29T10:23:10.999Z</time></trkpt><trkpt lat="44.768402086584935" lon="10.25467670443258"><ele>96.0</ele><time>2026-03-29T10:23:13.999Z</time></trkpt><trkpt lat="44.76831215836085" lon="10.254649435282696"><ele>96.0</ele><time>2026-03-29T10:23:16.999Z</time></trkpt><trkpt lat="44.7682337243375" lon="10.25462565150751"><ele>96.0</ele><time>2026-03-29T10:23:19.999Z</time></trkpt><trkpt lat="44.76813257116138" lon="10.25461154844212"><ele>96.0</ele><time>2026-03-29T10:23:22.999Z</time></trkpt><trkpt lat="44.76802978172383" lon="10.254563809493535"><ele>96.0</ele><time>2026-03-29T10:23:24.999Z</time></trkpt><trkpt lat="44.767962418675985" lon="10.254558768542033"><ele>96.0</ele><time>2026-03-29T10:23:25.999Z</time></trkpt><trkpt lat="44.76789547853161" lon="10.254531580702528"><ele>96.0</ele><time>2026-03-29T10:23:26.999Z</time></trkpt><trkpt lat="44.76782424329083" lon="10.254511658465486"><ele>96.0</ele><time>2026-03-29T10:23:27.999Z</time></trkpt><trkpt lat="44.76775021771657" lon="10.254496528680217"><ele>96.0</ele><time>2026-03-29T10:23:28.999Z</time></trkpt><trkpt lat="44.76767772686138" lon="10.254479076534823"><ele>96.0</ele><time>2026-03-29T10:23:29.999Z</time></trkpt><trkpt lat="44.76760807862953" lon="10.254455333499829"><ele>96.0</ele><time>2026-03-29T10:23:30.999Z</time></trkpt><trkpt lat="44.767500709682565" lon="10.25443816845173"><ele>96.0</ele><time>2026-03-29T10:23:32.999Z</time></trkpt><trkpt lat="44.7674317098348" lon="10.254569151278028"><ele>96.0</ele><time>2026-03-29T10:23:35Z</time></trkpt><trkpt lat="44.767417860093" lon="10.254666284957432"><ele>96.0</ele><time>2026-03-29T10:23:36Z</time></trkpt><trkpt lat="44.76740403418416" lon="10.254757729050638"><ele>96.0</ele><time>2026-03-29T10:23:37Z</time></trkpt><trkpt lat="44.767384175933785" lon="10.254847991805748"><ele>96.0</ele><time>2026-03-29T10:23:38Z</time></trkpt><trkpt lat="44.767365965526054" lon="10.254934358717119"><ele>96.0</ele><time>2026-03-29T10:23:39Z</time></trkpt><trkpt lat="44.767353092371096" lon="10.255051354976228"><ele>96.0</ele><time>2026-03-29T10:23:43Z</time></trkpt><trkpt lat="44.76731899707799" lon="10.255224178891094"><ele>96.0</ele><time>2026-03-29T10:23:45Z</time></trkpt><trkpt lat="44.76729998051779" lon="10.255326465213068"><ele>95.83333333333333</ele><time>2026-03-29T10:23:46Z</time></trkpt><trkpt lat="44.76727751327766" lon="10.255419166185426"><ele>95.66666666666667</ele><time>2026-03-29T10:23:47Z</time></trkpt><trkpt lat="44.76724012664872" lon="10.255549899892278"><ele>95.5</ele><time>2026-03-29T10:23:49Z</time></trkpt><trkpt lat="44.767222100741584" lon="10.25564130963325"><ele>95.33333333333334</ele><time>2026-03-29T10:23:53Z</time></trkpt><trkpt lat="44.76724128299027" lon="10.255555390784314"><ele>95.16666666666667</ele><time>2026-03-29T10:23:56Z</time></trkpt><trkpt lat="44.76726876825581" lon="10.255422230174329"><ele>95.0</ele><time>2026-03-29T10:23:59Z</time></trkpt><trkpt lat="44.76730447615858" lon="10.25531249720216"><ele>95.0</ele><time>2026-03-29T10:24:01Z</time></trkpt><trkpt lat="44.7673302283012" lon="10.255149151930247"><ele>95.0</ele><time>2026-03-29T10:24:03Z</time></trkpt><trkpt lat="44.7673648641334" lon="10.255011534749153"><ele>95.0</ele><time>2026-03-29T10:24:05Z</time></trkpt><trkpt lat="44.767402763027725" lon="10.254928407328483"><ele>95.0</ele><time>2026-03-29T10:24:18Z</time></trkpt><trkpt lat="44.767421982791525" lon="10.254804985467318"><ele>95.0</ele><time>2026-03-29T10:24:20Z</time></trkpt><trkpt lat="44.7674363425334" lon="10.254716585274837"><ele>95.0</ele><time>2026-03-29T10:24:21Z</time></trkpt><trkpt lat="44.76747208136564" lon="10.254595068095052"><ele>95.16666666666667</ele><time>2026-03-29T10:24:23Z</time></trkpt><trkpt lat="44.76744786690778" lon="10.254677303721422"><ele>95.33333333333334</ele><time>2026-03-29T10:24:30Z</time></trkpt><trkpt lat="44.767417535516145" lon="10.25475802923524"><ele>95.5</ele><time>2026-03-29T10:24:45Z</time></trkpt><trkpt lat="44.767452364607436" lon="10.254670053894776"><ele>95.66666666666667</ele><time>2026-03-29T10:24:47.999Z</time></trkpt><trkpt lat="44.7674718741388" lon="10.25457539851309"><ele>95.83333333333333</ele><time>2026-03-29T10:24:48.999Z</time></trkpt><trkpt lat="44.76749485567424" lon="10.254464806986636"><ele>96.0</ele><time>2026-03-29T10:24:49.999Z</time></trkpt><trkpt lat="44.767515327227315" lon="10.254314471568142"><ele>96.0</ele><time>2026-03-29T10:24:51.999Z</time></trkpt><trkpt lat="44.76761429835115" lon="10.254313885042665"><ele>96.0</ele><time>2026-03-29T10:24:54.999Z</time></trkpt><trkpt lat="44.76773065185192" lon="10.25432450388574"><ele>96.0</ele><time>2026-03-29T10:24:55.999Z</time></trkpt><trkpt lat="44.76786031637931" lon="10.254377581084524"><ele>96.0</ele><time>2026-03-29T10:24:56.999Z</time></trkpt><trkpt lat="44.76804024149418" lon="10.254443255681686"><ele>96.0</ele><time>2026-03-29T10:24:57.999Z</time></trkpt><trkpt lat="44.76820218724139" lon="10.254484807412016"><ele>96.0</ele><time>2026-03-29T10:24:58.999Z</time></trkpt><trkpt lat="44.76836036550004" lon="10.254531918635605"><ele>96.0</ele><time>2026-03-29T10:24:59.999Z</time></trkpt><trkpt lat="44.76850709521798" lon="10.254579050275046"><ele>95.0</ele><time>2026-03-29T10:25:00.999Z</time></trkpt><trkpt lat="44.76864403455414" lon="10.254612096721086"><ele>94.0</ele><time>2026-03-29T10:25:01.999Z</time></trkpt><trkpt lat="44.76879236201141" lon="10.254643184248147"><ele>93.0</ele><time>2026-03-29T10:25:02.999Z</time></trkpt><trkpt lat="44.7689454225129" lon="10.254680098842908"><ele>92.0</ele><time>2026-03-29T10:25:03.999Z</time></trkpt><trkpt lat="44.7690948839408" lon="10.254732775627074"><ele>92.0</ele><time>2026-03-29T10:25:04.999Z</time></trkpt><trkpt lat="44.76924659536387" lon="10.254770398331296"><ele>92.0</ele><time>2026-03-29T10:25:05.999Z</time></trkpt><trkpt lat="44.76937695310495" lon="10.254802678896459"><ele>92.0</ele><time>2026-03-29T10:25:06.999Z</time></trkpt><trkpt lat="44.7695093869807" lon="10.254837166854655"><ele>92.0</ele><time>2026-03-29T10:25:07.999Z</time></trkpt><trkpt lat="44.7696427969372" lon="10.254872315604658"><ele>92.0</ele><time>2026-03-29T10:25:08.999Z</time></trkpt><trkpt lat="44.76976577465586" lon="10.254917371354193"><ele>92.0</ele><time>2026-03-29T10:25:09.999Z</time></trkpt><trkpt lat="44.769885358187594" lon="10.254955666281353"><ele>92.0</ele><time>2026-03-29T10:25:10.999Z</time></trkpt><trkpt lat="44.77001032268356" lon="10.254996450496428"><ele>92.0</ele><time>2026-03-29T10:25:11.999Z</time></trkpt><trkpt lat="44.77013838288862" lon="10.255027939388963"><ele>92.0</ele><time>2026-03-29T10:25:12.999Z</time></trkpt><trkpt lat="44.77026831785884" lon="10.255065291760499"><ele>92.0</ele><time>2026-03-29T10:25:13.999Z</time></trkpt><trkpt lat="44.77038293122226" lon="10.255098111837885"><ele>92.0</ele><time>2026-03-29T10:25:14.999Z</time></trkpt><trkpt lat="44.77048996443113" lon="10.255121086740614"><ele>92.0</ele><time>2026-03-29T10:25:15.999Z</time></trkpt><trkpt lat="44.770587253629415" lon="10.255165534137094"><ele>92.0</ele><time>2026-03-29T10:25:16.999Z</time></trkpt><trkpt lat="44.77066244737489" lon="10.255192141002842"><ele>92.0</ele><time>2026-03-29T10:25:17.999Z</time></trkpt><trkpt lat="44.770695994141114" lon="10.2553900864996"><ele>92.0</ele><time>2026-03-29T10:25:18.999Z</time></trkpt><trkpt lat="44.77069624262007" lon="10.255545222004011"><ele>92.0</ele><time>2026-03-29T10:25:19.999Z</time></trkpt><trkpt lat="44.77066937306096" lon="10.255725261796842"><ele>92.0</ele><time>2026-03-29T10:25:20.999Z</time></trkpt><trkpt lat="44.77064779103288" lon="10.255916393567144"><ele>92.0</ele><time>2026-03-29T10:25:21.999Z</time></trkpt><trkpt lat="44.77062534990033" lon="10.256093402506123"><ele>92.0</ele><time>2026-03-29T10:25:22.999Z</time></trkpt><trkpt lat="44.7706087659787" lon="10.2562562869501"><ele>92.0</ele><time>2026-03-29T10:25:23.999Z</time></trkpt><trkpt lat="44.77058020490257" lon="10.256416381972143"><ele>92.0</ele><time>2026-03-29T10:25:24.999Z</time></trkpt><trkpt lat="44.770551487441864" lon="10.256562225864656"><ele>92.0</ele><time>2026-03-29T10:25:25.999Z</time></trkpt><trkpt lat="44.77054637886188" lon="10.256701477805862"><ele>92.0</ele><time>2026-03-29T10:25:26.999Z</time></trkpt><trkpt lat="44.77058554873162" lon="10.256838528626"><ele>92.0</ele><time>2026-03-29T10:25:27.999Z</time></trkpt><trkpt lat="44.77064636064903" lon="10.256969596942833"><ele>92.0</ele><time>2026-03-29T10:25:28.999Z</time></trkpt><trkpt lat="44.770722630603046" lon="10.257100646935116"><ele>92.0</ele><time>2026-03-29T10:25:29.999Z</time></trkpt><trkpt lat="44.770787291575466" lon="10.257244390744376"><ele>92.0</ele><time>2026-03-29T10:25:30.999Z</time></trkpt><trkpt lat="44.77084992502346" lon="10.257385454232434"><ele>92.0</ele><time>2026-03-29T10:25:31.999Z</time></trkpt><trkpt lat="44.77092139026605" lon="10.25754098697148"><ele>92.0</ele><time>2026-03-29T10:25:32.999Z</time></trkpt><trkpt lat="44.77098996339212" lon="10.257685597523635"><ele>91.25</ele><time>2026-03-29T10:25:33.999Z</time></trkpt><trkpt lat="44.771061923385965" lon="10.257842312829785"><ele>90.5</ele><time>2026-03-29T10:25:34.999Z</time></trkpt><trkpt lat="44.771135190919125" lon="10.258002058051334"><ele>89.75</ele><time>2026-03-29T10:25:35.999Z</time></trkpt><trkpt lat="44.771214856442064" lon="10.258160759059852"><ele>89.0</ele><time>2026-03-29T10:25:36.999Z</time></trkpt><trkpt lat="44.77129529692999" lon="10.258324919636724"><ele>88.75</ele><time>2026-03-29T10:25:37.999Z</time></trkpt><trkpt lat="44.771375309552916" lon="10.258492773099011"><ele>88.5</ele><time>2026-03-29T10:25:38.999Z</time></trkpt><trkpt lat="44.771458637650404" lon="10.258663076114201"><ele>88.25</ele><time>2026-03-29T10:25:40Z</time></trkpt><trkpt lat="44.7715384701588" lon="10.258830327955767"><ele>88.0</ele><time>2026-03-29T10:25:41Z</time></trkpt><trkpt lat="44.77162175353858" lon="10.25899870139164"><ele>88.75</ele><time>2026-03-29T10:25:42Z</time></trkpt><trkpt lat="44.7717033744026" lon="10.259169242104106"><ele>89.5</ele><time>2026-03-29T10:25:43Z</time></trkpt><trkpt lat="44.771783894720684" lon="10.259335388673346"><ele>90.25</ele><time>2026-03-29T10:25:44Z</time></trkpt><trkpt lat="44.771860950980766" lon="10.259503558802797"><ele>91.0</ele><time>2026-03-29T10:25:45Z</time></trkpt><trkpt lat="44.77193860148811" lon="10.259675746406897"><ele>90.0</ele><time>2026-03-29T10:25:46Z</time></trkpt><trkpt lat="44.77202124356848" lon="10.25985308954549"><ele>89.0</ele><time>2026-03-29T10:25:47Z</time></trkpt><trkpt lat="44.77210529300358" lon="10.260038831389759"><ele>88.0</ele><time>2026-03-29T10:25:48Z</time></trkpt><trkpt lat="44.77219002470469" lon="10.260223812979293"><ele>88.0</ele><time>2026-03-29T10:25:49Z</time></trkpt><trkpt lat="44.77227816605853" lon="10.260402422617915"><ele>88.0</ele><time>2026-03-29T10:25:50Z</time></trkpt><trkpt lat="44.77235891381273" lon="10.260577875136494"><ele>88.0</ele><time>2026-03-29T10:25:51Z</time></trkpt><trkpt lat="44.77244449995717" lon="10.260752231108306"><ele>88.33333333333333</ele><time>2026-03-29T10:25:52Z</time></trkpt><trkpt lat="44.77253007861762" lon="10.260929898130357"><ele>88.66666666666667</ele><time>2026-03-29T10:25:53Z</time></trkpt><trkpt lat="44.77261651619134" lon="10.261108991782733"><ele>89.0</ele><time>2026-03-29T10:25:54Z</time></trkpt><trkpt lat="44.77270529190254" lon="10.26128857638326"><ele>88.66666666666667</ele><time>2026-03-29T10:25:55Z</time></trkpt><trkpt lat="44.77279054740735" lon="10.261468166240226"><ele>88.33333333333333</ele><time>2026-03-29T10:25:56Z</time></trkpt><trkpt lat="44.77287553519732" lon="10.261643516685112"><ele>88.0</ele><time>2026-03-29T10:25:57Z</time></trkpt><trkpt lat="44.77296153326924" lon="10.261815982747988"><ele>88.0</ele><time>2026-03-29T10:25:58Z</time></trkpt><trkpt lat="44.77303416913547" lon="10.261998415859127"><ele>88.0</ele><time>2026-03-29T10:25:59Z</time></trkpt><trkpt lat="44.773113612802845" lon="10.262169044100137"><ele>88.0</ele><time>2026-03-29T10:26:00Z</time></trkpt><trkpt lat="44.7731933642822" lon="10.262332459399573"><ele>88.0</ele><time>2026-03-29T10:26:01Z</time></trkpt><trkpt lat="44.77327415119016" lon="10.262491810234431"><ele>88.0</ele><time>2026-03-29T10:26:02Z</time></trkpt><trkpt lat="44.773349465987316" lon="10.262650863810794"><ele>88.0</ele><time>2026-03-29T10:26:03Z</time></trkpt><trkpt lat="44.77342166213517" lon="10.262808475602824"><ele>88.0</ele><time>2026-03-29T10:26:04Z</time></trkpt><trkpt lat="44.77349897335214" lon="10.262959598404223"><ele>88.0</ele><time>2026-03-29T10:26:05Z</time></trkpt><trkpt lat="44.7735622938252" lon="10.263109765572276"><ele>87.4</ele><time>2026-03-29T10:26:06Z</time></trkpt><trkpt lat="44.773620986000225" lon="10.263244628092394"><ele>86.80000000000001</ele><time>2026-03-29T10:26:07Z</time></trkpt><trkpt lat="44.77368176453631" lon="10.263366495534045"><ele>86.2</ele><time>2026-03-29T10:26:08Z</time></trkpt><trkpt lat="44.77373487742247" lon="10.263473156702531"><ele>85.6</ele><time>2026-03-29T10:26:09Z</time></trkpt><trkpt lat="44.77378441719738" lon="10.26354328503743"><ele>85.0</ele><time>2026-03-29T10:26:10Z</time></trkpt><trkpt lat="44.77394469058247" lon="10.263520537105196"><ele>85.0</ele><time>2026-03-29T10:26:13Z</time></trkpt><trkpt lat="44.773967154457054" lon="10.263407535735304"><ele>85.0</ele><time>2026-03-29T10:26:15Z</time></trkpt><trkpt lat="44.77398833737068" lon="10.26330900907079"><ele>85.0</ele><time>2026-03-29T10:26:18Z</time></trkpt><trkpt lat="44.77399944086771" lon="10.263197333828272"><ele>85.0</ele><time>2026-03-29T10:26:35Z</time></trkpt><trkpt lat="44.77400743867631" lon="10.263098150640838"><ele>85.0</ele><time>2026-03-29T10:26:38Z</time></trkpt><trkpt lat="44.77390836892259" lon="10.263062099049236"><ele>85.0</ele><time>2026-03-29T10:26:40Z</time></trkpt><trkpt lat="44.773819698845834" lon="10.263048174653877"><ele>85.16666666666666</ele><time>2026-03-29T10:26:42Z</time></trkpt><trkpt lat="44.77375386905636" lon="10.263001038497027"><ele>85.33333333333333</ele><time>2026-03-29T10:26:45Z</time></trkpt><trkpt lat="44.773687416938714" lon="10.26297361628704"><ele>85.5</ele><time>2026-03-29T10:26:50Z</time></trkpt><trkpt lat="44.77366115724909" lon="10.262835042007135"><ele>85.66666666666667</ele><time>2026-03-29T10:26:52.999Z</time></trkpt><trkpt lat="44.77362459095815" lon="10.26274742825792"><ele>85.83333333333334</ele><time>2026-03-29T10:26:54.999Z</time></trkpt><trkpt lat="44.77358067731445" lon="10.262657549884644"><ele>86.0</ele><time>2026-03-29T10:26:56.999Z</time></trkpt><trkpt lat="44.773630427486665" lon="10.26258510921687"><ele>86.0</ele><time>2026-03-29T10:26:59.999Z</time></trkpt><trkpt lat="44.77359663639311" lon="10.262670208450595"><ele>86.0</ele><time>2026-03-29T10:28:37Z</time></trkpt><trkpt lat="44.77365809885576" lon="10.262703756722084"><ele>86.0</ele><time>2026-03-29T10:28:56Z</time></trkpt><trkpt lat="44.77366172832819" lon="10.262601291608453"><ele>86.0</ele><time>2026-03-29T10:28:57.999Z</time></trkpt><trkpt lat="44.77375229758068" lon="10.262533605731338"><ele>86.0</ele><time>2026-03-29T10:33:19.999Z</time></trkpt><trkpt lat="44.773830256162036" lon="10.262554331057384"><ele>86.0</ele><time>2026-03-29T10:33:34.999Z</time></trkpt><trkpt lat="44.773883573093705" lon="10.262498903985266"><ele>86.0</ele><time>2026-03-29T10:33:38.999Z</time></trkpt><trkpt lat="44.77387254908358" lon="10.262344190501793"><ele>86.0</ele><time>2026-03-29T10:33:41.999Z</time></trkpt><trkpt lat="44.77379550187207" lon="10.262409089010141"><ele>86.0</ele><time>2026-03-29T10:33:54.999Z</time></trkpt><trkpt lat="44.7737283634906" lon="10.26249920049419"><ele>86.0</ele><time>2026-03-29T10:33:56.999Z</time></trkpt><trkpt lat="44.773686961670926" lon="10.26258238320368"><ele>86.0</ele><time>2026-03-29T10:34:07Z</time></trkpt><trkpt lat="44.773635201884034" lon="10.26263819445699"><ele>86.0</ele><time>2026-03-29T10:34:17Z</time></trkpt><trkpt lat="44.773708286051836" lon="10.262699112992633"><ele>86.0</ele><time>2026-03-29T10:38:13.999Z</time></trkpt><trkpt lat="44.773685157801104" lon="10.262791358175924"><ele>86.0</ele><time>2026-03-29T10:38:24Z</time></trkpt><trkpt lat="44.7736059150012" lon="10.262809129903424"><ele>86.0</ele><time>2026-03-29T10:38:42Z</time></trkpt><trkpt lat="44.773695193753056" lon="10.262845702796787"><ele>86.0</ele><time>2026-03-29T10:39:08Z</time></trkpt><trkpt lat="44.77361851695578" lon="10.262811022321834"><ele>86.0</ele><time>2026-03-29T10:39:09Z</time></trkpt></trkseg></trk></gpx>